<?xml version="1.0" encoding="UTF-8"?>
<gpx version="1.1" creator="https://www.youtrack.es" xsi:schemaLocation="http://www.topografix.com/GPX/1/1 http://www.topografix.com/GPX/1/1/gpx.xsd http://www.garmin.com/xmlschemas/GpxExtensions/v3 http://www.garmin.com/xmlschemas/GpxExtensionsv3.xsd http://www.garmin.com/xmlschemas/TrackPointExtension/v1 http://www.garmin.com/xmlschemas/TrackPointExtensionv1.xsd" xmlns:gpxtpx="http://www.garmin.com/xmlschemas/TrackPointExtension/v1" xmlns:gpxx="http://www.garmin.com/xmlschemas/GpxExtensions/v3" xmlns:xsi="http://www.w3.org/2001/XMLSchema-instance">
  <metadata>
    <link href="https://www.youtrack.es">
      <text>YouTrack.es</text>
    </link>
    <time>2026-05-08T13:05:53Z</time>
  </metadata>
  <trk>
    <src>https://www.youtrack.es</src>
    <link href="https://www.youtrack.es/ruta/19507-zepp20210213181821">
      <text>YouTrack.es</text>
    </link>
    <trkseg>
      <trkpt lat="38.95296" lon="-5.8622565">
        <ele>290.0</ele>
        <time>2021-02-13T10:26:37Z</time>
      </trkpt>
      <trkpt lat="38.952953" lon="-5.8622603">
        <ele>290.0</ele>
        <time>2021-02-13T10:26:38Z</time>
      </trkpt>
      <trkpt lat="38.95293" lon="-5.8622656">
        <ele>290.0</ele>
        <time>2021-02-13T10:26:39Z</time>
      </trkpt>
      <trkpt lat="38.952908" lon="-5.8622713">
        <ele>290.0</ele>
        <time>2021-02-13T10:26:40Z</time>
      </trkpt>
      <trkpt lat="38.952877" lon="-5.8622785">
        <ele>290.0</ele>
        <time>2021-02-13T10:26:41Z</time>
      </trkpt>
      <trkpt lat="38.952847" lon="-5.8622823">
        <ele>290.0</ele>
        <time>2021-02-13T10:26:42Z</time>
      </trkpt>
      <trkpt lat="38.95281" lon="-5.862277">
        <ele>290.0</ele>
        <time>2021-02-13T10:26:43Z</time>
      </trkpt>
      <trkpt lat="38.95277" lon="-5.862267">
        <ele>290.0</ele>
        <time>2021-02-13T10:26:44Z</time>
      </trkpt>
      <trkpt lat="38.952732" lon="-5.8622527">
        <ele>290.0</ele>
        <time>2021-02-13T10:26:45Z</time>
      </trkpt>
      <trkpt lat="38.95269" lon="-5.8622375">
        <ele>291.0</ele>
        <time>2021-02-13T10:26:46Z</time>
      </trkpt>
      <trkpt lat="38.952652" lon="-5.8622265">
        <ele>291.0</ele>
        <time>2021-02-13T10:26:47Z</time>
      </trkpt>
      <trkpt lat="38.95261" lon="-5.8622165">
        <ele>291.0</ele>
        <time>2021-02-13T10:26:48Z</time>
      </trkpt>
      <trkpt lat="38.95257" lon="-5.862208">
        <ele>291.0</ele>
        <time>2021-02-13T10:26:49Z</time>
      </trkpt>
      <trkpt lat="38.95253" lon="-5.862204">
        <ele>291.0</ele>
        <time>2021-02-13T10:26:50Z</time>
      </trkpt>
      <trkpt lat="38.952496" lon="-5.862205">
        <ele>291.0</ele>
        <time>2021-02-13T10:26:51Z</time>
      </trkpt>
      <trkpt lat="38.95246" lon="-5.862206">
        <ele>291.0</ele>
        <time>2021-02-13T10:26:52Z</time>
      </trkpt>
      <trkpt lat="38.952423" lon="-5.862206">
        <ele>291.0</ele>
        <time>2021-02-13T10:26:53Z</time>
      </trkpt>
      <trkpt lat="38.952385" lon="-5.862195">
        <ele>291.0</ele>
        <time>2021-02-13T10:26:54Z</time>
      </trkpt>
      <trkpt lat="38.952347" lon="-5.862181">
        <ele>291.0</ele>
        <time>2021-02-13T10:26:55Z</time>
      </trkpt>
      <trkpt lat="38.952316" lon="-5.862161">
        <ele>291.0</ele>
        <time>2021-02-13T10:26:56Z</time>
      </trkpt>
      <trkpt lat="38.952286" lon="-5.8621397">
        <ele>291.0</ele>
        <time>2021-02-13T10:26:57Z</time>
      </trkpt>
      <trkpt lat="38.95226" lon="-5.8621182">
        <ele>291.0</ele>
        <time>2021-02-13T10:26:58Z</time>
      </trkpt>
      <trkpt lat="38.952232" lon="-5.862094">
        <ele>291.0</ele>
        <time>2021-02-13T10:26:59Z</time>
      </trkpt>
      <trkpt lat="38.952206" lon="-5.8620696">
        <ele>291.0</ele>
        <time>2021-02-13T10:27:00Z</time>
      </trkpt>
      <trkpt lat="38.952183" lon="-5.862047">
        <ele>291.0</ele>
        <time>2021-02-13T10:27:01Z</time>
      </trkpt>
      <trkpt lat="38.952152" lon="-5.862028">
        <ele>291.0</ele>
        <time>2021-02-13T10:27:02Z</time>
      </trkpt>
      <trkpt lat="38.95212" lon="-5.8620167">
        <ele>292.0</ele>
        <time>2021-02-13T10:27:03Z</time>
      </trkpt>
      <trkpt lat="38.95209" lon="-5.8620076">
        <ele>292.0</ele>
        <time>2021-02-13T10:27:04Z</time>
      </trkpt>
      <trkpt lat="38.952057" lon="-5.862">
        <ele>292.0</ele>
        <time>2021-02-13T10:27:05Z</time>
      </trkpt>
      <trkpt lat="38.952015" lon="-5.861991">
        <ele>292.0</ele>
        <time>2021-02-13T10:27:06Z</time>
      </trkpt>
      <trkpt lat="38.95198" lon="-5.861985">
        <ele>293.0</ele>
        <time>2021-02-13T10:27:07Z</time>
      </trkpt>
      <trkpt lat="38.95195" lon="-5.8619847">
        <ele>293.0</ele>
        <time>2021-02-13T10:27:08Z</time>
      </trkpt>
      <trkpt lat="38.951916" lon="-5.861988">
        <ele>293.0</ele>
        <time>2021-02-13T10:27:09Z</time>
      </trkpt>
      <trkpt lat="38.951885" lon="-5.861993">
        <ele>293.0</ele>
        <time>2021-02-13T10:27:10Z</time>
      </trkpt>
      <trkpt lat="38.951855" lon="-5.8619924">
        <ele>294.0</ele>
        <time>2021-02-13T10:27:11Z</time>
      </trkpt>
      <trkpt lat="38.951824" lon="-5.8619833">
        <ele>294.0</ele>
        <time>2021-02-13T10:27:12Z</time>
      </trkpt>
      <trkpt lat="38.951797" lon="-5.861975">
        <ele>294.0</ele>
        <time>2021-02-13T10:27:13Z</time>
      </trkpt>
      <trkpt lat="38.95177" lon="-5.8619685">
        <ele>294.0</ele>
        <time>2021-02-13T10:27:14Z</time>
      </trkpt>
      <trkpt lat="38.95174" lon="-5.8619623">
        <ele>294.0</ele>
        <time>2021-02-13T10:27:15Z</time>
      </trkpt>
      <trkpt lat="38.951714" lon="-5.861959">
        <ele>295.0</ele>
        <time>2021-02-13T10:27:16Z</time>
      </trkpt>
      <trkpt lat="38.95169" lon="-5.8619595">
        <ele>295.0</ele>
        <time>2021-02-13T10:27:17Z</time>
      </trkpt>
      <trkpt lat="38.951668" lon="-5.861963">
        <ele>295.0</ele>
        <time>2021-02-13T10:27:18Z</time>
      </trkpt>
      <trkpt lat="38.951645" lon="-5.8619637">
        <ele>295.0</ele>
        <time>2021-02-13T10:27:19Z</time>
      </trkpt>
      <trkpt lat="38.951614" lon="-5.861963">
        <ele>295.0</ele>
        <time>2021-02-13T10:27:20Z</time>
      </trkpt>
      <trkpt lat="38.951576" lon="-5.8619623">
        <ele>296.0</ele>
        <time>2021-02-13T10:27:21Z</time>
      </trkpt>
      <trkpt lat="38.951538" lon="-5.8619604">
        <ele>296.0</ele>
        <time>2021-02-13T10:27:22Z</time>
      </trkpt>
      <trkpt lat="38.951496" lon="-5.8619576">
        <ele>296.0</ele>
        <time>2021-02-13T10:27:23Z</time>
      </trkpt>
      <trkpt lat="38.951458" lon="-5.861953">
        <ele>296.0</ele>
        <time>2021-02-13T10:27:24Z</time>
      </trkpt>
      <trkpt lat="38.95142" lon="-5.8619475">
        <ele>297.0</ele>
        <time>2021-02-13T10:27:25Z</time>
      </trkpt>
      <trkpt lat="38.95138" lon="-5.8619432">
        <ele>297.0</ele>
        <time>2021-02-13T10:27:26Z</time>
      </trkpt>
      <trkpt lat="38.95134" lon="-5.861937">
        <ele>297.0</ele>
        <time>2021-02-13T10:27:27Z</time>
      </trkpt>
      <trkpt lat="38.9513" lon="-5.861933">
        <ele>297.0</ele>
        <time>2021-02-13T10:27:28Z</time>
      </trkpt>
      <trkpt lat="38.95126" lon="-5.861934">
        <ele>297.0</ele>
        <time>2021-02-13T10:27:29Z</time>
      </trkpt>
      <trkpt lat="38.951225" lon="-5.861936">
        <ele>297.0</ele>
        <time>2021-02-13T10:27:30Z</time>
      </trkpt>
      <trkpt lat="38.951195" lon="-5.861936">
        <ele>297.0</ele>
        <time>2021-02-13T10:27:31Z</time>
      </trkpt>
      <trkpt lat="38.951168" lon="-5.861933">
        <ele>297.0</ele>
        <time>2021-02-13T10:27:32Z</time>
      </trkpt>
      <trkpt lat="38.95114" lon="-5.8619285">
        <ele>297.0</ele>
        <time>2021-02-13T10:27:33Z</time>
      </trkpt>
      <trkpt lat="38.95112" lon="-5.861922">
        <ele>297.0</ele>
        <time>2021-02-13T10:27:34Z</time>
      </trkpt>
      <trkpt lat="38.951096" lon="-5.861911">
        <ele>297.0</ele>
        <time>2021-02-13T10:27:35Z</time>
      </trkpt>
      <trkpt lat="38.951065" lon="-5.861897">
        <ele>297.0</ele>
        <time>2021-02-13T10:27:36Z</time>
      </trkpt>
      <trkpt lat="38.95103" lon="-5.861884">
        <ele>297.0</ele>
        <time>2021-02-13T10:27:37Z</time>
      </trkpt>
      <trkpt lat="38.951" lon="-5.861874">
        <ele>297.0</ele>
        <time>2021-02-13T10:27:38Z</time>
      </trkpt>
      <trkpt lat="38.950962" lon="-5.8618674">
        <ele>297.0</ele>
        <time>2021-02-13T10:27:39Z</time>
      </trkpt>
      <trkpt lat="38.950924" lon="-5.861863">
        <ele>297.0</ele>
        <time>2021-02-13T10:27:40Z</time>
      </trkpt>
      <trkpt lat="38.950882" lon="-5.861861">
        <ele>297.0</ele>
        <time>2021-02-13T10:27:41Z</time>
      </trkpt>
      <trkpt lat="38.950836" lon="-5.86186">
        <ele>297.0</ele>
        <time>2021-02-13T10:27:42Z</time>
      </trkpt>
      <trkpt lat="38.950798" lon="-5.8618593">
        <ele>297.0</ele>
        <time>2021-02-13T10:27:43Z</time>
      </trkpt>
      <trkpt lat="38.950764" lon="-5.8618565">
        <ele>297.0</ele>
        <time>2021-02-13T10:27:44Z</time>
      </trkpt>
      <trkpt lat="38.95072" lon="-5.8618617">
        <ele>297.0</ele>
        <time>2021-02-13T10:27:45Z</time>
      </trkpt>
      <trkpt lat="38.950676" lon="-5.8618693">
        <ele>297.0</ele>
        <time>2021-02-13T10:27:46Z</time>
      </trkpt>
      <trkpt lat="38.95063" lon="-5.8618803">
        <ele>297.0</ele>
        <time>2021-02-13T10:27:47Z</time>
      </trkpt>
      <trkpt lat="38.95058" lon="-5.8618894">
        <ele>297.0</ele>
        <time>2021-02-13T10:27:48Z</time>
      </trkpt>
      <trkpt lat="38.950527" lon="-5.861893">
        <ele>297.0</ele>
        <time>2021-02-13T10:27:49Z</time>
      </trkpt>
      <trkpt lat="38.95047" lon="-5.8618946">
        <ele>297.0</ele>
        <time>2021-02-13T10:27:50Z</time>
      </trkpt>
      <trkpt lat="38.950417" lon="-5.8618913">
        <ele>297.0</ele>
        <time>2021-02-13T10:27:51Z</time>
      </trkpt>
      <trkpt lat="38.950363" lon="-5.8618855">
        <ele>297.0</ele>
        <time>2021-02-13T10:27:52Z</time>
      </trkpt>
      <trkpt lat="38.950314" lon="-5.861878">
        <ele>297.0</ele>
        <time>2021-02-13T10:27:53Z</time>
      </trkpt>
      <trkpt lat="38.950256" lon="-5.8618684">
        <ele>297.0</ele>
        <time>2021-02-13T10:27:54Z</time>
      </trkpt>
      <trkpt lat="38.9502" lon="-5.861863">
        <ele>297.0</ele>
        <time>2021-02-13T10:27:55Z</time>
      </trkpt>
      <trkpt lat="38.950138" lon="-5.861864">
        <ele>297.0</ele>
        <time>2021-02-13T10:27:56Z</time>
      </trkpt>
      <trkpt lat="38.950077" lon="-5.8618712">
        <ele>297.0</ele>
        <time>2021-02-13T10:27:57Z</time>
      </trkpt>
      <trkpt lat="38.95002" lon="-5.861882">
        <ele>297.0</ele>
        <time>2021-02-13T10:27:58Z</time>
      </trkpt>
      <trkpt lat="38.949963" lon="-5.8618956">
        <ele>297.0</ele>
        <time>2021-02-13T10:27:59Z</time>
      </trkpt>
      <trkpt lat="38.94991" lon="-5.8619123">
        <ele>297.0</ele>
        <time>2021-02-13T10:28:00Z</time>
      </trkpt>
      <trkpt lat="38.949856" lon="-5.861929">
        <ele>297.0</ele>
        <time>2021-02-13T10:28:01Z</time>
      </trkpt>
      <trkpt lat="38.949802" lon="-5.8619423">
        <ele>297.0</ele>
        <time>2021-02-13T10:28:02Z</time>
      </trkpt>
      <trkpt lat="38.94975" lon="-5.8619566">
        <ele>297.0</ele>
        <time>2021-02-13T10:28:03Z</time>
      </trkpt>
      <trkpt lat="38.94969" lon="-5.8619733">
        <ele>297.0</ele>
        <time>2021-02-13T10:28:04Z</time>
      </trkpt>
      <trkpt lat="38.94964" lon="-5.86199">
        <ele>297.0</ele>
        <time>2021-02-13T10:28:05Z</time>
      </trkpt>
      <trkpt lat="38.94958" lon="-5.862004">
        <ele>297.0</ele>
        <time>2021-02-13T10:28:06Z</time>
      </trkpt>
      <trkpt lat="38.949524" lon="-5.862017">
        <ele>297.0</ele>
        <time>2021-02-13T10:28:07Z</time>
      </trkpt>
      <trkpt lat="38.94947" lon="-5.8620267">
        <ele>297.0</ele>
        <time>2021-02-13T10:28:08Z</time>
      </trkpt>
      <trkpt lat="38.949417" lon="-5.8620324">
        <ele>297.0</ele>
        <time>2021-02-13T10:28:09Z</time>
      </trkpt>
      <trkpt lat="38.949364" lon="-5.862037">
        <ele>297.0</ele>
        <time>2021-02-13T10:28:10Z</time>
      </trkpt>
      <trkpt lat="38.94931" lon="-5.8620424">
        <ele>297.0</ele>
        <time>2021-02-13T10:28:11Z</time>
      </trkpt>
      <trkpt lat="38.94926" lon="-5.862049">
        <ele>297.0</ele>
        <time>2021-02-13T10:28:12Z</time>
      </trkpt>
      <trkpt lat="38.94921" lon="-5.8620596">
        <ele>297.0</ele>
        <time>2021-02-13T10:28:13Z</time>
      </trkpt>
      <trkpt lat="38.94917" lon="-5.8620744">
        <ele>297.0</ele>
        <time>2021-02-13T10:28:14Z</time>
      </trkpt>
      <trkpt lat="38.94913" lon="-5.8620954">
        <ele>297.0</ele>
        <time>2021-02-13T10:28:15Z</time>
      </trkpt>
      <trkpt lat="38.9491" lon="-5.862124">
        <ele>297.0</ele>
        <time>2021-02-13T10:28:16Z</time>
      </trkpt>
      <trkpt lat="38.949078" lon="-5.8621607">
        <ele>297.0</ele>
        <time>2021-02-13T10:28:17Z</time>
      </trkpt>
      <trkpt lat="38.949062" lon="-5.8622026">
        <ele>297.0</ele>
        <time>2021-02-13T10:28:18Z</time>
      </trkpt>
      <trkpt lat="38.949043" lon="-5.8622503">
        <ele>297.0</ele>
        <time>2021-02-13T10:28:19Z</time>
      </trkpt>
      <trkpt lat="38.949017" lon="-5.8622956">
        <ele>297.0</ele>
        <time>2021-02-13T10:28:20Z</time>
      </trkpt>
      <trkpt lat="38.94899" lon="-5.862337">
        <ele>297.0</ele>
        <time>2021-02-13T10:28:21Z</time>
      </trkpt>
      <trkpt lat="38.94895" lon="-5.862368">
        <ele>297.0</ele>
        <time>2021-02-13T10:28:22Z</time>
      </trkpt>
      <trkpt lat="38.948914" lon="-5.862381">
        <ele>297.0</ele>
        <time>2021-02-13T10:28:23Z</time>
      </trkpt>
      <trkpt lat="38.948875" lon="-5.8623753">
        <ele>297.0</ele>
        <time>2021-02-13T10:28:24Z</time>
      </trkpt>
      <trkpt lat="38.94884" lon="-5.86235">
        <ele>297.0</ele>
        <time>2021-02-13T10:28:25Z</time>
      </trkpt>
      <trkpt lat="38.94882" lon="-5.862311">
        <ele>297.0</ele>
        <time>2021-02-13T10:28:26Z</time>
      </trkpt>
      <trkpt lat="38.948807" lon="-5.862262">
        <ele>297.0</ele>
        <time>2021-02-13T10:28:27Z</time>
      </trkpt>
      <trkpt lat="38.9488" lon="-5.862205">
        <ele>297.0</ele>
        <time>2021-02-13T10:28:28Z</time>
      </trkpt>
      <trkpt lat="38.9488" lon="-5.8621454">
        <ele>297.0</ele>
        <time>2021-02-13T10:28:29Z</time>
      </trkpt>
      <trkpt lat="38.94881" lon="-5.8620853">
        <ele>297.0</ele>
        <time>2021-02-13T10:28:30Z</time>
      </trkpt>
      <trkpt lat="38.948822" lon="-5.862025">
        <ele>297.0</ele>
        <time>2021-02-13T10:28:31Z</time>
      </trkpt>
      <trkpt lat="38.948837" lon="-5.861968">
        <ele>297.0</ele>
        <time>2021-02-13T10:28:32Z</time>
      </trkpt>
      <trkpt lat="38.948845" lon="-5.861914">
        <ele>297.0</ele>
        <time>2021-02-13T10:28:33Z</time>
      </trkpt>
      <trkpt lat="38.948853" lon="-5.8618636">
        <ele>297.0</ele>
        <time>2021-02-13T10:28:34Z</time>
      </trkpt>
      <trkpt lat="38.94886" lon="-5.861811">
        <ele>297.0</ele>
        <time>2021-02-13T10:28:35Z</time>
      </trkpt>
      <trkpt lat="38.948868" lon="-5.861758">
        <ele>297.0</ele>
        <time>2021-02-13T10:28:36Z</time>
      </trkpt>
      <trkpt lat="38.948875" lon="-5.861703">
        <ele>297.0</ele>
        <time>2021-02-13T10:28:37Z</time>
      </trkpt>
      <trkpt lat="38.948883" lon="-5.861645">
        <ele>297.0</ele>
        <time>2021-02-13T10:28:38Z</time>
      </trkpt>
      <trkpt lat="38.948887" lon="-5.8615847">
        <ele>297.0</ele>
        <time>2021-02-13T10:28:39Z</time>
      </trkpt>
      <trkpt lat="38.94889" lon="-5.8615255">
        <ele>297.0</ele>
        <time>2021-02-13T10:28:40Z</time>
      </trkpt>
      <trkpt lat="38.94889" lon="-5.8614593">
        <ele>297.0</ele>
        <time>2021-02-13T10:28:41Z</time>
      </trkpt>
      <trkpt lat="38.9489" lon="-5.8613935">
        <ele>297.0</ele>
        <time>2021-02-13T10:28:42Z</time>
      </trkpt>
      <trkpt lat="38.9489" lon="-5.861328">
        <ele>297.0</ele>
        <time>2021-02-13T10:28:43Z</time>
      </trkpt>
      <trkpt lat="38.948906" lon="-5.861261">
        <ele>297.0</ele>
        <time>2021-02-13T10:28:44Z</time>
      </trkpt>
      <trkpt lat="38.94891" lon="-5.861193">
        <ele>297.0</ele>
        <time>2021-02-13T10:28:45Z</time>
      </trkpt>
      <trkpt lat="38.948914" lon="-5.8611264">
        <ele>297.0</ele>
        <time>2021-02-13T10:28:46Z</time>
      </trkpt>
      <trkpt lat="38.948906" lon="-5.861063">
        <ele>298.0</ele>
        <time>2021-02-13T10:28:48Z</time>
      </trkpt>
      <trkpt lat="38.948902" lon="-5.861001">
        <ele>298.0</ele>
        <time>2021-02-13T10:28:49Z</time>
      </trkpt>
      <trkpt lat="38.94889" lon="-5.860934">
        <ele>298.0</ele>
        <time>2021-02-13T10:28:50Z</time>
      </trkpt>
      <trkpt lat="38.948887" lon="-5.860872">
        <ele>298.0</ele>
        <time>2021-02-13T10:28:51Z</time>
      </trkpt>
      <trkpt lat="38.948883" lon="-5.8608146">
        <ele>298.0</ele>
        <time>2021-02-13T10:28:52Z</time>
      </trkpt>
      <trkpt lat="38.948883" lon="-5.860758">
        <ele>298.0</ele>
        <time>2021-02-13T10:28:53Z</time>
      </trkpt>
      <trkpt lat="38.948883" lon="-5.8607">
        <ele>298.0</ele>
        <time>2021-02-13T10:28:54Z</time>
      </trkpt>
      <trkpt lat="38.948883" lon="-5.8606405">
        <ele>299.0</ele>
        <time>2021-02-13T10:28:55Z</time>
      </trkpt>
      <trkpt lat="38.94889" lon="-5.860583">
        <ele>299.0</ele>
        <time>2021-02-13T10:28:56Z</time>
      </trkpt>
      <trkpt lat="38.94889" lon="-5.8605294">
        <ele>299.0</ele>
        <time>2021-02-13T10:28:57Z</time>
      </trkpt>
      <trkpt lat="38.9489" lon="-5.860477">
        <ele>299.0</ele>
        <time>2021-02-13T10:28:58Z</time>
      </trkpt>
      <trkpt lat="38.948906" lon="-5.860419">
        <ele>299.0</ele>
        <time>2021-02-13T10:28:59Z</time>
      </trkpt>
      <trkpt lat="38.948914" lon="-5.860358">
        <ele>299.0</ele>
        <time>2021-02-13T10:29:00Z</time>
      </trkpt>
      <trkpt lat="38.94892" lon="-5.8602977">
        <ele>299.0</ele>
        <time>2021-02-13T10:29:01Z</time>
      </trkpt>
      <trkpt lat="38.94892" lon="-5.860234">
        <ele>299.0</ele>
        <time>2021-02-13T10:29:02Z</time>
      </trkpt>
      <trkpt lat="38.94893" lon="-5.860171">
        <ele>300.0</ele>
        <time>2021-02-13T10:29:03Z</time>
      </trkpt>
      <trkpt lat="38.948936" lon="-5.860107">
        <ele>300.0</ele>
        <time>2021-02-13T10:29:04Z</time>
      </trkpt>
      <trkpt lat="38.94894" lon="-5.860039">
        <ele>300.0</ele>
        <time>2021-02-13T10:29:05Z</time>
      </trkpt>
      <trkpt lat="38.948944" lon="-5.859972">
        <ele>300.0</ele>
        <time>2021-02-13T10:29:06Z</time>
      </trkpt>
      <trkpt lat="38.94895" lon="-5.859905">
        <ele>300.0</ele>
        <time>2021-02-13T10:29:07Z</time>
      </trkpt>
      <trkpt lat="38.94895" lon="-5.859838">
        <ele>300.0</ele>
        <time>2021-02-13T10:29:08Z</time>
      </trkpt>
      <trkpt lat="38.948956" lon="-5.8597727">
        <ele>300.0</ele>
        <time>2021-02-13T10:29:09Z</time>
      </trkpt>
      <trkpt lat="38.94896" lon="-5.8597074">
        <ele>300.0</ele>
        <time>2021-02-13T10:29:10Z</time>
      </trkpt>
      <trkpt lat="38.948963" lon="-5.859643">
        <ele>301.0</ele>
        <time>2021-02-13T10:29:11Z</time>
      </trkpt>
      <trkpt lat="38.948963" lon="-5.85958">
        <ele>301.0</ele>
        <time>2021-02-13T10:29:12Z</time>
      </trkpt>
      <trkpt lat="38.948963" lon="-5.8595176">
        <ele>301.0</ele>
        <time>2021-02-13T10:29:13Z</time>
      </trkpt>
      <trkpt lat="38.948963" lon="-5.8594556">
        <ele>301.0</ele>
        <time>2021-02-13T10:29:14Z</time>
      </trkpt>
      <trkpt lat="38.948967" lon="-5.8593926">
        <ele>301.0</ele>
        <time>2021-02-13T10:29:15Z</time>
      </trkpt>
      <trkpt lat="38.94897" lon="-5.859329">
        <ele>301.0</ele>
        <time>2021-02-13T10:29:16Z</time>
      </trkpt>
      <trkpt lat="38.948975" lon="-5.859265">
        <ele>301.0</ele>
        <time>2021-02-13T10:29:17Z</time>
      </trkpt>
      <trkpt lat="38.94898" lon="-5.8591986">
        <ele>301.0</ele>
        <time>2021-02-13T10:29:18Z</time>
      </trkpt>
      <trkpt lat="38.94898" lon="-5.859134">
        <ele>302.0</ele>
        <time>2021-02-13T10:29:19Z</time>
      </trkpt>
      <trkpt lat="38.94898" lon="-5.8590703">
        <ele>302.0</ele>
        <time>2021-02-13T10:29:20Z</time>
      </trkpt>
      <trkpt lat="38.94898" lon="-5.859006">
        <ele>302.0</ele>
        <time>2021-02-13T10:29:21Z</time>
      </trkpt>
      <trkpt lat="38.948975" lon="-5.8589478">
        <ele>302.0</ele>
        <time>2021-02-13T10:29:22Z</time>
      </trkpt>
      <trkpt lat="38.94897" lon="-5.858891">
        <ele>302.0</ele>
        <time>2021-02-13T10:29:23Z</time>
      </trkpt>
      <trkpt lat="38.948963" lon="-5.8588314">
        <ele>302.0</ele>
        <time>2021-02-13T10:29:24Z</time>
      </trkpt>
      <trkpt lat="38.94896" lon="-5.8587685">
        <ele>302.0</ele>
        <time>2021-02-13T10:29:25Z</time>
      </trkpt>
      <trkpt lat="38.948956" lon="-5.8587046">
        <ele>302.0</ele>
        <time>2021-02-13T10:29:26Z</time>
      </trkpt>
      <trkpt lat="38.94895" lon="-5.8586426">
        <ele>302.0</ele>
        <time>2021-02-13T10:29:26Z</time>
      </trkpt>
      <trkpt lat="38.948944" lon="-5.8585806">
        <ele>302.0</ele>
        <time>2021-02-13T10:29:28Z</time>
      </trkpt>
      <trkpt lat="38.94894" lon="-5.8585153">
        <ele>302.0</ele>
        <time>2021-02-13T10:29:29Z</time>
      </trkpt>
      <trkpt lat="38.948936" lon="-5.8584485">
        <ele>302.0</ele>
        <time>2021-02-13T10:29:30Z</time>
      </trkpt>
      <trkpt lat="38.948936" lon="-5.858384">
        <ele>302.0</ele>
        <time>2021-02-13T10:29:31Z</time>
      </trkpt>
      <trkpt lat="38.948936" lon="-5.85832">
        <ele>302.0</ele>
        <time>2021-02-13T10:29:32Z</time>
      </trkpt>
      <trkpt lat="38.94894" lon="-5.858253">
        <ele>302.0</ele>
        <time>2021-02-13T10:29:33Z</time>
      </trkpt>
      <trkpt lat="38.94894" lon="-5.8581915">
        <ele>303.0</ele>
        <time>2021-02-13T10:29:34Z</time>
      </trkpt>
      <trkpt lat="38.948944" lon="-5.8581285">
        <ele>303.0</ele>
        <time>2021-02-13T10:29:35Z</time>
      </trkpt>
      <trkpt lat="38.948948" lon="-5.858061">
        <ele>303.0</ele>
        <time>2021-02-13T10:29:36Z</time>
      </trkpt>
      <trkpt lat="38.948948" lon="-5.857992">
        <ele>303.0</ele>
        <time>2021-02-13T10:29:37Z</time>
      </trkpt>
      <trkpt lat="38.94895" lon="-5.857922">
        <ele>303.0</ele>
        <time>2021-02-13T10:29:38Z</time>
      </trkpt>
      <trkpt lat="38.94895" lon="-5.8578606">
        <ele>303.0</ele>
        <time>2021-02-13T10:29:39Z</time>
      </trkpt>
      <trkpt lat="38.948956" lon="-5.857794">
        <ele>303.0</ele>
        <time>2021-02-13T10:29:40Z</time>
      </trkpt>
      <trkpt lat="38.948963" lon="-5.8577313">
        <ele>303.0</ele>
        <time>2021-02-13T10:29:41Z</time>
      </trkpt>
      <trkpt lat="38.948963" lon="-5.8576717">
        <ele>303.0</ele>
        <time>2021-02-13T10:29:42Z</time>
      </trkpt>
      <trkpt lat="38.948963" lon="-5.8576145">
        <ele>303.0</ele>
        <time>2021-02-13T10:29:43Z</time>
      </trkpt>
      <trkpt lat="38.948963" lon="-5.8575616">
        <ele>304.0</ele>
        <time>2021-02-13T10:29:43Z</time>
      </trkpt>
      <trkpt lat="38.94896" lon="-5.857314">
        <ele>304.0</ele>
        <time>2021-02-13T10:29:46Z</time>
      </trkpt>
      <trkpt lat="38.94896" lon="-5.8572955">
        <ele>304.0</ele>
        <time>2021-02-13T10:29:47Z</time>
      </trkpt>
      <trkpt lat="38.948956" lon="-5.8572598">
        <ele>304.0</ele>
        <time>2021-02-13T10:29:48Z</time>
      </trkpt>
      <trkpt lat="38.94895" lon="-5.85721">
        <ele>304.0</ele>
        <time>2021-02-13T10:29:49Z</time>
      </trkpt>
      <trkpt lat="38.948948" lon="-5.8571525">
        <ele>304.0</ele>
        <time>2021-02-13T10:29:50Z</time>
      </trkpt>
      <trkpt lat="38.948944" lon="-5.8570886">
        <ele>304.0</ele>
        <time>2021-02-13T10:29:51Z</time>
      </trkpt>
      <trkpt lat="38.948944" lon="-5.857021">
        <ele>304.0</ele>
        <time>2021-02-13T10:29:52Z</time>
      </trkpt>
      <trkpt lat="38.948936" lon="-5.85695">
        <ele>304.0</ele>
        <time>2021-02-13T10:29:53Z</time>
      </trkpt>
      <trkpt lat="38.948933" lon="-5.85688">
        <ele>304.0</ele>
        <time>2021-02-13T10:29:54Z</time>
      </trkpt>
      <trkpt lat="38.948925" lon="-5.856809">
        <ele>304.0</ele>
        <time>2021-02-13T10:29:55Z</time>
      </trkpt>
      <trkpt lat="38.94892" lon="-5.856739">
        <ele>304.0</ele>
        <time>2021-02-13T10:29:56Z</time>
      </trkpt>
      <trkpt lat="38.948917" lon="-5.85667">
        <ele>304.0</ele>
        <time>2021-02-13T10:29:57Z</time>
      </trkpt>
      <trkpt lat="38.948914" lon="-5.8565984">
        <ele>304.0</ele>
        <time>2021-02-13T10:29:58Z</time>
      </trkpt>
      <trkpt lat="38.948914" lon="-5.856531">
        <ele>304.0</ele>
        <time>2021-02-13T10:29:59Z</time>
      </trkpt>
      <trkpt lat="38.948914" lon="-5.856469">
        <ele>304.0</ele>
        <time>2021-02-13T10:30:00Z</time>
      </trkpt>
      <trkpt lat="38.94892" lon="-5.856407">
        <ele>304.0</ele>
        <time>2021-02-13T10:30:01Z</time>
      </trkpt>
      <trkpt lat="38.94892" lon="-5.856347">
        <ele>304.0</ele>
        <time>2021-02-13T10:30:02Z</time>
      </trkpt>
      <trkpt lat="38.94892" lon="-5.8562875">
        <ele>304.0</ele>
        <time>2021-02-13T10:30:03Z</time>
      </trkpt>
      <trkpt lat="38.948925" lon="-5.856231">
        <ele>304.0</ele>
        <time>2021-02-13T10:30:04Z</time>
      </trkpt>
      <trkpt lat="38.948925" lon="-5.856176">
        <ele>304.0</ele>
        <time>2021-02-13T10:30:05Z</time>
      </trkpt>
      <trkpt lat="38.948925" lon="-5.85612">
        <ele>304.0</ele>
        <time>2021-02-13T10:30:06Z</time>
      </trkpt>
      <trkpt lat="38.948925" lon="-5.8560634">
        <ele>304.0</ele>
        <time>2021-02-13T10:30:07Z</time>
      </trkpt>
      <trkpt lat="38.948925" lon="-5.8560057">
        <ele>304.0</ele>
        <time>2021-02-13T10:30:08Z</time>
      </trkpt>
      <trkpt lat="38.94892" lon="-5.855947">
        <ele>305.0</ele>
        <time>2021-02-13T10:30:09Z</time>
      </trkpt>
      <trkpt lat="38.94892" lon="-5.855886">
        <ele>305.0</ele>
        <time>2021-02-13T10:30:10Z</time>
      </trkpt>
      <trkpt lat="38.94892" lon="-5.8558235">
        <ele>305.0</ele>
        <time>2021-02-13T10:30:11Z</time>
      </trkpt>
      <trkpt lat="38.94892" lon="-5.855759">
        <ele>305.0</ele>
        <time>2021-02-13T10:30:12Z</time>
      </trkpt>
      <trkpt lat="38.94892" lon="-5.855695">
        <ele>305.0</ele>
        <time>2021-02-13T10:30:13Z</time>
      </trkpt>
      <trkpt lat="38.94892" lon="-5.855631">
        <ele>305.0</ele>
        <time>2021-02-13T10:30:14Z</time>
      </trkpt>
      <trkpt lat="38.94892" lon="-5.8555665">
        <ele>305.0</ele>
        <time>2021-02-13T10:30:15Z</time>
      </trkpt>
      <trkpt lat="38.94892" lon="-5.855502">
        <ele>305.0</ele>
        <time>2021-02-13T10:30:16Z</time>
      </trkpt>
      <trkpt lat="38.94892" lon="-5.8554387">
        <ele>306.0</ele>
        <time>2021-02-13T10:30:17Z</time>
      </trkpt>
      <trkpt lat="38.94892" lon="-5.855377">
        <ele>306.0</ele>
        <time>2021-02-13T10:30:18Z</time>
      </trkpt>
      <trkpt lat="38.948917" lon="-5.8553176">
        <ele>306.0</ele>
        <time>2021-02-13T10:30:19Z</time>
      </trkpt>
      <trkpt lat="38.948906" lon="-5.855263">
        <ele>306.0</ele>
        <time>2021-02-13T10:30:20Z</time>
      </trkpt>
      <trkpt lat="38.94889" lon="-5.8552127">
        <ele>306.0</ele>
        <time>2021-02-13T10:30:21Z</time>
      </trkpt>
      <trkpt lat="38.948868" lon="-5.855166">
        <ele>306.0</ele>
        <time>2021-02-13T10:30:22Z</time>
      </trkpt>
      <trkpt lat="38.948845" lon="-5.8551245">
        <ele>306.0</ele>
        <time>2021-02-13T10:30:23Z</time>
      </trkpt>
      <trkpt lat="38.948814" lon="-5.855078">
        <ele>306.0</ele>
        <time>2021-02-13T10:30:24Z</time>
      </trkpt>
      <trkpt lat="38.948784" lon="-5.8550353">
        <ele>306.0</ele>
        <time>2021-02-13T10:30:25Z</time>
      </trkpt>
      <trkpt lat="38.94875" lon="-5.8549967">
        <ele>306.0</ele>
        <time>2021-02-13T10:30:26Z</time>
      </trkpt>
      <trkpt lat="38.948715" lon="-5.8549566">
        <ele>306.0</ele>
        <time>2021-02-13T10:30:27Z</time>
      </trkpt>
      <trkpt lat="38.94868" lon="-5.854917">
        <ele>307.0</ele>
        <time>2021-02-13T10:30:28Z</time>
      </trkpt>
      <trkpt lat="38.948647" lon="-5.854878">
        <ele>307.0</ele>
        <time>2021-02-13T10:30:29Z</time>
      </trkpt>
      <trkpt lat="38.948612" lon="-5.854837">
        <ele>307.0</ele>
        <time>2021-02-13T10:30:30Z</time>
      </trkpt>
      <trkpt lat="38.94858" lon="-5.8547955">
        <ele>307.0</ele>
        <time>2021-02-13T10:30:31Z</time>
      </trkpt>
      <trkpt lat="38.948547" lon="-5.8547535">
        <ele>307.0</ele>
        <time>2021-02-13T10:30:32Z</time>
      </trkpt>
      <trkpt lat="38.948517" lon="-5.854711">
        <ele>307.0</ele>
        <time>2021-02-13T10:30:33Z</time>
      </trkpt>
      <trkpt lat="38.948486" lon="-5.8546677">
        <ele>307.0</ele>
        <time>2021-02-13T10:30:34Z</time>
      </trkpt>
      <trkpt lat="38.948456" lon="-5.8546276">
        <ele>307.0</ele>
        <time>2021-02-13T10:30:35Z</time>
      </trkpt>
      <trkpt lat="38.94842" lon="-5.8545876">
        <ele>307.0</ele>
        <time>2021-02-13T10:30:36Z</time>
      </trkpt>
      <trkpt lat="38.948387" lon="-5.854546">
        <ele>308.0</ele>
        <time>2021-02-13T10:30:37Z</time>
      </trkpt>
      <trkpt lat="38.94835" lon="-5.854504">
        <ele>308.0</ele>
        <time>2021-02-13T10:30:38Z</time>
      </trkpt>
      <trkpt lat="38.948315" lon="-5.854464">
        <ele>308.0</ele>
        <time>2021-02-13T10:30:39Z</time>
      </trkpt>
      <trkpt lat="38.948277" lon="-5.854425">
        <ele>308.0</ele>
        <time>2021-02-13T10:30:40Z</time>
      </trkpt>
      <trkpt lat="38.948242" lon="-5.8543873">
        <ele>308.0</ele>
        <time>2021-02-13T10:30:41Z</time>
      </trkpt>
      <trkpt lat="38.948208" lon="-5.8543496">
        <ele>308.0</ele>
        <time>2021-02-13T10:30:42Z</time>
      </trkpt>
      <trkpt lat="38.948166" lon="-5.854307">
        <ele>308.0</ele>
        <time>2021-02-13T10:30:43Z</time>
      </trkpt>
      <trkpt lat="38.948128" lon="-5.8542657">
        <ele>308.0</ele>
        <time>2021-02-13T10:30:44Z</time>
      </trkpt>
      <trkpt lat="38.948086" lon="-5.854224">
        <ele>308.0</ele>
        <time>2021-02-13T10:30:45Z</time>
      </trkpt>
      <trkpt lat="38.948044" lon="-5.8541837">
        <ele>308.0</ele>
        <time>2021-02-13T10:30:46Z</time>
      </trkpt>
      <trkpt lat="38.948" lon="-5.8541446">
        <ele>308.0</ele>
        <time>2021-02-13T10:30:47Z</time>
      </trkpt>
      <trkpt lat="38.947956" lon="-5.854105">
        <ele>308.0</ele>
        <time>2021-02-13T10:30:48Z</time>
      </trkpt>
      <trkpt lat="38.947914" lon="-5.854066">
        <ele>308.0</ele>
        <time>2021-02-13T10:30:49Z</time>
      </trkpt>
      <trkpt lat="38.947872" lon="-5.854025">
        <ele>308.0</ele>
        <time>2021-02-13T10:30:50Z</time>
      </trkpt>
      <trkpt lat="38.947826" lon="-5.853984">
        <ele>308.0</ele>
        <time>2021-02-13T10:30:50Z</time>
      </trkpt>
      <trkpt lat="38.94778" lon="-5.853941">
        <ele>308.0</ele>
        <time>2021-02-13T10:30:51Z</time>
      </trkpt>
      <trkpt lat="38.94774" lon="-5.853897">
        <ele>308.0</ele>
        <time>2021-02-13T10:30:52Z</time>
      </trkpt>
      <trkpt lat="38.947693" lon="-5.8538527">
        <ele>308.0</ele>
        <time>2021-02-13T10:30:53Z</time>
      </trkpt>
      <trkpt lat="38.94765" lon="-5.853808">
        <ele>308.0</ele>
        <time>2021-02-13T10:30:54Z</time>
      </trkpt>
      <trkpt lat="38.947605" lon="-5.853765">
        <ele>308.0</ele>
        <time>2021-02-13T10:30:55Z</time>
      </trkpt>
      <trkpt lat="38.94756" lon="-5.8537216">
        <ele>308.0</ele>
        <time>2021-02-13T10:30:56Z</time>
      </trkpt>
      <trkpt lat="38.947514" lon="-5.853677">
        <ele>308.0</ele>
        <time>2021-02-13T10:30:57Z</time>
      </trkpt>
      <trkpt lat="38.947468" lon="-5.8536315">
        <ele>308.0</ele>
        <time>2021-02-13T10:30:58Z</time>
      </trkpt>
      <trkpt lat="38.947422" lon="-5.853585">
        <ele>308.0</ele>
        <time>2021-02-13T10:30:59Z</time>
      </trkpt>
      <trkpt lat="38.94738" lon="-5.8535385">
        <ele>308.0</ele>
        <time>2021-02-13T10:31:00Z</time>
      </trkpt>
      <trkpt lat="38.94733" lon="-5.853493">
        <ele>307.0</ele>
        <time>2021-02-13T10:31:01Z</time>
      </trkpt>
      <trkpt lat="38.947285" lon="-5.853447">
        <ele>307.0</ele>
        <time>2021-02-13T10:31:02Z</time>
      </trkpt>
      <trkpt lat="38.94724" lon="-5.853401">
        <ele>307.0</ele>
        <time>2021-02-13T10:31:03Z</time>
      </trkpt>
      <trkpt lat="38.947193" lon="-5.8533554">
        <ele>307.0</ele>
        <time>2021-02-13T10:31:04Z</time>
      </trkpt>
      <trkpt lat="38.947147" lon="-5.8533087">
        <ele>307.0</ele>
        <time>2021-02-13T10:31:05Z</time>
      </trkpt>
      <trkpt lat="38.9471" lon="-5.8532634">
        <ele>307.0</ele>
        <time>2021-02-13T10:31:06Z</time>
      </trkpt>
      <trkpt lat="38.947056" lon="-5.85322">
        <ele>307.0</ele>
        <time>2021-02-13T10:31:07Z</time>
      </trkpt>
      <trkpt lat="38.94701" lon="-5.853175">
        <ele>307.0</ele>
        <time>2021-02-13T10:31:08Z</time>
      </trkpt>
      <trkpt lat="38.946968" lon="-5.853131">
        <ele>307.0</ele>
        <time>2021-02-13T10:31:09Z</time>
      </trkpt>
      <trkpt lat="38.946922" lon="-5.8530874">
        <ele>307.0</ele>
        <time>2021-02-13T10:31:10Z</time>
      </trkpt>
      <trkpt lat="38.946877" lon="-5.853046">
        <ele>307.0</ele>
        <time>2021-02-13T10:31:11Z</time>
      </trkpt>
      <trkpt lat="38.94684" lon="-5.8530035">
        <ele>307.0</ele>
        <time>2021-02-13T10:31:12Z</time>
      </trkpt>
      <trkpt lat="38.94679" lon="-5.8529587">
        <ele>307.0</ele>
        <time>2021-02-13T10:31:13Z</time>
      </trkpt>
      <trkpt lat="38.946743" lon="-5.852916">
        <ele>307.0</ele>
        <time>2021-02-13T10:31:14Z</time>
      </trkpt>
      <trkpt lat="38.946697" lon="-5.8528743">
        <ele>307.0</ele>
        <time>2021-02-13T10:31:15Z</time>
      </trkpt>
      <trkpt lat="38.946655" lon="-5.852835">
        <ele>307.0</ele>
        <time>2021-02-13T10:31:16Z</time>
      </trkpt>
      <trkpt lat="38.94661" lon="-5.8527956">
        <ele>307.0</ele>
        <time>2021-02-13T10:31:17Z</time>
      </trkpt>
      <trkpt lat="38.946564" lon="-5.8527527">
        <ele>307.0</ele>
        <time>2021-02-13T10:31:18Z</time>
      </trkpt>
      <trkpt lat="38.946518" lon="-5.852711">
        <ele>307.0</ele>
        <time>2021-02-13T10:31:19Z</time>
      </trkpt>
      <trkpt lat="38.946476" lon="-5.852671">
        <ele>307.0</ele>
        <time>2021-02-13T10:31:20Z</time>
      </trkpt>
      <trkpt lat="38.946434" lon="-5.8526325">
        <ele>307.0</ele>
        <time>2021-02-13T10:31:21Z</time>
      </trkpt>
      <trkpt lat="38.946392" lon="-5.852594">
        <ele>307.0</ele>
        <time>2021-02-13T10:31:22Z</time>
      </trkpt>
      <trkpt lat="38.94635" lon="-5.8525543">
        <ele>307.0</ele>
        <time>2021-02-13T10:31:23Z</time>
      </trkpt>
      <trkpt lat="38.94631" lon="-5.852514">
        <ele>308.0</ele>
        <time>2021-02-13T10:31:24Z</time>
      </trkpt>
      <trkpt lat="38.94627" lon="-5.852474">
        <ele>308.0</ele>
        <time>2021-02-13T10:31:25Z</time>
      </trkpt>
      <trkpt lat="38.946228" lon="-5.852435">
        <ele>308.0</ele>
        <time>2021-02-13T10:31:26Z</time>
      </trkpt>
      <trkpt lat="38.94619" lon="-5.852398">
        <ele>308.0</ele>
        <time>2021-02-13T10:31:27Z</time>
      </trkpt>
      <trkpt lat="38.94615" lon="-5.852363">
        <ele>308.0</ele>
        <time>2021-02-13T10:31:28Z</time>
      </trkpt>
      <trkpt lat="38.946114" lon="-5.852327">
        <ele>308.0</ele>
        <time>2021-02-13T10:31:29Z</time>
      </trkpt>
      <trkpt lat="38.946075" lon="-5.85229">
        <ele>308.0</ele>
        <time>2021-02-13T10:31:30Z</time>
      </trkpt>
      <trkpt lat="38.946037" lon="-5.852252">
        <ele>308.0</ele>
        <time>2021-02-13T10:31:31Z</time>
      </trkpt>
      <trkpt lat="38.946" lon="-5.852214">
        <ele>308.0</ele>
        <time>2021-02-13T10:31:32Z</time>
      </trkpt>
      <trkpt lat="38.945957" lon="-5.852175">
        <ele>308.0</ele>
        <time>2021-02-13T10:31:33Z</time>
      </trkpt>
      <trkpt lat="38.945923" lon="-5.8521357">
        <ele>308.0</ele>
        <time>2021-02-13T10:31:34Z</time>
      </trkpt>
      <trkpt lat="38.945885" lon="-5.852096">
        <ele>308.0</ele>
        <time>2021-02-13T10:31:35Z</time>
      </trkpt>
      <trkpt lat="38.945847" lon="-5.8520565">
        <ele>309.0</ele>
        <time>2021-02-13T10:31:36Z</time>
      </trkpt>
      <trkpt lat="38.94581" lon="-5.8520164">
        <ele>309.0</ele>
        <time>2021-02-13T10:31:37Z</time>
      </trkpt>
      <trkpt lat="38.945778" lon="-5.851977">
        <ele>309.0</ele>
        <time>2021-02-13T10:31:38Z</time>
      </trkpt>
      <trkpt lat="38.945744" lon="-5.8519397">
        <ele>309.0</ele>
        <time>2021-02-13T10:31:39Z</time>
      </trkpt>
      <trkpt lat="38.94571" lon="-5.8519015">
        <ele>309.0</ele>
        <time>2021-02-13T10:31:40Z</time>
      </trkpt>
      <trkpt lat="38.94567" lon="-5.851864">
        <ele>309.0</ele>
        <time>2021-02-13T10:31:41Z</time>
      </trkpt>
      <trkpt lat="38.945633" lon="-5.8518267">
        <ele>310.0</ele>
        <time>2021-02-13T10:31:42Z</time>
      </trkpt>
      <trkpt lat="38.9456" lon="-5.851791">
        <ele>310.0</ele>
        <time>2021-02-13T10:31:43Z</time>
      </trkpt>
      <trkpt lat="38.94556" lon="-5.851754">
        <ele>310.0</ele>
        <time>2021-02-13T10:31:44Z</time>
      </trkpt>
      <trkpt lat="38.945522" lon="-5.8517184">
        <ele>310.0</ele>
        <time>2021-02-13T10:31:45Z</time>
      </trkpt>
      <trkpt lat="38.945488" lon="-5.8516827">
        <ele>310.0</ele>
        <time>2021-02-13T10:31:46Z</time>
      </trkpt>
      <trkpt lat="38.94545" lon="-5.851647">
        <ele>310.0</ele>
        <time>2021-02-13T10:31:46Z</time>
      </trkpt>
      <trkpt lat="38.94532" lon="-5.8514996">
        <ele>311.0</ele>
        <time>2021-02-13T10:31:49Z</time>
      </trkpt>
      <trkpt lat="38.945312" lon="-5.851492">
        <ele>311.0</ele>
        <time>2021-02-13T10:31:50Z</time>
      </trkpt>
      <trkpt lat="38.945297" lon="-5.8514757">
        <ele>311.0</ele>
        <time>2021-02-13T10:31:51Z</time>
      </trkpt>
      <trkpt lat="38.945274" lon="-5.8514524">
        <ele>311.0</ele>
        <time>2021-02-13T10:31:52Z</time>
      </trkpt>
      <trkpt lat="38.945248" lon="-5.851425">
        <ele>312.0</ele>
        <time>2021-02-13T10:31:53Z</time>
      </trkpt>
      <trkpt lat="38.94522" lon="-5.851395">
        <ele>312.0</ele>
        <time>2021-02-13T10:31:54Z</time>
      </trkpt>
      <trkpt lat="38.945194" lon="-5.8513637">
        <ele>312.0</ele>
        <time>2021-02-13T10:31:55Z</time>
      </trkpt>
      <trkpt lat="38.945164" lon="-5.8513336">
        <ele>313.0</ele>
        <time>2021-02-13T10:31:56Z</time>
      </trkpt>
      <trkpt lat="38.945133" lon="-5.851305">
        <ele>313.0</ele>
        <time>2021-02-13T10:31:57Z</time>
      </trkpt>
      <trkpt lat="38.945103" lon="-5.8512764">
        <ele>313.0</ele>
        <time>2021-02-13T10:31:58Z</time>
      </trkpt>
      <trkpt lat="38.945076" lon="-5.851248">
        <ele>314.0</ele>
        <time>2021-02-13T10:31:59Z</time>
      </trkpt>
      <trkpt lat="38.94504" lon="-5.851217">
        <ele>314.0</ele>
        <time>2021-02-13T10:32:00Z</time>
      </trkpt>
      <trkpt lat="38.94501" lon="-5.8511853">
        <ele>314.0</ele>
        <time>2021-02-13T10:32:01Z</time>
      </trkpt>
      <trkpt lat="38.94498" lon="-5.8511558">
        <ele>314.0</ele>
        <time>2021-02-13T10:32:02Z</time>
      </trkpt>
      <trkpt lat="38.94495" lon="-5.8511276">
        <ele>314.0</ele>
        <time>2021-02-13T10:32:03Z</time>
      </trkpt>
      <trkpt lat="38.94492" lon="-5.851097">
        <ele>314.0</ele>
        <time>2021-02-13T10:32:04Z</time>
      </trkpt>
      <trkpt lat="38.944885" lon="-5.851065">
        <ele>314.0</ele>
        <time>2021-02-13T10:32:05Z</time>
      </trkpt>
      <trkpt lat="38.94485" lon="-5.8510323">
        <ele>314.0</ele>
        <time>2021-02-13T10:32:06Z</time>
      </trkpt>
      <trkpt lat="38.94482" lon="-5.851">
        <ele>314.0</ele>
        <time>2021-02-13T10:32:07Z</time>
      </trkpt>
      <trkpt lat="38.94479" lon="-5.8509703">
        <ele>314.0</ele>
        <time>2021-02-13T10:32:08Z</time>
      </trkpt>
      <trkpt lat="38.94476" lon="-5.8509407">
        <ele>314.0</ele>
        <time>2021-02-13T10:32:09Z</time>
      </trkpt>
      <trkpt lat="38.944733" lon="-5.8509107">
        <ele>315.0</ele>
        <time>2021-02-13T10:32:10Z</time>
      </trkpt>
      <trkpt lat="38.944702" lon="-5.85088">
        <ele>315.0</ele>
        <time>2021-02-13T10:32:11Z</time>
      </trkpt>
      <trkpt lat="38.94467" lon="-5.8508487">
        <ele>315.0</ele>
        <time>2021-02-13T10:32:12Z</time>
      </trkpt>
      <trkpt lat="38.94464" lon="-5.850817">
        <ele>315.0</ele>
        <time>2021-02-13T10:32:13Z</time>
      </trkpt>
      <trkpt lat="38.94461" lon="-5.850785">
        <ele>316.0</ele>
        <time>2021-02-13T10:32:14Z</time>
      </trkpt>
      <trkpt lat="38.944576" lon="-5.85075">
        <ele>316.0</ele>
        <time>2021-02-13T10:32:15Z</time>
      </trkpt>
      <trkpt lat="38.944542" lon="-5.850716">
        <ele>316.0</ele>
        <time>2021-02-13T10:32:16Z</time>
      </trkpt>
      <trkpt lat="38.94451" lon="-5.850684">
        <ele>316.0</ele>
        <time>2021-02-13T10:32:17Z</time>
      </trkpt>
      <trkpt lat="38.944477" lon="-5.85065">
        <ele>317.0</ele>
        <time>2021-02-13T10:32:18Z</time>
      </trkpt>
      <trkpt lat="38.944447" lon="-5.8506165">
        <ele>317.0</ele>
        <time>2021-02-13T10:32:19Z</time>
      </trkpt>
      <trkpt lat="38.944416" lon="-5.850585">
        <ele>317.0</ele>
        <time>2021-02-13T10:32:20Z</time>
      </trkpt>
      <trkpt lat="38.94438" lon="-5.850552">
        <ele>317.0</ele>
        <time>2021-02-13T10:32:21Z</time>
      </trkpt>
      <trkpt lat="38.94435" lon="-5.8505197">
        <ele>317.0</ele>
        <time>2021-02-13T10:32:22Z</time>
      </trkpt>
      <trkpt lat="38.944317" lon="-5.850487">
        <ele>318.0</ele>
        <time>2021-02-13T10:32:23Z</time>
      </trkpt>
      <trkpt lat="38.944283" lon="-5.850453">
        <ele>318.0</ele>
        <time>2021-02-13T10:32:24Z</time>
      </trkpt>
      <trkpt lat="38.94425" lon="-5.85042">
        <ele>318.0</ele>
        <time>2021-02-13T10:32:25Z</time>
      </trkpt>
      <trkpt lat="38.944214" lon="-5.8503866">
        <ele>318.0</ele>
        <time>2021-02-13T10:32:26Z</time>
      </trkpt>
      <trkpt lat="38.94418" lon="-5.8503532">
        <ele>318.0</ele>
        <time>2021-02-13T10:32:27Z</time>
      </trkpt>
      <trkpt lat="38.944145" lon="-5.85032">
        <ele>318.0</ele>
        <time>2021-02-13T10:32:28Z</time>
      </trkpt>
      <trkpt lat="38.94411" lon="-5.850286">
        <ele>318.0</ele>
        <time>2021-02-13T10:32:29Z</time>
      </trkpt>
      <trkpt lat="38.944077" lon="-5.8502536">
        <ele>319.0</ele>
        <time>2021-02-13T10:32:30Z</time>
      </trkpt>
      <trkpt lat="38.944042" lon="-5.85022">
        <ele>319.0</ele>
        <time>2021-02-13T10:32:31Z</time>
      </trkpt>
      <trkpt lat="38.944008" lon="-5.8501854">
        <ele>319.0</ele>
        <time>2021-02-13T10:32:32Z</time>
      </trkpt>
      <trkpt lat="38.943974" lon="-5.8501496">
        <ele>319.0</ele>
        <time>2021-02-13T10:32:33Z</time>
      </trkpt>
      <trkpt lat="38.94394" lon="-5.8501115">
        <ele>319.0</ele>
        <time>2021-02-13T10:32:34Z</time>
      </trkpt>
      <trkpt lat="38.9439" lon="-5.8500724">
        <ele>319.0</ele>
        <time>2021-02-13T10:32:35Z</time>
      </trkpt>
      <trkpt lat="38.943863" lon="-5.850035">
        <ele>319.0</ele>
        <time>2021-02-13T10:32:36Z</time>
      </trkpt>
      <trkpt lat="38.943825" lon="-5.8499994">
        <ele>319.0</ele>
        <time>2021-02-13T10:32:37Z</time>
      </trkpt>
      <trkpt lat="38.943787" lon="-5.8499637">
        <ele>319.0</ele>
        <time>2021-02-13T10:32:38Z</time>
      </trkpt>
      <trkpt lat="38.943745" lon="-5.8499284">
        <ele>319.0</ele>
        <time>2021-02-13T10:32:39Z</time>
      </trkpt>
      <trkpt lat="38.943707" lon="-5.849891">
        <ele>319.0</ele>
        <time>2021-02-13T10:32:40Z</time>
      </trkpt>
      <trkpt lat="38.94367" lon="-5.8498516">
        <ele>319.0</ele>
        <time>2021-02-13T10:32:41Z</time>
      </trkpt>
      <trkpt lat="38.94363" lon="-5.849812">
        <ele>319.0</ele>
        <time>2021-02-13T10:32:42Z</time>
      </trkpt>
      <trkpt lat="38.94359" lon="-5.84977">
        <ele>319.0</ele>
        <time>2021-02-13T10:32:43Z</time>
      </trkpt>
      <trkpt lat="38.943546" lon="-5.8497286">
        <ele>319.0</ele>
        <time>2021-02-13T10:32:44Z</time>
      </trkpt>
      <trkpt lat="38.943504" lon="-5.849687">
        <ele>319.0</ele>
        <time>2021-02-13T10:32:45Z</time>
      </trkpt>
      <trkpt lat="38.943462" lon="-5.849646">
        <ele>319.0</ele>
        <time>2021-02-13T10:32:46Z</time>
      </trkpt>
      <trkpt lat="38.94342" lon="-5.8496027">
        <ele>318.0</ele>
        <time>2021-02-13T10:32:47Z</time>
      </trkpt>
      <trkpt lat="38.943375" lon="-5.8495584">
        <ele>318.0</ele>
        <time>2021-02-13T10:32:48Z</time>
      </trkpt>
      <trkpt lat="38.943333" lon="-5.8495135">
        <ele>318.0</ele>
        <time>2021-02-13T10:32:49Z</time>
      </trkpt>
      <trkpt lat="38.943287" lon="-5.8494663">
        <ele>318.0</ele>
        <time>2021-02-13T10:32:50Z</time>
      </trkpt>
      <trkpt lat="38.943245" lon="-5.8494167">
        <ele>318.0</ele>
        <time>2021-02-13T10:32:51Z</time>
      </trkpt>
      <trkpt lat="38.9432" lon="-5.849367">
        <ele>318.0</ele>
        <time>2021-02-13T10:32:52Z</time>
      </trkpt>
      <trkpt lat="38.943153" lon="-5.8493166">
        <ele>317.0</ele>
        <time>2021-02-13T10:32:53Z</time>
      </trkpt>
      <trkpt lat="38.943108" lon="-5.849266">
        <ele>317.0</ele>
        <time>2021-02-13T10:32:54Z</time>
      </trkpt>
      <trkpt lat="38.943058" lon="-5.8492146">
        <ele>317.0</ele>
        <time>2021-02-13T10:32:55Z</time>
      </trkpt>
      <trkpt lat="38.94301" lon="-5.849163">
        <ele>317.0</ele>
        <time>2021-02-13T10:32:56Z</time>
      </trkpt>
      <trkpt lat="38.942963" lon="-5.8491154">
        <ele>317.0</ele>
        <time>2021-02-13T10:32:57Z</time>
      </trkpt>
      <trkpt lat="38.942913" lon="-5.849064">
        <ele>317.0</ele>
        <time>2021-02-13T10:32:58Z</time>
      </trkpt>
      <trkpt lat="38.94286" lon="-5.8490133">
        <ele>317.0</ele>
        <time>2021-02-13T10:32:59Z</time>
      </trkpt>
      <trkpt lat="38.94281" lon="-5.8489637">
        <ele>317.0</ele>
        <time>2021-02-13T10:33:00Z</time>
      </trkpt>
      <trkpt lat="38.94276" lon="-5.848915">
        <ele>317.0</ele>
        <time>2021-02-13T10:33:01Z</time>
      </trkpt>
      <trkpt lat="38.94271" lon="-5.8488674">
        <ele>317.0</ele>
        <time>2021-02-13T10:33:02Z</time>
      </trkpt>
      <trkpt lat="38.942665" lon="-5.8488193">
        <ele>317.0</ele>
        <time>2021-02-13T10:33:03Z</time>
      </trkpt>
      <trkpt lat="38.942616" lon="-5.848769">
        <ele>317.0</ele>
        <time>2021-02-13T10:33:04Z</time>
      </trkpt>
      <trkpt lat="38.942566" lon="-5.8487206">
        <ele>317.0</ele>
        <time>2021-02-13T10:33:05Z</time>
      </trkpt>
      <trkpt lat="38.942524" lon="-5.8486757">
        <ele>317.0</ele>
        <time>2021-02-13T10:33:06Z</time>
      </trkpt>
      <trkpt lat="38.942482" lon="-5.848633">
        <ele>317.0</ele>
        <time>2021-02-13T10:33:07Z</time>
      </trkpt>
      <trkpt lat="38.942448" lon="-5.848595">
        <ele>317.0</ele>
        <time>2021-02-13T10:33:08Z</time>
      </trkpt>
      <trkpt lat="38.94241" lon="-5.848554">
        <ele>317.0</ele>
        <time>2021-02-13T10:33:09Z</time>
      </trkpt>
      <trkpt lat="38.942368" lon="-5.848516">
        <ele>318.0</ele>
        <time>2021-02-13T10:33:10Z</time>
      </trkpt>
      <trkpt lat="38.942333" lon="-5.848479">
        <ele>318.0</ele>
        <time>2021-02-13T10:33:11Z</time>
      </trkpt>
      <trkpt lat="38.942303" lon="-5.848446">
        <ele>318.0</ele>
        <time>2021-02-13T10:33:12Z</time>
      </trkpt>
      <trkpt lat="38.942272" lon="-5.8484154">
        <ele>319.0</ele>
        <time>2021-02-13T10:33:13Z</time>
      </trkpt>
      <trkpt lat="38.94224" lon="-5.848383">
        <ele>319.0</ele>
        <time>2021-02-13T10:33:14Z</time>
      </trkpt>
      <trkpt lat="38.94221" lon="-5.8483515">
        <ele>319.0</ele>
        <time>2021-02-13T10:33:15Z</time>
      </trkpt>
      <trkpt lat="38.94218" lon="-5.8483205">
        <ele>319.0</ele>
        <time>2021-02-13T10:33:16Z</time>
      </trkpt>
      <trkpt lat="38.94215" lon="-5.8482924">
        <ele>319.0</ele>
        <time>2021-02-13T10:33:17Z</time>
      </trkpt>
      <trkpt lat="38.942123" lon="-5.8482633">
        <ele>319.0</ele>
        <time>2021-02-13T10:33:18Z</time>
      </trkpt>
      <trkpt lat="38.942093" lon="-5.848229">
        <ele>319.0</ele>
        <time>2021-02-13T10:33:19Z</time>
      </trkpt>
      <trkpt lat="38.94206" lon="-5.848196">
        <ele>319.0</ele>
        <time>2021-02-13T10:33:20Z</time>
      </trkpt>
      <trkpt lat="38.942028" lon="-5.8481593">
        <ele>319.0</ele>
        <time>2021-02-13T10:33:21Z</time>
      </trkpt>
      <trkpt lat="38.94199" lon="-5.8481216">
        <ele>319.0</ele>
        <time>2021-02-13T10:33:22Z</time>
      </trkpt>
      <trkpt lat="38.94195" lon="-5.848082">
        <ele>319.0</ele>
        <time>2021-02-13T10:33:23Z</time>
      </trkpt>
      <trkpt lat="38.94191" lon="-5.848038">
        <ele>319.0</ele>
        <time>2021-02-13T10:33:24Z</time>
      </trkpt>
      <trkpt lat="38.941868" lon="-5.8479924">
        <ele>319.0</ele>
        <time>2021-02-13T10:33:25Z</time>
      </trkpt>
      <trkpt lat="38.941822" lon="-5.8479466">
        <ele>319.0</ele>
        <time>2021-02-13T10:33:26Z</time>
      </trkpt>
      <trkpt lat="38.941776" lon="-5.8479023">
        <ele>319.0</ele>
        <time>2021-02-13T10:33:27Z</time>
      </trkpt>
      <trkpt lat="38.941727" lon="-5.847856">
        <ele>318.0</ele>
        <time>2021-02-13T10:33:28Z</time>
      </trkpt>
      <trkpt lat="38.94168" lon="-5.8478093">
        <ele>318.0</ele>
        <time>2021-02-13T10:33:29Z</time>
      </trkpt>
      <trkpt lat="38.94163" lon="-5.8477607">
        <ele>318.0</ele>
        <time>2021-02-13T10:33:30Z</time>
      </trkpt>
      <trkpt lat="38.94158" lon="-5.8477106">
        <ele>318.0</ele>
        <time>2021-02-13T10:33:31Z</time>
      </trkpt>
      <trkpt lat="38.941536" lon="-5.847663">
        <ele>317.0</ele>
        <time>2021-02-13T10:33:32Z</time>
      </trkpt>
      <trkpt lat="38.94149" lon="-5.847615">
        <ele>317.0</ele>
        <time>2021-02-13T10:33:33Z</time>
      </trkpt>
      <trkpt lat="38.94144" lon="-5.8475666">
        <ele>317.0</ele>
        <time>2021-02-13T10:33:34Z</time>
      </trkpt>
      <trkpt lat="38.941395" lon="-5.847519">
        <ele>317.0</ele>
        <time>2021-02-13T10:33:35Z</time>
      </trkpt>
      <trkpt lat="38.941345" lon="-5.847471">
        <ele>317.0</ele>
        <time>2021-02-13T10:33:36Z</time>
      </trkpt>
      <trkpt lat="38.9413" lon="-5.8474255">
        <ele>317.0</ele>
        <time>2021-02-13T10:33:37Z</time>
      </trkpt>
      <trkpt lat="38.941257" lon="-5.8473797">
        <ele>317.0</ele>
        <time>2021-02-13T10:33:38Z</time>
      </trkpt>
      <trkpt lat="38.941208" lon="-5.8473344">
        <ele>317.0</ele>
        <time>2021-02-13T10:33:39Z</time>
      </trkpt>
      <trkpt lat="38.941162" lon="-5.84729">
        <ele>317.0</ele>
        <time>2021-02-13T10:33:40Z</time>
      </trkpt>
      <trkpt lat="38.941124" lon="-5.8472447">
        <ele>317.0</ele>
        <time>2021-02-13T10:33:41Z</time>
      </trkpt>
      <trkpt lat="38.941082" lon="-5.8472013">
        <ele>317.0</ele>
        <time>2021-02-13T10:33:42Z</time>
      </trkpt>
      <trkpt lat="38.941036" lon="-5.84716">
        <ele>317.0</ele>
        <time>2021-02-13T10:33:43Z</time>
      </trkpt>
      <trkpt lat="38.940998" lon="-5.8471193">
        <ele>317.0</ele>
        <time>2021-02-13T10:33:44Z</time>
      </trkpt>
      <trkpt lat="38.940952" lon="-5.847078">
        <ele>317.0</ele>
        <time>2021-02-13T10:33:45Z</time>
      </trkpt>
      <trkpt lat="38.940914" lon="-5.8470364">
        <ele>318.0</ele>
        <time>2021-02-13T10:33:46Z</time>
      </trkpt>
      <trkpt lat="38.940876" lon="-5.8469963">
        <ele>318.0</ele>
        <time>2021-02-13T10:33:47Z</time>
      </trkpt>
      <trkpt lat="38.940834" lon="-5.8469563">
        <ele>318.0</ele>
        <time>2021-02-13T10:33:48Z</time>
      </trkpt>
      <trkpt lat="38.940792" lon="-5.8469152">
        <ele>318.0</ele>
        <time>2021-02-13T10:33:49Z</time>
      </trkpt>
      <trkpt lat="38.940754" lon="-5.8468738">
        <ele>318.0</ele>
        <time>2021-02-13T10:33:50Z</time>
      </trkpt>
      <trkpt lat="38.940712" lon="-5.8468328">
        <ele>318.0</ele>
        <time>2021-02-13T10:33:51Z</time>
      </trkpt>
      <trkpt lat="38.940674" lon="-5.8467913">
        <ele>318.0</ele>
        <time>2021-02-13T10:33:52Z</time>
      </trkpt>
      <trkpt lat="38.94063" lon="-5.8467493">
        <ele>318.0</ele>
        <time>2021-02-13T10:33:53Z</time>
      </trkpt>
      <trkpt lat="38.940594" lon="-5.84671">
        <ele>318.0</ele>
        <time>2021-02-13T10:33:54Z</time>
      </trkpt>
      <trkpt lat="38.940556" lon="-5.84667">
        <ele>318.0</ele>
        <time>2021-02-13T10:33:55Z</time>
      </trkpt>
      <trkpt lat="38.940514" lon="-5.8466315">
        <ele>319.0</ele>
        <time>2021-02-13T10:33:56Z</time>
      </trkpt>
      <trkpt lat="38.94047" lon="-5.8465924">
        <ele>319.0</ele>
        <time>2021-02-13T10:33:57Z</time>
      </trkpt>
      <trkpt lat="38.940434" lon="-5.8465543">
        <ele>319.0</ele>
        <time>2021-02-13T10:33:58Z</time>
      </trkpt>
      <trkpt lat="38.940395" lon="-5.846515">
        <ele>319.0</ele>
        <time>2021-02-13T10:33:59Z</time>
      </trkpt>
      <trkpt lat="38.940353" lon="-5.8464756">
        <ele>319.0</ele>
        <time>2021-02-13T10:34:00Z</time>
      </trkpt>
      <trkpt lat="38.940315" lon="-5.8464365">
        <ele>319.0</ele>
        <time>2021-02-13T10:34:01Z</time>
      </trkpt>
      <trkpt lat="38.94028" lon="-5.846398">
        <ele>320.0</ele>
        <time>2021-02-13T10:34:02Z</time>
      </trkpt>
      <trkpt lat="38.940243" lon="-5.8463593">
        <ele>320.0</ele>
        <time>2021-02-13T10:34:03Z</time>
      </trkpt>
      <trkpt lat="38.940205" lon="-5.846321">
        <ele>320.0</ele>
        <time>2021-02-13T10:34:04Z</time>
      </trkpt>
      <trkpt lat="38.940166" lon="-5.8462834">
        <ele>320.0</ele>
        <time>2021-02-13T10:34:05Z</time>
      </trkpt>
      <trkpt lat="38.94013" lon="-5.846244">
        <ele>320.0</ele>
        <time>2021-02-13T10:34:06Z</time>
      </trkpt>
      <trkpt lat="38.94009" lon="-5.8462048">
        <ele>320.0</ele>
        <time>2021-02-13T10:34:07Z</time>
      </trkpt>
      <trkpt lat="38.940052" lon="-5.8461666">
        <ele>320.0</ele>
        <time>2021-02-13T10:34:08Z</time>
      </trkpt>
      <trkpt lat="38.940014" lon="-5.8461285">
        <ele>320.0</ele>
        <time>2021-02-13T10:34:09Z</time>
      </trkpt>
      <trkpt lat="38.93998" lon="-5.8460946">
        <ele>320.0</ele>
        <time>2021-02-13T10:34:10Z</time>
      </trkpt>
      <trkpt lat="38.93995" lon="-5.8460603">
        <ele>320.0</ele>
        <time>2021-02-13T10:34:11Z</time>
      </trkpt>
      <trkpt lat="38.939915" lon="-5.8460245">
        <ele>320.0</ele>
        <time>2021-02-13T10:34:12Z</time>
      </trkpt>
      <trkpt lat="38.93988" lon="-5.845989">
        <ele>320.0</ele>
        <time>2021-02-13T10:34:13Z</time>
      </trkpt>
      <trkpt lat="38.939846" lon="-5.845952">
        <ele>321.0</ele>
        <time>2021-02-13T10:34:14Z</time>
      </trkpt>
      <trkpt lat="38.939816" lon="-5.845918">
        <ele>321.0</ele>
        <time>2021-02-13T10:34:15Z</time>
      </trkpt>
      <trkpt lat="38.93978" lon="-5.8458853">
        <ele>321.0</ele>
        <time>2021-02-13T10:34:16Z</time>
      </trkpt>
      <trkpt lat="38.939747" lon="-5.8458533">
        <ele>321.0</ele>
        <time>2021-02-13T10:34:17Z</time>
      </trkpt>
      <trkpt lat="38.939716" lon="-5.845818">
        <ele>322.0</ele>
        <time>2021-02-13T10:34:18Z</time>
      </trkpt>
      <trkpt lat="38.939682" lon="-5.845785">
        <ele>322.0</ele>
        <time>2021-02-13T10:34:19Z</time>
      </trkpt>
      <trkpt lat="38.93965" lon="-5.845755">
        <ele>322.0</ele>
        <time>2021-02-13T10:34:20Z</time>
      </trkpt>
      <trkpt lat="38.93962" lon="-5.8457246">
        <ele>322.0</ele>
        <time>2021-02-13T10:34:21Z</time>
      </trkpt>
      <trkpt lat="38.93959" lon="-5.8456936">
        <ele>323.0</ele>
        <time>2021-02-13T10:34:22Z</time>
      </trkpt>
      <trkpt lat="38.93956" lon="-5.8456626">
        <ele>323.0</ele>
        <time>2021-02-13T10:34:23Z</time>
      </trkpt>
      <trkpt lat="38.93953" lon="-5.845634">
        <ele>323.0</ele>
        <time>2021-02-13T10:34:24Z</time>
      </trkpt>
      <trkpt lat="38.939503" lon="-5.845605">
        <ele>323.0</ele>
        <time>2021-02-13T10:34:25Z</time>
      </trkpt>
      <trkpt lat="38.939472" lon="-5.845578">
        <ele>324.0</ele>
        <time>2021-02-13T10:34:26Z</time>
      </trkpt>
      <trkpt lat="38.93945" lon="-5.8455505">
        <ele>324.0</ele>
        <time>2021-02-13T10:34:27Z</time>
      </trkpt>
      <trkpt lat="38.93942" lon="-5.8455224">
        <ele>324.0</ele>
        <time>2021-02-13T10:34:28Z</time>
      </trkpt>
      <trkpt lat="38.939396" lon="-5.845495">
        <ele>324.0</ele>
        <time>2021-02-13T10:34:29Z</time>
      </trkpt>
      <trkpt lat="38.93937" lon="-5.84547">
        <ele>324.0</ele>
        <time>2021-02-13T10:34:30Z</time>
      </trkpt>
      <trkpt lat="38.939342" lon="-5.845445">
        <ele>324.0</ele>
        <time>2021-02-13T10:34:31Z</time>
      </trkpt>
      <trkpt lat="38.93932" lon="-5.845419">
        <ele>324.0</ele>
        <time>2021-02-13T10:34:32Z</time>
      </trkpt>
      <trkpt lat="38.93929" lon="-5.8453913">
        <ele>324.0</ele>
        <time>2021-02-13T10:34:33Z</time>
      </trkpt>
      <trkpt lat="38.939262" lon="-5.845365">
        <ele>325.0</ele>
        <time>2021-02-13T10:34:34Z</time>
      </trkpt>
      <trkpt lat="38.93924" lon="-5.8453393">
        <ele>325.0</ele>
        <time>2021-02-13T10:34:35Z</time>
      </trkpt>
      <trkpt lat="38.939213" lon="-5.8453145">
        <ele>325.0</ele>
        <time>2021-02-13T10:34:36Z</time>
      </trkpt>
      <trkpt lat="38.93919" lon="-5.8452926">
        <ele>325.0</ele>
        <time>2021-02-13T10:34:37Z</time>
      </trkpt>
      <trkpt lat="38.939163" lon="-5.845269">
        <ele>325.0</ele>
        <time>2021-02-13T10:34:38Z</time>
      </trkpt>
      <trkpt lat="38.93914" lon="-5.8452463">
        <ele>326.0</ele>
        <time>2021-02-13T10:34:39Z</time>
      </trkpt>
      <trkpt lat="38.939114" lon="-5.845223">
        <ele>326.0</ele>
        <time>2021-02-13T10:34:40Z</time>
      </trkpt>
      <trkpt lat="38.939095" lon="-5.8452015">
        <ele>326.0</ele>
        <time>2021-02-13T10:34:41Z</time>
      </trkpt>
      <trkpt lat="38.939075" lon="-5.84518">
        <ele>326.0</ele>
        <time>2021-02-13T10:34:42Z</time>
      </trkpt>
      <trkpt lat="38.939053" lon="-5.8451595">
        <ele>327.0</ele>
        <time>2021-02-13T10:34:43Z</time>
      </trkpt>
      <trkpt lat="38.93903" lon="-5.845139">
        <ele>327.0</ele>
        <time>2021-02-13T10:34:44Z</time>
      </trkpt>
      <trkpt lat="38.93901" lon="-5.8451166">
        <ele>327.0</ele>
        <time>2021-02-13T10:34:45Z</time>
      </trkpt>
      <trkpt lat="38.938988" lon="-5.8450923">
        <ele>327.0</ele>
        <time>2021-02-13T10:34:46Z</time>
      </trkpt>
      <trkpt lat="38.93897" lon="-5.84507">
        <ele>328.0</ele>
        <time>2021-02-13T10:34:47Z</time>
      </trkpt>
      <trkpt lat="38.938946" lon="-5.845047">
        <ele>328.0</ele>
        <time>2021-02-13T10:34:48Z</time>
      </trkpt>
      <trkpt lat="38.93892" lon="-5.845022">
        <ele>328.0</ele>
        <time>2021-02-13T10:34:49Z</time>
      </trkpt>
      <trkpt lat="38.938896" lon="-5.844999">
        <ele>328.0</ele>
        <time>2021-02-13T10:34:50Z</time>
      </trkpt>
      <trkpt lat="38.938877" lon="-5.8449774">
        <ele>329.0</ele>
        <time>2021-02-13T10:34:51Z</time>
      </trkpt>
      <trkpt lat="38.938854" lon="-5.844955">
        <ele>329.0</ele>
        <time>2021-02-13T10:34:52Z</time>
      </trkpt>
      <trkpt lat="38.938835" lon="-5.844933">
        <ele>329.0</ele>
        <time>2021-02-13T10:34:53Z</time>
      </trkpt>
      <trkpt lat="38.938812" lon="-5.8449135">
        <ele>329.0</ele>
        <time>2021-02-13T10:34:54Z</time>
      </trkpt>
      <trkpt lat="38.938793" lon="-5.844894">
        <ele>330.0</ele>
        <time>2021-02-13T10:34:55Z</time>
      </trkpt>
      <trkpt lat="38.938774" lon="-5.8448734">
        <ele>330.0</ele>
        <time>2021-02-13T10:34:56Z</time>
      </trkpt>
      <trkpt lat="38.93875" lon="-5.844854">
        <ele>330.0</ele>
        <time>2021-02-13T10:34:57Z</time>
      </trkpt>
      <trkpt lat="38.938732" lon="-5.844832">
        <ele>331.0</ele>
        <time>2021-02-13T10:34:58Z</time>
      </trkpt>
      <trkpt lat="38.93871" lon="-5.84481">
        <ele>331.0</ele>
        <time>2021-02-13T10:34:59Z</time>
      </trkpt>
      <trkpt lat="38.938686" lon="-5.8447886">
        <ele>331.0</ele>
        <time>2021-02-13T10:35:00Z</time>
      </trkpt>
      <trkpt lat="38.938663" lon="-5.844768">
        <ele>331.0</ele>
        <time>2021-02-13T10:35:01Z</time>
      </trkpt>
      <trkpt lat="38.93864" lon="-5.844746">
        <ele>331.0</ele>
        <time>2021-02-13T10:35:02Z</time>
      </trkpt>
      <trkpt lat="38.938618" lon="-5.8447247">
        <ele>331.0</ele>
        <time>2021-02-13T10:35:03Z</time>
      </trkpt>
      <trkpt lat="38.938595" lon="-5.8447027">
        <ele>332.0</ele>
        <time>2021-02-13T10:35:04Z</time>
      </trkpt>
      <trkpt lat="38.938572" lon="-5.84468">
        <ele>332.0</ele>
        <time>2021-02-13T10:35:05Z</time>
      </trkpt>
      <trkpt lat="38.938553" lon="-5.8446574">
        <ele>332.0</ele>
        <time>2021-02-13T10:35:05Z</time>
      </trkpt>
      <trkpt lat="38.93853" lon="-5.844635">
        <ele>332.0</ele>
        <time>2021-02-13T10:35:06Z</time>
      </trkpt>
      <trkpt lat="38.938507" lon="-5.844613">
        <ele>333.0</ele>
        <time>2021-02-13T10:35:07Z</time>
      </trkpt>
      <trkpt lat="38.938484" lon="-5.84459">
        <ele>333.0</ele>
        <time>2021-02-13T10:35:08Z</time>
      </trkpt>
      <trkpt lat="38.938465" lon="-5.8445663">
        <ele>333.0</ele>
        <time>2021-02-13T10:35:09Z</time>
      </trkpt>
      <trkpt lat="38.938442" lon="-5.8445435">
        <ele>333.0</ele>
        <time>2021-02-13T10:35:10Z</time>
      </trkpt>
      <trkpt lat="38.93842" lon="-5.844521">
        <ele>334.0</ele>
        <time>2021-02-13T10:35:11Z</time>
      </trkpt>
      <trkpt lat="38.938396" lon="-5.8444986">
        <ele>334.0</ele>
        <time>2021-02-13T10:35:12Z</time>
      </trkpt>
      <trkpt lat="38.93837" lon="-5.844475">
        <ele>334.0</ele>
        <time>2021-02-13T10:35:13Z</time>
      </trkpt>
      <trkpt lat="38.938347" lon="-5.8444524">
        <ele>334.0</ele>
        <time>2021-02-13T10:35:14Z</time>
      </trkpt>
      <trkpt lat="38.93832" lon="-5.8444295">
        <ele>334.0</ele>
        <time>2021-02-13T10:35:15Z</time>
      </trkpt>
      <trkpt lat="38.938293" lon="-5.8444047">
        <ele>334.0</ele>
        <time>2021-02-13T10:35:16Z</time>
      </trkpt>
      <trkpt lat="38.93827" lon="-5.8443813">
        <ele>334.0</ele>
        <time>2021-02-13T10:35:17Z</time>
      </trkpt>
      <trkpt lat="38.938244" lon="-5.8443565">
        <ele>334.0</ele>
        <time>2021-02-13T10:35:18Z</time>
      </trkpt>
      <trkpt lat="38.938217" lon="-5.844329">
        <ele>335.0</ele>
        <time>2021-02-13T10:35:19Z</time>
      </trkpt>
      <trkpt lat="38.93819" lon="-5.8443003">
        <ele>335.0</ele>
        <time>2021-02-13T10:35:20Z</time>
      </trkpt>
      <trkpt lat="38.938164" lon="-5.844271">
        <ele>335.0</ele>
        <time>2021-02-13T10:35:21Z</time>
      </trkpt>
      <trkpt lat="38.938137" lon="-5.844244">
        <ele>335.0</ele>
        <time>2021-02-13T10:35:22Z</time>
      </trkpt>
      <trkpt lat="38.938107" lon="-5.844214">
        <ele>335.0</ele>
        <time>2021-02-13T10:35:23Z</time>
      </trkpt>
      <trkpt lat="38.93808" lon="-5.844186">
        <ele>335.0</ele>
        <time>2021-02-13T10:35:24Z</time>
      </trkpt>
      <trkpt lat="38.93805" lon="-5.8441553">
        <ele>335.0</ele>
        <time>2021-02-13T10:35:25Z</time>
      </trkpt>
      <trkpt lat="38.93802" lon="-5.844125">
        <ele>335.0</ele>
        <time>2021-02-13T10:35:26Z</time>
      </trkpt>
      <trkpt lat="38.93799" lon="-5.844095">
        <ele>335.0</ele>
        <time>2021-02-13T10:35:27Z</time>
      </trkpt>
      <trkpt lat="38.937958" lon="-5.844068">
        <ele>335.0</ele>
        <time>2021-02-13T10:35:28Z</time>
      </trkpt>
      <trkpt lat="38.937927" lon="-5.8440375">
        <ele>335.0</ele>
        <time>2021-02-13T10:35:29Z</time>
      </trkpt>
      <trkpt lat="38.937897" lon="-5.844007">
        <ele>336.0</ele>
        <time>2021-02-13T10:35:30Z</time>
      </trkpt>
      <trkpt lat="38.937866" lon="-5.8439755">
        <ele>336.0</ele>
        <time>2021-02-13T10:35:31Z</time>
      </trkpt>
      <trkpt lat="38.93784" lon="-5.8439455">
        <ele>336.0</ele>
        <time>2021-02-13T10:35:32Z</time>
      </trkpt>
      <trkpt lat="38.93781" lon="-5.843914">
        <ele>336.0</ele>
        <time>2021-02-13T10:35:33Z</time>
      </trkpt>
      <trkpt lat="38.93778" lon="-5.843881">
        <ele>336.0</ele>
        <time>2021-02-13T10:35:34Z</time>
      </trkpt>
      <trkpt lat="38.937748" lon="-5.8438497">
        <ele>336.0</ele>
        <time>2021-02-13T10:35:35Z</time>
      </trkpt>
      <trkpt lat="38.937717" lon="-5.843818">
        <ele>336.0</ele>
        <time>2021-02-13T10:35:36Z</time>
      </trkpt>
      <trkpt lat="38.93769" lon="-5.8437886">
        <ele>336.0</ele>
        <time>2021-02-13T10:35:37Z</time>
      </trkpt>
      <trkpt lat="38.93766" lon="-5.84376">
        <ele>337.0</ele>
        <time>2021-02-13T10:35:38Z</time>
      </trkpt>
      <trkpt lat="38.93763" lon="-5.8437304">
        <ele>337.0</ele>
        <time>2021-02-13T10:35:39Z</time>
      </trkpt>
      <trkpt lat="38.937603" lon="-5.843701">
        <ele>337.0</ele>
        <time>2021-02-13T10:35:40Z</time>
      </trkpt>
      <trkpt lat="38.937572" lon="-5.8436737">
        <ele>337.0</ele>
        <time>2021-02-13T10:35:41Z</time>
      </trkpt>
      <trkpt lat="38.937542" lon="-5.8436446">
        <ele>337.0</ele>
        <time>2021-02-13T10:35:42Z</time>
      </trkpt>
      <trkpt lat="38.93752" lon="-5.8436184">
        <ele>337.0</ele>
        <time>2021-02-13T10:35:43Z</time>
      </trkpt>
      <trkpt lat="38.937496" lon="-5.8435917">
        <ele>337.0</ele>
        <time>2021-02-13T10:35:44Z</time>
      </trkpt>
      <trkpt lat="38.937466" lon="-5.843565">
        <ele>337.0</ele>
        <time>2021-02-13T10:35:45Z</time>
      </trkpt>
      <trkpt lat="38.937443" lon="-5.843538">
        <ele>337.0</ele>
        <time>2021-02-13T10:35:46Z</time>
      </trkpt>
      <trkpt lat="38.93742" lon="-5.843513">
        <ele>337.0</ele>
        <time>2021-02-13T10:35:47Z</time>
      </trkpt>
      <trkpt lat="38.937397" lon="-5.8434887">
        <ele>338.0</ele>
        <time>2021-02-13T10:35:48Z</time>
      </trkpt>
      <trkpt lat="38.93737" lon="-5.843466">
        <ele>338.0</ele>
        <time>2021-02-13T10:35:49Z</time>
      </trkpt>
      <trkpt lat="38.937344" lon="-5.843442">
        <ele>338.0</ele>
        <time>2021-02-13T10:35:50Z</time>
      </trkpt>
      <trkpt lat="38.93732" lon="-5.843418">
        <ele>338.0</ele>
        <time>2021-02-13T10:35:51Z</time>
      </trkpt>
      <trkpt lat="38.937294" lon="-5.8433933">
        <ele>338.0</ele>
        <time>2021-02-13T10:35:52Z</time>
      </trkpt>
      <trkpt lat="38.93727" lon="-5.843371">
        <ele>339.0</ele>
        <time>2021-02-13T10:35:53Z</time>
      </trkpt>
      <trkpt lat="38.93725" lon="-5.84335">
        <ele>339.0</ele>
        <time>2021-02-13T10:35:54Z</time>
      </trkpt>
      <trkpt lat="38.93722" lon="-5.8433275">
        <ele>339.0</ele>
        <time>2021-02-13T10:35:55Z</time>
      </trkpt>
      <trkpt lat="38.9372" lon="-5.843307">
        <ele>339.0</ele>
        <time>2021-02-13T10:35:56Z</time>
      </trkpt>
      <trkpt lat="38.93717" lon="-5.8432846">
        <ele>340.0</ele>
        <time>2021-02-13T10:35:57Z</time>
      </trkpt>
      <trkpt lat="38.937145" lon="-5.8432627">
        <ele>340.0</ele>
        <time>2021-02-13T10:35:58Z</time>
      </trkpt>
      <trkpt lat="38.937122" lon="-5.84324">
        <ele>340.0</ele>
        <time>2021-02-13T10:35:59Z</time>
      </trkpt>
      <trkpt lat="38.937096" lon="-5.843216">
        <ele>341.0</ele>
        <time>2021-02-13T10:36:00Z</time>
      </trkpt>
      <trkpt lat="38.93707" lon="-5.843194">
        <ele>341.0</ele>
        <time>2021-02-13T10:36:01Z</time>
      </trkpt>
      <trkpt lat="38.937046" lon="-5.843173">
        <ele>341.0</ele>
        <time>2021-02-13T10:36:02Z</time>
      </trkpt>
      <trkpt lat="38.937023" lon="-5.843152">
        <ele>341.0</ele>
        <time>2021-02-13T10:36:03Z</time>
      </trkpt>
      <trkpt lat="38.937" lon="-5.84313">
        <ele>342.0</ele>
        <time>2021-02-13T10:36:04Z</time>
      </trkpt>
      <trkpt lat="38.936977" lon="-5.8431087">
        <ele>342.0</ele>
        <time>2021-02-13T10:36:05Z</time>
      </trkpt>
      <trkpt lat="38.93695" lon="-5.8430862">
        <ele>342.0</ele>
        <time>2021-02-13T10:36:06Z</time>
      </trkpt>
      <trkpt lat="38.936928" lon="-5.843063">
        <ele>342.0</ele>
        <time>2021-02-13T10:36:07Z</time>
      </trkpt>
      <trkpt lat="38.9369" lon="-5.84304">
        <ele>342.0</ele>
        <time>2021-02-13T10:36:08Z</time>
      </trkpt>
      <trkpt lat="38.936874" lon="-5.843016">
        <ele>343.0</ele>
        <time>2021-02-13T10:36:09Z</time>
      </trkpt>
      <trkpt lat="38.936848" lon="-5.8429937">
        <ele>343.0</ele>
        <time>2021-02-13T10:36:10Z</time>
      </trkpt>
      <trkpt lat="38.93682" lon="-5.842969">
        <ele>343.0</ele>
        <time>2021-02-13T10:36:11Z</time>
      </trkpt>
      <trkpt lat="38.93679" lon="-5.8429446">
        <ele>343.0</ele>
        <time>2021-02-13T10:36:12Z</time>
      </trkpt>
      <trkpt lat="38.936764" lon="-5.842919">
        <ele>343.0</ele>
        <time>2021-02-13T10:36:13Z</time>
      </trkpt>
      <trkpt lat="38.936733" lon="-5.8428955">
        <ele>344.0</ele>
        <time>2021-02-13T10:36:14Z</time>
      </trkpt>
      <trkpt lat="38.936703" lon="-5.8428664">
        <ele>344.0</ele>
        <time>2021-02-13T10:36:15Z</time>
      </trkpt>
      <trkpt lat="38.936672" lon="-5.8428392">
        <ele>344.0</ele>
        <time>2021-02-13T10:36:16Z</time>
      </trkpt>
      <trkpt lat="38.93664" lon="-5.842813">
        <ele>344.0</ele>
        <time>2021-02-13T10:36:17Z</time>
      </trkpt>
      <trkpt lat="38.936615" lon="-5.8427887">
        <ele>345.0</ele>
        <time>2021-02-13T10:36:18Z</time>
      </trkpt>
      <trkpt lat="38.936584" lon="-5.842765">
        <ele>345.0</ele>
        <time>2021-02-13T10:36:19Z</time>
      </trkpt>
      <trkpt lat="38.936558" lon="-5.8427405">
        <ele>345.0</ele>
        <time>2021-02-13T10:36:20Z</time>
      </trkpt>
      <trkpt lat="38.93653" lon="-5.842714">
        <ele>345.0</ele>
        <time>2021-02-13T10:36:21Z</time>
      </trkpt>
      <trkpt lat="38.9365" lon="-5.842687">
        <ele>345.0</ele>
        <time>2021-02-13T10:36:22Z</time>
      </trkpt>
      <trkpt lat="38.936474" lon="-5.842664">
        <ele>345.0</ele>
        <time>2021-02-13T10:36:23Z</time>
      </trkpt>
      <trkpt lat="38.936447" lon="-5.8426394">
        <ele>345.0</ele>
        <time>2021-02-13T10:36:24Z</time>
      </trkpt>
      <trkpt lat="38.93642" lon="-5.8426185">
        <ele>345.0</ele>
        <time>2021-02-13T10:36:25Z</time>
      </trkpt>
      <trkpt lat="38.936398" lon="-5.842596">
        <ele>345.0</ele>
        <time>2021-02-13T10:36:26Z</time>
      </trkpt>
      <trkpt lat="38.936367" lon="-5.842571">
        <ele>345.0</ele>
        <time>2021-02-13T10:36:27Z</time>
      </trkpt>
      <trkpt lat="38.936344" lon="-5.8425455">
        <ele>345.0</ele>
        <time>2021-02-13T10:36:28Z</time>
      </trkpt>
      <trkpt lat="38.936314" lon="-5.8425198">
        <ele>345.0</ele>
        <time>2021-02-13T10:36:29Z</time>
      </trkpt>
      <trkpt lat="38.936287" lon="-5.8424945">
        <ele>345.0</ele>
        <time>2021-02-13T10:36:30Z</time>
      </trkpt>
      <trkpt lat="38.93626" lon="-5.8424697">
        <ele>345.0</ele>
        <time>2021-02-13T10:36:31Z</time>
      </trkpt>
      <trkpt lat="38.936222" lon="-5.8424416">
        <ele>345.0</ele>
        <time>2021-02-13T10:36:32Z</time>
      </trkpt>
      <trkpt lat="38.93619" lon="-5.8424153">
        <ele>345.0</ele>
        <time>2021-02-13T10:36:33Z</time>
      </trkpt>
      <trkpt lat="38.936157" lon="-5.8423886">
        <ele>345.0</ele>
        <time>2021-02-13T10:36:34Z</time>
      </trkpt>
      <trkpt lat="38.936123" lon="-5.8423605">
        <ele>345.0</ele>
        <time>2021-02-13T10:36:35Z</time>
      </trkpt>
      <trkpt lat="38.936085" lon="-5.8423314">
        <ele>345.0</ele>
        <time>2021-02-13T10:36:36Z</time>
      </trkpt>
      <trkpt lat="38.936043" lon="-5.8422995">
        <ele>345.0</ele>
        <time>2021-02-13T10:36:37Z</time>
      </trkpt>
      <trkpt lat="38.936005" lon="-5.842267">
        <ele>345.0</ele>
        <time>2021-02-13T10:36:38Z</time>
      </trkpt>
      <trkpt lat="38.935966" lon="-5.842234">
        <ele>345.0</ele>
        <time>2021-02-13T10:36:39Z</time>
      </trkpt>
      <trkpt lat="38.93593" lon="-5.8422003">
        <ele>345.0</ele>
        <time>2021-02-13T10:36:40Z</time>
      </trkpt>
      <trkpt lat="38.93589" lon="-5.842169">
        <ele>345.0</ele>
        <time>2021-02-13T10:36:41Z</time>
      </trkpt>
      <trkpt lat="38.935852" lon="-5.842138">
        <ele>345.0</ele>
        <time>2021-02-13T10:36:42Z</time>
      </trkpt>
      <trkpt lat="38.935814" lon="-5.842103">
        <ele>345.0</ele>
        <time>2021-02-13T10:36:43Z</time>
      </trkpt>
      <trkpt lat="38.935772" lon="-5.842069">
        <ele>345.0</ele>
        <time>2021-02-13T10:36:44Z</time>
      </trkpt>
      <trkpt lat="38.93573" lon="-5.8420362">
        <ele>345.0</ele>
        <time>2021-02-13T10:36:45Z</time>
      </trkpt>
      <trkpt lat="38.935696" lon="-5.8420043">
        <ele>345.0</ele>
        <time>2021-02-13T10:36:46Z</time>
      </trkpt>
      <trkpt lat="38.935658" lon="-5.8419733">
        <ele>345.0</ele>
        <time>2021-02-13T10:36:47Z</time>
      </trkpt>
      <trkpt lat="38.93562" lon="-5.8419414">
        <ele>345.0</ele>
        <time>2021-02-13T10:36:48Z</time>
      </trkpt>
      <trkpt lat="38.935585" lon="-5.84191">
        <ele>345.0</ele>
        <time>2021-02-13T10:36:49Z</time>
      </trkpt>
      <trkpt lat="38.93555" lon="-5.8418784">
        <ele>345.0</ele>
        <time>2021-02-13T10:36:50Z</time>
      </trkpt>
      <trkpt lat="38.935513" lon="-5.8418465">
        <ele>345.0</ele>
        <time>2021-02-13T10:36:51Z</time>
      </trkpt>
      <trkpt lat="38.935474" lon="-5.8418136">
        <ele>345.0</ele>
        <time>2021-02-13T10:36:52Z</time>
      </trkpt>
      <trkpt lat="38.935436" lon="-5.841781">
        <ele>345.0</ele>
        <time>2021-02-13T10:36:53Z</time>
      </trkpt>
      <trkpt lat="38.9354" lon="-5.8417478">
        <ele>345.0</ele>
        <time>2021-02-13T10:36:54Z</time>
      </trkpt>
      <trkpt lat="38.93536" lon="-5.8417134">
        <ele>345.0</ele>
        <time>2021-02-13T10:36:55Z</time>
      </trkpt>
      <trkpt lat="38.93532" lon="-5.84168">
        <ele>345.0</ele>
        <time>2021-02-13T10:36:56Z</time>
      </trkpt>
      <trkpt lat="38.93528" lon="-5.841645">
        <ele>345.0</ele>
        <time>2021-02-13T10:36:57Z</time>
      </trkpt>
      <trkpt lat="38.935238" lon="-5.8416085">
        <ele>345.0</ele>
        <time>2021-02-13T10:36:58Z</time>
      </trkpt>
      <trkpt lat="38.935192" lon="-5.841568">
        <ele>345.0</ele>
        <time>2021-02-13T10:36:59Z</time>
      </trkpt>
      <trkpt lat="38.935146" lon="-5.8415275">
        <ele>345.0</ele>
        <time>2021-02-13T10:37:00Z</time>
      </trkpt>
      <trkpt lat="38.9351" lon="-5.8414874">
        <ele>345.0</ele>
        <time>2021-02-13T10:37:01Z</time>
      </trkpt>
      <trkpt lat="38.93505" lon="-5.841446">
        <ele>345.0</ele>
        <time>2021-02-13T10:37:02Z</time>
      </trkpt>
      <trkpt lat="38.935005" lon="-5.8414035">
        <ele>345.0</ele>
        <time>2021-02-13T10:37:03Z</time>
      </trkpt>
      <trkpt lat="38.93496" lon="-5.8413634">
        <ele>344.0</ele>
        <time>2021-02-13T10:37:04Z</time>
      </trkpt>
      <trkpt lat="38.93491" lon="-5.8413205">
        <ele>344.0</ele>
        <time>2021-02-13T10:37:04Z</time>
      </trkpt>
      <trkpt lat="38.93469" lon="-5.84113">
        <ele>344.0</ele>
        <time>2021-02-13T10:37:07Z</time>
      </trkpt>
      <trkpt lat="38.934677" lon="-5.8411174">
        <ele>343.0</ele>
        <time>2021-02-13T10:37:08Z</time>
      </trkpt>
      <trkpt lat="38.934647" lon="-5.8410926">
        <ele>343.0</ele>
        <time>2021-02-13T10:37:09Z</time>
      </trkpt>
      <trkpt lat="38.93461" lon="-5.8410587">
        <ele>342.0</ele>
        <time>2021-02-13T10:37:10Z</time>
      </trkpt>
      <trkpt lat="38.934563" lon="-5.841018">
        <ele>342.0</ele>
        <time>2021-02-13T10:37:11Z</time>
      </trkpt>
      <trkpt lat="38.934513" lon="-5.8409734">
        <ele>342.0</ele>
        <time>2021-02-13T10:37:12Z</time>
      </trkpt>
      <trkpt lat="38.934464" lon="-5.840926">
        <ele>341.0</ele>
        <time>2021-02-13T10:37:13Z</time>
      </trkpt>
      <trkpt lat="38.93441" lon="-5.8408775">
        <ele>341.0</ele>
        <time>2021-02-13T10:37:14Z</time>
      </trkpt>
      <trkpt lat="38.934357" lon="-5.8408275">
        <ele>341.0</ele>
        <time>2021-02-13T10:37:15Z</time>
      </trkpt>
      <trkpt lat="38.934303" lon="-5.840779">
        <ele>341.0</ele>
        <time>2021-02-13T10:37:16Z</time>
      </trkpt>
      <trkpt lat="38.934246" lon="-5.84073">
        <ele>341.0</ele>
        <time>2021-02-13T10:37:17Z</time>
      </trkpt>
      <trkpt lat="38.934193" lon="-5.8406816">
        <ele>341.0</ele>
        <time>2021-02-13T10:37:18Z</time>
      </trkpt>
      <trkpt lat="38.93414" lon="-5.8406334">
        <ele>341.0</ele>
        <time>2021-02-13T10:37:19Z</time>
      </trkpt>
      <trkpt lat="38.934086" lon="-5.840586">
        <ele>341.0</ele>
        <time>2021-02-13T10:37:20Z</time>
      </trkpt>
      <trkpt lat="38.934032" lon="-5.840539">
        <ele>341.0</ele>
        <time>2021-02-13T10:37:21Z</time>
      </trkpt>
      <trkpt lat="38.933983" lon="-5.8404922">
        <ele>341.0</ele>
        <time>2021-02-13T10:37:22Z</time>
      </trkpt>
      <trkpt lat="38.933933" lon="-5.840447">
        <ele>341.0</ele>
        <time>2021-02-13T10:37:23Z</time>
      </trkpt>
      <trkpt lat="38.933884" lon="-5.840401">
        <ele>341.0</ele>
        <time>2021-02-13T10:37:24Z</time>
      </trkpt>
      <trkpt lat="38.93383" lon="-5.8403563">
        <ele>341.0</ele>
        <time>2021-02-13T10:37:25Z</time>
      </trkpt>
      <trkpt lat="38.933784" lon="-5.8403115">
        <ele>341.0</ele>
        <time>2021-02-13T10:37:26Z</time>
      </trkpt>
      <trkpt lat="38.93374" lon="-5.8402677">
        <ele>341.0</ele>
        <time>2021-02-13T10:37:27Z</time>
      </trkpt>
      <trkpt lat="38.93369" lon="-5.840227">
        <ele>341.0</ele>
        <time>2021-02-13T10:37:28Z</time>
      </trkpt>
      <trkpt lat="38.933647" lon="-5.840187">
        <ele>341.0</ele>
        <time>2021-02-13T10:37:29Z</time>
      </trkpt>
      <trkpt lat="38.933605" lon="-5.840146">
        <ele>341.0</ele>
        <time>2021-02-13T10:37:30Z</time>
      </trkpt>
      <trkpt lat="38.93356" lon="-5.840104">
        <ele>341.0</ele>
        <time>2021-02-13T10:37:31Z</time>
      </trkpt>
      <trkpt lat="38.933514" lon="-5.8400636">
        <ele>341.0</ele>
        <time>2021-02-13T10:37:32Z</time>
      </trkpt>
      <trkpt lat="38.933468" lon="-5.8400226">
        <ele>341.0</ele>
        <time>2021-02-13T10:37:33Z</time>
      </trkpt>
      <trkpt lat="38.933426" lon="-5.8399825">
        <ele>341.0</ele>
        <time>2021-02-13T10:37:34Z</time>
      </trkpt>
      <trkpt lat="38.93338" lon="-5.839944">
        <ele>341.0</ele>
        <time>2021-02-13T10:37:35Z</time>
      </trkpt>
      <trkpt lat="38.93334" lon="-5.8399053">
        <ele>341.0</ele>
        <time>2021-02-13T10:37:36Z</time>
      </trkpt>
      <trkpt lat="38.933292" lon="-5.839867">
        <ele>341.0</ele>
        <time>2021-02-13T10:37:37Z</time>
      </trkpt>
      <trkpt lat="38.93325" lon="-5.83983">
        <ele>341.0</ele>
        <time>2021-02-13T10:37:38Z</time>
      </trkpt>
      <trkpt lat="38.93321" lon="-5.83979">
        <ele>342.0</ele>
        <time>2021-02-13T10:37:39Z</time>
      </trkpt>
      <trkpt lat="38.933163" lon="-5.8397517">
        <ele>342.0</ele>
        <time>2021-02-13T10:37:40Z</time>
      </trkpt>
      <trkpt lat="38.933117" lon="-5.839714">
        <ele>342.0</ele>
        <time>2021-02-13T10:37:41Z</time>
      </trkpt>
      <trkpt lat="38.933075" lon="-5.8396783">
        <ele>342.0</ele>
        <time>2021-02-13T10:37:42Z</time>
      </trkpt>
      <trkpt lat="38.933033" lon="-5.83964">
        <ele>342.0</ele>
        <time>2021-02-13T10:37:43Z</time>
      </trkpt>
      <trkpt lat="38.93299" lon="-5.839604">
        <ele>342.0</ele>
        <time>2021-02-13T10:37:44Z</time>
      </trkpt>
      <trkpt lat="38.932953" lon="-5.8395686">
        <ele>342.0</ele>
        <time>2021-02-13T10:37:45Z</time>
      </trkpt>
      <trkpt lat="38.93291" lon="-5.8395343">
        <ele>343.0</ele>
        <time>2021-02-13T10:37:46Z</time>
      </trkpt>
      <trkpt lat="38.932873" lon="-5.8395">
        <ele>343.0</ele>
        <time>2021-02-13T10:37:47Z</time>
      </trkpt>
      <trkpt lat="38.932835" lon="-5.839466">
        <ele>343.0</ele>
        <time>2021-02-13T10:37:48Z</time>
      </trkpt>
      <trkpt lat="38.932796" lon="-5.8394322">
        <ele>343.0</ele>
        <time>2021-02-13T10:37:49Z</time>
      </trkpt>
      <trkpt lat="38.93276" lon="-5.839399">
        <ele>343.0</ele>
        <time>2021-02-13T10:37:50Z</time>
      </trkpt>
      <trkpt lat="38.93272" lon="-5.839366">
        <ele>343.0</ele>
        <time>2021-02-13T10:37:51Z</time>
      </trkpt>
      <trkpt lat="38.932682" lon="-5.839333">
        <ele>343.0</ele>
        <time>2021-02-13T10:37:52Z</time>
      </trkpt>
      <trkpt lat="38.932644" lon="-5.839301">
        <ele>343.0</ele>
        <time>2021-02-13T10:37:53Z</time>
      </trkpt>
      <trkpt lat="38.932606" lon="-5.8392687">
        <ele>343.0</ele>
        <time>2021-02-13T10:37:54Z</time>
      </trkpt>
      <trkpt lat="38.93257" lon="-5.8392363">
        <ele>343.0</ele>
        <time>2021-02-13T10:37:55Z</time>
      </trkpt>
      <trkpt lat="38.932533" lon="-5.8392057">
        <ele>344.0</ele>
        <time>2021-02-13T10:37:55Z</time>
      </trkpt>
      <trkpt lat="38.932392" lon="-5.8390846">
        <ele>344.0</ele>
        <time>2021-02-13T10:37:58Z</time>
      </trkpt>
      <trkpt lat="38.932384" lon="-5.8390765">
        <ele>344.0</ele>
        <time>2021-02-13T10:37:59Z</time>
      </trkpt>
      <trkpt lat="38.93237" lon="-5.8390603">
        <ele>344.0</ele>
        <time>2021-02-13T10:38:00Z</time>
      </trkpt>
      <trkpt lat="38.932343" lon="-5.8390408">
        <ele>345.0</ele>
        <time>2021-02-13T10:38:01Z</time>
      </trkpt>
      <trkpt lat="38.93232" lon="-5.8390183">
        <ele>345.0</ele>
        <time>2021-02-13T10:38:02Z</time>
      </trkpt>
      <trkpt lat="38.93229" lon="-5.838994">
        <ele>345.0</ele>
        <time>2021-02-13T10:38:03Z</time>
      </trkpt>
      <trkpt lat="38.93226" lon="-5.8389683">
        <ele>345.0</ele>
        <time>2021-02-13T10:38:04Z</time>
      </trkpt>
      <trkpt lat="38.93223" lon="-5.8389444">
        <ele>346.0</ele>
        <time>2021-02-13T10:38:05Z</time>
      </trkpt>
      <trkpt lat="38.9322" lon="-5.83892">
        <ele>346.0</ele>
        <time>2021-02-13T10:38:06Z</time>
      </trkpt>
      <trkpt lat="38.93217" lon="-5.838897">
        <ele>346.0</ele>
        <time>2021-02-13T10:38:07Z</time>
      </trkpt>
      <trkpt lat="38.93214" lon="-5.838875">
        <ele>346.0</ele>
        <time>2021-02-13T10:38:08Z</time>
      </trkpt>
      <trkpt lat="38.93211" lon="-5.8388543">
        <ele>347.0</ele>
        <time>2021-02-13T10:38:09Z</time>
      </trkpt>
      <trkpt lat="38.932076" lon="-5.8388352">
        <ele>347.0</ele>
        <time>2021-02-13T10:38:10Z</time>
      </trkpt>
      <trkpt lat="38.93204" lon="-5.8388166">
        <ele>347.0</ele>
        <time>2021-02-13T10:38:11Z</time>
      </trkpt>
      <trkpt lat="38.932007" lon="-5.8387995">
        <ele>347.0</ele>
        <time>2021-02-13T10:38:12Z</time>
      </trkpt>
      <trkpt lat="38.93197" lon="-5.838783">
        <ele>348.0</ele>
        <time>2021-02-13T10:38:13Z</time>
      </trkpt>
      <trkpt lat="38.931934" lon="-5.8387656">
        <ele>348.0</ele>
        <time>2021-02-13T10:38:14Z</time>
      </trkpt>
      <trkpt lat="38.931896" lon="-5.838749">
        <ele>348.0</ele>
        <time>2021-02-13T10:38:15Z</time>
      </trkpt>
      <trkpt lat="38.93186" lon="-5.8387337">
        <ele>348.0</ele>
        <time>2021-02-13T10:38:16Z</time>
      </trkpt>
      <trkpt lat="38.931824" lon="-5.8387194">
        <ele>348.0</ele>
        <time>2021-02-13T10:38:17Z</time>
      </trkpt>
      <trkpt lat="38.93179" lon="-5.8387065">
        <ele>349.0</ele>
        <time>2021-02-13T10:38:18Z</time>
      </trkpt>
      <trkpt lat="38.93175" lon="-5.838695">
        <ele>349.0</ele>
        <time>2021-02-13T10:38:19Z</time>
      </trkpt>
      <trkpt lat="38.93172" lon="-5.8386827">
        <ele>349.0</ele>
        <time>2021-02-13T10:38:20Z</time>
      </trkpt>
      <trkpt lat="38.931683" lon="-5.8386707">
        <ele>349.0</ele>
        <time>2021-02-13T10:38:21Z</time>
      </trkpt>
      <trkpt lat="38.931652" lon="-5.8386583">
        <ele>350.0</ele>
        <time>2021-02-13T10:38:22Z</time>
      </trkpt>
      <trkpt lat="38.931618" lon="-5.8386464">
        <ele>350.0</ele>
        <time>2021-02-13T10:38:23Z</time>
      </trkpt>
      <trkpt lat="38.931583" lon="-5.838634">
        <ele>350.0</ele>
        <time>2021-02-13T10:38:24Z</time>
      </trkpt>
      <trkpt lat="38.93155" lon="-5.838622">
        <ele>350.0</ele>
        <time>2021-02-13T10:38:25Z</time>
      </trkpt>
      <trkpt lat="38.93152" lon="-5.8386097">
        <ele>351.0</ele>
        <time>2021-02-13T10:38:26Z</time>
      </trkpt>
      <trkpt lat="38.931488" lon="-5.8385983">
        <ele>351.0</ele>
        <time>2021-02-13T10:38:27Z</time>
      </trkpt>
      <trkpt lat="38.931458" lon="-5.8385844">
        <ele>351.0</ele>
        <time>2021-02-13T10:38:28Z</time>
      </trkpt>
      <trkpt lat="38.931423" lon="-5.8385715">
        <ele>351.0</ele>
        <time>2021-02-13T10:38:29Z</time>
      </trkpt>
      <trkpt lat="38.93139" lon="-5.838558">
        <ele>351.0</ele>
        <time>2021-02-13T10:38:30Z</time>
      </trkpt>
      <trkpt lat="38.931362" lon="-5.838544">
        <ele>351.0</ele>
        <time>2021-02-13T10:38:31Z</time>
      </trkpt>
      <trkpt lat="38.93133" lon="-5.838531">
        <ele>351.0</ele>
        <time>2021-02-13T10:38:32Z</time>
      </trkpt>
      <trkpt lat="38.931293" lon="-5.8385158">
        <ele>352.0</ele>
        <time>2021-02-13T10:38:33Z</time>
      </trkpt>
      <trkpt lat="38.93126" lon="-5.838501">
        <ele>352.0</ele>
        <time>2021-02-13T10:38:34Z</time>
      </trkpt>
      <trkpt lat="38.93122" lon="-5.838487">
        <ele>352.0</ele>
        <time>2021-02-13T10:38:35Z</time>
      </trkpt>
      <trkpt lat="38.931183" lon="-5.838474">
        <ele>352.0</ele>
        <time>2021-02-13T10:38:36Z</time>
      </trkpt>
      <trkpt lat="38.931145" lon="-5.8384576">
        <ele>352.0</ele>
        <time>2021-02-13T10:38:37Z</time>
      </trkpt>
      <trkpt lat="38.931103" lon="-5.838443">
        <ele>352.0</ele>
        <time>2021-02-13T10:38:38Z</time>
      </trkpt>
      <trkpt lat="38.93106" lon="-5.838427">
        <ele>353.0</ele>
        <time>2021-02-13T10:38:39Z</time>
      </trkpt>
      <trkpt lat="38.93102" lon="-5.8384104">
        <ele>353.0</ele>
        <time>2021-02-13T10:38:40Z</time>
      </trkpt>
      <trkpt lat="38.930973" lon="-5.8383937">
        <ele>353.0</ele>
        <time>2021-02-13T10:38:41Z</time>
      </trkpt>
      <trkpt lat="38.930927" lon="-5.8383765">
        <ele>353.0</ele>
        <time>2021-02-13T10:38:42Z</time>
      </trkpt>
      <trkpt lat="38.930885" lon="-5.838358">
        <ele>353.0</ele>
        <time>2021-02-13T10:38:43Z</time>
      </trkpt>
      <trkpt lat="38.93084" lon="-5.838338">
        <ele>353.0</ele>
        <time>2021-02-13T10:38:44Z</time>
      </trkpt>
      <trkpt lat="38.930798" lon="-5.8383193">
        <ele>353.0</ele>
        <time>2021-02-13T10:38:45Z</time>
      </trkpt>
      <trkpt lat="38.93075" lon="-5.8382945">
        <ele>353.0</ele>
        <time>2021-02-13T10:38:46Z</time>
      </trkpt>
      <trkpt lat="38.93071" lon="-5.838265">
        <ele>353.0</ele>
        <time>2021-02-13T10:38:47Z</time>
      </trkpt>
      <trkpt lat="38.930664" lon="-5.8382325">
        <ele>353.0</ele>
        <time>2021-02-13T10:38:48Z</time>
      </trkpt>
      <trkpt lat="38.930622" lon="-5.838196">
        <ele>353.0</ele>
        <time>2021-02-13T10:38:49Z</time>
      </trkpt>
      <trkpt lat="38.93058" lon="-5.8381567">
        <ele>353.0</ele>
        <time>2021-02-13T10:38:50Z</time>
      </trkpt>
      <trkpt lat="38.93054" lon="-5.838115">
        <ele>353.0</ele>
        <time>2021-02-13T10:38:51Z</time>
      </trkpt>
      <trkpt lat="38.9305" lon="-5.8380704">
        <ele>353.0</ele>
        <time>2021-02-13T10:38:52Z</time>
      </trkpt>
      <trkpt lat="38.930466" lon="-5.838023">
        <ele>353.0</ele>
        <time>2021-02-13T10:38:53Z</time>
      </trkpt>
      <trkpt lat="38.930428" lon="-5.8379736">
        <ele>353.0</ele>
        <time>2021-02-13T10:38:54Z</time>
      </trkpt>
      <trkpt lat="38.930397" lon="-5.837921">
        <ele>353.0</ele>
        <time>2021-02-13T10:38:55Z</time>
      </trkpt>
      <trkpt lat="38.930367" lon="-5.8378677">
        <ele>353.0</ele>
        <time>2021-02-13T10:38:56Z</time>
      </trkpt>
      <trkpt lat="38.93034" lon="-5.837811">
        <ele>353.0</ele>
        <time>2021-02-13T10:38:57Z</time>
      </trkpt>
      <trkpt lat="38.930317" lon="-5.837758">
        <ele>353.0</ele>
        <time>2021-02-13T10:38:58Z</time>
      </trkpt>
      <trkpt lat="38.93029" lon="-5.8377023">
        <ele>352.0</ele>
        <time>2021-02-13T10:38:59Z</time>
      </trkpt>
      <trkpt lat="38.930267" lon="-5.8376436">
        <ele>352.0</ele>
        <time>2021-02-13T10:39:00Z</time>
      </trkpt>
      <trkpt lat="38.93025" lon="-5.8375816">
        <ele>352.0</ele>
        <time>2021-02-13T10:39:01Z</time>
      </trkpt>
      <trkpt lat="38.930225" lon="-5.8375173">
        <ele>352.0</ele>
        <time>2021-02-13T10:39:02Z</time>
      </trkpt>
      <trkpt lat="38.930202" lon="-5.8374515">
        <ele>352.0</ele>
        <time>2021-02-13T10:39:03Z</time>
      </trkpt>
      <trkpt lat="38.93018" lon="-5.837382">
        <ele>352.0</ele>
        <time>2021-02-13T10:39:04Z</time>
      </trkpt>
      <trkpt lat="38.930157" lon="-5.837311">
        <ele>352.0</ele>
        <time>2021-02-13T10:39:05Z</time>
      </trkpt>
      <trkpt lat="38.93013" lon="-5.8372374">
        <ele>352.0</ele>
        <time>2021-02-13T10:39:06Z</time>
      </trkpt>
      <trkpt lat="38.930103" lon="-5.8371615">
        <ele>352.0</ele>
        <time>2021-02-13T10:39:07Z</time>
      </trkpt>
      <trkpt lat="38.930077" lon="-5.837077">
        <ele>352.0</ele>
        <time>2021-02-13T10:39:08Z</time>
      </trkpt>
      <trkpt lat="38.93005" lon="-5.836993">
        <ele>351.0</ele>
        <time>2021-02-13T10:39:09Z</time>
      </trkpt>
      <trkpt lat="38.930016" lon="-5.8369074">
        <ele>351.0</ele>
        <time>2021-02-13T10:39:10Z</time>
      </trkpt>
      <trkpt lat="38.92999" lon="-5.8368196">
        <ele>350.0</ele>
        <time>2021-02-13T10:39:12Z</time>
      </trkpt>
      <trkpt lat="38.92995" lon="-5.8367047">
        <ele>350.0</ele>
        <time>2021-02-13T10:39:13Z</time>
      </trkpt>
      <trkpt lat="38.929916" lon="-5.8365946">
        <ele>349.0</ele>
        <time>2021-02-13T10:39:14Z</time>
      </trkpt>
      <trkpt lat="38.929882" lon="-5.8364882">
        <ele>349.0</ele>
        <time>2021-02-13T10:39:15Z</time>
      </trkpt>
      <trkpt lat="38.929844" lon="-5.8363857">
        <ele>348.0</ele>
        <time>2021-02-13T10:39:16Z</time>
      </trkpt>
      <trkpt lat="38.929813" lon="-5.8362837">
        <ele>348.0</ele>
        <time>2021-02-13T10:39:17Z</time>
      </trkpt>
      <trkpt lat="38.92978" lon="-5.836183">
        <ele>348.0</ele>
        <time>2021-02-13T10:39:18Z</time>
      </trkpt>
      <trkpt lat="38.929745" lon="-5.836078">
        <ele>347.0</ele>
        <time>2021-02-13T10:39:19Z</time>
      </trkpt>
      <trkpt lat="38.92971" lon="-5.8359776">
        <ele>347.0</ele>
        <time>2021-02-13T10:39:20Z</time>
      </trkpt>
      <trkpt lat="38.929676" lon="-5.83588">
        <ele>347.0</ele>
        <time>2021-02-13T10:39:20Z</time>
      </trkpt>
      <trkpt lat="38.929646" lon="-5.835783">
        <ele>347.0</ele>
        <time>2021-02-13T10:39:21Z</time>
      </trkpt>
      <trkpt lat="38.929615" lon="-5.835689">
        <ele>347.0</ele>
        <time>2021-02-13T10:39:22Z</time>
      </trkpt>
      <trkpt lat="38.92959" lon="-5.835598">
        <ele>347.0</ele>
        <time>2021-02-13T10:39:23Z</time>
      </trkpt>
      <trkpt lat="38.929558" lon="-5.8355083">
        <ele>347.0</ele>
        <time>2021-02-13T10:39:24Z</time>
      </trkpt>
      <trkpt lat="38.929527" lon="-5.835422">
        <ele>347.0</ele>
        <time>2021-02-13T10:39:25Z</time>
      </trkpt>
      <trkpt lat="38.9295" lon="-5.835337">
        <ele>347.0</ele>
        <time>2021-02-13T10:39:26Z</time>
      </trkpt>
      <trkpt lat="38.929474" lon="-5.8352532">
        <ele>347.0</ele>
        <time>2021-02-13T10:39:27Z</time>
      </trkpt>
      <trkpt lat="38.929443" lon="-5.8351736">
        <ele>347.0</ele>
        <time>2021-02-13T10:39:28Z</time>
      </trkpt>
      <trkpt lat="38.929417" lon="-5.8350964">
        <ele>348.0</ele>
        <time>2021-02-13T10:39:30Z</time>
      </trkpt>
      <trkpt lat="38.929386" lon="-5.8349957">
        <ele>348.0</ele>
        <time>2021-02-13T10:39:31Z</time>
      </trkpt>
      <trkpt lat="38.929356" lon="-5.834907">
        <ele>348.0</ele>
        <time>2021-02-13T10:39:32Z</time>
      </trkpt>
      <trkpt lat="38.929325" lon="-5.8348236">
        <ele>348.0</ele>
        <time>2021-02-13T10:39:33Z</time>
      </trkpt>
      <trkpt lat="38.9293" lon="-5.8347445">
        <ele>348.0</ele>
        <time>2021-02-13T10:39:34Z</time>
      </trkpt>
      <trkpt lat="38.92927" lon="-5.8346667">
        <ele>348.0</ele>
        <time>2021-02-13T10:39:34Z</time>
      </trkpt>
      <trkpt lat="38.92917" lon="-5.834358">
        <ele>348.0</ele>
        <time>2021-02-13T10:39:37Z</time>
      </trkpt>
      <trkpt lat="38.92916" lon="-5.834341">
        <ele>348.0</ele>
        <time>2021-02-13T10:39:39Z</time>
      </trkpt>
      <trkpt lat="38.92914" lon="-5.83429">
        <ele>348.0</ele>
        <time>2021-02-13T10:39:40Z</time>
      </trkpt>
      <trkpt lat="38.929115" lon="-5.8342266">
        <ele>348.0</ele>
        <time>2021-02-13T10:39:42Z</time>
      </trkpt>
      <trkpt lat="38.92908" lon="-5.8341312">
        <ele>348.0</ele>
        <time>2021-02-13T10:39:43Z</time>
      </trkpt>
      <trkpt lat="38.929047" lon="-5.834041">
        <ele>348.0</ele>
        <time>2021-02-13T10:39:44Z</time>
      </trkpt>
      <trkpt lat="38.929016" lon="-5.8339534">
        <ele>348.0</ele>
        <time>2021-02-13T10:39:45Z</time>
      </trkpt>
      <trkpt lat="38.92899" lon="-5.8338695">
        <ele>348.0</ele>
        <time>2021-02-13T10:39:46Z</time>
      </trkpt>
      <trkpt lat="38.92896" lon="-5.833786">
        <ele>348.0</ele>
        <time>2021-02-13T10:39:47Z</time>
      </trkpt>
      <trkpt lat="38.92893" lon="-5.8336997">
        <ele>348.0</ele>
        <time>2021-02-13T10:39:48Z</time>
      </trkpt>
      <trkpt lat="38.9289" lon="-5.8336167">
        <ele>348.0</ele>
        <time>2021-02-13T10:39:49Z</time>
      </trkpt>
      <trkpt lat="38.92887" lon="-5.8335366">
        <ele>348.0</ele>
        <time>2021-02-13T10:39:50Z</time>
      </trkpt>
      <trkpt lat="38.928844" lon="-5.8334575">
        <ele>348.0</ele>
        <time>2021-02-13T10:39:51Z</time>
      </trkpt>
      <trkpt lat="38.928818" lon="-5.833379">
        <ele>348.0</ele>
        <time>2021-02-13T10:39:52Z</time>
      </trkpt>
      <trkpt lat="38.928795" lon="-5.8332996">
        <ele>348.0</ele>
        <time>2021-02-13T10:39:53Z</time>
      </trkpt>
      <trkpt lat="38.92877" lon="-5.83322">
        <ele>348.0</ele>
        <time>2021-02-13T10:39:54Z</time>
      </trkpt>
      <trkpt lat="38.92874" lon="-5.8331394">
        <ele>348.0</ele>
        <time>2021-02-13T10:39:55Z</time>
      </trkpt>
      <trkpt lat="38.928715" lon="-5.8330564">
        <ele>348.0</ele>
        <time>2021-02-13T10:39:56Z</time>
      </trkpt>
      <trkpt lat="38.928688" lon="-5.8329735">
        <ele>348.0</ele>
        <time>2021-02-13T10:39:57Z</time>
      </trkpt>
      <trkpt lat="38.92866" lon="-5.8328876">
        <ele>347.0</ele>
        <time>2021-02-13T10:39:58Z</time>
      </trkpt>
      <trkpt lat="38.92863" lon="-5.8327994">
        <ele>347.0</ele>
        <time>2021-02-13T10:39:59Z</time>
      </trkpt>
      <trkpt lat="38.928604" lon="-5.8327084">
        <ele>347.0</ele>
        <time>2021-02-13T10:40:00Z</time>
      </trkpt>
      <trkpt lat="38.928577" lon="-5.832614">
        <ele>346.0</ele>
        <time>2021-02-13T10:40:01Z</time>
      </trkpt>
      <trkpt lat="38.928547" lon="-5.8325167">
        <ele>346.0</ele>
        <time>2021-02-13T10:40:02Z</time>
      </trkpt>
      <trkpt lat="38.928513" lon="-5.8324175">
        <ele>345.0</ele>
        <time>2021-02-13T10:40:03Z</time>
      </trkpt>
      <trkpt lat="38.92848" lon="-5.8323154">
        <ele>345.0</ele>
        <time>2021-02-13T10:40:04Z</time>
      </trkpt>
      <trkpt lat="38.928444" lon="-5.832212">
        <ele>343.0</ele>
        <time>2021-02-13T10:40:05Z</time>
      </trkpt>
      <trkpt lat="38.92841" lon="-5.832107">
        <ele>343.0</ele>
        <time>2021-02-13T10:40:06Z</time>
      </trkpt>
      <trkpt lat="38.928375" lon="-5.8320007">
        <ele>342.0</ele>
        <time>2021-02-13T10:40:07Z</time>
      </trkpt>
      <trkpt lat="38.928337" lon="-5.831894">
        <ele>342.0</ele>
        <time>2021-02-13T10:40:08Z</time>
      </trkpt>
      <trkpt lat="38.9283" lon="-5.831786">
        <ele>341.0</ele>
        <time>2021-02-13T10:40:09Z</time>
      </trkpt>
      <trkpt lat="38.928265" lon="-5.8316774">
        <ele>341.0</ele>
        <time>2021-02-13T10:40:10Z</time>
      </trkpt>
      <trkpt lat="38.928226" lon="-5.8315687">
        <ele>341.0</ele>
        <time>2021-02-13T10:40:11Z</time>
      </trkpt>
      <trkpt lat="38.92819" lon="-5.8314586">
        <ele>341.0</ele>
        <time>2021-02-13T10:40:12Z</time>
      </trkpt>
      <trkpt lat="38.928154" lon="-5.8313484">
        <ele>341.0</ele>
        <time>2021-02-13T10:40:13Z</time>
      </trkpt>
      <trkpt lat="38.92812" lon="-5.8312373">
        <ele>339.0</ele>
        <time>2021-02-13T10:40:14Z</time>
      </trkpt>
      <trkpt lat="38.928078" lon="-5.8311253">
        <ele>339.0</ele>
        <time>2021-02-13T10:40:15Z</time>
      </trkpt>
      <trkpt lat="38.92804" lon="-5.8310113">
        <ele>338.0</ele>
        <time>2021-02-13T10:40:16Z</time>
      </trkpt>
      <trkpt lat="38.928" lon="-5.830896">
        <ele>338.0</ele>
        <time>2021-02-13T10:40:18Z</time>
      </trkpt>
      <trkpt lat="38.92795" lon="-5.830742">
        <ele>337.0</ele>
        <time>2021-02-13T10:40:19Z</time>
      </trkpt>
      <trkpt lat="38.927902" lon="-5.830599">
        <ele>337.0</ele>
        <time>2021-02-13T10:40:20Z</time>
      </trkpt>
      <trkpt lat="38.927853" lon="-5.830466">
        <ele>336.0</ele>
        <time>2021-02-13T10:40:21Z</time>
      </trkpt>
      <trkpt lat="38.927807" lon="-5.83034">
        <ele>336.0</ele>
        <time>2021-02-13T10:40:22Z</time>
      </trkpt>
      <trkpt lat="38.927757" lon="-5.8302217">
        <ele>336.0</ele>
        <time>2021-02-13T10:40:23Z</time>
      </trkpt>
      <trkpt lat="38.927704" lon="-5.8301096">
        <ele>335.0</ele>
        <time>2021-02-13T10:40:24Z</time>
      </trkpt>
      <trkpt lat="38.92765" lon="-5.830003">
        <ele>335.0</ele>
        <time>2021-02-13T10:40:26Z</time>
      </trkpt>
      <trkpt lat="38.92758" lon="-5.82987">
        <ele>335.0</ele>
        <time>2021-02-13T10:40:27Z</time>
      </trkpt>
      <trkpt lat="38.927513" lon="-5.8297515">
        <ele>335.0</ele>
        <time>2021-02-13T10:40:28Z</time>
      </trkpt>
      <trkpt lat="38.92745" lon="-5.829644">
        <ele>335.0</ele>
        <time>2021-02-13T10:40:29Z</time>
      </trkpt>
      <trkpt lat="38.92739" lon="-5.829545">
        <ele>335.0</ele>
        <time>2021-02-13T10:40:30Z</time>
      </trkpt>
      <trkpt lat="38.92733" lon="-5.8294516">
        <ele>335.0</ele>
        <time>2021-02-13T10:40:31Z</time>
      </trkpt>
      <trkpt lat="38.927277" lon="-5.8293624">
        <ele>335.0</ele>
        <time>2021-02-13T10:40:32Z</time>
      </trkpt>
      <trkpt lat="38.927223" lon="-5.8292766">
        <ele>335.0</ele>
        <time>2021-02-13T10:40:33Z</time>
      </trkpt>
      <trkpt lat="38.927174" lon="-5.829193">
        <ele>336.0</ele>
        <time>2021-02-13T10:40:34Z</time>
      </trkpt>
      <trkpt lat="38.92712" lon="-5.8291116">
        <ele>336.0</ele>
        <time>2021-02-13T10:40:35Z</time>
      </trkpt>
      <trkpt lat="38.927074" lon="-5.829033">
        <ele>336.0</ele>
        <time>2021-02-13T10:40:36Z</time>
      </trkpt>
      <trkpt lat="38.927025" lon="-5.828956">
        <ele>336.0</ele>
        <time>2021-02-13T10:40:37Z</time>
      </trkpt>
      <trkpt lat="38.92698" lon="-5.828881">
        <ele>337.0</ele>
        <time>2021-02-13T10:40:38Z</time>
      </trkpt>
      <trkpt lat="38.926933" lon="-5.828805">
        <ele>337.0</ele>
        <time>2021-02-13T10:40:39Z</time>
      </trkpt>
      <trkpt lat="38.926884" lon="-5.828731">
        <ele>337.0</ele>
        <time>2021-02-13T10:40:40Z</time>
      </trkpt>
      <trkpt lat="38.926838" lon="-5.828657">
        <ele>337.0</ele>
        <time>2021-02-13T10:40:41Z</time>
      </trkpt>
      <trkpt lat="38.926796" lon="-5.828584">
        <ele>337.0</ele>
        <time>2021-02-13T10:40:42Z</time>
      </trkpt>
      <trkpt lat="38.926746" lon="-5.8285108">
        <ele>337.0</ele>
        <time>2021-02-13T10:40:43Z</time>
      </trkpt>
      <trkpt lat="38.9267" lon="-5.8284373">
        <ele>337.0</ele>
        <time>2021-02-13T10:40:44Z</time>
      </trkpt>
      <trkpt lat="38.926655" lon="-5.828363">
        <ele>337.0</ele>
        <time>2021-02-13T10:40:45Z</time>
      </trkpt>
      <trkpt lat="38.92661" lon="-5.8282866">
        <ele>337.0</ele>
        <time>2021-02-13T10:40:46Z</time>
      </trkpt>
      <trkpt lat="38.92656" lon="-5.8282104">
        <ele>337.0</ele>
        <time>2021-02-13T10:40:47Z</time>
      </trkpt>
      <trkpt lat="38.926514" lon="-5.8281326">
        <ele>337.0</ele>
        <time>2021-02-13T10:40:47Z</time>
      </trkpt>
      <trkpt lat="38.92631" lon="-5.827811">
        <ele>336.0</ele>
        <time>2021-02-13T10:40:50Z</time>
      </trkpt>
      <trkpt lat="38.926296" lon="-5.8277903">
        <ele>336.0</ele>
        <time>2021-02-13T10:40:51Z</time>
      </trkpt>
      <trkpt lat="38.926273" lon="-5.8277493">
        <ele>335.0</ele>
        <time>2021-02-13T10:40:52Z</time>
      </trkpt>
      <trkpt lat="38.926235" lon="-5.827693">
        <ele>335.0</ele>
        <time>2021-02-13T10:40:53Z</time>
      </trkpt>
      <trkpt lat="38.926197" lon="-5.827626">
        <ele>335.0</ele>
        <time>2021-02-13T10:40:54Z</time>
      </trkpt>
      <trkpt lat="38.926147" lon="-5.8275547">
        <ele>334.0</ele>
        <time>2021-02-13T10:40:55Z</time>
      </trkpt>
      <trkpt lat="38.9261" lon="-5.827479">
        <ele>334.0</ele>
        <time>2021-02-13T10:40:56Z</time>
      </trkpt>
      <trkpt lat="38.926056" lon="-5.827402">
        <ele>334.0</ele>
        <time>2021-02-13T10:40:57Z</time>
      </trkpt>
      <trkpt lat="38.926006" lon="-5.8273234">
        <ele>333.0</ele>
        <time>2021-02-13T10:40:58Z</time>
      </trkpt>
      <trkpt lat="38.925953" lon="-5.8272448">
        <ele>333.0</ele>
        <time>2021-02-13T10:40:59Z</time>
      </trkpt>
      <trkpt lat="38.925907" lon="-5.8271656">
        <ele>333.0</ele>
        <time>2021-02-13T10:41:00Z</time>
      </trkpt>
      <trkpt lat="38.925854" lon="-5.827086">
        <ele>333.0</ele>
        <time>2021-02-13T10:41:01Z</time>
      </trkpt>
      <trkpt lat="38.925808" lon="-5.827005">
        <ele>333.0</ele>
        <time>2021-02-13T10:41:02Z</time>
      </trkpt>
      <trkpt lat="38.925755" lon="-5.8269253">
        <ele>332.0</ele>
        <time>2021-02-13T10:41:03Z</time>
      </trkpt>
      <trkpt lat="38.925705" lon="-5.826846">
        <ele>332.0</ele>
        <time>2021-02-13T10:41:04Z</time>
      </trkpt>
      <trkpt lat="38.925655" lon="-5.826768">
        <ele>332.0</ele>
        <time>2021-02-13T10:41:05Z</time>
      </trkpt>
      <trkpt lat="38.925606" lon="-5.8266907">
        <ele>332.0</ele>
        <time>2021-02-13T10:41:06Z</time>
      </trkpt>
      <trkpt lat="38.925556" lon="-5.826616">
        <ele>332.0</ele>
        <time>2021-02-13T10:41:07Z</time>
      </trkpt>
      <trkpt lat="38.92551" lon="-5.82654">
        <ele>332.0</ele>
        <time>2021-02-13T10:41:08Z</time>
      </trkpt>
      <trkpt lat="38.92546" lon="-5.826467">
        <ele>332.0</ele>
        <time>2021-02-13T10:41:09Z</time>
      </trkpt>
      <trkpt lat="38.925415" lon="-5.826394">
        <ele>332.0</ele>
        <time>2021-02-13T10:41:10Z</time>
      </trkpt>
      <trkpt lat="38.92537" lon="-5.826322">
        <ele>332.0</ele>
        <time>2021-02-13T10:41:11Z</time>
      </trkpt>
      <trkpt lat="38.925323" lon="-5.826251">
        <ele>332.0</ele>
        <time>2021-02-13T10:41:12Z</time>
      </trkpt>
      <trkpt lat="38.92528" lon="-5.826182">
        <ele>332.0</ele>
        <time>2021-02-13T10:41:13Z</time>
      </trkpt>
      <trkpt lat="38.92524" lon="-5.8261113">
        <ele>332.0</ele>
        <time>2021-02-13T10:41:14Z</time>
      </trkpt>
      <trkpt lat="38.925198" lon="-5.8260417">
        <ele>332.0</ele>
        <time>2021-02-13T10:41:15Z</time>
      </trkpt>
      <trkpt lat="38.925156" lon="-5.825971">
        <ele>332.0</ele>
        <time>2021-02-13T10:41:16Z</time>
      </trkpt>
      <trkpt lat="38.925117" lon="-5.8259015">
        <ele>332.0</ele>
        <time>2021-02-13T10:41:17Z</time>
      </trkpt>
      <trkpt lat="38.925076" lon="-5.825834">
        <ele>332.0</ele>
        <time>2021-02-13T10:41:18Z</time>
      </trkpt>
      <trkpt lat="38.925037" lon="-5.8257685">
        <ele>332.0</ele>
        <time>2021-02-13T10:41:19Z</time>
      </trkpt>
      <trkpt lat="38.924995" lon="-5.8257036">
        <ele>332.0</ele>
        <time>2021-02-13T10:41:20Z</time>
      </trkpt>
      <trkpt lat="38.924957" lon="-5.825641">
        <ele>333.0</ele>
        <time>2021-02-13T10:41:21Z</time>
      </trkpt>
      <trkpt lat="38.92492" lon="-5.8255796">
        <ele>333.0</ele>
        <time>2021-02-13T10:41:22Z</time>
      </trkpt>
      <trkpt lat="38.92488" lon="-5.825518">
        <ele>333.0</ele>
        <time>2021-02-13T10:41:23Z</time>
      </trkpt>
      <trkpt lat="38.924843" lon="-5.825458">
        <ele>334.0</ele>
        <time>2021-02-13T10:41:24Z</time>
      </trkpt>
      <trkpt lat="38.924805" lon="-5.825398">
        <ele>334.0</ele>
        <time>2021-02-13T10:41:25Z</time>
      </trkpt>
      <trkpt lat="38.924767" lon="-5.8253384">
        <ele>334.0</ele>
        <time>2021-02-13T10:41:26Z</time>
      </trkpt>
      <trkpt lat="38.924732" lon="-5.8252788">
        <ele>335.0</ele>
        <time>2021-02-13T10:41:27Z</time>
      </trkpt>
      <trkpt lat="38.924694" lon="-5.825217">
        <ele>335.0</ele>
        <time>2021-02-13T10:41:28Z</time>
      </trkpt>
      <trkpt lat="38.92466" lon="-5.8251567">
        <ele>335.0</ele>
        <time>2021-02-13T10:41:29Z</time>
      </trkpt>
      <trkpt lat="38.92462" lon="-5.825096">
        <ele>335.0</ele>
        <time>2021-02-13T10:41:30Z</time>
      </trkpt>
      <trkpt lat="38.924583" lon="-5.825038">
        <ele>335.0</ele>
        <time>2021-02-13T10:41:31Z</time>
      </trkpt>
      <trkpt lat="38.92455" lon="-5.824981">
        <ele>335.0</ele>
        <time>2021-02-13T10:41:32Z</time>
      </trkpt>
      <trkpt lat="38.924515" lon="-5.824925">
        <ele>335.0</ele>
        <time>2021-02-13T10:41:33Z</time>
      </trkpt>
      <trkpt lat="38.924477" lon="-5.8248677">
        <ele>335.0</ele>
        <time>2021-02-13T10:41:34Z</time>
      </trkpt>
      <trkpt lat="38.924442" lon="-5.824812">
        <ele>335.0</ele>
        <time>2021-02-13T10:41:35Z</time>
      </trkpt>
      <trkpt lat="38.924408" lon="-5.8247576">
        <ele>335.0</ele>
        <time>2021-02-13T10:41:36Z</time>
      </trkpt>
      <trkpt lat="38.924374" lon="-5.8247046">
        <ele>335.0</ele>
        <time>2021-02-13T10:41:37Z</time>
      </trkpt>
      <trkpt lat="38.924335" lon="-5.8246517">
        <ele>335.0</ele>
        <time>2021-02-13T10:41:38Z</time>
      </trkpt>
      <trkpt lat="38.924305" lon="-5.824598">
        <ele>335.0</ele>
        <time>2021-02-13T10:41:39Z</time>
      </trkpt>
      <trkpt lat="38.92427" lon="-5.8245473">
        <ele>335.0</ele>
        <time>2021-02-13T10:41:40Z</time>
      </trkpt>
      <trkpt lat="38.924236" lon="-5.8244953">
        <ele>336.0</ele>
        <time>2021-02-13T10:41:41Z</time>
      </trkpt>
      <trkpt lat="38.924202" lon="-5.8244443">
        <ele>336.0</ele>
        <time>2021-02-13T10:41:42Z</time>
      </trkpt>
      <trkpt lat="38.92417" lon="-5.8243923">
        <ele>336.0</ele>
        <time>2021-02-13T10:41:43Z</time>
      </trkpt>
      <trkpt lat="38.924137" lon="-5.82434">
        <ele>336.0</ele>
        <time>2021-02-13T10:41:44Z</time>
      </trkpt>
      <trkpt lat="38.924103" lon="-5.8242826">
        <ele>336.0</ele>
        <time>2021-02-13T10:41:45Z</time>
      </trkpt>
      <trkpt lat="38.924072" lon="-5.8242292">
        <ele>336.0</ele>
        <time>2021-02-13T10:41:46Z</time>
      </trkpt>
      <trkpt lat="38.924038" lon="-5.824175">
        <ele>336.0</ele>
        <time>2021-02-13T10:41:47Z</time>
      </trkpt>
      <trkpt lat="38.924007" lon="-5.8241215">
        <ele>337.0</ele>
        <time>2021-02-13T10:41:48Z</time>
      </trkpt>
      <trkpt lat="38.923973" lon="-5.824065">
        <ele>337.0</ele>
        <time>2021-02-13T10:41:49Z</time>
      </trkpt>
      <trkpt lat="38.923943" lon="-5.8240128">
        <ele>337.0</ele>
        <time>2021-02-13T10:41:50Z</time>
      </trkpt>
      <trkpt lat="38.923912" lon="-5.823961">
        <ele>337.0</ele>
        <time>2021-02-13T10:41:51Z</time>
      </trkpt>
      <trkpt lat="38.923878" lon="-5.8239083">
        <ele>337.0</ele>
        <time>2021-02-13T10:41:52Z</time>
      </trkpt>
      <trkpt lat="38.923847" lon="-5.8238573">
        <ele>337.0</ele>
        <time>2021-02-13T10:41:53Z</time>
      </trkpt>
      <trkpt lat="38.923813" lon="-5.8238034">
        <ele>337.0</ele>
        <time>2021-02-13T10:41:54Z</time>
      </trkpt>
      <trkpt lat="38.923782" lon="-5.8237495">
        <ele>337.0</ele>
        <time>2021-02-13T10:41:55Z</time>
      </trkpt>
      <trkpt lat="38.92375" lon="-5.8237">
        <ele>337.0</ele>
        <time>2021-02-13T10:41:56Z</time>
      </trkpt>
      <trkpt lat="38.92372" lon="-5.8236504">
        <ele>337.0</ele>
        <time>2021-02-13T10:41:57Z</time>
      </trkpt>
      <trkpt lat="38.92369" lon="-5.8236">
        <ele>337.0</ele>
        <time>2021-02-13T10:41:58Z</time>
      </trkpt>
      <trkpt lat="38.923656" lon="-5.8235493">
        <ele>338.0</ele>
        <time>2021-02-13T10:41:59Z</time>
      </trkpt>
      <trkpt lat="38.923626" lon="-5.823498">
        <ele>338.0</ele>
        <time>2021-02-13T10:42:00Z</time>
      </trkpt>
      <trkpt lat="38.92359" lon="-5.8234463">
        <ele>338.0</ele>
        <time>2021-02-13T10:42:01Z</time>
      </trkpt>
      <trkpt lat="38.92356" lon="-5.8233953">
        <ele>338.0</ele>
        <time>2021-02-13T10:42:02Z</time>
      </trkpt>
      <trkpt lat="38.923527" lon="-5.8233433">
        <ele>338.0</ele>
        <time>2021-02-13T10:42:03Z</time>
      </trkpt>
      <trkpt lat="38.923492" lon="-5.8232875">
        <ele>338.0</ele>
        <time>2021-02-13T10:42:04Z</time>
      </trkpt>
      <trkpt lat="38.923454" lon="-5.823234">
        <ele>338.0</ele>
        <time>2021-02-13T10:42:05Z</time>
      </trkpt>
      <trkpt lat="38.923424" lon="-5.8231845">
        <ele>339.0</ele>
        <time>2021-02-13T10:42:06Z</time>
      </trkpt>
      <trkpt lat="38.923393" lon="-5.8231354">
        <ele>339.0</ele>
        <time>2021-02-13T10:42:07Z</time>
      </trkpt>
      <trkpt lat="38.923363" lon="-5.8230853">
        <ele>339.0</ele>
        <time>2021-02-13T10:42:08Z</time>
      </trkpt>
      <trkpt lat="38.923332" lon="-5.823036">
        <ele>339.0</ele>
        <time>2021-02-13T10:42:09Z</time>
      </trkpt>
      <trkpt lat="38.9233" lon="-5.8229876">
        <ele>339.0</ele>
        <time>2021-02-13T10:42:10Z</time>
      </trkpt>
      <trkpt lat="38.92327" lon="-5.8229384">
        <ele>339.0</ele>
        <time>2021-02-13T10:42:11Z</time>
      </trkpt>
      <trkpt lat="38.92324" lon="-5.822889">
        <ele>339.0</ele>
        <time>2021-02-13T10:42:12Z</time>
      </trkpt>
      <trkpt lat="38.923214" lon="-5.8228383">
        <ele>339.0</ele>
        <time>2021-02-13T10:42:13Z</time>
      </trkpt>
      <trkpt lat="38.923183" lon="-5.8227863">
        <ele>339.0</ele>
        <time>2021-02-13T10:42:14Z</time>
      </trkpt>
      <trkpt lat="38.92315" lon="-5.82273">
        <ele>339.0</ele>
        <time>2021-02-13T10:42:15Z</time>
      </trkpt>
      <trkpt lat="38.923115" lon="-5.822674">
        <ele>339.0</ele>
        <time>2021-02-13T10:42:16Z</time>
      </trkpt>
      <trkpt lat="38.923077" lon="-5.822615">
        <ele>339.0</ele>
        <time>2021-02-13T10:42:17Z</time>
      </trkpt>
      <trkpt lat="38.92304" lon="-5.8225536">
        <ele>338.0</ele>
        <time>2021-02-13T10:42:18Z</time>
      </trkpt>
      <trkpt lat="38.922997" lon="-5.8224907">
        <ele>338.0</ele>
        <time>2021-02-13T10:42:19Z</time>
      </trkpt>
      <trkpt lat="38.92296" lon="-5.8224263">
        <ele>337.0</ele>
        <time>2021-02-13T10:42:20Z</time>
      </trkpt>
      <trkpt lat="38.922913" lon="-5.822361">
        <ele>337.0</ele>
        <time>2021-02-13T10:42:21Z</time>
      </trkpt>
      <trkpt lat="38.922867" lon="-5.8222933">
        <ele>336.0</ele>
        <time>2021-02-13T10:42:22Z</time>
      </trkpt>
      <trkpt lat="38.922817" lon="-5.8222213">
        <ele>336.0</ele>
        <time>2021-02-13T10:42:23Z</time>
      </trkpt>
      <trkpt lat="38.92277" lon="-5.822146">
        <ele>335.0</ele>
        <time>2021-02-13T10:42:24Z</time>
      </trkpt>
      <trkpt lat="38.922718" lon="-5.822067">
        <ele>335.0</ele>
        <time>2021-02-13T10:42:25Z</time>
      </trkpt>
      <trkpt lat="38.922665" lon="-5.8219852">
        <ele>334.0</ele>
        <time>2021-02-13T10:42:26Z</time>
      </trkpt>
      <trkpt lat="38.922615" lon="-5.8219028">
        <ele>334.0</ele>
        <time>2021-02-13T10:42:27Z</time>
      </trkpt>
      <trkpt lat="38.92256" lon="-5.8218174">
        <ele>334.0</ele>
        <time>2021-02-13T10:42:28Z</time>
      </trkpt>
      <trkpt lat="38.922504" lon="-5.821731">
        <ele>334.0</ele>
        <time>2021-02-13T10:42:29Z</time>
      </trkpt>
      <trkpt lat="38.92245" lon="-5.8216434">
        <ele>333.0</ele>
        <time>2021-02-13T10:42:30Z</time>
      </trkpt>
      <trkpt lat="38.922398" lon="-5.8215547">
        <ele>333.0</ele>
        <time>2021-02-13T10:42:31Z</time>
      </trkpt>
      <trkpt lat="38.92234" lon="-5.821465">
        <ele>332.0</ele>
        <time>2021-02-13T10:42:32Z</time>
      </trkpt>
      <trkpt lat="38.922287" lon="-5.821375">
        <ele>332.0</ele>
        <time>2021-02-13T10:42:33Z</time>
      </trkpt>
      <trkpt lat="38.922234" lon="-5.821286">
        <ele>332.0</ele>
        <time>2021-02-13T10:42:34Z</time>
      </trkpt>
      <trkpt lat="38.92218" lon="-5.8212047">
        <ele>332.0</ele>
        <time>2021-02-13T10:42:35Z</time>
      </trkpt>
      <trkpt lat="38.92213" lon="-5.8211226">
        <ele>332.0</ele>
        <time>2021-02-13T10:42:36Z</time>
      </trkpt>
      <trkpt lat="38.92208" lon="-5.8210387">
        <ele>332.0</ele>
        <time>2021-02-13T10:42:37Z</time>
      </trkpt>
      <trkpt lat="38.92203" lon="-5.8209586">
        <ele>332.0</ele>
        <time>2021-02-13T10:42:38Z</time>
      </trkpt>
      <trkpt lat="38.921993" lon="-5.8208885">
        <ele>332.0</ele>
        <time>2021-02-13T10:42:39Z</time>
      </trkpt>
      <trkpt lat="38.921947" lon="-5.8208165">
        <ele>332.0</ele>
        <time>2021-02-13T10:42:40Z</time>
      </trkpt>
      <trkpt lat="38.921906" lon="-5.820751">
        <ele>333.0</ele>
        <time>2021-02-13T10:42:41Z</time>
      </trkpt>
      <trkpt lat="38.92187" lon="-5.820691">
        <ele>333.0</ele>
        <time>2021-02-13T10:42:42Z</time>
      </trkpt>
      <trkpt lat="38.921837" lon="-5.8206387">
        <ele>333.0</ele>
        <time>2021-02-13T10:42:43Z</time>
      </trkpt>
      <trkpt lat="38.921806" lon="-5.820585">
        <ele>334.0</ele>
        <time>2021-02-13T10:42:44Z</time>
      </trkpt>
      <trkpt lat="38.921776" lon="-5.820536">
        <ele>334.0</ele>
        <time>2021-02-13T10:42:45Z</time>
      </trkpt>
      <trkpt lat="38.92174" lon="-5.820487">
        <ele>334.0</ele>
        <time>2021-02-13T10:42:46Z</time>
      </trkpt>
      <trkpt lat="38.921715" lon="-5.820441">
        <ele>335.0</ele>
        <time>2021-02-13T10:42:47Z</time>
      </trkpt>
      <trkpt lat="38.921688" lon="-5.820397">
        <ele>335.0</ele>
        <time>2021-02-13T10:42:48Z</time>
      </trkpt>
      <trkpt lat="38.92166" lon="-5.8203545">
        <ele>335.0</ele>
        <time>2021-02-13T10:42:49Z</time>
      </trkpt>
      <trkpt lat="38.921635" lon="-5.8203154">
        <ele>336.0</ele>
        <time>2021-02-13T10:42:50Z</time>
      </trkpt>
      <trkpt lat="38.921608" lon="-5.8202744">
        <ele>336.0</ele>
        <time>2021-02-13T10:42:51Z</time>
      </trkpt>
      <trkpt lat="38.92158" lon="-5.820232">
        <ele>336.0</ele>
        <time>2021-02-13T10:42:52Z</time>
      </trkpt>
      <trkpt lat="38.921555" lon="-5.820191">
        <ele>336.0</ele>
        <time>2021-02-13T10:42:53Z</time>
      </trkpt>
      <trkpt lat="38.921528" lon="-5.820147">
        <ele>336.0</ele>
        <time>2021-02-13T10:42:54Z</time>
      </trkpt>
      <trkpt lat="38.9215" lon="-5.820104">
        <ele>336.0</ele>
        <time>2021-02-13T10:42:55Z</time>
      </trkpt>
      <trkpt lat="38.92147" lon="-5.820057">
        <ele>336.0</ele>
        <time>2021-02-13T10:42:56Z</time>
      </trkpt>
      <trkpt lat="38.92144" lon="-5.8200088">
        <ele>336.0</ele>
        <time>2021-02-13T10:42:57Z</time>
      </trkpt>
      <trkpt lat="38.92141" lon="-5.819959">
        <ele>337.0</ele>
        <time>2021-02-13T10:42:58Z</time>
      </trkpt>
      <trkpt lat="38.92138" lon="-5.8199124">
        <ele>337.0</ele>
        <time>2021-02-13T10:42:59Z</time>
      </trkpt>
      <trkpt lat="38.921345" lon="-5.8198605">
        <ele>337.0</ele>
        <time>2021-02-13T10:43:00Z</time>
      </trkpt>
      <trkpt lat="38.921307" lon="-5.8198066">
        <ele>337.0</ele>
        <time>2021-02-13T10:43:01Z</time>
      </trkpt>
      <trkpt lat="38.921276" lon="-5.819753">
        <ele>337.0</ele>
        <time>2021-02-13T10:43:02Z</time>
      </trkpt>
      <trkpt lat="38.921238" lon="-5.8196964">
        <ele>337.0</ele>
        <time>2021-02-13T10:43:03Z</time>
      </trkpt>
      <trkpt lat="38.921207" lon="-5.819639">
        <ele>337.0</ele>
        <time>2021-02-13T10:43:04Z</time>
      </trkpt>
      <trkpt lat="38.921165" lon="-5.8195796">
        <ele>337.0</ele>
        <time>2021-02-13T10:43:05Z</time>
      </trkpt>
      <trkpt lat="38.92113" lon="-5.81952">
        <ele>337.0</ele>
        <time>2021-02-13T10:43:06Z</time>
      </trkpt>
      <trkpt lat="38.921097" lon="-5.8194604">
        <ele>337.0</ele>
        <time>2021-02-13T10:43:07Z</time>
      </trkpt>
      <trkpt lat="38.92106" lon="-5.8194017">
        <ele>338.0</ele>
        <time>2021-02-13T10:43:08Z</time>
      </trkpt>
      <trkpt lat="38.921024" lon="-5.8193436">
        <ele>338.0</ele>
        <time>2021-02-13T10:43:09Z</time>
      </trkpt>
      <trkpt lat="38.92099" lon="-5.8192863">
        <ele>338.0</ele>
        <time>2021-02-13T10:43:10Z</time>
      </trkpt>
      <trkpt lat="38.92096" lon="-5.8192296">
        <ele>338.0</ele>
        <time>2021-02-13T10:43:11Z</time>
      </trkpt>
      <trkpt lat="38.920925" lon="-5.819174">
        <ele>338.0</ele>
        <time>2021-02-13T10:43:12Z</time>
      </trkpt>
      <trkpt lat="38.920895" lon="-5.8191185">
        <ele>339.0</ele>
        <time>2021-02-13T10:43:13Z</time>
      </trkpt>
      <trkpt lat="38.92086" lon="-5.8190656">
        <ele>339.0</ele>
        <time>2021-02-13T10:43:14Z</time>
      </trkpt>
      <trkpt lat="38.92083" lon="-5.8190126">
        <ele>339.0</ele>
        <time>2021-02-13T10:43:15Z</time>
      </trkpt>
      <trkpt lat="38.920795" lon="-5.818959">
        <ele>339.0</ele>
        <time>2021-02-13T10:43:16Z</time>
      </trkpt>
      <trkpt lat="38.92076" lon="-5.818906">
        <ele>339.0</ele>
        <time>2021-02-13T10:43:17Z</time>
      </trkpt>
      <trkpt lat="38.92073" lon="-5.818852">
        <ele>339.0</ele>
        <time>2021-02-13T10:43:18Z</time>
      </trkpt>
      <trkpt lat="38.9207" lon="-5.8188033">
        <ele>339.0</ele>
        <time>2021-02-13T10:43:19Z</time>
      </trkpt>
      <trkpt lat="38.92067" lon="-5.818751">
        <ele>339.0</ele>
        <time>2021-02-13T10:43:20Z</time>
      </trkpt>
      <trkpt lat="38.920635" lon="-5.818699">
        <ele>339.0</ele>
        <time>2021-02-13T10:43:21Z</time>
      </trkpt>
      <trkpt lat="38.920605" lon="-5.8186445">
        <ele>339.0</ele>
        <time>2021-02-13T10:43:22Z</time>
      </trkpt>
      <trkpt lat="38.920574" lon="-5.8185887">
        <ele>339.0</ele>
        <time>2021-02-13T10:43:23Z</time>
      </trkpt>
      <trkpt lat="38.92054" lon="-5.818532">
        <ele>339.0</ele>
        <time>2021-02-13T10:43:24Z</time>
      </trkpt>
      <trkpt lat="38.920506" lon="-5.818472">
        <ele>339.0</ele>
        <time>2021-02-13T10:43:25Z</time>
      </trkpt>
      <trkpt lat="38.920475" lon="-5.8184114">
        <ele>339.0</ele>
        <time>2021-02-13T10:43:26Z</time>
      </trkpt>
      <trkpt lat="38.920437" lon="-5.818352">
        <ele>339.0</ele>
        <time>2021-02-13T10:43:27Z</time>
      </trkpt>
      <trkpt lat="38.920403" lon="-5.818291">
        <ele>339.0</ele>
        <time>2021-02-13T10:43:28Z</time>
      </trkpt>
      <trkpt lat="38.92037" lon="-5.8182335">
        <ele>339.0</ele>
        <time>2021-02-13T10:43:29Z</time>
      </trkpt>
      <trkpt lat="38.920334" lon="-5.818171">
        <ele>339.0</ele>
        <time>2021-02-13T10:43:30Z</time>
      </trkpt>
      <trkpt lat="38.9203" lon="-5.818113">
        <ele>339.0</ele>
        <time>2021-02-13T10:43:31Z</time>
      </trkpt>
      <trkpt lat="38.920265" lon="-5.8180485">
        <ele>339.0</ele>
        <time>2021-02-13T10:43:32Z</time>
      </trkpt>
      <trkpt lat="38.92024" lon="-5.817986">
        <ele>339.0</ele>
        <time>2021-02-13T10:43:33Z</time>
      </trkpt>
      <trkpt lat="38.92021" lon="-5.817925">
        <ele>339.0</ele>
        <time>2021-02-13T10:43:34Z</time>
      </trkpt>
      <trkpt lat="38.92019" lon="-5.8178625">
        <ele>339.0</ele>
        <time>2021-02-13T10:43:35Z</time>
      </trkpt>
      <trkpt lat="38.92017" lon="-5.8177996">
        <ele>339.0</ele>
        <time>2021-02-13T10:43:35Z</time>
      </trkpt>
      <trkpt lat="38.92015" lon="-5.817739">
        <ele>339.0</ele>
        <time>2021-02-13T10:43:36Z</time>
      </trkpt>
      <trkpt lat="38.920135" lon="-5.817678">
        <ele>339.0</ele>
        <time>2021-02-13T10:43:37Z</time>
      </trkpt>
      <trkpt lat="38.920124" lon="-5.8176174">
        <ele>339.0</ele>
        <time>2021-02-13T10:43:38Z</time>
      </trkpt>
      <trkpt lat="38.92011" lon="-5.8175616">
        <ele>339.0</ele>
        <time>2021-02-13T10:43:39Z</time>
      </trkpt>
      <trkpt lat="38.920097" lon="-5.817502">
        <ele>339.0</ele>
        <time>2021-02-13T10:43:40Z</time>
      </trkpt>
      <trkpt lat="38.920086" lon="-5.817446">
        <ele>339.0</ele>
        <time>2021-02-13T10:43:41Z</time>
      </trkpt>
      <trkpt lat="38.92007" lon="-5.817394">
        <ele>339.0</ele>
        <time>2021-02-13T10:43:42Z</time>
      </trkpt>
      <trkpt lat="38.920063" lon="-5.817334">
        <ele>340.0</ele>
        <time>2021-02-13T10:43:43Z</time>
      </trkpt>
      <trkpt lat="38.920048" lon="-5.817276">
        <ele>340.0</ele>
        <time>2021-02-13T10:43:44Z</time>
      </trkpt>
      <trkpt lat="38.92004" lon="-5.817218">
        <ele>340.0</ele>
        <time>2021-02-13T10:43:45Z</time>
      </trkpt>
      <trkpt lat="38.920033" lon="-5.81716">
        <ele>340.0</ele>
        <time>2021-02-13T10:43:46Z</time>
      </trkpt>
      <trkpt lat="38.92002" lon="-5.817104">
        <ele>340.0</ele>
        <time>2021-02-13T10:43:47Z</time>
      </trkpt>
      <trkpt lat="38.92001" lon="-5.817047">
        <ele>341.0</ele>
        <time>2021-02-13T10:43:48Z</time>
      </trkpt>
      <trkpt lat="38.92" lon="-5.8169875">
        <ele>341.0</ele>
        <time>2021-02-13T10:43:49Z</time>
      </trkpt>
      <trkpt lat="38.91999" lon="-5.816929">
        <ele>341.0</ele>
        <time>2021-02-13T10:43:50Z</time>
      </trkpt>
      <trkpt lat="38.91998" lon="-5.8168755">
        <ele>341.0</ele>
        <time>2021-02-13T10:43:51Z</time>
      </trkpt>
      <trkpt lat="38.91997" lon="-5.8168225">
        <ele>341.0</ele>
        <time>2021-02-13T10:43:52Z</time>
      </trkpt>
      <trkpt lat="38.91996" lon="-5.816769">
        <ele>341.0</ele>
        <time>2021-02-13T10:43:53Z</time>
      </trkpt>
      <trkpt lat="38.919952" lon="-5.8167176">
        <ele>342.0</ele>
        <time>2021-02-13T10:43:54Z</time>
      </trkpt>
      <trkpt lat="38.91994" lon="-5.816662">
        <ele>342.0</ele>
        <time>2021-02-13T10:43:55Z</time>
      </trkpt>
      <trkpt lat="38.91993" lon="-5.8166122">
        <ele>342.0</ele>
        <time>2021-02-13T10:43:56Z</time>
      </trkpt>
      <trkpt lat="38.91992" lon="-5.8165627">
        <ele>342.0</ele>
        <time>2021-02-13T10:43:57Z</time>
      </trkpt>
      <trkpt lat="38.919914" lon="-5.8165083">
        <ele>342.0</ele>
        <time>2021-02-13T10:43:58Z</time>
      </trkpt>
      <trkpt lat="38.919903" lon="-5.8164544">
        <ele>342.0</ele>
        <time>2021-02-13T10:43:59Z</time>
      </trkpt>
      <trkpt lat="38.91989" lon="-5.816402">
        <ele>343.0</ele>
        <time>2021-02-13T10:44:00Z</time>
      </trkpt>
      <trkpt lat="38.919884" lon="-5.816351">
        <ele>343.0</ele>
        <time>2021-02-13T10:44:01Z</time>
      </trkpt>
      <trkpt lat="38.919876" lon="-5.816299">
        <ele>343.0</ele>
        <time>2021-02-13T10:44:02Z</time>
      </trkpt>
      <trkpt lat="38.919865" lon="-5.816247">
        <ele>343.0</ele>
        <time>2021-02-13T10:44:03Z</time>
      </trkpt>
      <trkpt lat="38.919853" lon="-5.8161945">
        <ele>343.0</ele>
        <time>2021-02-13T10:44:04Z</time>
      </trkpt>
      <trkpt lat="38.91984" lon="-5.8161407">
        <ele>344.0</ele>
        <time>2021-02-13T10:44:05Z</time>
      </trkpt>
      <trkpt lat="38.91983" lon="-5.8160896">
        <ele>344.0</ele>
        <time>2021-02-13T10:44:06Z</time>
      </trkpt>
      <trkpt lat="38.919823" lon="-5.8160353">
        <ele>344.0</ele>
        <time>2021-02-13T10:44:07Z</time>
      </trkpt>
      <trkpt lat="38.91981" lon="-5.815981">
        <ele>344.0</ele>
        <time>2021-02-13T10:44:08Z</time>
      </trkpt>
      <trkpt lat="38.919796" lon="-5.8159246">
        <ele>344.0</ele>
        <time>2021-02-13T10:44:09Z</time>
      </trkpt>
      <trkpt lat="38.91979" lon="-5.815871">
        <ele>344.0</ele>
        <time>2021-02-13T10:44:10Z</time>
      </trkpt>
      <trkpt lat="38.91978" lon="-5.815818">
        <ele>344.0</ele>
        <time>2021-02-13T10:44:11Z</time>
      </trkpt>
      <trkpt lat="38.91977" lon="-5.815762">
        <ele>344.0</ele>
        <time>2021-02-13T10:44:12Z</time>
      </trkpt>
      <trkpt lat="38.91976" lon="-5.8157063">
        <ele>344.0</ele>
        <time>2021-02-13T10:44:13Z</time>
      </trkpt>
      <trkpt lat="38.91975" lon="-5.8156514">
        <ele>344.0</ele>
        <time>2021-02-13T10:44:14Z</time>
      </trkpt>
      <trkpt lat="38.919743" lon="-5.8155956">
        <ele>344.0</ele>
        <time>2021-02-13T10:44:15Z</time>
      </trkpt>
      <trkpt lat="38.919727" lon="-5.8155403">
        <ele>344.0</ele>
        <time>2021-02-13T10:44:16Z</time>
      </trkpt>
      <trkpt lat="38.91972" lon="-5.815486">
        <ele>344.0</ele>
        <time>2021-02-13T10:44:17Z</time>
      </trkpt>
      <trkpt lat="38.919712" lon="-5.81543">
        <ele>344.0</ele>
        <time>2021-02-13T10:44:18Z</time>
      </trkpt>
      <trkpt lat="38.9197" lon="-5.815375">
        <ele>344.0</ele>
        <time>2021-02-13T10:44:19Z</time>
      </trkpt>
      <trkpt lat="38.91969" lon="-5.8153195">
        <ele>344.0</ele>
        <time>2021-02-13T10:44:20Z</time>
      </trkpt>
      <trkpt lat="38.91968" lon="-5.815264">
        <ele>344.0</ele>
        <time>2021-02-13T10:44:21Z</time>
      </trkpt>
      <trkpt lat="38.919666" lon="-5.8152084">
        <ele>344.0</ele>
        <time>2021-02-13T10:44:22Z</time>
      </trkpt>
      <trkpt lat="38.91966" lon="-5.8151526">
        <ele>344.0</ele>
        <time>2021-02-13T10:44:23Z</time>
      </trkpt>
      <trkpt lat="38.919647" lon="-5.8150964">
        <ele>344.0</ele>
        <time>2021-02-13T10:44:24Z</time>
      </trkpt>
      <trkpt lat="38.919636" lon="-5.8150387">
        <ele>345.0</ele>
        <time>2021-02-13T10:44:25Z</time>
      </trkpt>
      <trkpt lat="38.919624" lon="-5.814985">
        <ele>345.0</ele>
        <time>2021-02-13T10:44:26Z</time>
      </trkpt>
      <trkpt lat="38.919613" lon="-5.8149276">
        <ele>345.0</ele>
        <time>2021-02-13T10:44:27Z</time>
      </trkpt>
      <trkpt lat="38.9196" lon="-5.8148727">
        <ele>345.0</ele>
        <time>2021-02-13T10:44:28Z</time>
      </trkpt>
      <trkpt lat="38.91959" lon="-5.814818">
        <ele>345.0</ele>
        <time>2021-02-13T10:44:29Z</time>
      </trkpt>
      <trkpt lat="38.91958" lon="-5.8147616">
        <ele>345.0</ele>
        <time>2021-02-13T10:44:30Z</time>
      </trkpt>
      <trkpt lat="38.919567" lon="-5.8147063">
        <ele>345.0</ele>
        <time>2021-02-13T10:44:31Z</time>
      </trkpt>
      <trkpt lat="38.919556" lon="-5.81465">
        <ele>345.0</ele>
        <time>2021-02-13T10:44:32Z</time>
      </trkpt>
      <trkpt lat="38.919548" lon="-5.8145933">
        <ele>346.0</ele>
        <time>2021-02-13T10:44:33Z</time>
      </trkpt>
      <trkpt lat="38.919533" lon="-5.814537">
        <ele>346.0</ele>
        <time>2021-02-13T10:44:34Z</time>
      </trkpt>
      <trkpt lat="38.919525" lon="-5.81448">
        <ele>346.0</ele>
        <time>2021-02-13T10:44:35Z</time>
      </trkpt>
      <trkpt lat="38.91951" lon="-5.814423">
        <ele>346.0</ele>
        <time>2021-02-13T10:44:36Z</time>
      </trkpt>
      <trkpt lat="38.9195" lon="-5.814364">
        <ele>346.0</ele>
        <time>2021-02-13T10:44:37Z</time>
      </trkpt>
      <trkpt lat="38.919487" lon="-5.8143053">
        <ele>346.0</ele>
        <time>2021-02-13T10:44:38Z</time>
      </trkpt>
      <trkpt lat="38.919476" lon="-5.8142457">
        <ele>346.0</ele>
        <time>2021-02-13T10:44:39Z</time>
      </trkpt>
      <trkpt lat="38.919464" lon="-5.814184">
        <ele>346.0</ele>
        <time>2021-02-13T10:44:40Z</time>
      </trkpt>
      <trkpt lat="38.919453" lon="-5.8141236">
        <ele>347.0</ele>
        <time>2021-02-13T10:44:41Z</time>
      </trkpt>
      <trkpt lat="38.91944" lon="-5.814064">
        <ele>347.0</ele>
        <time>2021-02-13T10:44:42Z</time>
      </trkpt>
      <trkpt lat="38.91943" lon="-5.814005">
        <ele>347.0</ele>
        <time>2021-02-13T10:44:43Z</time>
      </trkpt>
      <trkpt lat="38.91942" lon="-5.813946">
        <ele>347.0</ele>
        <time>2021-02-13T10:44:44Z</time>
      </trkpt>
      <trkpt lat="38.919407" lon="-5.813886">
        <ele>347.0</ele>
        <time>2021-02-13T10:44:45Z</time>
      </trkpt>
      <trkpt lat="38.919395" lon="-5.813825">
        <ele>347.0</ele>
        <time>2021-02-13T10:44:46Z</time>
      </trkpt>
      <trkpt lat="38.919384" lon="-5.8137646">
        <ele>347.0</ele>
        <time>2021-02-13T10:44:47Z</time>
      </trkpt>
      <trkpt lat="38.919373" lon="-5.813703">
        <ele>347.0</ele>
        <time>2021-02-13T10:44:48Z</time>
      </trkpt>
      <trkpt lat="38.91936" lon="-5.813641">
        <ele>348.0</ele>
        <time>2021-02-13T10:44:49Z</time>
      </trkpt>
      <trkpt lat="38.91935" lon="-5.813581">
        <ele>348.0</ele>
        <time>2021-02-13T10:44:50Z</time>
      </trkpt>
      <trkpt lat="38.91934" lon="-5.8135195">
        <ele>348.0</ele>
        <time>2021-02-13T10:44:51Z</time>
      </trkpt>
      <trkpt lat="38.919327" lon="-5.8134575">
        <ele>348.0</ele>
        <time>2021-02-13T10:44:52Z</time>
      </trkpt>
      <trkpt lat="38.919315" lon="-5.813396">
        <ele>348.0</ele>
        <time>2021-02-13T10:44:53Z</time>
      </trkpt>
      <trkpt lat="38.919308" lon="-5.8133345">
        <ele>348.0</ele>
        <time>2021-02-13T10:44:54Z</time>
      </trkpt>
      <trkpt lat="38.919292" lon="-5.8132725">
        <ele>348.0</ele>
        <time>2021-02-13T10:44:55Z</time>
      </trkpt>
      <trkpt lat="38.919285" lon="-5.813211">
        <ele>348.0</ele>
        <time>2021-02-13T10:44:56Z</time>
      </trkpt>
      <trkpt lat="38.91927" lon="-5.81315">
        <ele>349.0</ele>
        <time>2021-02-13T10:44:57Z</time>
      </trkpt>
      <trkpt lat="38.91926" lon="-5.8130884">
        <ele>349.0</ele>
        <time>2021-02-13T10:44:58Z</time>
      </trkpt>
      <trkpt lat="38.919247" lon="-5.8130274">
        <ele>349.0</ele>
        <time>2021-02-13T10:44:59Z</time>
      </trkpt>
      <trkpt lat="38.919228" lon="-5.812965">
        <ele>349.0</ele>
        <time>2021-02-13T10:45:00Z</time>
      </trkpt>
      <trkpt lat="38.919216" lon="-5.812903">
        <ele>349.0</ele>
        <time>2021-02-13T10:45:01Z</time>
      </trkpt>
      <trkpt lat="38.9192" lon="-5.8128405">
        <ele>349.0</ele>
        <time>2021-02-13T10:45:02Z</time>
      </trkpt>
      <trkpt lat="38.91919" lon="-5.812777">
        <ele>349.0</ele>
        <time>2021-02-13T10:45:03Z</time>
      </trkpt>
      <trkpt lat="38.919178" lon="-5.8127136">
        <ele>349.0</ele>
        <time>2021-02-13T10:45:04Z</time>
      </trkpt>
      <trkpt lat="38.91917" lon="-5.8126516">
        <ele>349.0</ele>
        <time>2021-02-13T10:45:05Z</time>
      </trkpt>
      <trkpt lat="38.919163" lon="-5.812587">
        <ele>349.0</ele>
        <time>2021-02-13T10:45:06Z</time>
      </trkpt>
      <trkpt lat="38.91916" lon="-5.8125186">
        <ele>349.0</ele>
        <time>2021-02-13T10:45:07Z</time>
      </trkpt>
      <trkpt lat="38.919155" lon="-5.8124504">
        <ele>349.0</ele>
        <time>2021-02-13T10:45:08Z</time>
      </trkpt>
      <trkpt lat="38.919155" lon="-5.812383">
        <ele>349.0</ele>
        <time>2021-02-13T10:45:09Z</time>
      </trkpt>
      <trkpt lat="38.91916" lon="-5.812317">
        <ele>349.0</ele>
        <time>2021-02-13T10:45:10Z</time>
      </trkpt>
      <trkpt lat="38.919167" lon="-5.812249">
        <ele>349.0</ele>
        <time>2021-02-13T10:45:11Z</time>
      </trkpt>
      <trkpt lat="38.91917" lon="-5.8121824">
        <ele>349.0</ele>
        <time>2021-02-13T10:45:12Z</time>
      </trkpt>
      <trkpt lat="38.91918" lon="-5.8121147">
        <ele>349.0</ele>
        <time>2021-02-13T10:45:13Z</time>
      </trkpt>
      <trkpt lat="38.91919" lon="-5.8120475">
        <ele>349.0</ele>
        <time>2021-02-13T10:45:14Z</time>
      </trkpt>
      <trkpt lat="38.919197" lon="-5.811984">
        <ele>349.0</ele>
        <time>2021-02-13T10:45:15Z</time>
      </trkpt>
      <trkpt lat="38.91921" lon="-5.8119187">
        <ele>349.0</ele>
        <time>2021-02-13T10:45:16Z</time>
      </trkpt>
      <trkpt lat="38.91922" lon="-5.811852">
        <ele>349.0</ele>
        <time>2021-02-13T10:45:17Z</time>
      </trkpt>
      <trkpt lat="38.919228" lon="-5.811784">
        <ele>349.0</ele>
        <time>2021-02-13T10:45:18Z</time>
      </trkpt>
      <trkpt lat="38.919235" lon="-5.8117146">
        <ele>349.0</ele>
        <time>2021-02-13T10:45:19Z</time>
      </trkpt>
      <trkpt lat="38.919247" lon="-5.81164">
        <ele>349.0</ele>
        <time>2021-02-13T10:45:20Z</time>
      </trkpt>
      <trkpt lat="38.91926" lon="-5.811566">
        <ele>349.0</ele>
        <time>2021-02-13T10:45:21Z</time>
      </trkpt>
      <trkpt lat="38.91927" lon="-5.811494">
        <ele>349.0</ele>
        <time>2021-02-13T10:45:22Z</time>
      </trkpt>
      <trkpt lat="38.919277" lon="-5.8114214">
        <ele>349.0</ele>
        <time>2021-02-13T10:45:23Z</time>
      </trkpt>
      <trkpt lat="38.919285" lon="-5.811349">
        <ele>349.0</ele>
        <time>2021-02-13T10:45:24Z</time>
      </trkpt>
      <trkpt lat="38.919296" lon="-5.811278">
        <ele>349.0</ele>
        <time>2021-02-13T10:45:25Z</time>
      </trkpt>
      <trkpt lat="38.919308" lon="-5.8112116">
        <ele>349.0</ele>
        <time>2021-02-13T10:45:26Z</time>
      </trkpt>
      <trkpt lat="38.919315" lon="-5.811138">
        <ele>349.0</ele>
        <time>2021-02-13T10:45:27Z</time>
      </trkpt>
      <trkpt lat="38.919323" lon="-5.811069">
        <ele>348.0</ele>
        <time>2021-02-13T10:45:28Z</time>
      </trkpt>
      <trkpt lat="38.91933" lon="-5.8109984">
        <ele>348.0</ele>
        <time>2021-02-13T10:45:29Z</time>
      </trkpt>
      <trkpt lat="38.91934" lon="-5.810928">
        <ele>348.0</ele>
        <time>2021-02-13T10:45:30Z</time>
      </trkpt>
      <trkpt lat="38.919346" lon="-5.8108563">
        <ele>348.0</ele>
        <time>2021-02-13T10:45:31Z</time>
      </trkpt>
      <trkpt lat="38.919353" lon="-5.810779">
        <ele>348.0</ele>
        <time>2021-02-13T10:45:32Z</time>
      </trkpt>
      <trkpt lat="38.91936" lon="-5.810704">
        <ele>348.0</ele>
        <time>2021-02-13T10:45:33Z</time>
      </trkpt>
      <trkpt lat="38.91937" lon="-5.810635">
        <ele>348.0</ele>
        <time>2021-02-13T10:45:34Z</time>
      </trkpt>
      <trkpt lat="38.919376" lon="-5.8105593">
        <ele>348.0</ele>
        <time>2021-02-13T10:45:35Z</time>
      </trkpt>
      <trkpt lat="38.919388" lon="-5.810485">
        <ele>347.0</ele>
        <time>2021-02-13T10:45:36Z</time>
      </trkpt>
      <trkpt lat="38.9194" lon="-5.8104115">
        <ele>347.0</ele>
        <time>2021-02-13T10:45:37Z</time>
      </trkpt>
      <trkpt lat="38.919407" lon="-5.810337">
        <ele>347.0</ele>
        <time>2021-02-13T10:45:38Z</time>
      </trkpt>
      <trkpt lat="38.919415" lon="-5.810263">
        <ele>347.0</ele>
        <time>2021-02-13T10:45:39Z</time>
      </trkpt>
      <trkpt lat="38.919422" lon="-5.8101883">
        <ele>347.0</ele>
        <time>2021-02-13T10:45:40Z</time>
      </trkpt>
      <trkpt lat="38.91943" lon="-5.8101172">
        <ele>346.0</ele>
        <time>2021-02-13T10:45:41Z</time>
      </trkpt>
      <trkpt lat="38.91944" lon="-5.810041">
        <ele>346.0</ele>
        <time>2021-02-13T10:45:42Z</time>
      </trkpt>
      <trkpt lat="38.91945" lon="-5.8099685">
        <ele>346.0</ele>
        <time>2021-02-13T10:45:43Z</time>
      </trkpt>
      <trkpt lat="38.919456" lon="-5.8098893">
        <ele>346.0</ele>
        <time>2021-02-13T10:45:44Z</time>
      </trkpt>
      <trkpt lat="38.919468" lon="-5.8098087">
        <ele>345.0</ele>
        <time>2021-02-13T10:45:45Z</time>
      </trkpt>
      <trkpt lat="38.91948" lon="-5.809728">
        <ele>345.0</ele>
        <time>2021-02-13T10:45:46Z</time>
      </trkpt>
      <trkpt lat="38.919487" lon="-5.8096466">
        <ele>345.0</ele>
        <time>2021-02-13T10:45:47Z</time>
      </trkpt>
      <trkpt lat="38.9195" lon="-5.8095655">
        <ele>344.0</ele>
        <time>2021-02-13T10:45:48Z</time>
      </trkpt>
      <trkpt lat="38.91951" lon="-5.8094816">
        <ele>344.0</ele>
        <time>2021-02-13T10:45:49Z</time>
      </trkpt>
      <trkpt lat="38.91952" lon="-5.8093963">
        <ele>344.0</ele>
        <time>2021-02-13T10:45:50Z</time>
      </trkpt>
      <trkpt lat="38.919533" lon="-5.8093114">
        <ele>343.0</ele>
        <time>2021-02-13T10:45:51Z</time>
      </trkpt>
      <trkpt lat="38.919544" lon="-5.809224">
        <ele>343.0</ele>
        <time>2021-02-13T10:45:52Z</time>
      </trkpt>
      <trkpt lat="38.919556" lon="-5.8091354">
        <ele>342.0</ele>
        <time>2021-02-13T10:45:53Z</time>
      </trkpt>
      <trkpt lat="38.919563" lon="-5.809047">
        <ele>342.0</ele>
        <time>2021-02-13T10:45:54Z</time>
      </trkpt>
      <trkpt lat="38.91957" lon="-5.808962">
        <ele>341.0</ele>
        <time>2021-02-13T10:45:55Z</time>
      </trkpt>
      <trkpt lat="38.919582" lon="-5.808867">
        <ele>341.0</ele>
        <time>2021-02-13T10:45:56Z</time>
      </trkpt>
      <trkpt lat="38.919594" lon="-5.808771">
        <ele>340.0</ele>
        <time>2021-02-13T10:45:57Z</time>
      </trkpt>
      <trkpt lat="38.919605" lon="-5.8086743">
        <ele>340.0</ele>
        <time>2021-02-13T10:45:58Z</time>
      </trkpt>
      <trkpt lat="38.919617" lon="-5.808584">
        <ele>339.0</ele>
        <time>2021-02-13T10:45:59Z</time>
      </trkpt>
      <trkpt lat="38.91963" lon="-5.8084917">
        <ele>339.0</ele>
        <time>2021-02-13T10:46:00Z</time>
      </trkpt>
      <trkpt lat="38.919636" lon="-5.808389">
        <ele>338.0</ele>
        <time>2021-02-13T10:46:01Z</time>
      </trkpt>
      <trkpt lat="38.919647" lon="-5.8082933">
        <ele>338.0</ele>
        <time>2021-02-13T10:46:02Z</time>
      </trkpt>
      <trkpt lat="38.919655" lon="-5.808193">
        <ele>337.0</ele>
        <time>2021-02-13T10:46:03Z</time>
      </trkpt>
      <trkpt lat="38.919666" lon="-5.8080897">
        <ele>337.0</ele>
        <time>2021-02-13T10:46:04Z</time>
      </trkpt>
      <trkpt lat="38.919674" lon="-5.807985">
        <ele>336.0</ele>
        <time>2021-02-13T10:46:05Z</time>
      </trkpt>
      <trkpt lat="38.91968" lon="-5.8078804">
        <ele>336.0</ele>
        <time>2021-02-13T10:46:06Z</time>
      </trkpt>
      <trkpt lat="38.919697" lon="-5.8077664">
        <ele>334.0</ele>
        <time>2021-02-13T10:46:07Z</time>
      </trkpt>
      <trkpt lat="38.919704" lon="-5.8076525">
        <ele>334.0</ele>
        <time>2021-02-13T10:46:08Z</time>
      </trkpt>
      <trkpt lat="38.919716" lon="-5.807538">
        <ele>333.0</ele>
        <time>2021-02-13T10:46:09Z</time>
      </trkpt>
      <trkpt lat="38.919727" lon="-5.8074226">
        <ele>333.0</ele>
        <time>2021-02-13T10:46:10Z</time>
      </trkpt>
      <trkpt lat="38.919743" lon="-5.8073077">
        <ele>332.0</ele>
        <time>2021-02-13T10:46:11Z</time>
      </trkpt>
      <trkpt lat="38.919754" lon="-5.807192">
        <ele>332.0</ele>
        <time>2021-02-13T10:46:12Z</time>
      </trkpt>
      <trkpt lat="38.919765" lon="-5.8070803">
        <ele>331.0</ele>
        <time>2021-02-13T10:46:13Z</time>
      </trkpt>
      <trkpt lat="38.919777" lon="-5.80696">
        <ele>331.0</ele>
        <time>2021-02-13T10:46:14Z</time>
      </trkpt>
      <trkpt lat="38.919792" lon="-5.806841">
        <ele>331.0</ele>
        <time>2021-02-13T10:46:15Z</time>
      </trkpt>
      <trkpt lat="38.919807" lon="-5.806726">
        <ele>330.0</ele>
        <time>2021-02-13T10:46:16Z</time>
      </trkpt>
      <trkpt lat="38.919823" lon="-5.8066125">
        <ele>330.0</ele>
        <time>2021-02-13T10:46:17Z</time>
      </trkpt>
      <trkpt lat="38.919838" lon="-5.806501">
        <ele>329.0</ele>
        <time>2021-02-13T10:46:18Z</time>
      </trkpt>
      <trkpt lat="38.91986" lon="-5.8063936">
        <ele>329.0</ele>
        <time>2021-02-13T10:46:19Z</time>
      </trkpt>
      <trkpt lat="38.91988" lon="-5.806287">
        <ele>328.0</ele>
        <time>2021-02-13T10:46:20Z</time>
      </trkpt>
      <trkpt lat="38.919907" lon="-5.806183">
        <ele>328.0</ele>
        <time>2021-02-13T10:46:21Z</time>
      </trkpt>
      <trkpt lat="38.919937" lon="-5.806079">
        <ele>327.0</ele>
        <time>2021-02-13T10:46:22Z</time>
      </trkpt>
      <trkpt lat="38.919964" lon="-5.8059807">
        <ele>327.0</ele>
        <time>2021-02-13T10:46:23Z</time>
      </trkpt>
      <trkpt lat="38.91999" lon="-5.8058796">
        <ele>326.0</ele>
        <time>2021-02-13T10:46:24Z</time>
      </trkpt>
      <trkpt lat="38.920025" lon="-5.8057666">
        <ele>326.0</ele>
        <time>2021-02-13T10:46:25Z</time>
      </trkpt>
      <trkpt lat="38.92005" lon="-5.805653">
        <ele>325.0</ele>
        <time>2021-02-13T10:46:26Z</time>
      </trkpt>
      <trkpt lat="38.920074" lon="-5.8055406">
        <ele>325.0</ele>
        <time>2021-02-13T10:46:27Z</time>
      </trkpt>
      <trkpt lat="38.920094" lon="-5.80543">
        <ele>324.0</ele>
        <time>2021-02-13T10:46:28Z</time>
      </trkpt>
      <trkpt lat="38.92011" lon="-5.8053226">
        <ele>324.0</ele>
        <time>2021-02-13T10:46:29Z</time>
      </trkpt>
      <trkpt lat="38.920105" lon="-5.8052216">
        <ele>323.0</ele>
        <time>2021-02-13T10:46:30Z</time>
      </trkpt>
      <trkpt lat="38.920097" lon="-5.805128">
        <ele>323.0</ele>
        <time>2021-02-13T10:46:31Z</time>
      </trkpt>
      <trkpt lat="38.920086" lon="-5.80504">
        <ele>322.0</ele>
        <time>2021-02-13T10:46:32Z</time>
      </trkpt>
      <trkpt lat="38.92007" lon="-5.804956">
        <ele>322.0</ele>
        <time>2021-02-13T10:46:33Z</time>
      </trkpt>
      <trkpt lat="38.920063" lon="-5.8048773">
        <ele>321.0</ele>
        <time>2021-02-13T10:46:34Z</time>
      </trkpt>
      <trkpt lat="38.920055" lon="-5.8047895">
        <ele>321.0</ele>
        <time>2021-02-13T10:46:35Z</time>
      </trkpt>
      <trkpt lat="38.92005" lon="-5.804706">
        <ele>320.0</ele>
        <time>2021-02-13T10:46:36Z</time>
      </trkpt>
      <trkpt lat="38.920048" lon="-5.8046193">
        <ele>320.0</ele>
        <time>2021-02-13T10:46:37Z</time>
      </trkpt>
      <trkpt lat="38.92004" lon="-5.804531">
        <ele>319.0</ele>
        <time>2021-02-13T10:46:38Z</time>
      </trkpt>
      <trkpt lat="38.920033" lon="-5.8044415">
        <ele>319.0</ele>
        <time>2021-02-13T10:46:39Z</time>
      </trkpt>
      <trkpt lat="38.920025" lon="-5.8043528">
        <ele>319.0</ele>
        <time>2021-02-13T10:46:40Z</time>
      </trkpt>
      <trkpt lat="38.920017" lon="-5.804267">
        <ele>319.0</ele>
        <time>2021-02-13T10:46:41Z</time>
      </trkpt>
      <trkpt lat="38.92001" lon="-5.8041906">
        <ele>318.0</ele>
        <time>2021-02-13T10:46:42Z</time>
      </trkpt>
      <trkpt lat="38.920006" lon="-5.804121">
        <ele>318.0</ele>
        <time>2021-02-13T10:46:43Z</time>
      </trkpt>
      <trkpt lat="38.919994" lon="-5.804055">
        <ele>318.0</ele>
        <time>2021-02-13T10:46:44Z</time>
      </trkpt>
      <trkpt lat="38.919983" lon="-5.803987">
        <ele>318.0</ele>
        <time>2021-02-13T10:46:45Z</time>
      </trkpt>
      <trkpt lat="38.919975" lon="-5.803925">
        <ele>318.0</ele>
        <time>2021-02-13T10:46:46Z</time>
      </trkpt>
      <trkpt lat="38.919968" lon="-5.8038635">
        <ele>318.0</ele>
        <time>2021-02-13T10:46:47Z</time>
      </trkpt>
      <trkpt lat="38.91996" lon="-5.8038015">
        <ele>318.0</ele>
        <time>2021-02-13T10:46:48Z</time>
      </trkpt>
      <trkpt lat="38.919952" lon="-5.803738">
        <ele>318.0</ele>
        <time>2021-02-13T10:46:49Z</time>
      </trkpt>
      <trkpt lat="38.91994" lon="-5.803671">
        <ele>318.0</ele>
        <time>2021-02-13T10:46:50Z</time>
      </trkpt>
      <trkpt lat="38.919937" lon="-5.8036036">
        <ele>318.0</ele>
        <time>2021-02-13T10:46:51Z</time>
      </trkpt>
      <trkpt lat="38.91993" lon="-5.803541">
        <ele>318.0</ele>
        <time>2021-02-13T10:46:52Z</time>
      </trkpt>
      <trkpt lat="38.91993" lon="-5.803476">
        <ele>318.0</ele>
        <time>2021-02-13T10:46:53Z</time>
      </trkpt>
      <trkpt lat="38.91992" lon="-5.803411">
        <ele>318.0</ele>
        <time>2021-02-13T10:46:54Z</time>
      </trkpt>
      <trkpt lat="38.91992" lon="-5.803346">
        <ele>318.0</ele>
        <time>2021-02-13T10:46:55Z</time>
      </trkpt>
      <trkpt lat="38.919918" lon="-5.8032775">
        <ele>318.0</ele>
        <time>2021-02-13T10:46:56Z</time>
      </trkpt>
      <trkpt lat="38.91991" lon="-5.803209">
        <ele>318.0</ele>
        <time>2021-02-13T10:46:57Z</time>
      </trkpt>
      <trkpt lat="38.919907" lon="-5.803138">
        <ele>318.0</ele>
        <time>2021-02-13T10:46:58Z</time>
      </trkpt>
      <trkpt lat="38.9199" lon="-5.8030663">
        <ele>318.0</ele>
        <time>2021-02-13T10:46:59Z</time>
      </trkpt>
      <trkpt lat="38.91989" lon="-5.8029933">
        <ele>318.0</ele>
        <time>2021-02-13T10:47:00Z</time>
      </trkpt>
      <trkpt lat="38.91989" lon="-5.802921">
        <ele>317.0</ele>
        <time>2021-02-13T10:47:01Z</time>
      </trkpt>
      <trkpt lat="38.91989" lon="-5.8028545">
        <ele>317.0</ele>
        <time>2021-02-13T10:47:02Z</time>
      </trkpt>
      <trkpt lat="38.91989" lon="-5.802793">
        <ele>317.0</ele>
        <time>2021-02-13T10:47:03Z</time>
      </trkpt>
      <trkpt lat="38.919888" lon="-5.8027396">
        <ele>316.0</ele>
        <time>2021-02-13T10:47:04Z</time>
      </trkpt>
      <trkpt lat="38.919876" lon="-5.802697">
        <ele>316.0</ele>
        <time>2021-02-13T10:47:05Z</time>
      </trkpt>
      <trkpt lat="38.91986" lon="-5.802664">
        <ele>316.0</ele>
        <time>2021-02-13T10:47:06Z</time>
      </trkpt>
      <trkpt lat="38.919838" lon="-5.8026385">
        <ele>316.0</ele>
        <time>2021-02-13T10:47:07Z</time>
      </trkpt>
      <trkpt lat="38.919807" lon="-5.80262">
        <ele>316.0</ele>
        <time>2021-02-13T10:47:08Z</time>
      </trkpt>
      <trkpt lat="38.91978" lon="-5.8026056">
        <ele>316.0</ele>
        <time>2021-02-13T10:47:09Z</time>
      </trkpt>
      <trkpt lat="38.919758" lon="-5.8025913">
        <ele>316.0</ele>
        <time>2021-02-13T10:47:10Z</time>
      </trkpt>
      <trkpt lat="38.919727" lon="-5.8025804">
        <ele>316.0</ele>
        <time>2021-02-13T10:47:11Z</time>
      </trkpt>
      <trkpt lat="38.919704" lon="-5.8025723">
        <ele>317.0</ele>
        <time>2021-02-13T10:47:12Z</time>
      </trkpt>
      <trkpt lat="38.91968" lon="-5.802563">
        <ele>317.0</ele>
        <time>2021-02-13T10:47:13Z</time>
      </trkpt>
      <trkpt lat="38.91966" lon="-5.8025575">
        <ele>317.0</ele>
        <time>2021-02-13T10:47:14Z</time>
      </trkpt>
      <trkpt lat="38.919636" lon="-5.8025517">
        <ele>317.0</ele>
        <time>2021-02-13T10:47:15Z</time>
      </trkpt>
      <trkpt lat="38.919617" lon="-5.802549">
        <ele>318.0</ele>
        <time>2021-02-13T10:47:16Z</time>
      </trkpt>
      <trkpt lat="38.919598" lon="-5.8025427">
        <ele>318.0</ele>
        <time>2021-02-13T10:47:17Z</time>
      </trkpt>
      <trkpt lat="38.91958" lon="-5.8025317">
        <ele>318.0</ele>
        <time>2021-02-13T10:47:18Z</time>
      </trkpt>
      <trkpt lat="38.919563" lon="-5.8025093">
        <ele>318.0</ele>
        <time>2021-02-13T10:47:19Z</time>
      </trkpt>
      <trkpt lat="38.919548" lon="-5.802477">
        <ele>318.0</ele>
        <time>2021-02-13T10:47:20Z</time>
      </trkpt>
      <trkpt lat="38.91954" lon="-5.8024364">
        <ele>318.0</ele>
        <time>2021-02-13T10:47:21Z</time>
      </trkpt>
      <trkpt lat="38.919533" lon="-5.8023887">
        <ele>318.0</ele>
        <time>2021-02-13T10:47:22Z</time>
      </trkpt>
      <trkpt lat="38.91953" lon="-5.8023353">
        <ele>317.0</ele>
        <time>2021-02-13T10:47:23Z</time>
      </trkpt>
      <trkpt lat="38.919525" lon="-5.802281">
        <ele>317.0</ele>
        <time>2021-02-13T10:47:24Z</time>
      </trkpt>
      <trkpt lat="38.919525" lon="-5.802229">
        <ele>317.0</ele>
        <time>2021-02-13T10:47:25Z</time>
      </trkpt>
      <trkpt lat="38.919525" lon="-5.8021817">
        <ele>316.0</ele>
        <time>2021-02-13T10:47:26Z</time>
      </trkpt>
      <trkpt lat="38.919525" lon="-5.802137">
        <ele>316.0</ele>
        <time>2021-02-13T10:47:27Z</time>
      </trkpt>
      <trkpt lat="38.91953" lon="-5.8020883">
        <ele>316.0</ele>
        <time>2021-02-13T10:47:28Z</time>
      </trkpt>
      <trkpt lat="38.91954" lon="-5.8020434">
        <ele>315.0</ele>
        <time>2021-02-13T10:47:29Z</time>
      </trkpt>
      <trkpt lat="38.919556" lon="-5.8019934">
        <ele>315.0</ele>
        <time>2021-02-13T10:47:30Z</time>
      </trkpt>
      <trkpt lat="38.91957" lon="-5.801943">
        <ele>315.0</ele>
        <time>2021-02-13T10:47:31Z</time>
      </trkpt>
      <trkpt lat="38.919586" lon="-5.8018975">
        <ele>314.0</ele>
        <time>2021-02-13T10:47:32Z</time>
      </trkpt>
      <trkpt lat="38.9196" lon="-5.801854">
        <ele>314.0</ele>
        <time>2021-02-13T10:47:33Z</time>
      </trkpt>
      <trkpt lat="38.919617" lon="-5.8018146">
        <ele>314.0</ele>
        <time>2021-02-13T10:47:34Z</time>
      </trkpt>
      <trkpt lat="38.919632" lon="-5.801776">
        <ele>314.0</ele>
        <time>2021-02-13T10:47:35Z</time>
      </trkpt>
      <trkpt lat="38.91965" lon="-5.8017383">
        <ele>314.0</ele>
        <time>2021-02-13T10:47:36Z</time>
      </trkpt>
      <trkpt lat="38.919678" lon="-5.8016987">
        <ele>314.0</ele>
        <time>2021-02-13T10:47:37Z</time>
      </trkpt>
      <trkpt lat="38.9197" lon="-5.801656">
        <ele>313.0</ele>
        <time>2021-02-13T10:47:38Z</time>
      </trkpt>
      <trkpt lat="38.919724" lon="-5.8016076">
        <ele>313.0</ele>
        <time>2021-02-13T10:47:39Z</time>
      </trkpt>
      <trkpt lat="38.919746" lon="-5.8015556">
        <ele>313.0</ele>
        <time>2021-02-13T10:47:40Z</time>
      </trkpt>
      <trkpt lat="38.91976" lon="-5.8014975">
        <ele>313.0</ele>
        <time>2021-02-13T10:47:41Z</time>
      </trkpt>
      <trkpt lat="38.91978" lon="-5.8014355">
        <ele>313.0</ele>
        <time>2021-02-13T10:47:42Z</time>
      </trkpt>
      <trkpt lat="38.9198" lon="-5.801371">
        <ele>313.0</ele>
        <time>2021-02-13T10:47:43Z</time>
      </trkpt>
      <trkpt lat="38.919815" lon="-5.8013086">
        <ele>313.0</ele>
        <time>2021-02-13T10:47:44Z</time>
      </trkpt>
      <trkpt lat="38.91983" lon="-5.801248">
        <ele>313.0</ele>
        <time>2021-02-13T10:47:45Z</time>
      </trkpt>
      <trkpt lat="38.919846" lon="-5.8011904">
        <ele>313.0</ele>
        <time>2021-02-13T10:47:46Z</time>
      </trkpt>
      <trkpt lat="38.919853" lon="-5.801134">
        <ele>313.0</ele>
        <time>2021-02-13T10:47:47Z</time>
      </trkpt>
      <trkpt lat="38.91986" lon="-5.80108">
        <ele>314.0</ele>
        <time>2021-02-13T10:47:48Z</time>
      </trkpt>
      <trkpt lat="38.91987" lon="-5.801033">
        <ele>314.0</ele>
        <time>2021-02-13T10:47:49Z</time>
      </trkpt>
      <trkpt lat="38.919876" lon="-5.8009925">
        <ele>314.0</ele>
        <time>2021-02-13T10:47:50Z</time>
      </trkpt>
      <trkpt lat="38.919876" lon="-5.8009567">
        <ele>314.0</ele>
        <time>2021-02-13T10:47:50Z</time>
      </trkpt>
      <trkpt lat="38.919876" lon="-5.800919">
        <ele>314.0</ele>
        <time>2021-02-13T10:47:51Z</time>
      </trkpt>
      <trkpt lat="38.919872" lon="-5.8008804">
        <ele>314.0</ele>
        <time>2021-02-13T10:47:52Z</time>
      </trkpt>
      <trkpt lat="38.919876" lon="-5.800837">
        <ele>314.0</ele>
        <time>2021-02-13T10:47:53Z</time>
      </trkpt>
      <trkpt lat="38.919884" lon="-5.8007913">
        <ele>314.0</ele>
        <time>2021-02-13T10:47:54Z</time>
      </trkpt>
      <trkpt lat="38.9199" lon="-5.800741">
        <ele>315.0</ele>
        <time>2021-02-13T10:47:55Z</time>
      </trkpt>
      <trkpt lat="38.91991" lon="-5.8006907">
        <ele>315.0</ele>
        <time>2021-02-13T10:47:56Z</time>
      </trkpt>
      <trkpt lat="38.91993" lon="-5.800638">
        <ele>315.0</ele>
        <time>2021-02-13T10:47:57Z</time>
      </trkpt>
      <trkpt lat="38.919945" lon="-5.800584">
        <ele>315.0</ele>
        <time>2021-02-13T10:47:58Z</time>
      </trkpt>
      <trkpt lat="38.919964" lon="-5.8005285">
        <ele>316.0</ele>
        <time>2021-02-13T10:47:59Z</time>
      </trkpt>
      <trkpt lat="38.919983" lon="-5.8004727">
        <ele>316.0</ele>
        <time>2021-02-13T10:48:00Z</time>
      </trkpt>
      <trkpt lat="38.92" lon="-5.8004165">
        <ele>316.0</ele>
        <time>2021-02-13T10:48:01Z</time>
      </trkpt>
      <trkpt lat="38.92002" lon="-5.80036">
        <ele>316.0</ele>
        <time>2021-02-13T10:48:02Z</time>
      </trkpt>
      <trkpt lat="38.92004" lon="-5.8003054">
        <ele>316.0</ele>
        <time>2021-02-13T10:48:03Z</time>
      </trkpt>
      <trkpt lat="38.920063" lon="-5.800248">
        <ele>317.0</ele>
        <time>2021-02-13T10:48:04Z</time>
      </trkpt>
      <trkpt lat="38.920086" lon="-5.8001895">
        <ele>317.0</ele>
        <time>2021-02-13T10:48:05Z</time>
      </trkpt>
      <trkpt lat="38.92011" lon="-5.8001285">
        <ele>317.0</ele>
        <time>2021-02-13T10:48:06Z</time>
      </trkpt>
      <trkpt lat="38.920124" lon="-5.8000693">
        <ele>318.0</ele>
        <time>2021-02-13T10:48:07Z</time>
      </trkpt>
      <trkpt lat="38.920143" lon="-5.800009">
        <ele>318.0</ele>
        <time>2021-02-13T10:48:08Z</time>
      </trkpt>
      <trkpt lat="38.920155" lon="-5.7999463">
        <ele>318.0</ele>
        <time>2021-02-13T10:48:09Z</time>
      </trkpt>
      <trkpt lat="38.920166" lon="-5.7998834">
        <ele>319.0</ele>
        <time>2021-02-13T10:48:10Z</time>
      </trkpt>
      <trkpt lat="38.92017" lon="-5.79982">
        <ele>319.0</ele>
        <time>2021-02-13T10:48:11Z</time>
      </trkpt>
      <trkpt lat="38.920177" lon="-5.7997575">
        <ele>319.0</ele>
        <time>2021-02-13T10:48:12Z</time>
      </trkpt>
      <trkpt lat="38.92018" lon="-5.799694">
        <ele>319.0</ele>
        <time>2021-02-13T10:48:13Z</time>
      </trkpt>
      <trkpt lat="38.92018" lon="-5.799632">
        <ele>320.0</ele>
        <time>2021-02-13T10:48:14Z</time>
      </trkpt>
      <trkpt lat="38.920185" lon="-5.79957">
        <ele>320.0</ele>
        <time>2021-02-13T10:48:15Z</time>
      </trkpt>
      <trkpt lat="38.920185" lon="-5.799514">
        <ele>320.0</ele>
        <time>2021-02-13T10:48:16Z</time>
      </trkpt>
      <trkpt lat="38.920185" lon="-5.799458">
        <ele>320.0</ele>
        <time>2021-02-13T10:48:17Z</time>
      </trkpt>
      <trkpt lat="38.92019" lon="-5.7994027">
        <ele>321.0</ele>
        <time>2021-02-13T10:48:18Z</time>
      </trkpt>
      <trkpt lat="38.920193" lon="-5.799348">
        <ele>321.0</ele>
        <time>2021-02-13T10:48:19Z</time>
      </trkpt>
      <trkpt lat="38.920193" lon="-5.7992935">
        <ele>321.0</ele>
        <time>2021-02-13T10:48:20Z</time>
      </trkpt>
      <trkpt lat="38.920197" lon="-5.799239">
        <ele>321.0</ele>
        <time>2021-02-13T10:48:21Z</time>
      </trkpt>
      <trkpt lat="38.9202" lon="-5.799185">
        <ele>321.0</ele>
        <time>2021-02-13T10:48:22Z</time>
      </trkpt>
      <trkpt lat="38.920204" lon="-5.799131">
        <ele>321.0</ele>
        <time>2021-02-13T10:48:23Z</time>
      </trkpt>
      <trkpt lat="38.92021" lon="-5.799077">
        <ele>321.0</ele>
        <time>2021-02-13T10:48:24Z</time>
      </trkpt>
      <trkpt lat="38.920216" lon="-5.7990203">
        <ele>321.0</ele>
        <time>2021-02-13T10:48:25Z</time>
      </trkpt>
      <trkpt lat="38.92022" lon="-5.7989697">
        <ele>321.0</ele>
        <time>2021-02-13T10:48:26Z</time>
      </trkpt>
      <trkpt lat="38.920227" lon="-5.79892">
        <ele>321.0</ele>
        <time>2021-02-13T10:48:27Z</time>
      </trkpt>
      <trkpt lat="38.92023" lon="-5.7988734">
        <ele>321.0</ele>
        <time>2021-02-13T10:48:28Z</time>
      </trkpt>
      <trkpt lat="38.920235" lon="-5.7988305">
        <ele>321.0</ele>
        <time>2021-02-13T10:48:29Z</time>
      </trkpt>
      <trkpt lat="38.920235" lon="-5.7987885">
        <ele>322.0</ele>
        <time>2021-02-13T10:48:30Z</time>
      </trkpt>
      <trkpt lat="38.92024" lon="-5.7987533">
        <ele>322.0</ele>
        <time>2021-02-13T10:48:31Z</time>
      </trkpt>
      <trkpt lat="38.920242" lon="-5.7987247">
        <ele>322.0</ele>
        <time>2021-02-13T10:48:32Z</time>
      </trkpt>
      <trkpt lat="38.92025" lon="-5.798703">
        <ele>322.0</ele>
        <time>2021-02-13T10:48:33Z</time>
      </trkpt>
      <trkpt lat="38.92026" lon="-5.7986884">
        <ele>322.0</ele>
        <time>2021-02-13T10:48:34Z</time>
      </trkpt>
      <trkpt lat="38.920277" lon="-5.7986784">
        <ele>322.0</ele>
        <time>2021-02-13T10:48:35Z</time>
      </trkpt>
      <trkpt lat="38.920288" lon="-5.7986712">
        <ele>322.0</ele>
        <time>2021-02-13T10:48:36Z</time>
      </trkpt>
      <trkpt lat="38.920303" lon="-5.7986617">
        <ele>322.0</ele>
        <time>2021-02-13T10:48:37Z</time>
      </trkpt>
      <trkpt lat="38.920326" lon="-5.798654">
        <ele>322.0</ele>
        <time>2021-02-13T10:48:38Z</time>
      </trkpt>
      <trkpt lat="38.92035" lon="-5.7986503">
        <ele>322.0</ele>
        <time>2021-02-13T10:48:39Z</time>
      </trkpt>
      <trkpt lat="38.920376" lon="-5.7986503">
        <ele>322.0</ele>
        <time>2021-02-13T10:48:40Z</time>
      </trkpt>
      <trkpt lat="38.920406" lon="-5.7986536">
        <ele>322.0</ele>
        <time>2021-02-13T10:48:41Z</time>
      </trkpt>
      <trkpt lat="38.920433" lon="-5.7986593">
        <ele>322.0</ele>
        <time>2021-02-13T10:48:42Z</time>
      </trkpt>
      <trkpt lat="38.920464" lon="-5.7986684">
        <ele>322.0</ele>
        <time>2021-02-13T10:48:43Z</time>
      </trkpt>
      <trkpt lat="38.920494" lon="-5.798677">
        <ele>322.0</ele>
        <time>2021-02-13T10:48:44Z</time>
      </trkpt>
      <trkpt lat="38.92052" lon="-5.7986875">
        <ele>322.0</ele>
        <time>2021-02-13T10:48:45Z</time>
      </trkpt>
      <trkpt lat="38.92055" lon="-5.798699">
        <ele>322.0</ele>
        <time>2021-02-13T10:48:46Z</time>
      </trkpt>
      <trkpt lat="38.92058" lon="-5.7987103">
        <ele>322.0</ele>
        <time>2021-02-13T10:48:47Z</time>
      </trkpt>
      <trkpt lat="38.920616" lon="-5.798721">
        <ele>323.0</ele>
        <time>2021-02-13T10:48:48Z</time>
      </trkpt>
      <trkpt lat="38.920643" lon="-5.7987256">
        <ele>323.0</ele>
        <time>2021-02-13T10:48:49Z</time>
      </trkpt>
      <trkpt lat="38.920666" lon="-5.7987266">
        <ele>323.0</ele>
        <time>2021-02-13T10:48:50Z</time>
      </trkpt>
      <trkpt lat="38.920685" lon="-5.7987237">
        <ele>323.0</ele>
        <time>2021-02-13T10:48:51Z</time>
      </trkpt>
      <trkpt lat="38.920696" lon="-5.798719">
        <ele>324.0</ele>
        <time>2021-02-13T10:48:52Z</time>
      </trkpt>
      <trkpt lat="38.920708" lon="-5.7987084">
        <ele>324.0</ele>
        <time>2021-02-13T10:48:53Z</time>
      </trkpt>
      <trkpt lat="38.92071" lon="-5.798693">
        <ele>324.0</ele>
        <time>2021-02-13T10:48:54Z</time>
      </trkpt>
      <trkpt lat="38.920715" lon="-5.7986727">
        <ele>324.0</ele>
        <time>2021-02-13T10:48:55Z</time>
      </trkpt>
      <trkpt lat="38.920723" lon="-5.798652">
        <ele>324.0</ele>
        <time>2021-02-13T10:48:56Z</time>
      </trkpt>
      <trkpt lat="38.920734" lon="-5.798628">
        <ele>325.0</ele>
        <time>2021-02-13T10:48:57Z</time>
      </trkpt>
      <trkpt lat="38.920746" lon="-5.7985992">
        <ele>325.0</ele>
        <time>2021-02-13T10:48:58Z</time>
      </trkpt>
      <trkpt lat="38.92076" lon="-5.7985663">
        <ele>325.0</ele>
        <time>2021-02-13T10:48:59Z</time>
      </trkpt>
      <trkpt lat="38.92077" lon="-5.7985306">
        <ele>325.0</ele>
        <time>2021-02-13T10:49:00Z</time>
      </trkpt>
      <trkpt lat="38.920773" lon="-5.7984915">
        <ele>325.0</ele>
        <time>2021-02-13T10:49:01Z</time>
      </trkpt>
      <trkpt lat="38.920776" lon="-5.7984524">
        <ele>325.0</ele>
        <time>2021-02-13T10:49:02Z</time>
      </trkpt>
      <trkpt lat="38.920773" lon="-5.7984076">
        <ele>325.0</ele>
        <time>2021-02-13T10:49:03Z</time>
      </trkpt>
      <trkpt lat="38.920765" lon="-5.798353">
        <ele>325.0</ele>
        <time>2021-02-13T10:49:04Z</time>
      </trkpt>
      <trkpt lat="38.92076" lon="-5.7982945">
        <ele>325.0</ele>
        <time>2021-02-13T10:49:05Z</time>
      </trkpt>
      <trkpt lat="38.920753" lon="-5.798231">
        <ele>325.0</ele>
        <time>2021-02-13T10:49:06Z</time>
      </trkpt>
      <trkpt lat="38.920746" lon="-5.79817">
        <ele>325.0</ele>
        <time>2021-02-13T10:49:07Z</time>
      </trkpt>
      <trkpt lat="38.920742" lon="-5.7981005">
        <ele>325.0</ele>
        <time>2021-02-13T10:49:08Z</time>
      </trkpt>
      <trkpt lat="38.92074" lon="-5.798031">
        <ele>325.0</ele>
        <time>2021-02-13T10:49:09Z</time>
      </trkpt>
      <trkpt lat="38.92074" lon="-5.7979636">
        <ele>326.0</ele>
        <time>2021-02-13T10:49:10Z</time>
      </trkpt>
      <trkpt lat="38.92074" lon="-5.797899">
        <ele>326.0</ele>
        <time>2021-02-13T10:49:11Z</time>
      </trkpt>
      <trkpt lat="38.92074" lon="-5.7978363">
        <ele>326.0</ele>
        <time>2021-02-13T10:49:12Z</time>
      </trkpt>
      <trkpt lat="38.920746" lon="-5.797773">
        <ele>326.0</ele>
        <time>2021-02-13T10:49:13Z</time>
      </trkpt>
      <trkpt lat="38.92075" lon="-5.7977076">
        <ele>326.0</ele>
        <time>2021-02-13T10:49:14Z</time>
      </trkpt>
      <trkpt lat="38.920753" lon="-5.7976437">
        <ele>326.0</ele>
        <time>2021-02-13T10:49:15Z</time>
      </trkpt>
      <trkpt lat="38.92076" lon="-5.7975845">
        <ele>326.0</ele>
        <time>2021-02-13T10:49:16Z</time>
      </trkpt>
      <trkpt lat="38.92077" lon="-5.7975283">
        <ele>326.0</ele>
        <time>2021-02-13T10:49:17Z</time>
      </trkpt>
      <trkpt lat="38.920776" lon="-5.7974715">
        <ele>326.0</ele>
        <time>2021-02-13T10:49:18Z</time>
      </trkpt>
      <trkpt lat="38.920784" lon="-5.7974143">
        <ele>326.0</ele>
        <time>2021-02-13T10:49:19Z</time>
      </trkpt>
      <trkpt lat="38.92079" lon="-5.7973585">
        <ele>326.0</ele>
        <time>2021-02-13T10:49:20Z</time>
      </trkpt>
      <trkpt lat="38.920795" lon="-5.797304">
        <ele>326.0</ele>
        <time>2021-02-13T10:49:21Z</time>
      </trkpt>
      <trkpt lat="38.920803" lon="-5.797245">
        <ele>326.0</ele>
        <time>2021-02-13T10:49:22Z</time>
      </trkpt>
      <trkpt lat="38.92081" lon="-5.797188">
        <ele>326.0</ele>
        <time>2021-02-13T10:49:23Z</time>
      </trkpt>
      <trkpt lat="38.92082" lon="-5.797132">
        <ele>326.0</ele>
        <time>2021-02-13T10:49:24Z</time>
      </trkpt>
      <trkpt lat="38.920822" lon="-5.7970757">
        <ele>326.0</ele>
        <time>2021-02-13T10:49:25Z</time>
      </trkpt>
      <trkpt lat="38.920826" lon="-5.7970233">
        <ele>326.0</ele>
        <time>2021-02-13T10:49:26Z</time>
      </trkpt>
      <trkpt lat="38.920834" lon="-5.796965">
        <ele>326.0</ele>
        <time>2021-02-13T10:49:27Z</time>
      </trkpt>
      <trkpt lat="38.920837" lon="-5.7969055">
        <ele>327.0</ele>
        <time>2021-02-13T10:49:28Z</time>
      </trkpt>
      <trkpt lat="38.92084" lon="-5.796846">
        <ele>327.0</ele>
        <time>2021-02-13T10:49:29Z</time>
      </trkpt>
      <trkpt lat="38.920845" lon="-5.796786">
        <ele>327.0</ele>
        <time>2021-02-13T10:49:30Z</time>
      </trkpt>
      <trkpt lat="38.92085" lon="-5.7967296">
        <ele>327.0</ele>
        <time>2021-02-13T10:49:31Z</time>
      </trkpt>
      <trkpt lat="38.920853" lon="-5.79667">
        <ele>327.0</ele>
        <time>2021-02-13T10:49:32Z</time>
      </trkpt>
      <trkpt lat="38.920856" lon="-5.7966113">
        <ele>327.0</ele>
        <time>2021-02-13T10:49:33Z</time>
      </trkpt>
      <trkpt lat="38.92086" lon="-5.796554">
        <ele>327.0</ele>
        <time>2021-02-13T10:49:34Z</time>
      </trkpt>
      <trkpt lat="38.920864" lon="-5.7964993">
        <ele>327.0</ele>
        <time>2021-02-13T10:49:35Z</time>
      </trkpt>
      <trkpt lat="38.92087" lon="-5.7964454">
        <ele>328.0</ele>
        <time>2021-02-13T10:49:36Z</time>
      </trkpt>
      <trkpt lat="38.920876" lon="-5.796393">
        <ele>328.0</ele>
        <time>2021-02-13T10:49:37Z</time>
      </trkpt>
      <trkpt lat="38.920883" lon="-5.796343">
        <ele>328.0</ele>
        <time>2021-02-13T10:49:38Z</time>
      </trkpt>
      <trkpt lat="38.92089" lon="-5.7962923">
        <ele>328.0</ele>
        <time>2021-02-13T10:49:39Z</time>
      </trkpt>
      <trkpt lat="38.920902" lon="-5.7962418">
        <ele>328.0</ele>
        <time>2021-02-13T10:49:40Z</time>
      </trkpt>
      <trkpt lat="38.92091" lon="-5.796192">
        <ele>328.0</ele>
        <time>2021-02-13T10:49:41Z</time>
      </trkpt>
      <trkpt lat="38.920918" lon="-5.7961435">
        <ele>328.0</ele>
        <time>2021-02-13T10:49:42Z</time>
      </trkpt>
      <trkpt lat="38.920925" lon="-5.796097">
        <ele>328.0</ele>
        <time>2021-02-13T10:49:43Z</time>
      </trkpt>
      <trkpt lat="38.920933" lon="-5.796049">
        <ele>329.0</ele>
        <time>2021-02-13T10:49:44Z</time>
      </trkpt>
      <trkpt lat="38.920937" lon="-5.7960014">
        <ele>329.0</ele>
        <time>2021-02-13T10:49:45Z</time>
      </trkpt>
      <trkpt lat="38.920944" lon="-5.795953">
        <ele>329.0</ele>
        <time>2021-02-13T10:49:46Z</time>
      </trkpt>
      <trkpt lat="38.920948" lon="-5.795904">
        <ele>329.0</ele>
        <time>2021-02-13T10:49:47Z</time>
      </trkpt>
      <trkpt lat="38.92095" lon="-5.795856">
        <ele>330.0</ele>
        <time>2021-02-13T10:49:48Z</time>
      </trkpt>
      <trkpt lat="38.920956" lon="-5.795809">
        <ele>330.0</ele>
        <time>2021-02-13T10:49:49Z</time>
      </trkpt>
      <trkpt lat="38.920963" lon="-5.795764">
        <ele>330.0</ele>
        <time>2021-02-13T10:49:50Z</time>
      </trkpt>
      <trkpt lat="38.920967" lon="-5.7957177">
        <ele>330.0</ele>
        <time>2021-02-13T10:49:51Z</time>
      </trkpt>
      <trkpt lat="38.92097" lon="-5.7956705">
        <ele>330.0</ele>
        <time>2021-02-13T10:49:52Z</time>
      </trkpt>
      <trkpt lat="38.920975" lon="-5.795623">
        <ele>331.0</ele>
        <time>2021-02-13T10:49:53Z</time>
      </trkpt>
      <trkpt lat="38.92098" lon="-5.7955775">
        <ele>331.0</ele>
        <time>2021-02-13T10:49:54Z</time>
      </trkpt>
      <trkpt lat="38.920982" lon="-5.7955337">
        <ele>331.0</ele>
        <time>2021-02-13T10:49:55Z</time>
      </trkpt>
      <trkpt lat="38.920986" lon="-5.795493">
        <ele>331.0</ele>
        <time>2021-02-13T10:49:56Z</time>
      </trkpt>
      <trkpt lat="38.92099" lon="-5.7954535">
        <ele>331.0</ele>
        <time>2021-02-13T10:49:57Z</time>
      </trkpt>
      <trkpt lat="38.920994" lon="-5.795413">
        <ele>331.0</ele>
        <time>2021-02-13T10:49:58Z</time>
      </trkpt>
      <trkpt lat="38.920998" lon="-5.795374">
        <ele>332.0</ele>
        <time>2021-02-13T10:49:59Z</time>
      </trkpt>
      <trkpt lat="38.921" lon="-5.7953343">
        <ele>332.0</ele>
        <time>2021-02-13T10:50:00Z</time>
      </trkpt>
      <trkpt lat="38.921005" lon="-5.7952933">
        <ele>332.0</ele>
        <time>2021-02-13T10:50:01Z</time>
      </trkpt>
      <trkpt lat="38.921005" lon="-5.7952514">
        <ele>332.0</ele>
        <time>2021-02-13T10:50:02Z</time>
      </trkpt>
      <trkpt lat="38.921013" lon="-5.7952075">
        <ele>332.0</ele>
        <time>2021-02-13T10:50:03Z</time>
      </trkpt>
      <trkpt lat="38.92102" lon="-5.795162">
        <ele>332.0</ele>
        <time>2021-02-13T10:50:04Z</time>
      </trkpt>
      <trkpt lat="38.92103" lon="-5.7951136">
        <ele>332.0</ele>
        <time>2021-02-13T10:50:05Z</time>
      </trkpt>
      <trkpt lat="38.921032" lon="-5.7950635">
        <ele>332.0</ele>
        <time>2021-02-13T10:50:06Z</time>
      </trkpt>
      <trkpt lat="38.921036" lon="-5.7950125">
        <ele>333.0</ele>
        <time>2021-02-13T10:50:07Z</time>
      </trkpt>
      <trkpt lat="38.92104" lon="-5.7949615">
        <ele>333.0</ele>
        <time>2021-02-13T10:50:08Z</time>
      </trkpt>
      <trkpt lat="38.921043" lon="-5.7949114">
        <ele>333.0</ele>
        <time>2021-02-13T10:50:09Z</time>
      </trkpt>
      <trkpt lat="38.921047" lon="-5.7948604">
        <ele>333.0</ele>
        <time>2021-02-13T10:50:10Z</time>
      </trkpt>
      <trkpt lat="38.921047" lon="-5.794811">
        <ele>333.0</ele>
        <time>2021-02-13T10:50:11Z</time>
      </trkpt>
      <trkpt lat="38.92105" lon="-5.794763">
        <ele>333.0</ele>
        <time>2021-02-13T10:50:12Z</time>
      </trkpt>
      <trkpt lat="38.92105" lon="-5.794713">
        <ele>333.0</ele>
        <time>2021-02-13T10:50:13Z</time>
      </trkpt>
      <trkpt lat="38.92105" lon="-5.7946644">
        <ele>334.0</ele>
        <time>2021-02-13T10:50:14Z</time>
      </trkpt>
      <trkpt lat="38.921055" lon="-5.794621">
        <ele>334.0</ele>
        <time>2021-02-13T10:50:15Z</time>
      </trkpt>
      <trkpt lat="38.921055" lon="-5.7945695">
        <ele>334.0</ele>
        <time>2021-02-13T10:50:16Z</time>
      </trkpt>
      <trkpt lat="38.921055" lon="-5.7945166">
        <ele>334.0</ele>
        <time>2021-02-13T10:50:17Z</time>
      </trkpt>
      <trkpt lat="38.921055" lon="-5.794466">
        <ele>334.0</ele>
        <time>2021-02-13T10:50:18Z</time>
      </trkpt>
      <trkpt lat="38.92105" lon="-5.7944193">
        <ele>334.0</ele>
        <time>2021-02-13T10:50:19Z</time>
      </trkpt>
      <trkpt lat="38.92105" lon="-5.7943697">
        <ele>335.0</ele>
        <time>2021-02-13T10:50:20Z</time>
      </trkpt>
      <trkpt lat="38.921047" lon="-5.7943225">
        <ele>335.0</ele>
        <time>2021-02-13T10:50:21Z</time>
      </trkpt>
      <trkpt lat="38.921043" lon="-5.7942786">
        <ele>335.0</ele>
        <time>2021-02-13T10:50:22Z</time>
      </trkpt>
      <trkpt lat="38.921032" lon="-5.7942367">
        <ele>335.0</ele>
        <time>2021-02-13T10:50:23Z</time>
      </trkpt>
      <trkpt lat="38.92102" lon="-5.794199">
        <ele>335.0</ele>
        <time>2021-02-13T10:50:24Z</time>
      </trkpt>
      <trkpt lat="38.921005" lon="-5.7941647">
        <ele>335.0</ele>
        <time>2021-02-13T10:50:25Z</time>
      </trkpt>
      <trkpt lat="38.920982" lon="-5.7941294">
        <ele>335.0</ele>
        <time>2021-02-13T10:50:26Z</time>
      </trkpt>
      <trkpt lat="38.92096" lon="-5.7940974">
        <ele>335.0</ele>
        <time>2021-02-13T10:50:27Z</time>
      </trkpt>
      <trkpt lat="38.920933" lon="-5.794068">
        <ele>335.0</ele>
        <time>2021-02-13T10:50:28Z</time>
      </trkpt>
      <trkpt lat="38.920902" lon="-5.794041">
        <ele>335.0</ele>
        <time>2021-02-13T10:50:29Z</time>
      </trkpt>
      <trkpt lat="38.92087" lon="-5.7940154">
        <ele>335.0</ele>
        <time>2021-02-13T10:50:30Z</time>
      </trkpt>
      <trkpt lat="38.920837" lon="-5.7939906">
        <ele>335.0</ele>
        <time>2021-02-13T10:50:31Z</time>
      </trkpt>
      <trkpt lat="38.920803" lon="-5.7939687">
        <ele>335.0</ele>
        <time>2021-02-13T10:50:32Z</time>
      </trkpt>
      <trkpt lat="38.92077" lon="-5.793948">
        <ele>335.0</ele>
        <time>2021-02-13T10:50:33Z</time>
      </trkpt>
      <trkpt lat="38.92073" lon="-5.793928">
        <ele>335.0</ele>
        <time>2021-02-13T10:50:34Z</time>
      </trkpt>
      <trkpt lat="38.920692" lon="-5.793911">
        <ele>335.0</ele>
        <time>2021-02-13T10:50:35Z</time>
      </trkpt>
      <trkpt lat="38.92065" lon="-5.7938924">
        <ele>335.0</ele>
        <time>2021-02-13T10:50:36Z</time>
      </trkpt>
      <trkpt lat="38.92061" lon="-5.7938733">
        <ele>335.0</ele>
        <time>2021-02-13T10:50:37Z</time>
      </trkpt>
      <trkpt lat="38.92057" lon="-5.7938523">
        <ele>335.0</ele>
        <time>2021-02-13T10:50:38Z</time>
      </trkpt>
      <trkpt lat="38.920536" lon="-5.7938266">
        <ele>335.0</ele>
        <time>2021-02-13T10:50:39Z</time>
      </trkpt>
      <trkpt lat="38.920506" lon="-5.793796">
        <ele>335.0</ele>
        <time>2021-02-13T10:50:40Z</time>
      </trkpt>
      <trkpt lat="38.920483" lon="-5.793763">
        <ele>335.0</ele>
        <time>2021-02-13T10:50:41Z</time>
      </trkpt>
      <trkpt lat="38.920467" lon="-5.7937326">
        <ele>335.0</ele>
        <time>2021-02-13T10:50:42Z</time>
      </trkpt>
      <trkpt lat="38.92046" lon="-5.7937016">
        <ele>335.0</ele>
        <time>2021-02-13T10:50:43Z</time>
      </trkpt>
      <trkpt lat="38.920452" lon="-5.7936716">
        <ele>335.0</ele>
        <time>2021-02-13T10:50:44Z</time>
      </trkpt>
      <trkpt lat="38.920456" lon="-5.79364">
        <ele>335.0</ele>
        <time>2021-02-13T10:50:45Z</time>
      </trkpt>
      <trkpt lat="38.920467" lon="-5.7936096">
        <ele>335.0</ele>
        <time>2021-02-13T10:50:46Z</time>
      </trkpt>
      <trkpt lat="38.920475" lon="-5.793583">
        <ele>335.0</ele>
        <time>2021-02-13T10:50:47Z</time>
      </trkpt>
      <trkpt lat="38.920494" lon="-5.793557">
        <ele>335.0</ele>
        <time>2021-02-13T10:50:48Z</time>
      </trkpt>
      <trkpt lat="38.920517" lon="-5.7935333">
        <ele>335.0</ele>
        <time>2021-02-13T10:50:49Z</time>
      </trkpt>
      <trkpt lat="38.92054" lon="-5.7935147">
        <ele>335.0</ele>
        <time>2021-02-13T10:50:50Z</time>
      </trkpt>
      <trkpt lat="38.920574" lon="-5.7935033">
        <ele>335.0</ele>
        <time>2021-02-13T10:50:51Z</time>
      </trkpt>
      <trkpt lat="38.920612" lon="-5.7935">
        <ele>335.0</ele>
        <time>2021-02-13T10:50:52Z</time>
      </trkpt>
      <trkpt lat="38.920647" lon="-5.793501">
        <ele>335.0</ele>
        <time>2021-02-13T10:50:53Z</time>
      </trkpt>
      <trkpt lat="38.92068" lon="-5.7935033">
        <ele>335.0</ele>
        <time>2021-02-13T10:50:54Z</time>
      </trkpt>
      <trkpt lat="38.920715" lon="-5.79351">
        <ele>335.0</ele>
        <time>2021-02-13T10:50:55Z</time>
      </trkpt>
      <trkpt lat="38.920746" lon="-5.7935176">
        <ele>335.0</ele>
        <time>2021-02-13T10:50:56Z</time>
      </trkpt>
      <trkpt lat="38.920776" lon="-5.7935257">
        <ele>335.0</ele>
        <time>2021-02-13T10:50:57Z</time>
      </trkpt>
      <trkpt lat="38.920807" lon="-5.7935343">
        <ele>335.0</ele>
        <time>2021-02-13T10:50:58Z</time>
      </trkpt>
      <trkpt lat="38.920837" lon="-5.7935424">
        <ele>335.0</ele>
        <time>2021-02-13T10:50:59Z</time>
      </trkpt>
      <trkpt lat="38.92087" lon="-5.7935514">
        <ele>335.0</ele>
        <time>2021-02-13T10:51:00Z</time>
      </trkpt>
      <trkpt lat="38.920902" lon="-5.793561">
        <ele>335.0</ele>
        <time>2021-02-13T10:51:01Z</time>
      </trkpt>
      <trkpt lat="38.920933" lon="-5.793567">
        <ele>335.0</ele>
        <time>2021-02-13T10:51:02Z</time>
      </trkpt>
      <trkpt lat="38.920963" lon="-5.793565">
        <ele>335.0</ele>
        <time>2021-02-13T10:51:03Z</time>
      </trkpt>
      <trkpt lat="38.920994" lon="-5.7935576">
        <ele>335.0</ele>
        <time>2021-02-13T10:51:04Z</time>
      </trkpt>
      <trkpt lat="38.92102" lon="-5.7935424">
        <ele>335.0</ele>
        <time>2021-02-13T10:51:05Z</time>
      </trkpt>
      <trkpt lat="38.921043" lon="-5.79352">
        <ele>335.0</ele>
        <time>2021-02-13T10:51:06Z</time>
      </trkpt>
      <trkpt lat="38.921062" lon="-5.7934885">
        <ele>335.0</ele>
        <time>2021-02-13T10:51:07Z</time>
      </trkpt>
      <trkpt lat="38.921074" lon="-5.7934523">
        <ele>336.0</ele>
        <time>2021-02-13T10:51:08Z</time>
      </trkpt>
      <trkpt lat="38.92108" lon="-5.7934113">
        <ele>336.0</ele>
        <time>2021-02-13T10:51:09Z</time>
      </trkpt>
      <trkpt lat="38.921085" lon="-5.793369">
        <ele>336.0</ele>
        <time>2021-02-13T10:51:10Z</time>
      </trkpt>
      <trkpt lat="38.921085" lon="-5.793325">
        <ele>336.0</ele>
        <time>2021-02-13T10:51:11Z</time>
      </trkpt>
      <trkpt lat="38.92108" lon="-5.793278">
        <ele>336.0</ele>
        <time>2021-02-13T10:51:12Z</time>
      </trkpt>
      <trkpt lat="38.921074" lon="-5.793232">
        <ele>336.0</ele>
        <time>2021-02-13T10:51:13Z</time>
      </trkpt>
      <trkpt lat="38.921066" lon="-5.793185">
        <ele>336.0</ele>
        <time>2021-02-13T10:51:14Z</time>
      </trkpt>
      <trkpt lat="38.921055" lon="-5.793138">
        <ele>336.0</ele>
        <time>2021-02-13T10:51:15Z</time>
      </trkpt>
      <trkpt lat="38.921043" lon="-5.79309">
        <ele>336.0</ele>
        <time>2021-02-13T10:51:16Z</time>
      </trkpt>
      <trkpt lat="38.92103" lon="-5.793041">
        <ele>337.0</ele>
        <time>2021-02-13T10:51:17Z</time>
      </trkpt>
      <trkpt lat="38.92102" lon="-5.7929926">
        <ele>337.0</ele>
        <time>2021-02-13T10:51:18Z</time>
      </trkpt>
      <trkpt lat="38.92101" lon="-5.7929435">
        <ele>337.0</ele>
        <time>2021-02-13T10:51:19Z</time>
      </trkpt>
      <trkpt lat="38.920998" lon="-5.7928953">
        <ele>337.0</ele>
        <time>2021-02-13T10:51:20Z</time>
      </trkpt>
      <trkpt lat="38.92099" lon="-5.792847">
        <ele>337.0</ele>
        <time>2021-02-13T10:51:21Z</time>
      </trkpt>
      <trkpt lat="38.92098" lon="-5.7927995">
        <ele>337.0</ele>
        <time>2021-02-13T10:51:22Z</time>
      </trkpt>
      <trkpt lat="38.92097" lon="-5.792751">
        <ele>337.0</ele>
        <time>2021-02-13T10:51:23Z</time>
      </trkpt>
      <trkpt lat="38.92096" lon="-5.7927027">
        <ele>337.0</ele>
        <time>2021-02-13T10:51:24Z</time>
      </trkpt>
      <trkpt lat="38.92095" lon="-5.7926574">
        <ele>337.0</ele>
        <time>2021-02-13T10:51:25Z</time>
      </trkpt>
      <trkpt lat="38.92094" lon="-5.792608">
        <ele>337.0</ele>
        <time>2021-02-13T10:51:26Z</time>
      </trkpt>
      <trkpt lat="38.920933" lon="-5.792559">
        <ele>337.0</ele>
        <time>2021-02-13T10:51:27Z</time>
      </trkpt>
      <trkpt lat="38.92092" lon="-5.7925105">
        <ele>338.0</ele>
        <time>2021-02-13T10:51:28Z</time>
      </trkpt>
      <trkpt lat="38.92091" lon="-5.792462">
        <ele>338.0</ele>
        <time>2021-02-13T10:51:29Z</time>
      </trkpt>
      <trkpt lat="38.920902" lon="-5.792414">
        <ele>338.0</ele>
        <time>2021-02-13T10:51:30Z</time>
      </trkpt>
      <trkpt lat="38.92089" lon="-5.7923646">
        <ele>338.0</ele>
        <time>2021-02-13T10:51:31Z</time>
      </trkpt>
      <trkpt lat="38.92088" lon="-5.7923155">
        <ele>338.0</ele>
        <time>2021-02-13T10:51:32Z</time>
      </trkpt>
      <trkpt lat="38.92087" lon="-5.792267">
        <ele>338.0</ele>
        <time>2021-02-13T10:51:33Z</time>
      </trkpt>
      <trkpt lat="38.92086" lon="-5.7922187">
        <ele>338.0</ele>
        <time>2021-02-13T10:51:34Z</time>
      </trkpt>
      <trkpt lat="38.92085" lon="-5.7921696">
        <ele>338.0</ele>
        <time>2021-02-13T10:51:35Z</time>
      </trkpt>
      <trkpt lat="38.92084" lon="-5.7921176">
        <ele>338.0</ele>
        <time>2021-02-13T10:51:36Z</time>
      </trkpt>
      <trkpt lat="38.920834" lon="-5.792065">
        <ele>338.0</ele>
        <time>2021-02-13T10:51:37Z</time>
      </trkpt>
      <trkpt lat="38.920826" lon="-5.792012">
        <ele>338.0</ele>
        <time>2021-02-13T10:51:38Z</time>
      </trkpt>
      <trkpt lat="38.920815" lon="-5.791959">
        <ele>338.0</ele>
        <time>2021-02-13T10:51:39Z</time>
      </trkpt>
      <trkpt lat="38.920807" lon="-5.791908">
        <ele>338.0</ele>
        <time>2021-02-13T10:51:40Z</time>
      </trkpt>
      <trkpt lat="38.9208" lon="-5.791854">
        <ele>338.0</ele>
        <time>2021-02-13T10:51:41Z</time>
      </trkpt>
      <trkpt lat="38.92079" lon="-5.7918015">
        <ele>338.0</ele>
        <time>2021-02-13T10:51:42Z</time>
      </trkpt>
      <trkpt lat="38.920788" lon="-5.791748">
        <ele>338.0</ele>
        <time>2021-02-13T10:51:43Z</time>
      </trkpt>
      <trkpt lat="38.920784" lon="-5.7916946">
        <ele>338.0</ele>
        <time>2021-02-13T10:51:44Z</time>
      </trkpt>
      <trkpt lat="38.920776" lon="-5.7916408">
        <ele>338.0</ele>
        <time>2021-02-13T10:51:45Z</time>
      </trkpt>
      <trkpt lat="38.920776" lon="-5.7915845">
        <ele>338.0</ele>
        <time>2021-02-13T10:51:46Z</time>
      </trkpt>
      <trkpt lat="38.920773" lon="-5.791531">
        <ele>338.0</ele>
        <time>2021-02-13T10:51:47Z</time>
      </trkpt>
      <trkpt lat="38.92077" lon="-5.7914743">
        <ele>338.0</ele>
        <time>2021-02-13T10:51:48Z</time>
      </trkpt>
      <trkpt lat="38.920773" lon="-5.791416">
        <ele>338.0</ele>
        <time>2021-02-13T10:51:49Z</time>
      </trkpt>
      <trkpt lat="38.920773" lon="-5.7913527">
        <ele>338.0</ele>
        <time>2021-02-13T10:51:50Z</time>
      </trkpt>
      <trkpt lat="38.920776" lon="-5.7912917">
        <ele>338.0</ele>
        <time>2021-02-13T10:51:51Z</time>
      </trkpt>
      <trkpt lat="38.920776" lon="-5.79123">
        <ele>338.0</ele>
        <time>2021-02-13T10:51:52Z</time>
      </trkpt>
      <trkpt lat="38.920773" lon="-5.791169">
        <ele>338.0</ele>
        <time>2021-02-13T10:51:53Z</time>
      </trkpt>
      <trkpt lat="38.920765" lon="-5.7911077">
        <ele>338.0</ele>
        <time>2021-02-13T10:51:54Z</time>
      </trkpt>
      <trkpt lat="38.920757" lon="-5.7910457">
        <ele>338.0</ele>
        <time>2021-02-13T10:51:55Z</time>
      </trkpt>
      <trkpt lat="38.920746" lon="-5.790984">
        <ele>338.0</ele>
        <time>2021-02-13T10:51:56Z</time>
      </trkpt>
      <trkpt lat="38.92074" lon="-5.7909217">
        <ele>338.0</ele>
        <time>2021-02-13T10:51:57Z</time>
      </trkpt>
      <trkpt lat="38.92073" lon="-5.7908583">
        <ele>338.0</ele>
        <time>2021-02-13T10:51:58Z</time>
      </trkpt>
      <trkpt lat="38.92072" lon="-5.790795">
        <ele>338.0</ele>
        <time>2021-02-13T10:51:59Z</time>
      </trkpt>
      <trkpt lat="38.92071" lon="-5.7907324">
        <ele>338.0</ele>
        <time>2021-02-13T10:52:00Z</time>
      </trkpt>
      <trkpt lat="38.9207" lon="-5.7906694">
        <ele>338.0</ele>
        <time>2021-02-13T10:52:01Z</time>
      </trkpt>
      <trkpt lat="38.920692" lon="-5.7906117">
        <ele>338.0</ele>
        <time>2021-02-13T10:52:02Z</time>
      </trkpt>
      <trkpt lat="38.92068" lon="-5.7905483">
        <ele>338.0</ele>
        <time>2021-02-13T10:52:03Z</time>
      </trkpt>
      <trkpt lat="38.92067" lon="-5.790485">
        <ele>338.0</ele>
        <time>2021-02-13T10:52:04Z</time>
      </trkpt>
      <trkpt lat="38.920662" lon="-5.7904243">
        <ele>338.0</ele>
        <time>2021-02-13T10:52:05Z</time>
      </trkpt>
      <trkpt lat="38.920647" lon="-5.7903633">
        <ele>338.0</ele>
        <time>2021-02-13T10:52:05Z</time>
      </trkpt>
      <trkpt lat="38.92064" lon="-5.790305">
        <ele>338.0</ele>
        <time>2021-02-13T10:52:06Z</time>
      </trkpt>
      <trkpt lat="38.920624" lon="-5.790247">
        <ele>339.0</ele>
        <time>2021-02-13T10:52:07Z</time>
      </trkpt>
      <trkpt lat="38.920616" lon="-5.79019">
        <ele>339.0</ele>
        <time>2021-02-13T10:52:08Z</time>
      </trkpt>
      <trkpt lat="38.920605" lon="-5.790135">
        <ele>339.0</ele>
        <time>2021-02-13T10:52:09Z</time>
      </trkpt>
      <trkpt lat="38.920593" lon="-5.7900805">
        <ele>339.0</ele>
        <time>2021-02-13T10:52:10Z</time>
      </trkpt>
      <trkpt lat="38.92058" lon="-5.7900276">
        <ele>339.0</ele>
        <time>2021-02-13T10:52:11Z</time>
      </trkpt>
      <trkpt lat="38.92057" lon="-5.789975">
        <ele>339.0</ele>
        <time>2021-02-13T10:52:12Z</time>
      </trkpt>
      <trkpt lat="38.92056" lon="-5.7899227">
        <ele>340.0</ele>
        <time>2021-02-13T10:52:13Z</time>
      </trkpt>
      <trkpt lat="38.920547" lon="-5.7898703">
        <ele>340.0</ele>
        <time>2021-02-13T10:52:14Z</time>
      </trkpt>
      <trkpt lat="38.920536" lon="-5.789819">
        <ele>340.0</ele>
        <time>2021-02-13T10:52:15Z</time>
      </trkpt>
      <trkpt lat="38.92052" lon="-5.7897673">
        <ele>340.0</ele>
        <time>2021-02-13T10:52:16Z</time>
      </trkpt>
      <trkpt lat="38.92051" lon="-5.789716">
        <ele>340.0</ele>
        <time>2021-02-13T10:52:17Z</time>
      </trkpt>
      <trkpt lat="38.920498" lon="-5.789664">
        <ele>340.0</ele>
        <time>2021-02-13T10:52:18Z</time>
      </trkpt>
      <trkpt lat="38.920483" lon="-5.789615">
        <ele>340.0</ele>
        <time>2021-02-13T10:52:19Z</time>
      </trkpt>
      <trkpt lat="38.920467" lon="-5.789562">
        <ele>340.0</ele>
        <time>2021-02-13T10:52:20Z</time>
      </trkpt>
      <trkpt lat="38.920456" lon="-5.7895103">
        <ele>340.0</ele>
        <time>2021-02-13T10:52:21Z</time>
      </trkpt>
      <trkpt lat="38.920444" lon="-5.7894626">
        <ele>340.0</ele>
        <time>2021-02-13T10:52:22Z</time>
      </trkpt>
      <trkpt lat="38.92043" lon="-5.789413">
        <ele>341.0</ele>
        <time>2021-02-13T10:52:23Z</time>
      </trkpt>
      <trkpt lat="38.920414" lon="-5.789362">
        <ele>341.0</ele>
        <time>2021-02-13T10:52:24Z</time>
      </trkpt>
      <trkpt lat="38.920403" lon="-5.7893133">
        <ele>341.0</ele>
        <time>2021-02-13T10:52:25Z</time>
      </trkpt>
      <trkpt lat="38.920387" lon="-5.7892666">
        <ele>341.0</ele>
        <time>2021-02-13T10:52:26Z</time>
      </trkpt>
      <trkpt lat="38.920372" lon="-5.78922">
        <ele>342.0</ele>
        <time>2021-02-13T10:52:27Z</time>
      </trkpt>
      <trkpt lat="38.920357" lon="-5.789173">
        <ele>342.0</ele>
        <time>2021-02-13T10:52:28Z</time>
      </trkpt>
      <trkpt lat="38.92034" lon="-5.789126">
        <ele>342.0</ele>
        <time>2021-02-13T10:52:29Z</time>
      </trkpt>
      <trkpt lat="38.920326" lon="-5.789078">
        <ele>342.0</ele>
        <time>2021-02-13T10:52:30Z</time>
      </trkpt>
      <trkpt lat="38.920315" lon="-5.789031">
        <ele>342.0</ele>
        <time>2021-02-13T10:52:31Z</time>
      </trkpt>
      <trkpt lat="38.920303" lon="-5.7889843">
        <ele>343.0</ele>
        <time>2021-02-13T10:52:32Z</time>
      </trkpt>
      <trkpt lat="38.920288" lon="-5.7889376">
        <ele>343.0</ele>
        <time>2021-02-13T10:52:33Z</time>
      </trkpt>
      <trkpt lat="38.920277" lon="-5.788893">
        <ele>343.0</ele>
        <time>2021-02-13T10:52:34Z</time>
      </trkpt>
      <trkpt lat="38.920265" lon="-5.7888474">
        <ele>343.0</ele>
        <time>2021-02-13T10:52:35Z</time>
      </trkpt>
      <trkpt lat="38.92025" lon="-5.788802">
        <ele>343.0</ele>
        <time>2021-02-13T10:52:36Z</time>
      </trkpt>
      <trkpt lat="38.920235" lon="-5.7887573">
        <ele>344.0</ele>
        <time>2021-02-13T10:52:37Z</time>
      </trkpt>
      <trkpt lat="38.92022" lon="-5.788713">
        <ele>344.0</ele>
        <time>2021-02-13T10:52:38Z</time>
      </trkpt>
      <trkpt lat="38.920204" lon="-5.7886686">
        <ele>344.0</ele>
        <time>2021-02-13T10:52:39Z</time>
      </trkpt>
      <trkpt lat="38.92019" lon="-5.7886233">
        <ele>344.0</ele>
        <time>2021-02-13T10:52:40Z</time>
      </trkpt>
      <trkpt lat="38.920174" lon="-5.788578">
        <ele>344.0</ele>
        <time>2021-02-13T10:52:41Z</time>
      </trkpt>
      <trkpt lat="38.92016" lon="-5.7885337">
        <ele>345.0</ele>
        <time>2021-02-13T10:52:42Z</time>
      </trkpt>
      <trkpt lat="38.920143" lon="-5.7884917">
        <ele>345.0</ele>
        <time>2021-02-13T10:52:43Z</time>
      </trkpt>
      <trkpt lat="38.920128" lon="-5.788448">
        <ele>345.0</ele>
        <time>2021-02-13T10:52:44Z</time>
      </trkpt>
      <trkpt lat="38.920113" lon="-5.788405">
        <ele>345.0</ele>
        <time>2021-02-13T10:52:45Z</time>
      </trkpt>
      <trkpt lat="38.9201" lon="-5.788363">
        <ele>345.0</ele>
        <time>2021-02-13T10:52:46Z</time>
      </trkpt>
      <trkpt lat="38.920086" lon="-5.788322">
        <ele>345.0</ele>
        <time>2021-02-13T10:52:47Z</time>
      </trkpt>
      <trkpt lat="38.92007" lon="-5.7882814">
        <ele>345.0</ele>
        <time>2021-02-13T10:52:48Z</time>
      </trkpt>
      <trkpt lat="38.92006" lon="-5.788242">
        <ele>345.0</ele>
        <time>2021-02-13T10:52:49Z</time>
      </trkpt>
      <trkpt lat="38.920048" lon="-5.788203">
        <ele>345.0</ele>
        <time>2021-02-13T10:52:50Z</time>
      </trkpt>
      <trkpt lat="38.920036" lon="-5.7881637">
        <ele>346.0</ele>
        <time>2021-02-13T10:52:51Z</time>
      </trkpt>
      <trkpt lat="38.920025" lon="-5.788124">
        <ele>346.0</ele>
        <time>2021-02-13T10:52:52Z</time>
      </trkpt>
      <trkpt lat="38.920013" lon="-5.7880845">
        <ele>346.0</ele>
        <time>2021-02-13T10:52:53Z</time>
      </trkpt>
      <trkpt lat="38.920002" lon="-5.7880435">
        <ele>346.0</ele>
        <time>2021-02-13T10:52:54Z</time>
      </trkpt>
      <trkpt lat="38.91999" lon="-5.788003">
        <ele>346.0</ele>
        <time>2021-02-13T10:52:55Z</time>
      </trkpt>
      <trkpt lat="38.919983" lon="-5.787963">
        <ele>347.0</ele>
        <time>2021-02-13T10:52:56Z</time>
      </trkpt>
      <trkpt lat="38.919975" lon="-5.7879233">
        <ele>347.0</ele>
        <time>2021-02-13T10:52:57Z</time>
      </trkpt>
      <trkpt lat="38.919964" lon="-5.7878833">
        <ele>347.0</ele>
        <time>2021-02-13T10:52:58Z</time>
      </trkpt>
      <trkpt lat="38.919952" lon="-5.787845">
        <ele>347.0</ele>
        <time>2021-02-13T10:52:59Z</time>
      </trkpt>
      <trkpt lat="38.91995" lon="-5.7878084">
        <ele>348.0</ele>
        <time>2021-02-13T10:53:00Z</time>
      </trkpt>
      <trkpt lat="38.91994" lon="-5.7877736">
        <ele>348.0</ele>
        <time>2021-02-13T10:53:01Z</time>
      </trkpt>
      <trkpt lat="38.919933" lon="-5.787739">
        <ele>348.0</ele>
        <time>2021-02-13T10:53:02Z</time>
      </trkpt>
      <trkpt lat="38.91992" lon="-5.7877045">
        <ele>348.0</ele>
        <time>2021-02-13T10:53:03Z</time>
      </trkpt>
      <trkpt lat="38.919914" lon="-5.7876706">
        <ele>349.0</ele>
        <time>2021-02-13T10:53:04Z</time>
      </trkpt>
      <trkpt lat="38.919903" lon="-5.787637">
        <ele>349.0</ele>
        <time>2021-02-13T10:53:05Z</time>
      </trkpt>
      <trkpt lat="38.91989" lon="-5.787604">
        <ele>349.0</ele>
        <time>2021-02-13T10:53:06Z</time>
      </trkpt>
      <trkpt lat="38.91988" lon="-5.7875714">
        <ele>349.0</ele>
        <time>2021-02-13T10:53:07Z</time>
      </trkpt>
      <trkpt lat="38.91987" lon="-5.787538">
        <ele>350.0</ele>
        <time>2021-02-13T10:53:08Z</time>
      </trkpt>
      <trkpt lat="38.919857" lon="-5.7875047">
        <ele>350.0</ele>
        <time>2021-02-13T10:53:09Z</time>
      </trkpt>
      <trkpt lat="38.919846" lon="-5.78747">
        <ele>350.0</ele>
        <time>2021-02-13T10:53:10Z</time>
      </trkpt>
      <trkpt lat="38.919834" lon="-5.7874374">
        <ele>350.0</ele>
        <time>2021-02-13T10:53:11Z</time>
      </trkpt>
      <trkpt lat="38.919823" lon="-5.787405">
        <ele>350.0</ele>
        <time>2021-02-13T10:53:12Z</time>
      </trkpt>
      <trkpt lat="38.91981" lon="-5.7873726">
        <ele>351.0</ele>
        <time>2021-02-13T10:53:13Z</time>
      </trkpt>
      <trkpt lat="38.919804" lon="-5.78734">
        <ele>351.0</ele>
        <time>2021-02-13T10:53:14Z</time>
      </trkpt>
      <trkpt lat="38.919792" lon="-5.7873077">
        <ele>351.0</ele>
        <time>2021-02-13T10:53:15Z</time>
      </trkpt>
      <trkpt lat="38.91978" lon="-5.7872744">
        <ele>351.0</ele>
        <time>2021-02-13T10:53:16Z</time>
      </trkpt>
      <trkpt lat="38.91977" lon="-5.787241">
        <ele>352.0</ele>
        <time>2021-02-13T10:53:17Z</time>
      </trkpt>
      <trkpt lat="38.919758" lon="-5.7872086">
        <ele>352.0</ele>
        <time>2021-02-13T10:53:18Z</time>
      </trkpt>
      <trkpt lat="38.919746" lon="-5.787174">
        <ele>352.0</ele>
        <time>2021-02-13T10:53:19Z</time>
      </trkpt>
      <trkpt lat="38.919735" lon="-5.787142">
        <ele>352.0</ele>
        <time>2021-02-13T10:53:20Z</time>
      </trkpt>
      <trkpt lat="38.91972" lon="-5.787109">
        <ele>352.0</ele>
        <time>2021-02-13T10:53:21Z</time>
      </trkpt>
      <trkpt lat="38.919704" lon="-5.787078">
        <ele>352.0</ele>
        <time>2021-02-13T10:53:22Z</time>
      </trkpt>
      <trkpt lat="38.91969" lon="-5.7870464">
        <ele>352.0</ele>
        <time>2021-02-13T10:53:23Z</time>
      </trkpt>
      <trkpt lat="38.919674" lon="-5.787016">
        <ele>352.0</ele>
        <time>2021-02-13T10:53:24Z</time>
      </trkpt>
      <trkpt lat="38.91966" lon="-5.7869864">
        <ele>353.0</ele>
        <time>2021-02-13T10:53:25Z</time>
      </trkpt>
      <trkpt lat="38.919643" lon="-5.7869587">
        <ele>353.0</ele>
        <time>2021-02-13T10:53:26Z</time>
      </trkpt>
      <trkpt lat="38.91963" lon="-5.786931">
        <ele>353.0</ele>
        <time>2021-02-13T10:53:27Z</time>
      </trkpt>
      <trkpt lat="38.919613" lon="-5.786906">
        <ele>353.0</ele>
        <time>2021-02-13T10:53:28Z</time>
      </trkpt>
      <trkpt lat="38.919598" lon="-5.7868795">
        <ele>353.0</ele>
        <time>2021-02-13T10:53:29Z</time>
      </trkpt>
      <trkpt lat="38.919582" lon="-5.7868524">
        <ele>354.0</ele>
        <time>2021-02-13T10:53:30Z</time>
      </trkpt>
      <trkpt lat="38.919567" lon="-5.7868257">
        <ele>354.0</ele>
        <time>2021-02-13T10:53:31Z</time>
      </trkpt>
      <trkpt lat="38.91955" lon="-5.7868">
        <ele>354.0</ele>
        <time>2021-02-13T10:53:32Z</time>
      </trkpt>
      <trkpt lat="38.91954" lon="-5.7867737">
        <ele>354.0</ele>
        <time>2021-02-13T10:53:33Z</time>
      </trkpt>
      <trkpt lat="38.919525" lon="-5.786745">
        <ele>355.0</ele>
        <time>2021-02-13T10:53:34Z</time>
      </trkpt>
      <trkpt lat="38.91951" lon="-5.7867155">
        <ele>355.0</ele>
        <time>2021-02-13T10:53:35Z</time>
      </trkpt>
      <trkpt lat="38.919495" lon="-5.786688">
        <ele>355.0</ele>
        <time>2021-02-13T10:53:36Z</time>
      </trkpt>
      <trkpt lat="38.91948" lon="-5.7866626">
        <ele>355.0</ele>
        <time>2021-02-13T10:53:37Z</time>
      </trkpt>
      <trkpt lat="38.919468" lon="-5.786637">
        <ele>355.0</ele>
        <time>2021-02-13T10:53:38Z</time>
      </trkpt>
      <trkpt lat="38.919453" lon="-5.786611">
        <ele>356.0</ele>
        <time>2021-02-13T10:53:39Z</time>
      </trkpt>
      <trkpt lat="38.919437" lon="-5.786586">
        <ele>356.0</ele>
        <time>2021-02-13T10:53:40Z</time>
      </trkpt>
      <trkpt lat="38.919422" lon="-5.7865615">
        <ele>356.0</ele>
        <time>2021-02-13T10:53:41Z</time>
      </trkpt>
      <trkpt lat="38.919407" lon="-5.786536">
        <ele>356.0</ele>
        <time>2021-02-13T10:53:42Z</time>
      </trkpt>
      <trkpt lat="38.919395" lon="-5.78651">
        <ele>357.0</ele>
        <time>2021-02-13T10:53:43Z</time>
      </trkpt>
      <trkpt lat="38.91938" lon="-5.7864847">
        <ele>357.0</ele>
        <time>2021-02-13T10:53:44Z</time>
      </trkpt>
      <trkpt lat="38.91937" lon="-5.78646">
        <ele>357.0</ele>
        <time>2021-02-13T10:53:45Z</time>
      </trkpt>
      <trkpt lat="38.919357" lon="-5.7864366">
        <ele>357.0</ele>
        <time>2021-02-13T10:53:46Z</time>
      </trkpt>
      <trkpt lat="38.919346" lon="-5.7864122">
        <ele>358.0</ele>
        <time>2021-02-13T10:53:47Z</time>
      </trkpt>
      <trkpt lat="38.91933" lon="-5.786387">
        <ele>358.0</ele>
        <time>2021-02-13T10:53:48Z</time>
      </trkpt>
      <trkpt lat="38.91932" lon="-5.786362">
        <ele>358.0</ele>
        <time>2021-02-13T10:53:49Z</time>
      </trkpt>
      <trkpt lat="38.919308" lon="-5.786338">
        <ele>358.0</ele>
        <time>2021-02-13T10:53:50Z</time>
      </trkpt>
      <trkpt lat="38.919292" lon="-5.786312">
        <ele>359.0</ele>
        <time>2021-02-13T10:53:51Z</time>
      </trkpt>
      <trkpt lat="38.91928" lon="-5.786287">
        <ele>359.0</ele>
        <time>2021-02-13T10:53:52Z</time>
      </trkpt>
      <trkpt lat="38.91927" lon="-5.7862606">
        <ele>359.0</ele>
        <time>2021-02-13T10:53:53Z</time>
      </trkpt>
      <trkpt lat="38.91926" lon="-5.786235">
        <ele>359.0</ele>
        <time>2021-02-13T10:53:54Z</time>
      </trkpt>
      <trkpt lat="38.919247" lon="-5.7862105">
        <ele>360.0</ele>
        <time>2021-02-13T10:53:55Z</time>
      </trkpt>
      <trkpt lat="38.919235" lon="-5.7861857">
        <ele>360.0</ele>
        <time>2021-02-13T10:53:56Z</time>
      </trkpt>
      <trkpt lat="38.919224" lon="-5.7861605">
        <ele>360.0</ele>
        <time>2021-02-13T10:53:57Z</time>
      </trkpt>
      <trkpt lat="38.919212" lon="-5.7861323">
        <ele>360.0</ele>
        <time>2021-02-13T10:53:58Z</time>
      </trkpt>
      <trkpt lat="38.919205" lon="-5.786104">
        <ele>360.0</ele>
        <time>2021-02-13T10:53:59Z</time>
      </trkpt>
      <trkpt lat="38.919193" lon="-5.786076">
        <ele>360.0</ele>
        <time>2021-02-13T10:54:00Z</time>
      </trkpt>
      <trkpt lat="38.919186" lon="-5.7860475">
        <ele>360.0</ele>
        <time>2021-02-13T10:54:01Z</time>
      </trkpt>
      <trkpt lat="38.91918" lon="-5.786021">
        <ele>360.0</ele>
        <time>2021-02-13T10:54:02Z</time>
      </trkpt>
      <trkpt lat="38.919174" lon="-5.785995">
        <ele>361.0</ele>
        <time>2021-02-13T10:54:03Z</time>
      </trkpt>
      <trkpt lat="38.919167" lon="-5.785964">
        <ele>361.0</ele>
        <time>2021-02-13T10:54:04Z</time>
      </trkpt>
      <trkpt lat="38.91916" lon="-5.7859335">
        <ele>361.0</ele>
        <time>2021-02-13T10:54:05Z</time>
      </trkpt>
      <trkpt lat="38.91915" lon="-5.785904">
        <ele>361.0</ele>
        <time>2021-02-13T10:54:06Z</time>
      </trkpt>
      <trkpt lat="38.919147" lon="-5.785872">
        <ele>362.0</ele>
        <time>2021-02-13T10:54:07Z</time>
      </trkpt>
      <trkpt lat="38.919144" lon="-5.7858405">
        <ele>362.0</ele>
        <time>2021-02-13T10:54:08Z</time>
      </trkpt>
      <trkpt lat="38.919136" lon="-5.78581">
        <ele>362.0</ele>
        <time>2021-02-13T10:54:09Z</time>
      </trkpt>
      <trkpt lat="38.919132" lon="-5.785779">
        <ele>362.0</ele>
        <time>2021-02-13T10:54:10Z</time>
      </trkpt>
      <trkpt lat="38.919125" lon="-5.785751">
        <ele>363.0</ele>
        <time>2021-02-13T10:54:11Z</time>
      </trkpt>
      <trkpt lat="38.91912" lon="-5.785721">
        <ele>363.0</ele>
        <time>2021-02-13T10:54:12Z</time>
      </trkpt>
      <trkpt lat="38.91912" lon="-5.7856917">
        <ele>363.0</ele>
        <time>2021-02-13T10:54:13Z</time>
      </trkpt>
      <trkpt lat="38.919117" lon="-5.7856627">
        <ele>363.0</ele>
        <time>2021-02-13T10:54:14Z</time>
      </trkpt>
      <trkpt lat="38.919113" lon="-5.7856326">
        <ele>364.0</ele>
        <time>2021-02-13T10:54:15Z</time>
      </trkpt>
      <trkpt lat="38.919113" lon="-5.7856045">
        <ele>364.0</ele>
        <time>2021-02-13T10:54:16Z</time>
      </trkpt>
      <trkpt lat="38.91911" lon="-5.785575">
        <ele>364.0</ele>
        <time>2021-02-13T10:54:17Z</time>
      </trkpt>
      <trkpt lat="38.919106" lon="-5.785546">
        <ele>364.0</ele>
        <time>2021-02-13T10:54:18Z</time>
      </trkpt>
      <trkpt lat="38.919106" lon="-5.7855167">
        <ele>364.0</ele>
        <time>2021-02-13T10:54:19Z</time>
      </trkpt>
      <trkpt lat="38.919106" lon="-5.785487">
        <ele>365.0</ele>
        <time>2021-02-13T10:54:20Z</time>
      </trkpt>
      <trkpt lat="38.91911" lon="-5.785459">
        <ele>365.0</ele>
        <time>2021-02-13T10:54:21Z</time>
      </trkpt>
      <trkpt lat="38.91911" lon="-5.7854304">
        <ele>365.0</ele>
        <time>2021-02-13T10:54:22Z</time>
      </trkpt>
      <trkpt lat="38.919113" lon="-5.785401">
        <ele>365.0</ele>
        <time>2021-02-13T10:54:23Z</time>
      </trkpt>
      <trkpt lat="38.919117" lon="-5.785371">
        <ele>365.0</ele>
        <time>2021-02-13T10:54:24Z</time>
      </trkpt>
      <trkpt lat="38.91912" lon="-5.7853413">
        <ele>366.0</ele>
        <time>2021-02-13T10:54:25Z</time>
      </trkpt>
      <trkpt lat="38.919125" lon="-5.785312">
        <ele>366.0</ele>
        <time>2021-02-13T10:54:26Z</time>
      </trkpt>
      <trkpt lat="38.91913" lon="-5.7852793">
        <ele>366.0</ele>
        <time>2021-02-13T10:54:27Z</time>
      </trkpt>
      <trkpt lat="38.919132" lon="-5.785247">
        <ele>366.0</ele>
        <time>2021-02-13T10:54:28Z</time>
      </trkpt>
      <trkpt lat="38.919136" lon="-5.785214">
        <ele>366.0</ele>
        <time>2021-02-13T10:54:29Z</time>
      </trkpt>
      <trkpt lat="38.919144" lon="-5.7851834">
        <ele>367.0</ele>
        <time>2021-02-13T10:54:30Z</time>
      </trkpt>
      <trkpt lat="38.919147" lon="-5.7851524">
        <ele>367.0</ele>
        <time>2021-02-13T10:54:31Z</time>
      </trkpt>
      <trkpt lat="38.91915" lon="-5.7851205">
        <ele>367.0</ele>
        <time>2021-02-13T10:54:32Z</time>
      </trkpt>
      <trkpt lat="38.919155" lon="-5.7850866">
        <ele>367.0</ele>
        <time>2021-02-13T10:54:33Z</time>
      </trkpt>
      <trkpt lat="38.91916" lon="-5.785056">
        <ele>367.0</ele>
        <time>2021-02-13T10:54:34Z</time>
      </trkpt>
      <trkpt lat="38.919163" lon="-5.785025">
        <ele>368.0</ele>
        <time>2021-02-13T10:54:35Z</time>
      </trkpt>
      <trkpt lat="38.919167" lon="-5.784992">
        <ele>368.0</ele>
        <time>2021-02-13T10:54:36Z</time>
      </trkpt>
      <trkpt lat="38.919167" lon="-5.784959">
        <ele>368.0</ele>
        <time>2021-02-13T10:54:37Z</time>
      </trkpt>
      <trkpt lat="38.91917" lon="-5.7849255">
        <ele>368.0</ele>
        <time>2021-02-13T10:54:38Z</time>
      </trkpt>
      <trkpt lat="38.91917" lon="-5.784895">
        <ele>368.0</ele>
        <time>2021-02-13T10:54:39Z</time>
      </trkpt>
      <trkpt lat="38.91917" lon="-5.7848625">
        <ele>368.0</ele>
        <time>2021-02-13T10:54:40Z</time>
      </trkpt>
      <trkpt lat="38.919174" lon="-5.7848315">
        <ele>369.0</ele>
        <time>2021-02-13T10:54:41Z</time>
      </trkpt>
      <trkpt lat="38.919174" lon="-5.7847977">
        <ele>369.0</ele>
        <time>2021-02-13T10:54:42Z</time>
      </trkpt>
      <trkpt lat="38.919174" lon="-5.7847614">
        <ele>369.0</ele>
        <time>2021-02-13T10:54:43Z</time>
      </trkpt>
      <trkpt lat="38.919174" lon="-5.7847285">
        <ele>369.0</ele>
        <time>2021-02-13T10:54:44Z</time>
      </trkpt>
      <trkpt lat="38.919178" lon="-5.7846932">
        <ele>369.0</ele>
        <time>2021-02-13T10:54:45Z</time>
      </trkpt>
      <trkpt lat="38.919178" lon="-5.7846575">
        <ele>369.0</ele>
        <time>2021-02-13T10:54:46Z</time>
      </trkpt>
      <trkpt lat="38.919174" lon="-5.7846193">
        <ele>369.0</ele>
        <time>2021-02-13T10:54:47Z</time>
      </trkpt>
      <trkpt lat="38.919174" lon="-5.7845826">
        <ele>369.0</ele>
        <time>2021-02-13T10:54:48Z</time>
      </trkpt>
      <trkpt lat="38.919174" lon="-5.7845473">
        <ele>369.0</ele>
        <time>2021-02-13T10:54:49Z</time>
      </trkpt>
      <trkpt lat="38.919174" lon="-5.7845106">
        <ele>369.0</ele>
        <time>2021-02-13T10:54:50Z</time>
      </trkpt>
      <trkpt lat="38.919174" lon="-5.7844715">
        <ele>369.0</ele>
        <time>2021-02-13T10:54:51Z</time>
      </trkpt>
      <trkpt lat="38.919174" lon="-5.784432">
        <ele>369.0</ele>
        <time>2021-02-13T10:54:52Z</time>
      </trkpt>
      <trkpt lat="38.919174" lon="-5.7843957">
        <ele>369.0</ele>
        <time>2021-02-13T10:54:53Z</time>
      </trkpt>
      <trkpt lat="38.91917" lon="-5.784359">
        <ele>369.0</ele>
        <time>2021-02-13T10:54:54Z</time>
      </trkpt>
      <trkpt lat="38.919167" lon="-5.7843194">
        <ele>369.0</ele>
        <time>2021-02-13T10:54:55Z</time>
      </trkpt>
      <trkpt lat="38.919167" lon="-5.78428">
        <ele>369.0</ele>
        <time>2021-02-13T10:54:56Z</time>
      </trkpt>
      <trkpt lat="38.919167" lon="-5.784239">
        <ele>369.0</ele>
        <time>2021-02-13T10:54:57Z</time>
      </trkpt>
      <trkpt lat="38.91916" lon="-5.7841997">
        <ele>369.0</ele>
        <time>2021-02-13T10:54:58Z</time>
      </trkpt>
      <trkpt lat="38.91916" lon="-5.784159">
        <ele>369.0</ele>
        <time>2021-02-13T10:54:59Z</time>
      </trkpt>
      <trkpt lat="38.91916" lon="-5.784116">
        <ele>369.0</ele>
        <time>2021-02-13T10:55:00Z</time>
      </trkpt>
      <trkpt lat="38.919155" lon="-5.784071">
        <ele>369.0</ele>
        <time>2021-02-13T10:55:01Z</time>
      </trkpt>
      <trkpt lat="38.91915" lon="-5.784027">
        <ele>369.0</ele>
        <time>2021-02-13T10:55:02Z</time>
      </trkpt>
      <trkpt lat="38.91915" lon="-5.783985">
        <ele>370.0</ele>
        <time>2021-02-13T10:55:03Z</time>
      </trkpt>
      <trkpt lat="38.91915" lon="-5.783943">
        <ele>370.0</ele>
        <time>2021-02-13T10:55:04Z</time>
      </trkpt>
      <trkpt lat="38.91915" lon="-5.7838984">
        <ele>370.0</ele>
        <time>2021-02-13T10:55:05Z</time>
      </trkpt>
      <trkpt lat="38.91915" lon="-5.7838545">
        <ele>370.0</ele>
        <time>2021-02-13T10:55:06Z</time>
      </trkpt>
      <trkpt lat="38.91915" lon="-5.783814">
        <ele>370.0</ele>
        <time>2021-02-13T10:55:07Z</time>
      </trkpt>
      <trkpt lat="38.91915" lon="-5.783773">
        <ele>370.0</ele>
        <time>2021-02-13T10:55:08Z</time>
      </trkpt>
      <trkpt lat="38.91915" lon="-5.7837324">
        <ele>371.0</ele>
        <time>2021-02-13T10:55:09Z</time>
      </trkpt>
      <trkpt lat="38.91915" lon="-5.7836933">
        <ele>371.0</ele>
        <time>2021-02-13T10:55:10Z</time>
      </trkpt>
      <trkpt lat="38.91915" lon="-5.783655">
        <ele>371.0</ele>
        <time>2021-02-13T10:55:11Z</time>
      </trkpt>
      <trkpt lat="38.91915" lon="-5.7836156">
        <ele>371.0</ele>
        <time>2021-02-13T10:55:12Z</time>
      </trkpt>
      <trkpt lat="38.91915" lon="-5.7835755">
        <ele>372.0</ele>
        <time>2021-02-13T10:55:13Z</time>
      </trkpt>
      <trkpt lat="38.919155" lon="-5.7835336">
        <ele>372.0</ele>
        <time>2021-02-13T10:55:14Z</time>
      </trkpt>
      <trkpt lat="38.91916" lon="-5.783493">
        <ele>372.0</ele>
        <time>2021-02-13T10:55:15Z</time>
      </trkpt>
      <trkpt lat="38.919163" lon="-5.783454">
        <ele>373.0</ele>
        <time>2021-02-13T10:55:16Z</time>
      </trkpt>
      <trkpt lat="38.919167" lon="-5.7834187">
        <ele>373.0</ele>
        <time>2021-02-13T10:55:17Z</time>
      </trkpt>
      <trkpt lat="38.91917" lon="-5.783384">
        <ele>373.0</ele>
        <time>2021-02-13T10:55:18Z</time>
      </trkpt>
      <trkpt lat="38.919174" lon="-5.783345">
        <ele>373.0</ele>
        <time>2021-02-13T10:55:19Z</time>
      </trkpt>
      <trkpt lat="38.919178" lon="-5.783308">
        <ele>373.0</ele>
        <time>2021-02-13T10:55:20Z</time>
      </trkpt>
      <trkpt lat="38.91918" lon="-5.7832727">
        <ele>373.0</ele>
        <time>2021-02-13T10:55:21Z</time>
      </trkpt>
      <trkpt lat="38.91918" lon="-5.783237">
        <ele>374.0</ele>
        <time>2021-02-13T10:55:22Z</time>
      </trkpt>
      <trkpt lat="38.91918" lon="-5.7832007">
        <ele>374.0</ele>
        <time>2021-02-13T10:55:23Z</time>
      </trkpt>
      <trkpt lat="38.919186" lon="-5.783161">
        <ele>374.0</ele>
        <time>2021-02-13T10:55:24Z</time>
      </trkpt>
      <trkpt lat="38.919186" lon="-5.7831244">
        <ele>375.0</ele>
        <time>2021-02-13T10:55:25Z</time>
      </trkpt>
      <trkpt lat="38.91919" lon="-5.7830887">
        <ele>375.0</ele>
        <time>2021-02-13T10:55:26Z</time>
      </trkpt>
      <trkpt lat="38.91919" lon="-5.783052">
        <ele>375.0</ele>
        <time>2021-02-13T10:55:27Z</time>
      </trkpt>
      <trkpt lat="38.91919" lon="-5.7830153">
        <ele>375.0</ele>
        <time>2021-02-13T10:55:28Z</time>
      </trkpt>
      <trkpt lat="38.91919" lon="-5.782975">
        <ele>375.0</ele>
        <time>2021-02-13T10:55:29Z</time>
      </trkpt>
      <trkpt lat="38.919193" lon="-5.782936">
        <ele>375.0</ele>
        <time>2021-02-13T10:55:30Z</time>
      </trkpt>
      <trkpt lat="38.919197" lon="-5.7828975">
        <ele>376.0</ele>
        <time>2021-02-13T10:55:31Z</time>
      </trkpt>
      <trkpt lat="38.919197" lon="-5.782861">
        <ele>376.0</ele>
        <time>2021-02-13T10:55:32Z</time>
      </trkpt>
      <trkpt lat="38.9192" lon="-5.7828217">
        <ele>376.0</ele>
        <time>2021-02-13T10:55:33Z</time>
      </trkpt>
      <trkpt lat="38.919205" lon="-5.7827854">
        <ele>376.0</ele>
        <time>2021-02-13T10:55:34Z</time>
      </trkpt>
      <trkpt lat="38.919205" lon="-5.782743">
        <ele>376.0</ele>
        <time>2021-02-13T10:55:35Z</time>
      </trkpt>
      <trkpt lat="38.919205" lon="-5.782701">
        <ele>376.0</ele>
        <time>2021-02-13T10:55:36Z</time>
      </trkpt>
      <trkpt lat="38.919205" lon="-5.7826605">
        <ele>376.0</ele>
        <time>2021-02-13T10:55:37Z</time>
      </trkpt>
      <trkpt lat="38.9192" lon="-5.782617">
        <ele>376.0</ele>
        <time>2021-02-13T10:55:38Z</time>
      </trkpt>
      <trkpt lat="38.919193" lon="-5.7825675">
        <ele>376.0</ele>
        <time>2021-02-13T10:55:39Z</time>
      </trkpt>
      <trkpt lat="38.91919" lon="-5.782517">
        <ele>376.0</ele>
        <time>2021-02-13T10:55:40Z</time>
      </trkpt>
      <trkpt lat="38.919178" lon="-5.7824693">
        <ele>376.0</ele>
        <time>2021-02-13T10:55:41Z</time>
      </trkpt>
      <trkpt lat="38.919167" lon="-5.7824197">
        <ele>376.0</ele>
        <time>2021-02-13T10:55:42Z</time>
      </trkpt>
      <trkpt lat="38.919155" lon="-5.782369">
        <ele>376.0</ele>
        <time>2021-02-13T10:55:43Z</time>
      </trkpt>
      <trkpt lat="38.91914" lon="-5.782314">
        <ele>375.0</ele>
        <time>2021-02-13T10:55:44Z</time>
      </trkpt>
      <trkpt lat="38.91912" lon="-5.782262">
        <ele>375.0</ele>
        <time>2021-02-13T10:55:45Z</time>
      </trkpt>
      <trkpt lat="38.919098" lon="-5.7822084">
        <ele>375.0</ele>
        <time>2021-02-13T10:55:46Z</time>
      </trkpt>
      <trkpt lat="38.919075" lon="-5.782154">
        <ele>374.0</ele>
        <time>2021-02-13T10:55:47Z</time>
      </trkpt>
      <trkpt lat="38.91905" lon="-5.7820973">
        <ele>374.0</ele>
        <time>2021-02-13T10:55:48Z</time>
      </trkpt>
      <trkpt lat="38.919018" lon="-5.7820377">
        <ele>374.0</ele>
        <time>2021-02-13T10:55:49Z</time>
      </trkpt>
      <trkpt lat="38.918987" lon="-5.7819757">
        <ele>373.0</ele>
        <time>2021-02-13T10:55:50Z</time>
      </trkpt>
      <trkpt lat="38.918953" lon="-5.7819104">
        <ele>373.0</ele>
        <time>2021-02-13T10:55:51Z</time>
      </trkpt>
      <trkpt lat="38.918922" lon="-5.7818418">
        <ele>372.0</ele>
        <time>2021-02-13T10:55:52Z</time>
      </trkpt>
      <trkpt lat="38.918888" lon="-5.781772">
        <ele>372.0</ele>
        <time>2021-02-13T10:55:53Z</time>
      </trkpt>
      <trkpt lat="38.91886" lon="-5.7816987">
        <ele>371.0</ele>
        <time>2021-02-13T10:55:54Z</time>
      </trkpt>
      <trkpt lat="38.91883" lon="-5.7816224">
        <ele>371.0</ele>
        <time>2021-02-13T10:55:55Z</time>
      </trkpt>
      <trkpt lat="38.918808" lon="-5.7815437">
        <ele>371.0</ele>
        <time>2021-02-13T10:55:56Z</time>
      </trkpt>
      <trkpt lat="38.91878" lon="-5.781463">
        <ele>370.0</ele>
        <time>2021-02-13T10:55:57Z</time>
      </trkpt>
      <trkpt lat="38.918755" lon="-5.7813797">
        <ele>370.0</ele>
        <time>2021-02-13T10:55:58Z</time>
      </trkpt>
      <trkpt lat="38.91873" lon="-5.781293">
        <ele>370.0</ele>
        <time>2021-02-13T10:55:59Z</time>
      </trkpt>
      <trkpt lat="38.918705" lon="-5.781196">
        <ele>369.0</ele>
        <time>2021-02-13T10:56:00Z</time>
      </trkpt>
      <trkpt lat="38.918686" lon="-5.7810965">
        <ele>369.0</ele>
        <time>2021-02-13T10:56:01Z</time>
      </trkpt>
      <trkpt lat="38.918663" lon="-5.780994">
        <ele>368.0</ele>
        <time>2021-02-13T10:56:02Z</time>
      </trkpt>
      <trkpt lat="38.918644" lon="-5.7808895">
        <ele>368.0</ele>
        <time>2021-02-13T10:56:03Z</time>
      </trkpt>
      <trkpt lat="38.91862" lon="-5.7807827">
        <ele>367.0</ele>
        <time>2021-02-13T10:56:04Z</time>
      </trkpt>
      <trkpt lat="38.9186" lon="-5.780679">
        <ele>367.0</ele>
        <time>2021-02-13T10:56:05Z</time>
      </trkpt>
      <trkpt lat="38.918575" lon="-5.780564">
        <ele>366.0</ele>
        <time>2021-02-13T10:56:06Z</time>
      </trkpt>
      <trkpt lat="38.918545" lon="-5.7804484">
        <ele>366.0</ele>
        <time>2021-02-13T10:56:07Z</time>
      </trkpt>
      <trkpt lat="38.91851" lon="-5.7803335">
        <ele>365.0</ele>
        <time>2021-02-13T10:56:08Z</time>
      </trkpt>
      <trkpt lat="38.91847" lon="-5.780222">
        <ele>365.0</ele>
        <time>2021-02-13T10:56:09Z</time>
      </trkpt>
      <trkpt lat="38.918427" lon="-5.7801127">
        <ele>364.0</ele>
        <time>2021-02-13T10:56:10Z</time>
      </trkpt>
      <trkpt lat="38.91838" lon="-5.780006">
        <ele>364.0</ele>
        <time>2021-02-13T10:56:11Z</time>
      </trkpt>
      <trkpt lat="38.918335" lon="-5.779901">
        <ele>364.0</ele>
        <time>2021-02-13T10:56:12Z</time>
      </trkpt>
      <trkpt lat="38.918285" lon="-5.7797966">
        <ele>364.0</ele>
        <time>2021-02-13T10:56:13Z</time>
      </trkpt>
      <trkpt lat="38.91824" lon="-5.7796936">
        <ele>364.0</ele>
        <time>2021-02-13T10:56:14Z</time>
      </trkpt>
      <trkpt lat="38.918194" lon="-5.7795916">
        <ele>364.0</ele>
        <time>2021-02-13T10:56:15Z</time>
      </trkpt>
      <trkpt lat="38.91815" lon="-5.7794905">
        <ele>364.0</ele>
        <time>2021-02-13T10:56:16Z</time>
      </trkpt>
      <trkpt lat="38.918118" lon="-5.7793965">
        <ele>364.0</ele>
        <time>2021-02-13T10:56:17Z</time>
      </trkpt>
      <trkpt lat="38.918076" lon="-5.7792945">
        <ele>364.0</ele>
        <time>2021-02-13T10:56:18Z</time>
      </trkpt>
      <trkpt lat="38.918045" lon="-5.7791934">
        <ele>363.0</ele>
        <time>2021-02-13T10:56:19Z</time>
      </trkpt>
      <trkpt lat="38.91802" lon="-5.7790995">
        <ele>363.0</ele>
        <time>2021-02-13T10:56:20Z</time>
      </trkpt>
      <trkpt lat="38.91799" lon="-5.779">
        <ele>363.0</ele>
        <time>2021-02-13T10:56:20Z</time>
      </trkpt>
      <trkpt lat="38.91797" lon="-5.7789087">
        <ele>363.0</ele>
        <time>2021-02-13T10:56:21Z</time>
      </trkpt>
      <trkpt lat="38.91794" lon="-5.778812">
        <ele>363.0</ele>
        <time>2021-02-13T10:56:22Z</time>
      </trkpt>
      <trkpt lat="38.91791" lon="-5.7787232">
        <ele>363.0</ele>
        <time>2021-02-13T10:56:23Z</time>
      </trkpt>
      <trkpt lat="38.91788" lon="-5.77863">
        <ele>363.0</ele>
        <time>2021-02-13T10:56:24Z</time>
      </trkpt>
      <trkpt lat="38.917854" lon="-5.7785444">
        <ele>363.0</ele>
        <time>2021-02-13T10:56:25Z</time>
      </trkpt>
      <trkpt lat="38.917824" lon="-5.7784576">
        <ele>362.0</ele>
        <time>2021-02-13T10:56:26Z</time>
      </trkpt>
      <trkpt lat="38.91779" lon="-5.7783713">
        <ele>362.0</ele>
        <time>2021-02-13T10:56:27Z</time>
      </trkpt>
      <trkpt lat="38.91776" lon="-5.778285">
        <ele>362.0</ele>
        <time>2021-02-13T10:56:28Z</time>
      </trkpt>
      <trkpt lat="38.91772" lon="-5.778198">
        <ele>361.0</ele>
        <time>2021-02-13T10:56:29Z</time>
      </trkpt>
      <trkpt lat="38.917683" lon="-5.7781043">
        <ele>361.0</ele>
        <time>2021-02-13T10:56:30Z</time>
      </trkpt>
      <trkpt lat="38.917645" lon="-5.7780128">
        <ele>361.0</ele>
        <time>2021-02-13T10:56:31Z</time>
      </trkpt>
      <trkpt lat="38.917606" lon="-5.777925">
        <ele>361.0</ele>
        <time>2021-02-13T10:56:32Z</time>
      </trkpt>
      <trkpt lat="38.91757" lon="-5.777837">
        <ele>361.0</ele>
        <time>2021-02-13T10:56:33Z</time>
      </trkpt>
      <trkpt lat="38.917538" lon="-5.777754">
        <ele>361.0</ele>
        <time>2021-02-13T10:56:34Z</time>
      </trkpt>
      <trkpt lat="38.917503" lon="-5.777664">
        <ele>360.0</ele>
        <time>2021-02-13T10:56:35Z</time>
      </trkpt>
      <trkpt lat="38.91747" lon="-5.7775736">
        <ele>360.0</ele>
        <time>2021-02-13T10:56:36Z</time>
      </trkpt>
      <trkpt lat="38.91744" lon="-5.7774854">
        <ele>360.0</ele>
        <time>2021-02-13T10:56:37Z</time>
      </trkpt>
      <trkpt lat="38.917404" lon="-5.777401">
        <ele>360.0</ele>
        <time>2021-02-13T10:56:38Z</time>
      </trkpt>
      <trkpt lat="38.91737" lon="-5.7773156">
        <ele>360.0</ele>
        <time>2021-02-13T10:56:39Z</time>
      </trkpt>
      <trkpt lat="38.91734" lon="-5.7772284">
        <ele>360.0</ele>
        <time>2021-02-13T10:56:40Z</time>
      </trkpt>
      <trkpt lat="38.917305" lon="-5.7771397">
        <ele>360.0</ele>
        <time>2021-02-13T10:56:41Z</time>
      </trkpt>
      <trkpt lat="38.917274" lon="-5.777051">
        <ele>360.0</ele>
        <time>2021-02-13T10:56:42Z</time>
      </trkpt>
      <trkpt lat="38.917244" lon="-5.7769613">
        <ele>360.0</ele>
        <time>2021-02-13T10:56:43Z</time>
      </trkpt>
      <trkpt lat="38.91721" lon="-5.7768717">
        <ele>360.0</ele>
        <time>2021-02-13T10:56:44Z</time>
      </trkpt>
      <trkpt lat="38.91718" lon="-5.776782">
        <ele>360.0</ele>
        <time>2021-02-13T10:56:45Z</time>
      </trkpt>
      <trkpt lat="38.91715" lon="-5.776694">
        <ele>360.0</ele>
        <time>2021-02-13T10:56:46Z</time>
      </trkpt>
      <trkpt lat="38.917118" lon="-5.7766075">
        <ele>360.0</ele>
        <time>2021-02-13T10:56:47Z</time>
      </trkpt>
      <trkpt lat="38.917088" lon="-5.776522">
        <ele>360.0</ele>
        <time>2021-02-13T10:56:48Z</time>
      </trkpt>
      <trkpt lat="38.917057" lon="-5.776438">
        <ele>360.0</ele>
        <time>2021-02-13T10:56:49Z</time>
      </trkpt>
      <trkpt lat="38.917027" lon="-5.7763553">
        <ele>360.0</ele>
        <time>2021-02-13T10:56:50Z</time>
      </trkpt>
      <trkpt lat="38.917" lon="-5.7762747">
        <ele>360.0</ele>
        <time>2021-02-13T10:56:51Z</time>
      </trkpt>
      <trkpt lat="38.916973" lon="-5.776193">
        <ele>360.0</ele>
        <time>2021-02-13T10:56:52Z</time>
      </trkpt>
      <trkpt lat="38.916943" lon="-5.7761126">
        <ele>360.0</ele>
        <time>2021-02-13T10:56:53Z</time>
      </trkpt>
      <trkpt lat="38.916916" lon="-5.7760315">
        <ele>360.0</ele>
        <time>2021-02-13T10:56:54Z</time>
      </trkpt>
      <trkpt lat="38.916893" lon="-5.775951">
        <ele>360.0</ele>
        <time>2021-02-13T10:56:55Z</time>
      </trkpt>
      <trkpt lat="38.91687" lon="-5.7758694">
        <ele>360.0</ele>
        <time>2021-02-13T10:56:56Z</time>
      </trkpt>
      <trkpt lat="38.916847" lon="-5.775787">
        <ele>360.0</ele>
        <time>2021-02-13T10:56:57Z</time>
      </trkpt>
      <trkpt lat="38.916824" lon="-5.775704">
        <ele>360.0</ele>
        <time>2021-02-13T10:56:58Z</time>
      </trkpt>
      <trkpt lat="38.916805" lon="-5.7756166">
        <ele>360.0</ele>
        <time>2021-02-13T10:56:59Z</time>
      </trkpt>
      <trkpt lat="38.916786" lon="-5.775529">
        <ele>359.0</ele>
        <time>2021-02-13T10:57:00Z</time>
      </trkpt>
      <trkpt lat="38.916763" lon="-5.7754393">
        <ele>359.0</ele>
        <time>2021-02-13T10:57:01Z</time>
      </trkpt>
      <trkpt lat="38.916744" lon="-5.7753496">
        <ele>359.0</ele>
        <time>2021-02-13T10:57:02Z</time>
      </trkpt>
      <trkpt lat="38.91672" lon="-5.775261">
        <ele>359.0</ele>
        <time>2021-02-13T10:57:03Z</time>
      </trkpt>
      <trkpt lat="38.916706" lon="-5.7751713">
        <ele>359.0</ele>
        <time>2021-02-13T10:57:04Z</time>
      </trkpt>
      <trkpt lat="38.91669" lon="-5.775082">
        <ele>359.0</ele>
        <time>2021-02-13T10:57:05Z</time>
      </trkpt>
      <trkpt lat="38.91668" lon="-5.774994">
        <ele>358.0</ele>
        <time>2021-02-13T10:57:06Z</time>
      </trkpt>
      <trkpt lat="38.916664" lon="-5.774908">
        <ele>358.0</ele>
        <time>2021-02-13T10:57:07Z</time>
      </trkpt>
      <trkpt lat="38.91665" lon="-5.774824">
        <ele>358.0</ele>
        <time>2021-02-13T10:57:08Z</time>
      </trkpt>
      <trkpt lat="38.91663" lon="-5.7747445">
        <ele>358.0</ele>
        <time>2021-02-13T10:57:09Z</time>
      </trkpt>
      <trkpt lat="38.916615" lon="-5.774668">
        <ele>358.0</ele>
        <time>2021-02-13T10:57:10Z</time>
      </trkpt>
      <trkpt lat="38.9166" lon="-5.774601">
        <ele>358.0</ele>
        <time>2021-02-13T10:57:11Z</time>
      </trkpt>
      <trkpt lat="38.91658" lon="-5.774535">
        <ele>359.0</ele>
        <time>2021-02-13T10:57:12Z</time>
      </trkpt>
      <trkpt lat="38.91656" lon="-5.7744718">
        <ele>359.0</ele>
        <time>2021-02-13T10:57:13Z</time>
      </trkpt>
      <trkpt lat="38.916546" lon="-5.7744126">
        <ele>359.0</ele>
        <time>2021-02-13T10:57:14Z</time>
      </trkpt>
      <trkpt lat="38.916527" lon="-5.7743583">
        <ele>360.0</ele>
        <time>2021-02-13T10:57:15Z</time>
      </trkpt>
      <trkpt lat="38.916504" lon="-5.7743077">
        <ele>360.0</ele>
        <time>2021-02-13T10:57:16Z</time>
      </trkpt>
      <trkpt lat="38.91649" lon="-5.7742605">
        <ele>360.0</ele>
        <time>2021-02-13T10:57:17Z</time>
      </trkpt>
      <trkpt lat="38.916473" lon="-5.774218">
        <ele>361.0</ele>
        <time>2021-02-13T10:57:18Z</time>
      </trkpt>
      <trkpt lat="38.916454" lon="-5.77418">
        <ele>361.0</ele>
        <time>2021-02-13T10:57:19Z</time>
      </trkpt>
      <trkpt lat="38.91644" lon="-5.774144">
        <ele>361.0</ele>
        <time>2021-02-13T10:57:20Z</time>
      </trkpt>
      <trkpt lat="38.916424" lon="-5.774108">
        <ele>362.0</ele>
        <time>2021-02-13T10:57:21Z</time>
      </trkpt>
      <trkpt lat="38.916412" lon="-5.774076">
        <ele>362.0</ele>
        <time>2021-02-13T10:57:22Z</time>
      </trkpt>
      <trkpt lat="38.916397" lon="-5.7740436">
        <ele>362.0</ele>
        <time>2021-02-13T10:57:23Z</time>
      </trkpt>
      <trkpt lat="38.91638" lon="-5.7740116">
        <ele>362.0</ele>
        <time>2021-02-13T10:57:24Z</time>
      </trkpt>
      <trkpt lat="38.916367" lon="-5.773978">
        <ele>362.0</ele>
        <time>2021-02-13T10:57:25Z</time>
      </trkpt>
      <trkpt lat="38.91635" lon="-5.7739444">
        <ele>363.0</ele>
        <time>2021-02-13T10:57:26Z</time>
      </trkpt>
      <trkpt lat="38.91634" lon="-5.7739124">
        <ele>363.0</ele>
        <time>2021-02-13T10:57:27Z</time>
      </trkpt>
      <trkpt lat="38.916325" lon="-5.7738805">
        <ele>363.0</ele>
        <time>2021-02-13T10:57:28Z</time>
      </trkpt>
      <trkpt lat="38.916313" lon="-5.7738485">
        <ele>363.0</ele>
        <time>2021-02-13T10:57:29Z</time>
      </trkpt>
      <trkpt lat="38.9163" lon="-5.773816">
        <ele>363.0</ele>
        <time>2021-02-13T10:57:30Z</time>
      </trkpt>
      <trkpt lat="38.916294" lon="-5.773786">
        <ele>363.0</ele>
        <time>2021-02-13T10:57:31Z</time>
      </trkpt>
      <trkpt lat="38.916286" lon="-5.773758">
        <ele>363.0</ele>
        <time>2021-02-13T10:57:32Z</time>
      </trkpt>
      <trkpt lat="38.91628" lon="-5.7737293">
        <ele>364.0</ele>
        <time>2021-02-13T10:57:33Z</time>
      </trkpt>
      <trkpt lat="38.916267" lon="-5.7736983">
        <ele>364.0</ele>
        <time>2021-02-13T10:57:34Z</time>
      </trkpt>
      <trkpt lat="38.916256" lon="-5.7736692">
        <ele>364.0</ele>
        <time>2021-02-13T10:57:35Z</time>
      </trkpt>
      <trkpt lat="38.91625" lon="-5.773642">
        <ele>364.0</ele>
        <time>2021-02-13T10:57:36Z</time>
      </trkpt>
      <trkpt lat="38.91624" lon="-5.7736135">
        <ele>365.0</ele>
        <time>2021-02-13T10:57:37Z</time>
      </trkpt>
      <trkpt lat="38.91623" lon="-5.7735834">
        <ele>365.0</ele>
        <time>2021-02-13T10:57:38Z</time>
      </trkpt>
      <trkpt lat="38.91622" lon="-5.7735567">
        <ele>365.0</ele>
        <time>2021-02-13T10:57:39Z</time>
      </trkpt>
      <trkpt lat="38.916214" lon="-5.773527">
        <ele>365.0</ele>
        <time>2021-02-13T10:57:40Z</time>
      </trkpt>
      <trkpt lat="38.916206" lon="-5.7735">
        <ele>365.0</ele>
        <time>2021-02-13T10:57:41Z</time>
      </trkpt>
      <trkpt lat="38.916203" lon="-5.773472">
        <ele>366.0</ele>
        <time>2021-02-13T10:57:42Z</time>
      </trkpt>
      <trkpt lat="38.91619" lon="-5.77344">
        <ele>366.0</ele>
        <time>2021-02-13T10:57:43Z</time>
      </trkpt>
      <trkpt lat="38.91618" lon="-5.77341">
        <ele>366.0</ele>
        <time>2021-02-13T10:57:44Z</time>
      </trkpt>
      <trkpt lat="38.916172" lon="-5.77338">
        <ele>366.0</ele>
        <time>2021-02-13T10:57:45Z</time>
      </trkpt>
      <trkpt lat="38.916164" lon="-5.7733493">
        <ele>366.0</ele>
        <time>2021-02-13T10:57:46Z</time>
      </trkpt>
      <trkpt lat="38.916157" lon="-5.7733183">
        <ele>367.0</ele>
        <time>2021-02-13T10:57:47Z</time>
      </trkpt>
      <trkpt lat="38.916145" lon="-5.773288">
        <ele>367.0</ele>
        <time>2021-02-13T10:57:48Z</time>
      </trkpt>
      <trkpt lat="38.916138" lon="-5.773258">
        <ele>367.0</ele>
        <time>2021-02-13T10:57:49Z</time>
      </trkpt>
      <trkpt lat="38.91613" lon="-5.773228">
        <ele>367.0</ele>
        <time>2021-02-13T10:57:50Z</time>
      </trkpt>
      <trkpt lat="38.916122" lon="-5.773196">
        <ele>367.0</ele>
        <time>2021-02-13T10:57:51Z</time>
      </trkpt>
      <trkpt lat="38.916115" lon="-5.773163">
        <ele>367.0</ele>
        <time>2021-02-13T10:57:52Z</time>
      </trkpt>
      <trkpt lat="38.916103" lon="-5.7731276">
        <ele>368.0</ele>
        <time>2021-02-13T10:57:53Z</time>
      </trkpt>
      <trkpt lat="38.916096" lon="-5.773093">
        <ele>368.0</ele>
        <time>2021-02-13T10:57:54Z</time>
      </trkpt>
      <trkpt lat="38.916084" lon="-5.77306">
        <ele>368.0</ele>
        <time>2021-02-13T10:57:55Z</time>
      </trkpt>
      <trkpt lat="38.916077" lon="-5.773026">
        <ele>368.0</ele>
        <time>2021-02-13T10:57:56Z</time>
      </trkpt>
      <trkpt lat="38.916065" lon="-5.772993">
        <ele>368.0</ele>
        <time>2021-02-13T10:57:57Z</time>
      </trkpt>
      <trkpt lat="38.916054" lon="-5.7729588">
        <ele>369.0</ele>
        <time>2021-02-13T10:57:58Z</time>
      </trkpt>
      <trkpt lat="38.916042" lon="-5.7729235">
        <ele>369.0</ele>
        <time>2021-02-13T10:57:59Z</time>
      </trkpt>
      <trkpt lat="38.91603" lon="-5.772891">
        <ele>369.0</ele>
        <time>2021-02-13T10:58:00Z</time>
      </trkpt>
      <trkpt lat="38.91602" lon="-5.7728577">
        <ele>369.0</ele>
        <time>2021-02-13T10:58:01Z</time>
      </trkpt>
      <trkpt lat="38.916008" lon="-5.7728276">
        <ele>369.0</ele>
        <time>2021-02-13T10:58:02Z</time>
      </trkpt>
      <trkpt lat="38.915997" lon="-5.772794">
        <ele>369.0</ele>
        <time>2021-02-13T10:58:03Z</time>
      </trkpt>
      <trkpt lat="38.915985" lon="-5.772759">
        <ele>369.0</ele>
        <time>2021-02-13T10:58:04Z</time>
      </trkpt>
      <trkpt lat="38.915977" lon="-5.772721">
        <ele>369.0</ele>
        <time>2021-02-13T10:58:05Z</time>
      </trkpt>
      <trkpt lat="38.915966" lon="-5.7726846">
        <ele>369.0</ele>
        <time>2021-02-13T10:58:06Z</time>
      </trkpt>
      <trkpt lat="38.915955" lon="-5.772648">
        <ele>369.0</ele>
        <time>2021-02-13T10:58:07Z</time>
      </trkpt>
      <trkpt lat="38.915943" lon="-5.7726126">
        <ele>370.0</ele>
        <time>2021-02-13T10:58:08Z</time>
      </trkpt>
      <trkpt lat="38.91593" lon="-5.772579">
        <ele>370.0</ele>
        <time>2021-02-13T10:58:09Z</time>
      </trkpt>
      <trkpt lat="38.91592" lon="-5.7725506">
        <ele>370.0</ele>
        <time>2021-02-13T10:58:10Z</time>
      </trkpt>
      <trkpt lat="38.915913" lon="-5.7725224">
        <ele>370.0</ele>
        <time>2021-02-13T10:58:11Z</time>
      </trkpt>
      <trkpt lat="38.9159" lon="-5.7724915">
        <ele>371.0</ele>
        <time>2021-02-13T10:58:12Z</time>
      </trkpt>
      <trkpt lat="38.91589" lon="-5.772462">
        <ele>371.0</ele>
        <time>2021-02-13T10:58:13Z</time>
      </trkpt>
      <trkpt lat="38.915882" lon="-5.7724347">
        <ele>371.0</ele>
        <time>2021-02-13T10:58:14Z</time>
      </trkpt>
      <trkpt lat="38.915874" lon="-5.7724056">
        <ele>371.0</ele>
        <time>2021-02-13T10:58:15Z</time>
      </trkpt>
      <trkpt lat="38.915863" lon="-5.7723746">
        <ele>372.0</ele>
        <time>2021-02-13T10:58:16Z</time>
      </trkpt>
      <trkpt lat="38.915855" lon="-5.7723436">
        <ele>372.0</ele>
        <time>2021-02-13T10:58:17Z</time>
      </trkpt>
      <trkpt lat="38.915844" lon="-5.772313">
        <ele>372.0</ele>
        <time>2021-02-13T10:58:18Z</time>
      </trkpt>
      <trkpt lat="38.915836" lon="-5.772285">
        <ele>372.0</ele>
        <time>2021-02-13T10:58:19Z</time>
      </trkpt>
      <trkpt lat="38.91583" lon="-5.772256">
        <ele>372.0</ele>
        <time>2021-02-13T10:58:20Z</time>
      </trkpt>
      <trkpt lat="38.91582" lon="-5.772226">
        <ele>373.0</ele>
        <time>2021-02-13T10:58:21Z</time>
      </trkpt>
      <trkpt lat="38.915813" lon="-5.772196">
        <ele>373.0</ele>
        <time>2021-02-13T10:58:22Z</time>
      </trkpt>
      <trkpt lat="38.915802" lon="-5.7721653">
        <ele>373.0</ele>
        <time>2021-02-13T10:58:23Z</time>
      </trkpt>
      <trkpt lat="38.915794" lon="-5.7721376">
        <ele>373.0</ele>
        <time>2021-02-13T10:58:24Z</time>
      </trkpt>
      <trkpt lat="38.915783" lon="-5.7721076">
        <ele>374.0</ele>
        <time>2021-02-13T10:58:25Z</time>
      </trkpt>
      <trkpt lat="38.915775" lon="-5.772076">
        <ele>374.0</ele>
        <time>2021-02-13T10:58:26Z</time>
      </trkpt>
      <trkpt lat="38.915768" lon="-5.7720437">
        <ele>374.0</ele>
        <time>2021-02-13T10:58:27Z</time>
      </trkpt>
      <trkpt lat="38.91576" lon="-5.7720103">
        <ele>374.0</ele>
        <time>2021-02-13T10:58:28Z</time>
      </trkpt>
      <trkpt lat="38.915752" lon="-5.771979">
        <ele>375.0</ele>
        <time>2021-02-13T10:58:29Z</time>
      </trkpt>
      <trkpt lat="38.91574" lon="-5.7719474">
        <ele>375.0</ele>
        <time>2021-02-13T10:58:30Z</time>
      </trkpt>
      <trkpt lat="38.915733" lon="-5.771915">
        <ele>375.0</ele>
        <time>2021-02-13T10:58:31Z</time>
      </trkpt>
      <trkpt lat="38.915718" lon="-5.771882">
        <ele>375.0</ele>
        <time>2021-02-13T10:58:32Z</time>
      </trkpt>
      <trkpt lat="38.91571" lon="-5.7718496">
        <ele>375.0</ele>
        <time>2021-02-13T10:58:33Z</time>
      </trkpt>
      <trkpt lat="38.9157" lon="-5.7718177">
        <ele>375.0</ele>
        <time>2021-02-13T10:58:34Z</time>
      </trkpt>
      <trkpt lat="38.915688" lon="-5.771786">
        <ele>375.0</ele>
        <time>2021-02-13T10:58:35Z</time>
      </trkpt>
      <trkpt lat="38.915672" lon="-5.7717557">
        <ele>375.0</ele>
        <time>2021-02-13T10:58:36Z</time>
      </trkpt>
      <trkpt lat="38.91566" lon="-5.7717257">
        <ele>375.0</ele>
        <time>2021-02-13T10:58:37Z</time>
      </trkpt>
      <trkpt lat="38.915646" lon="-5.771697">
        <ele>375.0</ele>
        <time>2021-02-13T10:58:38Z</time>
      </trkpt>
      <trkpt lat="38.91563" lon="-5.771669">
        <ele>376.0</ele>
        <time>2021-02-13T10:58:39Z</time>
      </trkpt>
      <trkpt lat="38.915615" lon="-5.77164">
        <ele>376.0</ele>
        <time>2021-02-13T10:58:40Z</time>
      </trkpt>
      <trkpt lat="38.9156" lon="-5.7716136">
        <ele>376.0</ele>
        <time>2021-02-13T10:58:41Z</time>
      </trkpt>
      <trkpt lat="38.91558" lon="-5.7715855">
        <ele>376.0</ele>
        <time>2021-02-13T10:58:42Z</time>
      </trkpt>
      <trkpt lat="38.91556" lon="-5.77156">
        <ele>377.0</ele>
        <time>2021-02-13T10:58:43Z</time>
      </trkpt>
      <trkpt lat="38.915543" lon="-5.771535">
        <ele>377.0</ele>
        <time>2021-02-13T10:58:44Z</time>
      </trkpt>
      <trkpt lat="38.915524" lon="-5.7715106">
        <ele>377.0</ele>
        <time>2021-02-13T10:58:45Z</time>
      </trkpt>
      <trkpt lat="38.91551" lon="-5.7714868">
        <ele>377.0</ele>
        <time>2021-02-13T10:58:46Z</time>
      </trkpt>
      <trkpt lat="38.915485" lon="-5.7714663">
        <ele>377.0</ele>
        <time>2021-02-13T10:58:47Z</time>
      </trkpt>
      <trkpt lat="38.91547" lon="-5.7714453">
        <ele>377.0</ele>
        <time>2021-02-13T10:58:48Z</time>
      </trkpt>
      <trkpt lat="38.915447" lon="-5.7714233">
        <ele>378.0</ele>
        <time>2021-02-13T10:58:49Z</time>
      </trkpt>
      <trkpt lat="38.91543" lon="-5.771403">
        <ele>378.0</ele>
        <time>2021-02-13T10:58:50Z</time>
      </trkpt>
      <trkpt lat="38.91541" lon="-5.771384">
        <ele>378.0</ele>
        <time>2021-02-13T10:58:51Z</time>
      </trkpt>
      <trkpt lat="38.915386" lon="-5.7713666">
        <ele>378.0</ele>
        <time>2021-02-13T10:58:52Z</time>
      </trkpt>
      <trkpt lat="38.915367" lon="-5.77135">
        <ele>378.0</ele>
        <time>2021-02-13T10:58:53Z</time>
      </trkpt>
      <trkpt lat="38.91535" lon="-5.7713337">
        <ele>379.0</ele>
        <time>2021-02-13T10:58:54Z</time>
      </trkpt>
      <trkpt lat="38.91533" lon="-5.7713165">
        <ele>379.0</ele>
        <time>2021-02-13T10:58:55Z</time>
      </trkpt>
      <trkpt lat="38.915314" lon="-5.771303">
        <ele>379.0</ele>
        <time>2021-02-13T10:58:56Z</time>
      </trkpt>
      <trkpt lat="38.915295" lon="-5.77129">
        <ele>379.0</ele>
        <time>2021-02-13T10:58:57Z</time>
      </trkpt>
      <trkpt lat="38.915276" lon="-5.771275">
        <ele>379.0</ele>
        <time>2021-02-13T10:58:58Z</time>
      </trkpt>
      <trkpt lat="38.915257" lon="-5.7712603">
        <ele>380.0</ele>
        <time>2021-02-13T10:58:59Z</time>
      </trkpt>
      <trkpt lat="38.915237" lon="-5.7712436">
        <ele>380.0</ele>
        <time>2021-02-13T10:59:00Z</time>
      </trkpt>
      <trkpt lat="38.915215" lon="-5.7712274">
        <ele>380.0</ele>
        <time>2021-02-13T10:59:01Z</time>
      </trkpt>
      <trkpt lat="38.9152" lon="-5.7712107">
        <ele>380.0</ele>
        <time>2021-02-13T10:59:02Z</time>
      </trkpt>
      <trkpt lat="38.915176" lon="-5.771193">
        <ele>380.0</ele>
        <time>2021-02-13T10:59:03Z</time>
      </trkpt>
      <trkpt lat="38.915157" lon="-5.7711744">
        <ele>380.0</ele>
        <time>2021-02-13T10:59:04Z</time>
      </trkpt>
      <trkpt lat="38.915142" lon="-5.771156">
        <ele>380.0</ele>
        <time>2021-02-13T10:59:05Z</time>
      </trkpt>
      <trkpt lat="38.915127" lon="-5.771137">
        <ele>381.0</ele>
        <time>2021-02-13T10:59:06Z</time>
      </trkpt>
      <trkpt lat="38.915115" lon="-5.7711186">
        <ele>381.0</ele>
        <time>2021-02-13T10:59:07Z</time>
      </trkpt>
      <trkpt lat="38.915104" lon="-5.7711">
        <ele>381.0</ele>
        <time>2021-02-13T10:59:08Z</time>
      </trkpt>
      <trkpt lat="38.91509" lon="-5.771081">
        <ele>381.0</ele>
        <time>2021-02-13T10:59:09Z</time>
      </trkpt>
      <trkpt lat="38.91508" lon="-5.771061">
        <ele>381.0</ele>
        <time>2021-02-13T10:59:10Z</time>
      </trkpt>
      <trkpt lat="38.91507" lon="-5.7710395">
        <ele>381.0</ele>
        <time>2021-02-13T10:59:11Z</time>
      </trkpt>
      <trkpt lat="38.91506" lon="-5.7710176">
        <ele>381.0</ele>
        <time>2021-02-13T10:59:12Z</time>
      </trkpt>
      <trkpt lat="38.91505" lon="-5.7709947">
        <ele>382.0</ele>
        <time>2021-02-13T10:59:13Z</time>
      </trkpt>
      <trkpt lat="38.915043" lon="-5.770974">
        <ele>382.0</ele>
        <time>2021-02-13T10:59:14Z</time>
      </trkpt>
      <trkpt lat="38.915035" lon="-5.770954">
        <ele>382.0</ele>
        <time>2021-02-13T10:59:15Z</time>
      </trkpt>
      <trkpt lat="38.915028" lon="-5.7709365">
        <ele>382.0</ele>
        <time>2021-02-13T10:59:16Z</time>
      </trkpt>
      <trkpt lat="38.91502" lon="-5.7709184">
        <ele>382.0</ele>
        <time>2021-02-13T10:59:17Z</time>
      </trkpt>
      <trkpt lat="38.915012" lon="-5.7708983">
        <ele>382.0</ele>
        <time>2021-02-13T10:59:18Z</time>
      </trkpt>
      <trkpt lat="38.915005" lon="-5.770879">
        <ele>382.0</ele>
        <time>2021-02-13T10:59:19Z</time>
      </trkpt>
      <trkpt lat="38.914997" lon="-5.7708616">
        <ele>382.0</ele>
        <time>2021-02-13T10:59:20Z</time>
      </trkpt>
      <trkpt lat="38.91499" lon="-5.770843">
        <ele>382.0</ele>
        <time>2021-02-13T10:59:21Z</time>
      </trkpt>
      <trkpt lat="38.914986" lon="-5.7708235">
        <ele>382.0</ele>
        <time>2021-02-13T10:59:22Z</time>
      </trkpt>
      <trkpt lat="38.914978" lon="-5.7708063">
        <ele>383.0</ele>
        <time>2021-02-13T10:59:23Z</time>
      </trkpt>
      <trkpt lat="38.91497" lon="-5.7707872">
        <ele>383.0</ele>
        <time>2021-02-13T10:59:24Z</time>
      </trkpt>
      <trkpt lat="38.914963" lon="-5.7707686">
        <ele>383.0</ele>
        <time>2021-02-13T10:59:25Z</time>
      </trkpt>
      <trkpt lat="38.91496" lon="-5.7707505">
        <ele>383.0</ele>
        <time>2021-02-13T10:59:26Z</time>
      </trkpt>
      <trkpt lat="38.914955" lon="-5.7707334">
        <ele>384.0</ele>
        <time>2021-02-13T10:59:27Z</time>
      </trkpt>
      <trkpt lat="38.91495" lon="-5.7707157">
        <ele>384.0</ele>
        <time>2021-02-13T10:59:28Z</time>
      </trkpt>
      <trkpt lat="38.914944" lon="-5.770699">
        <ele>384.0</ele>
        <time>2021-02-13T10:59:29Z</time>
      </trkpt>
      <trkpt lat="38.91494" lon="-5.770681">
        <ele>384.0</ele>
        <time>2021-02-13T10:59:30Z</time>
      </trkpt>
      <trkpt lat="38.914932" lon="-5.7706604">
        <ele>385.0</ele>
        <time>2021-02-13T10:59:31Z</time>
      </trkpt>
      <trkpt lat="38.91493" lon="-5.770642">
        <ele>385.0</ele>
        <time>2021-02-13T10:59:32Z</time>
      </trkpt>
      <trkpt lat="38.914925" lon="-5.770621">
        <ele>385.0</ele>
        <time>2021-02-13T10:59:33Z</time>
      </trkpt>
      <trkpt lat="38.91492" lon="-5.770599">
        <ele>385.0</ele>
        <time>2021-02-13T10:59:34Z</time>
      </trkpt>
      <trkpt lat="38.914917" lon="-5.7705755">
        <ele>386.0</ele>
        <time>2021-02-13T10:59:35Z</time>
      </trkpt>
      <trkpt lat="38.914917" lon="-5.770554">
        <ele>386.0</ele>
        <time>2021-02-13T10:59:36Z</time>
      </trkpt>
      <trkpt lat="38.91491" lon="-5.7705326">
        <ele>386.0</ele>
        <time>2021-02-13T10:59:37Z</time>
      </trkpt>
      <trkpt lat="38.9149" lon="-5.7705092">
        <ele>386.0</ele>
        <time>2021-02-13T10:59:38Z</time>
      </trkpt>
      <trkpt lat="38.914898" lon="-5.7704864">
        <ele>387.0</ele>
        <time>2021-02-13T10:59:39Z</time>
      </trkpt>
      <trkpt lat="38.914894" lon="-5.7704644">
        <ele>387.0</ele>
        <time>2021-02-13T10:59:40Z</time>
      </trkpt>
      <trkpt lat="38.914886" lon="-5.770443">
        <ele>387.0</ele>
        <time>2021-02-13T10:59:41Z</time>
      </trkpt>
      <trkpt lat="38.91488" lon="-5.770421">
        <ele>387.0</ele>
        <time>2021-02-13T10:59:42Z</time>
      </trkpt>
      <trkpt lat="38.91487" lon="-5.7703986">
        <ele>387.0</ele>
        <time>2021-02-13T10:59:43Z</time>
      </trkpt>
      <trkpt lat="38.914864" lon="-5.7703776">
        <ele>388.0</ele>
        <time>2021-02-13T10:59:44Z</time>
      </trkpt>
      <trkpt lat="38.914856" lon="-5.7703567">
        <ele>388.0</ele>
        <time>2021-02-13T10:59:45Z</time>
      </trkpt>
      <trkpt lat="38.91485" lon="-5.770336">
        <ele>388.0</ele>
        <time>2021-02-13T10:59:46Z</time>
      </trkpt>
      <trkpt lat="38.914837" lon="-5.770313">
        <ele>388.0</ele>
        <time>2021-02-13T10:59:47Z</time>
      </trkpt>
      <trkpt lat="38.91483" lon="-5.7702913">
        <ele>388.0</ele>
        <time>2021-02-13T10:59:48Z</time>
      </trkpt>
      <trkpt lat="38.91482" lon="-5.770268">
        <ele>389.0</ele>
        <time>2021-02-13T10:59:49Z</time>
      </trkpt>
      <trkpt lat="38.914818" lon="-5.7702446">
        <ele>389.0</ele>
        <time>2021-02-13T10:59:50Z</time>
      </trkpt>
      <trkpt lat="38.91481" lon="-5.7702208">
        <ele>389.0</ele>
        <time>2021-02-13T10:59:51Z</time>
      </trkpt>
      <trkpt lat="38.914803" lon="-5.7701964">
        <ele>389.0</ele>
        <time>2021-02-13T10:59:52Z</time>
      </trkpt>
      <trkpt lat="38.914795" lon="-5.7701726">
        <ele>390.0</ele>
        <time>2021-02-13T10:59:53Z</time>
      </trkpt>
      <trkpt lat="38.91479" lon="-5.7701483">
        <ele>390.0</ele>
        <time>2021-02-13T10:59:54Z</time>
      </trkpt>
      <trkpt lat="38.914783" lon="-5.7701273">
        <ele>390.0</ele>
        <time>2021-02-13T10:59:55Z</time>
      </trkpt>
      <trkpt lat="38.914776" lon="-5.7701054">
        <ele>390.0</ele>
        <time>2021-02-13T10:59:56Z</time>
      </trkpt>
      <trkpt lat="38.914772" lon="-5.7700834">
        <ele>391.0</ele>
        <time>2021-02-13T10:59:57Z</time>
      </trkpt>
      <trkpt lat="38.914764" lon="-5.77006">
        <ele>391.0</ele>
        <time>2021-02-13T10:59:58Z</time>
      </trkpt>
      <trkpt lat="38.914757" lon="-5.7700377">
        <ele>391.0</ele>
        <time>2021-02-13T10:59:59Z</time>
      </trkpt>
      <trkpt lat="38.91475" lon="-5.770015">
        <ele>391.0</ele>
        <time>2021-02-13T11:00:00Z</time>
      </trkpt>
      <trkpt lat="38.914738" lon="-5.769991">
        <ele>392.0</ele>
        <time>2021-02-13T11:00:01Z</time>
      </trkpt>
      <trkpt lat="38.91473" lon="-5.7699666">
        <ele>392.0</ele>
        <time>2021-02-13T11:00:02Z</time>
      </trkpt>
      <trkpt lat="38.914722" lon="-5.7699413">
        <ele>392.0</ele>
        <time>2021-02-13T11:00:03Z</time>
      </trkpt>
      <trkpt lat="38.914715" lon="-5.769915">
        <ele>392.0</ele>
        <time>2021-02-13T11:00:04Z</time>
      </trkpt>
      <trkpt lat="38.914707" lon="-5.769889">
        <ele>393.0</ele>
        <time>2021-02-13T11:00:05Z</time>
      </trkpt>
      <trkpt lat="38.9147" lon="-5.769861">
        <ele>393.0</ele>
        <time>2021-02-13T11:00:06Z</time>
      </trkpt>
      <trkpt lat="38.914692" lon="-5.769831">
        <ele>393.0</ele>
        <time>2021-02-13T11:00:07Z</time>
      </trkpt>
      <trkpt lat="38.91469" lon="-5.769802">
        <ele>393.0</ele>
        <time>2021-02-13T11:00:08Z</time>
      </trkpt>
      <trkpt lat="38.914684" lon="-5.7697735">
        <ele>393.0</ele>
        <time>2021-02-13T11:00:09Z</time>
      </trkpt>
      <trkpt lat="38.914677" lon="-5.7697434">
        <ele>393.0</ele>
        <time>2021-02-13T11:00:10Z</time>
      </trkpt>
      <trkpt lat="38.914677" lon="-5.7697134">
        <ele>393.0</ele>
        <time>2021-02-13T11:00:11Z</time>
      </trkpt>
      <trkpt lat="38.914673" lon="-5.7696843">
        <ele>393.0</ele>
        <time>2021-02-13T11:00:12Z</time>
      </trkpt>
      <trkpt lat="38.91467" lon="-5.769654">
        <ele>393.0</ele>
        <time>2021-02-13T11:00:13Z</time>
      </trkpt>
      <trkpt lat="38.914665" lon="-5.76962">
        <ele>393.0</ele>
        <time>2021-02-13T11:00:14Z</time>
      </trkpt>
      <trkpt lat="38.91466" lon="-5.769587">
        <ele>393.0</ele>
        <time>2021-02-13T11:00:15Z</time>
      </trkpt>
      <trkpt lat="38.91466" lon="-5.769558">
        <ele>393.0</ele>
        <time>2021-02-13T11:00:16Z</time>
      </trkpt>
      <trkpt lat="38.914658" lon="-5.7695265">
        <ele>393.0</ele>
        <time>2021-02-13T11:00:17Z</time>
      </trkpt>
      <trkpt lat="38.914654" lon="-5.769493">
        <ele>394.0</ele>
        <time>2021-02-13T11:00:18Z</time>
      </trkpt>
      <trkpt lat="38.91465" lon="-5.7694607">
        <ele>394.0</ele>
        <time>2021-02-13T11:00:19Z</time>
      </trkpt>
      <trkpt lat="38.914642" lon="-5.7694306">
        <ele>394.0</ele>
        <time>2021-02-13T11:00:20Z</time>
      </trkpt>
      <trkpt lat="38.91464" lon="-5.7694">
        <ele>394.0</ele>
        <time>2021-02-13T11:00:21Z</time>
      </trkpt>
      <trkpt lat="38.91463" lon="-5.7693696">
        <ele>394.0</ele>
        <time>2021-02-13T11:00:22Z</time>
      </trkpt>
      <trkpt lat="38.914623" lon="-5.769336">
        <ele>394.0</ele>
        <time>2021-02-13T11:00:23Z</time>
      </trkpt>
      <trkpt lat="38.914616" lon="-5.769303">
        <ele>394.0</ele>
        <time>2021-02-13T11:00:24Z</time>
      </trkpt>
      <trkpt lat="38.914604" lon="-5.769269">
        <ele>394.0</ele>
        <time>2021-02-13T11:00:25Z</time>
      </trkpt>
      <trkpt lat="38.914597" lon="-5.769237">
        <ele>394.0</ele>
        <time>2021-02-13T11:00:26Z</time>
      </trkpt>
      <trkpt lat="38.91459" lon="-5.7692056">
        <ele>394.0</ele>
        <time>2021-02-13T11:00:27Z</time>
      </trkpt>
      <trkpt lat="38.91458" lon="-5.7691746">
        <ele>395.0</ele>
        <time>2021-02-13T11:00:28Z</time>
      </trkpt>
      <trkpt lat="38.91457" lon="-5.7691426">
        <ele>395.0</ele>
        <time>2021-02-13T11:00:29Z</time>
      </trkpt>
      <trkpt lat="38.914562" lon="-5.769111">
        <ele>395.0</ele>
        <time>2021-02-13T11:00:30Z</time>
      </trkpt>
      <trkpt lat="38.914555" lon="-5.7690797">
        <ele>395.0</ele>
        <time>2021-02-13T11:00:31Z</time>
      </trkpt>
      <trkpt lat="38.91455" lon="-5.769051">
        <ele>395.0</ele>
        <time>2021-02-13T11:00:32Z</time>
      </trkpt>
      <trkpt lat="38.914543" lon="-5.7690215">
        <ele>396.0</ele>
        <time>2021-02-13T11:00:33Z</time>
      </trkpt>
      <trkpt lat="38.914536" lon="-5.7689934">
        <ele>396.0</ele>
        <time>2021-02-13T11:00:34Z</time>
      </trkpt>
      <trkpt lat="38.91453" lon="-5.768966">
        <ele>396.0</ele>
        <time>2021-02-13T11:00:35Z</time>
      </trkpt>
      <trkpt lat="38.914528" lon="-5.7689414">
        <ele>396.0</ele>
        <time>2021-02-13T11:00:35Z</time>
      </trkpt>
      <trkpt lat="38.91452" lon="-5.7689166">
        <ele>397.0</ele>
        <time>2021-02-13T11:00:36Z</time>
      </trkpt>
      <trkpt lat="38.914513" lon="-5.7688923">
        <ele>397.0</ele>
        <time>2021-02-13T11:00:37Z</time>
      </trkpt>
      <trkpt lat="38.91451" lon="-5.7688684">
        <ele>397.0</ele>
        <time>2021-02-13T11:00:38Z</time>
      </trkpt>
      <trkpt lat="38.9145" lon="-5.7688446">
        <ele>397.0</ele>
        <time>2021-02-13T11:00:39Z</time>
      </trkpt>
      <trkpt lat="38.914497" lon="-5.7688212">
        <ele>398.0</ele>
        <time>2021-02-13T11:00:40Z</time>
      </trkpt>
      <trkpt lat="38.91449" lon="-5.768797">
        <ele>398.0</ele>
        <time>2021-02-13T11:00:41Z</time>
      </trkpt>
      <trkpt lat="38.914482" lon="-5.7687716">
        <ele>398.0</ele>
        <time>2021-02-13T11:00:42Z</time>
      </trkpt>
      <trkpt lat="38.914474" lon="-5.7687464">
        <ele>398.0</ele>
        <time>2021-02-13T11:00:43Z</time>
      </trkpt>
      <trkpt lat="38.914467" lon="-5.76872">
        <ele>398.0</ele>
        <time>2021-02-13T11:00:44Z</time>
      </trkpt>
      <trkpt lat="38.914455" lon="-5.7686944">
        <ele>399.0</ele>
        <time>2021-02-13T11:00:45Z</time>
      </trkpt>
      <trkpt lat="38.914448" lon="-5.7686687">
        <ele>399.0</ele>
        <time>2021-02-13T11:00:46Z</time>
      </trkpt>
      <trkpt lat="38.91444" lon="-5.7686434">
        <ele>399.0</ele>
        <time>2021-02-13T11:00:47Z</time>
      </trkpt>
      <trkpt lat="38.914433" lon="-5.768617">
        <ele>399.0</ele>
        <time>2021-02-13T11:00:48Z</time>
      </trkpt>
      <trkpt lat="38.91442" lon="-5.76859">
        <ele>399.0</ele>
        <time>2021-02-13T11:00:49Z</time>
      </trkpt>
      <trkpt lat="38.914413" lon="-5.7685633">
        <ele>400.0</ele>
        <time>2021-02-13T11:00:50Z</time>
      </trkpt>
      <trkpt lat="38.91441" lon="-5.768536">
        <ele>400.0</ele>
        <time>2021-02-13T11:00:51Z</time>
      </trkpt>
      <trkpt lat="38.914402" lon="-5.768509">
        <ele>400.0</ele>
        <time>2021-02-13T11:00:52Z</time>
      </trkpt>
      <trkpt lat="38.91439" lon="-5.7684817">
        <ele>400.0</ele>
        <time>2021-02-13T11:00:53Z</time>
      </trkpt>
      <trkpt lat="38.91438" lon="-5.7684546">
        <ele>400.0</ele>
        <time>2021-02-13T11:00:54Z</time>
      </trkpt>
      <trkpt lat="38.91437" lon="-5.768427">
        <ele>401.0</ele>
        <time>2021-02-13T11:00:55Z</time>
      </trkpt>
      <trkpt lat="38.914364" lon="-5.7683983">
        <ele>401.0</ele>
        <time>2021-02-13T11:00:56Z</time>
      </trkpt>
      <trkpt lat="38.914356" lon="-5.7683687">
        <ele>401.0</ele>
        <time>2021-02-13T11:00:57Z</time>
      </trkpt>
      <trkpt lat="38.91435" lon="-5.7683387">
        <ele>401.0</ele>
        <time>2021-02-13T11:00:58Z</time>
      </trkpt>
      <trkpt lat="38.91434" lon="-5.7683086">
        <ele>401.0</ele>
        <time>2021-02-13T11:00:59Z</time>
      </trkpt>
      <trkpt lat="38.914333" lon="-5.7682796">
        <ele>401.0</ele>
        <time>2021-02-13T11:01:00Z</time>
      </trkpt>
      <trkpt lat="38.914326" lon="-5.7682495">
        <ele>401.0</ele>
        <time>2021-02-13T11:01:01Z</time>
      </trkpt>
      <trkpt lat="38.914318" lon="-5.76822">
        <ele>401.0</ele>
        <time>2021-02-13T11:01:02Z</time>
      </trkpt>
      <trkpt lat="38.91431" lon="-5.76819">
        <ele>402.0</ele>
        <time>2021-02-13T11:01:03Z</time>
      </trkpt>
      <trkpt lat="38.914303" lon="-5.76816">
        <ele>402.0</ele>
        <time>2021-02-13T11:01:04Z</time>
      </trkpt>
      <trkpt lat="38.914295" lon="-5.768131">
        <ele>402.0</ele>
        <time>2021-02-13T11:01:05Z</time>
      </trkpt>
      <trkpt lat="38.914288" lon="-5.768102">
        <ele>402.0</ele>
        <time>2021-02-13T11:01:06Z</time>
      </trkpt>
      <trkpt lat="38.91428" lon="-5.768073">
        <ele>402.0</ele>
        <time>2021-02-13T11:01:07Z</time>
      </trkpt>
      <trkpt lat="38.914272" lon="-5.768043">
        <ele>403.0</ele>
        <time>2021-02-13T11:01:08Z</time>
      </trkpt>
      <trkpt lat="38.91427" lon="-5.768012">
        <ele>403.0</ele>
        <time>2021-02-13T11:01:09Z</time>
      </trkpt>
      <trkpt lat="38.91426" lon="-5.7679815">
        <ele>403.0</ele>
        <time>2021-02-13T11:01:10Z</time>
      </trkpt>
      <trkpt lat="38.914257" lon="-5.7679505">
        <ele>403.0</ele>
        <time>2021-02-13T11:01:11Z</time>
      </trkpt>
      <trkpt lat="38.91425" lon="-5.7679186">
        <ele>403.0</ele>
        <time>2021-02-13T11:01:12Z</time>
      </trkpt>
      <trkpt lat="38.91424" lon="-5.7678876">
        <ele>403.0</ele>
        <time>2021-02-13T11:01:13Z</time>
      </trkpt>
      <trkpt lat="38.914234" lon="-5.7678566">
        <ele>404.0</ele>
        <time>2021-02-13T11:01:14Z</time>
      </trkpt>
      <trkpt lat="38.914227" lon="-5.767826">
        <ele>404.0</ele>
        <time>2021-02-13T11:01:15Z</time>
      </trkpt>
      <trkpt lat="38.91422" lon="-5.767795">
        <ele>404.0</ele>
        <time>2021-02-13T11:01:16Z</time>
      </trkpt>
      <trkpt lat="38.91421" lon="-5.767765">
        <ele>404.0</ele>
        <time>2021-02-13T11:01:17Z</time>
      </trkpt>
      <trkpt lat="38.9142" lon="-5.767735">
        <ele>404.0</ele>
        <time>2021-02-13T11:01:18Z</time>
      </trkpt>
      <trkpt lat="38.914192" lon="-5.7677045">
        <ele>404.0</ele>
        <time>2021-02-13T11:01:19Z</time>
      </trkpt>
      <trkpt lat="38.91419" lon="-5.7676735">
        <ele>405.0</ele>
        <time>2021-02-13T11:01:20Z</time>
      </trkpt>
      <trkpt lat="38.914177" lon="-5.767644">
        <ele>405.0</ele>
        <time>2021-02-13T11:01:21Z</time>
      </trkpt>
      <trkpt lat="38.91417" lon="-5.767615">
        <ele>405.0</ele>
        <time>2021-02-13T11:01:22Z</time>
      </trkpt>
      <trkpt lat="38.91416" lon="-5.7675858">
        <ele>405.0</ele>
        <time>2021-02-13T11:01:23Z</time>
      </trkpt>
      <trkpt lat="38.914154" lon="-5.7675586">
        <ele>405.0</ele>
        <time>2021-02-13T11:01:24Z</time>
      </trkpt>
      <trkpt lat="38.914146" lon="-5.7675304">
        <ele>406.0</ele>
        <time>2021-02-13T11:01:25Z</time>
      </trkpt>
      <trkpt lat="38.914135" lon="-5.7675023">
        <ele>406.0</ele>
        <time>2021-02-13T11:01:26Z</time>
      </trkpt>
      <trkpt lat="38.914127" lon="-5.7674737">
        <ele>406.0</ele>
        <time>2021-02-13T11:01:27Z</time>
      </trkpt>
      <trkpt lat="38.91412" lon="-5.767447">
        <ele>406.0</ele>
        <time>2021-02-13T11:01:28Z</time>
      </trkpt>
      <trkpt lat="38.91411" lon="-5.7674193">
        <ele>406.0</ele>
        <time>2021-02-13T11:01:29Z</time>
      </trkpt>
      <trkpt lat="38.9141" lon="-5.767391">
        <ele>407.0</ele>
        <time>2021-02-13T11:01:30Z</time>
      </trkpt>
      <trkpt lat="38.91409" lon="-5.767363">
        <ele>407.0</ele>
        <time>2021-02-13T11:01:31Z</time>
      </trkpt>
      <trkpt lat="38.91408" lon="-5.7673345">
        <ele>407.0</ele>
        <time>2021-02-13T11:01:32Z</time>
      </trkpt>
      <trkpt lat="38.91407" lon="-5.767307">
        <ele>407.0</ele>
        <time>2021-02-13T11:01:33Z</time>
      </trkpt>
      <trkpt lat="38.914062" lon="-5.767279">
        <ele>408.0</ele>
        <time>2021-02-13T11:01:34Z</time>
      </trkpt>
      <trkpt lat="38.91405" lon="-5.767252">
        <ele>408.0</ele>
        <time>2021-02-13T11:01:35Z</time>
      </trkpt>
      <trkpt lat="38.91404" lon="-5.7672243">
        <ele>408.0</ele>
        <time>2021-02-13T11:01:36Z</time>
      </trkpt>
      <trkpt lat="38.914032" lon="-5.7671967">
        <ele>408.0</ele>
        <time>2021-02-13T11:01:37Z</time>
      </trkpt>
      <trkpt lat="38.91402" lon="-5.7671695">
        <ele>408.0</ele>
        <time>2021-02-13T11:01:38Z</time>
      </trkpt>
      <trkpt lat="38.91401" lon="-5.7671432">
        <ele>408.0</ele>
        <time>2021-02-13T11:01:39Z</time>
      </trkpt>
      <trkpt lat="38.913998" lon="-5.7671175">
        <ele>408.0</ele>
        <time>2021-02-13T11:01:40Z</time>
      </trkpt>
      <trkpt lat="38.913986" lon="-5.767091">
        <ele>408.0</ele>
        <time>2021-02-13T11:01:41Z</time>
      </trkpt>
      <trkpt lat="38.913975" lon="-5.767062">
        <ele>409.0</ele>
        <time>2021-02-13T11:01:42Z</time>
      </trkpt>
      <trkpt lat="38.913967" lon="-5.7670355">
        <ele>409.0</ele>
        <time>2021-02-13T11:01:43Z</time>
      </trkpt>
      <trkpt lat="38.91395" lon="-5.7670093">
        <ele>409.0</ele>
        <time>2021-02-13T11:01:44Z</time>
      </trkpt>
      <trkpt lat="38.91394" lon="-5.766985">
        <ele>409.0</ele>
        <time>2021-02-13T11:01:45Z</time>
      </trkpt>
      <trkpt lat="38.91393" lon="-5.766961">
        <ele>409.0</ele>
        <time>2021-02-13T11:01:46Z</time>
      </trkpt>
      <trkpt lat="38.913914" lon="-5.7669387">
        <ele>410.0</ele>
        <time>2021-02-13T11:01:47Z</time>
      </trkpt>
      <trkpt lat="38.913902" lon="-5.766916">
        <ele>410.0</ele>
        <time>2021-02-13T11:01:48Z</time>
      </trkpt>
      <trkpt lat="38.913887" lon="-5.766893">
        <ele>410.0</ele>
        <time>2021-02-13T11:01:49Z</time>
      </trkpt>
      <trkpt lat="38.913876" lon="-5.7668695">
        <ele>411.0</ele>
        <time>2021-02-13T11:01:50Z</time>
      </trkpt>
      <trkpt lat="38.91386" lon="-5.7668467">
        <ele>411.0</ele>
        <time>2021-02-13T11:01:51Z</time>
      </trkpt>
      <trkpt lat="38.913845" lon="-5.766824">
        <ele>411.0</ele>
        <time>2021-02-13T11:01:52Z</time>
      </trkpt>
      <trkpt lat="38.913826" lon="-5.7668">
        <ele>412.0</ele>
        <time>2021-02-13T11:01:53Z</time>
      </trkpt>
      <trkpt lat="38.913815" lon="-5.766777">
        <ele>412.0</ele>
        <time>2021-02-13T11:01:54Z</time>
      </trkpt>
      <trkpt lat="38.913803" lon="-5.7667546">
        <ele>412.0</ele>
        <time>2021-02-13T11:01:55Z</time>
      </trkpt>
      <trkpt lat="38.913788" lon="-5.766732">
        <ele>412.0</ele>
        <time>2021-02-13T11:01:56Z</time>
      </trkpt>
      <trkpt lat="38.913776" lon="-5.7667103">
        <ele>412.0</ele>
        <time>2021-02-13T11:01:57Z</time>
      </trkpt>
      <trkpt lat="38.91376" lon="-5.766691">
        <ele>412.0</ele>
        <time>2021-02-13T11:01:58Z</time>
      </trkpt>
      <trkpt lat="38.91375" lon="-5.766674">
        <ele>412.0</ele>
        <time>2021-02-13T11:01:59Z</time>
      </trkpt>
      <trkpt lat="38.91374" lon="-5.7666574">
        <ele>413.0</ele>
        <time>2021-02-13T11:02:00Z</time>
      </trkpt>
      <trkpt lat="38.913727" lon="-5.766642">
        <ele>413.0</ele>
        <time>2021-02-13T11:02:01Z</time>
      </trkpt>
      <trkpt lat="38.913715" lon="-5.766628">
        <ele>413.0</ele>
        <time>2021-02-13T11:02:02Z</time>
      </trkpt>
      <trkpt lat="38.913704" lon="-5.766612">
        <ele>413.0</ele>
        <time>2021-02-13T11:02:03Z</time>
      </trkpt>
      <trkpt lat="38.91369" lon="-5.7665954">
        <ele>413.0</ele>
        <time>2021-02-13T11:02:04Z</time>
      </trkpt>
      <trkpt lat="38.913673" lon="-5.7665777">
        <ele>414.0</ele>
        <time>2021-02-13T11:02:05Z</time>
      </trkpt>
      <trkpt lat="38.913662" lon="-5.7665586">
        <ele>414.0</ele>
        <time>2021-02-13T11:02:06Z</time>
      </trkpt>
      <trkpt lat="38.91365" lon="-5.766538">
        <ele>414.0</ele>
        <time>2021-02-13T11:02:07Z</time>
      </trkpt>
      <trkpt lat="38.91364" lon="-5.7665186">
        <ele>414.0</ele>
        <time>2021-02-13T11:02:08Z</time>
      </trkpt>
      <trkpt lat="38.913624" lon="-5.7664986">
        <ele>414.0</ele>
        <time>2021-02-13T11:02:09Z</time>
      </trkpt>
      <trkpt lat="38.913612" lon="-5.766478">
        <ele>415.0</ele>
        <time>2021-02-13T11:02:10Z</time>
      </trkpt>
      <trkpt lat="38.9136" lon="-5.766454">
        <ele>415.0</ele>
        <time>2021-02-13T11:02:11Z</time>
      </trkpt>
      <trkpt lat="38.913593" lon="-5.766432">
        <ele>415.0</ele>
        <time>2021-02-13T11:02:12Z</time>
      </trkpt>
      <trkpt lat="38.91358" lon="-5.7664104">
        <ele>415.0</ele>
        <time>2021-02-13T11:02:13Z</time>
      </trkpt>
      <trkpt lat="38.91357" lon="-5.766388">
        <ele>415.0</ele>
        <time>2021-02-13T11:02:14Z</time>
      </trkpt>
      <trkpt lat="38.91356" lon="-5.7663636">
        <ele>416.0</ele>
        <time>2021-02-13T11:02:15Z</time>
      </trkpt>
      <trkpt lat="38.913548" lon="-5.7663393">
        <ele>416.0</ele>
        <time>2021-02-13T11:02:16Z</time>
      </trkpt>
      <trkpt lat="38.91354" lon="-5.766315">
        <ele>416.0</ele>
        <time>2021-02-13T11:02:17Z</time>
      </trkpt>
      <trkpt lat="38.913532" lon="-5.766289">
        <ele>416.0</ele>
        <time>2021-02-13T11:02:18Z</time>
      </trkpt>
      <trkpt lat="38.913525" lon="-5.7662616">
        <ele>416.0</ele>
        <time>2021-02-13T11:02:19Z</time>
      </trkpt>
      <trkpt lat="38.913517" lon="-5.7662334">
        <ele>416.0</ele>
        <time>2021-02-13T11:02:20Z</time>
      </trkpt>
      <trkpt lat="38.913506" lon="-5.766207">
        <ele>416.0</ele>
        <time>2021-02-13T11:02:21Z</time>
      </trkpt>
      <trkpt lat="38.913498" lon="-5.76618">
        <ele>416.0</ele>
        <time>2021-02-13T11:02:22Z</time>
      </trkpt>
      <trkpt lat="38.913486" lon="-5.766154">
        <ele>416.0</ele>
        <time>2021-02-13T11:02:23Z</time>
      </trkpt>
      <trkpt lat="38.91348" lon="-5.7661266">
        <ele>416.0</ele>
        <time>2021-02-13T11:02:24Z</time>
      </trkpt>
      <trkpt lat="38.913467" lon="-5.7661">
        <ele>417.0</ele>
        <time>2021-02-13T11:02:25Z</time>
      </trkpt>
      <trkpt lat="38.913456" lon="-5.7660747">
        <ele>417.0</ele>
        <time>2021-02-13T11:02:26Z</time>
      </trkpt>
      <trkpt lat="38.913445" lon="-5.7660494">
        <ele>417.0</ele>
        <time>2021-02-13T11:02:27Z</time>
      </trkpt>
      <trkpt lat="38.913437" lon="-5.7660236">
        <ele>417.0</ele>
        <time>2021-02-13T11:02:28Z</time>
      </trkpt>
      <trkpt lat="38.913425" lon="-5.765999">
        <ele>417.0</ele>
        <time>2021-02-13T11:02:29Z</time>
      </trkpt>
      <trkpt lat="38.913418" lon="-5.7659736">
        <ele>418.0</ele>
        <time>2021-02-13T11:02:30Z</time>
      </trkpt>
      <trkpt lat="38.913406" lon="-5.7659492">
        <ele>418.0</ele>
        <time>2021-02-13T11:02:31Z</time>
      </trkpt>
      <trkpt lat="38.9134" lon="-5.7659245">
        <ele>418.0</ele>
        <time>2021-02-13T11:02:32Z</time>
      </trkpt>
      <trkpt lat="38.913387" lon="-5.7658997">
        <ele>418.0</ele>
        <time>2021-02-13T11:02:33Z</time>
      </trkpt>
      <trkpt lat="38.913376" lon="-5.7658753">
        <ele>418.0</ele>
        <time>2021-02-13T11:02:34Z</time>
      </trkpt>
      <trkpt lat="38.91337" lon="-5.76585">
        <ele>419.0</ele>
        <time>2021-02-13T11:02:35Z</time>
      </trkpt>
      <trkpt lat="38.91336" lon="-5.765824">
        <ele>419.0</ele>
        <time>2021-02-13T11:02:36Z</time>
      </trkpt>
      <trkpt lat="38.91335" lon="-5.7657976">
        <ele>419.0</ele>
        <time>2021-02-13T11:02:37Z</time>
      </trkpt>
      <trkpt lat="38.913338" lon="-5.7657685">
        <ele>419.0</ele>
        <time>2021-02-13T11:02:38Z</time>
      </trkpt>
      <trkpt lat="38.91333" lon="-5.765738">
        <ele>419.0</ele>
        <time>2021-02-13T11:02:39Z</time>
      </trkpt>
      <trkpt lat="38.913322" lon="-5.7657113">
        <ele>419.0</ele>
        <time>2021-02-13T11:02:40Z</time>
      </trkpt>
      <trkpt lat="38.913315" lon="-5.7656837">
        <ele>420.0</ele>
        <time>2021-02-13T11:02:41Z</time>
      </trkpt>
      <trkpt lat="38.913307" lon="-5.7656555">
        <ele>420.0</ele>
        <time>2021-02-13T11:02:42Z</time>
      </trkpt>
      <trkpt lat="38.9133" lon="-5.765627">
        <ele>420.0</ele>
        <time>2021-02-13T11:02:43Z</time>
      </trkpt>
      <trkpt lat="38.91329" lon="-5.7655954">
        <ele>420.0</ele>
        <time>2021-02-13T11:02:44Z</time>
      </trkpt>
      <trkpt lat="38.913277" lon="-5.765567">
        <ele>420.0</ele>
        <time>2021-02-13T11:02:45Z</time>
      </trkpt>
      <trkpt lat="38.91327" lon="-5.7655373">
        <ele>420.0</ele>
        <time>2021-02-13T11:02:46Z</time>
      </trkpt>
      <trkpt lat="38.91326" lon="-5.765507">
        <ele>420.0</ele>
        <time>2021-02-13T11:02:47Z</time>
      </trkpt>
      <trkpt lat="38.91325" lon="-5.7654757">
        <ele>420.0</ele>
        <time>2021-02-13T11:02:48Z</time>
      </trkpt>
      <trkpt lat="38.913242" lon="-5.7654424">
        <ele>420.0</ele>
        <time>2021-02-13T11:02:49Z</time>
      </trkpt>
      <trkpt lat="38.91323" lon="-5.7654104">
        <ele>420.0</ele>
        <time>2021-02-13T11:02:50Z</time>
      </trkpt>
      <trkpt lat="38.913223" lon="-5.76538">
        <ele>420.0</ele>
        <time>2021-02-13T11:02:51Z</time>
      </trkpt>
      <trkpt lat="38.913216" lon="-5.76535">
        <ele>420.0</ele>
        <time>2021-02-13T11:02:52Z</time>
      </trkpt>
      <trkpt lat="38.91321" lon="-5.7653203">
        <ele>420.0</ele>
        <time>2021-02-13T11:02:53Z</time>
      </trkpt>
      <trkpt lat="38.913204" lon="-5.765287">
        <ele>420.0</ele>
        <time>2021-02-13T11:02:54Z</time>
      </trkpt>
      <trkpt lat="38.913197" lon="-5.765255">
        <ele>420.0</ele>
        <time>2021-02-13T11:02:55Z</time>
      </trkpt>
      <trkpt lat="38.91319" lon="-5.765221">
        <ele>420.0</ele>
        <time>2021-02-13T11:02:56Z</time>
      </trkpt>
      <trkpt lat="38.913185" lon="-5.7651844">
        <ele>420.0</ele>
        <time>2021-02-13T11:02:57Z</time>
      </trkpt>
      <trkpt lat="38.91318" lon="-5.7651467">
        <ele>420.0</ele>
        <time>2021-02-13T11:02:58Z</time>
      </trkpt>
      <trkpt lat="38.913174" lon="-5.7651076">
        <ele>420.0</ele>
        <time>2021-02-13T11:02:59Z</time>
      </trkpt>
      <trkpt lat="38.91317" lon="-5.765067">
        <ele>420.0</ele>
        <time>2021-02-13T11:03:00Z</time>
      </trkpt>
      <trkpt lat="38.913166" lon="-5.765025">
        <ele>420.0</ele>
        <time>2021-02-13T11:03:01Z</time>
      </trkpt>
      <trkpt lat="38.91316" lon="-5.7649837">
        <ele>420.0</ele>
        <time>2021-02-13T11:03:02Z</time>
      </trkpt>
      <trkpt lat="38.91316" lon="-5.764942">
        <ele>420.0</ele>
        <time>2021-02-13T11:03:03Z</time>
      </trkpt>
      <trkpt lat="38.913155" lon="-5.7648993">
        <ele>420.0</ele>
        <time>2021-02-13T11:03:04Z</time>
      </trkpt>
      <trkpt lat="38.913155" lon="-5.764855">
        <ele>420.0</ele>
        <time>2021-02-13T11:03:05Z</time>
      </trkpt>
      <trkpt lat="38.913155" lon="-5.76481">
        <ele>420.0</ele>
        <time>2021-02-13T11:03:06Z</time>
      </trkpt>
      <trkpt lat="38.913155" lon="-5.764763">
        <ele>420.0</ele>
        <time>2021-02-13T11:03:07Z</time>
      </trkpt>
      <trkpt lat="38.91316" lon="-5.7647147">
        <ele>420.0</ele>
        <time>2021-02-13T11:03:08Z</time>
      </trkpt>
      <trkpt lat="38.91316" lon="-5.7646656">
        <ele>420.0</ele>
        <time>2021-02-13T11:03:09Z</time>
      </trkpt>
      <trkpt lat="38.91316" lon="-5.7646146">
        <ele>420.0</ele>
        <time>2021-02-13T11:03:10Z</time>
      </trkpt>
      <trkpt lat="38.913162" lon="-5.764561">
        <ele>420.0</ele>
        <time>2021-02-13T11:03:11Z</time>
      </trkpt>
      <trkpt lat="38.913166" lon="-5.7645063">
        <ele>420.0</ele>
        <time>2021-02-13T11:03:12Z</time>
      </trkpt>
      <trkpt lat="38.91317" lon="-5.764451">
        <ele>420.0</ele>
        <time>2021-02-13T11:03:13Z</time>
      </trkpt>
      <trkpt lat="38.913174" lon="-5.7643957">
        <ele>420.0</ele>
        <time>2021-02-13T11:03:14Z</time>
      </trkpt>
      <trkpt lat="38.913174" lon="-5.764339">
        <ele>420.0</ele>
        <time>2021-02-13T11:03:15Z</time>
      </trkpt>
      <trkpt lat="38.913177" lon="-5.7642817">
        <ele>420.0</ele>
        <time>2021-02-13T11:03:16Z</time>
      </trkpt>
      <trkpt lat="38.91318" lon="-5.7642245">
        <ele>420.0</ele>
        <time>2021-02-13T11:03:17Z</time>
      </trkpt>
      <trkpt lat="38.91318" lon="-5.764168">
        <ele>420.0</ele>
        <time>2021-02-13T11:03:18Z</time>
      </trkpt>
      <trkpt lat="38.91318" lon="-5.7641096">
        <ele>420.0</ele>
        <time>2021-02-13T11:03:19Z</time>
      </trkpt>
      <trkpt lat="38.91318" lon="-5.76405">
        <ele>420.0</ele>
        <time>2021-02-13T11:03:20Z</time>
      </trkpt>
      <trkpt lat="38.91318" lon="-5.7639904">
        <ele>420.0</ele>
        <time>2021-02-13T11:03:21Z</time>
      </trkpt>
      <trkpt lat="38.913177" lon="-5.763931">
        <ele>420.0</ele>
        <time>2021-02-13T11:03:22Z</time>
      </trkpt>
      <trkpt lat="38.913174" lon="-5.763872">
        <ele>420.0</ele>
        <time>2021-02-13T11:03:23Z</time>
      </trkpt>
      <trkpt lat="38.913174" lon="-5.763811">
        <ele>420.0</ele>
        <time>2021-02-13T11:03:24Z</time>
      </trkpt>
      <trkpt lat="38.913166" lon="-5.7637486">
        <ele>420.0</ele>
        <time>2021-02-13T11:03:25Z</time>
      </trkpt>
      <trkpt lat="38.913162" lon="-5.763686">
        <ele>420.0</ele>
        <time>2021-02-13T11:03:26Z</time>
      </trkpt>
      <trkpt lat="38.91316" lon="-5.763624">
        <ele>420.0</ele>
        <time>2021-02-13T11:03:27Z</time>
      </trkpt>
      <trkpt lat="38.91316" lon="-5.763564">
        <ele>420.0</ele>
        <time>2021-02-13T11:03:28Z</time>
      </trkpt>
      <trkpt lat="38.913155" lon="-5.7635036">
        <ele>420.0</ele>
        <time>2021-02-13T11:03:29Z</time>
      </trkpt>
      <trkpt lat="38.91315" lon="-5.7634425">
        <ele>420.0</ele>
        <time>2021-02-13T11:03:30Z</time>
      </trkpt>
      <trkpt lat="38.913147" lon="-5.763382">
        <ele>420.0</ele>
        <time>2021-02-13T11:03:31Z</time>
      </trkpt>
      <trkpt lat="38.913143" lon="-5.7633185">
        <ele>420.0</ele>
        <time>2021-02-13T11:03:32Z</time>
      </trkpt>
      <trkpt lat="38.913143" lon="-5.7632537">
        <ele>420.0</ele>
        <time>2021-02-13T11:03:33Z</time>
      </trkpt>
      <trkpt lat="38.913143" lon="-5.763188">
        <ele>420.0</ele>
        <time>2021-02-13T11:03:34Z</time>
      </trkpt>
      <trkpt lat="38.913143" lon="-5.763123">
        <ele>420.0</ele>
        <time>2021-02-13T11:03:35Z</time>
      </trkpt>
      <trkpt lat="38.91315" lon="-5.7630596">
        <ele>420.0</ele>
        <time>2021-02-13T11:03:36Z</time>
      </trkpt>
      <trkpt lat="38.913155" lon="-5.7629957">
        <ele>420.0</ele>
        <time>2021-02-13T11:03:37Z</time>
      </trkpt>
      <trkpt lat="38.913166" lon="-5.76293">
        <ele>420.0</ele>
        <time>2021-02-13T11:03:38Z</time>
      </trkpt>
      <trkpt lat="38.91318" lon="-5.762864">
        <ele>420.0</ele>
        <time>2021-02-13T11:03:39Z</time>
      </trkpt>
      <trkpt lat="38.913204" lon="-5.762797">
        <ele>419.0</ele>
        <time>2021-02-13T11:03:40Z</time>
      </trkpt>
      <trkpt lat="38.913227" lon="-5.7627263">
        <ele>419.0</ele>
        <time>2021-02-13T11:03:41Z</time>
      </trkpt>
      <trkpt lat="38.91325" lon="-5.762656">
        <ele>419.0</ele>
        <time>2021-02-13T11:03:42Z</time>
      </trkpt>
      <trkpt lat="38.913273" lon="-5.7625823">
        <ele>419.0</ele>
        <time>2021-02-13T11:03:43Z</time>
      </trkpt>
      <trkpt lat="38.9133" lon="-5.762506">
        <ele>419.0</ele>
        <time>2021-02-13T11:03:44Z</time>
      </trkpt>
      <trkpt lat="38.913322" lon="-5.7624273">
        <ele>418.0</ele>
        <time>2021-02-13T11:03:45Z</time>
      </trkpt>
      <trkpt lat="38.913345" lon="-5.7623477">
        <ele>418.0</ele>
        <time>2021-02-13T11:03:46Z</time>
      </trkpt>
      <trkpt lat="38.91337" lon="-5.762268">
        <ele>418.0</ele>
        <time>2021-02-13T11:03:47Z</time>
      </trkpt>
      <trkpt lat="38.91339" lon="-5.762191">
        <ele>418.0</ele>
        <time>2021-02-13T11:03:48Z</time>
      </trkpt>
      <trkpt lat="38.91341" lon="-5.7621074">
        <ele>418.0</ele>
        <time>2021-02-13T11:03:49Z</time>
      </trkpt>
      <trkpt lat="38.91343" lon="-5.7620263">
        <ele>418.0</ele>
        <time>2021-02-13T11:03:50Z</time>
      </trkpt>
      <trkpt lat="38.91345" lon="-5.761945">
        <ele>418.0</ele>
        <time>2021-02-13T11:03:51Z</time>
      </trkpt>
      <trkpt lat="38.913467" lon="-5.761862">
        <ele>418.0</ele>
        <time>2021-02-13T11:03:52Z</time>
      </trkpt>
      <trkpt lat="38.913483" lon="-5.7617855">
        <ele>418.0</ele>
        <time>2021-02-13T11:03:53Z</time>
      </trkpt>
      <trkpt lat="38.913498" lon="-5.7617035">
        <ele>418.0</ele>
        <time>2021-02-13T11:03:54Z</time>
      </trkpt>
      <trkpt lat="38.91351" lon="-5.7616243">
        <ele>418.0</ele>
        <time>2021-02-13T11:03:55Z</time>
      </trkpt>
      <trkpt lat="38.913525" lon="-5.7615423">
        <ele>417.0</ele>
        <time>2021-02-13T11:03:56Z</time>
      </trkpt>
      <trkpt lat="38.91354" lon="-5.7614603">
        <ele>417.0</ele>
        <time>2021-02-13T11:03:57Z</time>
      </trkpt>
      <trkpt lat="38.913555" lon="-5.761374">
        <ele>417.0</ele>
        <time>2021-02-13T11:03:58Z</time>
      </trkpt>
      <trkpt lat="38.913574" lon="-5.7612844">
        <ele>417.0</ele>
        <time>2021-02-13T11:03:59Z</time>
      </trkpt>
      <trkpt lat="38.913593" lon="-5.7612004">
        <ele>417.0</ele>
        <time>2021-02-13T11:04:00Z</time>
      </trkpt>
      <trkpt lat="38.913616" lon="-5.7611103">
        <ele>417.0</ele>
        <time>2021-02-13T11:04:01Z</time>
      </trkpt>
      <trkpt lat="38.913635" lon="-5.761024">
        <ele>417.0</ele>
        <time>2021-02-13T11:04:02Z</time>
      </trkpt>
      <trkpt lat="38.91366" lon="-5.760947">
        <ele>417.0</ele>
        <time>2021-02-13T11:04:03Z</time>
      </trkpt>
      <trkpt lat="38.913673" lon="-5.7608705">
        <ele>417.0</ele>
        <time>2021-02-13T11:04:04Z</time>
      </trkpt>
      <trkpt lat="38.913692" lon="-5.760801">
        <ele>417.0</ele>
        <time>2021-02-13T11:04:05Z</time>
      </trkpt>
      <trkpt lat="38.913708" lon="-5.7607307">
        <ele>417.0</ele>
        <time>2021-02-13T11:04:06Z</time>
      </trkpt>
      <trkpt lat="38.91372" lon="-5.7606606">
        <ele>417.0</ele>
        <time>2021-02-13T11:04:07Z</time>
      </trkpt>
      <trkpt lat="38.91373" lon="-5.7605867">
        <ele>417.0</ele>
        <time>2021-02-13T11:04:08Z</time>
      </trkpt>
      <trkpt lat="38.91374" lon="-5.760509">
        <ele>417.0</ele>
        <time>2021-02-13T11:04:09Z</time>
      </trkpt>
      <trkpt lat="38.913742" lon="-5.7604365">
        <ele>417.0</ele>
        <time>2021-02-13T11:04:10Z</time>
      </trkpt>
      <trkpt lat="38.91375" lon="-5.760364">
        <ele>417.0</ele>
        <time>2021-02-13T11:04:11Z</time>
      </trkpt>
      <trkpt lat="38.91375" lon="-5.760292">
        <ele>417.0</ele>
        <time>2021-02-13T11:04:12Z</time>
      </trkpt>
      <trkpt lat="38.913754" lon="-5.760221">
        <ele>417.0</ele>
        <time>2021-02-13T11:04:13Z</time>
      </trkpt>
      <trkpt lat="38.913757" lon="-5.7601466">
        <ele>417.0</ele>
        <time>2021-02-13T11:04:14Z</time>
      </trkpt>
      <trkpt lat="38.913765" lon="-5.760079">
        <ele>417.0</ele>
        <time>2021-02-13T11:04:15Z</time>
      </trkpt>
      <trkpt lat="38.91377" lon="-5.7600064">
        <ele>417.0</ele>
        <time>2021-02-13T11:04:16Z</time>
      </trkpt>
      <trkpt lat="38.913773" lon="-5.759936">
        <ele>417.0</ele>
        <time>2021-02-13T11:04:17Z</time>
      </trkpt>
      <trkpt lat="38.913776" lon="-5.759866">
        <ele>417.0</ele>
        <time>2021-02-13T11:04:18Z</time>
      </trkpt>
      <trkpt lat="38.91378" lon="-5.7597976">
        <ele>417.0</ele>
        <time>2021-02-13T11:04:19Z</time>
      </trkpt>
      <trkpt lat="38.913784" lon="-5.75973">
        <ele>417.0</ele>
        <time>2021-02-13T11:04:20Z</time>
      </trkpt>
      <trkpt lat="38.913788" lon="-5.7596645">
        <ele>417.0</ele>
        <time>2021-02-13T11:04:21Z</time>
      </trkpt>
      <trkpt lat="38.913795" lon="-5.759603">
        <ele>417.0</ele>
        <time>2021-02-13T11:04:22Z</time>
      </trkpt>
      <trkpt lat="38.91381" lon="-5.7595477">
        <ele>417.0</ele>
        <time>2021-02-13T11:04:23Z</time>
      </trkpt>
      <trkpt lat="38.91383" lon="-5.759502">
        <ele>417.0</ele>
        <time>2021-02-13T11:04:24Z</time>
      </trkpt>
      <trkpt lat="38.91386" lon="-5.759463">
        <ele>417.0</ele>
        <time>2021-02-13T11:04:25Z</time>
      </trkpt>
      <trkpt lat="38.9139" lon="-5.7594323">
        <ele>415.0</ele>
        <time>2021-02-13T11:04:26Z</time>
      </trkpt>
      <trkpt lat="38.913948" lon="-5.7594085">
        <ele>415.0</ele>
        <time>2021-02-13T11:04:27Z</time>
      </trkpt>
      <trkpt lat="38.914005" lon="-5.759392">
        <ele>414.0</ele>
        <time>2021-02-13T11:04:28Z</time>
      </trkpt>
      <trkpt lat="38.914074" lon="-5.759378">
        <ele>413.0</ele>
        <time>2021-02-13T11:04:29Z</time>
      </trkpt>
      <trkpt lat="38.914143" lon="-5.7593665">
        <ele>412.0</ele>
        <time>2021-02-13T11:04:30Z</time>
      </trkpt>
      <trkpt lat="38.914215" lon="-5.7593536">
        <ele>411.0</ele>
        <time>2021-02-13T11:04:31Z</time>
      </trkpt>
      <trkpt lat="38.91429" lon="-5.7593393">
        <ele>409.0</ele>
        <time>2021-02-13T11:04:32Z</time>
      </trkpt>
      <trkpt lat="38.91437" lon="-5.759324">
        <ele>408.0</ele>
        <time>2021-02-13T11:04:33Z</time>
      </trkpt>
      <trkpt lat="38.914444" lon="-5.7593064">
        <ele>407.0</ele>
        <time>2021-02-13T11:04:34Z</time>
      </trkpt>
      <trkpt lat="38.91452" lon="-5.759286">
        <ele>405.0</ele>
        <time>2021-02-13T11:04:35Z</time>
      </trkpt>
      <trkpt lat="38.9146" lon="-5.75926">
        <ele>404.0</ele>
        <time>2021-02-13T11:04:36Z</time>
      </trkpt>
      <trkpt lat="38.914684" lon="-5.759232">
        <ele>402.0</ele>
        <time>2021-02-13T11:04:37Z</time>
      </trkpt>
      <trkpt lat="38.914776" lon="-5.7592044">
        <ele>401.0</ele>
        <time>2021-02-13T11:04:38Z</time>
      </trkpt>
      <trkpt lat="38.914867" lon="-5.759185">
        <ele>399.0</ele>
        <time>2021-02-13T11:04:39Z</time>
      </trkpt>
      <trkpt lat="38.91496" lon="-5.759174">
        <ele>398.0</ele>
        <time>2021-02-13T11:04:40Z</time>
      </trkpt>
      <trkpt lat="38.91506" lon="-5.7591743">
        <ele>397.0</ele>
        <time>2021-02-13T11:04:41Z</time>
      </trkpt>
      <trkpt lat="38.91516" lon="-5.759186">
        <ele>395.0</ele>
        <time>2021-02-13T11:04:42Z</time>
      </trkpt>
      <trkpt lat="38.915264" lon="-5.759206">
        <ele>394.0</ele>
        <time>2021-02-13T11:04:43Z</time>
      </trkpt>
      <trkpt lat="38.91537" lon="-5.7592297">
        <ele>393.0</ele>
        <time>2021-02-13T11:04:44Z</time>
      </trkpt>
      <trkpt lat="38.915478" lon="-5.759256">
        <ele>392.0</ele>
        <time>2021-02-13T11:04:45Z</time>
      </trkpt>
      <trkpt lat="38.915585" lon="-5.7592754">
        <ele>391.0</ele>
        <time>2021-02-13T11:04:46Z</time>
      </trkpt>
      <trkpt lat="38.915688" lon="-5.759286">
        <ele>390.0</ele>
        <time>2021-02-13T11:04:47Z</time>
      </trkpt>
      <trkpt lat="38.915783" lon="-5.7592845">
        <ele>388.0</ele>
        <time>2021-02-13T11:04:48Z</time>
      </trkpt>
      <trkpt lat="38.91588" lon="-5.759275">
        <ele>387.0</ele>
        <time>2021-02-13T11:04:49Z</time>
      </trkpt>
      <trkpt lat="38.915977" lon="-5.7592597">
        <ele>386.0</ele>
        <time>2021-02-13T11:04:50Z</time>
      </trkpt>
      <trkpt lat="38.916073" lon="-5.759236">
        <ele>385.0</ele>
        <time>2021-02-13T11:04:50Z</time>
      </trkpt>
      <trkpt lat="38.916172" lon="-5.75921">
        <ele>384.0</ele>
        <time>2021-02-13T11:04:51Z</time>
      </trkpt>
      <trkpt lat="38.91627" lon="-5.7591887">
        <ele>383.0</ele>
        <time>2021-02-13T11:04:52Z</time>
      </trkpt>
      <trkpt lat="38.916367" lon="-5.759172">
        <ele>382.0</ele>
        <time>2021-02-13T11:04:53Z</time>
      </trkpt>
      <trkpt lat="38.91646" lon="-5.7591624">
        <ele>382.0</ele>
        <time>2021-02-13T11:04:54Z</time>
      </trkpt>
      <trkpt lat="38.91653" lon="-5.759167">
        <ele>381.0</ele>
        <time>2021-02-13T11:04:55Z</time>
      </trkpt>
      <trkpt lat="38.91659" lon="-5.759184">
        <ele>381.0</ele>
        <time>2021-02-13T11:04:56Z</time>
      </trkpt>
      <trkpt lat="38.916637" lon="-5.759213">
        <ele>380.0</ele>
        <time>2021-02-13T11:04:57Z</time>
      </trkpt>
      <trkpt lat="38.916668" lon="-5.759255">
        <ele>380.0</ele>
        <time>2021-02-13T11:04:58Z</time>
      </trkpt>
      <trkpt lat="38.91669" lon="-5.7593093">
        <ele>379.0</ele>
        <time>2021-02-13T11:04:59Z</time>
      </trkpt>
      <trkpt lat="38.91671" lon="-5.7593746">
        <ele>379.0</ele>
        <time>2021-02-13T11:05:00Z</time>
      </trkpt>
      <trkpt lat="38.916725" lon="-5.759447">
        <ele>379.0</ele>
        <time>2021-02-13T11:05:01Z</time>
      </trkpt>
      <trkpt lat="38.916744" lon="-5.7595234">
        <ele>378.0</ele>
        <time>2021-02-13T11:05:02Z</time>
      </trkpt>
      <trkpt lat="38.91676" lon="-5.7596025">
        <ele>378.0</ele>
        <time>2021-02-13T11:05:03Z</time>
      </trkpt>
      <trkpt lat="38.91678" lon="-5.7596827">
        <ele>378.0</ele>
        <time>2021-02-13T11:05:04Z</time>
      </trkpt>
      <trkpt lat="38.916794" lon="-5.7597647">
        <ele>378.0</ele>
        <time>2021-02-13T11:05:05Z</time>
      </trkpt>
      <trkpt lat="38.916813" lon="-5.759844">
        <ele>378.0</ele>
        <time>2021-02-13T11:05:06Z</time>
      </trkpt>
      <trkpt lat="38.916836" lon="-5.759922">
        <ele>377.0</ele>
        <time>2021-02-13T11:05:07Z</time>
      </trkpt>
      <trkpt lat="38.91687" lon="-5.759996">
        <ele>377.0</ele>
        <time>2021-02-13T11:05:08Z</time>
      </trkpt>
      <trkpt lat="38.916912" lon="-5.7600627">
        <ele>376.0</ele>
        <time>2021-02-13T11:05:09Z</time>
      </trkpt>
      <trkpt lat="38.916965" lon="-5.7601175">
        <ele>375.0</ele>
        <time>2021-02-13T11:05:10Z</time>
      </trkpt>
      <trkpt lat="38.91702" lon="-5.7601604">
        <ele>375.0</ele>
        <time>2021-02-13T11:05:11Z</time>
      </trkpt>
      <trkpt lat="38.917084" lon="-5.7601953">
        <ele>373.0</ele>
        <time>2021-02-13T11:05:12Z</time>
      </trkpt>
      <trkpt lat="38.917156" lon="-5.7602253">
        <ele>373.0</ele>
        <time>2021-02-13T11:05:13Z</time>
      </trkpt>
      <trkpt lat="38.91723" lon="-5.760254">
        <ele>373.0</ele>
        <time>2021-02-13T11:05:14Z</time>
      </trkpt>
      <trkpt lat="38.9173" lon="-5.760284">
        <ele>371.0</ele>
        <time>2021-02-13T11:05:15Z</time>
      </trkpt>
      <trkpt lat="38.91738" lon="-5.7603154">
        <ele>370.0</ele>
        <time>2021-02-13T11:05:16Z</time>
      </trkpt>
      <trkpt lat="38.917473" lon="-5.760349">
        <ele>369.0</ele>
        <time>2021-02-13T11:05:17Z</time>
      </trkpt>
      <trkpt lat="38.917564" lon="-5.7603784">
        <ele>368.0</ele>
        <time>2021-02-13T11:05:18Z</time>
      </trkpt>
      <trkpt lat="38.917652" lon="-5.760407">
        <ele>367.0</ele>
        <time>2021-02-13T11:05:19Z</time>
      </trkpt>
      <trkpt lat="38.91775" lon="-5.7604403">
        <ele>365.0</ele>
        <time>2021-02-13T11:05:20Z</time>
      </trkpt>
      <trkpt lat="38.91785" lon="-5.760476">
        <ele>364.0</ele>
        <time>2021-02-13T11:05:21Z</time>
      </trkpt>
      <trkpt lat="38.917953" lon="-5.7605133">
        <ele>363.0</ele>
        <time>2021-02-13T11:05:22Z</time>
      </trkpt>
      <trkpt lat="38.918053" lon="-5.760553">
        <ele>362.0</ele>
        <time>2021-02-13T11:05:23Z</time>
      </trkpt>
      <trkpt lat="38.91816" lon="-5.760592">
        <ele>361.0</ele>
        <time>2021-02-13T11:05:24Z</time>
      </trkpt>
      <trkpt lat="38.918262" lon="-5.7606277">
        <ele>359.0</ele>
        <time>2021-02-13T11:05:25Z</time>
      </trkpt>
      <trkpt lat="38.918373" lon="-5.760656">
        <ele>358.0</ele>
        <time>2021-02-13T11:05:26Z</time>
      </trkpt>
      <trkpt lat="38.91849" lon="-5.760673">
        <ele>356.0</ele>
        <time>2021-02-13T11:05:27Z</time>
      </trkpt>
      <trkpt lat="38.91861" lon="-5.76068">
        <ele>355.0</ele>
        <time>2021-02-13T11:05:28Z</time>
      </trkpt>
      <trkpt lat="38.918716" lon="-5.7606797">
        <ele>354.0</ele>
        <time>2021-02-13T11:05:29Z</time>
      </trkpt>
      <trkpt lat="38.91883" lon="-5.760672">
        <ele>353.0</ele>
        <time>2021-02-13T11:05:30Z</time>
      </trkpt>
      <trkpt lat="38.91894" lon="-5.7606606">
        <ele>352.0</ele>
        <time>2021-02-13T11:05:31Z</time>
      </trkpt>
      <trkpt lat="38.919052" lon="-5.7606463">
        <ele>351.0</ele>
        <time>2021-02-13T11:05:32Z</time>
      </trkpt>
      <trkpt lat="38.91916" lon="-5.7606297">
        <ele>351.0</ele>
        <time>2021-02-13T11:05:33Z</time>
      </trkpt>
      <trkpt lat="38.91927" lon="-5.760611">
        <ele>350.0</ele>
        <time>2021-02-13T11:05:34Z</time>
      </trkpt>
      <trkpt lat="38.91937" lon="-5.7605934">
        <ele>350.0</ele>
        <time>2021-02-13T11:05:35Z</time>
      </trkpt>
      <trkpt lat="38.919476" lon="-5.760575">
        <ele>349.0</ele>
        <time>2021-02-13T11:05:36Z</time>
      </trkpt>
      <trkpt lat="38.91958" lon="-5.7605524">
        <ele>349.0</ele>
        <time>2021-02-13T11:05:37Z</time>
      </trkpt>
      <trkpt lat="38.91969" lon="-5.7605267">
        <ele>348.0</ele>
        <time>2021-02-13T11:05:38Z</time>
      </trkpt>
      <trkpt lat="38.919796" lon="-5.7605004">
        <ele>348.0</ele>
        <time>2021-02-13T11:05:39Z</time>
      </trkpt>
      <trkpt lat="38.91989" lon="-5.7604795">
        <ele>347.0</ele>
        <time>2021-02-13T11:05:40Z</time>
      </trkpt>
      <trkpt lat="38.919983" lon="-5.760461">
        <ele>347.0</ele>
        <time>2021-02-13T11:05:41Z</time>
      </trkpt>
      <trkpt lat="38.92008" lon="-5.760446">
        <ele>347.0</ele>
        <time>2021-02-13T11:05:42Z</time>
      </trkpt>
      <trkpt lat="38.920162" lon="-5.7604327">
        <ele>346.0</ele>
        <time>2021-02-13T11:05:43Z</time>
      </trkpt>
      <trkpt lat="38.92025" lon="-5.760418">
        <ele>346.0</ele>
        <time>2021-02-13T11:05:44Z</time>
      </trkpt>
      <trkpt lat="38.920326" lon="-5.7604">
        <ele>346.0</ele>
        <time>2021-02-13T11:05:45Z</time>
      </trkpt>
      <trkpt lat="38.92039" lon="-5.760375">
        <ele>346.0</ele>
        <time>2021-02-13T11:05:46Z</time>
      </trkpt>
      <trkpt lat="38.92044" lon="-5.7603507">
        <ele>346.0</ele>
        <time>2021-02-13T11:05:47Z</time>
      </trkpt>
      <trkpt lat="38.92047" lon="-5.76032">
        <ele>345.0</ele>
        <time>2021-02-13T11:05:48Z</time>
      </trkpt>
      <trkpt lat="38.92049" lon="-5.7602887">
        <ele>345.0</ele>
        <time>2021-02-13T11:05:49Z</time>
      </trkpt>
      <trkpt lat="38.920498" lon="-5.7602534">
        <ele>345.0</ele>
        <time>2021-02-13T11:05:50Z</time>
      </trkpt>
      <trkpt lat="38.920506" lon="-5.760215">
        <ele>345.0</ele>
        <time>2021-02-13T11:05:51Z</time>
      </trkpt>
      <trkpt lat="38.920506" lon="-5.7601748">
        <ele>345.0</ele>
        <time>2021-02-13T11:05:52Z</time>
      </trkpt>
      <trkpt lat="38.920506" lon="-5.7601285">
        <ele>345.0</ele>
        <time>2021-02-13T11:05:53Z</time>
      </trkpt>
      <trkpt lat="38.920506" lon="-5.7600846">
        <ele>345.0</ele>
        <time>2021-02-13T11:05:54Z</time>
      </trkpt>
      <trkpt lat="38.920498" lon="-5.760039">
        <ele>345.0</ele>
        <time>2021-02-13T11:05:55Z</time>
      </trkpt>
      <trkpt lat="38.920494" lon="-5.7599936">
        <ele>345.0</ele>
        <time>2021-02-13T11:05:56Z</time>
      </trkpt>
      <trkpt lat="38.92049" lon="-5.759945">
        <ele>345.0</ele>
        <time>2021-02-13T11:05:57Z</time>
      </trkpt>
      <trkpt lat="38.920486" lon="-5.759893">
        <ele>345.0</ele>
        <time>2021-02-13T11:05:58Z</time>
      </trkpt>
      <trkpt lat="38.920486" lon="-5.7598376">
        <ele>345.0</ele>
        <time>2021-02-13T11:05:59Z</time>
      </trkpt>
      <trkpt lat="38.920483" lon="-5.759779">
        <ele>345.0</ele>
        <time>2021-02-13T11:06:00Z</time>
      </trkpt>
      <trkpt lat="38.920483" lon="-5.7597203">
        <ele>345.0</ele>
        <time>2021-02-13T11:06:01Z</time>
      </trkpt>
      <trkpt lat="38.920475" lon="-5.7596607">
        <ele>345.0</ele>
        <time>2021-02-13T11:06:02Z</time>
      </trkpt>
      <trkpt lat="38.92047" lon="-5.7595987">
        <ele>345.0</ele>
        <time>2021-02-13T11:06:03Z</time>
      </trkpt>
      <trkpt lat="38.920467" lon="-5.7595334">
        <ele>345.0</ele>
        <time>2021-02-13T11:06:04Z</time>
      </trkpt>
      <trkpt lat="38.92046" lon="-5.7594666">
        <ele>345.0</ele>
        <time>2021-02-13T11:06:05Z</time>
      </trkpt>
      <trkpt lat="38.92045" lon="-5.7593985">
        <ele>345.0</ele>
        <time>2021-02-13T11:06:06Z</time>
      </trkpt>
      <trkpt lat="38.920437" lon="-5.759328">
        <ele>345.0</ele>
        <time>2021-02-13T11:06:07Z</time>
      </trkpt>
      <trkpt lat="38.92042" lon="-5.759255">
        <ele>345.0</ele>
        <time>2021-02-13T11:06:08Z</time>
      </trkpt>
      <trkpt lat="38.920406" lon="-5.7591796">
        <ele>345.0</ele>
        <time>2021-02-13T11:06:09Z</time>
      </trkpt>
      <trkpt lat="38.920387" lon="-5.7591014">
        <ele>345.0</ele>
        <time>2021-02-13T11:06:10Z</time>
      </trkpt>
      <trkpt lat="38.920364" lon="-5.759021">
        <ele>345.0</ele>
        <time>2021-02-13T11:06:11Z</time>
      </trkpt>
      <trkpt lat="38.920345" lon="-5.758939">
        <ele>345.0</ele>
        <time>2021-02-13T11:06:12Z</time>
      </trkpt>
      <trkpt lat="38.920322" lon="-5.7588544">
        <ele>344.0</ele>
        <time>2021-02-13T11:06:13Z</time>
      </trkpt>
      <trkpt lat="38.920303" lon="-5.7587686">
        <ele>344.0</ele>
        <time>2021-02-13T11:06:14Z</time>
      </trkpt>
      <trkpt lat="38.92028" lon="-5.7586803">
        <ele>344.0</ele>
        <time>2021-02-13T11:06:15Z</time>
      </trkpt>
      <trkpt lat="38.920258" lon="-5.7585907">
        <ele>344.0</ele>
        <time>2021-02-13T11:06:16Z</time>
      </trkpt>
      <trkpt lat="38.920235" lon="-5.7585006">
        <ele>344.0</ele>
        <time>2021-02-13T11:06:17Z</time>
      </trkpt>
      <trkpt lat="38.920208" lon="-5.7584085">
        <ele>344.0</ele>
        <time>2021-02-13T11:06:18Z</time>
      </trkpt>
      <trkpt lat="38.920185" lon="-5.758316">
        <ele>344.0</ele>
        <time>2021-02-13T11:06:19Z</time>
      </trkpt>
      <trkpt lat="38.920162" lon="-5.758224">
        <ele>344.0</ele>
        <time>2021-02-13T11:06:20Z</time>
      </trkpt>
      <trkpt lat="38.92014" lon="-5.7581325">
        <ele>344.0</ele>
        <time>2021-02-13T11:06:21Z</time>
      </trkpt>
      <trkpt lat="38.920116" lon="-5.7580395">
        <ele>344.0</ele>
        <time>2021-02-13T11:06:22Z</time>
      </trkpt>
      <trkpt lat="38.920094" lon="-5.7579474">
        <ele>344.0</ele>
        <time>2021-02-13T11:06:23Z</time>
      </trkpt>
      <trkpt lat="38.92007" lon="-5.757854">
        <ele>344.0</ele>
        <time>2021-02-13T11:06:24Z</time>
      </trkpt>
      <trkpt lat="38.92005" lon="-5.7577624">
        <ele>344.0</ele>
        <time>2021-02-13T11:06:25Z</time>
      </trkpt>
      <trkpt lat="38.92003" lon="-5.757672">
        <ele>344.0</ele>
        <time>2021-02-13T11:06:26Z</time>
      </trkpt>
      <trkpt lat="38.920006" lon="-5.757582">
        <ele>344.0</ele>
        <time>2021-02-13T11:06:27Z</time>
      </trkpt>
      <trkpt lat="38.919983" lon="-5.7574944">
        <ele>344.0</ele>
        <time>2021-02-13T11:06:28Z</time>
      </trkpt>
      <trkpt lat="38.919964" lon="-5.757409">
        <ele>344.0</ele>
        <time>2021-02-13T11:06:29Z</time>
      </trkpt>
      <trkpt lat="38.919945" lon="-5.7573256">
        <ele>344.0</ele>
        <time>2021-02-13T11:06:30Z</time>
      </trkpt>
      <trkpt lat="38.919926" lon="-5.757242">
        <ele>344.0</ele>
        <time>2021-02-13T11:06:31Z</time>
      </trkpt>
      <trkpt lat="38.919907" lon="-5.7571564">
        <ele>344.0</ele>
        <time>2021-02-13T11:06:32Z</time>
      </trkpt>
      <trkpt lat="38.91989" lon="-5.7570696">
        <ele>344.0</ele>
        <time>2021-02-13T11:06:33Z</time>
      </trkpt>
      <trkpt lat="38.91987" lon="-5.7569823">
        <ele>344.0</ele>
        <time>2021-02-13T11:06:34Z</time>
      </trkpt>
      <trkpt lat="38.919853" lon="-5.756898">
        <ele>344.0</ele>
        <time>2021-02-13T11:06:35Z</time>
      </trkpt>
      <trkpt lat="38.919834" lon="-5.756815">
        <ele>344.0</ele>
        <time>2021-02-13T11:06:36Z</time>
      </trkpt>
      <trkpt lat="38.919815" lon="-5.756733">
        <ele>344.0</ele>
        <time>2021-02-13T11:06:37Z</time>
      </trkpt>
      <trkpt lat="38.919796" lon="-5.756651">
        <ele>344.0</ele>
        <time>2021-02-13T11:06:38Z</time>
      </trkpt>
      <trkpt lat="38.91978" lon="-5.7565684">
        <ele>344.0</ele>
        <time>2021-02-13T11:06:39Z</time>
      </trkpt>
      <trkpt lat="38.919758" lon="-5.756486">
        <ele>344.0</ele>
        <time>2021-02-13T11:06:40Z</time>
      </trkpt>
      <trkpt lat="38.91974" lon="-5.756404">
        <ele>343.0</ele>
        <time>2021-02-13T11:06:41Z</time>
      </trkpt>
      <trkpt lat="38.91972" lon="-5.7563224">
        <ele>343.0</ele>
        <time>2021-02-13T11:06:42Z</time>
      </trkpt>
      <trkpt lat="38.9197" lon="-5.756242">
        <ele>343.0</ele>
        <time>2021-02-13T11:06:43Z</time>
      </trkpt>
      <trkpt lat="38.91968" lon="-5.7561626">
        <ele>343.0</ele>
        <time>2021-02-13T11:06:44Z</time>
      </trkpt>
      <trkpt lat="38.919666" lon="-5.756083">
        <ele>343.0</ele>
        <time>2021-02-13T11:06:45Z</time>
      </trkpt>
      <trkpt lat="38.919647" lon="-5.7560053">
        <ele>343.0</ele>
        <time>2021-02-13T11:06:46Z</time>
      </trkpt>
      <trkpt lat="38.91963" lon="-5.755927">
        <ele>343.0</ele>
        <time>2021-02-13T11:06:47Z</time>
      </trkpt>
      <trkpt lat="38.91961" lon="-5.75585">
        <ele>343.0</ele>
        <time>2021-02-13T11:06:48Z</time>
      </trkpt>
      <trkpt lat="38.919594" lon="-5.7557735">
        <ele>343.0</ele>
        <time>2021-02-13T11:06:49Z</time>
      </trkpt>
      <trkpt lat="38.919575" lon="-5.7556987">
        <ele>343.0</ele>
        <time>2021-02-13T11:06:50Z</time>
      </trkpt>
      <trkpt lat="38.919556" lon="-5.755626">
        <ele>343.0</ele>
        <time>2021-02-13T11:06:51Z</time>
      </trkpt>
      <trkpt lat="38.91954" lon="-5.755555">
        <ele>343.0</ele>
        <time>2021-02-13T11:06:52Z</time>
      </trkpt>
      <trkpt lat="38.919525" lon="-5.7554855">
        <ele>343.0</ele>
        <time>2021-02-13T11:06:53Z</time>
      </trkpt>
      <trkpt lat="38.919506" lon="-5.7554097">
        <ele>343.0</ele>
        <time>2021-02-13T11:06:54Z</time>
      </trkpt>
      <trkpt lat="38.919487" lon="-5.7553377">
        <ele>343.0</ele>
        <time>2021-02-13T11:06:55Z</time>
      </trkpt>
      <trkpt lat="38.91947" lon="-5.7552667">
        <ele>343.0</ele>
        <time>2021-02-13T11:06:56Z</time>
      </trkpt>
      <trkpt lat="38.919453" lon="-5.7551966">
        <ele>343.0</ele>
        <time>2021-02-13T11:06:57Z</time>
      </trkpt>
      <trkpt lat="38.919434" lon="-5.755127">
        <ele>343.0</ele>
        <time>2021-02-13T11:06:58Z</time>
      </trkpt>
      <trkpt lat="38.91942" lon="-5.755058">
        <ele>343.0</ele>
        <time>2021-02-13T11:06:59Z</time>
      </trkpt>
      <trkpt lat="38.919403" lon="-5.754992">
        <ele>343.0</ele>
        <time>2021-02-13T11:07:00Z</time>
      </trkpt>
      <trkpt lat="38.91939" lon="-5.754928">
        <ele>344.0</ele>
        <time>2021-02-13T11:07:01Z</time>
      </trkpt>
      <trkpt lat="38.919376" lon="-5.7548666">
        <ele>344.0</ele>
        <time>2021-02-13T11:07:02Z</time>
      </trkpt>
      <trkpt lat="38.91936" lon="-5.7548065">
        <ele>344.0</ele>
        <time>2021-02-13T11:07:03Z</time>
      </trkpt>
      <trkpt lat="38.919342" lon="-5.7547503">
        <ele>344.0</ele>
        <time>2021-02-13T11:07:04Z</time>
      </trkpt>
      <trkpt lat="38.91933" lon="-5.754691">
        <ele>344.0</ele>
        <time>2021-02-13T11:07:05Z</time>
      </trkpt>
      <trkpt lat="38.919315" lon="-5.754633">
        <ele>344.0</ele>
        <time>2021-02-13T11:07:06Z</time>
      </trkpt>
      <trkpt lat="38.91931" lon="-5.7545743">
        <ele>344.0</ele>
        <time>2021-02-13T11:07:07Z</time>
      </trkpt>
      <trkpt lat="38.919308" lon="-5.7545133">
        <ele>344.0</ele>
        <time>2021-02-13T11:07:08Z</time>
      </trkpt>
      <trkpt lat="38.919315" lon="-5.754461">
        <ele>344.0</ele>
        <time>2021-02-13T11:07:09Z</time>
      </trkpt>
      <trkpt lat="38.91933" lon="-5.7544127">
        <ele>344.0</ele>
        <time>2021-02-13T11:07:10Z</time>
      </trkpt>
      <trkpt lat="38.919353" lon="-5.7543707">
        <ele>344.0</ele>
        <time>2021-02-13T11:07:11Z</time>
      </trkpt>
      <trkpt lat="38.919384" lon="-5.7543373">
        <ele>344.0</ele>
        <time>2021-02-13T11:07:12Z</time>
      </trkpt>
      <trkpt lat="38.919426" lon="-5.7543077">
        <ele>344.0</ele>
        <time>2021-02-13T11:07:13Z</time>
      </trkpt>
      <trkpt lat="38.91947" lon="-5.7542825">
        <ele>344.0</ele>
        <time>2021-02-13T11:07:14Z</time>
      </trkpt>
      <trkpt lat="38.91952" lon="-5.754259">
        <ele>344.0</ele>
        <time>2021-02-13T11:07:15Z</time>
      </trkpt>
      <trkpt lat="38.919575" lon="-5.754238">
        <ele>344.0</ele>
        <time>2021-02-13T11:07:16Z</time>
      </trkpt>
      <trkpt lat="38.91963" lon="-5.754219">
        <ele>343.0</ele>
        <time>2021-02-13T11:07:17Z</time>
      </trkpt>
      <trkpt lat="38.919685" lon="-5.7541976">
        <ele>343.0</ele>
        <time>2021-02-13T11:07:18Z</time>
      </trkpt>
      <trkpt lat="38.919743" lon="-5.7541785">
        <ele>343.0</ele>
        <time>2021-02-13T11:07:19Z</time>
      </trkpt>
      <trkpt lat="38.919807" lon="-5.7541585">
        <ele>343.0</ele>
        <time>2021-02-13T11:07:20Z</time>
      </trkpt>
      <trkpt lat="38.919872" lon="-5.7541428">
        <ele>342.0</ele>
        <time>2021-02-13T11:07:21Z</time>
      </trkpt>
      <trkpt lat="38.919937" lon="-5.754128">
        <ele>342.0</ele>
        <time>2021-02-13T11:07:22Z</time>
      </trkpt>
      <trkpt lat="38.92" lon="-5.754114">
        <ele>342.0</ele>
        <time>2021-02-13T11:07:23Z</time>
      </trkpt>
      <trkpt lat="38.920063" lon="-5.7540984">
        <ele>342.0</ele>
        <time>2021-02-13T11:07:24Z</time>
      </trkpt>
      <trkpt lat="38.920124" lon="-5.7540817">
        <ele>341.0</ele>
        <time>2021-02-13T11:07:25Z</time>
      </trkpt>
      <trkpt lat="38.920193" lon="-5.754063">
        <ele>341.0</ele>
        <time>2021-02-13T11:07:26Z</time>
      </trkpt>
      <trkpt lat="38.920258" lon="-5.754045">
        <ele>341.0</ele>
        <time>2021-02-13T11:07:27Z</time>
      </trkpt>
      <trkpt lat="38.920322" lon="-5.754027">
        <ele>341.0</ele>
        <time>2021-02-13T11:07:28Z</time>
      </trkpt>
      <trkpt lat="38.920383" lon="-5.75401">
        <ele>340.0</ele>
        <time>2021-02-13T11:07:29Z</time>
      </trkpt>
      <trkpt lat="38.920444" lon="-5.753997">
        <ele>340.0</ele>
        <time>2021-02-13T11:07:30Z</time>
      </trkpt>
      <trkpt lat="38.920506" lon="-5.7539854">
        <ele>340.0</ele>
        <time>2021-02-13T11:07:31Z</time>
      </trkpt>
      <trkpt lat="38.92056" lon="-5.7539725">
        <ele>340.0</ele>
        <time>2021-02-13T11:07:32Z</time>
      </trkpt>
      <trkpt lat="38.920612" lon="-5.75396">
        <ele>340.0</ele>
        <time>2021-02-13T11:07:33Z</time>
      </trkpt>
      <trkpt lat="38.92066" lon="-5.753946">
        <ele>340.0</ele>
        <time>2021-02-13T11:07:34Z</time>
      </trkpt>
      <trkpt lat="38.9207" lon="-5.753924">
        <ele>339.0</ele>
        <time>2021-02-13T11:07:35Z</time>
      </trkpt>
      <trkpt lat="38.92073" lon="-5.753901">
        <ele>339.0</ele>
        <time>2021-02-13T11:07:36Z</time>
      </trkpt>
      <trkpt lat="38.92075" lon="-5.753872">
        <ele>339.0</ele>
        <time>2021-02-13T11:07:37Z</time>
      </trkpt>
      <trkpt lat="38.92076" lon="-5.7538424">
        <ele>339.0</ele>
        <time>2021-02-13T11:07:38Z</time>
      </trkpt>
      <trkpt lat="38.92077" lon="-5.7538114">
        <ele>339.0</ele>
        <time>2021-02-13T11:07:39Z</time>
      </trkpt>
      <trkpt lat="38.92077" lon="-5.7537804">
        <ele>339.0</ele>
        <time>2021-02-13T11:07:40Z</time>
      </trkpt>
      <trkpt lat="38.92076" lon="-5.7537484">
        <ele>339.0</ele>
        <time>2021-02-13T11:07:41Z</time>
      </trkpt>
      <trkpt lat="38.920753" lon="-5.7537165">
        <ele>339.0</ele>
        <time>2021-02-13T11:07:42Z</time>
      </trkpt>
      <trkpt lat="38.920746" lon="-5.7536845">
        <ele>339.0</ele>
        <time>2021-02-13T11:07:43Z</time>
      </trkpt>
      <trkpt lat="38.92073" lon="-5.753653">
        <ele>339.0</ele>
        <time>2021-02-13T11:07:44Z</time>
      </trkpt>
      <trkpt lat="38.92072" lon="-5.7536216">
        <ele>339.0</ele>
        <time>2021-02-13T11:07:45Z</time>
      </trkpt>
      <trkpt lat="38.9207" lon="-5.753593">
        <ele>339.0</ele>
        <time>2021-02-13T11:07:46Z</time>
      </trkpt>
      <trkpt lat="38.920685" lon="-5.7535653">
        <ele>340.0</ele>
        <time>2021-02-13T11:07:47Z</time>
      </trkpt>
      <trkpt lat="38.92067" lon="-5.7535405">
        <ele>340.0</ele>
        <time>2021-02-13T11:07:48Z</time>
      </trkpt>
      <trkpt lat="38.92065" lon="-5.7535143">
        <ele>340.0</ele>
        <time>2021-02-13T11:07:49Z</time>
      </trkpt>
      <trkpt lat="38.92063" lon="-5.7534876">
        <ele>340.0</ele>
        <time>2021-02-13T11:07:49Z</time>
      </trkpt>
      <trkpt lat="38.920612" lon="-5.753455">
        <ele>340.0</ele>
        <time>2021-02-13T11:07:51Z</time>
      </trkpt>
      <trkpt lat="38.920593" lon="-5.753423">
        <ele>340.0</ele>
        <time>2021-02-13T11:07:52Z</time>
      </trkpt>
      <trkpt lat="38.920574" lon="-5.753391">
        <ele>341.0</ele>
        <time>2021-02-13T11:07:53Z</time>
      </trkpt>
      <trkpt lat="38.920555" lon="-5.753356">
        <ele>341.0</ele>
        <time>2021-02-13T11:07:54Z</time>
      </trkpt>
      <trkpt lat="38.920536" lon="-5.7533216">
        <ele>341.0</ele>
        <time>2021-02-13T11:07:55Z</time>
      </trkpt>
      <trkpt lat="38.920517" lon="-5.753285">
        <ele>341.0</ele>
        <time>2021-02-13T11:07:56Z</time>
      </trkpt>
      <trkpt lat="38.920494" lon="-5.753249">
        <ele>342.0</ele>
        <time>2021-02-13T11:07:57Z</time>
      </trkpt>
      <trkpt lat="38.92047" lon="-5.753213">
        <ele>342.0</ele>
        <time>2021-02-13T11:07:58Z</time>
      </trkpt>
      <trkpt lat="38.920452" lon="-5.753177">
        <ele>342.0</ele>
        <time>2021-02-13T11:07:59Z</time>
      </trkpt>
      <trkpt lat="38.92043" lon="-5.753144">
        <ele>343.0</ele>
        <time>2021-02-13T11:08:00Z</time>
      </trkpt>
      <trkpt lat="38.920406" lon="-5.75311">
        <ele>343.0</ele>
        <time>2021-02-13T11:08:01Z</time>
      </trkpt>
      <trkpt lat="38.920383" lon="-5.753076">
        <ele>343.0</ele>
        <time>2021-02-13T11:08:02Z</time>
      </trkpt>
      <trkpt lat="38.92036" lon="-5.7530427">
        <ele>343.0</ele>
        <time>2021-02-13T11:08:03Z</time>
      </trkpt>
      <trkpt lat="38.920338" lon="-5.75301">
        <ele>344.0</ele>
        <time>2021-02-13T11:08:04Z</time>
      </trkpt>
      <trkpt lat="38.920315" lon="-5.7529783">
        <ele>344.0</ele>
        <time>2021-02-13T11:08:05Z</time>
      </trkpt>
      <trkpt lat="38.920288" lon="-5.7529454">
        <ele>344.0</ele>
        <time>2021-02-13T11:08:06Z</time>
      </trkpt>
      <trkpt lat="38.920265" lon="-5.7529163">
        <ele>344.0</ele>
        <time>2021-02-13T11:08:07Z</time>
      </trkpt>
      <trkpt lat="38.920246" lon="-5.752889">
        <ele>344.0</ele>
        <time>2021-02-13T11:08:08Z</time>
      </trkpt>
      <trkpt lat="38.920227" lon="-5.7528634">
        <ele>344.0</ele>
        <time>2021-02-13T11:08:09Z</time>
      </trkpt>
      <trkpt lat="38.9202" lon="-5.7528415">
        <ele>344.0</ele>
        <time>2021-02-13T11:08:10Z</time>
      </trkpt>
      <trkpt lat="38.920177" lon="-5.7528224">
        <ele>344.0</ele>
        <time>2021-02-13T11:08:11Z</time>
      </trkpt>
      <trkpt lat="38.920155" lon="-5.7528033">
        <ele>344.0</ele>
        <time>2021-02-13T11:08:12Z</time>
      </trkpt>
      <trkpt lat="38.920135" lon="-5.752784">
        <ele>345.0</ele>
        <time>2021-02-13T11:08:13Z</time>
      </trkpt>
      <trkpt lat="38.920116" lon="-5.752761">
        <ele>345.0</ele>
        <time>2021-02-13T11:08:14Z</time>
      </trkpt>
      <trkpt lat="38.920094" lon="-5.752736">
        <ele>345.0</ele>
        <time>2021-02-13T11:08:15Z</time>
      </trkpt>
      <trkpt lat="38.92008" lon="-5.752712">
        <ele>345.0</ele>
        <time>2021-02-13T11:08:16Z</time>
      </trkpt>
      <trkpt lat="38.92005" lon="-5.7526827">
        <ele>345.0</ele>
        <time>2021-02-13T11:08:17Z</time>
      </trkpt>
      <trkpt lat="38.92003" lon="-5.7526565">
        <ele>346.0</ele>
        <time>2021-02-13T11:08:18Z</time>
      </trkpt>
      <trkpt lat="38.920002" lon="-5.752633">
        <ele>346.0</ele>
        <time>2021-02-13T11:08:19Z</time>
      </trkpt>
      <trkpt lat="38.919983" lon="-5.752611">
        <ele>346.0</ele>
        <time>2021-02-13T11:08:20Z</time>
      </trkpt>
      <trkpt lat="38.91996" lon="-5.752589">
        <ele>346.0</ele>
        <time>2021-02-13T11:08:21Z</time>
      </trkpt>
      <trkpt lat="38.91994" lon="-5.7525663">
        <ele>347.0</ele>
        <time>2021-02-13T11:08:22Z</time>
      </trkpt>
      <trkpt lat="38.91992" lon="-5.7525415">
        <ele>347.0</ele>
        <time>2021-02-13T11:08:23Z</time>
      </trkpt>
      <trkpt lat="38.9199" lon="-5.7525153">
        <ele>347.0</ele>
        <time>2021-02-13T11:08:24Z</time>
      </trkpt>
      <trkpt lat="38.91988" lon="-5.752491">
        <ele>347.0</ele>
        <time>2021-02-13T11:08:25Z</time>
      </trkpt>
      <trkpt lat="38.91986" lon="-5.752467">
        <ele>348.0</ele>
        <time>2021-02-13T11:08:26Z</time>
      </trkpt>
      <trkpt lat="38.919838" lon="-5.7524433">
        <ele>348.0</ele>
        <time>2021-02-13T11:08:27Z</time>
      </trkpt>
      <trkpt lat="38.919823" lon="-5.752421">
        <ele>348.0</ele>
        <time>2021-02-13T11:08:28Z</time>
      </trkpt>
      <trkpt lat="38.9198" lon="-5.7523985">
        <ele>348.0</ele>
        <time>2021-02-13T11:08:29Z</time>
      </trkpt>
      <trkpt lat="38.91978" lon="-5.7523756">
        <ele>349.0</ele>
        <time>2021-02-13T11:08:30Z</time>
      </trkpt>
      <trkpt lat="38.919758" lon="-5.752353">
        <ele>349.0</ele>
        <time>2021-02-13T11:08:31Z</time>
      </trkpt>
      <trkpt lat="38.919743" lon="-5.752329">
        <ele>349.0</ele>
        <time>2021-02-13T11:08:32Z</time>
      </trkpt>
      <trkpt lat="38.91972" lon="-5.752303">
        <ele>349.0</ele>
        <time>2021-02-13T11:08:33Z</time>
      </trkpt>
      <trkpt lat="38.919704" lon="-5.752277">
        <ele>349.0</ele>
        <time>2021-02-13T11:08:34Z</time>
      </trkpt>
      <trkpt lat="38.919685" lon="-5.7522507">
        <ele>350.0</ele>
        <time>2021-02-13T11:08:35Z</time>
      </trkpt>
      <trkpt lat="38.919666" lon="-5.752228">
        <ele>350.0</ele>
        <time>2021-02-13T11:08:36Z</time>
      </trkpt>
      <trkpt lat="38.919647" lon="-5.752203">
        <ele>350.0</ele>
        <time>2021-02-13T11:08:37Z</time>
      </trkpt>
      <trkpt lat="38.91963" lon="-5.7521777">
        <ele>350.0</ele>
        <time>2021-02-13T11:08:38Z</time>
      </trkpt>
      <trkpt lat="38.919605" lon="-5.7521544">
        <ele>350.0</ele>
        <time>2021-02-13T11:08:39Z</time>
      </trkpt>
      <trkpt lat="38.919582" lon="-5.752131">
        <ele>351.0</ele>
        <time>2021-02-13T11:08:40Z</time>
      </trkpt>
      <trkpt lat="38.91956" lon="-5.75211">
        <ele>351.0</ele>
        <time>2021-02-13T11:08:41Z</time>
      </trkpt>
      <trkpt lat="38.919537" lon="-5.7520885">
        <ele>351.0</ele>
        <time>2021-02-13T11:08:42Z</time>
      </trkpt>
      <trkpt lat="38.919518" lon="-5.752065">
        <ele>351.0</ele>
        <time>2021-02-13T11:08:43Z</time>
      </trkpt>
      <trkpt lat="38.919495" lon="-5.752043">
        <ele>351.0</ele>
        <time>2021-02-13T11:08:44Z</time>
      </trkpt>
      <trkpt lat="38.91947" lon="-5.7520185">
        <ele>352.0</ele>
        <time>2021-02-13T11:08:45Z</time>
      </trkpt>
      <trkpt lat="38.91945" lon="-5.751995">
        <ele>352.0</ele>
        <time>2021-02-13T11:08:46Z</time>
      </trkpt>
      <trkpt lat="38.919426" lon="-5.7519712">
        <ele>352.0</ele>
        <time>2021-02-13T11:08:47Z</time>
      </trkpt>
      <trkpt lat="38.919407" lon="-5.7519474">
        <ele>352.0</ele>
        <time>2021-02-13T11:08:48Z</time>
      </trkpt>
      <trkpt lat="38.919384" lon="-5.751926">
        <ele>352.0</ele>
        <time>2021-02-13T11:08:49Z</time>
      </trkpt>
      <trkpt lat="38.919365" lon="-5.7519035">
        <ele>352.0</ele>
        <time>2021-02-13T11:08:50Z</time>
      </trkpt>
      <trkpt lat="38.919342" lon="-5.75188">
        <ele>352.0</ele>
        <time>2021-02-13T11:08:51Z</time>
      </trkpt>
      <trkpt lat="38.919323" lon="-5.7518573">
        <ele>352.0</ele>
        <time>2021-02-13T11:08:52Z</time>
      </trkpt>
      <trkpt lat="38.9193" lon="-5.7518344">
        <ele>353.0</ele>
        <time>2021-02-13T11:08:53Z</time>
      </trkpt>
      <trkpt lat="38.919277" lon="-5.751809">
        <ele>353.0</ele>
        <time>2021-02-13T11:08:54Z</time>
      </trkpt>
      <trkpt lat="38.919254" lon="-5.751784">
        <ele>353.0</ele>
        <time>2021-02-13T11:08:55Z</time>
      </trkpt>
      <trkpt lat="38.91923" lon="-5.7517567">
        <ele>353.0</ele>
        <time>2021-02-13T11:08:56Z</time>
      </trkpt>
      <trkpt lat="38.91921" lon="-5.7517285">
        <ele>354.0</ele>
        <time>2021-02-13T11:08:57Z</time>
      </trkpt>
      <trkpt lat="38.919186" lon="-5.7517023">
        <ele>354.0</ele>
        <time>2021-02-13T11:08:58Z</time>
      </trkpt>
      <trkpt lat="38.919163" lon="-5.751679">
        <ele>354.0</ele>
        <time>2021-02-13T11:08:59Z</time>
      </trkpt>
      <trkpt lat="38.919144" lon="-5.751655">
        <ele>355.0</ele>
        <time>2021-02-13T11:09:00Z</time>
      </trkpt>
      <trkpt lat="38.919125" lon="-5.7516303">
        <ele>355.0</ele>
        <time>2021-02-13T11:09:01Z</time>
      </trkpt>
      <trkpt lat="38.919106" lon="-5.7516036">
        <ele>355.0</ele>
        <time>2021-02-13T11:09:02Z</time>
      </trkpt>
      <trkpt lat="38.91909" lon="-5.7515764">
        <ele>355.0</ele>
        <time>2021-02-13T11:09:03Z</time>
      </trkpt>
      <trkpt lat="38.919075" lon="-5.751547">
        <ele>356.0</ele>
        <time>2021-02-13T11:09:04Z</time>
      </trkpt>
      <trkpt lat="38.919056" lon="-5.7515182">
        <ele>356.0</ele>
        <time>2021-02-13T11:09:05Z</time>
      </trkpt>
      <trkpt lat="38.91904" lon="-5.7514906">
        <ele>356.0</ele>
        <time>2021-02-13T11:09:05Z</time>
      </trkpt>
      <trkpt lat="38.91903" lon="-5.7514644">
        <ele>356.0</ele>
        <time>2021-02-13T11:09:06Z</time>
      </trkpt>
      <trkpt lat="38.919018" lon="-5.751438">
        <ele>357.0</ele>
        <time>2021-02-13T11:09:07Z</time>
      </trkpt>
      <trkpt lat="38.919006" lon="-5.751412">
        <ele>357.0</ele>
        <time>2021-02-13T11:09:08Z</time>
      </trkpt>
      <trkpt lat="38.918995" lon="-5.751383">
        <ele>357.0</ele>
        <time>2021-02-13T11:09:09Z</time>
      </trkpt>
      <trkpt lat="38.918983" lon="-5.7513537">
        <ele>357.0</ele>
        <time>2021-02-13T11:09:10Z</time>
      </trkpt>
      <trkpt lat="38.918972" lon="-5.7513237">
        <ele>357.0</ele>
        <time>2021-02-13T11:09:11Z</time>
      </trkpt>
      <trkpt lat="38.918964" lon="-5.7512937">
        <ele>357.0</ele>
        <time>2021-02-13T11:09:12Z</time>
      </trkpt>
      <trkpt lat="38.91895" lon="-5.7512627">
        <ele>358.0</ele>
        <time>2021-02-13T11:09:13Z</time>
      </trkpt>
      <trkpt lat="38.918938" lon="-5.7512302">
        <ele>358.0</ele>
        <time>2021-02-13T11:09:14Z</time>
      </trkpt>
      <trkpt lat="38.918926" lon="-5.7511973">
        <ele>358.0</ele>
        <time>2021-02-13T11:09:15Z</time>
      </trkpt>
      <trkpt lat="38.91892" lon="-5.751165">
        <ele>358.0</ele>
        <time>2021-02-13T11:09:16Z</time>
      </trkpt>
      <trkpt lat="38.91891" lon="-5.7511296">
        <ele>358.0</ele>
        <time>2021-02-13T11:09:17Z</time>
      </trkpt>
      <trkpt lat="38.9189" lon="-5.751095">
        <ele>358.0</ele>
        <time>2021-02-13T11:09:18Z</time>
      </trkpt>
      <trkpt lat="38.91889" lon="-5.751063">
        <ele>358.0</ele>
        <time>2021-02-13T11:09:19Z</time>
      </trkpt>
      <trkpt lat="38.91888" lon="-5.7510304">
        <ele>358.0</ele>
        <time>2021-02-13T11:09:20Z</time>
      </trkpt>
      <trkpt lat="38.918873" lon="-5.750997">
        <ele>358.0</ele>
        <time>2021-02-13T11:09:21Z</time>
      </trkpt>
      <trkpt lat="38.91886" lon="-5.7509646">
        <ele>359.0</ele>
        <time>2021-02-13T11:09:22Z</time>
      </trkpt>
      <trkpt lat="38.918854" lon="-5.750931">
        <ele>359.0</ele>
        <time>2021-02-13T11:09:23Z</time>
      </trkpt>
      <trkpt lat="38.918842" lon="-5.750896">
        <ele>359.0</ele>
        <time>2021-02-13T11:09:24Z</time>
      </trkpt>
      <trkpt lat="38.91883" lon="-5.7508645">
        <ele>359.0</ele>
        <time>2021-02-13T11:09:25Z</time>
      </trkpt>
      <trkpt lat="38.918823" lon="-5.750831">
        <ele>359.0</ele>
        <time>2021-02-13T11:09:26Z</time>
      </trkpt>
      <trkpt lat="38.91881" lon="-5.7507973">
        <ele>359.0</ele>
        <time>2021-02-13T11:09:27Z</time>
      </trkpt>
      <trkpt lat="38.9188" lon="-5.7507634">
        <ele>359.0</ele>
        <time>2021-02-13T11:09:28Z</time>
      </trkpt>
      <trkpt lat="38.918793" lon="-5.750726">
        <ele>359.0</ele>
        <time>2021-02-13T11:09:29Z</time>
      </trkpt>
      <trkpt lat="38.91878" lon="-5.7506933">
        <ele>359.0</ele>
        <time>2021-02-13T11:09:30Z</time>
      </trkpt>
      <trkpt lat="38.91877" lon="-5.7506604">
        <ele>359.0</ele>
        <time>2021-02-13T11:09:31Z</time>
      </trkpt>
      <trkpt lat="38.91876" lon="-5.7506247">
        <ele>359.0</ele>
        <time>2021-02-13T11:09:32Z</time>
      </trkpt>
      <trkpt lat="38.918747" lon="-5.7505894">
        <ele>359.0</ele>
        <time>2021-02-13T11:09:33Z</time>
      </trkpt>
      <trkpt lat="38.91874" lon="-5.7505555">
        <ele>359.0</ele>
        <time>2021-02-13T11:09:34Z</time>
      </trkpt>
      <trkpt lat="38.918724" lon="-5.75052">
        <ele>359.0</ele>
        <time>2021-02-13T11:09:35Z</time>
      </trkpt>
      <trkpt lat="38.918716" lon="-5.7504864">
        <ele>359.0</ele>
        <time>2021-02-13T11:09:36Z</time>
      </trkpt>
      <trkpt lat="38.9187" lon="-5.7504525">
        <ele>359.0</ele>
        <time>2021-02-13T11:09:37Z</time>
      </trkpt>
      <trkpt lat="38.91869" lon="-5.750421">
        <ele>359.0</ele>
        <time>2021-02-13T11:09:38Z</time>
      </trkpt>
      <trkpt lat="38.91868" lon="-5.7503867">
        <ele>359.0</ele>
        <time>2021-02-13T11:09:39Z</time>
      </trkpt>
      <trkpt lat="38.918663" lon="-5.7503552">
        <ele>359.0</ele>
        <time>2021-02-13T11:09:40Z</time>
      </trkpt>
      <trkpt lat="38.91865" lon="-5.750322">
        <ele>360.0</ele>
        <time>2021-02-13T11:09:41Z</time>
      </trkpt>
      <trkpt lat="38.918636" lon="-5.7502904">
        <ele>360.0</ele>
        <time>2021-02-13T11:09:42Z</time>
      </trkpt>
      <trkpt lat="38.91862" lon="-5.7502584">
        <ele>360.0</ele>
        <time>2021-02-13T11:09:43Z</time>
      </trkpt>
      <trkpt lat="38.918606" lon="-5.750226">
        <ele>360.0</ele>
        <time>2021-02-13T11:09:44Z</time>
      </trkpt>
      <trkpt lat="38.91859" lon="-5.750193">
        <ele>360.0</ele>
        <time>2021-02-13T11:09:45Z</time>
      </trkpt>
      <trkpt lat="38.91857" lon="-5.7501593">
        <ele>360.0</ele>
        <time>2021-02-13T11:09:46Z</time>
      </trkpt>
      <trkpt lat="38.918556" lon="-5.750125">
        <ele>360.0</ele>
        <time>2021-02-13T11:09:47Z</time>
      </trkpt>
      <trkpt lat="38.91854" lon="-5.7500896">
        <ele>360.0</ele>
        <time>2021-02-13T11:09:48Z</time>
      </trkpt>
      <trkpt lat="38.918526" lon="-5.750054">
        <ele>360.0</ele>
        <time>2021-02-13T11:09:49Z</time>
      </trkpt>
      <trkpt lat="38.91851" lon="-5.750017">
        <ele>360.0</ele>
        <time>2021-02-13T11:09:50Z</time>
      </trkpt>
      <trkpt lat="38.9185" lon="-5.749981">
        <ele>361.0</ele>
        <time>2021-02-13T11:09:51Z</time>
      </trkpt>
      <trkpt lat="38.918484" lon="-5.749944">
        <ele>361.0</ele>
        <time>2021-02-13T11:09:52Z</time>
      </trkpt>
      <trkpt lat="38.918465" lon="-5.749908">
        <ele>361.0</ele>
        <time>2021-02-13T11:09:53Z</time>
      </trkpt>
      <trkpt lat="38.91845" lon="-5.749869">
        <ele>361.0</ele>
        <time>2021-02-13T11:09:54Z</time>
      </trkpt>
      <trkpt lat="38.918434" lon="-5.749828">
        <ele>361.0</ele>
        <time>2021-02-13T11:09:55Z</time>
      </trkpt>
      <trkpt lat="38.91842" lon="-5.74979">
        <ele>361.0</ele>
        <time>2021-02-13T11:09:56Z</time>
      </trkpt>
      <trkpt lat="38.9184" lon="-5.7497525">
        <ele>361.0</ele>
        <time>2021-02-13T11:09:57Z</time>
      </trkpt>
      <trkpt lat="38.918385" lon="-5.7497134">
        <ele>361.0</ele>
        <time>2021-02-13T11:09:58Z</time>
      </trkpt>
      <trkpt lat="38.91837" lon="-5.7496743">
        <ele>362.0</ele>
        <time>2021-02-13T11:09:59Z</time>
      </trkpt>
      <trkpt lat="38.918354" lon="-5.7496333">
        <ele>362.0</ele>
        <time>2021-02-13T11:10:00Z</time>
      </trkpt>
      <trkpt lat="38.91834" lon="-5.7495947">
        <ele>362.0</ele>
        <time>2021-02-13T11:10:01Z</time>
      </trkpt>
      <trkpt lat="38.918324" lon="-5.7495546">
        <ele>362.0</ele>
        <time>2021-02-13T11:10:02Z</time>
      </trkpt>
      <trkpt lat="38.91831" lon="-5.7495136">
        <ele>362.0</ele>
        <time>2021-02-13T11:10:03Z</time>
      </trkpt>
      <trkpt lat="38.918293" lon="-5.7494726">
        <ele>362.0</ele>
        <time>2021-02-13T11:10:04Z</time>
      </trkpt>
      <trkpt lat="38.918274" lon="-5.749431">
        <ele>362.0</ele>
        <time>2021-02-13T11:10:05Z</time>
      </trkpt>
      <trkpt lat="38.91826" lon="-5.74939">
        <ele>362.0</ele>
        <time>2021-02-13T11:10:06Z</time>
      </trkpt>
      <trkpt lat="38.918247" lon="-5.749349">
        <ele>362.0</ele>
        <time>2021-02-13T11:10:07Z</time>
      </trkpt>
      <trkpt lat="38.918232" lon="-5.749308">
        <ele>362.0</ele>
        <time>2021-02-13T11:10:08Z</time>
      </trkpt>
      <trkpt lat="38.91822" lon="-5.749265">
        <ele>362.0</ele>
        <time>2021-02-13T11:10:09Z</time>
      </trkpt>
      <trkpt lat="38.91821" lon="-5.749223">
        <ele>362.0</ele>
        <time>2021-02-13T11:10:10Z</time>
      </trkpt>
      <trkpt lat="38.9182" lon="-5.749179">
        <ele>362.0</ele>
        <time>2021-02-13T11:10:11Z</time>
      </trkpt>
      <trkpt lat="38.91819" lon="-5.749134">
        <ele>362.0</ele>
        <time>2021-02-13T11:10:12Z</time>
      </trkpt>
      <trkpt lat="38.918182" lon="-5.7490897">
        <ele>362.0</ele>
        <time>2021-02-13T11:10:13Z</time>
      </trkpt>
      <trkpt lat="38.918175" lon="-5.749047">
        <ele>362.0</ele>
        <time>2021-02-13T11:10:14Z</time>
      </trkpt>
      <trkpt lat="38.918167" lon="-5.7490025">
        <ele>363.0</ele>
        <time>2021-02-13T11:10:15Z</time>
      </trkpt>
      <trkpt lat="38.91816" lon="-5.748953">
        <ele>363.0</ele>
        <time>2021-02-13T11:10:16Z</time>
      </trkpt>
      <trkpt lat="38.918148" lon="-5.7489038">
        <ele>363.0</ele>
        <time>2021-02-13T11:10:17Z</time>
      </trkpt>
      <trkpt lat="38.91814" lon="-5.7488546">
        <ele>363.0</ele>
        <time>2021-02-13T11:10:18Z</time>
      </trkpt>
      <trkpt lat="38.918133" lon="-5.748805">
        <ele>363.0</ele>
        <time>2021-02-13T11:10:19Z</time>
      </trkpt>
      <trkpt lat="38.91812" lon="-5.748756">
        <ele>363.0</ele>
        <time>2021-02-13T11:10:20Z</time>
      </trkpt>
      <trkpt lat="38.918114" lon="-5.7487073">
        <ele>363.0</ele>
        <time>2021-02-13T11:10:21Z</time>
      </trkpt>
      <trkpt lat="38.918102" lon="-5.7486606">
        <ele>363.0</ele>
        <time>2021-02-13T11:10:22Z</time>
      </trkpt>
      <trkpt lat="38.918095" lon="-5.748614">
        <ele>363.0</ele>
        <time>2021-02-13T11:10:23Z</time>
      </trkpt>
      <trkpt lat="38.918083" lon="-5.7485685">
        <ele>363.0</ele>
        <time>2021-02-13T11:10:24Z</time>
      </trkpt>
      <trkpt lat="38.91807" lon="-5.748521">
        <ele>363.0</ele>
        <time>2021-02-13T11:10:25Z</time>
      </trkpt>
      <trkpt lat="38.91806" lon="-5.748474">
        <ele>363.0</ele>
        <time>2021-02-13T11:10:26Z</time>
      </trkpt>
      <trkpt lat="38.918053" lon="-5.7484274">
        <ele>363.0</ele>
        <time>2021-02-13T11:10:27Z</time>
      </trkpt>
      <trkpt lat="38.918045" lon="-5.74838">
        <ele>363.0</ele>
        <time>2021-02-13T11:10:28Z</time>
      </trkpt>
      <trkpt lat="38.918037" lon="-5.7483315">
        <ele>363.0</ele>
        <time>2021-02-13T11:10:29Z</time>
      </trkpt>
      <trkpt lat="38.91803" lon="-5.7482824">
        <ele>363.0</ele>
        <time>2021-02-13T11:10:30Z</time>
      </trkpt>
      <trkpt lat="38.918026" lon="-5.748234">
        <ele>363.0</ele>
        <time>2021-02-13T11:10:31Z</time>
      </trkpt>
      <trkpt lat="38.918022" lon="-5.7481823">
        <ele>363.0</ele>
        <time>2021-02-13T11:10:32Z</time>
      </trkpt>
      <trkpt lat="38.918015" lon="-5.74813">
        <ele>363.0</ele>
        <time>2021-02-13T11:10:33Z</time>
      </trkpt>
      <trkpt lat="38.918015" lon="-5.748077">
        <ele>363.0</ele>
        <time>2021-02-13T11:10:34Z</time>
      </trkpt>
      <trkpt lat="38.918015" lon="-5.748023">
        <ele>363.0</ele>
        <time>2021-02-13T11:10:35Z</time>
      </trkpt>
      <trkpt lat="38.91801" lon="-5.7479687">
        <ele>363.0</ele>
        <time>2021-02-13T11:10:36Z</time>
      </trkpt>
      <trkpt lat="38.918007" lon="-5.7479143">
        <ele>363.0</ele>
        <time>2021-02-13T11:10:37Z</time>
      </trkpt>
      <trkpt lat="38.918007" lon="-5.747858">
        <ele>363.0</ele>
        <time>2021-02-13T11:10:38Z</time>
      </trkpt>
      <trkpt lat="38.918007" lon="-5.7478004">
        <ele>362.0</ele>
        <time>2021-02-13T11:10:39Z</time>
      </trkpt>
      <trkpt lat="38.918003" lon="-5.747742">
        <ele>362.0</ele>
        <time>2021-02-13T11:10:40Z</time>
      </trkpt>
      <trkpt lat="38.918003" lon="-5.747682">
        <ele>362.0</ele>
        <time>2021-02-13T11:10:41Z</time>
      </trkpt>
      <trkpt lat="38.918003" lon="-5.7476196">
        <ele>362.0</ele>
        <time>2021-02-13T11:10:42Z</time>
      </trkpt>
      <trkpt lat="38.918003" lon="-5.7475605">
        <ele>361.0</ele>
        <time>2021-02-13T11:10:43Z</time>
      </trkpt>
      <trkpt lat="38.918007" lon="-5.747495">
        <ele>361.0</ele>
        <time>2021-02-13T11:10:44Z</time>
      </trkpt>
      <trkpt lat="38.918007" lon="-5.7474284">
        <ele>361.0</ele>
        <time>2021-02-13T11:10:45Z</time>
      </trkpt>
      <trkpt lat="38.918007" lon="-5.747362">
        <ele>361.0</ele>
        <time>2021-02-13T11:10:46Z</time>
      </trkpt>
      <trkpt lat="38.918007" lon="-5.7472935">
        <ele>360.0</ele>
        <time>2021-02-13T11:10:47Z</time>
      </trkpt>
      <trkpt lat="38.918007" lon="-5.747223">
        <ele>360.0</ele>
        <time>2021-02-13T11:10:48Z</time>
      </trkpt>
      <trkpt lat="38.918003" lon="-5.74715">
        <ele>360.0</ele>
        <time>2021-02-13T11:10:49Z</time>
      </trkpt>
      <trkpt lat="38.918" lon="-5.7470765">
        <ele>360.0</ele>
        <time>2021-02-13T11:10:50Z</time>
      </trkpt>
      <trkpt lat="38.91799" lon="-5.747005">
        <ele>359.0</ele>
        <time>2021-02-13T11:10:51Z</time>
      </trkpt>
      <trkpt lat="38.91798" lon="-5.7469325">
        <ele>359.0</ele>
        <time>2021-02-13T11:10:52Z</time>
      </trkpt>
      <trkpt lat="38.91797" lon="-5.746861">
        <ele>359.0</ele>
        <time>2021-02-13T11:10:53Z</time>
      </trkpt>
      <trkpt lat="38.91796" lon="-5.746786">
        <ele>359.0</ele>
        <time>2021-02-13T11:10:54Z</time>
      </trkpt>
      <trkpt lat="38.91795" lon="-5.74671">
        <ele>358.0</ele>
        <time>2021-02-13T11:10:55Z</time>
      </trkpt>
      <trkpt lat="38.91794" lon="-5.746633">
        <ele>358.0</ele>
        <time>2021-02-13T11:10:56Z</time>
      </trkpt>
      <trkpt lat="38.917927" lon="-5.7465534">
        <ele>358.0</ele>
        <time>2021-02-13T11:10:57Z</time>
      </trkpt>
      <trkpt lat="38.917915" lon="-5.7464724">
        <ele>358.0</ele>
        <time>2021-02-13T11:10:58Z</time>
      </trkpt>
      <trkpt lat="38.9179" lon="-5.7463903">
        <ele>357.0</ele>
        <time>2021-02-13T11:10:59Z</time>
      </trkpt>
      <trkpt lat="38.917885" lon="-5.7463083">
        <ele>357.0</ele>
        <time>2021-02-13T11:11:00Z</time>
      </trkpt>
      <trkpt lat="38.917873" lon="-5.7462296">
        <ele>357.0</ele>
        <time>2021-02-13T11:11:01Z</time>
      </trkpt>
      <trkpt lat="38.91786" lon="-5.7461433">
        <ele>357.0</ele>
        <time>2021-02-13T11:11:02Z</time>
      </trkpt>
      <trkpt lat="38.917843" lon="-5.746063">
        <ele>356.0</ele>
        <time>2021-02-13T11:11:03Z</time>
      </trkpt>
      <trkpt lat="38.917828" lon="-5.7459774">
        <ele>356.0</ele>
        <time>2021-02-13T11:11:04Z</time>
      </trkpt>
      <trkpt lat="38.917816" lon="-5.745892">
        <ele>356.0</ele>
        <time>2021-02-13T11:11:05Z</time>
      </trkpt>
      <trkpt lat="38.917805" lon="-5.745806">
        <ele>355.0</ele>
        <time>2021-02-13T11:11:06Z</time>
      </trkpt>
      <trkpt lat="38.91779" lon="-5.74572">
        <ele>355.0</ele>
        <time>2021-02-13T11:11:07Z</time>
      </trkpt>
      <trkpt lat="38.917778" lon="-5.7456346">
        <ele>355.0</ele>
        <time>2021-02-13T11:11:08Z</time>
      </trkpt>
      <trkpt lat="38.917763" lon="-5.7455554">
        <ele>355.0</ele>
        <time>2021-02-13T11:11:09Z</time>
      </trkpt>
      <trkpt lat="38.91775" lon="-5.745474">
        <ele>354.0</ele>
        <time>2021-02-13T11:11:10Z</time>
      </trkpt>
      <trkpt lat="38.917736" lon="-5.745391">
        <ele>354.0</ele>
        <time>2021-02-13T11:11:11Z</time>
      </trkpt>
      <trkpt lat="38.917725" lon="-5.745304">
        <ele>354.0</ele>
        <time>2021-02-13T11:11:12Z</time>
      </trkpt>
      <trkpt lat="38.917713" lon="-5.74521">
        <ele>354.0</ele>
        <time>2021-02-13T11:11:13Z</time>
      </trkpt>
      <trkpt lat="38.917698" lon="-5.745116">
        <ele>354.0</ele>
        <time>2021-02-13T11:11:14Z</time>
      </trkpt>
      <trkpt lat="38.917686" lon="-5.7450204">
        <ele>353.0</ele>
        <time>2021-02-13T11:11:15Z</time>
      </trkpt>
      <trkpt lat="38.91767" lon="-5.744923">
        <ele>353.0</ele>
        <time>2021-02-13T11:11:16Z</time>
      </trkpt>
      <trkpt lat="38.917656" lon="-5.7448235">
        <ele>352.0</ele>
        <time>2021-02-13T11:11:17Z</time>
      </trkpt>
      <trkpt lat="38.917645" lon="-5.7447224">
        <ele>352.0</ele>
        <time>2021-02-13T11:11:18Z</time>
      </trkpt>
      <trkpt lat="38.917633" lon="-5.7446184">
        <ele>350.0</ele>
        <time>2021-02-13T11:11:19Z</time>
      </trkpt>
      <trkpt lat="38.917625" lon="-5.744512">
        <ele>350.0</ele>
        <time>2021-02-13T11:11:20Z</time>
      </trkpt>
      <trkpt lat="38.917618" lon="-5.7444015">
        <ele>349.0</ele>
        <time>2021-02-13T11:11:21Z</time>
      </trkpt>
      <trkpt lat="38.91761" lon="-5.7442875">
        <ele>349.0</ele>
        <time>2021-02-13T11:11:22Z</time>
      </trkpt>
      <trkpt lat="38.917603" lon="-5.74417">
        <ele>347.0</ele>
        <time>2021-02-13T11:11:23Z</time>
      </trkpt>
      <trkpt lat="38.9176" lon="-5.7440524">
        <ele>347.0</ele>
        <time>2021-02-13T11:11:24Z</time>
      </trkpt>
      <trkpt lat="38.917595" lon="-5.7439413">
        <ele>346.0</ele>
        <time>2021-02-13T11:11:25Z</time>
      </trkpt>
      <trkpt lat="38.917595" lon="-5.7438183">
        <ele>346.0</ele>
        <time>2021-02-13T11:11:26Z</time>
      </trkpt>
      <trkpt lat="38.9176" lon="-5.743698">
        <ele>345.0</ele>
        <time>2021-02-13T11:11:27Z</time>
      </trkpt>
      <trkpt lat="38.917603" lon="-5.7435813">
        <ele>345.0</ele>
        <time>2021-02-13T11:11:28Z</time>
      </trkpt>
      <trkpt lat="38.91761" lon="-5.7434688">
        <ele>344.0</ele>
        <time>2021-02-13T11:11:29Z</time>
      </trkpt>
      <trkpt lat="38.917618" lon="-5.743362">
        <ele>344.0</ele>
        <time>2021-02-13T11:11:30Z</time>
      </trkpt>
      <trkpt lat="38.917633" lon="-5.7432613">
        <ele>344.0</ele>
        <time>2021-02-13T11:11:31Z</time>
      </trkpt>
      <trkpt lat="38.917645" lon="-5.743167">
        <ele>343.0</ele>
        <time>2021-02-13T11:11:32Z</time>
      </trkpt>
      <trkpt lat="38.917656" lon="-5.74308">
        <ele>343.0</ele>
        <time>2021-02-13T11:11:33Z</time>
      </trkpt>
      <trkpt lat="38.917667" lon="-5.7429957">
        <ele>343.0</ele>
        <time>2021-02-13T11:11:34Z</time>
      </trkpt>
      <trkpt lat="38.917675" lon="-5.742922">
        <ele>343.0</ele>
        <time>2021-02-13T11:11:35Z</time>
      </trkpt>
      <trkpt lat="38.91768" lon="-5.7428594">
        <ele>343.0</ele>
        <time>2021-02-13T11:11:36Z</time>
      </trkpt>
      <trkpt lat="38.917675" lon="-5.7428026">
        <ele>343.0</ele>
        <time>2021-02-13T11:11:37Z</time>
      </trkpt>
      <trkpt lat="38.917664" lon="-5.7427526">
        <ele>343.0</ele>
        <time>2021-02-13T11:11:38Z</time>
      </trkpt>
      <trkpt lat="38.917645" lon="-5.7427077">
        <ele>343.0</ele>
        <time>2021-02-13T11:11:39Z</time>
      </trkpt>
      <trkpt lat="38.917618" lon="-5.7426667">
        <ele>343.0</ele>
        <time>2021-02-13T11:11:40Z</time>
      </trkpt>
      <trkpt lat="38.917587" lon="-5.7426276">
        <ele>343.0</ele>
        <time>2021-02-13T11:11:41Z</time>
      </trkpt>
      <trkpt lat="38.917557" lon="-5.7425933">
        <ele>343.0</ele>
        <time>2021-02-13T11:11:42Z</time>
      </trkpt>
      <trkpt lat="38.91752" lon="-5.742559">
        <ele>343.0</ele>
        <time>2021-02-13T11:11:43Z</time>
      </trkpt>
      <trkpt lat="38.917477" lon="-5.742524">
        <ele>343.0</ele>
        <time>2021-02-13T11:11:44Z</time>
      </trkpt>
      <trkpt lat="38.91744" lon="-5.742489">
        <ele>343.0</ele>
        <time>2021-02-13T11:11:45Z</time>
      </trkpt>
      <trkpt lat="38.9174" lon="-5.742455">
        <ele>343.0</ele>
        <time>2021-02-13T11:11:46Z</time>
      </trkpt>
      <trkpt lat="38.917355" lon="-5.7424207">
        <ele>343.0</ele>
        <time>2021-02-13T11:11:47Z</time>
      </trkpt>
      <trkpt lat="38.917316" lon="-5.7423897">
        <ele>343.0</ele>
        <time>2021-02-13T11:11:48Z</time>
      </trkpt>
      <trkpt lat="38.917274" lon="-5.7423596">
        <ele>343.0</ele>
        <time>2021-02-13T11:11:49Z</time>
      </trkpt>
      <trkpt lat="38.917236" lon="-5.742332">
        <ele>343.0</ele>
        <time>2021-02-13T11:11:50Z</time>
      </trkpt>
      <trkpt lat="38.917206" lon="-5.7423067">
        <ele>343.0</ele>
        <time>2021-02-13T11:11:51Z</time>
      </trkpt>
      <trkpt lat="38.917175" lon="-5.7422843">
        <ele>343.0</ele>
        <time>2021-02-13T11:11:52Z</time>
      </trkpt>
      <trkpt lat="38.917152" lon="-5.7422657">
        <ele>344.0</ele>
        <time>2021-02-13T11:11:53Z</time>
      </trkpt>
      <trkpt lat="38.917137" lon="-5.742251">
        <ele>344.0</ele>
        <time>2021-02-13T11:11:54Z</time>
      </trkpt>
      <trkpt lat="38.917103" lon="-5.742221">
        <ele>344.0</ele>
        <time>2021-02-13T11:11:56Z</time>
      </trkpt>
      <trkpt lat="38.917053" lon="-5.7422104">
        <ele>344.0</ele>
        <time>2021-02-13T11:12:30Z</time>
      </trkpt>
      <trkpt lat="38.917046" lon="-5.7422066">
        <ele>344.0</ele>
        <time>2021-02-13T11:12:31Z</time>
      </trkpt>
      <trkpt lat="38.917034" lon="-5.742197">
        <ele>344.0</ele>
        <time>2021-02-13T11:12:32Z</time>
      </trkpt>
      <trkpt lat="38.91701" lon="-5.7421837">
        <ele>344.0</ele>
        <time>2021-02-13T11:12:33Z</time>
      </trkpt>
      <trkpt lat="38.916985" lon="-5.742167">
        <ele>344.0</ele>
        <time>2021-02-13T11:12:34Z</time>
      </trkpt>
      <trkpt lat="38.91695" lon="-5.7421465">
        <ele>344.0</ele>
        <time>2021-02-13T11:12:35Z</time>
      </trkpt>
      <trkpt lat="38.916916" lon="-5.742125">
        <ele>344.0</ele>
        <time>2021-02-13T11:12:36Z</time>
      </trkpt>
      <trkpt lat="38.916878" lon="-5.742101">
        <ele>344.0</ele>
        <time>2021-02-13T11:12:37Z</time>
      </trkpt>
      <trkpt lat="38.91684" lon="-5.742077">
        <ele>344.0</ele>
        <time>2021-02-13T11:12:38Z</time>
      </trkpt>
      <trkpt lat="38.9168" lon="-5.7420545">
        <ele>344.0</ele>
        <time>2021-02-13T11:12:39Z</time>
      </trkpt>
      <trkpt lat="38.916763" lon="-5.7420354">
        <ele>344.0</ele>
        <time>2021-02-13T11:12:40Z</time>
      </trkpt>
      <trkpt lat="38.916718" lon="-5.7420173">
        <ele>345.0</ele>
        <time>2021-02-13T11:12:41Z</time>
      </trkpt>
      <trkpt lat="38.916676" lon="-5.742002">
        <ele>345.0</ele>
        <time>2021-02-13T11:12:42Z</time>
      </trkpt>
      <trkpt lat="38.916637" lon="-5.7419877">
        <ele>345.0</ele>
        <time>2021-02-13T11:12:43Z</time>
      </trkpt>
      <trkpt lat="38.9166" lon="-5.741973">
        <ele>345.0</ele>
        <time>2021-02-13T11:12:44Z</time>
      </trkpt>
      <trkpt lat="38.91656" lon="-5.7419558">
        <ele>345.0</ele>
        <time>2021-02-13T11:12:45Z</time>
      </trkpt>
      <trkpt lat="38.916527" lon="-5.741939">
        <ele>345.0</ele>
        <time>2021-02-13T11:12:46Z</time>
      </trkpt>
      <trkpt lat="38.916492" lon="-5.7419243">
        <ele>345.0</ele>
        <time>2021-02-13T11:12:47Z</time>
      </trkpt>
      <trkpt lat="38.916454" lon="-5.7419105">
        <ele>345.0</ele>
        <time>2021-02-13T11:12:48Z</time>
      </trkpt>
      <trkpt lat="38.916416" lon="-5.741897">
        <ele>345.0</ele>
        <time>2021-02-13T11:12:49Z</time>
      </trkpt>
      <trkpt lat="38.91638" lon="-5.7418847">
        <ele>346.0</ele>
        <time>2021-02-13T11:12:50Z</time>
      </trkpt>
      <trkpt lat="38.916344" lon="-5.741873">
        <ele>346.0</ele>
        <time>2021-02-13T11:12:51Z</time>
      </trkpt>
      <trkpt lat="38.916306" lon="-5.7418604">
        <ele>346.0</ele>
        <time>2021-02-13T11:12:52Z</time>
      </trkpt>
      <trkpt lat="38.91627" lon="-5.7418513">
        <ele>346.0</ele>
        <time>2021-02-13T11:12:53Z</time>
      </trkpt>
      <trkpt lat="38.916233" lon="-5.7418413">
        <ele>346.0</ele>
        <time>2021-02-13T11:12:54Z</time>
      </trkpt>
      <trkpt lat="38.9162" lon="-5.741831">
        <ele>347.0</ele>
        <time>2021-02-13T11:12:55Z</time>
      </trkpt>
      <trkpt lat="38.916164" lon="-5.741819">
        <ele>347.0</ele>
        <time>2021-02-13T11:12:56Z</time>
      </trkpt>
      <trkpt lat="38.91613" lon="-5.741804">
        <ele>347.0</ele>
        <time>2021-02-13T11:12:57Z</time>
      </trkpt>
      <trkpt lat="38.916096" lon="-5.7417884">
        <ele>347.0</ele>
        <time>2021-02-13T11:12:58Z</time>
      </trkpt>
      <trkpt lat="38.91606" lon="-5.7417707">
        <ele>347.0</ele>
        <time>2021-02-13T11:12:59Z</time>
      </trkpt>
      <trkpt lat="38.91603" lon="-5.741752">
        <ele>348.0</ele>
        <time>2021-02-13T11:13:00Z</time>
      </trkpt>
      <trkpt lat="38.915997" lon="-5.741737">
        <ele>348.0</ele>
        <time>2021-02-13T11:13:01Z</time>
      </trkpt>
      <trkpt lat="38.915962" lon="-5.741722">
        <ele>348.0</ele>
        <time>2021-02-13T11:13:02Z</time>
      </trkpt>
      <trkpt lat="38.915928" lon="-5.741709">
        <ele>348.0</ele>
        <time>2021-02-13T11:13:03Z</time>
      </trkpt>
      <trkpt lat="38.915897" lon="-5.741697">
        <ele>348.0</ele>
        <time>2021-02-13T11:13:04Z</time>
      </trkpt>
      <trkpt lat="38.915863" lon="-5.7416844">
        <ele>349.0</ele>
        <time>2021-02-13T11:13:05Z</time>
      </trkpt>
      <trkpt lat="38.915833" lon="-5.741673">
        <ele>349.0</ele>
        <time>2021-02-13T11:13:06Z</time>
      </trkpt>
      <trkpt lat="38.915802" lon="-5.7416635">
        <ele>349.0</ele>
        <time>2021-02-13T11:13:07Z</time>
      </trkpt>
      <trkpt lat="38.915768" lon="-5.741655">
        <ele>349.0</ele>
        <time>2021-02-13T11:13:08Z</time>
      </trkpt>
      <trkpt lat="38.91574" lon="-5.741645">
        <ele>350.0</ele>
        <time>2021-02-13T11:13:09Z</time>
      </trkpt>
      <trkpt lat="38.91571" lon="-5.7416334">
        <ele>350.0</ele>
        <time>2021-02-13T11:13:10Z</time>
      </trkpt>
      <trkpt lat="38.915684" lon="-5.74162">
        <ele>350.0</ele>
        <time>2021-02-13T11:13:11Z</time>
      </trkpt>
      <trkpt lat="38.915657" lon="-5.741606">
        <ele>350.0</ele>
        <time>2021-02-13T11:13:12Z</time>
      </trkpt>
      <trkpt lat="38.915627" lon="-5.741594">
        <ele>350.0</ele>
        <time>2021-02-13T11:13:13Z</time>
      </trkpt>
      <trkpt lat="38.915596" lon="-5.741581">
        <ele>351.0</ele>
        <time>2021-02-13T11:13:14Z</time>
      </trkpt>
      <trkpt lat="38.91556" lon="-5.741568">
        <ele>351.0</ele>
        <time>2021-02-13T11:13:15Z</time>
      </trkpt>
      <trkpt lat="38.91553" lon="-5.7415557">
        <ele>351.0</ele>
        <time>2021-02-13T11:13:16Z</time>
      </trkpt>
      <trkpt lat="38.9155" lon="-5.7415423">
        <ele>351.0</ele>
        <time>2021-02-13T11:13:17Z</time>
      </trkpt>
      <trkpt lat="38.915474" lon="-5.7415285">
        <ele>351.0</ele>
        <time>2021-02-13T11:13:18Z</time>
      </trkpt>
      <trkpt lat="38.915447" lon="-5.7415137">
        <ele>351.0</ele>
        <time>2021-02-13T11:13:19Z</time>
      </trkpt>
      <trkpt lat="38.91542" lon="-5.7415004">
        <ele>351.0</ele>
        <time>2021-02-13T11:13:20Z</time>
      </trkpt>
      <trkpt lat="38.915394" lon="-5.74149">
        <ele>351.0</ele>
        <time>2021-02-13T11:13:20Z</time>
      </trkpt>
      <trkpt lat="38.915363" lon="-5.7414804">
        <ele>352.0</ele>
        <time>2021-02-13T11:13:21Z</time>
      </trkpt>
      <trkpt lat="38.915337" lon="-5.741471">
        <ele>352.0</ele>
        <time>2021-02-13T11:13:22Z</time>
      </trkpt>
      <trkpt lat="38.91531" lon="-5.7414584">
        <ele>352.0</ele>
        <time>2021-02-13T11:13:23Z</time>
      </trkpt>
      <trkpt lat="38.915283" lon="-5.7414465">
        <ele>352.0</ele>
        <time>2021-02-13T11:13:24Z</time>
      </trkpt>
      <trkpt lat="38.91526" lon="-5.741434">
        <ele>353.0</ele>
        <time>2021-02-13T11:13:25Z</time>
      </trkpt>
      <trkpt lat="38.915234" lon="-5.741423">
        <ele>353.0</ele>
        <time>2021-02-13T11:13:26Z</time>
      </trkpt>
      <trkpt lat="38.915207" lon="-5.741413">
        <ele>353.0</ele>
        <time>2021-02-13T11:13:27Z</time>
      </trkpt>
      <trkpt lat="38.91518" lon="-5.741403">
        <ele>353.0</ele>
        <time>2021-02-13T11:13:28Z</time>
      </trkpt>
      <trkpt lat="38.915157" lon="-5.741391">
        <ele>354.0</ele>
        <time>2021-02-13T11:13:29Z</time>
      </trkpt>
      <trkpt lat="38.915134" lon="-5.7413816">
        <ele>354.0</ele>
        <time>2021-02-13T11:13:30Z</time>
      </trkpt>
      <trkpt lat="38.91511" lon="-5.7413745">
        <ele>354.0</ele>
        <time>2021-02-13T11:13:31Z</time>
      </trkpt>
      <trkpt lat="38.91509" lon="-5.741368">
        <ele>354.0</ele>
        <time>2021-02-13T11:13:32Z</time>
      </trkpt>
      <trkpt lat="38.915066" lon="-5.7413573">
        <ele>355.0</ele>
        <time>2021-02-13T11:13:33Z</time>
      </trkpt>
      <trkpt lat="38.915043" lon="-5.741346">
        <ele>355.0</ele>
        <time>2021-02-13T11:13:34Z</time>
      </trkpt>
      <trkpt lat="38.915024" lon="-5.741335">
        <ele>355.0</ele>
        <time>2021-02-13T11:13:35Z</time>
      </trkpt>
      <trkpt lat="38.915" lon="-5.7413287">
        <ele>355.0</ele>
        <time>2021-02-13T11:13:36Z</time>
      </trkpt>
      <trkpt lat="38.914978" lon="-5.741322">
        <ele>356.0</ele>
        <time>2021-02-13T11:13:37Z</time>
      </trkpt>
      <trkpt lat="38.914955" lon="-5.7413135">
        <ele>356.0</ele>
        <time>2021-02-13T11:13:38Z</time>
      </trkpt>
      <trkpt lat="38.914936" lon="-5.7413034">
        <ele>356.0</ele>
        <time>2021-02-13T11:13:39Z</time>
      </trkpt>
      <trkpt lat="38.914917" lon="-5.741292">
        <ele>356.0</ele>
        <time>2021-02-13T11:13:40Z</time>
      </trkpt>
      <trkpt lat="38.914894" lon="-5.7412815">
        <ele>356.0</ele>
        <time>2021-02-13T11:13:41Z</time>
      </trkpt>
      <trkpt lat="38.91487" lon="-5.7412686">
        <ele>356.0</ele>
        <time>2021-02-13T11:13:42Z</time>
      </trkpt>
      <trkpt lat="38.91485" lon="-5.741258">
        <ele>356.0</ele>
        <time>2021-02-13T11:13:43Z</time>
      </trkpt>
      <trkpt lat="38.914825" lon="-5.741248">
        <ele>356.0</ele>
        <time>2021-02-13T11:13:44Z</time>
      </trkpt>
      <trkpt lat="38.9148" lon="-5.7412386">
        <ele>357.0</ele>
        <time>2021-02-13T11:13:45Z</time>
      </trkpt>
      <trkpt lat="38.914776" lon="-5.7412305">
        <ele>357.0</ele>
        <time>2021-02-13T11:13:46Z</time>
      </trkpt>
      <trkpt lat="38.914753" lon="-5.741221">
        <ele>357.0</ele>
        <time>2021-02-13T11:13:47Z</time>
      </trkpt>
      <trkpt lat="38.91473" lon="-5.741213">
        <ele>358.0</ele>
        <time>2021-02-13T11:13:48Z</time>
      </trkpt>
      <trkpt lat="38.914707" lon="-5.7412043">
        <ele>358.0</ele>
        <time>2021-02-13T11:13:49Z</time>
      </trkpt>
      <trkpt lat="38.91468" lon="-5.7411976">
        <ele>358.0</ele>
        <time>2021-02-13T11:13:50Z</time>
      </trkpt>
      <trkpt lat="38.914658" lon="-5.741193">
        <ele>358.0</ele>
        <time>2021-02-13T11:13:51Z</time>
      </trkpt>
      <trkpt lat="38.91463" lon="-5.74119">
        <ele>358.0</ele>
        <time>2021-02-13T11:13:52Z</time>
      </trkpt>
      <trkpt lat="38.914604" lon="-5.7411885">
        <ele>359.0</ele>
        <time>2021-02-13T11:13:53Z</time>
      </trkpt>
      <trkpt lat="38.914577" lon="-5.7411866">
        <ele>359.0</ele>
        <time>2021-02-13T11:13:54Z</time>
      </trkpt>
      <trkpt lat="38.91455" lon="-5.7411847">
        <ele>359.0</ele>
        <time>2021-02-13T11:13:55Z</time>
      </trkpt>
      <trkpt lat="38.914524" lon="-5.741183">
        <ele>359.0</ele>
        <time>2021-02-13T11:13:56Z</time>
      </trkpt>
      <trkpt lat="38.914497" lon="-5.741179">
        <ele>359.0</ele>
        <time>2021-02-13T11:13:57Z</time>
      </trkpt>
      <trkpt lat="38.91447" lon="-5.741177">
        <ele>359.0</ele>
        <time>2021-02-13T11:13:58Z</time>
      </trkpt>
      <trkpt lat="38.914444" lon="-5.7411757">
        <ele>360.0</ele>
        <time>2021-02-13T11:13:59Z</time>
      </trkpt>
      <trkpt lat="38.914413" lon="-5.741177">
        <ele>360.0</ele>
        <time>2021-02-13T11:14:00Z</time>
      </trkpt>
      <trkpt lat="38.914383" lon="-5.741176">
        <ele>360.0</ele>
        <time>2021-02-13T11:14:01Z</time>
      </trkpt>
      <trkpt lat="38.914352" lon="-5.7411757">
        <ele>360.0</ele>
        <time>2021-02-13T11:14:02Z</time>
      </trkpt>
      <trkpt lat="38.914326" lon="-5.741174">
        <ele>360.0</ele>
        <time>2021-02-13T11:14:03Z</time>
      </trkpt>
      <trkpt lat="38.914295" lon="-5.7411714">
        <ele>360.0</ele>
        <time>2021-02-13T11:14:04Z</time>
      </trkpt>
      <trkpt lat="38.914265" lon="-5.7411675">
        <ele>360.0</ele>
        <time>2021-02-13T11:14:05Z</time>
      </trkpt>
      <trkpt lat="38.914238" lon="-5.741163">
        <ele>360.0</ele>
        <time>2021-02-13T11:14:06Z</time>
      </trkpt>
      <trkpt lat="38.914207" lon="-5.74116">
        <ele>361.0</ele>
        <time>2021-02-13T11:14:07Z</time>
      </trkpt>
      <trkpt lat="38.91418" lon="-5.7411575">
        <ele>361.0</ele>
        <time>2021-02-13T11:14:08Z</time>
      </trkpt>
      <trkpt lat="38.914154" lon="-5.741155">
        <ele>361.0</ele>
        <time>2021-02-13T11:14:09Z</time>
      </trkpt>
      <trkpt lat="38.914127" lon="-5.741153">
        <ele>361.0</ele>
        <time>2021-02-13T11:14:10Z</time>
      </trkpt>
      <trkpt lat="38.9141" lon="-5.7411494">
        <ele>361.0</ele>
        <time>2021-02-13T11:14:11Z</time>
      </trkpt>
      <trkpt lat="38.91407" lon="-5.741145">
        <ele>361.0</ele>
        <time>2021-02-13T11:14:12Z</time>
      </trkpt>
      <trkpt lat="38.91404" lon="-5.7411413">
        <ele>361.0</ele>
        <time>2021-02-13T11:14:13Z</time>
      </trkpt>
      <trkpt lat="38.914013" lon="-5.7411375">
        <ele>361.0</ele>
        <time>2021-02-13T11:14:14Z</time>
      </trkpt>
      <trkpt lat="38.913982" lon="-5.741134">
        <ele>361.0</ele>
        <time>2021-02-13T11:14:15Z</time>
      </trkpt>
      <trkpt lat="38.913948" lon="-5.7411313">
        <ele>361.0</ele>
        <time>2021-02-13T11:14:16Z</time>
      </trkpt>
      <trkpt lat="38.913914" lon="-5.7411284">
        <ele>361.0</ele>
        <time>2021-02-13T11:14:17Z</time>
      </trkpt>
      <trkpt lat="38.913883" lon="-5.7411256">
        <ele>361.0</ele>
        <time>2021-02-13T11:14:18Z</time>
      </trkpt>
      <trkpt lat="38.91385" lon="-5.7411227">
        <ele>361.0</ele>
        <time>2021-02-13T11:14:19Z</time>
      </trkpt>
      <trkpt lat="38.91381" lon="-5.741121">
        <ele>361.0</ele>
        <time>2021-02-13T11:14:20Z</time>
      </trkpt>
      <trkpt lat="38.913773" lon="-5.741119">
        <ele>361.0</ele>
        <time>2021-02-13T11:14:21Z</time>
      </trkpt>
      <trkpt lat="38.913727" lon="-5.741115">
        <ele>360.0</ele>
        <time>2021-02-13T11:14:22Z</time>
      </trkpt>
      <trkpt lat="38.91368" lon="-5.741111">
        <ele>360.0</ele>
        <time>2021-02-13T11:14:23Z</time>
      </trkpt>
      <trkpt lat="38.913624" lon="-5.741106">
        <ele>360.0</ele>
        <time>2021-02-13T11:14:24Z</time>
      </trkpt>
      <trkpt lat="38.91357" lon="-5.7411003">
        <ele>359.0</ele>
        <time>2021-02-13T11:14:25Z</time>
      </trkpt>
      <trkpt lat="38.913513" lon="-5.7410927">
        <ele>359.0</ele>
        <time>2021-02-13T11:14:26Z</time>
      </trkpt>
      <trkpt lat="38.913456" lon="-5.741082">
        <ele>359.0</ele>
        <time>2021-02-13T11:14:27Z</time>
      </trkpt>
      <trkpt lat="38.913395" lon="-5.7410727">
        <ele>359.0</ele>
        <time>2021-02-13T11:14:28Z</time>
      </trkpt>
      <trkpt lat="38.913334" lon="-5.741063">
        <ele>358.0</ele>
        <time>2021-02-13T11:14:29Z</time>
      </trkpt>
      <trkpt lat="38.913273" lon="-5.741054">
        <ele>358.0</ele>
        <time>2021-02-13T11:14:30Z</time>
      </trkpt>
      <trkpt lat="38.91321" lon="-5.741046">
        <ele>358.0</ele>
        <time>2021-02-13T11:14:31Z</time>
      </trkpt>
      <trkpt lat="38.91315" lon="-5.741039">
        <ele>358.0</ele>
        <time>2021-02-13T11:14:32Z</time>
      </trkpt>
      <trkpt lat="38.91309" lon="-5.741035">
        <ele>358.0</ele>
        <time>2021-02-13T11:14:33Z</time>
      </trkpt>
      <trkpt lat="38.913033" lon="-5.741035">
        <ele>357.0</ele>
        <time>2021-02-13T11:14:34Z</time>
      </trkpt>
      <trkpt lat="38.912964" lon="-5.7410407">
        <ele>357.0</ele>
        <time>2021-02-13T11:14:35Z</time>
      </trkpt>
      <trkpt lat="38.912895" lon="-5.741052">
        <ele>357.0</ele>
        <time>2021-02-13T11:14:36Z</time>
      </trkpt>
      <trkpt lat="38.91283" lon="-5.7410636">
        <ele>357.0</ele>
        <time>2021-02-13T11:14:37Z</time>
      </trkpt>
      <trkpt lat="38.912766" lon="-5.741076">
        <ele>357.0</ele>
        <time>2021-02-13T11:14:38Z</time>
      </trkpt>
      <trkpt lat="38.912704" lon="-5.7410874">
        <ele>357.0</ele>
        <time>2021-02-13T11:14:39Z</time>
      </trkpt>
      <trkpt lat="38.912643" lon="-5.741097">
        <ele>357.0</ele>
        <time>2021-02-13T11:14:40Z</time>
      </trkpt>
      <trkpt lat="38.912586" lon="-5.741101">
        <ele>357.0</ele>
        <time>2021-02-13T11:14:41Z</time>
      </trkpt>
      <trkpt lat="38.91253" lon="-5.741099">
        <ele>357.0</ele>
        <time>2021-02-13T11:14:42Z</time>
      </trkpt>
      <trkpt lat="38.91247" lon="-5.7410893">
        <ele>357.0</ele>
        <time>2021-02-13T11:14:43Z</time>
      </trkpt>
      <trkpt lat="38.91242" lon="-5.741075">
        <ele>357.0</ele>
        <time>2021-02-13T11:14:44Z</time>
      </trkpt>
      <trkpt lat="38.91237" lon="-5.7410574">
        <ele>357.0</ele>
        <time>2021-02-13T11:14:45Z</time>
      </trkpt>
      <trkpt lat="38.91232" lon="-5.741037">
        <ele>357.0</ele>
        <time>2021-02-13T11:14:46Z</time>
      </trkpt>
      <trkpt lat="38.912273" lon="-5.741013">
        <ele>357.0</ele>
        <time>2021-02-13T11:14:47Z</time>
      </trkpt>
      <trkpt lat="38.912224" lon="-5.7409883">
        <ele>357.0</ele>
        <time>2021-02-13T11:14:48Z</time>
      </trkpt>
      <trkpt lat="38.912178" lon="-5.7409606">
        <ele>357.0</ele>
        <time>2021-02-13T11:14:49Z</time>
      </trkpt>
      <trkpt lat="38.912132" lon="-5.7409344">
        <ele>357.0</ele>
        <time>2021-02-13T11:14:50Z</time>
      </trkpt>
      <trkpt lat="38.912086" lon="-5.740908">
        <ele>357.0</ele>
        <time>2021-02-13T11:14:51Z</time>
      </trkpt>
      <trkpt lat="38.91204" lon="-5.7408834">
        <ele>357.0</ele>
        <time>2021-02-13T11:14:52Z</time>
      </trkpt>
      <trkpt lat="38.912" lon="-5.7408595">
        <ele>357.0</ele>
        <time>2021-02-13T11:14:53Z</time>
      </trkpt>
      <trkpt lat="38.911953" lon="-5.7408366">
        <ele>357.0</ele>
        <time>2021-02-13T11:14:54Z</time>
      </trkpt>
      <trkpt lat="38.911907" lon="-5.740814">
        <ele>357.0</ele>
        <time>2021-02-13T11:14:55Z</time>
      </trkpt>
      <trkpt lat="38.91186" lon="-5.7407923">
        <ele>357.0</ele>
        <time>2021-02-13T11:14:56Z</time>
      </trkpt>
      <trkpt lat="38.91182" lon="-5.7407722">
        <ele>357.0</ele>
        <time>2021-02-13T11:14:57Z</time>
      </trkpt>
      <trkpt lat="38.911774" lon="-5.7407527">
        <ele>357.0</ele>
        <time>2021-02-13T11:14:58Z</time>
      </trkpt>
      <trkpt lat="38.911728" lon="-5.7407327">
        <ele>357.0</ele>
        <time>2021-02-13T11:14:59Z</time>
      </trkpt>
      <trkpt lat="38.911686" lon="-5.7407117">
        <ele>357.0</ele>
        <time>2021-02-13T11:15:00Z</time>
      </trkpt>
      <trkpt lat="38.91164" lon="-5.740691">
        <ele>357.0</ele>
        <time>2021-02-13T11:15:01Z</time>
      </trkpt>
      <trkpt lat="38.911594" lon="-5.7406707">
        <ele>357.0</ele>
        <time>2021-02-13T11:15:02Z</time>
      </trkpt>
      <trkpt lat="38.91155" lon="-5.7406507">
        <ele>357.0</ele>
        <time>2021-02-13T11:15:03Z</time>
      </trkpt>
      <trkpt lat="38.911507" lon="-5.7406306">
        <ele>357.0</ele>
        <time>2021-02-13T11:15:04Z</time>
      </trkpt>
      <trkpt lat="38.91146" lon="-5.740612">
        <ele>357.0</ele>
        <time>2021-02-13T11:15:05Z</time>
      </trkpt>
      <trkpt lat="38.911415" lon="-5.7405915">
        <ele>357.0</ele>
        <time>2021-02-13T11:15:06Z</time>
      </trkpt>
      <trkpt lat="38.911373" lon="-5.7405715">
        <ele>357.0</ele>
        <time>2021-02-13T11:15:07Z</time>
      </trkpt>
      <trkpt lat="38.91133" lon="-5.7405515">
        <ele>357.0</ele>
        <time>2021-02-13T11:15:08Z</time>
      </trkpt>
      <trkpt lat="38.911285" lon="-5.7405334">
        <ele>357.0</ele>
        <time>2021-02-13T11:15:09Z</time>
      </trkpt>
      <trkpt lat="38.911243" lon="-5.7405148">
        <ele>357.0</ele>
        <time>2021-02-13T11:15:10Z</time>
      </trkpt>
      <trkpt lat="38.911205" lon="-5.7404947">
        <ele>357.0</ele>
        <time>2021-02-13T11:15:11Z</time>
      </trkpt>
      <trkpt lat="38.91116" lon="-5.740474">
        <ele>357.0</ele>
        <time>2021-02-13T11:15:12Z</time>
      </trkpt>
      <trkpt lat="38.911118" lon="-5.740454">
        <ele>357.0</ele>
        <time>2021-02-13T11:15:13Z</time>
      </trkpt>
      <trkpt lat="38.911076" lon="-5.7404346">
        <ele>357.0</ele>
        <time>2021-02-13T11:15:14Z</time>
      </trkpt>
      <trkpt lat="38.911034" lon="-5.7404137">
        <ele>357.0</ele>
        <time>2021-02-13T11:15:15Z</time>
      </trkpt>
      <trkpt lat="38.910988" lon="-5.740393">
        <ele>357.0</ele>
        <time>2021-02-13T11:15:16Z</time>
      </trkpt>
      <trkpt lat="38.910946" lon="-5.74037">
        <ele>357.0</ele>
        <time>2021-02-13T11:15:17Z</time>
      </trkpt>
      <trkpt lat="38.9109" lon="-5.740347">
        <ele>357.0</ele>
        <time>2021-02-13T11:15:18Z</time>
      </trkpt>
      <trkpt lat="38.910854" lon="-5.740323">
        <ele>357.0</ele>
        <time>2021-02-13T11:15:19Z</time>
      </trkpt>
      <trkpt lat="38.910812" lon="-5.7402997">
        <ele>357.0</ele>
        <time>2021-02-13T11:15:20Z</time>
      </trkpt>
      <trkpt lat="38.910767" lon="-5.7402763">
        <ele>357.0</ele>
        <time>2021-02-13T11:15:21Z</time>
      </trkpt>
      <trkpt lat="38.91072" lon="-5.740256">
        <ele>357.0</ele>
        <time>2021-02-13T11:15:22Z</time>
      </trkpt>
      <trkpt lat="38.910675" lon="-5.7402387">
        <ele>357.0</ele>
        <time>2021-02-13T11:15:23Z</time>
      </trkpt>
      <trkpt lat="38.91063" lon="-5.7402215">
        <ele>357.0</ele>
        <time>2021-02-13T11:15:24Z</time>
      </trkpt>
      <trkpt lat="38.910572" lon="-5.7402062">
        <ele>357.0</ele>
        <time>2021-02-13T11:15:25Z</time>
      </trkpt>
      <trkpt lat="38.91051" lon="-5.7401934">
        <ele>357.0</ele>
        <time>2021-02-13T11:15:26Z</time>
      </trkpt>
      <trkpt lat="38.91045" lon="-5.7401843">
        <ele>356.0</ele>
        <time>2021-02-13T11:15:27Z</time>
      </trkpt>
      <trkpt lat="38.91039" lon="-5.74018">
        <ele>356.0</ele>
        <time>2021-02-13T11:15:28Z</time>
      </trkpt>
      <trkpt lat="38.910324" lon="-5.74018">
        <ele>356.0</ele>
        <time>2021-02-13T11:15:29Z</time>
      </trkpt>
      <trkpt lat="38.910255" lon="-5.740183">
        <ele>356.0</ele>
        <time>2021-02-13T11:15:30Z</time>
      </trkpt>
      <trkpt lat="38.910187" lon="-5.74019">
        <ele>356.0</ele>
        <time>2021-02-13T11:15:31Z</time>
      </trkpt>
      <trkpt lat="38.910114" lon="-5.7402005">
        <ele>356.0</ele>
        <time>2021-02-13T11:15:32Z</time>
      </trkpt>
      <trkpt lat="38.910046" lon="-5.740213">
        <ele>355.0</ele>
        <time>2021-02-13T11:15:33Z</time>
      </trkpt>
      <trkpt lat="38.909977" lon="-5.7402287">
        <ele>355.0</ele>
        <time>2021-02-13T11:15:34Z</time>
      </trkpt>
      <trkpt lat="38.909904" lon="-5.740246">
        <ele>355.0</ele>
        <time>2021-02-13T11:15:35Z</time>
      </trkpt>
      <trkpt lat="38.909836" lon="-5.740263">
        <ele>355.0</ele>
        <time>2021-02-13T11:15:36Z</time>
      </trkpt>
      <trkpt lat="38.909767" lon="-5.740281">
        <ele>355.0</ele>
        <time>2021-02-13T11:15:37Z</time>
      </trkpt>
      <trkpt lat="38.909702" lon="-5.7402983">
        <ele>354.0</ele>
        <time>2021-02-13T11:15:38Z</time>
      </trkpt>
      <trkpt lat="38.909634" lon="-5.7403154">
        <ele>354.0</ele>
        <time>2021-02-13T11:15:39Z</time>
      </trkpt>
      <trkpt lat="38.909573" lon="-5.740332">
        <ele>354.0</ele>
        <time>2021-02-13T11:15:40Z</time>
      </trkpt>
      <trkpt lat="38.909508" lon="-5.7403483">
        <ele>354.0</ele>
        <time>2021-02-13T11:15:41Z</time>
      </trkpt>
      <trkpt lat="38.90945" lon="-5.7403626">
        <ele>354.0</ele>
        <time>2021-02-13T11:15:42Z</time>
      </trkpt>
      <trkpt lat="38.90939" lon="-5.7403765">
        <ele>354.0</ele>
        <time>2021-02-13T11:15:43Z</time>
      </trkpt>
      <trkpt lat="38.909336" lon="-5.740386">
        <ele>354.0</ele>
        <time>2021-02-13T11:15:44Z</time>
      </trkpt>
      <trkpt lat="38.909283" lon="-5.7403955">
        <ele>354.0</ele>
        <time>2021-02-13T11:15:45Z</time>
      </trkpt>
      <trkpt lat="38.90923" lon="-5.7404046">
        <ele>354.0</ele>
        <time>2021-02-13T11:15:46Z</time>
      </trkpt>
      <trkpt lat="38.90918" lon="-5.7404137">
        <ele>355.0</ele>
        <time>2021-02-13T11:15:47Z</time>
      </trkpt>
      <trkpt lat="38.909134" lon="-5.7404184">
        <ele>355.0</ele>
        <time>2021-02-13T11:15:48Z</time>
      </trkpt>
      <trkpt lat="38.909092" lon="-5.7404203">
        <ele>355.0</ele>
        <time>2021-02-13T11:15:49Z</time>
      </trkpt>
      <trkpt lat="38.909054" lon="-5.7404184">
        <ele>356.0</ele>
        <time>2021-02-13T11:15:50Z</time>
      </trkpt>
      <trkpt lat="38.90901" lon="-5.7404175">
        <ele>356.0</ele>
        <time>2021-02-13T11:15:51Z</time>
      </trkpt>
      <trkpt lat="38.908974" lon="-5.7404175">
        <ele>357.0</ele>
        <time>2021-02-13T11:15:52Z</time>
      </trkpt>
      <trkpt lat="38.90894" lon="-5.7404175">
        <ele>357.0</ele>
        <time>2021-02-13T11:15:53Z</time>
      </trkpt>
      <trkpt lat="38.908905" lon="-5.7404146">
        <ele>358.0</ele>
        <time>2021-02-13T11:15:54Z</time>
      </trkpt>
      <trkpt lat="38.908875" lon="-5.7404075">
        <ele>358.0</ele>
        <time>2021-02-13T11:15:55Z</time>
      </trkpt>
      <trkpt lat="38.908844" lon="-5.7403917">
        <ele>358.0</ele>
        <time>2021-02-13T11:15:56Z</time>
      </trkpt>
      <trkpt lat="38.908813" lon="-5.7403693">
        <ele>358.0</ele>
        <time>2021-02-13T11:15:57Z</time>
      </trkpt>
      <trkpt lat="38.908783" lon="-5.7403417">
        <ele>359.0</ele>
        <time>2021-02-13T11:15:58Z</time>
      </trkpt>
      <trkpt lat="38.908752" lon="-5.74031">
        <ele>359.0</ele>
        <time>2021-02-13T11:15:59Z</time>
      </trkpt>
      <trkpt lat="38.908722" lon="-5.740274">
        <ele>359.0</ele>
        <time>2021-02-13T11:16:00Z</time>
      </trkpt>
      <trkpt lat="38.908688" lon="-5.7402334">
        <ele>359.0</ele>
        <time>2021-02-13T11:16:01Z</time>
      </trkpt>
      <trkpt lat="38.908653" lon="-5.7401905">
        <ele>359.0</ele>
        <time>2021-02-13T11:16:02Z</time>
      </trkpt>
      <trkpt lat="38.908615" lon="-5.740145">
        <ele>359.0</ele>
        <time>2021-02-13T11:16:03Z</time>
      </trkpt>
      <trkpt lat="38.90858" lon="-5.7400966">
        <ele>359.0</ele>
        <time>2021-02-13T11:16:04Z</time>
      </trkpt>
      <trkpt lat="38.908543" lon="-5.7400446">
        <ele>359.0</ele>
        <time>2021-02-13T11:16:05Z</time>
      </trkpt>
      <trkpt lat="38.908504" lon="-5.739992">
        <ele>358.0</ele>
        <time>2021-02-13T11:16:06Z</time>
      </trkpt>
      <trkpt lat="38.908463" lon="-5.7399373">
        <ele>358.0</ele>
        <time>2021-02-13T11:16:07Z</time>
      </trkpt>
      <trkpt lat="38.908417" lon="-5.739881">
        <ele>358.0</ele>
        <time>2021-02-13T11:16:08Z</time>
      </trkpt>
      <trkpt lat="38.908367" lon="-5.7398214">
        <ele>358.0</ele>
        <time>2021-02-13T11:16:09Z</time>
      </trkpt>
      <trkpt lat="38.908318" lon="-5.7397594">
        <ele>358.0</ele>
        <time>2021-02-13T11:16:10Z</time>
      </trkpt>
      <trkpt lat="38.90827" lon="-5.739696">
        <ele>356.0</ele>
        <time>2021-02-13T11:16:11Z</time>
      </trkpt>
      <trkpt lat="38.90822" lon="-5.7396293">
        <ele>356.0</ele>
        <time>2021-02-13T11:16:12Z</time>
      </trkpt>
      <trkpt lat="38.90817" lon="-5.7395616">
        <ele>355.0</ele>
        <time>2021-02-13T11:16:13Z</time>
      </trkpt>
      <trkpt lat="38.908123" lon="-5.739491">
        <ele>355.0</ele>
        <time>2021-02-13T11:16:14Z</time>
      </trkpt>
      <trkpt lat="38.908077" lon="-5.739419">
        <ele>354.0</ele>
        <time>2021-02-13T11:16:15Z</time>
      </trkpt>
      <trkpt lat="38.908028" lon="-5.73935">
        <ele>354.0</ele>
        <time>2021-02-13T11:16:16Z</time>
      </trkpt>
      <trkpt lat="38.90798" lon="-5.7392716">
        <ele>353.0</ele>
        <time>2021-02-13T11:16:17Z</time>
      </trkpt>
      <trkpt lat="38.907936" lon="-5.7391925">
        <ele>353.0</ele>
        <time>2021-02-13T11:16:18Z</time>
      </trkpt>
      <trkpt lat="38.90789" lon="-5.7391195">
        <ele>353.0</ele>
        <time>2021-02-13T11:16:19Z</time>
      </trkpt>
      <trkpt lat="38.90784" lon="-5.739047">
        <ele>353.0</ele>
        <time>2021-02-13T11:16:20Z</time>
      </trkpt>
      <trkpt lat="38.907787" lon="-5.738978">
        <ele>353.0</ele>
        <time>2021-02-13T11:16:21Z</time>
      </trkpt>
      <trkpt lat="38.907734" lon="-5.738912">
        <ele>352.0</ele>
        <time>2021-02-13T11:16:22Z</time>
      </trkpt>
      <trkpt lat="38.907673" lon="-5.7388453">
        <ele>352.0</ele>
        <time>2021-02-13T11:16:23Z</time>
      </trkpt>
      <trkpt lat="38.90761" lon="-5.738783">
        <ele>352.0</ele>
        <time>2021-02-13T11:16:24Z</time>
      </trkpt>
      <trkpt lat="38.907547" lon="-5.738722">
        <ele>352.0</ele>
        <time>2021-02-13T11:16:25Z</time>
      </trkpt>
      <trkpt lat="38.907486" lon="-5.738663">
        <ele>352.0</ele>
        <time>2021-02-13T11:16:26Z</time>
      </trkpt>
      <trkpt lat="38.907425" lon="-5.738598">
        <ele>352.0</ele>
        <time>2021-02-13T11:16:27Z</time>
      </trkpt>
      <trkpt lat="38.907368" lon="-5.738538">
        <ele>352.0</ele>
        <time>2021-02-13T11:16:28Z</time>
      </trkpt>
      <trkpt lat="38.907314" lon="-5.738478">
        <ele>352.0</ele>
        <time>2021-02-13T11:16:29Z</time>
      </trkpt>
      <trkpt lat="38.90726" lon="-5.73842">
        <ele>352.0</ele>
        <time>2021-02-13T11:16:30Z</time>
      </trkpt>
      <trkpt lat="38.907207" lon="-5.738363">
        <ele>352.0</ele>
        <time>2021-02-13T11:16:31Z</time>
      </trkpt>
      <trkpt lat="38.90715" lon="-5.7382975">
        <ele>351.0</ele>
        <time>2021-02-13T11:16:32Z</time>
      </trkpt>
      <trkpt lat="38.907093" lon="-5.7382317">
        <ele>351.0</ele>
        <time>2021-02-13T11:16:33Z</time>
      </trkpt>
      <trkpt lat="38.907036" lon="-5.7381663">
        <ele>351.0</ele>
        <time>2021-02-13T11:16:34Z</time>
      </trkpt>
      <trkpt lat="38.90698" lon="-5.738102">
        <ele>351.0</ele>
        <time>2021-02-13T11:16:35Z</time>
      </trkpt>
      <trkpt lat="38.906925" lon="-5.738039">
        <ele>351.0</ele>
        <time>2021-02-13T11:16:36Z</time>
      </trkpt>
      <trkpt lat="38.906876" lon="-5.737981">
        <ele>351.0</ele>
        <time>2021-02-13T11:16:37Z</time>
      </trkpt>
      <trkpt lat="38.906834" lon="-5.737923">
        <ele>351.0</ele>
        <time>2021-02-13T11:16:38Z</time>
      </trkpt>
      <trkpt lat="38.906788" lon="-5.7378664">
        <ele>351.0</ele>
        <time>2021-02-13T11:16:39Z</time>
      </trkpt>
      <trkpt lat="38.906742" lon="-5.7378073">
        <ele>351.0</ele>
        <time>2021-02-13T11:16:40Z</time>
      </trkpt>
      <trkpt lat="38.9067" lon="-5.7377453">
        <ele>351.0</ele>
        <time>2021-02-13T11:16:41Z</time>
      </trkpt>
      <trkpt lat="38.90665" lon="-5.7376823">
        <ele>351.0</ele>
        <time>2021-02-13T11:16:42Z</time>
      </trkpt>
      <trkpt lat="38.906605" lon="-5.73762">
        <ele>351.0</ele>
        <time>2021-02-13T11:16:43Z</time>
      </trkpt>
      <trkpt lat="38.90656" lon="-5.737559">
        <ele>351.0</ele>
        <time>2021-02-13T11:16:44Z</time>
      </trkpt>
      <trkpt lat="38.90651" lon="-5.7374988">
        <ele>351.0</ele>
        <time>2021-02-13T11:16:45Z</time>
      </trkpt>
      <trkpt lat="38.906464" lon="-5.7374372">
        <ele>351.0</ele>
        <time>2021-02-13T11:16:46Z</time>
      </trkpt>
      <trkpt lat="38.906418" lon="-5.7373753">
        <ele>351.0</ele>
        <time>2021-02-13T11:16:47Z</time>
      </trkpt>
      <trkpt lat="38.90637" lon="-5.7373114">
        <ele>351.0</ele>
        <time>2021-02-13T11:16:48Z</time>
      </trkpt>
      <trkpt lat="38.906326" lon="-5.7372527">
        <ele>351.0</ele>
        <time>2021-02-13T11:16:49Z</time>
      </trkpt>
      <trkpt lat="38.906284" lon="-5.737194">
        <ele>351.0</ele>
        <time>2021-02-13T11:16:50Z</time>
      </trkpt>
      <trkpt lat="38.906242" lon="-5.7371373">
        <ele>352.0</ele>
        <time>2021-02-13T11:16:51Z</time>
      </trkpt>
      <trkpt lat="38.9062" lon="-5.7370815">
        <ele>352.0</ele>
        <time>2021-02-13T11:16:52Z</time>
      </trkpt>
      <trkpt lat="38.906162" lon="-5.7370214">
        <ele>352.0</ele>
        <time>2021-02-13T11:16:53Z</time>
      </trkpt>
      <trkpt lat="38.906124" lon="-5.7369676">
        <ele>352.0</ele>
        <time>2021-02-13T11:16:54Z</time>
      </trkpt>
      <trkpt lat="38.906082" lon="-5.736914">
        <ele>352.0</ele>
        <time>2021-02-13T11:16:55Z</time>
      </trkpt>
      <trkpt lat="38.906044" lon="-5.7368608">
        <ele>352.0</ele>
        <time>2021-02-13T11:16:56Z</time>
      </trkpt>
      <trkpt lat="38.906" lon="-5.7368107">
        <ele>352.0</ele>
        <time>2021-02-13T11:16:57Z</time>
      </trkpt>
      <trkpt lat="38.90596" lon="-5.7367635">
        <ele>352.0</ele>
        <time>2021-02-13T11:16:58Z</time>
      </trkpt>
      <trkpt lat="38.90591" lon="-5.7367187">
        <ele>352.0</ele>
        <time>2021-02-13T11:16:59Z</time>
      </trkpt>
      <trkpt lat="38.905865" lon="-5.7366767">
        <ele>352.0</ele>
        <time>2021-02-13T11:17:00Z</time>
      </trkpt>
      <trkpt lat="38.905815" lon="-5.736638">
        <ele>352.0</ele>
        <time>2021-02-13T11:17:01Z</time>
      </trkpt>
      <trkpt lat="38.905766" lon="-5.7366047">
        <ele>352.0</ele>
        <time>2021-02-13T11:17:02Z</time>
      </trkpt>
      <trkpt lat="38.90571" lon="-5.7365766">
        <ele>352.0</ele>
        <time>2021-02-13T11:17:03Z</time>
      </trkpt>
      <trkpt lat="38.905655" lon="-5.736553">
        <ele>352.0</ele>
        <time>2021-02-13T11:17:04Z</time>
      </trkpt>
      <trkpt lat="38.9056" lon="-5.7365327">
        <ele>352.0</ele>
        <time>2021-02-13T11:17:05Z</time>
      </trkpt>
      <trkpt lat="38.905544" lon="-5.736515">
        <ele>352.0</ele>
        <time>2021-02-13T11:17:06Z</time>
      </trkpt>
      <trkpt lat="38.905487" lon="-5.7364993">
        <ele>352.0</ele>
        <time>2021-02-13T11:17:07Z</time>
      </trkpt>
      <trkpt lat="38.90543" lon="-5.736483">
        <ele>352.0</ele>
        <time>2021-02-13T11:17:08Z</time>
      </trkpt>
      <trkpt lat="38.905373" lon="-5.736468">
        <ele>352.0</ele>
        <time>2021-02-13T11:17:09Z</time>
      </trkpt>
      <trkpt lat="38.905315" lon="-5.7364526">
        <ele>352.0</ele>
        <time>2021-02-13T11:17:10Z</time>
      </trkpt>
      <trkpt lat="38.90526" lon="-5.736438">
        <ele>352.0</ele>
        <time>2021-02-13T11:17:11Z</time>
      </trkpt>
      <trkpt lat="38.9052" lon="-5.7364225">
        <ele>352.0</ele>
        <time>2021-02-13T11:17:12Z</time>
      </trkpt>
      <trkpt lat="38.90514" lon="-5.736406">
        <ele>352.0</ele>
        <time>2021-02-13T11:17:13Z</time>
      </trkpt>
      <trkpt lat="38.905087" lon="-5.736386">
        <ele>352.0</ele>
        <time>2021-02-13T11:17:14Z</time>
      </trkpt>
      <trkpt lat="38.905025" lon="-5.736361">
        <ele>352.0</ele>
        <time>2021-02-13T11:17:15Z</time>
      </trkpt>
      <trkpt lat="38.904972" lon="-5.736329">
        <ele>352.0</ele>
        <time>2021-02-13T11:17:16Z</time>
      </trkpt>
      <trkpt lat="38.90492" lon="-5.7362885">
        <ele>352.0</ele>
        <time>2021-02-13T11:17:17Z</time>
      </trkpt>
      <trkpt lat="38.90487" lon="-5.7362413">
        <ele>352.0</ele>
        <time>2021-02-13T11:17:18Z</time>
      </trkpt>
      <trkpt lat="38.90482" lon="-5.73619">
        <ele>352.0</ele>
        <time>2021-02-13T11:17:19Z</time>
      </trkpt>
      <trkpt lat="38.904774" lon="-5.7361326">
        <ele>352.0</ele>
        <time>2021-02-13T11:17:20Z</time>
      </trkpt>
      <trkpt lat="38.90473" lon="-5.736069">
        <ele>352.0</ele>
        <time>2021-02-13T11:17:21Z</time>
      </trkpt>
      <trkpt lat="38.904694" lon="-5.736002">
        <ele>352.0</ele>
        <time>2021-02-13T11:17:22Z</time>
      </trkpt>
      <trkpt lat="38.90466" lon="-5.735931">
        <ele>352.0</ele>
        <time>2021-02-13T11:17:23Z</time>
      </trkpt>
      <trkpt lat="38.904625" lon="-5.735858">
        <ele>352.0</ele>
        <time>2021-02-13T11:17:24Z</time>
      </trkpt>
      <trkpt lat="38.9046" lon="-5.7357907">
        <ele>352.0</ele>
        <time>2021-02-13T11:17:25Z</time>
      </trkpt>
      <trkpt lat="38.904568" lon="-5.7357163">
        <ele>352.0</ele>
        <time>2021-02-13T11:17:26Z</time>
      </trkpt>
      <trkpt lat="38.90454" lon="-5.7356386">
        <ele>352.0</ele>
        <time>2021-02-13T11:17:27Z</time>
      </trkpt>
      <trkpt lat="38.90452" lon="-5.735563">
        <ele>352.0</ele>
        <time>2021-02-13T11:17:28Z</time>
      </trkpt>
      <trkpt lat="38.904495" lon="-5.7354903">
        <ele>352.0</ele>
        <time>2021-02-13T11:17:29Z</time>
      </trkpt>
      <trkpt lat="38.904476" lon="-5.7354245">
        <ele>352.0</ele>
        <time>2021-02-13T11:17:30Z</time>
      </trkpt>
      <trkpt lat="38.904457" lon="-5.735359">
        <ele>352.0</ele>
        <time>2021-02-13T11:17:31Z</time>
      </trkpt>
      <trkpt lat="38.904438" lon="-5.735293">
        <ele>352.0</ele>
        <time>2021-02-13T11:17:32Z</time>
      </trkpt>
      <trkpt lat="38.904423" lon="-5.7352247">
        <ele>352.0</ele>
        <time>2021-02-13T11:17:33Z</time>
      </trkpt>
      <trkpt lat="38.90441" lon="-5.735158">
        <ele>352.0</ele>
        <time>2021-02-13T11:17:34Z</time>
      </trkpt>
      <trkpt lat="38.904404" lon="-5.7350893">
        <ele>353.0</ele>
        <time>2021-02-13T11:17:35Z</time>
      </trkpt>
      <trkpt lat="38.904396" lon="-5.735022">
        <ele>353.0</ele>
        <time>2021-02-13T11:17:35Z</time>
      </trkpt>
      <trkpt lat="38.90439" lon="-5.7349553">
        <ele>353.0</ele>
        <time>2021-02-13T11:17:36Z</time>
      </trkpt>
      <trkpt lat="38.90438" lon="-5.734889">
        <ele>353.0</ele>
        <time>2021-02-13T11:17:38Z</time>
      </trkpt>
      <trkpt lat="38.904373" lon="-5.734799">
        <ele>353.0</ele>
        <time>2021-02-13T11:17:39Z</time>
      </trkpt>
      <trkpt lat="38.90437" lon="-5.734721">
        <ele>354.0</ele>
        <time>2021-02-13T11:17:40Z</time>
      </trkpt>
      <trkpt lat="38.90437" lon="-5.734649">
        <ele>354.0</ele>
        <time>2021-02-13T11:17:41Z</time>
      </trkpt>
      <trkpt lat="38.90437" lon="-5.73458">
        <ele>354.0</ele>
        <time>2021-02-13T11:17:42Z</time>
      </trkpt>
      <trkpt lat="38.90437" lon="-5.734513">
        <ele>355.0</ele>
        <time>2021-02-13T11:17:43Z</time>
      </trkpt>
      <trkpt lat="38.904366" lon="-5.7344465">
        <ele>355.0</ele>
        <time>2021-02-13T11:17:44Z</time>
      </trkpt>
      <trkpt lat="38.904366" lon="-5.734384">
        <ele>355.0</ele>
        <time>2021-02-13T11:17:45Z</time>
      </trkpt>
      <trkpt lat="38.90436" lon="-5.734323">
        <ele>355.0</ele>
        <time>2021-02-13T11:17:46Z</time>
      </trkpt>
      <trkpt lat="38.90436" lon="-5.7342644">
        <ele>356.0</ele>
        <time>2021-02-13T11:17:47Z</time>
      </trkpt>
      <trkpt lat="38.904354" lon="-5.73421">
        <ele>356.0</ele>
        <time>2021-02-13T11:17:48Z</time>
      </trkpt>
      <trkpt lat="38.904346" lon="-5.7341576">
        <ele>356.0</ele>
        <time>2021-02-13T11:17:49Z</time>
      </trkpt>
      <trkpt lat="38.90434" lon="-5.734109">
        <ele>357.0</ele>
        <time>2021-02-13T11:17:50Z</time>
      </trkpt>
      <trkpt lat="38.904327" lon="-5.734062">
        <ele>357.0</ele>
        <time>2021-02-13T11:17:51Z</time>
      </trkpt>
      <trkpt lat="38.904316" lon="-5.7340174">
        <ele>357.0</ele>
        <time>2021-02-13T11:17:52Z</time>
      </trkpt>
      <trkpt lat="38.904305" lon="-5.733972">
        <ele>357.0</ele>
        <time>2021-02-13T11:17:53Z</time>
      </trkpt>
      <trkpt lat="38.90429" lon="-5.733928">
        <ele>357.0</ele>
        <time>2021-02-13T11:17:54Z</time>
      </trkpt>
      <trkpt lat="38.904274" lon="-5.733885">
        <ele>357.0</ele>
        <time>2021-02-13T11:17:55Z</time>
      </trkpt>
      <trkpt lat="38.90426" lon="-5.73384">
        <ele>357.0</ele>
        <time>2021-02-13T11:17:56Z</time>
      </trkpt>
      <trkpt lat="38.90424" lon="-5.733792">
        <ele>357.0</ele>
        <time>2021-02-13T11:17:57Z</time>
      </trkpt>
      <trkpt lat="38.904224" lon="-5.7337413">
        <ele>357.0</ele>
        <time>2021-02-13T11:17:58Z</time>
      </trkpt>
      <trkpt lat="38.90421" lon="-5.7336917">
        <ele>357.0</ele>
        <time>2021-02-13T11:17:59Z</time>
      </trkpt>
      <trkpt lat="38.90419" lon="-5.733645">
        <ele>357.0</ele>
        <time>2021-02-13T11:18:00Z</time>
      </trkpt>
      <trkpt lat="38.904167" lon="-5.7335925">
        <ele>357.0</ele>
        <time>2021-02-13T11:18:01Z</time>
      </trkpt>
      <trkpt lat="38.90415" lon="-5.733544">
        <ele>357.0</ele>
        <time>2021-02-13T11:18:02Z</time>
      </trkpt>
      <trkpt lat="38.90413" lon="-5.733488">
        <ele>357.0</ele>
        <time>2021-02-13T11:18:03Z</time>
      </trkpt>
      <trkpt lat="38.904102" lon="-5.733429">
        <ele>356.0</ele>
        <time>2021-02-13T11:18:04Z</time>
      </trkpt>
      <trkpt lat="38.90408" lon="-5.7333684">
        <ele>356.0</ele>
        <time>2021-02-13T11:18:05Z</time>
      </trkpt>
      <trkpt lat="38.904057" lon="-5.7333064">
        <ele>356.0</ele>
        <time>2021-02-13T11:18:06Z</time>
      </trkpt>
      <trkpt lat="38.904034" lon="-5.733242">
        <ele>355.0</ele>
        <time>2021-02-13T11:18:07Z</time>
      </trkpt>
      <trkpt lat="38.90401" lon="-5.733179">
        <ele>355.0</ele>
        <time>2021-02-13T11:18:08Z</time>
      </trkpt>
      <trkpt lat="38.903988" lon="-5.733114">
        <ele>355.0</ele>
        <time>2021-02-13T11:18:09Z</time>
      </trkpt>
      <trkpt lat="38.90396" lon="-5.733047">
        <ele>354.0</ele>
        <time>2021-02-13T11:18:10Z</time>
      </trkpt>
      <trkpt lat="38.903934" lon="-5.7329793">
        <ele>354.0</ele>
        <time>2021-02-13T11:18:11Z</time>
      </trkpt>
      <trkpt lat="38.903904" lon="-5.73291">
        <ele>354.0</ele>
        <time>2021-02-13T11:18:12Z</time>
      </trkpt>
      <trkpt lat="38.903873" lon="-5.7328396">
        <ele>353.0</ele>
        <time>2021-02-13T11:18:13Z</time>
      </trkpt>
      <trkpt lat="38.903843" lon="-5.732766">
        <ele>353.0</ele>
        <time>2021-02-13T11:18:14Z</time>
      </trkpt>
      <trkpt lat="38.903805" lon="-5.7326894">
        <ele>353.0</ele>
        <time>2021-02-13T11:18:15Z</time>
      </trkpt>
      <trkpt lat="38.90377" lon="-5.7326155">
        <ele>352.0</ele>
        <time>2021-02-13T11:18:16Z</time>
      </trkpt>
      <trkpt lat="38.90373" lon="-5.732534">
        <ele>352.0</ele>
        <time>2021-02-13T11:18:17Z</time>
      </trkpt>
      <trkpt lat="38.903683" lon="-5.732451">
        <ele>352.0</ele>
        <time>2021-02-13T11:18:18Z</time>
      </trkpt>
      <trkpt lat="38.903637" lon="-5.7323694">
        <ele>352.0</ele>
        <time>2021-02-13T11:18:19Z</time>
      </trkpt>
      <trkpt lat="38.903584" lon="-5.7322907">
        <ele>351.0</ele>
        <time>2021-02-13T11:18:20Z</time>
      </trkpt>
      <trkpt lat="38.90353" lon="-5.7322145">
        <ele>351.0</ele>
        <time>2021-02-13T11:18:21Z</time>
      </trkpt>
      <trkpt lat="38.90347" lon="-5.732141">
        <ele>351.0</ele>
        <time>2021-02-13T11:18:22Z</time>
      </trkpt>
      <trkpt lat="38.9034" lon="-5.7320647">
        <ele>350.0</ele>
        <time>2021-02-13T11:18:23Z</time>
      </trkpt>
      <trkpt lat="38.903336" lon="-5.7319975">
        <ele>350.0</ele>
        <time>2021-02-13T11:18:24Z</time>
      </trkpt>
      <trkpt lat="38.903275" lon="-5.7319307">
        <ele>350.0</ele>
        <time>2021-02-13T11:18:25Z</time>
      </trkpt>
      <trkpt lat="38.90321" lon="-5.731865">
        <ele>350.0</ele>
        <time>2021-02-13T11:18:26Z</time>
      </trkpt>
      <trkpt lat="38.90314" lon="-5.7318006">
        <ele>350.0</ele>
        <time>2021-02-13T11:18:27Z</time>
      </trkpt>
      <trkpt lat="38.90308" lon="-5.731737">
        <ele>350.0</ele>
        <time>2021-02-13T11:18:28Z</time>
      </trkpt>
      <trkpt lat="38.903008" lon="-5.73167">
        <ele>350.0</ele>
        <time>2021-02-13T11:18:29Z</time>
      </trkpt>
      <trkpt lat="38.902946" lon="-5.7316084">
        <ele>350.0</ele>
        <time>2021-02-13T11:18:30Z</time>
      </trkpt>
      <trkpt lat="38.902885" lon="-5.7315464">
        <ele>350.0</ele>
        <time>2021-02-13T11:18:31Z</time>
      </trkpt>
      <trkpt lat="38.90282" lon="-5.731485">
        <ele>350.0</ele>
        <time>2021-02-13T11:18:32Z</time>
      </trkpt>
      <trkpt lat="38.90276" lon="-5.731423">
        <ele>350.0</ele>
        <time>2021-02-13T11:18:33Z</time>
      </trkpt>
      <trkpt lat="38.9027" lon="-5.7313666">
        <ele>351.0</ele>
        <time>2021-02-13T11:18:34Z</time>
      </trkpt>
      <trkpt lat="38.90264" lon="-5.73131">
        <ele>351.0</ele>
        <time>2021-02-13T11:18:35Z</time>
      </trkpt>
      <trkpt lat="38.902588" lon="-5.731253">
        <ele>351.0</ele>
        <time>2021-02-13T11:18:36Z</time>
      </trkpt>
      <trkpt lat="38.90253" lon="-5.7311974">
        <ele>351.0</ele>
        <time>2021-02-13T11:18:37Z</time>
      </trkpt>
      <trkpt lat="38.902473" lon="-5.731143">
        <ele>351.0</ele>
        <time>2021-02-13T11:18:38Z</time>
      </trkpt>
      <trkpt lat="38.902416" lon="-5.731089">
        <ele>351.0</ele>
        <time>2021-02-13T11:18:39Z</time>
      </trkpt>
      <trkpt lat="38.902363" lon="-5.7310348">
        <ele>351.0</ele>
        <time>2021-02-13T11:18:40Z</time>
      </trkpt>
      <trkpt lat="38.90231" lon="-5.730985">
        <ele>351.0</ele>
        <time>2021-02-13T11:18:41Z</time>
      </trkpt>
      <trkpt lat="38.902252" lon="-5.7309318">
        <ele>351.0</ele>
        <time>2021-02-13T11:18:42Z</time>
      </trkpt>
      <trkpt lat="38.902195" lon="-5.730883">
        <ele>351.0</ele>
        <time>2021-02-13T11:18:43Z</time>
      </trkpt>
      <trkpt lat="38.902138" lon="-5.7308364">
        <ele>351.0</ele>
        <time>2021-02-13T11:18:44Z</time>
      </trkpt>
      <trkpt lat="38.90208" lon="-5.7307925">
        <ele>351.0</ele>
        <time>2021-02-13T11:18:45Z</time>
      </trkpt>
      <trkpt lat="38.902023" lon="-5.7307525">
        <ele>351.0</ele>
        <time>2021-02-13T11:18:46Z</time>
      </trkpt>
      <trkpt lat="38.901966" lon="-5.730716">
        <ele>352.0</ele>
        <time>2021-02-13T11:18:47Z</time>
      </trkpt>
      <trkpt lat="38.90191" lon="-5.7306786">
        <ele>352.0</ele>
        <time>2021-02-13T11:18:48Z</time>
      </trkpt>
      <trkpt lat="38.901855" lon="-5.730645">
        <ele>352.0</ele>
        <time>2021-02-13T11:18:49Z</time>
      </trkpt>
      <trkpt lat="38.901802" lon="-5.730613">
        <ele>352.0</ele>
        <time>2021-02-13T11:18:50Z</time>
      </trkpt>
      <trkpt lat="38.90175" lon="-5.7305794">
        <ele>353.0</ele>
        <time>2021-02-13T11:18:51Z</time>
      </trkpt>
      <trkpt lat="38.9017" lon="-5.730548">
        <ele>353.0</ele>
        <time>2021-02-13T11:18:52Z</time>
      </trkpt>
      <trkpt lat="38.901653" lon="-5.73052">
        <ele>353.0</ele>
        <time>2021-02-13T11:18:53Z</time>
      </trkpt>
      <trkpt lat="38.901604" lon="-5.7304926">
        <ele>353.0</ele>
        <time>2021-02-13T11:18:54Z</time>
      </trkpt>
      <trkpt lat="38.90156" lon="-5.7304683">
        <ele>353.0</ele>
        <time>2021-02-13T11:18:55Z</time>
      </trkpt>
      <trkpt lat="38.901516" lon="-5.730443">
        <ele>354.0</ele>
        <time>2021-02-13T11:18:56Z</time>
      </trkpt>
      <trkpt lat="38.901466" lon="-5.7304173">
        <ele>354.0</ele>
        <time>2021-02-13T11:18:57Z</time>
      </trkpt>
      <trkpt lat="38.90142" lon="-5.7303944">
        <ele>354.0</ele>
        <time>2021-02-13T11:18:58Z</time>
      </trkpt>
      <trkpt lat="38.901375" lon="-5.730376">
        <ele>354.0</ele>
        <time>2021-02-13T11:18:59Z</time>
      </trkpt>
      <trkpt lat="38.901325" lon="-5.7303605">
        <ele>354.0</ele>
        <time>2021-02-13T11:19:00Z</time>
      </trkpt>
      <trkpt lat="38.90127" lon="-5.7303486">
        <ele>354.0</ele>
        <time>2021-02-13T11:19:01Z</time>
      </trkpt>
      <trkpt lat="38.90122" lon="-5.7303386">
        <ele>354.0</ele>
        <time>2021-02-13T11:19:02Z</time>
      </trkpt>
      <trkpt lat="38.901165" lon="-5.7303305">
        <ele>354.0</ele>
        <time>2021-02-13T11:19:03Z</time>
      </trkpt>
      <trkpt lat="38.90112" lon="-5.730325">
        <ele>354.0</ele>
        <time>2021-02-13T11:19:04Z</time>
      </trkpt>
      <trkpt lat="38.90107" lon="-5.730324">
        <ele>354.0</ele>
        <time>2021-02-13T11:19:05Z</time>
      </trkpt>
      <trkpt lat="38.901016" lon="-5.7303257">
        <ele>354.0</ele>
        <time>2021-02-13T11:19:06Z</time>
      </trkpt>
      <trkpt lat="38.90097" lon="-5.7303305">
        <ele>354.0</ele>
        <time>2021-02-13T11:19:07Z</time>
      </trkpt>
      <trkpt lat="38.900925" lon="-5.7303343">
        <ele>354.0</ele>
        <time>2021-02-13T11:19:08Z</time>
      </trkpt>
      <trkpt lat="38.900887" lon="-5.7303348">
        <ele>354.0</ele>
        <time>2021-02-13T11:19:09Z</time>
      </trkpt>
      <trkpt lat="38.900845" lon="-5.730331">
        <ele>354.0</ele>
        <time>2021-02-13T11:19:10Z</time>
      </trkpt>
      <trkpt lat="38.900806" lon="-5.730324">
        <ele>354.0</ele>
        <time>2021-02-13T11:19:11Z</time>
      </trkpt>
      <trkpt lat="38.90077" lon="-5.7303195">
        <ele>354.0</ele>
        <time>2021-02-13T11:19:12Z</time>
      </trkpt>
      <trkpt lat="38.900734" lon="-5.730318">
        <ele>354.0</ele>
        <time>2021-02-13T11:19:13Z</time>
      </trkpt>
      <trkpt lat="38.90069" lon="-5.730322">
        <ele>354.0</ele>
        <time>2021-02-13T11:19:14Z</time>
      </trkpt>
      <trkpt lat="38.900646" lon="-5.730329">
        <ele>354.0</ele>
        <time>2021-02-13T11:19:15Z</time>
      </trkpt>
      <trkpt lat="38.900604" lon="-5.730339">
        <ele>354.0</ele>
        <time>2021-02-13T11:19:16Z</time>
      </trkpt>
      <trkpt lat="38.900562" lon="-5.7303495">
        <ele>355.0</ele>
        <time>2021-02-13T11:19:17Z</time>
      </trkpt>
      <trkpt lat="38.900524" lon="-5.7303576">
        <ele>355.0</ele>
        <time>2021-02-13T11:19:18Z</time>
      </trkpt>
      <trkpt lat="38.90048" lon="-5.7303667">
        <ele>355.0</ele>
        <time>2021-02-13T11:19:19Z</time>
      </trkpt>
      <trkpt lat="38.90044" lon="-5.730374">
        <ele>355.0</ele>
        <time>2021-02-13T11:19:20Z</time>
      </trkpt>
      <trkpt lat="38.900394" lon="-5.7303796">
        <ele>355.0</ele>
        <time>2021-02-13T11:19:21Z</time>
      </trkpt>
      <trkpt lat="38.900356" lon="-5.7303853">
        <ele>355.0</ele>
        <time>2021-02-13T11:19:22Z</time>
      </trkpt>
      <trkpt lat="38.90031" lon="-5.730389">
        <ele>356.0</ele>
        <time>2021-02-13T11:19:23Z</time>
      </trkpt>
      <trkpt lat="38.90027" lon="-5.7303915">
        <ele>356.0</ele>
        <time>2021-02-13T11:19:24Z</time>
      </trkpt>
      <trkpt lat="38.900223" lon="-5.7303934">
        <ele>356.0</ele>
        <time>2021-02-13T11:19:25Z</time>
      </trkpt>
      <trkpt lat="38.900177" lon="-5.730395">
        <ele>356.0</ele>
        <time>2021-02-13T11:19:26Z</time>
      </trkpt>
      <trkpt lat="38.90013" lon="-5.7303944">
        <ele>356.0</ele>
        <time>2021-02-13T11:19:27Z</time>
      </trkpt>
      <trkpt lat="38.90009" lon="-5.7303896">
        <ele>356.0</ele>
        <time>2021-02-13T11:19:28Z</time>
      </trkpt>
      <trkpt lat="38.90005" lon="-5.7303834">
        <ele>356.0</ele>
        <time>2021-02-13T11:19:29Z</time>
      </trkpt>
      <trkpt lat="38.900005" lon="-5.730377">
        <ele>356.0</ele>
        <time>2021-02-13T11:19:30Z</time>
      </trkpt>
      <trkpt lat="38.899963" lon="-5.73037">
        <ele>356.0</ele>
        <time>2021-02-13T11:19:31Z</time>
      </trkpt>
      <trkpt lat="38.89992" lon="-5.7303624">
        <ele>356.0</ele>
        <time>2021-02-13T11:19:32Z</time>
      </trkpt>
      <trkpt lat="38.899876" lon="-5.730354">
        <ele>357.0</ele>
        <time>2021-02-13T11:19:33Z</time>
      </trkpt>
      <trkpt lat="38.899834" lon="-5.7303457">
        <ele>357.0</ele>
        <time>2021-02-13T11:19:34Z</time>
      </trkpt>
      <trkpt lat="38.899788" lon="-5.7303343">
        <ele>357.0</ele>
        <time>2021-02-13T11:19:35Z</time>
      </trkpt>
      <trkpt lat="38.899742" lon="-5.7303233">
        <ele>357.0</ele>
        <time>2021-02-13T11:19:36Z</time>
      </trkpt>
      <trkpt lat="38.899693" lon="-5.7303104">
        <ele>357.0</ele>
        <time>2021-02-13T11:19:37Z</time>
      </trkpt>
      <trkpt lat="38.89965" lon="-5.7302976">
        <ele>357.0</ele>
        <time>2021-02-13T11:19:38Z</time>
      </trkpt>
      <trkpt lat="38.89961" lon="-5.7302837">
        <ele>357.0</ele>
        <time>2021-02-13T11:19:39Z</time>
      </trkpt>
      <trkpt lat="38.89957" lon="-5.730268">
        <ele>357.0</ele>
        <time>2021-02-13T11:19:40Z</time>
      </trkpt>
      <trkpt lat="38.89953" lon="-5.730251">
        <ele>357.0</ele>
        <time>2021-02-13T11:19:41Z</time>
      </trkpt>
      <trkpt lat="38.899483" lon="-5.730232">
        <ele>357.0</ele>
        <time>2021-02-13T11:19:42Z</time>
      </trkpt>
      <trkpt lat="38.89944" lon="-5.7302136">
        <ele>357.0</ele>
        <time>2021-02-13T11:19:43Z</time>
      </trkpt>
      <trkpt lat="38.899395" lon="-5.730195">
        <ele>357.0</ele>
        <time>2021-02-13T11:19:44Z</time>
      </trkpt>
      <trkpt lat="38.899345" lon="-5.7301745">
        <ele>357.0</ele>
        <time>2021-02-13T11:19:45Z</time>
      </trkpt>
      <trkpt lat="38.899296" lon="-5.730153">
        <ele>357.0</ele>
        <time>2021-02-13T11:19:46Z</time>
      </trkpt>
      <trkpt lat="38.899254" lon="-5.7301335">
        <ele>357.0</ele>
        <time>2021-02-13T11:19:47Z</time>
      </trkpt>
      <trkpt lat="38.89921" lon="-5.7301145">
        <ele>357.0</ele>
        <time>2021-02-13T11:19:48Z</time>
      </trkpt>
      <trkpt lat="38.899166" lon="-5.730093">
        <ele>357.0</ele>
        <time>2021-02-13T11:19:49Z</time>
      </trkpt>
      <trkpt lat="38.89912" lon="-5.7300696">
        <ele>357.0</ele>
        <time>2021-02-13T11:19:50Z</time>
      </trkpt>
      <trkpt lat="38.89907" lon="-5.730047">
        <ele>357.0</ele>
        <time>2021-02-13T11:19:51Z</time>
      </trkpt>
      <trkpt lat="38.899025" lon="-5.730026">
        <ele>357.0</ele>
        <time>2021-02-13T11:19:52Z</time>
      </trkpt>
      <trkpt lat="38.89898" lon="-5.730006">
        <ele>358.0</ele>
        <time>2021-02-13T11:19:53Z</time>
      </trkpt>
      <trkpt lat="38.898933" lon="-5.7299857">
        <ele>358.0</ele>
        <time>2021-02-13T11:19:54Z</time>
      </trkpt>
      <trkpt lat="38.898884" lon="-5.729963">
        <ele>358.0</ele>
        <time>2021-02-13T11:19:55Z</time>
      </trkpt>
      <trkpt lat="38.898838" lon="-5.72994">
        <ele>358.0</ele>
        <time>2021-02-13T11:19:56Z</time>
      </trkpt>
      <trkpt lat="38.898792" lon="-5.7299175">
        <ele>358.0</ele>
        <time>2021-02-13T11:19:57Z</time>
      </trkpt>
      <trkpt lat="38.898746" lon="-5.7298965">
        <ele>358.0</ele>
        <time>2021-02-13T11:19:58Z</time>
      </trkpt>
      <trkpt lat="38.898697" lon="-5.7298727">
        <ele>358.0</ele>
        <time>2021-02-13T11:19:59Z</time>
      </trkpt>
      <trkpt lat="38.89865" lon="-5.7298503">
        <ele>358.0</ele>
        <time>2021-02-13T11:20:00Z</time>
      </trkpt>
      <trkpt lat="38.898605" lon="-5.729828">
        <ele>359.0</ele>
        <time>2021-02-13T11:20:01Z</time>
      </trkpt>
      <trkpt lat="38.89856" lon="-5.729808">
        <ele>359.0</ele>
        <time>2021-02-13T11:20:02Z</time>
      </trkpt>
      <trkpt lat="38.898514" lon="-5.7297864">
        <ele>359.0</ele>
        <time>2021-02-13T11:20:03Z</time>
      </trkpt>
      <trkpt lat="38.898464" lon="-5.7297645">
        <ele>359.0</ele>
        <time>2021-02-13T11:20:04Z</time>
      </trkpt>
      <trkpt lat="38.898426" lon="-5.729744">
        <ele>359.0</ele>
        <time>2021-02-13T11:20:05Z</time>
      </trkpt>
      <trkpt lat="38.89838" lon="-5.729723">
        <ele>359.0</ele>
        <time>2021-02-13T11:20:06Z</time>
      </trkpt>
      <trkpt lat="38.898335" lon="-5.7296996">
        <ele>359.0</ele>
        <time>2021-02-13T11:20:07Z</time>
      </trkpt>
      <trkpt lat="38.89829" lon="-5.729678">
        <ele>360.0</ele>
        <time>2021-02-13T11:20:08Z</time>
      </trkpt>
      <trkpt lat="38.898247" lon="-5.729658">
        <ele>360.0</ele>
        <time>2021-02-13T11:20:09Z</time>
      </trkpt>
      <trkpt lat="38.8982" lon="-5.7296376">
        <ele>360.0</ele>
        <time>2021-02-13T11:20:10Z</time>
      </trkpt>
      <trkpt lat="38.89816" lon="-5.7296166">
        <ele>360.0</ele>
        <time>2021-02-13T11:20:11Z</time>
      </trkpt>
      <trkpt lat="38.898113" lon="-5.729598">
        <ele>360.0</ele>
        <time>2021-02-13T11:20:12Z</time>
      </trkpt>
      <trkpt lat="38.898067" lon="-5.7295823">
        <ele>360.0</ele>
        <time>2021-02-13T11:20:13Z</time>
      </trkpt>
      <trkpt lat="38.89802" lon="-5.7295666">
        <ele>361.0</ele>
        <time>2021-02-13T11:20:14Z</time>
      </trkpt>
      <trkpt lat="38.897976" lon="-5.729552">
        <ele>361.0</ele>
        <time>2021-02-13T11:20:15Z</time>
      </trkpt>
      <trkpt lat="38.89793" lon="-5.7295365">
        <ele>361.0</ele>
        <time>2021-02-13T11:20:16Z</time>
      </trkpt>
      <trkpt lat="38.89788" lon="-5.7295218">
        <ele>361.0</ele>
        <time>2021-02-13T11:20:17Z</time>
      </trkpt>
      <trkpt lat="38.897835" lon="-5.7295084">
        <ele>361.0</ele>
        <time>2021-02-13T11:20:18Z</time>
      </trkpt>
      <trkpt lat="38.89779" lon="-5.7294955">
        <ele>361.0</ele>
        <time>2021-02-13T11:20:19Z</time>
      </trkpt>
      <trkpt lat="38.89774" lon="-5.7294836">
        <ele>361.0</ele>
        <time>2021-02-13T11:20:20Z</time>
      </trkpt>
      <trkpt lat="38.897686" lon="-5.729473">
        <ele>362.0</ele>
        <time>2021-02-13T11:20:21Z</time>
      </trkpt>
      <trkpt lat="38.89764" lon="-5.7294636">
        <ele>362.0</ele>
        <time>2021-02-13T11:20:22Z</time>
      </trkpt>
      <trkpt lat="38.89759" lon="-5.7294536">
        <ele>362.0</ele>
        <time>2021-02-13T11:20:23Z</time>
      </trkpt>
      <trkpt lat="38.89755" lon="-5.729444">
        <ele>362.0</ele>
        <time>2021-02-13T11:20:24Z</time>
      </trkpt>
      <trkpt lat="38.897503" lon="-5.729434">
        <ele>362.0</ele>
        <time>2021-02-13T11:20:25Z</time>
      </trkpt>
      <trkpt lat="38.89746" lon="-5.7294245">
        <ele>362.0</ele>
        <time>2021-02-13T11:20:26Z</time>
      </trkpt>
      <trkpt lat="38.897415" lon="-5.729416">
        <ele>362.0</ele>
        <time>2021-02-13T11:20:27Z</time>
      </trkpt>
      <trkpt lat="38.89737" lon="-5.729407">
        <ele>362.0</ele>
        <time>2021-02-13T11:20:28Z</time>
      </trkpt>
      <trkpt lat="38.897327" lon="-5.7293983">
        <ele>362.0</ele>
        <time>2021-02-13T11:20:29Z</time>
      </trkpt>
      <trkpt lat="38.897285" lon="-5.7293906">
        <ele>362.0</ele>
        <time>2021-02-13T11:20:30Z</time>
      </trkpt>
      <trkpt lat="38.89724" lon="-5.7293835">
        <ele>362.0</ele>
        <time>2021-02-13T11:20:31Z</time>
      </trkpt>
      <trkpt lat="38.897198" lon="-5.7293773">
        <ele>363.0</ele>
        <time>2021-02-13T11:20:32Z</time>
      </trkpt>
      <trkpt lat="38.897156" lon="-5.729372">
        <ele>363.0</ele>
        <time>2021-02-13T11:20:33Z</time>
      </trkpt>
      <trkpt lat="38.897114" lon="-5.7293663">
        <ele>363.0</ele>
        <time>2021-02-13T11:20:34Z</time>
      </trkpt>
      <trkpt lat="38.89707" lon="-5.72936">
        <ele>363.0</ele>
        <time>2021-02-13T11:20:35Z</time>
      </trkpt>
      <trkpt lat="38.89703" lon="-5.7293515">
        <ele>363.0</ele>
        <time>2021-02-13T11:20:36Z</time>
      </trkpt>
      <trkpt lat="38.89699" lon="-5.7293453">
        <ele>363.0</ele>
        <time>2021-02-13T11:20:37Z</time>
      </trkpt>
      <trkpt lat="38.896954" lon="-5.7293396">
        <ele>363.0</ele>
        <time>2021-02-13T11:20:38Z</time>
      </trkpt>
      <trkpt lat="38.896915" lon="-5.729335">
        <ele>363.0</ele>
        <time>2021-02-13T11:20:39Z</time>
      </trkpt>
      <trkpt lat="38.896873" lon="-5.729333">
        <ele>363.0</ele>
        <time>2021-02-13T11:20:40Z</time>
      </trkpt>
      <trkpt lat="38.896828" lon="-5.729331">
        <ele>364.0</ele>
        <time>2021-02-13T11:20:41Z</time>
      </trkpt>
      <trkpt lat="38.89679" lon="-5.729327">
        <ele>364.0</ele>
        <time>2021-02-13T11:20:42Z</time>
      </trkpt>
      <trkpt lat="38.896748" lon="-5.7293243">
        <ele>364.0</ele>
        <time>2021-02-13T11:20:43Z</time>
      </trkpt>
      <trkpt lat="38.896706" lon="-5.7293196">
        <ele>364.0</ele>
        <time>2021-02-13T11:20:44Z</time>
      </trkpt>
      <trkpt lat="38.896656" lon="-5.7293153">
        <ele>364.0</ele>
        <time>2021-02-13T11:20:45Z</time>
      </trkpt>
      <trkpt lat="38.896614" lon="-5.7293086">
        <ele>364.0</ele>
        <time>2021-02-13T11:20:46Z</time>
      </trkpt>
      <trkpt lat="38.896572" lon="-5.729302">
        <ele>364.0</ele>
        <time>2021-02-13T11:20:47Z</time>
      </trkpt>
      <trkpt lat="38.896526" lon="-5.7292953">
        <ele>364.0</ele>
        <time>2021-02-13T11:20:48Z</time>
      </trkpt>
      <trkpt lat="38.89648" lon="-5.729289">
        <ele>365.0</ele>
        <time>2021-02-13T11:20:49Z</time>
      </trkpt>
      <trkpt lat="38.89644" lon="-5.7292824">
        <ele>365.0</ele>
        <time>2021-02-13T11:20:50Z</time>
      </trkpt>
      <trkpt lat="38.896397" lon="-5.7292776">
        <ele>365.0</ele>
        <time>2021-02-13T11:20:51Z</time>
      </trkpt>
      <trkpt lat="38.896355" lon="-5.729272">
        <ele>365.0</ele>
        <time>2021-02-13T11:20:52Z</time>
      </trkpt>
      <trkpt lat="38.89631" lon="-5.7292666">
        <ele>365.0</ele>
        <time>2021-02-13T11:20:53Z</time>
      </trkpt>
      <trkpt lat="38.896263" lon="-5.729262">
        <ele>365.0</ele>
        <time>2021-02-13T11:20:54Z</time>
      </trkpt>
      <trkpt lat="38.89622" lon="-5.7292557">
        <ele>365.0</ele>
        <time>2021-02-13T11:20:55Z</time>
      </trkpt>
      <trkpt lat="38.89618" lon="-5.7292476">
        <ele>365.0</ele>
        <time>2021-02-13T11:20:56Z</time>
      </trkpt>
      <trkpt lat="38.89614" lon="-5.7292395">
        <ele>366.0</ele>
        <time>2021-02-13T11:20:57Z</time>
      </trkpt>
      <trkpt lat="38.8961" lon="-5.7292333">
        <ele>366.0</ele>
        <time>2021-02-13T11:20:58Z</time>
      </trkpt>
      <trkpt lat="38.896057" lon="-5.729227">
        <ele>366.0</ele>
        <time>2021-02-13T11:20:59Z</time>
      </trkpt>
      <trkpt lat="38.89602" lon="-5.7292204">
        <ele>366.0</ele>
        <time>2021-02-13T11:21:00Z</time>
      </trkpt>
      <trkpt lat="38.895977" lon="-5.729213">
        <ele>366.0</ele>
        <time>2021-02-13T11:21:01Z</time>
      </trkpt>
      <trkpt lat="38.895935" lon="-5.7292075">
        <ele>366.0</ele>
        <time>2021-02-13T11:21:02Z</time>
      </trkpt>
      <trkpt lat="38.89589" lon="-5.7292013">
        <ele>366.0</ele>
        <time>2021-02-13T11:21:03Z</time>
      </trkpt>
      <trkpt lat="38.895847" lon="-5.7291956">
        <ele>366.0</ele>
        <time>2021-02-13T11:21:04Z</time>
      </trkpt>
      <trkpt lat="38.8958" lon="-5.72919">
        <ele>367.0</ele>
        <time>2021-02-13T11:21:05Z</time>
      </trkpt>
      <trkpt lat="38.895756" lon="-5.7291846">
        <ele>367.0</ele>
        <time>2021-02-13T11:21:06Z</time>
      </trkpt>
      <trkpt lat="38.895714" lon="-5.7291803">
        <ele>367.0</ele>
        <time>2021-02-13T11:21:07Z</time>
      </trkpt>
      <trkpt lat="38.895668" lon="-5.7291737">
        <ele>367.0</ele>
        <time>2021-02-13T11:21:08Z</time>
      </trkpt>
      <trkpt lat="38.89563" lon="-5.7291665">
        <ele>367.0</ele>
        <time>2021-02-13T11:21:09Z</time>
      </trkpt>
      <trkpt lat="38.895584" lon="-5.7291603">
        <ele>367.0</ele>
        <time>2021-02-13T11:21:10Z</time>
      </trkpt>
      <trkpt lat="38.895546" lon="-5.7291546">
        <ele>368.0</ele>
        <time>2021-02-13T11:21:11Z</time>
      </trkpt>
      <trkpt lat="38.895508" lon="-5.729149">
        <ele>368.0</ele>
        <time>2021-02-13T11:21:12Z</time>
      </trkpt>
      <trkpt lat="38.895466" lon="-5.729143">
        <ele>368.0</ele>
        <time>2021-02-13T11:21:13Z</time>
      </trkpt>
      <trkpt lat="38.895428" lon="-5.729136">
        <ele>368.0</ele>
        <time>2021-02-13T11:21:14Z</time>
      </trkpt>
      <trkpt lat="38.89539" lon="-5.729128">
        <ele>368.0</ele>
        <time>2021-02-13T11:21:15Z</time>
      </trkpt>
      <trkpt lat="38.89535" lon="-5.72912">
        <ele>368.0</ele>
        <time>2021-02-13T11:21:16Z</time>
      </trkpt>
      <trkpt lat="38.89531" lon="-5.729111">
        <ele>368.0</ele>
        <time>2021-02-13T11:21:17Z</time>
      </trkpt>
      <trkpt lat="38.89527" lon="-5.729102">
        <ele>368.0</ele>
        <time>2021-02-13T11:21:18Z</time>
      </trkpt>
      <trkpt lat="38.895233" lon="-5.729093">
        <ele>368.0</ele>
        <time>2021-02-13T11:21:19Z</time>
      </trkpt>
      <trkpt lat="38.89519" lon="-5.7290854">
        <ele>368.0</ele>
        <time>2021-02-13T11:21:20Z</time>
      </trkpt>
      <trkpt lat="38.895153" lon="-5.729078">
        <ele>368.0</ele>
        <time>2021-02-13T11:21:21Z</time>
      </trkpt>
      <trkpt lat="38.89511" lon="-5.7290673">
        <ele>369.0</ele>
        <time>2021-02-13T11:21:22Z</time>
      </trkpt>
      <trkpt lat="38.89507" lon="-5.729055">
        <ele>369.0</ele>
        <time>2021-02-13T11:21:23Z</time>
      </trkpt>
      <trkpt lat="38.89503" lon="-5.7290387">
        <ele>369.0</ele>
        <time>2021-02-13T11:21:24Z</time>
      </trkpt>
      <trkpt lat="38.89499" lon="-5.729022">
        <ele>369.0</ele>
        <time>2021-02-13T11:21:25Z</time>
      </trkpt>
      <trkpt lat="38.894947" lon="-5.7290053">
        <ele>369.0</ele>
        <time>2021-02-13T11:21:26Z</time>
      </trkpt>
      <trkpt lat="38.894905" lon="-5.728988">
        <ele>369.0</ele>
        <time>2021-02-13T11:21:27Z</time>
      </trkpt>
      <trkpt lat="38.894867" lon="-5.728969">
        <ele>370.0</ele>
        <time>2021-02-13T11:21:28Z</time>
      </trkpt>
      <trkpt lat="38.89483" lon="-5.7289495">
        <ele>370.0</ele>
        <time>2021-02-13T11:21:29Z</time>
      </trkpt>
      <trkpt lat="38.894787" lon="-5.728929">
        <ele>370.0</ele>
        <time>2021-02-13T11:21:30Z</time>
      </trkpt>
      <trkpt lat="38.894745" lon="-5.728908">
        <ele>370.0</ele>
        <time>2021-02-13T11:21:31Z</time>
      </trkpt>
      <trkpt lat="38.894703" lon="-5.7288857">
        <ele>370.0</ele>
        <time>2021-02-13T11:21:32Z</time>
      </trkpt>
      <trkpt lat="38.894665" lon="-5.7288632">
        <ele>370.0</ele>
        <time>2021-02-13T11:21:33Z</time>
      </trkpt>
      <trkpt lat="38.894623" lon="-5.7288427">
        <ele>370.0</ele>
        <time>2021-02-13T11:21:34Z</time>
      </trkpt>
      <trkpt lat="38.894585" lon="-5.7288218">
        <ele>370.0</ele>
        <time>2021-02-13T11:21:35Z</time>
      </trkpt>
      <trkpt lat="38.894547" lon="-5.728799">
        <ele>371.0</ele>
        <time>2021-02-13T11:21:36Z</time>
      </trkpt>
      <trkpt lat="38.894505" lon="-5.728775">
        <ele>371.0</ele>
        <time>2021-02-13T11:21:37Z</time>
      </trkpt>
      <trkpt lat="38.89447" lon="-5.7287526">
        <ele>371.0</ele>
        <time>2021-02-13T11:21:38Z</time>
      </trkpt>
      <trkpt lat="38.894432" lon="-5.7287297">
        <ele>371.0</ele>
        <time>2021-02-13T11:21:39Z</time>
      </trkpt>
      <trkpt lat="38.894394" lon="-5.728709">
        <ele>371.0</ele>
        <time>2021-02-13T11:21:40Z</time>
      </trkpt>
      <trkpt lat="38.894356" lon="-5.728689">
        <ele>372.0</ele>
        <time>2021-02-13T11:21:41Z</time>
      </trkpt>
      <trkpt lat="38.894314" lon="-5.7286696">
        <ele>372.0</ele>
        <time>2021-02-13T11:21:42Z</time>
      </trkpt>
      <trkpt lat="38.894276" lon="-5.7286477">
        <ele>372.0</ele>
        <time>2021-02-13T11:21:43Z</time>
      </trkpt>
      <trkpt lat="38.894238" lon="-5.728627">
        <ele>372.0</ele>
        <time>2021-02-13T11:21:44Z</time>
      </trkpt>
      <trkpt lat="38.894196" lon="-5.728605">
        <ele>372.0</ele>
        <time>2021-02-13T11:21:45Z</time>
      </trkpt>
      <trkpt lat="38.89416" lon="-5.7285824">
        <ele>372.0</ele>
        <time>2021-02-13T11:21:46Z</time>
      </trkpt>
      <trkpt lat="38.894123" lon="-5.728562">
        <ele>373.0</ele>
        <time>2021-02-13T11:21:47Z</time>
      </trkpt>
      <trkpt lat="38.89409" lon="-5.728539">
        <ele>373.0</ele>
        <time>2021-02-13T11:21:48Z</time>
      </trkpt>
      <trkpt lat="38.89405" lon="-5.728515">
        <ele>373.0</ele>
        <time>2021-02-13T11:21:49Z</time>
      </trkpt>
      <trkpt lat="38.894016" lon="-5.7284927">
        <ele>373.0</ele>
        <time>2021-02-13T11:21:50Z</time>
      </trkpt>
      <trkpt lat="38.893982" lon="-5.7284703">
        <ele>373.0</ele>
        <time>2021-02-13T11:21:50Z</time>
      </trkpt>
      <trkpt lat="38.893944" lon="-5.7284513">
        <ele>373.0</ele>
        <time>2021-02-13T11:21:51Z</time>
      </trkpt>
      <trkpt lat="38.89391" lon="-5.7284303">
        <ele>374.0</ele>
        <time>2021-02-13T11:21:52Z</time>
      </trkpt>
      <trkpt lat="38.89387" lon="-5.728407">
        <ele>374.0</ele>
        <time>2021-02-13T11:21:53Z</time>
      </trkpt>
      <trkpt lat="38.893833" lon="-5.728384">
        <ele>374.0</ele>
        <time>2021-02-13T11:21:54Z</time>
      </trkpt>
      <trkpt lat="38.893795" lon="-5.72836">
        <ele>374.0</ele>
        <time>2021-02-13T11:21:55Z</time>
      </trkpt>
      <trkpt lat="38.89376" lon="-5.7283387">
        <ele>374.0</ele>
        <time>2021-02-13T11:21:56Z</time>
      </trkpt>
      <trkpt lat="38.893723" lon="-5.728318">
        <ele>374.0</ele>
        <time>2021-02-13T11:21:57Z</time>
      </trkpt>
      <trkpt lat="38.893684" lon="-5.7282968">
        <ele>374.0</ele>
        <time>2021-02-13T11:21:58Z</time>
      </trkpt>
      <trkpt lat="38.893642" lon="-5.728272">
        <ele>374.0</ele>
        <time>2021-02-13T11:21:59Z</time>
      </trkpt>
      <trkpt lat="38.893604" lon="-5.728249">
        <ele>374.0</ele>
        <time>2021-02-13T11:22:00Z</time>
      </trkpt>
      <trkpt lat="38.89356" lon="-5.728224">
        <ele>374.0</ele>
        <time>2021-02-13T11:22:01Z</time>
      </trkpt>
      <trkpt lat="38.89352" lon="-5.7281995">
        <ele>374.0</ele>
        <time>2021-02-13T11:22:02Z</time>
      </trkpt>
      <trkpt lat="38.893482" lon="-5.728178">
        <ele>374.0</ele>
        <time>2021-02-13T11:22:03Z</time>
      </trkpt>
      <trkpt lat="38.893436" lon="-5.728154">
        <ele>374.0</ele>
        <time>2021-02-13T11:22:04Z</time>
      </trkpt>
      <trkpt lat="38.8934" lon="-5.728133">
        <ele>374.0</ele>
        <time>2021-02-13T11:22:05Z</time>
      </trkpt>
      <trkpt lat="38.893353" lon="-5.7281103">
        <ele>374.0</ele>
        <time>2021-02-13T11:22:06Z</time>
      </trkpt>
      <trkpt lat="38.89331" lon="-5.72809">
        <ele>374.0</ele>
        <time>2021-02-13T11:22:07Z</time>
      </trkpt>
      <trkpt lat="38.893276" lon="-5.7280703">
        <ele>374.0</ele>
        <time>2021-02-13T11:22:08Z</time>
      </trkpt>
      <trkpt lat="38.893238" lon="-5.7280526">
        <ele>374.0</ele>
        <time>2021-02-13T11:22:09Z</time>
      </trkpt>
      <trkpt lat="38.8932" lon="-5.728036">
        <ele>374.0</ele>
        <time>2021-02-13T11:22:10Z</time>
      </trkpt>
      <trkpt lat="38.89316" lon="-5.728023">
        <ele>374.0</ele>
        <time>2021-02-13T11:22:11Z</time>
      </trkpt>
      <trkpt lat="38.893124" lon="-5.7280116">
        <ele>375.0</ele>
        <time>2021-02-13T11:22:12Z</time>
      </trkpt>
      <trkpt lat="38.893085" lon="-5.728002">
        <ele>375.0</ele>
        <time>2021-02-13T11:22:13Z</time>
      </trkpt>
      <trkpt lat="38.89305" lon="-5.7279954">
        <ele>375.0</ele>
        <time>2021-02-13T11:22:14Z</time>
      </trkpt>
      <trkpt lat="38.893013" lon="-5.7279897">
        <ele>375.0</ele>
        <time>2021-02-13T11:22:15Z</time>
      </trkpt>
      <trkpt lat="38.892975" lon="-5.727984">
        <ele>375.0</ele>
        <time>2021-02-13T11:22:16Z</time>
      </trkpt>
      <trkpt lat="38.892933" lon="-5.7279797">
        <ele>375.0</ele>
        <time>2021-02-13T11:22:17Z</time>
      </trkpt>
      <trkpt lat="38.892895" lon="-5.727975">
        <ele>376.0</ele>
        <time>2021-02-13T11:22:18Z</time>
      </trkpt>
      <trkpt lat="38.892853" lon="-5.727971">
        <ele>376.0</ele>
        <time>2021-02-13T11:22:19Z</time>
      </trkpt>
      <trkpt lat="38.892815" lon="-5.7279673">
        <ele>376.0</ele>
        <time>2021-02-13T11:22:20Z</time>
      </trkpt>
      <trkpt lat="38.892776" lon="-5.7279654">
        <ele>376.0</ele>
        <time>2021-02-13T11:22:21Z</time>
      </trkpt>
      <trkpt lat="38.892735" lon="-5.727964">
        <ele>376.0</ele>
        <time>2021-02-13T11:22:22Z</time>
      </trkpt>
      <trkpt lat="38.892696" lon="-5.727965">
        <ele>377.0</ele>
        <time>2021-02-13T11:22:23Z</time>
      </trkpt>
      <trkpt lat="38.89266" lon="-5.7279673">
        <ele>377.0</ele>
        <time>2021-02-13T11:22:24Z</time>
      </trkpt>
      <trkpt lat="38.89262" lon="-5.7279706">
        <ele>377.0</ele>
        <time>2021-02-13T11:22:25Z</time>
      </trkpt>
      <trkpt lat="38.89258" lon="-5.727977">
        <ele>377.0</ele>
        <time>2021-02-13T11:22:26Z</time>
      </trkpt>
      <trkpt lat="38.89254" lon="-5.7279844">
        <ele>377.0</ele>
        <time>2021-02-13T11:22:27Z</time>
      </trkpt>
      <trkpt lat="38.8925" lon="-5.727993">
        <ele>378.0</ele>
        <time>2021-02-13T11:22:28Z</time>
      </trkpt>
      <trkpt lat="38.892464" lon="-5.7280025">
        <ele>378.0</ele>
        <time>2021-02-13T11:22:29Z</time>
      </trkpt>
      <trkpt lat="38.89243" lon="-5.7280126">
        <ele>378.0</ele>
        <time>2021-02-13T11:22:30Z</time>
      </trkpt>
      <trkpt lat="38.89239" lon="-5.7280235">
        <ele>378.0</ele>
        <time>2021-02-13T11:22:31Z</time>
      </trkpt>
      <trkpt lat="38.892353" lon="-5.728036">
        <ele>378.0</ele>
        <time>2021-02-13T11:22:32Z</time>
      </trkpt>
      <trkpt lat="38.892315" lon="-5.7280498">
        <ele>378.0</ele>
        <time>2021-02-13T11:22:33Z</time>
      </trkpt>
      <trkpt lat="38.892277" lon="-5.7280655">
        <ele>379.0</ele>
        <time>2021-02-13T11:22:34Z</time>
      </trkpt>
      <trkpt lat="38.89224" lon="-5.7280827">
        <ele>379.0</ele>
        <time>2021-02-13T11:22:35Z</time>
      </trkpt>
      <trkpt lat="38.892204" lon="-5.7281">
        <ele>379.0</ele>
        <time>2021-02-13T11:22:36Z</time>
      </trkpt>
      <trkpt lat="38.89217" lon="-5.728118">
        <ele>379.0</ele>
        <time>2021-02-13T11:22:37Z</time>
      </trkpt>
      <trkpt lat="38.892136" lon="-5.7281365">
        <ele>379.0</ele>
        <time>2021-02-13T11:22:38Z</time>
      </trkpt>
      <trkpt lat="38.892097" lon="-5.728156">
        <ele>380.0</ele>
        <time>2021-02-13T11:22:39Z</time>
      </trkpt>
      <trkpt lat="38.892067" lon="-5.728176">
        <ele>380.0</ele>
        <time>2021-02-13T11:22:40Z</time>
      </trkpt>
      <trkpt lat="38.892033" lon="-5.728197">
        <ele>380.0</ele>
        <time>2021-02-13T11:22:41Z</time>
      </trkpt>
      <trkpt lat="38.891994" lon="-5.728219">
        <ele>380.0</ele>
        <time>2021-02-13T11:22:42Z</time>
      </trkpt>
      <trkpt lat="38.891964" lon="-5.7282414">
        <ele>380.0</ele>
        <time>2021-02-13T11:22:43Z</time>
      </trkpt>
      <trkpt lat="38.89193" lon="-5.728266">
        <ele>380.0</ele>
        <time>2021-02-13T11:22:44Z</time>
      </trkpt>
      <trkpt lat="38.891895" lon="-5.728289">
        <ele>380.0</ele>
        <time>2021-02-13T11:22:45Z</time>
      </trkpt>
      <trkpt lat="38.891857" lon="-5.728313">
        <ele>380.0</ele>
        <time>2021-02-13T11:22:46Z</time>
      </trkpt>
      <trkpt lat="38.891823" lon="-5.728338">
        <ele>380.0</ele>
        <time>2021-02-13T11:22:47Z</time>
      </trkpt>
      <trkpt lat="38.891792" lon="-5.728364">
        <ele>380.0</ele>
        <time>2021-02-13T11:22:48Z</time>
      </trkpt>
      <trkpt lat="38.891758" lon="-5.7283916">
        <ele>380.0</ele>
        <time>2021-02-13T11:22:49Z</time>
      </trkpt>
      <trkpt lat="38.891724" lon="-5.728421">
        <ele>381.0</ele>
        <time>2021-02-13T11:22:50Z</time>
      </trkpt>
      <trkpt lat="38.89169" lon="-5.7284513">
        <ele>381.0</ele>
        <time>2021-02-13T11:22:51Z</time>
      </trkpt>
      <trkpt lat="38.891655" lon="-5.728482">
        <ele>381.0</ele>
        <time>2021-02-13T11:22:52Z</time>
      </trkpt>
      <trkpt lat="38.89162" lon="-5.728512">
        <ele>381.0</ele>
        <time>2021-02-13T11:22:53Z</time>
      </trkpt>
      <trkpt lat="38.891586" lon="-5.728543">
        <ele>381.0</ele>
        <time>2021-02-13T11:22:54Z</time>
      </trkpt>
      <trkpt lat="38.891552" lon="-5.7285733">
        <ele>381.0</ele>
        <time>2021-02-13T11:22:55Z</time>
      </trkpt>
      <trkpt lat="38.891518" lon="-5.7286034">
        <ele>381.0</ele>
        <time>2021-02-13T11:22:56Z</time>
      </trkpt>
      <trkpt lat="38.891483" lon="-5.7286367">
        <ele>381.0</ele>
        <time>2021-02-13T11:22:57Z</time>
      </trkpt>
      <trkpt lat="38.89144" lon="-5.7286696">
        <ele>382.0</ele>
        <time>2021-02-13T11:22:58Z</time>
      </trkpt>
      <trkpt lat="38.891407" lon="-5.7287006">
        <ele>382.0</ele>
        <time>2021-02-13T11:22:59Z</time>
      </trkpt>
      <trkpt lat="38.891373" lon="-5.7287307">
        <ele>382.0</ele>
        <time>2021-02-13T11:23:00Z</time>
      </trkpt>
      <trkpt lat="38.89134" lon="-5.7287617">
        <ele>382.0</ele>
        <time>2021-02-13T11:23:01Z</time>
      </trkpt>
      <trkpt lat="38.891304" lon="-5.728791">
        <ele>382.0</ele>
        <time>2021-02-13T11:23:02Z</time>
      </trkpt>
      <trkpt lat="38.891266" lon="-5.728822">
        <ele>382.0</ele>
        <time>2021-02-13T11:23:03Z</time>
      </trkpt>
      <trkpt lat="38.89123" lon="-5.728853">
        <ele>382.0</ele>
        <time>2021-02-13T11:23:04Z</time>
      </trkpt>
      <trkpt lat="38.891193" lon="-5.7288833">
        <ele>382.0</ele>
        <time>2021-02-13T11:23:05Z</time>
      </trkpt>
      <trkpt lat="38.89116" lon="-5.728914">
        <ele>382.0</ele>
        <time>2021-02-13T11:23:06Z</time>
      </trkpt>
      <trkpt lat="38.89112" lon="-5.7289457">
        <ele>383.0</ele>
        <time>2021-02-13T11:23:07Z</time>
      </trkpt>
      <trkpt lat="38.891087" lon="-5.7289753">
        <ele>383.0</ele>
        <time>2021-02-13T11:23:08Z</time>
      </trkpt>
      <trkpt lat="38.891052" lon="-5.729003">
        <ele>383.0</ele>
        <time>2021-02-13T11:23:09Z</time>
      </trkpt>
      <trkpt lat="38.891014" lon="-5.7290316">
        <ele>383.0</ele>
        <time>2021-02-13T11:23:10Z</time>
      </trkpt>
      <trkpt lat="38.89098" lon="-5.7290626">
        <ele>383.0</ele>
        <time>2021-02-13T11:23:11Z</time>
      </trkpt>
      <trkpt lat="38.89094" lon="-5.7290974">
        <ele>383.0</ele>
        <time>2021-02-13T11:23:12Z</time>
      </trkpt>
      <trkpt lat="38.890907" lon="-5.7291336">
        <ele>383.0</ele>
        <time>2021-02-13T11:23:13Z</time>
      </trkpt>
      <trkpt lat="38.89087" lon="-5.7291694">
        <ele>383.0</ele>
        <time>2021-02-13T11:23:14Z</time>
      </trkpt>
      <trkpt lat="38.890835" lon="-5.729203">
        <ele>383.0</ele>
        <time>2021-02-13T11:23:15Z</time>
      </trkpt>
      <trkpt lat="38.890804" lon="-5.729239">
        <ele>383.0</ele>
        <time>2021-02-13T11:23:16Z</time>
      </trkpt>
      <trkpt lat="38.890774" lon="-5.7292795">
        <ele>384.0</ele>
        <time>2021-02-13T11:23:17Z</time>
      </trkpt>
      <trkpt lat="38.890747" lon="-5.7293224">
        <ele>384.0</ele>
        <time>2021-02-13T11:23:18Z</time>
      </trkpt>
      <trkpt lat="38.890728" lon="-5.729364">
        <ele>384.0</ele>
        <time>2021-02-13T11:23:19Z</time>
      </trkpt>
      <trkpt lat="38.890713" lon="-5.729408">
        <ele>384.0</ele>
        <time>2021-02-13T11:23:20Z</time>
      </trkpt>
      <trkpt lat="38.890705" lon="-5.7294574">
        <ele>384.0</ele>
        <time>2021-02-13T11:23:21Z</time>
      </trkpt>
      <trkpt lat="38.8907" lon="-5.7295046">
        <ele>385.0</ele>
        <time>2021-02-13T11:23:22Z</time>
      </trkpt>
      <trkpt lat="38.8907" lon="-5.7295494">
        <ele>385.0</ele>
        <time>2021-02-13T11:23:23Z</time>
      </trkpt>
      <trkpt lat="38.890705" lon="-5.7295866">
        <ele>385.0</ele>
        <time>2021-02-13T11:23:24Z</time>
      </trkpt>
      <trkpt lat="38.890717" lon="-5.7296205">
        <ele>385.0</ele>
        <time>2021-02-13T11:23:25Z</time>
      </trkpt>
      <trkpt lat="38.89073" lon="-5.729652">
        <ele>386.0</ele>
        <time>2021-02-13T11:23:26Z</time>
      </trkpt>
      <trkpt lat="38.89075" lon="-5.72968">
        <ele>386.0</ele>
        <time>2021-02-13T11:23:27Z</time>
      </trkpt>
      <trkpt lat="38.890778" lon="-5.7297044">
        <ele>386.0</ele>
        <time>2021-02-13T11:23:28Z</time>
      </trkpt>
      <trkpt lat="38.8908" lon="-5.7297263">
        <ele>386.0</ele>
        <time>2021-02-13T11:23:29Z</time>
      </trkpt>
      <trkpt lat="38.890827" lon="-5.7297435">
        <ele>386.0</ele>
        <time>2021-02-13T11:23:30Z</time>
      </trkpt>
      <trkpt lat="38.890858" lon="-5.7297587">
        <ele>386.0</ele>
        <time>2021-02-13T11:23:31Z</time>
      </trkpt>
      <trkpt lat="38.890884" lon="-5.729772">
        <ele>386.0</ele>
        <time>2021-02-13T11:23:32Z</time>
      </trkpt>
      <trkpt lat="38.890915" lon="-5.7297854">
        <ele>386.0</ele>
        <time>2021-02-13T11:23:33Z</time>
      </trkpt>
      <trkpt lat="38.890945" lon="-5.7297964">
        <ele>386.0</ele>
        <time>2021-02-13T11:23:34Z</time>
      </trkpt>
      <trkpt lat="38.890972" lon="-5.729807">
        <ele>387.0</ele>
        <time>2021-02-13T11:23:35Z</time>
      </trkpt>
      <trkpt lat="38.891" lon="-5.729815">
        <ele>387.0</ele>
        <time>2021-02-13T11:23:36Z</time>
      </trkpt>
      <trkpt lat="38.89103" lon="-5.729824">
        <ele>387.0</ele>
        <time>2021-02-13T11:23:37Z</time>
      </trkpt>
      <trkpt lat="38.891056" lon="-5.729833">
        <ele>387.0</ele>
        <time>2021-02-13T11:23:38Z</time>
      </trkpt>
      <trkpt lat="38.891087" lon="-5.7298427">
        <ele>387.0</ele>
        <time>2021-02-13T11:23:39Z</time>
      </trkpt>
      <trkpt lat="38.891113" lon="-5.7298527">
        <ele>388.0</ele>
        <time>2021-02-13T11:23:40Z</time>
      </trkpt>
      <trkpt lat="38.89114" lon="-5.7298636">
        <ele>388.0</ele>
        <time>2021-02-13T11:23:41Z</time>
      </trkpt>
      <trkpt lat="38.89117" lon="-5.7298727">
        <ele>388.0</ele>
        <time>2021-02-13T11:23:42Z</time>
      </trkpt>
      <trkpt lat="38.891197" lon="-5.7298827">
        <ele>388.0</ele>
        <time>2021-02-13T11:23:43Z</time>
      </trkpt>
      <trkpt lat="38.891224" lon="-5.7298923">
        <ele>388.0</ele>
        <time>2021-02-13T11:23:44Z</time>
      </trkpt>
      <trkpt lat="38.89126" lon="-5.7299027">
        <ele>389.0</ele>
        <time>2021-02-13T11:23:45Z</time>
      </trkpt>
      <trkpt lat="38.89129" lon="-5.7299128">
        <ele>389.0</ele>
        <time>2021-02-13T11:23:46Z</time>
      </trkpt>
      <trkpt lat="38.89132" lon="-5.729923">
        <ele>389.0</ele>
        <time>2021-02-13T11:23:47Z</time>
      </trkpt>
      <trkpt lat="38.891342" lon="-5.7299323">
        <ele>389.0</ele>
        <time>2021-02-13T11:23:48Z</time>
      </trkpt>
      <trkpt lat="38.891373" lon="-5.7299423">
        <ele>390.0</ele>
        <time>2021-02-13T11:23:49Z</time>
      </trkpt>
      <trkpt lat="38.891396" lon="-5.729954">
        <ele>390.0</ele>
        <time>2021-02-13T11:23:50Z</time>
      </trkpt>
      <trkpt lat="38.891426" lon="-5.729965">
        <ele>390.0</ele>
        <time>2021-02-13T11:23:51Z</time>
      </trkpt>
      <trkpt lat="38.891453" lon="-5.729977">
        <ele>390.0</ele>
        <time>2021-02-13T11:23:52Z</time>
      </trkpt>
      <trkpt lat="38.891483" lon="-5.7299867">
        <ele>390.0</ele>
        <time>2021-02-13T11:23:53Z</time>
      </trkpt>
      <trkpt lat="38.89151" lon="-5.729994">
        <ele>390.0</ele>
        <time>2021-02-13T11:23:54Z</time>
      </trkpt>
      <trkpt lat="38.891533" lon="-5.7299986">
        <ele>391.0</ele>
        <time>2021-02-13T11:23:55Z</time>
      </trkpt>
      <trkpt lat="38.89156" lon="-5.7300053">
        <ele>391.0</ele>
        <time>2021-02-13T11:23:56Z</time>
      </trkpt>
      <trkpt lat="38.891586" lon="-5.7300115">
        <ele>391.0</ele>
        <time>2021-02-13T11:23:57Z</time>
      </trkpt>
      <trkpt lat="38.891613" lon="-5.730019">
        <ele>391.0</ele>
        <time>2021-02-13T11:23:58Z</time>
      </trkpt>
      <trkpt lat="38.891644" lon="-5.7300277">
        <ele>391.0</ele>
        <time>2021-02-13T11:23:59Z</time>
      </trkpt>
      <trkpt lat="38.89167" lon="-5.730037">
        <ele>391.0</ele>
        <time>2021-02-13T11:24:00Z</time>
      </trkpt>
      <trkpt lat="38.8917" lon="-5.730045">
        <ele>392.0</ele>
        <time>2021-02-13T11:24:01Z</time>
      </trkpt>
      <trkpt lat="38.891727" lon="-5.730053">
        <ele>392.0</ele>
        <time>2021-02-13T11:24:02Z</time>
      </trkpt>
      <trkpt lat="38.891754" lon="-5.730064">
        <ele>392.0</ele>
        <time>2021-02-13T11:24:03Z</time>
      </trkpt>
      <trkpt lat="38.891777" lon="-5.7300715">
        <ele>392.0</ele>
        <time>2021-02-13T11:24:04Z</time>
      </trkpt>
      <trkpt lat="38.891804" lon="-5.7300806">
        <ele>392.0</ele>
        <time>2021-02-13T11:24:05Z</time>
      </trkpt>
      <trkpt lat="38.89183" lon="-5.730089">
        <ele>392.0</ele>
        <time>2021-02-13T11:24:06Z</time>
      </trkpt>
      <trkpt lat="38.891857" lon="-5.730101">
        <ele>392.0</ele>
        <time>2021-02-13T11:24:07Z</time>
      </trkpt>
      <trkpt lat="38.89188" lon="-5.7301145">
        <ele>392.0</ele>
        <time>2021-02-13T11:24:08Z</time>
      </trkpt>
      <trkpt lat="38.891903" lon="-5.730128">
        <ele>392.0</ele>
        <time>2021-02-13T11:24:09Z</time>
      </trkpt>
      <trkpt lat="38.891922" lon="-5.730139">
        <ele>392.0</ele>
        <time>2021-02-13T11:24:10Z</time>
      </trkpt>
      <trkpt lat="38.89194" lon="-5.7301464">
        <ele>393.0</ele>
        <time>2021-02-13T11:24:11Z</time>
      </trkpt>
      <trkpt lat="38.89196" lon="-5.7301517">
        <ele>393.0</ele>
        <time>2021-02-13T11:24:12Z</time>
      </trkpt>
      <trkpt lat="38.891983" lon="-5.730156">
        <ele>393.0</ele>
        <time>2021-02-13T11:24:13Z</time>
      </trkpt>
      <trkpt lat="38.892002" lon="-5.730163">
        <ele>393.0</ele>
        <time>2021-02-13T11:24:14Z</time>
      </trkpt>
      <trkpt lat="38.892025" lon="-5.7301717">
        <ele>393.0</ele>
        <time>2021-02-13T11:24:15Z</time>
      </trkpt>
      <trkpt lat="38.89205" lon="-5.7301803">
        <ele>394.0</ele>
        <time>2021-02-13T11:24:16Z</time>
      </trkpt>
      <trkpt lat="38.892075" lon="-5.730187">
        <ele>394.0</ele>
        <time>2021-02-13T11:24:17Z</time>
      </trkpt>
      <trkpt lat="38.892097" lon="-5.730193">
        <ele>394.0</ele>
        <time>2021-02-13T11:24:18Z</time>
      </trkpt>
      <trkpt lat="38.892124" lon="-5.730201">
        <ele>394.0</ele>
        <time>2021-02-13T11:24:19Z</time>
      </trkpt>
      <trkpt lat="38.89215" lon="-5.7302094">
        <ele>395.0</ele>
        <time>2021-02-13T11:24:20Z</time>
      </trkpt>
      <trkpt lat="38.892174" lon="-5.7302184">
        <ele>395.0</ele>
        <time>2021-02-13T11:24:21Z</time>
      </trkpt>
      <trkpt lat="38.892197" lon="-5.730226">
        <ele>395.0</ele>
        <time>2021-02-13T11:24:22Z</time>
      </trkpt>
      <trkpt lat="38.892223" lon="-5.730234">
        <ele>395.0</ele>
        <time>2021-02-13T11:24:23Z</time>
      </trkpt>
      <trkpt lat="38.892246" lon="-5.73024">
        <ele>395.0</ele>
        <time>2021-02-13T11:24:24Z</time>
      </trkpt>
      <trkpt lat="38.892273" lon="-5.730247">
        <ele>396.0</ele>
        <time>2021-02-13T11:24:25Z</time>
      </trkpt>
      <trkpt lat="38.8923" lon="-5.730253">
        <ele>396.0</ele>
        <time>2021-02-13T11:24:26Z</time>
      </trkpt>
      <trkpt lat="38.892323" lon="-5.7302594">
        <ele>396.0</ele>
        <time>2021-02-13T11:24:27Z</time>
      </trkpt>
      <trkpt lat="38.89235" lon="-5.730266">
        <ele>396.0</ele>
        <time>2021-02-13T11:24:28Z</time>
      </trkpt>
      <trkpt lat="38.892376" lon="-5.7302737">
        <ele>396.0</ele>
        <time>2021-02-13T11:24:29Z</time>
      </trkpt>
      <trkpt lat="38.892395" lon="-5.7302804">
        <ele>397.0</ele>
        <time>2021-02-13T11:24:30Z</time>
      </trkpt>
      <trkpt lat="38.892418" lon="-5.7302885">
        <ele>397.0</ele>
        <time>2021-02-13T11:24:31Z</time>
      </trkpt>
      <trkpt lat="38.89244" lon="-5.7302976">
        <ele>397.0</ele>
        <time>2021-02-13T11:24:32Z</time>
      </trkpt>
      <trkpt lat="38.89246" lon="-5.7303085">
        <ele>397.0</ele>
        <time>2021-02-13T11:24:33Z</time>
      </trkpt>
      <trkpt lat="38.892483" lon="-5.7303205">
        <ele>397.0</ele>
        <time>2021-02-13T11:24:34Z</time>
      </trkpt>
      <trkpt lat="38.892506" lon="-5.730331">
        <ele>397.0</ele>
        <time>2021-02-13T11:24:35Z</time>
      </trkpt>
      <trkpt lat="38.892532" lon="-5.730339">
        <ele>397.0</ele>
        <time>2021-02-13T11:24:36Z</time>
      </trkpt>
      <trkpt lat="38.892555" lon="-5.730346">
        <ele>397.0</ele>
        <time>2021-02-13T11:24:37Z</time>
      </trkpt>
      <trkpt lat="38.89258" lon="-5.7303524">
        <ele>397.0</ele>
        <time>2021-02-13T11:24:38Z</time>
      </trkpt>
      <trkpt lat="38.892605" lon="-5.7303596">
        <ele>398.0</ele>
        <time>2021-02-13T11:24:39Z</time>
      </trkpt>
      <trkpt lat="38.89263" lon="-5.730367">
        <ele>398.0</ele>
        <time>2021-02-13T11:24:40Z</time>
      </trkpt>
      <trkpt lat="38.89266" lon="-5.730375">
        <ele>398.0</ele>
        <time>2021-02-13T11:24:41Z</time>
      </trkpt>
      <trkpt lat="38.89268" lon="-5.7303834">
        <ele>398.0</ele>
        <time>2021-02-13T11:24:42Z</time>
      </trkpt>
      <trkpt lat="38.892704" lon="-5.7303915">
        <ele>399.0</ele>
        <time>2021-02-13T11:24:43Z</time>
      </trkpt>
      <trkpt lat="38.892727" lon="-5.7304006">
        <ele>399.0</ele>
        <time>2021-02-13T11:24:44Z</time>
      </trkpt>
      <trkpt lat="38.892754" lon="-5.7304096">
        <ele>399.0</ele>
        <time>2021-02-13T11:24:45Z</time>
      </trkpt>
      <trkpt lat="38.89278" lon="-5.730419">
        <ele>399.0</ele>
        <time>2021-02-13T11:24:46Z</time>
      </trkpt>
      <trkpt lat="38.892803" lon="-5.7304287">
        <ele>400.0</ele>
        <time>2021-02-13T11:24:47Z</time>
      </trkpt>
      <trkpt lat="38.892826" lon="-5.7304373">
        <ele>400.0</ele>
        <time>2021-02-13T11:24:48Z</time>
      </trkpt>
      <trkpt lat="38.89285" lon="-5.730444">
        <ele>400.0</ele>
        <time>2021-02-13T11:24:49Z</time>
      </trkpt>
      <trkpt lat="38.892876" lon="-5.730453">
        <ele>400.0</ele>
        <time>2021-02-13T11:24:50Z</time>
      </trkpt>
      <trkpt lat="38.892895" lon="-5.7304616">
        <ele>400.0</ele>
        <time>2021-02-13T11:24:51Z</time>
      </trkpt>
      <trkpt lat="38.892914" lon="-5.730468">
        <ele>401.0</ele>
        <time>2021-02-13T11:24:52Z</time>
      </trkpt>
      <trkpt lat="38.892937" lon="-5.7304764">
        <ele>401.0</ele>
        <time>2021-02-13T11:24:53Z</time>
      </trkpt>
      <trkpt lat="38.89296" lon="-5.730486">
        <ele>401.0</ele>
        <time>2021-02-13T11:24:54Z</time>
      </trkpt>
      <trkpt lat="38.89298" lon="-5.7304964">
        <ele>401.0</ele>
        <time>2021-02-13T11:24:55Z</time>
      </trkpt>
      <trkpt lat="38.893" lon="-5.7305074">
        <ele>402.0</ele>
        <time>2021-02-13T11:24:56Z</time>
      </trkpt>
      <trkpt lat="38.893024" lon="-5.730517">
        <ele>402.0</ele>
        <time>2021-02-13T11:24:57Z</time>
      </trkpt>
      <trkpt lat="38.893047" lon="-5.730525">
        <ele>402.0</ele>
        <time>2021-02-13T11:24:58Z</time>
      </trkpt>
      <trkpt lat="38.89307" lon="-5.7305317">
        <ele>402.0</ele>
        <time>2021-02-13T11:24:59Z</time>
      </trkpt>
      <trkpt lat="38.893093" lon="-5.730539">
        <ele>403.0</ele>
        <time>2021-02-13T11:25:00Z</time>
      </trkpt>
      <trkpt lat="38.893116" lon="-5.7305474">
        <ele>403.0</ele>
        <time>2021-02-13T11:25:01Z</time>
      </trkpt>
      <trkpt lat="38.893135" lon="-5.730556">
        <ele>403.0</ele>
        <time>2021-02-13T11:25:02Z</time>
      </trkpt>
      <trkpt lat="38.89316" lon="-5.7305665">
        <ele>403.0</ele>
        <time>2021-02-13T11:25:03Z</time>
      </trkpt>
      <trkpt lat="38.893185" lon="-5.7305756">
        <ele>403.0</ele>
        <time>2021-02-13T11:25:04Z</time>
      </trkpt>
      <trkpt lat="38.89321" lon="-5.730585">
        <ele>403.0</ele>
        <time>2021-02-13T11:25:05Z</time>
      </trkpt>
      <trkpt lat="38.893234" lon="-5.730593">
        <ele>403.0</ele>
        <time>2021-02-13T11:25:06Z</time>
      </trkpt>
      <trkpt lat="38.89326" lon="-5.7306027">
        <ele>403.0</ele>
        <time>2021-02-13T11:25:07Z</time>
      </trkpt>
      <trkpt lat="38.893284" lon="-5.7306104">
        <ele>404.0</ele>
        <time>2021-02-13T11:25:08Z</time>
      </trkpt>
      <trkpt lat="38.89331" lon="-5.7306185">
        <ele>404.0</ele>
        <time>2021-02-13T11:25:09Z</time>
      </trkpt>
      <trkpt lat="38.893333" lon="-5.730626">
        <ele>404.0</ele>
        <time>2021-02-13T11:25:10Z</time>
      </trkpt>
      <trkpt lat="38.893356" lon="-5.730633">
        <ele>404.0</ele>
        <time>2021-02-13T11:25:11Z</time>
      </trkpt>
      <trkpt lat="38.893383" lon="-5.73064">
        <ele>404.0</ele>
        <time>2021-02-13T11:25:12Z</time>
      </trkpt>
      <trkpt lat="38.893406" lon="-5.7306476">
        <ele>405.0</ele>
        <time>2021-02-13T11:25:13Z</time>
      </trkpt>
      <trkpt lat="38.89343" lon="-5.7306566">
        <ele>405.0</ele>
        <time>2021-02-13T11:25:14Z</time>
      </trkpt>
      <trkpt lat="38.89345" lon="-5.730664">
        <ele>405.0</ele>
        <time>2021-02-13T11:25:15Z</time>
      </trkpt>
      <trkpt lat="38.89347" lon="-5.73067">
        <ele>405.0</ele>
        <time>2021-02-13T11:25:16Z</time>
      </trkpt>
      <trkpt lat="38.893494" lon="-5.7306757">
        <ele>406.0</ele>
        <time>2021-02-13T11:25:17Z</time>
      </trkpt>
      <trkpt lat="38.893517" lon="-5.730681">
        <ele>406.0</ele>
        <time>2021-02-13T11:25:18Z</time>
      </trkpt>
      <trkpt lat="38.89354" lon="-5.7306867">
        <ele>406.0</ele>
        <time>2021-02-13T11:25:19Z</time>
      </trkpt>
      <trkpt lat="38.893562" lon="-5.730694">
        <ele>406.0</ele>
        <time>2021-02-13T11:25:20Z</time>
      </trkpt>
      <trkpt lat="38.893585" lon="-5.7307014">
        <ele>407.0</ele>
        <time>2021-02-13T11:25:21Z</time>
      </trkpt>
      <trkpt lat="38.893612" lon="-5.7307105">
        <ele>407.0</ele>
        <time>2021-02-13T11:25:22Z</time>
      </trkpt>
      <trkpt lat="38.893635" lon="-5.7307177">
        <ele>407.0</ele>
        <time>2021-02-13T11:25:23Z</time>
      </trkpt>
      <trkpt lat="38.893654" lon="-5.7307243">
        <ele>407.0</ele>
        <time>2021-02-13T11:25:24Z</time>
      </trkpt>
      <trkpt lat="38.89368" lon="-5.7307315">
        <ele>408.0</ele>
        <time>2021-02-13T11:25:25Z</time>
      </trkpt>
      <trkpt lat="38.893703" lon="-5.7307377">
        <ele>408.0</ele>
        <time>2021-02-13T11:25:26Z</time>
      </trkpt>
      <trkpt lat="38.893723" lon="-5.7307444">
        <ele>408.0</ele>
        <time>2021-02-13T11:25:27Z</time>
      </trkpt>
      <trkpt lat="38.893745" lon="-5.7307506">
        <ele>408.0</ele>
        <time>2021-02-13T11:25:28Z</time>
      </trkpt>
      <trkpt lat="38.893772" lon="-5.7307563">
        <ele>408.0</ele>
        <time>2021-02-13T11:25:29Z</time>
      </trkpt>
      <trkpt lat="38.89379" lon="-5.730763">
        <ele>409.0</ele>
        <time>2021-02-13T11:25:30Z</time>
      </trkpt>
      <trkpt lat="38.89381" lon="-5.73077">
        <ele>409.0</ele>
        <time>2021-02-13T11:25:31Z</time>
      </trkpt>
      <trkpt lat="38.893833" lon="-5.7307777">
        <ele>409.0</ele>
        <time>2021-02-13T11:25:32Z</time>
      </trkpt>
      <trkpt lat="38.893856" lon="-5.7307844">
        <ele>409.0</ele>
        <time>2021-02-13T11:25:33Z</time>
      </trkpt>
      <trkpt lat="38.893875" lon="-5.7307916">
        <ele>410.0</ele>
        <time>2021-02-13T11:25:34Z</time>
      </trkpt>
      <trkpt lat="38.893898" lon="-5.730801">
        <ele>410.0</ele>
        <time>2021-02-13T11:25:35Z</time>
      </trkpt>
      <trkpt lat="38.893917" lon="-5.7308083">
        <ele>410.0</ele>
        <time>2021-02-13T11:25:36Z</time>
      </trkpt>
      <trkpt lat="38.89394" lon="-5.730818">
        <ele>410.0</ele>
        <time>2021-02-13T11:25:37Z</time>
      </trkpt>
      <trkpt lat="38.893955" lon="-5.7308273">
        <ele>410.0</ele>
        <time>2021-02-13T11:25:38Z</time>
      </trkpt>
      <trkpt lat="38.893974" lon="-5.7308373">
        <ele>411.0</ele>
        <time>2021-02-13T11:25:39Z</time>
      </trkpt>
      <trkpt lat="38.893997" lon="-5.7308455">
        <ele>411.0</ele>
        <time>2021-02-13T11:25:40Z</time>
      </trkpt>
      <trkpt lat="38.89402" lon="-5.7308526">
        <ele>411.0</ele>
        <time>2021-02-13T11:25:41Z</time>
      </trkpt>
      <trkpt lat="38.894043" lon="-5.730859">
        <ele>411.0</ele>
        <time>2021-02-13T11:25:42Z</time>
      </trkpt>
      <trkpt lat="38.894066" lon="-5.7308645">
        <ele>411.0</ele>
        <time>2021-02-13T11:25:43Z</time>
      </trkpt>
      <trkpt lat="38.89409" lon="-5.7308717">
        <ele>411.0</ele>
        <time>2021-02-13T11:25:44Z</time>
      </trkpt>
      <trkpt lat="38.89411" lon="-5.730879">
        <ele>411.0</ele>
        <time>2021-02-13T11:25:45Z</time>
      </trkpt>
      <trkpt lat="38.89414" lon="-5.730887">
        <ele>411.0</ele>
        <time>2021-02-13T11:25:46Z</time>
      </trkpt>
      <trkpt lat="38.894165" lon="-5.730894">
        <ele>411.0</ele>
        <time>2021-02-13T11:25:47Z</time>
      </trkpt>
      <trkpt lat="38.894188" lon="-5.7309003">
        <ele>412.0</ele>
        <time>2021-02-13T11:25:48Z</time>
      </trkpt>
      <trkpt lat="38.89421" lon="-5.730907">
        <ele>412.0</ele>
        <time>2021-02-13T11:25:49Z</time>
      </trkpt>
      <trkpt lat="38.894234" lon="-5.730914">
        <ele>412.0</ele>
        <time>2021-02-13T11:25:50Z</time>
      </trkpt>
      <trkpt lat="38.894257" lon="-5.730919">
        <ele>412.0</ele>
        <time>2021-02-13T11:25:51Z</time>
      </trkpt>
      <trkpt lat="38.89428" lon="-5.730922">
        <ele>413.0</ele>
        <time>2021-02-13T11:25:52Z</time>
      </trkpt>
      <trkpt lat="38.894302" lon="-5.730924">
        <ele>413.0</ele>
        <time>2021-02-13T11:25:53Z</time>
      </trkpt>
      <trkpt lat="38.89433" lon="-5.7309284">
        <ele>413.0</ele>
        <time>2021-02-13T11:25:54Z</time>
      </trkpt>
      <trkpt lat="38.894352" lon="-5.7309356">
        <ele>413.0</ele>
        <time>2021-02-13T11:25:55Z</time>
      </trkpt>
      <trkpt lat="38.894375" lon="-5.7309446">
        <ele>413.0</ele>
        <time>2021-02-13T11:25:56Z</time>
      </trkpt>
      <trkpt lat="38.894394" lon="-5.7309527">
        <ele>414.0</ele>
        <time>2021-02-13T11:25:57Z</time>
      </trkpt>
      <trkpt lat="38.894417" lon="-5.730963">
        <ele>414.0</ele>
        <time>2021-02-13T11:25:58Z</time>
      </trkpt>
      <trkpt lat="38.89444" lon="-5.7309723">
        <ele>414.0</ele>
        <time>2021-02-13T11:25:59Z</time>
      </trkpt>
      <trkpt lat="38.894463" lon="-5.7309833">
        <ele>414.0</ele>
        <time>2021-02-13T11:26:00Z</time>
      </trkpt>
      <trkpt lat="38.894485" lon="-5.7309947">
        <ele>415.0</ele>
        <time>2021-02-13T11:26:01Z</time>
      </trkpt>
      <trkpt lat="38.89451" lon="-5.7310076">
        <ele>415.0</ele>
        <time>2021-02-13T11:26:02Z</time>
      </trkpt>
      <trkpt lat="38.89453" lon="-5.731018">
        <ele>415.0</ele>
        <time>2021-02-13T11:26:03Z</time>
      </trkpt>
      <trkpt lat="38.894558" lon="-5.7310286">
        <ele>415.0</ele>
        <time>2021-02-13T11:26:04Z</time>
      </trkpt>
      <trkpt lat="38.89458" lon="-5.731042">
        <ele>416.0</ele>
        <time>2021-02-13T11:26:05Z</time>
      </trkpt>
      <trkpt lat="38.894604" lon="-5.7310553">
        <ele>416.0</ele>
        <time>2021-02-13T11:26:05Z</time>
      </trkpt>
      <trkpt lat="38.89463" lon="-5.7310667">
        <ele>416.0</ele>
        <time>2021-02-13T11:26:06Z</time>
      </trkpt>
      <trkpt lat="38.894653" lon="-5.7310796">
        <ele>416.0</ele>
        <time>2021-02-13T11:26:07Z</time>
      </trkpt>
      <trkpt lat="38.89468" lon="-5.731093">
        <ele>417.0</ele>
        <time>2021-02-13T11:26:08Z</time>
      </trkpt>
      <trkpt lat="38.894703" lon="-5.731106">
        <ele>417.0</ele>
        <time>2021-02-13T11:26:09Z</time>
      </trkpt>
      <trkpt lat="38.894726" lon="-5.731118">
        <ele>417.0</ele>
        <time>2021-02-13T11:26:10Z</time>
      </trkpt>
      <trkpt lat="38.894753" lon="-5.7311296">
        <ele>417.0</ele>
        <time>2021-02-13T11:26:11Z</time>
      </trkpt>
      <trkpt lat="38.894775" lon="-5.731139">
        <ele>418.0</ele>
        <time>2021-02-13T11:26:12Z</time>
      </trkpt>
      <trkpt lat="38.8948" lon="-5.7311497">
        <ele>418.0</ele>
        <time>2021-02-13T11:26:13Z</time>
      </trkpt>
      <trkpt lat="38.89482" lon="-5.73116">
        <ele>418.0</ele>
        <time>2021-02-13T11:26:14Z</time>
      </trkpt>
      <trkpt lat="38.894844" lon="-5.731171">
        <ele>418.0</ele>
        <time>2021-02-13T11:26:15Z</time>
      </trkpt>
      <trkpt lat="38.894867" lon="-5.731182">
        <ele>419.0</ele>
        <time>2021-02-13T11:26:16Z</time>
      </trkpt>
      <trkpt lat="38.89489" lon="-5.7311935">
        <ele>419.0</ele>
        <time>2021-02-13T11:26:17Z</time>
      </trkpt>
      <trkpt lat="38.894913" lon="-5.7312045">
        <ele>419.0</ele>
        <time>2021-02-13T11:26:18Z</time>
      </trkpt>
      <trkpt lat="38.89493" lon="-5.7312155">
        <ele>419.0</ele>
        <time>2021-02-13T11:26:19Z</time>
      </trkpt>
      <trkpt lat="38.894955" lon="-5.7312264">
        <ele>419.0</ele>
        <time>2021-02-13T11:26:20Z</time>
      </trkpt>
      <trkpt lat="38.894978" lon="-5.731235">
        <ele>420.0</ele>
        <time>2021-02-13T11:26:21Z</time>
      </trkpt>
      <trkpt lat="38.895" lon="-5.7312455">
        <ele>420.0</ele>
        <time>2021-02-13T11:26:22Z</time>
      </trkpt>
      <trkpt lat="38.895023" lon="-5.731257">
        <ele>420.0</ele>
        <time>2021-02-13T11:26:23Z</time>
      </trkpt>
      <trkpt lat="38.895042" lon="-5.7312684">
        <ele>420.0</ele>
        <time>2021-02-13T11:26:24Z</time>
      </trkpt>
      <trkpt lat="38.895065" lon="-5.7312794">
        <ele>420.0</ele>
        <time>2021-02-13T11:26:25Z</time>
      </trkpt>
      <trkpt lat="38.895084" lon="-5.731291">
        <ele>420.0</ele>
        <time>2021-02-13T11:26:26Z</time>
      </trkpt>
      <trkpt lat="38.895107" lon="-5.731302">
        <ele>420.0</ele>
        <time>2021-02-13T11:26:27Z</time>
      </trkpt>
      <trkpt lat="38.89513" lon="-5.731313">
        <ele>420.0</ele>
        <time>2021-02-13T11:26:28Z</time>
      </trkpt>
      <trkpt lat="38.895153" lon="-5.7313256">
        <ele>420.0</ele>
        <time>2021-02-13T11:26:29Z</time>
      </trkpt>
      <trkpt lat="38.895172" lon="-5.731338">
        <ele>420.0</ele>
        <time>2021-02-13T11:26:30Z</time>
      </trkpt>
      <trkpt lat="38.895195" lon="-5.7313504">
        <ele>421.0</ele>
        <time>2021-02-13T11:26:31Z</time>
      </trkpt>
      <trkpt lat="38.895218" lon="-5.7313633">
        <ele>421.0</ele>
        <time>2021-02-13T11:26:32Z</time>
      </trkpt>
      <trkpt lat="38.89524" lon="-5.731375">
        <ele>421.0</ele>
        <time>2021-02-13T11:26:33Z</time>
      </trkpt>
      <trkpt lat="38.89526" lon="-5.7313895">
        <ele>421.0</ele>
        <time>2021-02-13T11:26:34Z</time>
      </trkpt>
      <trkpt lat="38.895283" lon="-5.7314014">
        <ele>421.0</ele>
        <time>2021-02-13T11:26:35Z</time>
      </trkpt>
      <trkpt lat="38.89531" lon="-5.7314143">
        <ele>421.0</ele>
        <time>2021-02-13T11:26:36Z</time>
      </trkpt>
      <trkpt lat="38.895332" lon="-5.731427">
        <ele>422.0</ele>
        <time>2021-02-13T11:26:37Z</time>
      </trkpt>
      <trkpt lat="38.89536" lon="-5.7314405">
        <ele>422.0</ele>
        <time>2021-02-13T11:26:38Z</time>
      </trkpt>
      <trkpt lat="38.895382" lon="-5.731454">
        <ele>422.0</ele>
        <time>2021-02-13T11:26:39Z</time>
      </trkpt>
      <trkpt lat="38.895405" lon="-5.731468">
        <ele>422.0</ele>
        <time>2021-02-13T11:26:40Z</time>
      </trkpt>
      <trkpt lat="38.895428" lon="-5.731481">
        <ele>422.0</ele>
        <time>2021-02-13T11:26:41Z</time>
      </trkpt>
      <trkpt lat="38.89545" lon="-5.731494">
        <ele>423.0</ele>
        <time>2021-02-13T11:26:42Z</time>
      </trkpt>
      <trkpt lat="38.895473" lon="-5.731506">
        <ele>423.0</ele>
        <time>2021-02-13T11:26:43Z</time>
      </trkpt>
      <trkpt lat="38.895496" lon="-5.7315173">
        <ele>423.0</ele>
        <time>2021-02-13T11:26:44Z</time>
      </trkpt>
      <trkpt lat="38.895523" lon="-5.7315297">
        <ele>423.0</ele>
        <time>2021-02-13T11:26:45Z</time>
      </trkpt>
      <trkpt lat="38.895546" lon="-5.731543">
        <ele>423.0</ele>
        <time>2021-02-13T11:26:46Z</time>
      </trkpt>
      <trkpt lat="38.895573" lon="-5.731555">
        <ele>423.0</ele>
        <time>2021-02-13T11:26:47Z</time>
      </trkpt>
      <trkpt lat="38.895596" lon="-5.7315674">
        <ele>424.0</ele>
        <time>2021-02-13T11:26:48Z</time>
      </trkpt>
      <trkpt lat="38.895622" lon="-5.7315784">
        <ele>424.0</ele>
        <time>2021-02-13T11:26:49Z</time>
      </trkpt>
      <trkpt lat="38.89565" lon="-5.73159">
        <ele>424.0</ele>
        <time>2021-02-13T11:26:50Z</time>
      </trkpt>
      <trkpt lat="38.895676" lon="-5.7316017">
        <ele>424.0</ele>
        <time>2021-02-13T11:26:51Z</time>
      </trkpt>
      <trkpt lat="38.895702" lon="-5.7316146">
        <ele>424.0</ele>
        <time>2021-02-13T11:26:52Z</time>
      </trkpt>
      <trkpt lat="38.895725" lon="-5.731627">
        <ele>425.0</ele>
        <time>2021-02-13T11:26:53Z</time>
      </trkpt>
      <trkpt lat="38.895752" lon="-5.7316403">
        <ele>425.0</ele>
        <time>2021-02-13T11:26:54Z</time>
      </trkpt>
      <trkpt lat="38.895775" lon="-5.7316537">
        <ele>425.0</ele>
        <time>2021-02-13T11:26:55Z</time>
      </trkpt>
      <trkpt lat="38.8958" lon="-5.7316666">
        <ele>425.0</ele>
        <time>2021-02-13T11:26:56Z</time>
      </trkpt>
      <trkpt lat="38.895824" lon="-5.7316794">
        <ele>425.0</ele>
        <time>2021-02-13T11:26:57Z</time>
      </trkpt>
      <trkpt lat="38.89585" lon="-5.7316923">
        <ele>425.0</ele>
        <time>2021-02-13T11:26:58Z</time>
      </trkpt>
      <trkpt lat="38.895874" lon="-5.7317057">
        <ele>425.0</ele>
        <time>2021-02-13T11:26:59Z</time>
      </trkpt>
      <trkpt lat="38.895897" lon="-5.7317195">
        <ele>425.0</ele>
        <time>2021-02-13T11:27:00Z</time>
      </trkpt>
      <trkpt lat="38.89592" lon="-5.731734">
        <ele>425.0</ele>
        <time>2021-02-13T11:27:01Z</time>
      </trkpt>
      <trkpt lat="38.895943" lon="-5.7317457">
        <ele>426.0</ele>
        <time>2021-02-13T11:27:02Z</time>
      </trkpt>
      <trkpt lat="38.89597" lon="-5.7317586">
        <ele>426.0</ele>
        <time>2021-02-13T11:27:03Z</time>
      </trkpt>
      <trkpt lat="38.895992" lon="-5.731773">
        <ele>426.0</ele>
        <time>2021-02-13T11:27:04Z</time>
      </trkpt>
      <trkpt lat="38.89601" lon="-5.7317867">
        <ele>426.0</ele>
        <time>2021-02-13T11:27:05Z</time>
      </trkpt>
      <trkpt lat="38.896034" lon="-5.7318025">
        <ele>427.0</ele>
        <time>2021-02-13T11:27:06Z</time>
      </trkpt>
      <trkpt lat="38.896057" lon="-5.7318177">
        <ele>427.0</ele>
        <time>2021-02-13T11:27:07Z</time>
      </trkpt>
      <trkpt lat="38.89608" lon="-5.7318335">
        <ele>427.0</ele>
        <time>2021-02-13T11:27:08Z</time>
      </trkpt>
      <trkpt lat="38.8961" lon="-5.73185">
        <ele>427.0</ele>
        <time>2021-02-13T11:27:09Z</time>
      </trkpt>
      <trkpt lat="38.896122" lon="-5.7318654">
        <ele>428.0</ele>
        <time>2021-02-13T11:27:10Z</time>
      </trkpt>
      <trkpt lat="38.896145" lon="-5.73188">
        <ele>428.0</ele>
        <time>2021-02-13T11:27:11Z</time>
      </trkpt>
      <trkpt lat="38.896168" lon="-5.731895">
        <ele>428.0</ele>
        <time>2021-02-13T11:27:12Z</time>
      </trkpt>
      <trkpt lat="38.89619" lon="-5.731911">
        <ele>428.0</ele>
        <time>2021-02-13T11:27:13Z</time>
      </trkpt>
      <trkpt lat="38.896214" lon="-5.731926">
        <ele>429.0</ele>
        <time>2021-02-13T11:27:14Z</time>
      </trkpt>
      <trkpt lat="38.896236" lon="-5.731941">
        <ele>429.0</ele>
        <time>2021-02-13T11:27:15Z</time>
      </trkpt>
      <trkpt lat="38.89626" lon="-5.7319565">
        <ele>429.0</ele>
        <time>2021-02-13T11:27:16Z</time>
      </trkpt>
      <trkpt lat="38.896282" lon="-5.731973">
        <ele>429.0</ele>
        <time>2021-02-13T11:27:17Z</time>
      </trkpt>
      <trkpt lat="38.8963" lon="-5.731991">
        <ele>430.0</ele>
        <time>2021-02-13T11:27:18Z</time>
      </trkpt>
      <trkpt lat="38.896324" lon="-5.732009">
        <ele>430.0</ele>
        <time>2021-02-13T11:27:19Z</time>
      </trkpt>
      <trkpt lat="38.896347" lon="-5.732027">
        <ele>430.0</ele>
        <time>2021-02-13T11:27:20Z</time>
      </trkpt>
      <trkpt lat="38.89637" lon="-5.7320447">
        <ele>430.0</ele>
        <time>2021-02-13T11:27:21Z</time>
      </trkpt>
      <trkpt lat="38.89639" lon="-5.732062">
        <ele>430.0</ele>
        <time>2021-02-13T11:27:22Z</time>
      </trkpt>
      <trkpt lat="38.896408" lon="-5.7320795">
        <ele>430.0</ele>
        <time>2021-02-13T11:27:23Z</time>
      </trkpt>
      <trkpt lat="38.89643" lon="-5.7320967">
        <ele>430.0</ele>
        <time>2021-02-13T11:27:24Z</time>
      </trkpt>
      <trkpt lat="38.896454" lon="-5.7321157">
        <ele>430.0</ele>
        <time>2021-02-13T11:27:25Z</time>
      </trkpt>
      <trkpt lat="38.896477" lon="-5.732136">
        <ele>430.0</ele>
        <time>2021-02-13T11:27:26Z</time>
      </trkpt>
      <trkpt lat="38.896496" lon="-5.7321563">
        <ele>431.0</ele>
        <time>2021-02-13T11:27:27Z</time>
      </trkpt>
      <trkpt lat="38.89652" lon="-5.7321773">
        <ele>431.0</ele>
        <time>2021-02-13T11:27:28Z</time>
      </trkpt>
      <trkpt lat="38.89654" lon="-5.732199">
        <ele>431.0</ele>
        <time>2021-02-13T11:27:29Z</time>
      </trkpt>
      <trkpt lat="38.896557" lon="-5.73222">
        <ele>431.0</ele>
        <time>2021-02-13T11:27:30Z</time>
      </trkpt>
      <trkpt lat="38.896576" lon="-5.7322407">
        <ele>432.0</ele>
        <time>2021-02-13T11:27:31Z</time>
      </trkpt>
      <trkpt lat="38.896595" lon="-5.7322607">
        <ele>432.0</ele>
        <time>2021-02-13T11:27:32Z</time>
      </trkpt>
      <trkpt lat="38.89661" lon="-5.732283">
        <ele>432.0</ele>
        <time>2021-02-13T11:27:33Z</time>
      </trkpt>
      <trkpt lat="38.896626" lon="-5.7323074">
        <ele>432.0</ele>
        <time>2021-02-13T11:27:34Z</time>
      </trkpt>
      <trkpt lat="38.89664" lon="-5.7323303">
        <ele>433.0</ele>
        <time>2021-02-13T11:27:35Z</time>
      </trkpt>
      <trkpt lat="38.896656" lon="-5.7323513">
        <ele>433.0</ele>
        <time>2021-02-13T11:27:36Z</time>
      </trkpt>
      <trkpt lat="38.896675" lon="-5.7323737">
        <ele>433.0</ele>
        <time>2021-02-13T11:27:37Z</time>
      </trkpt>
      <trkpt lat="38.89669" lon="-5.7323923">
        <ele>433.0</ele>
        <time>2021-02-13T11:27:38Z</time>
      </trkpt>
      <trkpt lat="38.89671" lon="-5.7324104">
        <ele>434.0</ele>
        <time>2021-02-13T11:27:39Z</time>
      </trkpt>
      <trkpt lat="38.89673" lon="-5.7324266">
        <ele>434.0</ele>
        <time>2021-02-13T11:27:40Z</time>
      </trkpt>
      <trkpt lat="38.896744" lon="-5.732447">
        <ele>434.0</ele>
        <time>2021-02-13T11:27:41Z</time>
      </trkpt>
      <trkpt lat="38.89676" lon="-5.732469">
        <ele>434.0</ele>
        <time>2021-02-13T11:27:42Z</time>
      </trkpt>
      <trkpt lat="38.89678" lon="-5.732494">
        <ele>435.0</ele>
        <time>2021-02-13T11:27:43Z</time>
      </trkpt>
      <trkpt lat="38.896793" lon="-5.732519">
        <ele>435.0</ele>
        <time>2021-02-13T11:27:44Z</time>
      </trkpt>
      <trkpt lat="38.896812" lon="-5.7325454">
        <ele>435.0</ele>
        <time>2021-02-13T11:27:45Z</time>
      </trkpt>
      <trkpt lat="38.896828" lon="-5.7325706">
        <ele>435.0</ele>
        <time>2021-02-13T11:27:46Z</time>
      </trkpt>
      <trkpt lat="38.896843" lon="-5.732596">
        <ele>436.0</ele>
        <time>2021-02-13T11:27:47Z</time>
      </trkpt>
      <trkpt lat="38.896866" lon="-5.7326202">
        <ele>436.0</ele>
        <time>2021-02-13T11:27:48Z</time>
      </trkpt>
      <trkpt lat="38.896885" lon="-5.7326446">
        <ele>436.0</ele>
        <time>2021-02-13T11:27:49Z</time>
      </trkpt>
      <trkpt lat="38.8969" lon="-5.732669">
        <ele>436.0</ele>
        <time>2021-02-13T11:27:50Z</time>
      </trkpt>
      <trkpt lat="38.896915" lon="-5.732693">
        <ele>436.0</ele>
        <time>2021-02-13T11:27:51Z</time>
      </trkpt>
      <trkpt lat="38.89693" lon="-5.732718">
        <ele>437.0</ele>
        <time>2021-02-13T11:27:52Z</time>
      </trkpt>
      <trkpt lat="38.89695" lon="-5.7327423">
        <ele>437.0</ele>
        <time>2021-02-13T11:27:53Z</time>
      </trkpt>
      <trkpt lat="38.89697" lon="-5.7327647">
        <ele>437.0</ele>
        <time>2021-02-13T11:27:54Z</time>
      </trkpt>
      <trkpt lat="38.896984" lon="-5.7327886">
        <ele>437.0</ele>
        <time>2021-02-13T11:27:55Z</time>
      </trkpt>
      <trkpt lat="38.897" lon="-5.7328115">
        <ele>437.0</ele>
        <time>2021-02-13T11:27:56Z</time>
      </trkpt>
      <trkpt lat="38.897015" lon="-5.7328353">
        <ele>437.0</ele>
        <time>2021-02-13T11:27:57Z</time>
      </trkpt>
      <trkpt lat="38.897034" lon="-5.732858">
        <ele>437.0</ele>
        <time>2021-02-13T11:27:58Z</time>
      </trkpt>
      <trkpt lat="38.89705" lon="-5.7328825">
        <ele>437.0</ele>
        <time>2021-02-13T11:27:59Z</time>
      </trkpt>
      <trkpt lat="38.897064" lon="-5.732907">
        <ele>437.0</ele>
        <time>2021-02-13T11:28:00Z</time>
      </trkpt>
      <trkpt lat="38.89708" lon="-5.7329316">
        <ele>437.0</ele>
        <time>2021-02-13T11:28:01Z</time>
      </trkpt>
      <trkpt lat="38.897095" lon="-5.7329574">
        <ele>438.0</ele>
        <time>2021-02-13T11:28:02Z</time>
      </trkpt>
      <trkpt lat="38.897106" lon="-5.7329836">
        <ele>438.0</ele>
        <time>2021-02-13T11:28:03Z</time>
      </trkpt>
      <trkpt lat="38.89712" lon="-5.733009">
        <ele>438.0</ele>
        <time>2021-02-13T11:28:04Z</time>
      </trkpt>
      <trkpt lat="38.897133" lon="-5.733032">
        <ele>438.0</ele>
        <time>2021-02-13T11:28:05Z</time>
      </trkpt>
      <trkpt lat="38.89715" lon="-5.733056">
        <ele>439.0</ele>
        <time>2021-02-13T11:28:06Z</time>
      </trkpt>
      <trkpt lat="38.897163" lon="-5.73308">
        <ele>439.0</ele>
        <time>2021-02-13T11:28:07Z</time>
      </trkpt>
      <trkpt lat="38.89717" lon="-5.733103">
        <ele>439.0</ele>
        <time>2021-02-13T11:28:08Z</time>
      </trkpt>
      <trkpt lat="38.897186" lon="-5.7331243">
        <ele>439.0</ele>
        <time>2021-02-13T11:28:09Z</time>
      </trkpt>
      <trkpt lat="38.897194" lon="-5.733146">
        <ele>439.0</ele>
        <time>2021-02-13T11:28:10Z</time>
      </trkpt>
      <trkpt lat="38.897205" lon="-5.7331686">
        <ele>440.0</ele>
        <time>2021-02-13T11:28:11Z</time>
      </trkpt>
      <trkpt lat="38.897217" lon="-5.7331915">
        <ele>440.0</ele>
        <time>2021-02-13T11:28:12Z</time>
      </trkpt>
      <trkpt lat="38.89723" lon="-5.733215">
        <ele>440.0</ele>
        <time>2021-02-13T11:28:13Z</time>
      </trkpt>
      <trkpt lat="38.89724" lon="-5.7332373">
        <ele>440.0</ele>
        <time>2021-02-13T11:28:14Z</time>
      </trkpt>
      <trkpt lat="38.89725" lon="-5.7332597">
        <ele>440.0</ele>
        <time>2021-02-13T11:28:15Z</time>
      </trkpt>
      <trkpt lat="38.897263" lon="-5.733281">
        <ele>441.0</ele>
        <time>2021-02-13T11:28:16Z</time>
      </trkpt>
      <trkpt lat="38.897274" lon="-5.733303">
        <ele>441.0</ele>
        <time>2021-02-13T11:28:17Z</time>
      </trkpt>
      <trkpt lat="38.89728" lon="-5.733325">
        <ele>441.0</ele>
        <time>2021-02-13T11:28:18Z</time>
      </trkpt>
      <trkpt lat="38.897297" lon="-5.7333474">
        <ele>441.0</ele>
        <time>2021-02-13T11:28:19Z</time>
      </trkpt>
      <trkpt lat="38.89731" lon="-5.73337">
        <ele>441.0</ele>
        <time>2021-02-13T11:28:20Z</time>
      </trkpt>
      <trkpt lat="38.89732" lon="-5.733392">
        <ele>442.0</ele>
        <time>2021-02-13T11:28:21Z</time>
      </trkpt>
      <trkpt lat="38.897335" lon="-5.733415">
        <ele>442.0</ele>
        <time>2021-02-13T11:28:22Z</time>
      </trkpt>
      <trkpt lat="38.897346" lon="-5.7334375">
        <ele>442.0</ele>
        <time>2021-02-13T11:28:23Z</time>
      </trkpt>
      <trkpt lat="38.897358" lon="-5.733459">
        <ele>442.0</ele>
        <time>2021-02-13T11:28:24Z</time>
      </trkpt>
      <trkpt lat="38.89737" lon="-5.7334814">
        <ele>442.0</ele>
        <time>2021-02-13T11:28:25Z</time>
      </trkpt>
      <trkpt lat="38.89738" lon="-5.733503">
        <ele>443.0</ele>
        <time>2021-02-13T11:28:26Z</time>
      </trkpt>
      <trkpt lat="38.89739" lon="-5.7335253">
        <ele>443.0</ele>
        <time>2021-02-13T11:28:27Z</time>
      </trkpt>
      <trkpt lat="38.8974" lon="-5.733548">
        <ele>443.0</ele>
        <time>2021-02-13T11:28:28Z</time>
      </trkpt>
      <trkpt lat="38.897408" lon="-5.733571">
        <ele>443.0</ele>
        <time>2021-02-13T11:28:29Z</time>
      </trkpt>
      <trkpt lat="38.89742" lon="-5.733595">
        <ele>443.0</ele>
        <time>2021-02-13T11:28:30Z</time>
      </trkpt>
      <trkpt lat="38.89743" lon="-5.733621">
        <ele>443.0</ele>
        <time>2021-02-13T11:28:31Z</time>
      </trkpt>
      <trkpt lat="38.897446" lon="-5.733646">
        <ele>443.0</ele>
        <time>2021-02-13T11:28:32Z</time>
      </trkpt>
      <trkpt lat="38.897453" lon="-5.733673">
        <ele>443.0</ele>
        <time>2021-02-13T11:28:33Z</time>
      </trkpt>
      <trkpt lat="38.89747" lon="-5.7336993">
        <ele>443.0</ele>
        <time>2021-02-13T11:28:34Z</time>
      </trkpt>
      <trkpt lat="38.89748" lon="-5.7337236">
        <ele>443.0</ele>
        <time>2021-02-13T11:28:35Z</time>
      </trkpt>
      <trkpt lat="38.89749" lon="-5.733749">
        <ele>443.0</ele>
        <time>2021-02-13T11:28:36Z</time>
      </trkpt>
      <trkpt lat="38.8975" lon="-5.733775">
        <ele>443.0</ele>
        <time>2021-02-13T11:28:37Z</time>
      </trkpt>
      <trkpt lat="38.897507" lon="-5.7338023">
        <ele>444.0</ele>
        <time>2021-02-13T11:28:38Z</time>
      </trkpt>
      <trkpt lat="38.897514" lon="-5.7338285">
        <ele>444.0</ele>
        <time>2021-02-13T11:28:39Z</time>
      </trkpt>
      <trkpt lat="38.897522" lon="-5.7338533">
        <ele>444.0</ele>
        <time>2021-02-13T11:28:40Z</time>
      </trkpt>
      <trkpt lat="38.897533" lon="-5.7338777">
        <ele>444.0</ele>
        <time>2021-02-13T11:28:41Z</time>
      </trkpt>
      <trkpt lat="38.89754" lon="-5.7338996">
        <ele>444.0</ele>
        <time>2021-02-13T11:28:42Z</time>
      </trkpt>
      <trkpt lat="38.897552" lon="-5.7339225">
        <ele>444.0</ele>
        <time>2021-02-13T11:28:43Z</time>
      </trkpt>
      <trkpt lat="38.89756" lon="-5.733947">
        <ele>444.0</ele>
        <time>2021-02-13T11:28:44Z</time>
      </trkpt>
      <trkpt lat="38.897575" lon="-5.733973">
        <ele>444.0</ele>
        <time>2021-02-13T11:28:45Z</time>
      </trkpt>
      <trkpt lat="38.897583" lon="-5.7340007">
        <ele>445.0</ele>
        <time>2021-02-13T11:28:46Z</time>
      </trkpt>
      <trkpt lat="38.897594" lon="-5.734029">
        <ele>445.0</ele>
        <time>2021-02-13T11:28:47Z</time>
      </trkpt>
      <trkpt lat="38.897606" lon="-5.7340565">
        <ele>445.0</ele>
        <time>2021-02-13T11:28:48Z</time>
      </trkpt>
      <trkpt lat="38.897614" lon="-5.7340837">
        <ele>445.0</ele>
        <time>2021-02-13T11:28:49Z</time>
      </trkpt>
      <trkpt lat="38.897625" lon="-5.73411">
        <ele>445.0</ele>
        <time>2021-02-13T11:28:50Z</time>
      </trkpt>
      <trkpt lat="38.897636" lon="-5.734137">
        <ele>445.0</ele>
        <time>2021-02-13T11:28:51Z</time>
      </trkpt>
      <trkpt lat="38.897648" lon="-5.7341647">
        <ele>445.0</ele>
        <time>2021-02-13T11:28:52Z</time>
      </trkpt>
      <trkpt lat="38.897655" lon="-5.734193">
        <ele>446.0</ele>
        <time>2021-02-13T11:28:53Z</time>
      </trkpt>
      <trkpt lat="38.897663" lon="-5.734218">
        <ele>446.0</ele>
        <time>2021-02-13T11:28:54Z</time>
      </trkpt>
      <trkpt lat="38.897675" lon="-5.734246">
        <ele>446.0</ele>
        <time>2021-02-13T11:28:55Z</time>
      </trkpt>
      <trkpt lat="38.897686" lon="-5.7342744">
        <ele>446.0</ele>
        <time>2021-02-13T11:28:56Z</time>
      </trkpt>
      <trkpt lat="38.897694" lon="-5.7343025">
        <ele>446.0</ele>
        <time>2021-02-13T11:28:57Z</time>
      </trkpt>
      <trkpt lat="38.897705" lon="-5.7343307">
        <ele>446.0</ele>
        <time>2021-02-13T11:28:58Z</time>
      </trkpt>
      <trkpt lat="38.897717" lon="-5.7343593">
        <ele>447.0</ele>
        <time>2021-02-13T11:28:59Z</time>
      </trkpt>
      <trkpt lat="38.897724" lon="-5.7343864">
        <ele>447.0</ele>
        <time>2021-02-13T11:29:00Z</time>
      </trkpt>
      <trkpt lat="38.89773" lon="-5.7344136">
        <ele>447.0</ele>
        <time>2021-02-13T11:29:01Z</time>
      </trkpt>
      <trkpt lat="38.897743" lon="-5.734442">
        <ele>447.0</ele>
        <time>2021-02-13T11:29:02Z</time>
      </trkpt>
      <trkpt lat="38.897755" lon="-5.734471">
        <ele>447.0</ele>
        <time>2021-02-13T11:29:03Z</time>
      </trkpt>
      <trkpt lat="38.897762" lon="-5.7345">
        <ele>447.0</ele>
        <time>2021-02-13T11:29:04Z</time>
      </trkpt>
      <trkpt lat="38.897778" lon="-5.7345285">
        <ele>447.0</ele>
        <time>2021-02-13T11:29:05Z</time>
      </trkpt>
      <trkpt lat="38.897785" lon="-5.7345567">
        <ele>448.0</ele>
        <time>2021-02-13T11:29:06Z</time>
      </trkpt>
      <trkpt lat="38.897797" lon="-5.7345862">
        <ele>448.0</ele>
        <time>2021-02-13T11:29:07Z</time>
      </trkpt>
      <trkpt lat="38.897808" lon="-5.7346144">
        <ele>448.0</ele>
        <time>2021-02-13T11:29:08Z</time>
      </trkpt>
      <trkpt lat="38.897816" lon="-5.734644">
        <ele>448.0</ele>
        <time>2021-02-13T11:29:09Z</time>
      </trkpt>
      <trkpt lat="38.897827" lon="-5.7346735">
        <ele>448.0</ele>
        <time>2021-02-13T11:29:10Z</time>
      </trkpt>
      <trkpt lat="38.89784" lon="-5.7347016">
        <ele>448.0</ele>
        <time>2021-02-13T11:29:11Z</time>
      </trkpt>
      <trkpt lat="38.89785" lon="-5.7347283">
        <ele>448.0</ele>
        <time>2021-02-13T11:29:12Z</time>
      </trkpt>
      <trkpt lat="38.897858" lon="-5.7347546">
        <ele>449.0</ele>
        <time>2021-02-13T11:29:13Z</time>
      </trkpt>
      <trkpt lat="38.897865" lon="-5.7347803">
        <ele>449.0</ele>
        <time>2021-02-13T11:29:14Z</time>
      </trkpt>
      <trkpt lat="38.897877" lon="-5.7348056">
        <ele>449.0</ele>
        <time>2021-02-13T11:29:15Z</time>
      </trkpt>
      <trkpt lat="38.89789" lon="-5.7348313">
        <ele>449.0</ele>
        <time>2021-02-13T11:29:16Z</time>
      </trkpt>
      <trkpt lat="38.8979" lon="-5.7348576">
        <ele>449.0</ele>
        <time>2021-02-13T11:29:17Z</time>
      </trkpt>
      <trkpt lat="38.89791" lon="-5.734884">
        <ele>450.0</ele>
        <time>2021-02-13T11:29:18Z</time>
      </trkpt>
      <trkpt lat="38.89792" lon="-5.7349114">
        <ele>450.0</ele>
        <time>2021-02-13T11:29:19Z</time>
      </trkpt>
      <trkpt lat="38.897926" lon="-5.734938">
        <ele>450.0</ele>
        <time>2021-02-13T11:29:19Z</time>
      </trkpt>
      <trkpt lat="38.897938" lon="-5.734967">
        <ele>450.0</ele>
        <time>2021-02-13T11:29:21Z</time>
      </trkpt>
      <trkpt lat="38.897945" lon="-5.7349963">
        <ele>450.0</ele>
        <time>2021-02-13T11:29:22Z</time>
      </trkpt>
      <trkpt lat="38.897957" lon="-5.7350264">
        <ele>450.0</ele>
        <time>2021-02-13T11:29:23Z</time>
      </trkpt>
      <trkpt lat="38.897964" lon="-5.735057">
        <ele>450.0</ele>
        <time>2021-02-13T11:29:24Z</time>
      </trkpt>
      <trkpt lat="38.897972" lon="-5.735085">
        <ele>450.0</ele>
        <time>2021-02-13T11:29:25Z</time>
      </trkpt>
      <trkpt lat="38.89798" lon="-5.735114">
        <ele>450.0</ele>
        <time>2021-02-13T11:29:26Z</time>
      </trkpt>
      <trkpt lat="38.897987" lon="-5.735143">
        <ele>450.0</ele>
        <time>2021-02-13T11:29:27Z</time>
      </trkpt>
      <trkpt lat="38.897995" lon="-5.7351723">
        <ele>450.0</ele>
        <time>2021-02-13T11:29:28Z</time>
      </trkpt>
      <trkpt lat="38.898003" lon="-5.7352014">
        <ele>451.0</ele>
        <time>2021-02-13T11:29:29Z</time>
      </trkpt>
      <trkpt lat="38.89801" lon="-5.7352295">
        <ele>451.0</ele>
        <time>2021-02-13T11:29:30Z</time>
      </trkpt>
      <trkpt lat="38.898018" lon="-5.7352552">
        <ele>451.0</ele>
        <time>2021-02-13T11:29:31Z</time>
      </trkpt>
      <trkpt lat="38.89802" lon="-5.7352843">
        <ele>451.0</ele>
        <time>2021-02-13T11:29:32Z</time>
      </trkpt>
      <trkpt lat="38.89803" lon="-5.735316">
        <ele>451.0</ele>
        <time>2021-02-13T11:29:33Z</time>
      </trkpt>
      <trkpt lat="38.898037" lon="-5.7353454">
        <ele>451.0</ele>
        <time>2021-02-13T11:29:34Z</time>
      </trkpt>
      <trkpt lat="38.898045" lon="-5.735375">
        <ele>452.0</ele>
        <time>2021-02-13T11:29:35Z</time>
      </trkpt>
      <trkpt lat="38.898052" lon="-5.7354035">
        <ele>452.0</ele>
        <time>2021-02-13T11:29:36Z</time>
      </trkpt>
      <trkpt lat="38.89806" lon="-5.735432">
        <ele>452.0</ele>
        <time>2021-02-13T11:29:37Z</time>
      </trkpt>
      <trkpt lat="38.898067" lon="-5.735461">
        <ele>452.0</ele>
        <time>2021-02-13T11:29:38Z</time>
      </trkpt>
      <trkpt lat="38.89807" lon="-5.7354875">
        <ele>452.0</ele>
        <time>2021-02-13T11:29:39Z</time>
      </trkpt>
      <trkpt lat="38.89808" lon="-5.7355137">
        <ele>453.0</ele>
        <time>2021-02-13T11:29:40Z</time>
      </trkpt>
      <trkpt lat="38.898087" lon="-5.7355404">
        <ele>453.0</ele>
        <time>2021-02-13T11:29:41Z</time>
      </trkpt>
      <trkpt lat="38.89809" lon="-5.7355647">
        <ele>453.0</ele>
        <time>2021-02-13T11:29:42Z</time>
      </trkpt>
      <trkpt lat="38.898098" lon="-5.735591">
        <ele>453.0</ele>
        <time>2021-02-13T11:29:43Z</time>
      </trkpt>
      <trkpt lat="38.898106" lon="-5.7356186">
        <ele>453.0</ele>
        <time>2021-02-13T11:29:44Z</time>
      </trkpt>
      <trkpt lat="38.89811" lon="-5.735647">
        <ele>454.0</ele>
        <time>2021-02-13T11:29:45Z</time>
      </trkpt>
      <trkpt lat="38.898113" lon="-5.7356763">
        <ele>454.0</ele>
        <time>2021-02-13T11:29:46Z</time>
      </trkpt>
      <trkpt lat="38.89812" lon="-5.7357044">
        <ele>454.0</ele>
        <time>2021-02-13T11:29:47Z</time>
      </trkpt>
      <trkpt lat="38.898125" lon="-5.7357316">
        <ele>454.0</ele>
        <time>2021-02-13T11:29:48Z</time>
      </trkpt>
      <trkpt lat="38.89813" lon="-5.735759">
        <ele>454.0</ele>
        <time>2021-02-13T11:29:49Z</time>
      </trkpt>
      <trkpt lat="38.898136" lon="-5.7357855">
        <ele>455.0</ele>
        <time>2021-02-13T11:29:50Z</time>
      </trkpt>
      <trkpt lat="38.89814" lon="-5.735815">
        <ele>455.0</ele>
        <time>2021-02-13T11:29:51Z</time>
      </trkpt>
      <trkpt lat="38.898144" lon="-5.735843">
        <ele>455.0</ele>
        <time>2021-02-13T11:29:52Z</time>
      </trkpt>
      <trkpt lat="38.89815" lon="-5.7358694">
        <ele>455.0</ele>
        <time>2021-02-13T11:29:52Z</time>
      </trkpt>
      <trkpt lat="38.898155" lon="-5.735899">
        <ele>455.0</ele>
        <time>2021-02-13T11:29:54Z</time>
      </trkpt>
      <trkpt lat="38.89816" lon="-5.7359257">
        <ele>456.0</ele>
        <time>2021-02-13T11:29:55Z</time>
      </trkpt>
      <trkpt lat="38.898167" lon="-5.735952">
        <ele>456.0</ele>
        <time>2021-02-13T11:29:56Z</time>
      </trkpt>
      <trkpt lat="38.89817" lon="-5.73598">
        <ele>456.0</ele>
        <time>2021-02-13T11:29:57Z</time>
      </trkpt>
      <trkpt lat="38.898174" lon="-5.736007">
        <ele>456.0</ele>
        <time>2021-02-13T11:29:58Z</time>
      </trkpt>
      <trkpt lat="38.89818" lon="-5.7360363">
        <ele>456.0</ele>
        <time>2021-02-13T11:29:59Z</time>
      </trkpt>
      <trkpt lat="38.898182" lon="-5.736069">
        <ele>456.0</ele>
        <time>2021-02-13T11:30:00Z</time>
      </trkpt>
      <trkpt lat="38.89819" lon="-5.7361064">
        <ele>456.0</ele>
        <time>2021-02-13T11:30:01Z</time>
      </trkpt>
      <trkpt lat="38.898197" lon="-5.736141">
        <ele>456.0</ele>
        <time>2021-02-13T11:30:02Z</time>
      </trkpt>
      <trkpt lat="38.8982" lon="-5.7361784">
        <ele>456.0</ele>
        <time>2021-02-13T11:30:03Z</time>
      </trkpt>
      <trkpt lat="38.898205" lon="-5.736217">
        <ele>456.0</ele>
        <time>2021-02-13T11:30:04Z</time>
      </trkpt>
      <trkpt lat="38.89821" lon="-5.7362547">
        <ele>457.0</ele>
        <time>2021-02-13T11:30:05Z</time>
      </trkpt>
      <trkpt lat="38.898212" lon="-5.7362885">
        <ele>457.0</ele>
        <time>2021-02-13T11:30:06Z</time>
      </trkpt>
      <trkpt lat="38.898216" lon="-5.7363234">
        <ele>457.0</ele>
        <time>2021-02-13T11:30:07Z</time>
      </trkpt>
      <trkpt lat="38.898216" lon="-5.7363553">
        <ele>457.0</ele>
        <time>2021-02-13T11:30:08Z</time>
      </trkpt>
      <trkpt lat="38.898216" lon="-5.7363853">
        <ele>458.0</ele>
        <time>2021-02-13T11:30:09Z</time>
      </trkpt>
      <trkpt lat="38.89822" lon="-5.736414">
        <ele>458.0</ele>
        <time>2021-02-13T11:30:10Z</time>
      </trkpt>
      <trkpt lat="38.898224" lon="-5.736443">
        <ele>458.0</ele>
        <time>2021-02-13T11:30:11Z</time>
      </trkpt>
      <trkpt lat="38.89823" lon="-5.7364736">
        <ele>458.0</ele>
        <time>2021-02-13T11:30:12Z</time>
      </trkpt>
      <trkpt lat="38.89823" lon="-5.7365055">
        <ele>459.0</ele>
        <time>2021-02-13T11:30:13Z</time>
      </trkpt>
      <trkpt lat="38.89824" lon="-5.7365365">
        <ele>459.0</ele>
        <time>2021-02-13T11:30:14Z</time>
      </trkpt>
      <trkpt lat="38.89824" lon="-5.736567">
        <ele>459.0</ele>
        <time>2021-02-13T11:30:15Z</time>
      </trkpt>
      <trkpt lat="38.898247" lon="-5.7366004">
        <ele>459.0</ele>
        <time>2021-02-13T11:30:16Z</time>
      </trkpt>
      <trkpt lat="38.898247" lon="-5.7366357">
        <ele>459.0</ele>
        <time>2021-02-13T11:30:17Z</time>
      </trkpt>
      <trkpt lat="38.898254" lon="-5.7366734">
        <ele>460.0</ele>
        <time>2021-02-13T11:30:18Z</time>
      </trkpt>
      <trkpt lat="38.89826" lon="-5.736709">
        <ele>460.0</ele>
        <time>2021-02-13T11:30:19Z</time>
      </trkpt>
      <trkpt lat="38.898262" lon="-5.736743">
        <ele>460.0</ele>
        <time>2021-02-13T11:30:20Z</time>
      </trkpt>
      <trkpt lat="38.898262" lon="-5.73678">
        <ele>460.0</ele>
        <time>2021-02-13T11:30:20Z</time>
      </trkpt>
      <trkpt lat="38.898266" lon="-5.7368174">
        <ele>460.0</ele>
        <time>2021-02-13T11:30:21Z</time>
      </trkpt>
      <trkpt lat="38.89827" lon="-5.736853">
        <ele>461.0</ele>
        <time>2021-02-13T11:30:22Z</time>
      </trkpt>
      <trkpt lat="38.898273" lon="-5.7368894">
        <ele>461.0</ele>
        <time>2021-02-13T11:30:23Z</time>
      </trkpt>
      <trkpt lat="38.898277" lon="-5.7369256">
        <ele>461.0</ele>
        <time>2021-02-13T11:30:24Z</time>
      </trkpt>
      <trkpt lat="38.898277" lon="-5.7369614">
        <ele>461.0</ele>
        <time>2021-02-13T11:30:25Z</time>
      </trkpt>
      <trkpt lat="38.89828" lon="-5.736994">
        <ele>461.0</ele>
        <time>2021-02-13T11:30:26Z</time>
      </trkpt>
      <trkpt lat="38.898285" lon="-5.7370267">
        <ele>461.0</ele>
        <time>2021-02-13T11:30:27Z</time>
      </trkpt>
      <trkpt lat="38.898285" lon="-5.737057">
        <ele>461.0</ele>
        <time>2021-02-13T11:30:28Z</time>
      </trkpt>
      <trkpt lat="38.898285" lon="-5.737087">
        <ele>461.0</ele>
        <time>2021-02-13T11:30:29Z</time>
      </trkpt>
      <trkpt lat="38.89829" lon="-5.7371187">
        <ele>461.0</ele>
        <time>2021-02-13T11:30:30Z</time>
      </trkpt>
      <trkpt lat="38.89829" lon="-5.7371492">
        <ele>461.0</ele>
        <time>2021-02-13T11:30:31Z</time>
      </trkpt>
      <trkpt lat="38.898285" lon="-5.73718">
        <ele>462.0</ele>
        <time>2021-02-13T11:30:32Z</time>
      </trkpt>
      <trkpt lat="38.898285" lon="-5.7372117">
        <ele>462.0</ele>
        <time>2021-02-13T11:30:33Z</time>
      </trkpt>
      <trkpt lat="38.89829" lon="-5.737244">
        <ele>462.0</ele>
        <time>2021-02-13T11:30:34Z</time>
      </trkpt>
      <trkpt lat="38.898293" lon="-5.737279">
        <ele>462.0</ele>
        <time>2021-02-13T11:30:35Z</time>
      </trkpt>
      <trkpt lat="38.898296" lon="-5.737313">
        <ele>463.0</ele>
        <time>2021-02-13T11:30:36Z</time>
      </trkpt>
      <trkpt lat="38.8983" lon="-5.7373433">
        <ele>463.0</ele>
        <time>2021-02-13T11:30:37Z</time>
      </trkpt>
      <trkpt lat="38.898308" lon="-5.7373753">
        <ele>463.0</ele>
        <time>2021-02-13T11:30:38Z</time>
      </trkpt>
      <trkpt lat="38.898308" lon="-5.7374086">
        <ele>463.0</ele>
        <time>2021-02-13T11:30:39Z</time>
      </trkpt>
      <trkpt lat="38.898315" lon="-5.737443">
        <ele>464.0</ele>
        <time>2021-02-13T11:30:40Z</time>
      </trkpt>
      <trkpt lat="38.898315" lon="-5.737474">
        <ele>464.0</ele>
        <time>2021-02-13T11:30:41Z</time>
      </trkpt>
      <trkpt lat="38.89832" lon="-5.7375064">
        <ele>464.0</ele>
        <time>2021-02-13T11:30:42Z</time>
      </trkpt>
      <trkpt lat="38.898323" lon="-5.737541">
        <ele>464.0</ele>
        <time>2021-02-13T11:30:43Z</time>
      </trkpt>
      <trkpt lat="38.898323" lon="-5.737575">
        <ele>464.0</ele>
        <time>2021-02-13T11:30:44Z</time>
      </trkpt>
      <trkpt lat="38.898327" lon="-5.737607">
        <ele>465.0</ele>
        <time>2021-02-13T11:30:45Z</time>
      </trkpt>
      <trkpt lat="38.89833" lon="-5.737639">
        <ele>465.0</ele>
        <time>2021-02-13T11:30:46Z</time>
      </trkpt>
      <trkpt lat="38.89833" lon="-5.737671">
        <ele>465.0</ele>
        <time>2021-02-13T11:30:47Z</time>
      </trkpt>
      <trkpt lat="38.898335" lon="-5.7377048">
        <ele>465.0</ele>
        <time>2021-02-13T11:30:48Z</time>
      </trkpt>
      <trkpt lat="38.898335" lon="-5.737741">
        <ele>465.0</ele>
        <time>2021-02-13T11:30:49Z</time>
      </trkpt>
      <trkpt lat="38.898335" lon="-5.7377768">
        <ele>466.0</ele>
        <time>2021-02-13T11:30:50Z</time>
      </trkpt>
      <trkpt lat="38.89834" lon="-5.737813">
        <ele>466.0</ele>
        <time>2021-02-13T11:30:51Z</time>
      </trkpt>
      <trkpt lat="38.89834" lon="-5.7378497">
        <ele>466.0</ele>
        <time>2021-02-13T11:30:52Z</time>
      </trkpt>
      <trkpt lat="38.898342" lon="-5.737884">
        <ele>466.0</ele>
        <time>2021-02-13T11:30:53Z</time>
      </trkpt>
      <trkpt lat="38.898346" lon="-5.7379174">
        <ele>466.0</ele>
        <time>2021-02-13T11:30:54Z</time>
      </trkpt>
      <trkpt lat="38.898346" lon="-5.737951">
        <ele>467.0</ele>
        <time>2021-02-13T11:30:55Z</time>
      </trkpt>
      <trkpt lat="38.898346" lon="-5.737987">
        <ele>467.0</ele>
        <time>2021-02-13T11:30:56Z</time>
      </trkpt>
      <trkpt lat="38.898346" lon="-5.7380223">
        <ele>467.0</ele>
        <time>2021-02-13T11:30:57Z</time>
      </trkpt>
      <trkpt lat="38.898346" lon="-5.7380576">
        <ele>467.0</ele>
        <time>2021-02-13T11:30:58Z</time>
      </trkpt>
      <trkpt lat="38.898354" lon="-5.738091">
        <ele>467.0</ele>
        <time>2021-02-13T11:30:59Z</time>
      </trkpt>
      <trkpt lat="38.898354" lon="-5.738123">
        <ele>467.0</ele>
        <time>2021-02-13T11:31:00Z</time>
      </trkpt>
      <trkpt lat="38.898357" lon="-5.7381587">
        <ele>467.0</ele>
        <time>2021-02-13T11:31:01Z</time>
      </trkpt>
      <trkpt lat="38.89836" lon="-5.738192">
        <ele>467.0</ele>
        <time>2021-02-13T11:31:02Z</time>
      </trkpt>
      <trkpt lat="38.89836" lon="-5.7382255">
        <ele>467.0</ele>
        <time>2021-02-13T11:31:03Z</time>
      </trkpt>
      <trkpt lat="38.89836" lon="-5.738258">
        <ele>467.0</ele>
        <time>2021-02-13T11:31:04Z</time>
      </trkpt>
      <trkpt lat="38.898365" lon="-5.7382913">
        <ele>468.0</ele>
        <time>2021-02-13T11:31:05Z</time>
      </trkpt>
      <trkpt lat="38.898365" lon="-5.7383275">
        <ele>468.0</ele>
        <time>2021-02-13T11:31:06Z</time>
      </trkpt>
      <trkpt lat="38.898365" lon="-5.738361">
        <ele>468.0</ele>
        <time>2021-02-13T11:31:07Z</time>
      </trkpt>
      <trkpt lat="38.89837" lon="-5.738396">
        <ele>468.0</ele>
        <time>2021-02-13T11:31:08Z</time>
      </trkpt>
      <trkpt lat="38.89837" lon="-5.738432">
        <ele>469.0</ele>
        <time>2021-02-13T11:31:09Z</time>
      </trkpt>
      <trkpt lat="38.89837" lon="-5.7384706">
        <ele>469.0</ele>
        <time>2021-02-13T11:31:10Z</time>
      </trkpt>
      <trkpt lat="38.89837" lon="-5.7385063">
        <ele>469.0</ele>
        <time>2021-02-13T11:31:11Z</time>
      </trkpt>
      <trkpt lat="38.898373" lon="-5.7385426">
        <ele>469.0</ele>
        <time>2021-02-13T11:31:12Z</time>
      </trkpt>
      <trkpt lat="38.898376" lon="-5.7385817">
        <ele>470.0</ele>
        <time>2021-02-13T11:31:13Z</time>
      </trkpt>
      <trkpt lat="38.89838" lon="-5.7386184">
        <ele>470.0</ele>
        <time>2021-02-13T11:31:14Z</time>
      </trkpt>
      <trkpt lat="38.898384" lon="-5.738652">
        <ele>470.0</ele>
        <time>2021-02-13T11:31:15Z</time>
      </trkpt>
      <trkpt lat="38.898384" lon="-5.738688">
        <ele>470.0</ele>
        <time>2021-02-13T11:31:16Z</time>
      </trkpt>
      <trkpt lat="38.898384" lon="-5.738722">
        <ele>470.0</ele>
        <time>2021-02-13T11:31:17Z</time>
      </trkpt>
      <trkpt lat="38.898384" lon="-5.738757">
        <ele>471.0</ele>
        <time>2021-02-13T11:31:18Z</time>
      </trkpt>
      <trkpt lat="38.898384" lon="-5.7387934">
        <ele>471.0</ele>
        <time>2021-02-13T11:31:19Z</time>
      </trkpt>
      <trkpt lat="38.89838" lon="-5.7388306">
        <ele>471.0</ele>
        <time>2021-02-13T11:31:20Z</time>
      </trkpt>
      <trkpt lat="38.898376" lon="-5.7388678">
        <ele>471.0</ele>
        <time>2021-02-13T11:31:21Z</time>
      </trkpt>
      <trkpt lat="38.898376" lon="-5.738903">
        <ele>471.0</ele>
        <time>2021-02-13T11:31:22Z</time>
      </trkpt>
      <trkpt lat="38.898376" lon="-5.7389383">
        <ele>472.0</ele>
        <time>2021-02-13T11:31:23Z</time>
      </trkpt>
      <trkpt lat="38.898376" lon="-5.7389736">
        <ele>472.0</ele>
        <time>2021-02-13T11:31:24Z</time>
      </trkpt>
      <trkpt lat="38.89838" lon="-5.739008">
        <ele>472.0</ele>
        <time>2021-02-13T11:31:25Z</time>
      </trkpt>
      <trkpt lat="38.898384" lon="-5.739041">
        <ele>472.0</ele>
        <time>2021-02-13T11:31:26Z</time>
      </trkpt>
      <trkpt lat="38.898384" lon="-5.7390738">
        <ele>472.0</ele>
        <time>2021-02-13T11:31:27Z</time>
      </trkpt>
      <trkpt lat="38.89839" lon="-5.7391047">
        <ele>472.0</ele>
        <time>2021-02-13T11:31:28Z</time>
      </trkpt>
      <trkpt lat="38.89839" lon="-5.739139">
        <ele>472.0</ele>
        <time>2021-02-13T11:31:28Z</time>
      </trkpt>
      <trkpt lat="38.8984" lon="-5.739174">
        <ele>472.0</ele>
        <time>2021-02-13T11:31:30Z</time>
      </trkpt>
      <trkpt lat="38.898403" lon="-5.739206">
        <ele>472.0</ele>
        <time>2021-02-13T11:31:31Z</time>
      </trkpt>
      <trkpt lat="38.898403" lon="-5.73924">
        <ele>473.0</ele>
        <time>2021-02-13T11:31:32Z</time>
      </trkpt>
      <trkpt lat="38.89841" lon="-5.7392755">
        <ele>473.0</ele>
        <time>2021-02-13T11:31:33Z</time>
      </trkpt>
      <trkpt lat="38.898415" lon="-5.739312">
        <ele>473.0</ele>
        <time>2021-02-13T11:31:34Z</time>
      </trkpt>
      <trkpt lat="38.898422" lon="-5.739347">
        <ele>473.0</ele>
        <time>2021-02-13T11:31:35Z</time>
      </trkpt>
      <trkpt lat="38.898426" lon="-5.739382">
        <ele>473.0</ele>
        <time>2021-02-13T11:31:36Z</time>
      </trkpt>
      <trkpt lat="38.898434" lon="-5.739415">
        <ele>474.0</ele>
        <time>2021-02-13T11:31:37Z</time>
      </trkpt>
      <trkpt lat="38.898438" lon="-5.7394485">
        <ele>474.0</ele>
        <time>2021-02-13T11:31:38Z</time>
      </trkpt>
      <trkpt lat="38.89844" lon="-5.739483">
        <ele>474.0</ele>
        <time>2021-02-13T11:31:39Z</time>
      </trkpt>
      <trkpt lat="38.89845" lon="-5.7395163">
        <ele>474.0</ele>
        <time>2021-02-13T11:31:40Z</time>
      </trkpt>
      <trkpt lat="38.898453" lon="-5.7395487">
        <ele>474.0</ele>
        <time>2021-02-13T11:31:40Z</time>
      </trkpt>
      <trkpt lat="38.898457" lon="-5.7395787">
        <ele>474.0</ele>
        <time>2021-02-13T11:31:42Z</time>
      </trkpt>
      <trkpt lat="38.898464" lon="-5.739608">
        <ele>475.0</ele>
        <time>2021-02-13T11:31:43Z</time>
      </trkpt>
      <trkpt lat="38.89847" lon="-5.7396364">
        <ele>475.0</ele>
        <time>2021-02-13T11:31:44Z</time>
      </trkpt>
      <trkpt lat="38.89848" lon="-5.7396665">
        <ele>475.0</ele>
        <time>2021-02-13T11:31:45Z</time>
      </trkpt>
      <trkpt lat="38.898487" lon="-5.7396984">
        <ele>475.0</ele>
        <time>2021-02-13T11:31:46Z</time>
      </trkpt>
      <trkpt lat="38.898495" lon="-5.739732">
        <ele>475.0</ele>
        <time>2021-02-13T11:31:47Z</time>
      </trkpt>
      <trkpt lat="38.898506" lon="-5.7397656">
        <ele>475.0</ele>
        <time>2021-02-13T11:31:48Z</time>
      </trkpt>
      <trkpt lat="38.898514" lon="-5.7397985">
        <ele>476.0</ele>
        <time>2021-02-13T11:31:49Z</time>
      </trkpt>
      <trkpt lat="38.898525" lon="-5.7398314">
        <ele>476.0</ele>
        <time>2021-02-13T11:31:50Z</time>
      </trkpt>
      <trkpt lat="38.898533" lon="-5.7398643">
        <ele>476.0</ele>
        <time>2021-02-13T11:31:51Z</time>
      </trkpt>
      <trkpt lat="38.89854" lon="-5.7398987">
        <ele>476.0</ele>
        <time>2021-02-13T11:31:52Z</time>
      </trkpt>
      <trkpt lat="38.898552" lon="-5.739932">
        <ele>476.0</ele>
        <time>2021-02-13T11:31:53Z</time>
      </trkpt>
      <trkpt lat="38.89856" lon="-5.739965">
        <ele>477.0</ele>
        <time>2021-02-13T11:31:54Z</time>
      </trkpt>
      <trkpt lat="38.89857" lon="-5.739997">
        <ele>477.0</ele>
        <time>2021-02-13T11:31:55Z</time>
      </trkpt>
      <trkpt lat="38.89858" lon="-5.7400293">
        <ele>477.0</ele>
        <time>2021-02-13T11:31:56Z</time>
      </trkpt>
      <trkpt lat="38.898586" lon="-5.7400613">
        <ele>477.0</ele>
        <time>2021-02-13T11:31:57Z</time>
      </trkpt>
      <trkpt lat="38.898598" lon="-5.740094">
        <ele>477.0</ele>
        <time>2021-02-13T11:31:58Z</time>
      </trkpt>
      <trkpt lat="38.898605" lon="-5.7401257">
        <ele>477.0</ele>
        <time>2021-02-13T11:31:59Z</time>
      </trkpt>
      <trkpt lat="38.898617" lon="-5.7401567">
        <ele>477.0</ele>
        <time>2021-02-13T11:32:00Z</time>
      </trkpt>
      <trkpt lat="38.89863" lon="-5.740188">
        <ele>477.0</ele>
        <time>2021-02-13T11:32:01Z</time>
      </trkpt>
      <trkpt lat="38.898636" lon="-5.7402215">
        <ele>477.0</ele>
        <time>2021-02-13T11:32:02Z</time>
      </trkpt>
      <trkpt lat="38.898647" lon="-5.7402554">
        <ele>477.0</ele>
        <time>2021-02-13T11:32:03Z</time>
      </trkpt>
      <trkpt lat="38.898655" lon="-5.740289">
        <ele>477.0</ele>
        <time>2021-02-13T11:32:04Z</time>
      </trkpt>
      <trkpt lat="38.898666" lon="-5.7403226">
        <ele>477.0</ele>
        <time>2021-02-13T11:32:05Z</time>
      </trkpt>
      <trkpt lat="38.898674" lon="-5.740356">
        <ele>478.0</ele>
        <time>2021-02-13T11:32:05Z</time>
      </trkpt>
      <trkpt lat="38.89869" lon="-5.7403893">
        <ele>478.0</ele>
        <time>2021-02-13T11:32:07Z</time>
      </trkpt>
      <trkpt lat="38.898697" lon="-5.740422">
        <ele>478.0</ele>
        <time>2021-02-13T11:32:08Z</time>
      </trkpt>
      <trkpt lat="38.89871" lon="-5.740455">
        <ele>478.0</ele>
        <time>2021-02-13T11:32:09Z</time>
      </trkpt>
      <trkpt lat="38.89872" lon="-5.740489">
        <ele>478.0</ele>
        <time>2021-02-13T11:32:09Z</time>
      </trkpt>
      <trkpt lat="38.898727" lon="-5.7405224">
        <ele>479.0</ele>
        <time>2021-02-13T11:32:11Z</time>
      </trkpt>
      <trkpt lat="38.898735" lon="-5.7405543">
        <ele>479.0</ele>
        <time>2021-02-13T11:32:11Z</time>
      </trkpt>
      <trkpt lat="38.898746" lon="-5.7405868">
        <ele>479.0</ele>
        <time>2021-02-13T11:32:13Z</time>
      </trkpt>
      <trkpt lat="38.898758" lon="-5.74062">
        <ele>479.0</ele>
        <time>2021-02-13T11:32:14Z</time>
      </trkpt>
      <trkpt lat="38.898766" lon="-5.740654">
        <ele>479.0</ele>
        <time>2021-02-13T11:32:15Z</time>
      </trkpt>
      <trkpt lat="38.898777" lon="-5.740687">
        <ele>479.0</ele>
        <time>2021-02-13T11:32:16Z</time>
      </trkpt>
      <trkpt lat="38.89879" lon="-5.740721">
        <ele>479.0</ele>
        <time>2021-02-13T11:32:17Z</time>
      </trkpt>
      <trkpt lat="38.8988" lon="-5.7407565">
        <ele>480.0</ele>
        <time>2021-02-13T11:32:18Z</time>
      </trkpt>
      <trkpt lat="38.89881" lon="-5.7407928">
        <ele>480.0</ele>
        <time>2021-02-13T11:32:19Z</time>
      </trkpt>
      <trkpt lat="38.898823" lon="-5.74083">
        <ele>480.0</ele>
        <time>2021-02-13T11:32:20Z</time>
      </trkpt>
      <trkpt lat="38.898834" lon="-5.740867">
        <ele>480.0</ele>
        <time>2021-02-13T11:32:21Z</time>
      </trkpt>
      <trkpt lat="38.898846" lon="-5.740905">
        <ele>480.0</ele>
        <time>2021-02-13T11:32:22Z</time>
      </trkpt>
      <trkpt lat="38.898857" lon="-5.740944">
        <ele>480.0</ele>
        <time>2021-02-13T11:32:23Z</time>
      </trkpt>
      <trkpt lat="38.89887" lon="-5.7409816">
        <ele>480.0</ele>
        <time>2021-02-13T11:32:24Z</time>
      </trkpt>
      <trkpt lat="38.898884" lon="-5.74102">
        <ele>480.0</ele>
        <time>2021-02-13T11:32:25Z</time>
      </trkpt>
      <trkpt lat="38.898895" lon="-5.7410603">
        <ele>480.0</ele>
        <time>2021-02-13T11:32:26Z</time>
      </trkpt>
      <trkpt lat="38.898907" lon="-5.741104">
        <ele>480.0</ele>
        <time>2021-02-13T11:32:27Z</time>
      </trkpt>
      <trkpt lat="38.89892" lon="-5.741149">
        <ele>480.0</ele>
        <time>2021-02-13T11:32:28Z</time>
      </trkpt>
      <trkpt lat="38.898933" lon="-5.7411947">
        <ele>480.0</ele>
        <time>2021-02-13T11:32:29Z</time>
      </trkpt>
      <trkpt lat="38.898945" lon="-5.741241">
        <ele>480.0</ele>
        <time>2021-02-13T11:32:30Z</time>
      </trkpt>
      <trkpt lat="38.89896" lon="-5.741286">
        <ele>480.0</ele>
        <time>2021-02-13T11:32:31Z</time>
      </trkpt>
      <trkpt lat="38.89897" lon="-5.7413306">
        <ele>480.0</ele>
        <time>2021-02-13T11:32:31Z</time>
      </trkpt>
      <trkpt lat="38.898987" lon="-5.7413754">
        <ele>480.0</ele>
        <time>2021-02-13T11:32:33Z</time>
      </trkpt>
      <trkpt lat="38.899" lon="-5.741421">
        <ele>480.0</ele>
        <time>2021-02-13T11:32:34Z</time>
      </trkpt>
      <trkpt lat="38.89901" lon="-5.741469">
        <ele>480.0</ele>
        <time>2021-02-13T11:32:35Z</time>
      </trkpt>
      <trkpt lat="38.899025" lon="-5.7415166">
        <ele>480.0</ele>
        <time>2021-02-13T11:32:36Z</time>
      </trkpt>
      <trkpt lat="38.899036" lon="-5.741565">
        <ele>480.0</ele>
        <time>2021-02-13T11:32:37Z</time>
      </trkpt>
      <trkpt lat="38.899048" lon="-5.741613">
        <ele>480.0</ele>
        <time>2021-02-13T11:32:38Z</time>
      </trkpt>
      <trkpt lat="38.899055" lon="-5.7416587">
        <ele>480.0</ele>
        <time>2021-02-13T11:32:39Z</time>
      </trkpt>
      <trkpt lat="38.899063" lon="-5.7417045">
        <ele>480.0</ele>
        <time>2021-02-13T11:32:40Z</time>
      </trkpt>
      <trkpt lat="38.89907" lon="-5.7417483">
        <ele>480.0</ele>
        <time>2021-02-13T11:32:41Z</time>
      </trkpt>
      <trkpt lat="38.89908" lon="-5.741791">
        <ele>480.0</ele>
        <time>2021-02-13T11:32:42Z</time>
      </trkpt>
      <trkpt lat="38.899082" lon="-5.7418284">
        <ele>480.0</ele>
        <time>2021-02-13T11:32:43Z</time>
      </trkpt>
      <trkpt lat="38.899082" lon="-5.741867">
        <ele>480.0</ele>
        <time>2021-02-13T11:32:44Z</time>
      </trkpt>
      <trkpt lat="38.899075" lon="-5.741898">
        <ele>480.0</ele>
        <time>2021-02-13T11:32:45Z</time>
      </trkpt>
      <trkpt lat="38.899063" lon="-5.7419214">
        <ele>481.0</ele>
        <time>2021-02-13T11:32:46Z</time>
      </trkpt>
      <trkpt lat="38.899048" lon="-5.741933">
        <ele>481.0</ele>
        <time>2021-02-13T11:32:47Z</time>
      </trkpt>
      <trkpt lat="38.899033" lon="-5.7419343">
        <ele>481.0</ele>
        <time>2021-02-13T11:32:48Z</time>
      </trkpt>
      <trkpt lat="38.899017" lon="-5.7419257">
        <ele>481.0</ele>
        <time>2021-02-13T11:32:49Z</time>
      </trkpt>
      <trkpt lat="38.899002" lon="-5.741912">
        <ele>481.0</ele>
        <time>2021-02-13T11:32:50Z</time>
      </trkpt>
      <trkpt lat="38.898987" lon="-5.7418942">
        <ele>481.0</ele>
        <time>2021-02-13T11:32:51Z</time>
      </trkpt>
      <trkpt lat="38.898968" lon="-5.741875">
        <ele>481.0</ele>
        <time>2021-02-13T11:32:52Z</time>
      </trkpt>
      <trkpt lat="38.898945" lon="-5.741851">
        <ele>481.0</ele>
        <time>2021-02-13T11:32:53Z</time>
      </trkpt>
      <trkpt lat="38.898926" lon="-5.741826">
        <ele>481.0</ele>
        <time>2021-02-13T11:32:54Z</time>
      </trkpt>
      <trkpt lat="38.898903" lon="-5.7418027">
        <ele>482.0</ele>
        <time>2021-02-13T11:32:55Z</time>
      </trkpt>
      <trkpt lat="38.898884" lon="-5.74178">
        <ele>482.0</ele>
        <time>2021-02-13T11:32:56Z</time>
      </trkpt>
      <trkpt lat="38.898865" lon="-5.741755">
        <ele>482.0</ele>
        <time>2021-02-13T11:32:57Z</time>
      </trkpt>
      <trkpt lat="38.898846" lon="-5.741727">
        <ele>482.0</ele>
        <time>2021-02-13T11:32:58Z</time>
      </trkpt>
      <trkpt lat="38.898823" lon="-5.7416987">
        <ele>482.0</ele>
        <time>2021-02-13T11:32:59Z</time>
      </trkpt>
      <trkpt lat="38.8988" lon="-5.7416687">
        <ele>483.0</ele>
        <time>2021-02-13T11:33:00Z</time>
      </trkpt>
      <trkpt lat="38.898777" lon="-5.74164">
        <ele>483.0</ele>
        <time>2021-02-13T11:33:01Z</time>
      </trkpt>
      <trkpt lat="38.89875" lon="-5.741611">
        <ele>483.0</ele>
        <time>2021-02-13T11:33:02Z</time>
      </trkpt>
      <trkpt lat="38.898727" lon="-5.741581">
        <ele>483.0</ele>
        <time>2021-02-13T11:33:03Z</time>
      </trkpt>
      <trkpt lat="38.898705" lon="-5.7415514">
        <ele>484.0</ele>
        <time>2021-02-13T11:33:04Z</time>
      </trkpt>
      <trkpt lat="38.898685" lon="-5.74152">
        <ele>484.0</ele>
        <time>2021-02-13T11:33:05Z</time>
      </trkpt>
      <trkpt lat="38.898666" lon="-5.74149">
        <ele>484.0</ele>
        <time>2021-02-13T11:33:05Z</time>
      </trkpt>
      <trkpt lat="38.898647" lon="-5.7414584">
        <ele>484.0</ele>
        <time>2021-02-13T11:33:07Z</time>
      </trkpt>
      <trkpt lat="38.89863" lon="-5.741426">
        <ele>484.0</ele>
        <time>2021-02-13T11:33:07Z</time>
      </trkpt>
      <trkpt lat="38.898605" lon="-5.741394">
        <ele>484.0</ele>
        <time>2021-02-13T11:33:09Z</time>
      </trkpt>
      <trkpt lat="38.89858" lon="-5.7413626">
        <ele>484.0</ele>
        <time>2021-02-13T11:33:09Z</time>
      </trkpt>
      <trkpt lat="38.898563" lon="-5.741331">
        <ele>485.0</ele>
        <time>2021-02-13T11:33:11Z</time>
      </trkpt>
      <trkpt lat="38.898544" lon="-5.7413006">
        <ele>485.0</ele>
        <time>2021-02-13T11:33:12Z</time>
      </trkpt>
      <trkpt lat="38.898525" lon="-5.7412724">
        <ele>485.0</ele>
        <time>2021-02-13T11:33:13Z</time>
      </trkpt>
      <trkpt lat="38.89851" lon="-5.741246">
        <ele>486.0</ele>
        <time>2021-02-13T11:33:14Z</time>
      </trkpt>
      <trkpt lat="38.89849" lon="-5.7412224">
        <ele>486.0</ele>
        <time>2021-02-13T11:33:15Z</time>
      </trkpt>
      <trkpt lat="38.89847" lon="-5.741196">
        <ele>486.0</ele>
        <time>2021-02-13T11:33:15Z</time>
      </trkpt>
      <trkpt lat="38.898457" lon="-5.7411666">
        <ele>487.0</ele>
        <time>2021-02-13T11:33:17Z</time>
      </trkpt>
      <trkpt lat="38.89844" lon="-5.7411375">
        <ele>487.0</ele>
        <time>2021-02-13T11:33:17Z</time>
      </trkpt>
      <trkpt lat="38.89842" lon="-5.741108">
        <ele>487.0</ele>
        <time>2021-02-13T11:33:19Z</time>
      </trkpt>
      <trkpt lat="38.898396" lon="-5.7410803">
        <ele>488.0</ele>
        <time>2021-02-13T11:33:20Z</time>
      </trkpt>
      <trkpt lat="38.898373" lon="-5.741054">
        <ele>488.0</ele>
        <time>2021-02-13T11:33:21Z</time>
      </trkpt>
      <trkpt lat="38.898346" lon="-5.7410297">
        <ele>488.0</ele>
        <time>2021-02-13T11:33:21Z</time>
      </trkpt>
      <trkpt lat="38.898323" lon="-5.7410054">
        <ele>489.0</ele>
        <time>2021-02-13T11:33:23Z</time>
      </trkpt>
      <trkpt lat="38.8983" lon="-5.740979">
        <ele>489.0</ele>
        <time>2021-02-13T11:33:24Z</time>
      </trkpt>
      <trkpt lat="38.898285" lon="-5.740953">
        <ele>489.0</ele>
        <time>2021-02-13T11:33:25Z</time>
      </trkpt>
      <trkpt lat="38.89827" lon="-5.7409253">
        <ele>490.0</ele>
        <time>2021-02-13T11:33:26Z</time>
      </trkpt>
      <trkpt lat="38.898254" lon="-5.740897">
        <ele>490.0</ele>
        <time>2021-02-13T11:33:27Z</time>
      </trkpt>
      <trkpt lat="38.898243" lon="-5.7408695">
        <ele>490.0</ele>
        <time>2021-02-13T11:33:28Z</time>
      </trkpt>
      <trkpt lat="38.898228" lon="-5.7408433">
        <ele>491.0</ele>
        <time>2021-02-13T11:33:29Z</time>
      </trkpt>
      <trkpt lat="38.89821" lon="-5.74082">
        <ele>491.0</ele>
        <time>2021-02-13T11:33:30Z</time>
      </trkpt>
      <trkpt lat="38.89819" lon="-5.740796">
        <ele>491.0</ele>
        <time>2021-02-13T11:33:31Z</time>
      </trkpt>
      <trkpt lat="38.898167" lon="-5.7407684">
        <ele>492.0</ele>
        <time>2021-02-13T11:33:32Z</time>
      </trkpt>
      <trkpt lat="38.898148" lon="-5.740738">
        <ele>492.0</ele>
        <time>2021-02-13T11:33:33Z</time>
      </trkpt>
      <trkpt lat="38.89813" lon="-5.7407074">
        <ele>492.0</ele>
        <time>2021-02-13T11:33:34Z</time>
      </trkpt>
      <trkpt lat="38.898113" lon="-5.740672">
        <ele>492.0</ele>
        <time>2021-02-13T11:33:35Z</time>
      </trkpt>
      <trkpt lat="38.898094" lon="-5.7406316">
        <ele>493.0</ele>
        <time>2021-02-13T11:33:36Z</time>
      </trkpt>
      <trkpt lat="38.898075" lon="-5.7405925">
        <ele>493.0</ele>
        <time>2021-02-13T11:33:37Z</time>
      </trkpt>
      <trkpt lat="38.898056" lon="-5.7405486">
        <ele>493.0</ele>
        <time>2021-02-13T11:33:38Z</time>
      </trkpt>
      <trkpt lat="38.898037" lon="-5.7405057">
        <ele>493.0</ele>
        <time>2021-02-13T11:33:39Z</time>
      </trkpt>
      <trkpt lat="38.89803" lon="-5.740467">
        <ele>493.0</ele>
        <time>2021-02-13T11:33:40Z</time>
      </trkpt>
      <trkpt lat="38.898018" lon="-5.7404294">
        <ele>493.0</ele>
        <time>2021-02-13T11:33:41Z</time>
      </trkpt>
      <trkpt lat="38.89801" lon="-5.7403936">
        <ele>493.0</ele>
        <time>2021-02-13T11:33:42Z</time>
      </trkpt>
      <trkpt lat="38.898003" lon="-5.740358">
        <ele>493.0</ele>
        <time>2021-02-13T11:33:43Z</time>
      </trkpt>
      <trkpt lat="38.898003" lon="-5.740322">
        <ele>494.0</ele>
        <time>2021-02-13T11:33:44Z</time>
      </trkpt>
      <trkpt lat="38.898" lon="-5.740288">
        <ele>494.0</ele>
        <time>2021-02-13T11:33:45Z</time>
      </trkpt>
      <trkpt lat="38.897995" lon="-5.740254">
        <ele>494.0</ele>
        <time>2021-02-13T11:33:45Z</time>
      </trkpt>
      <trkpt lat="38.89799" lon="-5.7402215">
        <ele>494.0</ele>
        <time>2021-02-13T11:33:47Z</time>
      </trkpt>
      <trkpt lat="38.897987" lon="-5.7401896">
        <ele>494.0</ele>
        <time>2021-02-13T11:33:48Z</time>
      </trkpt>
      <trkpt lat="38.89798" lon="-5.7401567">
        <ele>494.0</ele>
        <time>2021-02-13T11:33:49Z</time>
      </trkpt>
      <trkpt lat="38.897972" lon="-5.7401247">
        <ele>494.0</ele>
        <time>2021-02-13T11:33:49Z</time>
      </trkpt>
      <trkpt lat="38.89796" lon="-5.7400913">
        <ele>494.0</ele>
        <time>2021-02-13T11:33:51Z</time>
      </trkpt>
      <trkpt lat="38.897953" lon="-5.7400575">
        <ele>494.0</ele>
        <time>2021-02-13T11:33:52Z</time>
      </trkpt>
      <trkpt lat="38.897945" lon="-5.740023">
        <ele>495.0</ele>
        <time>2021-02-13T11:33:53Z</time>
      </trkpt>
      <trkpt lat="38.897938" lon="-5.7399898">
        <ele>495.0</ele>
        <time>2021-02-13T11:33:54Z</time>
      </trkpt>
      <trkpt lat="38.89793" lon="-5.739956">
        <ele>495.0</ele>
        <time>2021-02-13T11:33:55Z</time>
      </trkpt>
      <trkpt lat="38.897926" lon="-5.739921">
        <ele>495.0</ele>
        <time>2021-02-13T11:33:56Z</time>
      </trkpt>
      <trkpt lat="38.89792" lon="-5.7398863">
        <ele>495.0</ele>
        <time>2021-02-13T11:33:57Z</time>
      </trkpt>
      <trkpt lat="38.89792" lon="-5.73985">
        <ele>495.0</ele>
        <time>2021-02-13T11:33:58Z</time>
      </trkpt>
      <trkpt lat="38.89792" lon="-5.7398133">
        <ele>495.0</ele>
        <time>2021-02-13T11:33:59Z</time>
      </trkpt>
      <trkpt lat="38.89792" lon="-5.7397747">
        <ele>495.0</ele>
        <time>2021-02-13T11:34:00Z</time>
      </trkpt>
      <trkpt lat="38.89792" lon="-5.7397366">
        <ele>495.0</ele>
        <time>2021-02-13T11:34:01Z</time>
      </trkpt>
      <trkpt lat="38.89792" lon="-5.739698">
        <ele>495.0</ele>
        <time>2021-02-13T11:34:02Z</time>
      </trkpt>
      <trkpt lat="38.89792" lon="-5.739659">
        <ele>495.0</ele>
        <time>2021-02-13T11:34:03Z</time>
      </trkpt>
      <trkpt lat="38.89792" lon="-5.7396226">
        <ele>495.0</ele>
        <time>2021-02-13T11:34:04Z</time>
      </trkpt>
      <trkpt lat="38.897915" lon="-5.7395883">
        <ele>495.0</ele>
        <time>2021-02-13T11:34:05Z</time>
      </trkpt>
      <trkpt lat="38.89791" lon="-5.7395573">
        <ele>495.0</ele>
        <time>2021-02-13T11:34:06Z</time>
      </trkpt>
      <trkpt lat="38.89791" lon="-5.7395315">
        <ele>496.0</ele>
        <time>2021-02-13T11:34:07Z</time>
      </trkpt>
      <trkpt lat="38.897903" lon="-5.7395096">
        <ele>496.0</ele>
        <time>2021-02-13T11:34:08Z</time>
      </trkpt>
      <trkpt lat="38.8979" lon="-5.739492">
        <ele>496.0</ele>
        <time>2021-02-13T11:34:09Z</time>
      </trkpt>
      <trkpt lat="38.897896" lon="-5.7394753">
        <ele>496.0</ele>
        <time>2021-02-13T11:34:10Z</time>
      </trkpt>
      <trkpt lat="38.897896" lon="-5.7394605">
        <ele>496.0</ele>
        <time>2021-02-13T11:34:11Z</time>
      </trkpt>
      <trkpt lat="38.897896" lon="-5.7394495">
        <ele>496.0</ele>
        <time>2021-02-13T11:34:12Z</time>
      </trkpt>
      <trkpt lat="38.8979" lon="-5.739444">
        <ele>496.0</ele>
        <time>2021-02-13T11:34:12Z</time>
      </trkpt>
      <trkpt lat="38.897903" lon="-5.7394423">
        <ele>496.0</ele>
        <time>2021-02-13T11:34:14Z</time>
      </trkpt>
      <trkpt lat="38.897903" lon="-5.739447">
        <ele>496.0</ele>
        <time>2021-02-13T11:34:14Z</time>
      </trkpt>
      <trkpt lat="38.897907" lon="-5.739451">
        <ele>496.0</ele>
        <time>2021-02-13T11:34:16Z</time>
      </trkpt>
      <trkpt lat="38.89791" lon="-5.739455">
        <ele>496.0</ele>
        <time>2021-02-13T11:34:17Z</time>
      </trkpt>
      <trkpt lat="38.897835" lon="-5.7396364">
        <ele>474.0</ele>
        <time>2021-02-13T11:39:05Z</time>
      </trkpt>
      <trkpt lat="38.89784" lon="-5.739633">
        <ele>474.0</ele>
        <time>2021-02-13T11:39:07Z</time>
      </trkpt>
      <trkpt lat="38.897842" lon="-5.7396274">
        <ele>474.0</ele>
        <time>2021-02-13T11:39:08Z</time>
      </trkpt>
      <trkpt lat="38.89785" lon="-5.739616">
        <ele>474.0</ele>
        <time>2021-02-13T11:39:08Z</time>
      </trkpt>
      <trkpt lat="38.897858" lon="-5.739602">
        <ele>474.0</ele>
        <time>2021-02-13T11:39:09Z</time>
      </trkpt>
      <trkpt lat="38.897865" lon="-5.739588">
        <ele>474.0</ele>
        <time>2021-02-13T11:39:11Z</time>
      </trkpt>
      <trkpt lat="38.89789" lon="-5.7394667">
        <ele>473.0</ele>
        <time>2021-02-13T11:39:24Z</time>
      </trkpt>
      <trkpt lat="38.89789" lon="-5.7394648">
        <ele>473.0</ele>
        <time>2021-02-13T11:39:25Z</time>
      </trkpt>
      <trkpt lat="38.897892" lon="-5.73947">
        <ele>473.0</ele>
        <time>2021-02-13T11:39:28Z</time>
      </trkpt>
      <trkpt lat="38.897892" lon="-5.7394676">
        <ele>473.0</ele>
        <time>2021-02-13T11:39:29Z</time>
      </trkpt>
      <trkpt lat="38.897896" lon="-5.7394624">
        <ele>473.0</ele>
        <time>2021-02-13T11:39:30Z</time>
      </trkpt>
      <trkpt lat="38.8979" lon="-5.7394586">
        <ele>473.0</ele>
        <time>2021-02-13T11:39:31Z</time>
      </trkpt>
      <trkpt lat="38.897884" lon="-5.73955">
        <ele>473.0</ele>
        <time>2021-02-13T11:39:48Z</time>
      </trkpt>
      <trkpt lat="38.897884" lon="-5.739556">
        <ele>473.0</ele>
        <time>2021-02-13T11:39:49Z</time>
      </trkpt>
      <trkpt lat="38.897884" lon="-5.739567">
        <ele>473.0</ele>
        <time>2021-02-13T11:39:50Z</time>
      </trkpt>
      <trkpt lat="38.897884" lon="-5.739584">
        <ele>473.0</ele>
        <time>2021-02-13T11:39:51Z</time>
      </trkpt>
      <trkpt lat="38.89788" lon="-5.739605">
        <ele>473.0</ele>
        <time>2021-02-13T11:39:52Z</time>
      </trkpt>
      <trkpt lat="38.89788" lon="-5.7396307">
        <ele>473.0</ele>
        <time>2021-02-13T11:39:53Z</time>
      </trkpt>
      <trkpt lat="38.89788" lon="-5.739659">
        <ele>473.0</ele>
        <time>2021-02-13T11:39:54Z</time>
      </trkpt>
      <trkpt lat="38.89788" lon="-5.7396855">
        <ele>473.0</ele>
        <time>2021-02-13T11:39:55Z</time>
      </trkpt>
      <trkpt lat="38.89788" lon="-5.7397127">
        <ele>473.0</ele>
        <time>2021-02-13T11:39:56Z</time>
      </trkpt>
      <trkpt lat="38.897873" lon="-5.7397385">
        <ele>473.0</ele>
        <time>2021-02-13T11:39:57Z</time>
      </trkpt>
      <trkpt lat="38.89787" lon="-5.73976">
        <ele>473.0</ele>
        <time>2021-02-13T11:39:58Z</time>
      </trkpt>
      <trkpt lat="38.897865" lon="-5.739779">
        <ele>473.0</ele>
        <time>2021-02-13T11:39:59Z</time>
      </trkpt>
      <trkpt lat="38.89786" lon="-5.7397985">
        <ele>473.0</ele>
        <time>2021-02-13T11:40:00Z</time>
      </trkpt>
      <trkpt lat="38.897858" lon="-5.7398176">
        <ele>473.0</ele>
        <time>2021-02-13T11:40:01Z</time>
      </trkpt>
      <trkpt lat="38.89786" lon="-5.739838">
        <ele>473.0</ele>
        <time>2021-02-13T11:40:02Z</time>
      </trkpt>
      <trkpt lat="38.89786" lon="-5.739861">
        <ele>473.0</ele>
        <time>2021-02-13T11:40:03Z</time>
      </trkpt>
      <trkpt lat="38.897865" lon="-5.7398853">
        <ele>473.0</ele>
        <time>2021-02-13T11:40:04Z</time>
      </trkpt>
      <trkpt lat="38.89787" lon="-5.7399125">
        <ele>472.0</ele>
        <time>2021-02-13T11:40:05Z</time>
      </trkpt>
      <trkpt lat="38.897873" lon="-5.7399416">
        <ele>472.0</ele>
        <time>2021-02-13T11:40:06Z</time>
      </trkpt>
      <trkpt lat="38.89788" lon="-5.7399755">
        <ele>472.0</ele>
        <time>2021-02-13T11:40:07Z</time>
      </trkpt>
      <trkpt lat="38.897884" lon="-5.7400107">
        <ele>472.0</ele>
        <time>2021-02-13T11:40:08Z</time>
      </trkpt>
      <trkpt lat="38.897896" lon="-5.740051">
        <ele>472.0</ele>
        <time>2021-02-13T11:40:09Z</time>
      </trkpt>
      <trkpt lat="38.897907" lon="-5.7400904">
        <ele>472.0</ele>
        <time>2021-02-13T11:40:10Z</time>
      </trkpt>
      <trkpt lat="38.897923" lon="-5.7401314">
        <ele>472.0</ele>
        <time>2021-02-13T11:40:11Z</time>
      </trkpt>
      <trkpt lat="38.897934" lon="-5.7401733">
        <ele>472.0</ele>
        <time>2021-02-13T11:40:12Z</time>
      </trkpt>
      <trkpt lat="38.89795" lon="-5.740219">
        <ele>472.0</ele>
        <time>2021-02-13T11:40:13Z</time>
      </trkpt>
      <trkpt lat="38.897964" lon="-5.7402635">
        <ele>472.0</ele>
        <time>2021-02-13T11:40:14Z</time>
      </trkpt>
      <trkpt lat="38.89798" lon="-5.7403097">
        <ele>472.0</ele>
        <time>2021-02-13T11:40:15Z</time>
      </trkpt>
      <trkpt lat="38.897995" lon="-5.7403545">
        <ele>472.0</ele>
        <time>2021-02-13T11:40:16Z</time>
      </trkpt>
      <trkpt lat="38.898014" lon="-5.7403975">
        <ele>472.0</ele>
        <time>2021-02-13T11:40:16Z</time>
      </trkpt>
      <trkpt lat="38.898037" lon="-5.7404385">
        <ele>472.0</ele>
        <time>2021-02-13T11:40:17Z</time>
      </trkpt>
      <trkpt lat="38.898056" lon="-5.7404776">
        <ele>472.0</ele>
        <time>2021-02-13T11:40:19Z</time>
      </trkpt>
      <trkpt lat="38.898075" lon="-5.7405148">
        <ele>472.0</ele>
        <time>2021-02-13T11:40:20Z</time>
      </trkpt>
      <trkpt lat="38.898094" lon="-5.7405505">
        <ele>471.0</ele>
        <time>2021-02-13T11:40:21Z</time>
      </trkpt>
      <trkpt lat="38.898113" lon="-5.740585">
        <ele>471.0</ele>
        <time>2021-02-13T11:40:22Z</time>
      </trkpt>
      <trkpt lat="38.898132" lon="-5.740624">
        <ele>471.0</ele>
        <time>2021-02-13T11:40:23Z</time>
      </trkpt>
      <trkpt lat="38.89815" lon="-5.7406626">
        <ele>470.0</ele>
        <time>2021-02-13T11:40:24Z</time>
      </trkpt>
      <trkpt lat="38.898167" lon="-5.7407002">
        <ele>470.0</ele>
        <time>2021-02-13T11:40:25Z</time>
      </trkpt>
      <trkpt lat="38.89819" lon="-5.740753">
        <ele>469.0</ele>
        <time>2021-02-13T11:40:26Z</time>
      </trkpt>
      <trkpt lat="38.898216" lon="-5.7408113">
        <ele>469.0</ele>
        <time>2021-02-13T11:40:26Z</time>
      </trkpt>
      <trkpt lat="38.89825" lon="-5.740867">
        <ele>468.0</ele>
        <time>2021-02-13T11:40:28Z</time>
      </trkpt>
      <trkpt lat="38.898285" lon="-5.7409196">
        <ele>468.0</ele>
        <time>2021-02-13T11:40:28Z</time>
      </trkpt>
      <trkpt lat="38.898323" lon="-5.740976">
        <ele>466.0</ele>
        <time>2021-02-13T11:40:30Z</time>
      </trkpt>
      <trkpt lat="38.898365" lon="-5.741036">
        <ele>466.0</ele>
        <time>2021-02-13T11:40:31Z</time>
      </trkpt>
      <trkpt lat="38.89841" lon="-5.7410946">
        <ele>465.0</ele>
        <time>2021-02-13T11:40:32Z</time>
      </trkpt>
      <trkpt lat="38.89846" lon="-5.741155">
        <ele>465.0</ele>
        <time>2021-02-13T11:40:33Z</time>
      </trkpt>
      <trkpt lat="38.89851" lon="-5.7412224">
        <ele>464.0</ele>
        <time>2021-02-13T11:40:34Z</time>
      </trkpt>
      <trkpt lat="38.89856" lon="-5.741294">
        <ele>464.0</ele>
        <time>2021-02-13T11:40:35Z</time>
      </trkpt>
      <trkpt lat="38.898613" lon="-5.741369">
        <ele>462.0</ele>
        <time>2021-02-13T11:40:36Z</time>
      </trkpt>
      <trkpt lat="38.898666" lon="-5.7414474">
        <ele>462.0</ele>
        <time>2021-02-13T11:40:37Z</time>
      </trkpt>
      <trkpt lat="38.89872" lon="-5.741531">
        <ele>461.0</ele>
        <time>2021-02-13T11:40:38Z</time>
      </trkpt>
      <trkpt lat="38.898773" lon="-5.741616">
        <ele>461.0</ele>
        <time>2021-02-13T11:40:39Z</time>
      </trkpt>
      <trkpt lat="38.898827" lon="-5.741697">
        <ele>460.0</ele>
        <time>2021-02-13T11:40:40Z</time>
      </trkpt>
      <trkpt lat="38.898876" lon="-5.741772">
        <ele>460.0</ele>
        <time>2021-02-13T11:40:41Z</time>
      </trkpt>
      <trkpt lat="38.898922" lon="-5.7418413">
        <ele>460.0</ele>
        <time>2021-02-13T11:40:42Z</time>
      </trkpt>
      <trkpt lat="38.89896" lon="-5.7419014">
        <ele>459.0</ele>
        <time>2021-02-13T11:40:43Z</time>
      </trkpt>
      <trkpt lat="38.899" lon="-5.7419524">
        <ele>459.0</ele>
        <time>2021-02-13T11:40:44Z</time>
      </trkpt>
      <trkpt lat="38.899033" lon="-5.7419987">
        <ele>459.0</ele>
        <time>2021-02-13T11:40:45Z</time>
      </trkpt>
      <trkpt lat="38.89907" lon="-5.742045">
        <ele>458.0</ele>
        <time>2021-02-13T11:40:46Z</time>
      </trkpt>
      <trkpt lat="38.8991" lon="-5.742092">
        <ele>458.0</ele>
        <time>2021-02-13T11:40:46Z</time>
      </trkpt>
      <trkpt lat="38.89913" lon="-5.7421446">
        <ele>458.0</ele>
        <time>2021-02-13T11:40:48Z</time>
      </trkpt>
      <trkpt lat="38.89916" lon="-5.7422">
        <ele>458.0</ele>
        <time>2021-02-13T11:40:49Z</time>
      </trkpt>
      <trkpt lat="38.89918" lon="-5.742258">
        <ele>458.0</ele>
        <time>2021-02-13T11:40:50Z</time>
      </trkpt>
      <trkpt lat="38.8992" lon="-5.7423167">
        <ele>457.0</ele>
        <time>2021-02-13T11:40:51Z</time>
      </trkpt>
      <trkpt lat="38.89922" lon="-5.74238">
        <ele>457.0</ele>
        <time>2021-02-13T11:40:51Z</time>
      </trkpt>
      <trkpt lat="38.899235" lon="-5.742448">
        <ele>457.0</ele>
        <time>2021-02-13T11:40:53Z</time>
      </trkpt>
      <trkpt lat="38.89925" lon="-5.742519">
        <ele>457.0</ele>
        <time>2021-02-13T11:40:54Z</time>
      </trkpt>
      <trkpt lat="38.899265" lon="-5.7425933">
        <ele>457.0</ele>
        <time>2021-02-13T11:40:55Z</time>
      </trkpt>
      <trkpt lat="38.899284" lon="-5.7426715">
        <ele>457.0</ele>
        <time>2021-02-13T11:40:56Z</time>
      </trkpt>
      <trkpt lat="38.899303" lon="-5.74275">
        <ele>457.0</ele>
        <time>2021-02-13T11:40:57Z</time>
      </trkpt>
      <trkpt lat="38.899326" lon="-5.742833">
        <ele>457.0</ele>
        <time>2021-02-13T11:40:58Z</time>
      </trkpt>
      <trkpt lat="38.899345" lon="-5.742917">
        <ele>457.0</ele>
        <time>2021-02-13T11:40:59Z</time>
      </trkpt>
      <trkpt lat="38.89936" lon="-5.743003">
        <ele>457.0</ele>
        <time>2021-02-13T11:41:00Z</time>
      </trkpt>
      <trkpt lat="38.899376" lon="-5.7430873">
        <ele>457.0</ele>
        <time>2021-02-13T11:41:01Z</time>
      </trkpt>
      <trkpt lat="38.899395" lon="-5.743171">
        <ele>457.0</ele>
        <time>2021-02-13T11:41:02Z</time>
      </trkpt>
      <trkpt lat="38.89941" lon="-5.743254">
        <ele>457.0</ele>
        <time>2021-02-13T11:41:03Z</time>
      </trkpt>
      <trkpt lat="38.89943" lon="-5.7433376">
        <ele>457.0</ele>
        <time>2021-02-13T11:41:04Z</time>
      </trkpt>
      <trkpt lat="38.899445" lon="-5.7434216">
        <ele>457.0</ele>
        <time>2021-02-13T11:41:05Z</time>
      </trkpt>
      <trkpt lat="38.89946" lon="-5.7435083">
        <ele>457.0</ele>
        <time>2021-02-13T11:41:06Z</time>
      </trkpt>
      <trkpt lat="38.89947" lon="-5.743597">
        <ele>457.0</ele>
        <time>2021-02-13T11:41:07Z</time>
      </trkpt>
      <trkpt lat="38.899483" lon="-5.743686">
        <ele>457.0</ele>
        <time>2021-02-13T11:41:08Z</time>
      </trkpt>
      <trkpt lat="38.899498" lon="-5.743779">
        <ele>457.0</ele>
        <time>2021-02-13T11:41:09Z</time>
      </trkpt>
      <trkpt lat="38.89951" lon="-5.7438707">
        <ele>456.0</ele>
        <time>2021-02-13T11:41:10Z</time>
      </trkpt>
      <trkpt lat="38.89952" lon="-5.743963">
        <ele>456.0</ele>
        <time>2021-02-13T11:41:11Z</time>
      </trkpt>
      <trkpt lat="38.899536" lon="-5.7440543">
        <ele>456.0</ele>
        <time>2021-02-13T11:41:12Z</time>
      </trkpt>
      <trkpt lat="38.89956" lon="-5.744146">
        <ele>456.0</ele>
        <time>2021-02-13T11:41:13Z</time>
      </trkpt>
      <trkpt lat="38.899574" lon="-5.744238">
        <ele>456.0</ele>
        <time>2021-02-13T11:41:14Z</time>
      </trkpt>
      <trkpt lat="38.89959" lon="-5.7443314">
        <ele>456.0</ele>
        <time>2021-02-13T11:41:15Z</time>
      </trkpt>
      <trkpt lat="38.899605" lon="-5.7444243">
        <ele>455.0</ele>
        <time>2021-02-13T11:41:16Z</time>
      </trkpt>
      <trkpt lat="38.89962" lon="-5.7445164">
        <ele>455.0</ele>
        <time>2021-02-13T11:41:17Z</time>
      </trkpt>
      <trkpt lat="38.899635" lon="-5.7446074">
        <ele>455.0</ele>
        <time>2021-02-13T11:41:18Z</time>
      </trkpt>
      <trkpt lat="38.899647" lon="-5.744698">
        <ele>455.0</ele>
        <time>2021-02-13T11:41:19Z</time>
      </trkpt>
      <trkpt lat="38.899662" lon="-5.7447886">
        <ele>455.0</ele>
        <time>2021-02-13T11:41:19Z</time>
      </trkpt>
      <trkpt lat="38.899677" lon="-5.7448773">
        <ele>454.0</ele>
        <time>2021-02-13T11:41:21Z</time>
      </trkpt>
      <trkpt lat="38.899693" lon="-5.744967">
        <ele>454.0</ele>
        <time>2021-02-13T11:41:22Z</time>
      </trkpt>
      <trkpt lat="38.89971" lon="-5.745059">
        <ele>454.0</ele>
        <time>2021-02-13T11:41:23Z</time>
      </trkpt>
      <trkpt lat="38.899727" lon="-5.7451534">
        <ele>454.0</ele>
        <time>2021-02-13T11:41:24Z</time>
      </trkpt>
      <trkpt lat="38.899746" lon="-5.745248">
        <ele>454.0</ele>
        <time>2021-02-13T11:41:24Z</time>
      </trkpt>
      <trkpt lat="38.899765" lon="-5.7453427">
        <ele>453.0</ele>
        <time>2021-02-13T11:41:25Z</time>
      </trkpt>
      <trkpt lat="38.89978" lon="-5.745438">
        <ele>453.0</ele>
        <time>2021-02-13T11:41:27Z</time>
      </trkpt>
      <trkpt lat="38.899796" lon="-5.745535">
        <ele>453.0</ele>
        <time>2021-02-13T11:41:28Z</time>
      </trkpt>
      <trkpt lat="38.89981" lon="-5.745632">
        <ele>453.0</ele>
        <time>2021-02-13T11:41:29Z</time>
      </trkpt>
      <trkpt lat="38.89983" lon="-5.74573">
        <ele>452.0</ele>
        <time>2021-02-13T11:41:30Z</time>
      </trkpt>
      <trkpt lat="38.899845" lon="-5.7458286">
        <ele>452.0</ele>
        <time>2021-02-13T11:41:31Z</time>
      </trkpt>
      <trkpt lat="38.899864" lon="-5.745928">
        <ele>452.0</ele>
        <time>2021-02-13T11:41:32Z</time>
      </trkpt>
      <trkpt lat="38.89988" lon="-5.746031">
        <ele>451.0</ele>
        <time>2021-02-13T11:41:33Z</time>
      </trkpt>
      <trkpt lat="38.899895" lon="-5.7461357">
        <ele>451.0</ele>
        <time>2021-02-13T11:41:34Z</time>
      </trkpt>
      <trkpt lat="38.899902" lon="-5.746243">
        <ele>450.0</ele>
        <time>2021-02-13T11:41:35Z</time>
      </trkpt>
      <trkpt lat="38.899914" lon="-5.746351">
        <ele>450.0</ele>
        <time>2021-02-13T11:41:36Z</time>
      </trkpt>
      <trkpt lat="38.899925" lon="-5.746458">
        <ele>450.0</ele>
        <time>2021-02-13T11:41:37Z</time>
      </trkpt>
      <trkpt lat="38.899933" lon="-5.7465677">
        <ele>449.0</ele>
        <time>2021-02-13T11:41:38Z</time>
      </trkpt>
      <trkpt lat="38.899944" lon="-5.746677">
        <ele>449.0</ele>
        <time>2021-02-13T11:41:39Z</time>
      </trkpt>
      <trkpt lat="38.899952" lon="-5.746786">
        <ele>449.0</ele>
        <time>2021-02-13T11:41:40Z</time>
      </trkpt>
      <trkpt lat="38.89996" lon="-5.7468953">
        <ele>448.0</ele>
        <time>2021-02-13T11:41:41Z</time>
      </trkpt>
      <trkpt lat="38.89997" lon="-5.747004">
        <ele>448.0</ele>
        <time>2021-02-13T11:41:42Z</time>
      </trkpt>
      <trkpt lat="38.899982" lon="-5.747112">
        <ele>448.0</ele>
        <time>2021-02-13T11:41:43Z</time>
      </trkpt>
      <trkpt lat="38.89999" lon="-5.747217">
        <ele>447.0</ele>
        <time>2021-02-13T11:41:44Z</time>
      </trkpt>
      <trkpt lat="38.9" lon="-5.747323">
        <ele>447.0</ele>
        <time>2021-02-13T11:41:45Z</time>
      </trkpt>
      <trkpt lat="38.900013" lon="-5.7474284">
        <ele>447.0</ele>
        <time>2021-02-13T11:41:46Z</time>
      </trkpt>
      <trkpt lat="38.900024" lon="-5.7475343">
        <ele>446.0</ele>
        <time>2021-02-13T11:41:47Z</time>
      </trkpt>
      <trkpt lat="38.900036" lon="-5.747638">
        <ele>446.0</ele>
        <time>2021-02-13T11:41:48Z</time>
      </trkpt>
      <trkpt lat="38.90005" lon="-5.747741">
        <ele>446.0</ele>
        <time>2021-02-13T11:41:49Z</time>
      </trkpt>
      <trkpt lat="38.900066" lon="-5.747843">
        <ele>446.0</ele>
        <time>2021-02-13T11:41:50Z</time>
      </trkpt>
      <trkpt lat="38.90008" lon="-5.7479444">
        <ele>446.0</ele>
        <time>2021-02-13T11:41:51Z</time>
      </trkpt>
      <trkpt lat="38.900093" lon="-5.748046">
        <ele>445.0</ele>
        <time>2021-02-13T11:41:52Z</time>
      </trkpt>
      <trkpt lat="38.900105" lon="-5.748149">
        <ele>445.0</ele>
        <time>2021-02-13T11:41:53Z</time>
      </trkpt>
      <trkpt lat="38.90012" lon="-5.748256">
        <ele>445.0</ele>
        <time>2021-02-13T11:41:54Z</time>
      </trkpt>
      <trkpt lat="38.900135" lon="-5.748363">
        <ele>445.0</ele>
        <time>2021-02-13T11:41:55Z</time>
      </trkpt>
      <trkpt lat="38.900146" lon="-5.7484684">
        <ele>445.0</ele>
        <time>2021-02-13T11:41:56Z</time>
      </trkpt>
      <trkpt lat="38.900158" lon="-5.7485785">
        <ele>444.0</ele>
        <time>2021-02-13T11:41:57Z</time>
      </trkpt>
      <trkpt lat="38.90017" lon="-5.748691">
        <ele>444.0</ele>
        <time>2021-02-13T11:41:57Z</time>
      </trkpt>
      <trkpt lat="38.90018" lon="-5.748808">
        <ele>442.0</ele>
        <time>2021-02-13T11:41:59Z</time>
      </trkpt>
      <trkpt lat="38.900192" lon="-5.748925">
        <ele>442.0</ele>
        <time>2021-02-13T11:41:59Z</time>
      </trkpt>
      <trkpt lat="38.9002" lon="-5.749045">
        <ele>441.0</ele>
        <time>2021-02-13T11:42:01Z</time>
      </trkpt>
      <trkpt lat="38.900204" lon="-5.7491665">
        <ele>441.0</ele>
        <time>2021-02-13T11:42:01Z</time>
      </trkpt>
      <trkpt lat="38.900204" lon="-5.749291">
        <ele>440.0</ele>
        <time>2021-02-13T11:42:03Z</time>
      </trkpt>
      <trkpt lat="38.9002" lon="-5.749418">
        <ele>440.0</ele>
        <time>2021-02-13T11:42:03Z</time>
      </trkpt>
      <trkpt lat="38.900192" lon="-5.749547">
        <ele>439.0</ele>
        <time>2021-02-13T11:42:05Z</time>
      </trkpt>
      <trkpt lat="38.900185" lon="-5.7496777">
        <ele>438.0</ele>
        <time>2021-02-13T11:42:05Z</time>
      </trkpt>
      <trkpt lat="38.900177" lon="-5.7498093">
        <ele>437.0</ele>
        <time>2021-02-13T11:42:07Z</time>
      </trkpt>
      <trkpt lat="38.90017" lon="-5.7499413">
        <ele>436.0</ele>
        <time>2021-02-13T11:42:08Z</time>
      </trkpt>
      <trkpt lat="38.90016" lon="-5.7500744">
        <ele>435.0</ele>
        <time>2021-02-13T11:42:09Z</time>
      </trkpt>
      <trkpt lat="38.90015" lon="-5.7502074">
        <ele>435.0</ele>
        <time>2021-02-13T11:42:10Z</time>
      </trkpt>
      <trkpt lat="38.900143" lon="-5.750339">
        <ele>434.0</ele>
        <time>2021-02-13T11:42:11Z</time>
      </trkpt>
      <trkpt lat="38.90013" lon="-5.7504807">
        <ele>434.0</ele>
        <time>2021-02-13T11:42:12Z</time>
      </trkpt>
      <trkpt lat="38.900127" lon="-5.7506104">
        <ele>433.0</ele>
        <time>2021-02-13T11:42:13Z</time>
      </trkpt>
      <trkpt lat="38.90012" lon="-5.750742">
        <ele>433.0</ele>
        <time>2021-02-13T11:42:14Z</time>
      </trkpt>
      <trkpt lat="38.900112" lon="-5.750876">
        <ele>432.0</ele>
        <time>2021-02-13T11:42:15Z</time>
      </trkpt>
      <trkpt lat="38.900112" lon="-5.7510114">
        <ele>432.0</ele>
        <time>2021-02-13T11:42:16Z</time>
      </trkpt>
      <trkpt lat="38.90011" lon="-5.7511454">
        <ele>431.0</ele>
        <time>2021-02-13T11:42:17Z</time>
      </trkpt>
      <trkpt lat="38.900105" lon="-5.751281">
        <ele>431.0</ele>
        <time>2021-02-13T11:42:18Z</time>
      </trkpt>
      <trkpt lat="38.900105" lon="-5.7514157">
        <ele>430.0</ele>
        <time>2021-02-13T11:42:19Z</time>
      </trkpt>
      <trkpt lat="38.900105" lon="-5.751551">
        <ele>430.0</ele>
        <time>2021-02-13T11:42:20Z</time>
      </trkpt>
      <trkpt lat="38.900105" lon="-5.751687">
        <ele>430.0</ele>
        <time>2021-02-13T11:42:21Z</time>
      </trkpt>
      <trkpt lat="38.900105" lon="-5.751825">
        <ele>428.0</ele>
        <time>2021-02-13T11:42:22Z</time>
      </trkpt>
      <trkpt lat="38.900105" lon="-5.7519636">
        <ele>427.0</ele>
        <time>2021-02-13T11:42:23Z</time>
      </trkpt>
      <trkpt lat="38.900112" lon="-5.7521043">
        <ele>426.0</ele>
        <time>2021-02-13T11:42:24Z</time>
      </trkpt>
      <trkpt lat="38.900112" lon="-5.7522445">
        <ele>425.0</ele>
        <time>2021-02-13T11:42:25Z</time>
      </trkpt>
      <trkpt lat="38.900112" lon="-5.752387">
        <ele>425.0</ele>
        <time>2021-02-13T11:42:25Z</time>
      </trkpt>
      <trkpt lat="38.900112" lon="-5.752532">
        <ele>424.0</ele>
        <time>2021-02-13T11:42:27Z</time>
      </trkpt>
      <trkpt lat="38.900116" lon="-5.752677">
        <ele>423.0</ele>
        <time>2021-02-13T11:42:28Z</time>
      </trkpt>
      <trkpt lat="38.900124" lon="-5.752823">
        <ele>423.0</ele>
        <time>2021-02-13T11:42:29Z</time>
      </trkpt>
      <trkpt lat="38.90014" lon="-5.752968">
        <ele>421.0</ele>
        <time>2021-02-13T11:42:30Z</time>
      </trkpt>
      <trkpt lat="38.900154" lon="-5.753112">
        <ele>420.0</ele>
        <time>2021-02-13T11:42:31Z</time>
      </trkpt>
      <trkpt lat="38.90018" lon="-5.753255">
        <ele>419.0</ele>
        <time>2021-02-13T11:42:32Z</time>
      </trkpt>
      <trkpt lat="38.900215" lon="-5.75341">
        <ele>418.0</ele>
        <time>2021-02-13T11:42:33Z</time>
      </trkpt>
      <trkpt lat="38.90025" lon="-5.753563">
        <ele>417.0</ele>
        <time>2021-02-13T11:42:34Z</time>
      </trkpt>
      <trkpt lat="38.900284" lon="-5.7537036">
        <ele>416.0</ele>
        <time>2021-02-13T11:42:35Z</time>
      </trkpt>
      <trkpt lat="38.900322" lon="-5.753846">
        <ele>415.0</ele>
        <time>2021-02-13T11:42:36Z</time>
      </trkpt>
      <trkpt lat="38.90037" lon="-5.7540007">
        <ele>415.0</ele>
        <time>2021-02-13T11:42:37Z</time>
      </trkpt>
      <trkpt lat="38.900417" lon="-5.7541447">
        <ele>414.0</ele>
        <time>2021-02-13T11:42:38Z</time>
      </trkpt>
      <trkpt lat="38.900467" lon="-5.7543015">
        <ele>414.0</ele>
        <time>2021-02-13T11:42:39Z</time>
      </trkpt>
      <trkpt lat="38.900517" lon="-5.754459">
        <ele>412.0</ele>
        <time>2021-02-13T11:42:40Z</time>
      </trkpt>
      <trkpt lat="38.90056" lon="-5.7546062">
        <ele>411.0</ele>
        <time>2021-02-13T11:42:41Z</time>
      </trkpt>
      <trkpt lat="38.900608" lon="-5.754768">
        <ele>410.0</ele>
        <time>2021-02-13T11:42:42Z</time>
      </trkpt>
      <trkpt lat="38.900658" lon="-5.75493">
        <ele>409.0</ele>
        <time>2021-02-13T11:42:43Z</time>
      </trkpt>
      <trkpt lat="38.900703" lon="-5.7550926">
        <ele>408.0</ele>
        <time>2021-02-13T11:42:44Z</time>
      </trkpt>
      <trkpt lat="38.900753" lon="-5.7552543">
        <ele>407.0</ele>
        <time>2021-02-13T11:42:45Z</time>
      </trkpt>
      <trkpt lat="38.9008" lon="-5.755405">
        <ele>406.0</ele>
        <time>2021-02-13T11:42:46Z</time>
      </trkpt>
      <trkpt lat="38.900852" lon="-5.7555704">
        <ele>404.0</ele>
        <time>2021-02-13T11:42:47Z</time>
      </trkpt>
      <trkpt lat="38.9009" lon="-5.755736">
        <ele>403.0</ele>
        <time>2021-02-13T11:42:48Z</time>
      </trkpt>
      <trkpt lat="38.900955" lon="-5.7558985">
        <ele>402.0</ele>
        <time>2021-02-13T11:42:49Z</time>
      </trkpt>
      <trkpt lat="38.901" lon="-5.756048">
        <ele>401.0</ele>
        <time>2021-02-13T11:42:50Z</time>
      </trkpt>
      <trkpt lat="38.901054" lon="-5.7562113">
        <ele>399.0</ele>
        <time>2021-02-13T11:42:50Z</time>
      </trkpt>
      <trkpt lat="38.901104" lon="-5.756374">
        <ele>398.0</ele>
        <time>2021-02-13T11:42:52Z</time>
      </trkpt>
      <trkpt lat="38.901157" lon="-5.7565374">
        <ele>397.0</ele>
        <time>2021-02-13T11:42:53Z</time>
      </trkpt>
      <trkpt lat="38.901203" lon="-5.7567053">
        <ele>395.0</ele>
        <time>2021-02-13T11:42:54Z</time>
      </trkpt>
      <trkpt lat="38.901253" lon="-5.7568755">
        <ele>394.0</ele>
        <time>2021-02-13T11:42:55Z</time>
      </trkpt>
      <trkpt lat="38.9013" lon="-5.7570496">
        <ele>392.0</ele>
        <time>2021-02-13T11:42:56Z</time>
      </trkpt>
      <trkpt lat="38.901344" lon="-5.7572107">
        <ele>391.0</ele>
        <time>2021-02-13T11:42:57Z</time>
      </trkpt>
      <trkpt lat="38.901394" lon="-5.7573733">
        <ele>390.0</ele>
        <time>2021-02-13T11:42:57Z</time>
      </trkpt>
      <trkpt lat="38.901443" lon="-5.7575464">
        <ele>390.0</ele>
        <time>2021-02-13T11:42:59Z</time>
      </trkpt>
      <trkpt lat="38.901497" lon="-5.7577147">
        <ele>389.0</ele>
        <time>2021-02-13T11:43:00Z</time>
      </trkpt>
      <trkpt lat="38.901546" lon="-5.757878">
        <ele>389.0</ele>
        <time>2021-02-13T11:43:01Z</time>
      </trkpt>
      <trkpt lat="38.90159" lon="-5.758024">
        <ele>388.0</ele>
        <time>2021-02-13T11:43:01Z</time>
      </trkpt>
      <trkpt lat="38.90163" lon="-5.758168">
        <ele>388.0</ele>
        <time>2021-02-13T11:43:03Z</time>
      </trkpt>
      <trkpt lat="38.901672" lon="-5.7583084">
        <ele>388.0</ele>
        <time>2021-02-13T11:43:04Z</time>
      </trkpt>
      <trkpt lat="38.90172" lon="-5.758445">
        <ele>387.0</ele>
        <time>2021-02-13T11:43:05Z</time>
      </trkpt>
      <trkpt lat="38.90176" lon="-5.758587">
        <ele>387.0</ele>
        <time>2021-02-13T11:43:06Z</time>
      </trkpt>
      <trkpt lat="38.901794" lon="-5.758721">
        <ele>387.0</ele>
        <time>2021-02-13T11:43:07Z</time>
      </trkpt>
      <trkpt lat="38.901833" lon="-5.758843">
        <ele>387.0</ele>
        <time>2021-02-13T11:43:08Z</time>
      </trkpt>
      <trkpt lat="38.901867" lon="-5.758966">
        <ele>386.0</ele>
        <time>2021-02-13T11:43:09Z</time>
      </trkpt>
      <trkpt lat="38.9019" lon="-5.7590876">
        <ele>386.0</ele>
        <time>2021-02-13T11:43:10Z</time>
      </trkpt>
      <trkpt lat="38.901936" lon="-5.759206">
        <ele>386.0</ele>
        <time>2021-02-13T11:43:11Z</time>
      </trkpt>
      <trkpt lat="38.901974" lon="-5.759322">
        <ele>386.0</ele>
        <time>2021-02-13T11:43:12Z</time>
      </trkpt>
      <trkpt lat="38.902004" lon="-5.759436">
        <ele>386.0</ele>
        <time>2021-02-13T11:43:13Z</time>
      </trkpt>
      <trkpt lat="38.90204" lon="-5.7595477">
        <ele>386.0</ele>
        <time>2021-02-13T11:43:14Z</time>
      </trkpt>
      <trkpt lat="38.902073" lon="-5.759655">
        <ele>386.0</ele>
        <time>2021-02-13T11:43:15Z</time>
      </trkpt>
      <trkpt lat="38.902107" lon="-5.75976">
        <ele>386.0</ele>
        <time>2021-02-13T11:43:16Z</time>
      </trkpt>
      <trkpt lat="38.90214" lon="-5.759865">
        <ele>386.0</ele>
        <time>2021-02-13T11:43:17Z</time>
      </trkpt>
      <trkpt lat="38.902176" lon="-5.759966">
        <ele>386.0</ele>
        <time>2021-02-13T11:43:18Z</time>
      </trkpt>
      <trkpt lat="38.902206" lon="-5.760067">
        <ele>386.0</ele>
        <time>2021-02-13T11:43:19Z</time>
      </trkpt>
      <trkpt lat="38.90224" lon="-5.760175">
        <ele>386.0</ele>
        <time>2021-02-13T11:43:19Z</time>
      </trkpt>
      <trkpt lat="38.90227" lon="-5.7602816">
        <ele>385.0</ele>
        <time>2021-02-13T11:43:19Z</time>
      </trkpt>
      <trkpt lat="38.9024" lon="-5.760682">
        <ele>385.0</ele>
        <time>2021-02-13T11:43:22Z</time>
      </trkpt>
      <trkpt lat="38.90241" lon="-5.760708">
        <ele>384.0</ele>
        <time>2021-02-13T11:43:23Z</time>
      </trkpt>
      <trkpt lat="38.902424" lon="-5.76076">
        <ele>384.0</ele>
        <time>2021-02-13T11:43:24Z</time>
      </trkpt>
      <trkpt lat="38.902447" lon="-5.7608366">
        <ele>383.0</ele>
        <time>2021-02-13T11:43:25Z</time>
      </trkpt>
      <trkpt lat="38.902473" lon="-5.7609253">
        <ele>383.0</ele>
        <time>2021-02-13T11:43:26Z</time>
      </trkpt>
      <trkpt lat="38.902504" lon="-5.7610254">
        <ele>382.0</ele>
        <time>2021-02-13T11:43:27Z</time>
      </trkpt>
      <trkpt lat="38.902534" lon="-5.7611294">
        <ele>382.0</ele>
        <time>2021-02-13T11:43:28Z</time>
      </trkpt>
      <trkpt lat="38.902565" lon="-5.761239">
        <ele>381.0</ele>
        <time>2021-02-13T11:43:29Z</time>
      </trkpt>
      <trkpt lat="38.902596" lon="-5.7613516">
        <ele>381.0</ele>
        <time>2021-02-13T11:43:30Z</time>
      </trkpt>
      <trkpt lat="38.902622" lon="-5.7614675">
        <ele>380.0</ele>
        <time>2021-02-13T11:43:31Z</time>
      </trkpt>
      <trkpt lat="38.902653" lon="-5.761581">
        <ele>380.0</ele>
        <time>2021-02-13T11:43:32Z</time>
      </trkpt>
      <trkpt lat="38.902687" lon="-5.761697">
        <ele>379.0</ele>
        <time>2021-02-13T11:43:33Z</time>
      </trkpt>
      <trkpt lat="38.90272" lon="-5.7618184">
        <ele>379.0</ele>
        <time>2021-02-13T11:43:34Z</time>
      </trkpt>
      <trkpt lat="38.90276" lon="-5.7619386">
        <ele>378.0</ele>
        <time>2021-02-13T11:43:35Z</time>
      </trkpt>
      <trkpt lat="38.902798" lon="-5.76206">
        <ele>378.0</ele>
        <time>2021-02-13T11:43:36Z</time>
      </trkpt>
      <trkpt lat="38.902836" lon="-5.7621818">
        <ele>376.0</ele>
        <time>2021-02-13T11:43:37Z</time>
      </trkpt>
      <trkpt lat="38.902878" lon="-5.762303">
        <ele>376.0</ele>
        <time>2021-02-13T11:43:38Z</time>
      </trkpt>
      <trkpt lat="38.902916" lon="-5.762423">
        <ele>375.0</ele>
        <time>2021-02-13T11:43:39Z</time>
      </trkpt>
      <trkpt lat="38.902954" lon="-5.762544">
        <ele>375.0</ele>
        <time>2021-02-13T11:43:40Z</time>
      </trkpt>
      <trkpt lat="38.902992" lon="-5.7626667">
        <ele>374.0</ele>
        <time>2021-02-13T11:43:41Z</time>
      </trkpt>
      <trkpt lat="38.90303" lon="-5.7627892">
        <ele>374.0</ele>
        <time>2021-02-13T11:43:42Z</time>
      </trkpt>
      <trkpt lat="38.90307" lon="-5.762911">
        <ele>372.0</ele>
        <time>2021-02-13T11:43:43Z</time>
      </trkpt>
      <trkpt lat="38.903107" lon="-5.7630305">
        <ele>372.0</ele>
        <time>2021-02-13T11:43:44Z</time>
      </trkpt>
      <trkpt lat="38.903145" lon="-5.76315">
        <ele>372.0</ele>
        <time>2021-02-13T11:43:45Z</time>
      </trkpt>
      <trkpt lat="38.903183" lon="-5.763272">
        <ele>371.0</ele>
        <time>2021-02-13T11:43:46Z</time>
      </trkpt>
      <trkpt lat="38.90322" lon="-5.763394">
        <ele>371.0</ele>
        <time>2021-02-13T11:43:47Z</time>
      </trkpt>
      <trkpt lat="38.90326" lon="-5.763517">
        <ele>370.0</ele>
        <time>2021-02-13T11:43:48Z</time>
      </trkpt>
      <trkpt lat="38.903297" lon="-5.763639">
        <ele>370.0</ele>
        <time>2021-02-13T11:43:49Z</time>
      </trkpt>
      <trkpt lat="38.903336" lon="-5.763762">
        <ele>369.0</ele>
        <time>2021-02-13T11:43:50Z</time>
      </trkpt>
      <trkpt lat="38.90337" lon="-5.763885">
        <ele>369.0</ele>
        <time>2021-02-13T11:43:51Z</time>
      </trkpt>
      <trkpt lat="38.903404" lon="-5.7640066">
        <ele>369.0</ele>
        <time>2021-02-13T11:43:52Z</time>
      </trkpt>
      <trkpt lat="38.903442" lon="-5.764127">
        <ele>368.0</ele>
        <time>2021-02-13T11:43:53Z</time>
      </trkpt>
      <trkpt lat="38.90348" lon="-5.764246">
        <ele>368.0</ele>
        <time>2021-02-13T11:43:54Z</time>
      </trkpt>
      <trkpt lat="38.903515" lon="-5.7643623">
        <ele>368.0</ele>
        <time>2021-02-13T11:43:55Z</time>
      </trkpt>
      <trkpt lat="38.903553" lon="-5.764478">
        <ele>367.0</ele>
        <time>2021-02-13T11:43:56Z</time>
      </trkpt>
      <trkpt lat="38.90359" lon="-5.764592">
        <ele>367.0</ele>
        <time>2021-02-13T11:43:57Z</time>
      </trkpt>
      <trkpt lat="38.903625" lon="-5.764706">
        <ele>367.0</ele>
        <time>2021-02-13T11:43:58Z</time>
      </trkpt>
      <trkpt lat="38.90366" lon="-5.764821">
        <ele>366.0</ele>
        <time>2021-02-13T11:43:59Z</time>
      </trkpt>
      <trkpt lat="38.903694" lon="-5.7649364">
        <ele>366.0</ele>
        <time>2021-02-13T11:44:00Z</time>
      </trkpt>
      <trkpt lat="38.903725" lon="-5.7650495">
        <ele>365.0</ele>
        <time>2021-02-13T11:44:01Z</time>
      </trkpt>
      <trkpt lat="38.903763" lon="-5.7651615">
        <ele>365.0</ele>
        <time>2021-02-13T11:44:02Z</time>
      </trkpt>
      <trkpt lat="38.903793" lon="-5.765273">
        <ele>365.0</ele>
        <time>2021-02-13T11:44:02Z</time>
      </trkpt>
      <trkpt lat="38.90383" lon="-5.7653832">
        <ele>364.0</ele>
        <time>2021-02-13T11:44:04Z</time>
      </trkpt>
      <trkpt lat="38.90387" lon="-5.765493">
        <ele>364.0</ele>
        <time>2021-02-13T11:44:05Z</time>
      </trkpt>
      <trkpt lat="38.903904" lon="-5.7656026">
        <ele>364.0</ele>
        <time>2021-02-13T11:44:06Z</time>
      </trkpt>
      <trkpt lat="38.90394" lon="-5.7657094">
        <ele>364.0</ele>
        <time>2021-02-13T11:44:07Z</time>
      </trkpt>
      <trkpt lat="38.903973" lon="-5.7658153">
        <ele>364.0</ele>
        <time>2021-02-13T11:44:08Z</time>
      </trkpt>
      <trkpt lat="38.904007" lon="-5.7659206">
        <ele>364.0</ele>
        <time>2021-02-13T11:44:09Z</time>
      </trkpt>
      <trkpt lat="38.904045" lon="-5.766027">
        <ele>364.0</ele>
        <time>2021-02-13T11:44:10Z</time>
      </trkpt>
      <trkpt lat="38.90408" lon="-5.766136">
        <ele>364.0</ele>
        <time>2021-02-13T11:44:11Z</time>
      </trkpt>
      <trkpt lat="38.904114" lon="-5.766246">
        <ele>364.0</ele>
        <time>2021-02-13T11:44:12Z</time>
      </trkpt>
      <trkpt lat="38.904152" lon="-5.766355">
        <ele>364.0</ele>
        <time>2021-02-13T11:44:13Z</time>
      </trkpt>
      <trkpt lat="38.90419" lon="-5.766466">
        <ele>363.0</ele>
        <time>2021-02-13T11:44:14Z</time>
      </trkpt>
      <trkpt lat="38.904224" lon="-5.7665753">
        <ele>363.0</ele>
        <time>2021-02-13T11:44:15Z</time>
      </trkpt>
      <trkpt lat="38.904263" lon="-5.766685">
        <ele>363.0</ele>
        <time>2021-02-13T11:44:16Z</time>
      </trkpt>
      <trkpt lat="38.9043" lon="-5.7667937">
        <ele>363.0</ele>
        <time>2021-02-13T11:44:16Z</time>
      </trkpt>
      <trkpt lat="38.90434" lon="-5.7669">
        <ele>362.0</ele>
        <time>2021-02-13T11:44:18Z</time>
      </trkpt>
      <trkpt lat="38.904373" lon="-5.7670054">
        <ele>362.0</ele>
        <time>2021-02-13T11:44:19Z</time>
      </trkpt>
      <trkpt lat="38.90441" lon="-5.7671103">
        <ele>362.0</ele>
        <time>2021-02-13T11:44:20Z</time>
      </trkpt>
      <trkpt lat="38.904446" lon="-5.7672143">
        <ele>362.0</ele>
        <time>2021-02-13T11:44:21Z</time>
      </trkpt>
      <trkpt lat="38.90448" lon="-5.7673173">
        <ele>361.0</ele>
        <time>2021-02-13T11:44:22Z</time>
      </trkpt>
      <trkpt lat="38.904514" lon="-5.767419">
        <ele>361.0</ele>
        <time>2021-02-13T11:44:23Z</time>
      </trkpt>
      <trkpt lat="38.90455" lon="-5.76752">
        <ele>361.0</ele>
        <time>2021-02-13T11:44:24Z</time>
      </trkpt>
      <trkpt lat="38.904587" lon="-5.767621">
        <ele>361.0</ele>
        <time>2021-02-13T11:44:25Z</time>
      </trkpt>
      <trkpt lat="38.90462" lon="-5.7677217">
        <ele>361.0</ele>
        <time>2021-02-13T11:44:26Z</time>
      </trkpt>
      <trkpt lat="38.90466" lon="-5.767821">
        <ele>361.0</ele>
        <time>2021-02-13T11:44:27Z</time>
      </trkpt>
      <trkpt lat="38.90469" lon="-5.767922">
        <ele>360.0</ele>
        <time>2021-02-13T11:44:28Z</time>
      </trkpt>
      <trkpt lat="38.904724" lon="-5.7680235">
        <ele>360.0</ele>
        <time>2021-02-13T11:44:29Z</time>
      </trkpt>
      <trkpt lat="38.904755" lon="-5.7681255">
        <ele>360.0</ele>
        <time>2021-02-13T11:44:29Z</time>
      </trkpt>
      <trkpt lat="38.904785" lon="-5.768227">
        <ele>360.0</ele>
        <time>2021-02-13T11:44:31Z</time>
      </trkpt>
      <trkpt lat="38.904816" lon="-5.7683296">
        <ele>360.0</ele>
        <time>2021-02-13T11:44:32Z</time>
      </trkpt>
      <trkpt lat="38.904842" lon="-5.768431">
        <ele>360.0</ele>
        <time>2021-02-13T11:44:33Z</time>
      </trkpt>
      <trkpt lat="38.90487" lon="-5.768534">
        <ele>359.0</ele>
        <time>2021-02-13T11:44:34Z</time>
      </trkpt>
      <trkpt lat="38.904892" lon="-5.768638">
        <ele>359.0</ele>
        <time>2021-02-13T11:44:35Z</time>
      </trkpt>
      <trkpt lat="38.904915" lon="-5.768741">
        <ele>359.0</ele>
        <time>2021-02-13T11:44:36Z</time>
      </trkpt>
      <trkpt lat="38.904938" lon="-5.7688427">
        <ele>359.0</ele>
        <time>2021-02-13T11:44:37Z</time>
      </trkpt>
      <trkpt lat="38.904964" lon="-5.768943">
        <ele>358.0</ele>
        <time>2021-02-13T11:44:38Z</time>
      </trkpt>
      <trkpt lat="38.904984" lon="-5.7690425">
        <ele>358.0</ele>
        <time>2021-02-13T11:44:39Z</time>
      </trkpt>
      <trkpt lat="38.905003" lon="-5.7691402">
        <ele>358.0</ele>
        <time>2021-02-13T11:44:40Z</time>
      </trkpt>
      <trkpt lat="38.905025" lon="-5.7692385">
        <ele>358.0</ele>
        <time>2021-02-13T11:44:41Z</time>
      </trkpt>
      <trkpt lat="38.905045" lon="-5.7693357">
        <ele>358.0</ele>
        <time>2021-02-13T11:44:42Z</time>
      </trkpt>
      <trkpt lat="38.905064" lon="-5.7694335">
        <ele>358.0</ele>
        <time>2021-02-13T11:44:43Z</time>
      </trkpt>
      <trkpt lat="38.905087" lon="-5.7695327">
        <ele>358.0</ele>
        <time>2021-02-13T11:44:44Z</time>
      </trkpt>
      <trkpt lat="38.9051" lon="-5.7696314">
        <ele>357.0</ele>
        <time>2021-02-13T11:44:45Z</time>
      </trkpt>
      <trkpt lat="38.905125" lon="-5.7697306">
        <ele>357.0</ele>
        <time>2021-02-13T11:44:46Z</time>
      </trkpt>
      <trkpt lat="38.90514" lon="-5.76983">
        <ele>357.0</ele>
        <time>2021-02-13T11:44:47Z</time>
      </trkpt>
      <trkpt lat="38.905163" lon="-5.769929">
        <ele>357.0</ele>
        <time>2021-02-13T11:44:48Z</time>
      </trkpt>
      <trkpt lat="38.90518" lon="-5.7700267">
        <ele>357.0</ele>
        <time>2021-02-13T11:44:49Z</time>
      </trkpt>
      <trkpt lat="38.9052" lon="-5.7701216">
        <ele>356.0</ele>
        <time>2021-02-13T11:44:50Z</time>
      </trkpt>
      <trkpt lat="38.90522" lon="-5.7702146">
        <ele>356.0</ele>
        <time>2021-02-13T11:44:51Z</time>
      </trkpt>
      <trkpt lat="38.905235" lon="-5.7703047">
        <ele>356.0</ele>
        <time>2021-02-13T11:44:52Z</time>
      </trkpt>
      <trkpt lat="38.905254" lon="-5.7703934">
        <ele>356.0</ele>
        <time>2021-02-13T11:44:53Z</time>
      </trkpt>
      <trkpt lat="38.905273" lon="-5.7704825">
        <ele>356.0</ele>
        <time>2021-02-13T11:44:54Z</time>
      </trkpt>
      <trkpt lat="38.905293" lon="-5.7705703">
        <ele>356.0</ele>
        <time>2021-02-13T11:44:55Z</time>
      </trkpt>
      <trkpt lat="38.90531" lon="-5.770658">
        <ele>356.0</ele>
        <time>2021-02-13T11:44:56Z</time>
      </trkpt>
      <trkpt lat="38.90533" lon="-5.7707467">
        <ele>356.0</ele>
        <time>2021-02-13T11:44:57Z</time>
      </trkpt>
      <trkpt lat="38.905346" lon="-5.770838">
        <ele>356.0</ele>
        <time>2021-02-13T11:44:58Z</time>
      </trkpt>
      <trkpt lat="38.90536" lon="-5.77093">
        <ele>356.0</ele>
        <time>2021-02-13T11:44:59Z</time>
      </trkpt>
      <trkpt lat="38.905373" lon="-5.7710247">
        <ele>356.0</ele>
        <time>2021-02-13T11:45:00Z</time>
      </trkpt>
      <trkpt lat="38.90538" lon="-5.77112">
        <ele>356.0</ele>
        <time>2021-02-13T11:45:01Z</time>
      </trkpt>
      <trkpt lat="38.905384" lon="-5.771216">
        <ele>356.0</ele>
        <time>2021-02-13T11:45:02Z</time>
      </trkpt>
      <trkpt lat="38.90539" lon="-5.7713127">
        <ele>356.0</ele>
        <time>2021-02-13T11:45:03Z</time>
      </trkpt>
      <trkpt lat="38.905396" lon="-5.7714086">
        <ele>356.0</ele>
        <time>2021-02-13T11:45:04Z</time>
      </trkpt>
      <trkpt lat="38.9054" lon="-5.771506">
        <ele>356.0</ele>
        <time>2021-02-13T11:45:05Z</time>
      </trkpt>
      <trkpt lat="38.9054" lon="-5.7716007">
        <ele>356.0</ele>
        <time>2021-02-13T11:45:06Z</time>
      </trkpt>
      <trkpt lat="38.9054" lon="-5.7716923">
        <ele>355.0</ele>
        <time>2021-02-13T11:45:07Z</time>
      </trkpt>
      <trkpt lat="38.905403" lon="-5.7717824">
        <ele>355.0</ele>
        <time>2021-02-13T11:45:08Z</time>
      </trkpt>
      <trkpt lat="38.905403" lon="-5.7718754">
        <ele>355.0</ele>
        <time>2021-02-13T11:45:09Z</time>
      </trkpt>
      <trkpt lat="38.9054" lon="-5.771971">
        <ele>355.0</ele>
        <time>2021-02-13T11:45:10Z</time>
      </trkpt>
      <trkpt lat="38.9054" lon="-5.77207">
        <ele>354.0</ele>
        <time>2021-02-13T11:45:11Z</time>
      </trkpt>
      <trkpt lat="38.9054" lon="-5.772171">
        <ele>354.0</ele>
        <time>2021-02-13T11:45:12Z</time>
      </trkpt>
      <trkpt lat="38.9054" lon="-5.772272">
        <ele>354.0</ele>
        <time>2021-02-13T11:45:13Z</time>
      </trkpt>
      <trkpt lat="38.9054" lon="-5.7723703">
        <ele>353.0</ele>
        <time>2021-02-13T11:45:14Z</time>
      </trkpt>
      <trkpt lat="38.905403" lon="-5.7724676">
        <ele>353.0</ele>
        <time>2021-02-13T11:45:15Z</time>
      </trkpt>
      <trkpt lat="38.90541" lon="-5.7725663">
        <ele>353.0</ele>
        <time>2021-02-13T11:45:16Z</time>
      </trkpt>
      <trkpt lat="38.90542" lon="-5.7726665">
        <ele>353.0</ele>
        <time>2021-02-13T11:45:17Z</time>
      </trkpt>
      <trkpt lat="38.905422" lon="-5.77277">
        <ele>352.0</ele>
        <time>2021-02-13T11:45:18Z</time>
      </trkpt>
      <trkpt lat="38.905426" lon="-5.7728744">
        <ele>352.0</ele>
        <time>2021-02-13T11:45:19Z</time>
      </trkpt>
      <trkpt lat="38.90543" lon="-5.7729793">
        <ele>352.0</ele>
        <time>2021-02-13T11:45:20Z</time>
      </trkpt>
      <trkpt lat="38.90543" lon="-5.7730837">
        <ele>351.0</ele>
        <time>2021-02-13T11:45:21Z</time>
      </trkpt>
      <trkpt lat="38.905434" lon="-5.773185">
        <ele>351.0</ele>
        <time>2021-02-13T11:45:22Z</time>
      </trkpt>
      <trkpt lat="38.905437" lon="-5.773285">
        <ele>351.0</ele>
        <time>2021-02-13T11:45:23Z</time>
      </trkpt>
      <trkpt lat="38.905434" lon="-5.773385">
        <ele>350.0</ele>
        <time>2021-02-13T11:45:24Z</time>
      </trkpt>
      <trkpt lat="38.90543" lon="-5.7734866">
        <ele>350.0</ele>
        <time>2021-02-13T11:45:25Z</time>
      </trkpt>
      <trkpt lat="38.90543" lon="-5.773589">
        <ele>350.0</ele>
        <time>2021-02-13T11:45:26Z</time>
      </trkpt>
      <trkpt lat="38.905434" lon="-5.7736955">
        <ele>350.0</ele>
        <time>2021-02-13T11:45:27Z</time>
      </trkpt>
      <trkpt lat="38.905437" lon="-5.7738037">
        <ele>350.0</ele>
        <time>2021-02-13T11:45:28Z</time>
      </trkpt>
      <trkpt lat="38.905445" lon="-5.7739124">
        <ele>349.0</ele>
        <time>2021-02-13T11:45:29Z</time>
      </trkpt>
      <trkpt lat="38.905453" lon="-5.7740207">
        <ele>349.0</ele>
        <time>2021-02-13T11:45:30Z</time>
      </trkpt>
      <trkpt lat="38.905468" lon="-5.7741303">
        <ele>348.0</ele>
        <time>2021-02-13T11:45:31Z</time>
      </trkpt>
      <trkpt lat="38.905483" lon="-5.7742386">
        <ele>348.0</ele>
        <time>2021-02-13T11:45:32Z</time>
      </trkpt>
      <trkpt lat="38.9055" lon="-5.774347">
        <ele>348.0</ele>
        <time>2021-02-13T11:45:33Z</time>
      </trkpt>
      <trkpt lat="38.90552" lon="-5.774453">
        <ele>347.0</ele>
        <time>2021-02-13T11:45:34Z</time>
      </trkpt>
      <trkpt lat="38.90555" lon="-5.7745576">
        <ele>347.0</ele>
        <time>2021-02-13T11:45:35Z</time>
      </trkpt>
      <trkpt lat="38.90558" lon="-5.7746587">
        <ele>347.0</ele>
        <time>2021-02-13T11:45:36Z</time>
      </trkpt>
      <trkpt lat="38.90561" lon="-5.774757">
        <ele>347.0</ele>
        <time>2021-02-13T11:45:37Z</time>
      </trkpt>
      <trkpt lat="38.905643" lon="-5.7748556">
        <ele>346.0</ele>
        <time>2021-02-13T11:45:38Z</time>
      </trkpt>
      <trkpt lat="38.905678" lon="-5.7749534">
        <ele>346.0</ele>
        <time>2021-02-13T11:45:39Z</time>
      </trkpt>
      <trkpt lat="38.905716" lon="-5.775051">
        <ele>346.0</ele>
        <time>2021-02-13T11:45:40Z</time>
      </trkpt>
      <trkpt lat="38.905754" lon="-5.7751484">
        <ele>346.0</ele>
        <time>2021-02-13T11:45:41Z</time>
      </trkpt>
      <trkpt lat="38.905792" lon="-5.7752457">
        <ele>346.0</ele>
        <time>2021-02-13T11:45:42Z</time>
      </trkpt>
      <trkpt lat="38.90583" lon="-5.7753434">
        <ele>346.0</ele>
        <time>2021-02-13T11:45:43Z</time>
      </trkpt>
      <trkpt lat="38.905865" lon="-5.7754407">
        <ele>346.0</ele>
        <time>2021-02-13T11:45:44Z</time>
      </trkpt>
      <trkpt lat="38.905903" lon="-5.7755365">
        <ele>346.0</ele>
        <time>2021-02-13T11:45:45Z</time>
      </trkpt>
      <trkpt lat="38.905945" lon="-5.7756314">
        <ele>346.0</ele>
        <time>2021-02-13T11:45:46Z</time>
      </trkpt>
      <trkpt lat="38.905983" lon="-5.775725">
        <ele>346.0</ele>
        <time>2021-02-13T11:45:47Z</time>
      </trkpt>
      <trkpt lat="38.90602" lon="-5.7758174">
        <ele>345.0</ele>
        <time>2021-02-13T11:45:48Z</time>
      </trkpt>
      <trkpt lat="38.90606" lon="-5.7759104">
        <ele>345.0</ele>
        <time>2021-02-13T11:45:49Z</time>
      </trkpt>
      <trkpt lat="38.906105" lon="-5.7760015">
        <ele>345.0</ele>
        <time>2021-02-13T11:45:50Z</time>
      </trkpt>
      <trkpt lat="38.90615" lon="-5.776091">
        <ele>345.0</ele>
        <time>2021-02-13T11:45:51Z</time>
      </trkpt>
      <trkpt lat="38.906197" lon="-5.77618">
        <ele>344.0</ele>
        <time>2021-02-13T11:45:52Z</time>
      </trkpt>
      <trkpt lat="38.906246" lon="-5.7762656">
        <ele>344.0</ele>
        <time>2021-02-13T11:45:52Z</time>
      </trkpt>
      <trkpt lat="38.9063" lon="-5.776348">
        <ele>344.0</ele>
        <time>2021-02-13T11:45:54Z</time>
      </trkpt>
      <trkpt lat="38.906353" lon="-5.7764297">
        <ele>344.0</ele>
        <time>2021-02-13T11:45:54Z</time>
      </trkpt>
      <trkpt lat="38.906406" lon="-5.776511">
        <ele>343.0</ele>
        <time>2021-02-13T11:45:56Z</time>
      </trkpt>
      <trkpt lat="38.90646" lon="-5.7765946">
        <ele>343.0</ele>
        <time>2021-02-13T11:45:57Z</time>
      </trkpt>
      <trkpt lat="38.906513" lon="-5.776679">
        <ele>343.0</ele>
        <time>2021-02-13T11:45:58Z</time>
      </trkpt>
      <trkpt lat="38.90657" lon="-5.7767634">
        <ele>343.0</ele>
        <time>2021-02-13T11:45:59Z</time>
      </trkpt>
      <trkpt lat="38.906624" lon="-5.776848">
        <ele>342.0</ele>
        <time>2021-02-13T11:46:00Z</time>
      </trkpt>
      <trkpt lat="38.906677" lon="-5.776933">
        <ele>342.0</ele>
        <time>2021-02-13T11:46:01Z</time>
      </trkpt>
      <trkpt lat="38.90673" lon="-5.7770143">
        <ele>342.0</ele>
        <time>2021-02-13T11:46:02Z</time>
      </trkpt>
      <trkpt lat="38.90679" lon="-5.777095">
        <ele>342.0</ele>
        <time>2021-02-13T11:46:03Z</time>
      </trkpt>
      <trkpt lat="38.90685" lon="-5.777174">
        <ele>341.0</ele>
        <time>2021-02-13T11:46:04Z</time>
      </trkpt>
      <trkpt lat="38.906918" lon="-5.7772512">
        <ele>341.0</ele>
        <time>2021-02-13T11:46:05Z</time>
      </trkpt>
      <trkpt lat="38.906982" lon="-5.7773266">
        <ele>341.0</ele>
        <time>2021-02-13T11:46:06Z</time>
      </trkpt>
      <trkpt lat="38.907047" lon="-5.777401">
        <ele>340.0</ele>
        <time>2021-02-13T11:46:07Z</time>
      </trkpt>
      <trkpt lat="38.907112" lon="-5.7774725">
        <ele>340.0</ele>
        <time>2021-02-13T11:46:08Z</time>
      </trkpt>
      <trkpt lat="38.90718" lon="-5.7775426">
        <ele>340.0</ele>
        <time>2021-02-13T11:46:08Z</time>
      </trkpt>
      <trkpt lat="38.90724" lon="-5.777611">
        <ele>340.0</ele>
        <time>2021-02-13T11:46:10Z</time>
      </trkpt>
      <trkpt lat="38.907307" lon="-5.7776814">
        <ele>340.0</ele>
        <time>2021-02-13T11:46:10Z</time>
      </trkpt>
      <trkpt lat="38.90754" lon="-5.7779784">
        <ele>340.0</ele>
        <time>2021-02-13T11:46:13Z</time>
      </trkpt>
      <trkpt lat="38.907555" lon="-5.777997">
        <ele>339.0</ele>
        <time>2021-02-13T11:46:14Z</time>
      </trkpt>
      <trkpt lat="38.90758" lon="-5.7780366">
        <ele>339.0</ele>
        <time>2021-02-13T11:46:15Z</time>
      </trkpt>
      <trkpt lat="38.907616" lon="-5.7780905">
        <ele>339.0</ele>
        <time>2021-02-13T11:46:16Z</time>
      </trkpt>
      <trkpt lat="38.90766" lon="-5.7781544">
        <ele>339.0</ele>
        <time>2021-02-13T11:46:17Z</time>
      </trkpt>
      <trkpt lat="38.907707" lon="-5.7782235">
        <ele>339.0</ele>
        <time>2021-02-13T11:46:18Z</time>
      </trkpt>
      <trkpt lat="38.907753" lon="-5.7782974">
        <ele>338.0</ele>
        <time>2021-02-13T11:46:19Z</time>
      </trkpt>
      <trkpt lat="38.907803" lon="-5.7783756">
        <ele>338.0</ele>
        <time>2021-02-13T11:46:20Z</time>
      </trkpt>
      <trkpt lat="38.90785" lon="-5.7784553">
        <ele>338.0</ele>
        <time>2021-02-13T11:46:21Z</time>
      </trkpt>
      <trkpt lat="38.907898" lon="-5.7785344">
        <ele>338.0</ele>
        <time>2021-02-13T11:46:22Z</time>
      </trkpt>
      <trkpt lat="38.907944" lon="-5.7786155">
        <ele>338.0</ele>
        <time>2021-02-13T11:46:23Z</time>
      </trkpt>
      <trkpt lat="38.907993" lon="-5.778697">
        <ele>337.0</ele>
        <time>2021-02-13T11:46:24Z</time>
      </trkpt>
      <trkpt lat="38.908043" lon="-5.778779">
        <ele>337.0</ele>
        <time>2021-02-13T11:46:25Z</time>
      </trkpt>
      <trkpt lat="38.908085" lon="-5.7788615">
        <ele>337.0</ele>
        <time>2021-02-13T11:46:26Z</time>
      </trkpt>
      <trkpt lat="38.90813" lon="-5.7789445">
        <ele>337.0</ele>
        <time>2021-02-13T11:46:27Z</time>
      </trkpt>
      <trkpt lat="38.90818" lon="-5.7790284">
        <ele>337.0</ele>
        <time>2021-02-13T11:46:28Z</time>
      </trkpt>
      <trkpt lat="38.908226" lon="-5.779113">
        <ele>337.0</ele>
        <time>2021-02-13T11:46:29Z</time>
      </trkpt>
      <trkpt lat="38.908276" lon="-5.779197">
        <ele>336.0</ele>
        <time>2021-02-13T11:46:30Z</time>
      </trkpt>
      <trkpt lat="38.90832" lon="-5.779281">
        <ele>336.0</ele>
        <time>2021-02-13T11:46:31Z</time>
      </trkpt>
      <trkpt lat="38.90837" lon="-5.779365">
        <ele>336.0</ele>
        <time>2021-02-13T11:46:32Z</time>
      </trkpt>
      <trkpt lat="38.908417" lon="-5.779449">
        <ele>336.0</ele>
        <time>2021-02-13T11:46:33Z</time>
      </trkpt>
      <trkpt lat="38.908466" lon="-5.779532">
        <ele>336.0</ele>
        <time>2021-02-13T11:46:34Z</time>
      </trkpt>
      <trkpt lat="38.908512" lon="-5.7796154">
        <ele>336.0</ele>
        <time>2021-02-13T11:46:35Z</time>
      </trkpt>
      <trkpt lat="38.908566" lon="-5.7796993">
        <ele>336.0</ele>
        <time>2021-02-13T11:46:36Z</time>
      </trkpt>
      <trkpt lat="38.90861" lon="-5.779784">
        <ele>336.0</ele>
        <time>2021-02-13T11:46:37Z</time>
      </trkpt>
      <trkpt lat="38.90866" lon="-5.7798686">
        <ele>335.0</ele>
        <time>2021-02-13T11:46:38Z</time>
      </trkpt>
      <trkpt lat="38.908707" lon="-5.7799516">
        <ele>335.0</ele>
        <time>2021-02-13T11:46:39Z</time>
      </trkpt>
      <trkpt lat="38.908752" lon="-5.7800326">
        <ele>335.0</ele>
        <time>2021-02-13T11:46:40Z</time>
      </trkpt>
      <trkpt lat="38.9088" lon="-5.7801147">
        <ele>335.0</ele>
        <time>2021-02-13T11:46:41Z</time>
      </trkpt>
      <trkpt lat="38.90884" lon="-5.780197">
        <ele>334.0</ele>
        <time>2021-02-13T11:46:42Z</time>
      </trkpt>
      <trkpt lat="38.90888" lon="-5.780284">
        <ele>334.0</ele>
        <time>2021-02-13T11:46:43Z</time>
      </trkpt>
      <trkpt lat="38.908916" lon="-5.7803736">
        <ele>333.0</ele>
        <time>2021-02-13T11:46:44Z</time>
      </trkpt>
      <trkpt lat="38.90895" lon="-5.780466">
        <ele>333.0</ele>
        <time>2021-02-13T11:46:45Z</time>
      </trkpt>
      <trkpt lat="38.908985" lon="-5.780558">
        <ele>333.0</ele>
        <time>2021-02-13T11:46:46Z</time>
      </trkpt>
      <trkpt lat="38.90902" lon="-5.780651">
        <ele>332.0</ele>
        <time>2021-02-13T11:46:47Z</time>
      </trkpt>
      <trkpt lat="38.90905" lon="-5.780745">
        <ele>332.0</ele>
        <time>2021-02-13T11:46:48Z</time>
      </trkpt>
      <trkpt lat="38.909084" lon="-5.7808356">
        <ele>332.0</ele>
        <time>2021-02-13T11:46:49Z</time>
      </trkpt>
      <trkpt lat="38.90912" lon="-5.780928">
        <ele>332.0</ele>
        <time>2021-02-13T11:46:50Z</time>
      </trkpt>
      <trkpt lat="38.909153" lon="-5.7810216">
        <ele>331.0</ele>
        <time>2021-02-13T11:46:51Z</time>
      </trkpt>
      <trkpt lat="38.909187" lon="-5.7811136">
        <ele>331.0</ele>
        <time>2021-02-13T11:46:52Z</time>
      </trkpt>
      <trkpt lat="38.90923" lon="-5.7812066">
        <ele>331.0</ele>
        <time>2021-02-13T11:46:53Z</time>
      </trkpt>
      <trkpt lat="38.909267" lon="-5.7812977">
        <ele>331.0</ele>
        <time>2021-02-13T11:46:54Z</time>
      </trkpt>
      <trkpt lat="38.909306" lon="-5.78139">
        <ele>331.0</ele>
        <time>2021-02-13T11:46:55Z</time>
      </trkpt>
      <trkpt lat="38.909348" lon="-5.7814837">
        <ele>331.0</ele>
        <time>2021-02-13T11:46:56Z</time>
      </trkpt>
      <trkpt lat="38.90939" lon="-5.781576">
        <ele>331.0</ele>
        <time>2021-02-13T11:46:57Z</time>
      </trkpt>
      <trkpt lat="38.90943" lon="-5.7816634">
        <ele>331.0</ele>
        <time>2021-02-13T11:46:58Z</time>
      </trkpt>
      <trkpt lat="38.909477" lon="-5.7817583">
        <ele>331.0</ele>
        <time>2021-02-13T11:46:59Z</time>
      </trkpt>
      <trkpt lat="38.909523" lon="-5.7818503">
        <ele>331.0</ele>
        <time>2021-02-13T11:47:00Z</time>
      </trkpt>
      <trkpt lat="38.90957" lon="-5.7819405">
        <ele>331.0</ele>
        <time>2021-02-13T11:47:01Z</time>
      </trkpt>
      <trkpt lat="38.90961" lon="-5.782023">
        <ele>331.0</ele>
        <time>2021-02-13T11:47:02Z</time>
      </trkpt>
      <trkpt lat="38.909657" lon="-5.7821145">
        <ele>331.0</ele>
        <time>2021-02-13T11:47:03Z</time>
      </trkpt>
      <trkpt lat="38.909695" lon="-5.782208">
        <ele>331.0</ele>
        <time>2021-02-13T11:47:04Z</time>
      </trkpt>
      <trkpt lat="38.909737" lon="-5.7823014">
        <ele>331.0</ele>
        <time>2021-02-13T11:47:05Z</time>
      </trkpt>
      <trkpt lat="38.909775" lon="-5.7823944">
        <ele>331.0</ele>
        <time>2021-02-13T11:47:06Z</time>
      </trkpt>
      <trkpt lat="38.909813" lon="-5.782487">
        <ele>330.0</ele>
        <time>2021-02-13T11:47:07Z</time>
      </trkpt>
      <trkpt lat="38.909847" lon="-5.7825794">
        <ele>330.0</ele>
        <time>2021-02-13T11:47:08Z</time>
      </trkpt>
      <trkpt lat="38.90988" lon="-5.782672">
        <ele>330.0</ele>
        <time>2021-02-13T11:47:09Z</time>
      </trkpt>
      <trkpt lat="38.90992" lon="-5.7827635">
        <ele>330.0</ele>
        <time>2021-02-13T11:47:10Z</time>
      </trkpt>
      <trkpt lat="38.909958" lon="-5.782855">
        <ele>330.0</ele>
        <time>2021-02-13T11:47:11Z</time>
      </trkpt>
      <trkpt lat="38.909996" lon="-5.782946">
        <ele>329.0</ele>
        <time>2021-02-13T11:47:12Z</time>
      </trkpt>
      <trkpt lat="38.910038" lon="-5.783035">
        <ele>329.0</ele>
        <time>2021-02-13T11:47:13Z</time>
      </trkpt>
      <trkpt lat="38.91008" lon="-5.783123">
        <ele>329.0</ele>
        <time>2021-02-13T11:47:14Z</time>
      </trkpt>
      <trkpt lat="38.910122" lon="-5.7832103">
        <ele>329.0</ele>
        <time>2021-02-13T11:47:15Z</time>
      </trkpt>
      <trkpt lat="38.91017" lon="-5.783293">
        <ele>329.0</ele>
        <time>2021-02-13T11:47:16Z</time>
      </trkpt>
      <trkpt lat="38.910225" lon="-5.783373">
        <ele>328.0</ele>
        <time>2021-02-13T11:47:17Z</time>
      </trkpt>
      <trkpt lat="38.91028" lon="-5.7834496">
        <ele>328.0</ele>
        <time>2021-02-13T11:47:18Z</time>
      </trkpt>
      <trkpt lat="38.91033" lon="-5.783521">
        <ele>328.0</ele>
        <time>2021-02-13T11:47:19Z</time>
      </trkpt>
      <trkpt lat="38.910385" lon="-5.783589">
        <ele>328.0</ele>
        <time>2021-02-13T11:47:20Z</time>
      </trkpt>
      <trkpt lat="38.910442" lon="-5.7836523">
        <ele>328.0</ele>
        <time>2021-02-13T11:47:21Z</time>
      </trkpt>
      <trkpt lat="38.910496" lon="-5.7837133">
        <ele>328.0</ele>
        <time>2021-02-13T11:47:22Z</time>
      </trkpt>
      <trkpt lat="38.91055" lon="-5.783774">
        <ele>328.0</ele>
        <time>2021-02-13T11:47:23Z</time>
      </trkpt>
      <trkpt lat="38.910606" lon="-5.7838335">
        <ele>328.0</ele>
        <time>2021-02-13T11:47:23Z</time>
      </trkpt>
      <trkpt lat="38.91066" lon="-5.7838926">
        <ele>328.0</ele>
        <time>2021-02-13T11:47:25Z</time>
      </trkpt>
      <trkpt lat="38.910713" lon="-5.783949">
        <ele>328.0</ele>
        <time>2021-02-13T11:47:26Z</time>
      </trkpt>
      <trkpt lat="38.91077" lon="-5.7840047">
        <ele>328.0</ele>
        <time>2021-02-13T11:47:27Z</time>
      </trkpt>
      <trkpt lat="38.910824" lon="-5.784058">
        <ele>328.0</ele>
        <time>2021-02-13T11:47:28Z</time>
      </trkpt>
      <trkpt lat="38.910877" lon="-5.7841096">
        <ele>328.0</ele>
        <time>2021-02-13T11:47:29Z</time>
      </trkpt>
      <trkpt lat="38.910923" lon="-5.784159">
        <ele>328.0</ele>
        <time>2021-02-13T11:47:30Z</time>
      </trkpt>
      <trkpt lat="38.910973" lon="-5.784208">
        <ele>328.0</ele>
        <time>2021-02-13T11:47:31Z</time>
      </trkpt>
      <trkpt lat="38.91102" lon="-5.784258">
        <ele>328.0</ele>
        <time>2021-02-13T11:47:32Z</time>
      </trkpt>
      <trkpt lat="38.911064" lon="-5.7843046">
        <ele>329.0</ele>
        <time>2021-02-13T11:47:33Z</time>
      </trkpt>
      <trkpt lat="38.911106" lon="-5.7843494">
        <ele>329.0</ele>
        <time>2021-02-13T11:47:34Z</time>
      </trkpt>
      <trkpt lat="38.911144" lon="-5.78439">
        <ele>329.0</ele>
        <time>2021-02-13T11:47:34Z</time>
      </trkpt>
      <trkpt lat="38.911182" lon="-5.7844276">
        <ele>329.0</ele>
        <time>2021-02-13T11:47:35Z</time>
      </trkpt>
      <trkpt lat="38.911217" lon="-5.784463">
        <ele>329.0</ele>
        <time>2021-02-13T11:47:36Z</time>
      </trkpt>
      <trkpt lat="38.91125" lon="-5.7844977">
        <ele>330.0</ele>
        <time>2021-02-13T11:47:37Z</time>
      </trkpt>
      <trkpt lat="38.91128" lon="-5.784532">
        <ele>330.0</ele>
        <time>2021-02-13T11:47:38Z</time>
      </trkpt>
      <trkpt lat="38.911312" lon="-5.784566">
        <ele>330.0</ele>
        <time>2021-02-13T11:47:39Z</time>
      </trkpt>
      <trkpt lat="38.911346" lon="-5.7846017">
        <ele>330.0</ele>
        <time>2021-02-13T11:47:40Z</time>
      </trkpt>
      <trkpt lat="38.911373" lon="-5.784638">
        <ele>330.0</ele>
        <time>2021-02-13T11:47:41Z</time>
      </trkpt>
      <trkpt lat="38.9114" lon="-5.7846713">
        <ele>330.0</ele>
        <time>2021-02-13T11:47:42Z</time>
      </trkpt>
      <trkpt lat="38.91143" lon="-5.784705">
        <ele>331.0</ele>
        <time>2021-02-13T11:47:43Z</time>
      </trkpt>
      <trkpt lat="38.911453" lon="-5.784741">
        <ele>331.0</ele>
        <time>2021-02-13T11:47:44Z</time>
      </trkpt>
      <trkpt lat="38.91148" lon="-5.7847776">
        <ele>331.0</ele>
        <time>2021-02-13T11:47:45Z</time>
      </trkpt>
      <trkpt lat="38.911507" lon="-5.784815">
        <ele>331.0</ele>
        <time>2021-02-13T11:47:46Z</time>
      </trkpt>
      <trkpt lat="38.91153" lon="-5.784848">
        <ele>331.0</ele>
        <time>2021-02-13T11:47:47Z</time>
      </trkpt>
      <trkpt lat="38.911552" lon="-5.784883">
        <ele>332.0</ele>
        <time>2021-02-13T11:47:48Z</time>
      </trkpt>
      <trkpt lat="38.911575" lon="-5.78492">
        <ele>332.0</ele>
        <time>2021-02-13T11:47:49Z</time>
      </trkpt>
      <trkpt lat="38.9116" lon="-5.784965">
        <ele>332.0</ele>
        <time>2021-02-13T11:47:50Z</time>
      </trkpt>
      <trkpt lat="38.911625" lon="-5.7850122">
        <ele>332.0</ele>
        <time>2021-02-13T11:47:51Z</time>
      </trkpt>
      <trkpt lat="38.911648" lon="-5.7850604">
        <ele>332.0</ele>
        <time>2021-02-13T11:47:52Z</time>
      </trkpt>
      <trkpt lat="38.91167" lon="-5.785112">
        <ele>333.0</ele>
        <time>2021-02-13T11:47:53Z</time>
      </trkpt>
      <trkpt lat="38.911694" lon="-5.78517">
        <ele>333.0</ele>
        <time>2021-02-13T11:47:54Z</time>
      </trkpt>
      <trkpt lat="38.91172" lon="-5.785227">
        <ele>333.0</ele>
        <time>2021-02-13T11:47:55Z</time>
      </trkpt>
      <trkpt lat="38.91174" lon="-5.785282">
        <ele>333.0</ele>
        <time>2021-02-13T11:47:56Z</time>
      </trkpt>
      <trkpt lat="38.911762" lon="-5.785335">
        <ele>334.0</ele>
        <time>2021-02-13T11:47:57Z</time>
      </trkpt>
      <trkpt lat="38.91178" lon="-5.7853823">
        <ele>334.0</ele>
        <time>2021-02-13T11:47:58Z</time>
      </trkpt>
      <trkpt lat="38.9118" lon="-5.785431">
        <ele>334.0</ele>
        <time>2021-02-13T11:47:59Z</time>
      </trkpt>
      <trkpt lat="38.911823" lon="-5.785483">
        <ele>334.0</ele>
        <time>2021-02-13T11:48:00Z</time>
      </trkpt>
      <trkpt lat="38.911842" lon="-5.785528">
        <ele>334.0</ele>
        <time>2021-02-13T11:48:01Z</time>
      </trkpt>
      <trkpt lat="38.91186" lon="-5.785575">
        <ele>334.0</ele>
        <time>2021-02-13T11:48:02Z</time>
      </trkpt>
      <trkpt lat="38.91188" lon="-5.7856226">
        <ele>334.0</ele>
        <time>2021-02-13T11:48:03Z</time>
      </trkpt>
      <trkpt lat="38.911896" lon="-5.785668">
        <ele>334.0</ele>
        <time>2021-02-13T11:48:04Z</time>
      </trkpt>
      <trkpt lat="38.911915" lon="-5.7857127">
        <ele>335.0</ele>
        <time>2021-02-13T11:48:05Z</time>
      </trkpt>
      <trkpt lat="38.91193" lon="-5.7857575">
        <ele>335.0</ele>
        <time>2021-02-13T11:48:06Z</time>
      </trkpt>
      <trkpt lat="38.91195" lon="-5.785801">
        <ele>335.0</ele>
        <time>2021-02-13T11:48:07Z</time>
      </trkpt>
      <trkpt lat="38.91197" lon="-5.7858453">
        <ele>335.0</ele>
        <time>2021-02-13T11:48:08Z</time>
      </trkpt>
      <trkpt lat="38.911983" lon="-5.7858887">
        <ele>336.0</ele>
        <time>2021-02-13T11:48:09Z</time>
      </trkpt>
      <trkpt lat="38.912006" lon="-5.7859316">
        <ele>336.0</ele>
        <time>2021-02-13T11:48:10Z</time>
      </trkpt>
      <trkpt lat="38.91202" lon="-5.7859745">
        <ele>336.0</ele>
        <time>2021-02-13T11:48:11Z</time>
      </trkpt>
      <trkpt lat="38.91204" lon="-5.7860174">
        <ele>336.0</ele>
        <time>2021-02-13T11:48:12Z</time>
      </trkpt>
      <trkpt lat="38.91206" lon="-5.786061">
        <ele>336.0</ele>
        <time>2021-02-13T11:48:13Z</time>
      </trkpt>
      <trkpt lat="38.912083" lon="-5.7861032">
        <ele>336.0</ele>
        <time>2021-02-13T11:48:14Z</time>
      </trkpt>
      <trkpt lat="38.912106" lon="-5.7861457">
        <ele>336.0</ele>
        <time>2021-02-13T11:48:15Z</time>
      </trkpt>
      <trkpt lat="38.91213" lon="-5.7861934">
        <ele>336.0</ele>
        <time>2021-02-13T11:48:16Z</time>
      </trkpt>
      <trkpt lat="38.91215" lon="-5.78624">
        <ele>336.0</ele>
        <time>2021-02-13T11:48:17Z</time>
      </trkpt>
      <trkpt lat="38.912178" lon="-5.786288">
        <ele>336.0</ele>
        <time>2021-02-13T11:48:18Z</time>
      </trkpt>
      <trkpt lat="38.9122" lon="-5.7863317">
        <ele>336.0</ele>
        <time>2021-02-13T11:48:19Z</time>
      </trkpt>
      <trkpt lat="38.912228" lon="-5.7863765">
        <ele>336.0</ele>
        <time>2021-02-13T11:48:20Z</time>
      </trkpt>
      <trkpt lat="38.91226" lon="-5.786426">
        <ele>336.0</ele>
        <time>2021-02-13T11:48:21Z</time>
      </trkpt>
      <trkpt lat="38.912292" lon="-5.7864804">
        <ele>336.0</ele>
        <time>2021-02-13T11:48:22Z</time>
      </trkpt>
      <trkpt lat="38.912327" lon="-5.7865334">
        <ele>336.0</ele>
        <time>2021-02-13T11:48:23Z</time>
      </trkpt>
      <trkpt lat="38.912365" lon="-5.7865915">
        <ele>336.0</ele>
        <time>2021-02-13T11:48:24Z</time>
      </trkpt>
      <trkpt lat="38.912403" lon="-5.7866445">
        <ele>336.0</ele>
        <time>2021-02-13T11:48:25Z</time>
      </trkpt>
      <trkpt lat="38.91244" lon="-5.786699">
        <ele>335.0</ele>
        <time>2021-02-13T11:48:26Z</time>
      </trkpt>
      <trkpt lat="38.912487" lon="-5.7867618">
        <ele>335.0</ele>
        <time>2021-02-13T11:48:27Z</time>
      </trkpt>
      <trkpt lat="38.91253" lon="-5.7868204">
        <ele>334.0</ele>
        <time>2021-02-13T11:48:28Z</time>
      </trkpt>
      <trkpt lat="38.912575" lon="-5.786887">
        <ele>334.0</ele>
        <time>2021-02-13T11:48:29Z</time>
      </trkpt>
      <trkpt lat="38.91262" lon="-5.7869554">
        <ele>333.0</ele>
        <time>2021-02-13T11:48:30Z</time>
      </trkpt>
      <trkpt lat="38.912674" lon="-5.787032">
        <ele>333.0</ele>
        <time>2021-02-13T11:48:31Z</time>
      </trkpt>
      <trkpt lat="38.91273" lon="-5.78711">
        <ele>333.0</ele>
        <time>2021-02-13T11:48:32Z</time>
      </trkpt>
      <trkpt lat="38.912785" lon="-5.787184">
        <ele>333.0</ele>
        <time>2021-02-13T11:48:33Z</time>
      </trkpt>
      <trkpt lat="38.912834" lon="-5.787261">
        <ele>333.0</ele>
        <time>2021-02-13T11:48:34Z</time>
      </trkpt>
      <trkpt lat="38.912895" lon="-5.7873397">
        <ele>332.0</ele>
        <time>2021-02-13T11:48:35Z</time>
      </trkpt>
      <trkpt lat="38.912952" lon="-5.7874207">
        <ele>332.0</ele>
        <time>2021-02-13T11:48:36Z</time>
      </trkpt>
      <trkpt lat="38.91302" lon="-5.787512">
        <ele>332.0</ele>
        <time>2021-02-13T11:48:37Z</time>
      </trkpt>
      <trkpt lat="38.91309" lon="-5.787604">
        <ele>331.0</ele>
        <time>2021-02-13T11:48:38Z</time>
      </trkpt>
      <trkpt lat="38.913155" lon="-5.7876916">
        <ele>331.0</ele>
        <time>2021-02-13T11:48:39Z</time>
      </trkpt>
      <trkpt lat="38.913227" lon="-5.787789">
        <ele>331.0</ele>
        <time>2021-02-13T11:48:40Z</time>
      </trkpt>
      <trkpt lat="38.913292" lon="-5.7878795">
        <ele>330.0</ele>
        <time>2021-02-13T11:48:41Z</time>
      </trkpt>
      <trkpt lat="38.91336" lon="-5.7879725">
        <ele>330.0</ele>
        <time>2021-02-13T11:48:42Z</time>
      </trkpt>
      <trkpt lat="38.91343" lon="-5.7880735">
        <ele>329.0</ele>
        <time>2021-02-13T11:48:43Z</time>
      </trkpt>
      <trkpt lat="38.9135" lon="-5.7881703">
        <ele>329.0</ele>
        <time>2021-02-13T11:48:44Z</time>
      </trkpt>
      <trkpt lat="38.913563" lon="-5.78827">
        <ele>328.0</ele>
        <time>2021-02-13T11:48:45Z</time>
      </trkpt>
      <trkpt lat="38.913628" lon="-5.788373">
        <ele>328.0</ele>
        <time>2021-02-13T11:48:46Z</time>
      </trkpt>
      <trkpt lat="38.913696" lon="-5.7884865">
        <ele>327.0</ele>
        <time>2021-02-13T11:48:47Z</time>
      </trkpt>
      <trkpt lat="38.913757" lon="-5.7886004">
        <ele>327.0</ele>
        <time>2021-02-13T11:48:48Z</time>
      </trkpt>
      <trkpt lat="38.913822" lon="-5.7887115">
        <ele>326.0</ele>
        <time>2021-02-13T11:48:49Z</time>
      </trkpt>
      <trkpt lat="38.91388" lon="-5.788814">
        <ele>326.0</ele>
        <time>2021-02-13T11:48:50Z</time>
      </trkpt>
      <trkpt lat="38.913937" lon="-5.7889166">
        <ele>325.0</ele>
        <time>2021-02-13T11:48:51Z</time>
      </trkpt>
      <trkpt lat="38.91399" lon="-5.78902">
        <ele>325.0</ele>
        <time>2021-02-13T11:48:52Z</time>
      </trkpt>
      <trkpt lat="38.914055" lon="-5.7891307">
        <ele>324.0</ele>
        <time>2021-02-13T11:48:53Z</time>
      </trkpt>
      <trkpt lat="38.914112" lon="-5.78924">
        <ele>324.0</ele>
        <time>2021-02-13T11:48:54Z</time>
      </trkpt>
      <trkpt lat="38.91417" lon="-5.78934">
        <ele>324.0</ele>
        <time>2021-02-13T11:48:55Z</time>
      </trkpt>
      <trkpt lat="38.914227" lon="-5.789446">
        <ele>323.0</ele>
        <time>2021-02-13T11:48:56Z</time>
      </trkpt>
      <trkpt lat="38.914276" lon="-5.7895417">
        <ele>323.0</ele>
        <time>2021-02-13T11:48:57Z</time>
      </trkpt>
      <trkpt lat="38.91433" lon="-5.7896447">
        <ele>323.0</ele>
        <time>2021-02-13T11:48:58Z</time>
      </trkpt>
      <trkpt lat="38.91438" lon="-5.789745">
        <ele>323.0</ele>
        <time>2021-02-13T11:48:59Z</time>
      </trkpt>
      <trkpt lat="38.91442" lon="-5.7898383">
        <ele>323.0</ele>
        <time>2021-02-13T11:49:00Z</time>
      </trkpt>
      <trkpt lat="38.914467" lon="-5.78994">
        <ele>322.0</ele>
        <time>2021-02-13T11:49:01Z</time>
      </trkpt>
      <trkpt lat="38.91451" lon="-5.790034">
        <ele>322.0</ele>
        <time>2021-02-13T11:49:02Z</time>
      </trkpt>
      <trkpt lat="38.91455" lon="-5.790129">
        <ele>322.0</ele>
        <time>2021-02-13T11:49:03Z</time>
      </trkpt>
      <trkpt lat="38.91459" lon="-5.7902303">
        <ele>322.0</ele>
        <time>2021-02-13T11:49:04Z</time>
      </trkpt>
      <trkpt lat="38.914623" lon="-5.7903247">
        <ele>322.0</ele>
        <time>2021-02-13T11:49:05Z</time>
      </trkpt>
      <trkpt lat="38.914654" lon="-5.790416">
        <ele>321.0</ele>
        <time>2021-02-13T11:49:06Z</time>
      </trkpt>
      <trkpt lat="38.91479" lon="-5.790839">
        <ele>321.0</ele>
        <time>2021-02-13T11:49:08Z</time>
      </trkpt>
      <trkpt lat="38.9148" lon="-5.7908564">
        <ele>321.0</ele>
        <time>2021-02-13T11:49:09Z</time>
      </trkpt>
      <trkpt lat="38.91481" lon="-5.7908993">
        <ele>321.0</ele>
        <time>2021-02-13T11:49:10Z</time>
      </trkpt>
      <trkpt lat="38.914833" lon="-5.79096">
        <ele>321.0</ele>
        <time>2021-02-13T11:49:11Z</time>
      </trkpt>
      <trkpt lat="38.914856" lon="-5.7910337">
        <ele>321.0</ele>
        <time>2021-02-13T11:49:12Z</time>
      </trkpt>
      <trkpt lat="38.91488" lon="-5.7911086">
        <ele>321.0</ele>
        <time>2021-02-13T11:49:13Z</time>
      </trkpt>
      <trkpt lat="38.9149" lon="-5.7911887">
        <ele>320.0</ele>
        <time>2021-02-13T11:49:14Z</time>
      </trkpt>
      <trkpt lat="38.914925" lon="-5.791278">
        <ele>320.0</ele>
        <time>2021-02-13T11:49:15Z</time>
      </trkpt>
      <trkpt lat="38.914948" lon="-5.7913685">
        <ele>320.0</ele>
        <time>2021-02-13T11:49:16Z</time>
      </trkpt>
      <trkpt lat="38.914974" lon="-5.791458">
        <ele>320.0</ele>
        <time>2021-02-13T11:49:17Z</time>
      </trkpt>
      <trkpt lat="38.914997" lon="-5.791541">
        <ele>320.0</ele>
        <time>2021-02-13T11:49:18Z</time>
      </trkpt>
      <trkpt lat="38.915016" lon="-5.791634">
        <ele>319.0</ele>
        <time>2021-02-13T11:49:19Z</time>
      </trkpt>
      <trkpt lat="38.91503" lon="-5.791728">
        <ele>319.0</ele>
        <time>2021-02-13T11:49:20Z</time>
      </trkpt>
      <trkpt lat="38.915043" lon="-5.791819">
        <ele>319.0</ele>
        <time>2021-02-13T11:49:21Z</time>
      </trkpt>
      <trkpt lat="38.915054" lon="-5.7919154">
        <ele>319.0</ele>
        <time>2021-02-13T11:49:22Z</time>
      </trkpt>
      <trkpt lat="38.91506" lon="-5.7920165">
        <ele>319.0</ele>
        <time>2021-02-13T11:49:23Z</time>
      </trkpt>
      <trkpt lat="38.915066" lon="-5.792127">
        <ele>318.0</ele>
        <time>2021-02-13T11:49:24Z</time>
      </trkpt>
      <trkpt lat="38.91507" lon="-5.792238">
        <ele>318.0</ele>
        <time>2021-02-13T11:49:25Z</time>
      </trkpt>
      <trkpt lat="38.91507" lon="-5.7923503">
        <ele>317.0</ele>
        <time>2021-02-13T11:49:26Z</time>
      </trkpt>
      <trkpt lat="38.915073" lon="-5.7924542">
        <ele>317.0</ele>
        <time>2021-02-13T11:49:27Z</time>
      </trkpt>
      <trkpt lat="38.915073" lon="-5.79256">
        <ele>317.0</ele>
        <time>2021-02-13T11:49:28Z</time>
      </trkpt>
      <trkpt lat="38.915073" lon="-5.792674">
        <ele>316.0</ele>
        <time>2021-02-13T11:49:29Z</time>
      </trkpt>
      <trkpt lat="38.915073" lon="-5.7927794">
        <ele>316.0</ele>
        <time>2021-02-13T11:49:30Z</time>
      </trkpt>
      <trkpt lat="38.915073" lon="-5.792894">
        <ele>316.0</ele>
        <time>2021-02-13T11:49:31Z</time>
      </trkpt>
      <trkpt lat="38.915073" lon="-5.793">
        <ele>315.0</ele>
        <time>2021-02-13T11:49:32Z</time>
      </trkpt>
      <trkpt lat="38.915073" lon="-5.793106">
        <ele>315.0</ele>
        <time>2021-02-13T11:49:33Z</time>
      </trkpt>
      <trkpt lat="38.915073" lon="-5.793212">
        <ele>314.0</ele>
        <time>2021-02-13T11:49:34Z</time>
      </trkpt>
      <trkpt lat="38.915073" lon="-5.793326">
        <ele>314.0</ele>
        <time>2021-02-13T11:49:35Z</time>
      </trkpt>
      <trkpt lat="38.915073" lon="-5.7934375">
        <ele>314.0</ele>
        <time>2021-02-13T11:49:36Z</time>
      </trkpt>
      <trkpt lat="38.915077" lon="-5.793539">
        <ele>313.0</ele>
        <time>2021-02-13T11:49:37Z</time>
      </trkpt>
      <trkpt lat="38.915073" lon="-5.793643">
        <ele>313.0</ele>
        <time>2021-02-13T11:49:38Z</time>
      </trkpt>
      <trkpt lat="38.915073" lon="-5.793748">
        <ele>313.0</ele>
        <time>2021-02-13T11:49:39Z</time>
      </trkpt>
      <trkpt lat="38.915073" lon="-5.7938523">
        <ele>312.0</ele>
        <time>2021-02-13T11:49:40Z</time>
      </trkpt>
      <trkpt lat="38.915073" lon="-5.7939653">
        <ele>312.0</ele>
        <time>2021-02-13T11:49:41Z</time>
      </trkpt>
      <trkpt lat="38.915077" lon="-5.7940693">
        <ele>311.0</ele>
        <time>2021-02-13T11:49:42Z</time>
      </trkpt>
      <trkpt lat="38.91508" lon="-5.7941732">
        <ele>311.0</ele>
        <time>2021-02-13T11:49:43Z</time>
      </trkpt>
      <trkpt lat="38.91509" lon="-5.7942786">
        <ele>311.0</ele>
        <time>2021-02-13T11:49:44Z</time>
      </trkpt>
      <trkpt lat="38.915096" lon="-5.7943897">
        <ele>310.0</ele>
        <time>2021-02-13T11:49:45Z</time>
      </trkpt>
      <trkpt lat="38.91511" lon="-5.7944994">
        <ele>310.0</ele>
        <time>2021-02-13T11:49:46Z</time>
      </trkpt>
      <trkpt lat="38.915123" lon="-5.7946005">
        <ele>310.0</ele>
        <time>2021-02-13T11:49:47Z</time>
      </trkpt>
      <trkpt lat="38.915142" lon="-5.7947">
        <ele>310.0</ele>
        <time>2021-02-13T11:49:48Z</time>
      </trkpt>
      <trkpt lat="38.915157" lon="-5.7948008">
        <ele>310.0</ele>
        <time>2021-02-13T11:49:49Z</time>
      </trkpt>
      <trkpt lat="38.91518" lon="-5.7949">
        <ele>310.0</ele>
        <time>2021-02-13T11:49:50Z</time>
      </trkpt>
      <trkpt lat="38.91521" lon="-5.795005">
        <ele>310.0</ele>
        <time>2021-02-13T11:49:51Z</time>
      </trkpt>
      <trkpt lat="38.915237" lon="-5.7951">
        <ele>310.0</ele>
        <time>2021-02-13T11:49:52Z</time>
      </trkpt>
      <trkpt lat="38.915268" lon="-5.795195">
        <ele>310.0</ele>
        <time>2021-02-13T11:49:53Z</time>
      </trkpt>
      <trkpt lat="38.915302" lon="-5.7952876">
        <ele>310.0</ele>
        <time>2021-02-13T11:49:54Z</time>
      </trkpt>
      <trkpt lat="38.915337" lon="-5.795377">
        <ele>309.0</ele>
        <time>2021-02-13T11:49:55Z</time>
      </trkpt>
      <trkpt lat="38.915375" lon="-5.79547">
        <ele>309.0</ele>
        <time>2021-02-13T11:49:56Z</time>
      </trkpt>
      <trkpt lat="38.91541" lon="-5.7955537">
        <ele>309.0</ele>
        <time>2021-02-13T11:49:57Z</time>
      </trkpt>
      <trkpt lat="38.91545" lon="-5.7956347">
        <ele>308.0</ele>
        <time>2021-02-13T11:49:58Z</time>
      </trkpt>
      <trkpt lat="38.915493" lon="-5.7957087">
        <ele>308.0</ele>
        <time>2021-02-13T11:49:59Z</time>
      </trkpt>
      <trkpt lat="38.915543" lon="-5.795785">
        <ele>308.0</ele>
        <time>2021-02-13T11:50:00Z</time>
      </trkpt>
      <trkpt lat="38.915596" lon="-5.7958674">
        <ele>307.0</ele>
        <time>2021-02-13T11:50:01Z</time>
      </trkpt>
      <trkpt lat="38.91564" lon="-5.7959456">
        <ele>307.0</ele>
        <time>2021-02-13T11:50:02Z</time>
      </trkpt>
      <trkpt lat="38.915688" lon="-5.7960167">
        <ele>307.0</ele>
        <time>2021-02-13T11:50:02Z</time>
      </trkpt>
      <trkpt lat="38.91573" lon="-5.796089">
        <ele>307.0</ele>
        <time>2021-02-13T11:50:04Z</time>
      </trkpt>
      <trkpt lat="38.915775" lon="-5.796164">
        <ele>306.0</ele>
        <time>2021-02-13T11:50:05Z</time>
      </trkpt>
      <trkpt lat="38.915817" lon="-5.7962418">
        <ele>306.0</ele>
        <time>2021-02-13T11:50:06Z</time>
      </trkpt>
      <trkpt lat="38.915867" lon="-5.7963266">
        <ele>306.0</ele>
        <time>2021-02-13T11:50:07Z</time>
      </trkpt>
      <trkpt lat="38.915913" lon="-5.796409">
        <ele>305.0</ele>
        <time>2021-02-13T11:50:08Z</time>
      </trkpt>
      <trkpt lat="38.91596" lon="-5.796485">
        <ele>305.0</ele>
        <time>2021-02-13T11:50:09Z</time>
      </trkpt>
      <trkpt lat="38.916004" lon="-5.7965612">
        <ele>305.0</ele>
        <time>2021-02-13T11:50:10Z</time>
      </trkpt>
      <trkpt lat="38.91605" lon="-5.7966385">
        <ele>304.0</ele>
        <time>2021-02-13T11:50:11Z</time>
      </trkpt>
      <trkpt lat="38.9161" lon="-5.7967205">
        <ele>304.0</ele>
        <time>2021-02-13T11:50:12Z</time>
      </trkpt>
      <trkpt lat="38.916145" lon="-5.7967963">
        <ele>304.0</ele>
        <time>2021-02-13T11:50:13Z</time>
      </trkpt>
      <trkpt lat="38.916195" lon="-5.79687">
        <ele>304.0</ele>
        <time>2021-02-13T11:50:14Z</time>
      </trkpt>
      <trkpt lat="38.916237" lon="-5.796944">
        <ele>304.0</ele>
        <time>2021-02-13T11:50:15Z</time>
      </trkpt>
      <trkpt lat="38.916286" lon="-5.797023">
        <ele>304.0</ele>
        <time>2021-02-13T11:50:16Z</time>
      </trkpt>
      <trkpt lat="38.916332" lon="-5.7971">
        <ele>304.0</ele>
        <time>2021-02-13T11:50:17Z</time>
      </trkpt>
      <trkpt lat="38.916378" lon="-5.7971725">
        <ele>303.0</ele>
        <time>2021-02-13T11:50:18Z</time>
      </trkpt>
      <trkpt lat="38.916424" lon="-5.797245">
        <ele>303.0</ele>
        <time>2021-02-13T11:50:19Z</time>
      </trkpt>
      <trkpt lat="38.91647" lon="-5.797321">
        <ele>303.0</ele>
        <time>2021-02-13T11:50:20Z</time>
      </trkpt>
      <trkpt lat="38.91651" lon="-5.7973914">
        <ele>303.0</ele>
        <time>2021-02-13T11:50:21Z</time>
      </trkpt>
      <trkpt lat="38.91656" lon="-5.797466">
        <ele>303.0</ele>
        <time>2021-02-13T11:50:22Z</time>
      </trkpt>
      <trkpt lat="38.916603" lon="-5.797538">
        <ele>303.0</ele>
        <time>2021-02-13T11:50:23Z</time>
      </trkpt>
      <trkpt lat="38.916645" lon="-5.797608">
        <ele>303.0</ele>
        <time>2021-02-13T11:50:24Z</time>
      </trkpt>
      <trkpt lat="38.916687" lon="-5.7976775">
        <ele>303.0</ele>
        <time>2021-02-13T11:50:25Z</time>
      </trkpt>
      <trkpt lat="38.916725" lon="-5.7977448">
        <ele>303.0</ele>
        <time>2021-02-13T11:50:26Z</time>
      </trkpt>
      <trkpt lat="38.916767" lon="-5.79781">
        <ele>303.0</ele>
        <time>2021-02-13T11:50:27Z</time>
      </trkpt>
      <trkpt lat="38.916805" lon="-5.7978735">
        <ele>302.0</ele>
        <time>2021-02-13T11:50:28Z</time>
      </trkpt>
      <trkpt lat="38.91684" lon="-5.797936">
        <ele>302.0</ele>
        <time>2021-02-13T11:50:29Z</time>
      </trkpt>
      <trkpt lat="38.916878" lon="-5.797997">
        <ele>302.0</ele>
        <time>2021-02-13T11:50:30Z</time>
      </trkpt>
      <trkpt lat="38.916916" lon="-5.7980537">
        <ele>302.0</ele>
        <time>2021-02-13T11:50:31Z</time>
      </trkpt>
      <trkpt lat="38.91695" lon="-5.798108">
        <ele>302.0</ele>
        <time>2021-02-13T11:50:32Z</time>
      </trkpt>
      <trkpt lat="38.91698" lon="-5.798159">
        <ele>302.0</ele>
        <time>2021-02-13T11:50:33Z</time>
      </trkpt>
      <trkpt lat="38.917004" lon="-5.7982073">
        <ele>302.0</ele>
        <time>2021-02-13T11:50:34Z</time>
      </trkpt>
      <trkpt lat="38.91702" lon="-5.798252">
        <ele>301.0</ele>
        <time>2021-02-13T11:50:35Z</time>
      </trkpt>
      <trkpt lat="38.91703" lon="-5.798297">
        <ele>301.0</ele>
        <time>2021-02-13T11:50:36Z</time>
      </trkpt>
      <trkpt lat="38.91703" lon="-5.7983403">
        <ele>301.0</ele>
        <time>2021-02-13T11:50:37Z</time>
      </trkpt>
      <trkpt lat="38.91702" lon="-5.798381">
        <ele>301.0</ele>
        <time>2021-02-13T11:50:38Z</time>
      </trkpt>
      <trkpt lat="38.916996" lon="-5.7984123">
        <ele>301.0</ele>
        <time>2021-02-13T11:50:39Z</time>
      </trkpt>
      <trkpt lat="38.916965" lon="-5.798435">
        <ele>301.0</ele>
        <time>2021-02-13T11:50:40Z</time>
      </trkpt>
      <trkpt lat="38.91692" lon="-5.798447">
        <ele>301.0</ele>
        <time>2021-02-13T11:50:41Z</time>
      </trkpt>
      <trkpt lat="38.91687" lon="-5.798452">
        <ele>301.0</ele>
        <time>2021-02-13T11:50:42Z</time>
      </trkpt>
      <trkpt lat="38.916824" lon="-5.798455">
        <ele>301.0</ele>
        <time>2021-02-13T11:50:43Z</time>
      </trkpt>
      <trkpt lat="38.91678" lon="-5.798458">
        <ele>301.0</ele>
        <time>2021-02-13T11:50:44Z</time>
      </trkpt>
      <trkpt lat="38.916737" lon="-5.7984667">
        <ele>301.0</ele>
        <time>2021-02-13T11:50:45Z</time>
      </trkpt>
      <trkpt lat="38.916702" lon="-5.7984824">
        <ele>301.0</ele>
        <time>2021-02-13T11:50:46Z</time>
      </trkpt>
      <trkpt lat="38.916687" lon="-5.7985067">
        <ele>301.0</ele>
        <time>2021-02-13T11:50:47Z</time>
      </trkpt>
      <trkpt lat="38.916683" lon="-5.798537">
        <ele>301.0</ele>
        <time>2021-02-13T11:50:48Z</time>
      </trkpt>
      <trkpt lat="38.916695" lon="-5.798566">
        <ele>301.0</ele>
        <time>2021-02-13T11:50:49Z</time>
      </trkpt>
      <trkpt lat="38.91672" lon="-5.79859">
        <ele>300.0</ele>
        <time>2021-02-13T11:50:50Z</time>
      </trkpt>
      <trkpt lat="38.916756" lon="-5.798607">
        <ele>300.0</ele>
        <time>2021-02-13T11:50:51Z</time>
      </trkpt>
      <trkpt lat="38.916798" lon="-5.7986097">
        <ele>300.0</ele>
        <time>2021-02-13T11:50:52Z</time>
      </trkpt>
      <trkpt lat="38.916847" lon="-5.798606">
        <ele>299.0</ele>
        <time>2021-02-13T11:50:53Z</time>
      </trkpt>
      <trkpt lat="38.9169" lon="-5.7985973">
        <ele>299.0</ele>
        <time>2021-02-13T11:50:54Z</time>
      </trkpt>
      <trkpt lat="38.916958" lon="-5.7985907">
        <ele>299.0</ele>
        <time>2021-02-13T11:50:55Z</time>
      </trkpt>
      <trkpt lat="38.917023" lon="-5.798585">
        <ele>299.0</ele>
        <time>2021-02-13T11:50:56Z</time>
      </trkpt>
      <trkpt lat="38.91708" lon="-5.7985806">
        <ele>298.0</ele>
        <time>2021-02-13T11:50:57Z</time>
      </trkpt>
      <trkpt lat="38.917145" lon="-5.798579">
        <ele>298.0</ele>
        <time>2021-02-13T11:50:58Z</time>
      </trkpt>
      <trkpt lat="38.917206" lon="-5.7985854">
        <ele>298.0</ele>
        <time>2021-02-13T11:50:59Z</time>
      </trkpt>
      <trkpt lat="38.91726" lon="-5.7986035">
        <ele>298.0</ele>
        <time>2021-02-13T11:51:00Z</time>
      </trkpt>
      <trkpt lat="38.917297" lon="-5.798631">
        <ele>297.0</ele>
        <time>2021-02-13T11:51:01Z</time>
      </trkpt>
      <trkpt lat="38.91733" lon="-5.7986727">
        <ele>297.0</ele>
        <time>2021-02-13T11:51:02Z</time>
      </trkpt>
      <trkpt lat="38.917355" lon="-5.7987213">
        <ele>297.0</ele>
        <time>2021-02-13T11:51:03Z</time>
      </trkpt>
      <trkpt lat="38.91738" lon="-5.7987742">
        <ele>297.0</ele>
        <time>2021-02-13T11:51:04Z</time>
      </trkpt>
      <trkpt lat="38.917404" lon="-5.7988343">
        <ele>297.0</ele>
        <time>2021-02-13T11:51:05Z</time>
      </trkpt>
      <trkpt lat="38.917423" lon="-5.798897">
        <ele>297.0</ele>
        <time>2021-02-13T11:51:06Z</time>
      </trkpt>
      <trkpt lat="38.917442" lon="-5.798959">
        <ele>297.0</ele>
        <time>2021-02-13T11:51:07Z</time>
      </trkpt>
      <trkpt lat="38.917465" lon="-5.7990203">
        <ele>296.0</ele>
        <time>2021-02-13T11:51:08Z</time>
      </trkpt>
      <trkpt lat="38.917492" lon="-5.79908">
        <ele>296.0</ele>
        <time>2021-02-13T11:51:09Z</time>
      </trkpt>
      <trkpt lat="38.91752" lon="-5.7991347">
        <ele>296.0</ele>
        <time>2021-02-13T11:51:10Z</time>
      </trkpt>
      <trkpt lat="38.91755" lon="-5.7991915">
        <ele>296.0</ele>
        <time>2021-02-13T11:51:11Z</time>
      </trkpt>
      <trkpt lat="38.91758" lon="-5.7992463">
        <ele>296.0</ele>
        <time>2021-02-13T11:51:12Z</time>
      </trkpt>
      <trkpt lat="38.917618" lon="-5.7992997">
        <ele>296.0</ele>
        <time>2021-02-13T11:51:13Z</time>
      </trkpt>
      <trkpt lat="38.91765" lon="-5.7993517">
        <ele>296.0</ele>
        <time>2021-02-13T11:51:14Z</time>
      </trkpt>
      <trkpt lat="38.91768" lon="-5.7994027">
        <ele>296.0</ele>
        <time>2021-02-13T11:51:15Z</time>
      </trkpt>
      <trkpt lat="38.917698" lon="-5.799454">
        <ele>296.0</ele>
        <time>2021-02-13T11:51:16Z</time>
      </trkpt>
      <trkpt lat="38.91771" lon="-5.7994995">
        <ele>296.0</ele>
        <time>2021-02-13T11:51:17Z</time>
      </trkpt>
      <trkpt lat="38.917713" lon="-5.799541">
        <ele>296.0</ele>
        <time>2021-02-13T11:51:18Z</time>
      </trkpt>
      <trkpt lat="38.917706" lon="-5.7995777">
        <ele>296.0</ele>
        <time>2021-02-13T11:51:19Z</time>
      </trkpt>
      <trkpt lat="38.91769" lon="-5.7996116">
        <ele>296.0</ele>
        <time>2021-02-13T11:51:20Z</time>
      </trkpt>
      <trkpt lat="38.91768" lon="-5.799648">
        <ele>296.0</ele>
        <time>2021-02-13T11:51:21Z</time>
      </trkpt>
      <trkpt lat="38.91767" lon="-5.79969">
        <ele>296.0</ele>
        <time>2021-02-13T11:51:22Z</time>
      </trkpt>
      <trkpt lat="38.91767" lon="-5.7997346">
        <ele>296.0</ele>
        <time>2021-02-13T11:51:23Z</time>
      </trkpt>
      <trkpt lat="38.917675" lon="-5.7997894">
        <ele>296.0</ele>
        <time>2021-02-13T11:51:24Z</time>
      </trkpt>
      <trkpt lat="38.91768" lon="-5.7998476">
        <ele>296.0</ele>
        <time>2021-02-13T11:51:25Z</time>
      </trkpt>
      <trkpt lat="38.91769" lon="-5.799907">
        <ele>296.0</ele>
        <time>2021-02-13T11:51:26Z</time>
      </trkpt>
      <trkpt lat="38.9177" lon="-5.799962">
        <ele>296.0</ele>
        <time>2021-02-13T11:51:27Z</time>
      </trkpt>
      <trkpt lat="38.917717" lon="-5.800019">
        <ele>296.0</ele>
        <time>2021-02-13T11:51:28Z</time>
      </trkpt>
      <trkpt lat="38.917736" lon="-5.8000755">
        <ele>296.0</ele>
        <time>2021-02-13T11:51:29Z</time>
      </trkpt>
      <trkpt lat="38.917755" lon="-5.8001375">
        <ele>296.0</ele>
        <time>2021-02-13T11:51:30Z</time>
      </trkpt>
      <trkpt lat="38.91778" lon="-5.800194">
        <ele>296.0</ele>
        <time>2021-02-13T11:51:31Z</time>
      </trkpt>
      <trkpt lat="38.917812" lon="-5.8002415">
        <ele>296.0</ele>
        <time>2021-02-13T11:51:32Z</time>
      </trkpt>
      <trkpt lat="38.917847" lon="-5.800277">
        <ele>296.0</ele>
        <time>2021-02-13T11:51:33Z</time>
      </trkpt>
      <trkpt lat="38.91788" lon="-5.8003044">
        <ele>296.0</ele>
        <time>2021-02-13T11:51:34Z</time>
      </trkpt>
      <trkpt lat="38.917923" lon="-5.800324">
        <ele>295.0</ele>
        <time>2021-02-13T11:51:35Z</time>
      </trkpt>
      <trkpt lat="38.91797" lon="-5.800335">
        <ele>295.0</ele>
        <time>2021-02-13T11:51:36Z</time>
      </trkpt>
      <trkpt lat="38.91802" lon="-5.800339">
        <ele>295.0</ele>
        <time>2021-02-13T11:51:37Z</time>
      </trkpt>
      <trkpt lat="38.91807" lon="-5.800343">
        <ele>295.0</ele>
        <time>2021-02-13T11:51:38Z</time>
      </trkpt>
      <trkpt lat="38.918125" lon="-5.8003488">
        <ele>295.0</ele>
        <time>2021-02-13T11:51:39Z</time>
      </trkpt>
      <trkpt lat="38.918182" lon="-5.8003573">
        <ele>295.0</ele>
        <time>2021-02-13T11:51:40Z</time>
      </trkpt>
      <trkpt lat="38.91824" lon="-5.8003693">
        <ele>295.0</ele>
        <time>2021-02-13T11:51:41Z</time>
      </trkpt>
      <trkpt lat="38.9183" lon="-5.800384">
        <ele>295.0</ele>
        <time>2021-02-13T11:51:42Z</time>
      </trkpt>
      <trkpt lat="38.918358" lon="-5.8004007">
        <ele>295.0</ele>
        <time>2021-02-13T11:51:43Z</time>
      </trkpt>
      <trkpt lat="38.91842" lon="-5.8004174">
        <ele>295.0</ele>
        <time>2021-02-13T11:51:44Z</time>
      </trkpt>
      <trkpt lat="38.91848" lon="-5.800436">
        <ele>295.0</ele>
        <time>2021-02-13T11:51:45Z</time>
      </trkpt>
      <trkpt lat="38.918537" lon="-5.800455">
        <ele>295.0</ele>
        <time>2021-02-13T11:51:46Z</time>
      </trkpt>
      <trkpt lat="38.91859" lon="-5.800471">
        <ele>295.0</ele>
        <time>2021-02-13T11:51:47Z</time>
      </trkpt>
      <trkpt lat="38.918648" lon="-5.8004837">
        <ele>295.0</ele>
        <time>2021-02-13T11:51:48Z</time>
      </trkpt>
      <trkpt lat="38.9187" lon="-5.800497">
        <ele>295.0</ele>
        <time>2021-02-13T11:51:49Z</time>
      </trkpt>
      <trkpt lat="38.918755" lon="-5.800513">
        <ele>295.0</ele>
        <time>2021-02-13T11:51:49Z</time>
      </trkpt>
      <trkpt lat="38.918804" lon="-5.8005295">
        <ele>295.0</ele>
        <time>2021-02-13T11:51:50Z</time>
      </trkpt>
      <trkpt lat="38.918854" lon="-5.8005466">
        <ele>296.0</ele>
        <time>2021-02-13T11:51:51Z</time>
      </trkpt>
      <trkpt lat="38.918903" lon="-5.8005657">
        <ele>296.0</ele>
        <time>2021-02-13T11:51:52Z</time>
      </trkpt>
      <trkpt lat="38.91895" lon="-5.8005877">
        <ele>296.0</ele>
        <time>2021-02-13T11:51:53Z</time>
      </trkpt>
      <trkpt lat="38.918995" lon="-5.800615">
        <ele>296.0</ele>
        <time>2021-02-13T11:51:54Z</time>
      </trkpt>
      <trkpt lat="38.919033" lon="-5.800644">
        <ele>296.0</ele>
        <time>2021-02-13T11:51:55Z</time>
      </trkpt>
      <trkpt lat="38.919075" lon="-5.8006716">
        <ele>297.0</ele>
        <time>2021-02-13T11:51:56Z</time>
      </trkpt>
      <trkpt lat="38.919113" lon="-5.800694">
        <ele>297.0</ele>
        <time>2021-02-13T11:51:57Z</time>
      </trkpt>
      <trkpt lat="38.91915" lon="-5.800713">
        <ele>297.0</ele>
        <time>2021-02-13T11:51:58Z</time>
      </trkpt>
      <trkpt lat="38.919197" lon="-5.8007307">
        <ele>297.0</ele>
        <time>2021-02-13T11:51:58Z</time>
      </trkpt>
      <trkpt lat="38.91924" lon="-5.800747">
        <ele>297.0</ele>
        <time>2021-02-13T11:52:00Z</time>
      </trkpt>
      <trkpt lat="38.919285" lon="-5.8007617">
        <ele>297.0</ele>
        <time>2021-02-13T11:52:01Z</time>
      </trkpt>
      <trkpt lat="38.91933" lon="-5.8007736">
        <ele>297.0</ele>
        <time>2021-02-13T11:52:02Z</time>
      </trkpt>
      <trkpt lat="38.919373" lon="-5.800784">
        <ele>297.0</ele>
        <time>2021-02-13T11:52:03Z</time>
      </trkpt>
      <trkpt lat="38.919415" lon="-5.800792">
        <ele>297.0</ele>
        <time>2021-02-13T11:52:04Z</time>
      </trkpt>
      <trkpt lat="38.919456" lon="-5.800797">
        <ele>297.0</ele>
        <time>2021-02-13T11:52:05Z</time>
      </trkpt>
      <trkpt lat="38.919502" lon="-5.8008">
        <ele>297.0</ele>
        <time>2021-02-13T11:52:06Z</time>
      </trkpt>
      <trkpt lat="38.919548" lon="-5.8008018">
        <ele>297.0</ele>
        <time>2021-02-13T11:52:06Z</time>
      </trkpt>
      <trkpt lat="38.919594" lon="-5.800803">
        <ele>297.0</ele>
        <time>2021-02-13T11:52:08Z</time>
      </trkpt>
      <trkpt lat="38.919643" lon="-5.8008065">
        <ele>297.0</ele>
        <time>2021-02-13T11:52:09Z</time>
      </trkpt>
      <trkpt lat="38.919693" lon="-5.8008094">
        <ele>297.0</ele>
        <time>2021-02-13T11:52:10Z</time>
      </trkpt>
      <trkpt lat="38.919743" lon="-5.8008113">
        <ele>297.0</ele>
        <time>2021-02-13T11:52:11Z</time>
      </trkpt>
      <trkpt lat="38.919792" lon="-5.8008156">
        <ele>297.0</ele>
        <time>2021-02-13T11:52:12Z</time>
      </trkpt>
      <trkpt lat="38.91984" lon="-5.80082">
        <ele>297.0</ele>
        <time>2021-02-13T11:52:13Z</time>
      </trkpt>
      <trkpt lat="38.91989" lon="-5.800828">
        <ele>297.0</ele>
        <time>2021-02-13T11:52:13Z</time>
      </trkpt>
      <trkpt lat="38.919937" lon="-5.800841">
        <ele>297.0</ele>
        <time>2021-02-13T11:52:15Z</time>
      </trkpt>
      <trkpt lat="38.91999" lon="-5.8008595">
        <ele>297.0</ele>
        <time>2021-02-13T11:52:16Z</time>
      </trkpt>
      <trkpt lat="38.92004" lon="-5.800884">
        <ele>297.0</ele>
        <time>2021-02-13T11:52:17Z</time>
      </trkpt>
      <trkpt lat="38.920086" lon="-5.800908">
        <ele>297.0</ele>
        <time>2021-02-13T11:52:17Z</time>
      </trkpt>
      <trkpt lat="38.920135" lon="-5.8009286">
        <ele>297.0</ele>
        <time>2021-02-13T11:52:19Z</time>
      </trkpt>
      <trkpt lat="38.92018" lon="-5.800944">
        <ele>297.0</ele>
        <time>2021-02-13T11:52:20Z</time>
      </trkpt>
      <trkpt lat="38.92023" lon="-5.8009505">
        <ele>297.0</ele>
        <time>2021-02-13T11:52:21Z</time>
      </trkpt>
      <trkpt lat="38.92028" lon="-5.800949">
        <ele>297.0</ele>
        <time>2021-02-13T11:52:22Z</time>
      </trkpt>
      <trkpt lat="38.920326" lon="-5.800947">
        <ele>297.0</ele>
        <time>2021-02-13T11:52:23Z</time>
      </trkpt>
      <trkpt lat="38.92037" lon="-5.8009477">
        <ele>297.0</ele>
        <time>2021-02-13T11:52:24Z</time>
      </trkpt>
      <trkpt lat="38.920414" lon="-5.8009496">
        <ele>297.0</ele>
        <time>2021-02-13T11:52:25Z</time>
      </trkpt>
      <trkpt lat="38.920456" lon="-5.800953">
        <ele>297.0</ele>
        <time>2021-02-13T11:52:25Z</time>
      </trkpt>
      <trkpt lat="38.920498" lon="-5.800958">
        <ele>297.0</ele>
        <time>2021-02-13T11:52:27Z</time>
      </trkpt>
      <trkpt lat="38.920532" lon="-5.8009644">
        <ele>297.0</ele>
        <time>2021-02-13T11:52:28Z</time>
      </trkpt>
      <trkpt lat="38.92057" lon="-5.800972">
        <ele>298.0</ele>
        <time>2021-02-13T11:52:29Z</time>
      </trkpt>
      <trkpt lat="38.92061" lon="-5.800979">
        <ele>298.0</ele>
        <time>2021-02-13T11:52:30Z</time>
      </trkpt>
      <trkpt lat="38.920647" lon="-5.800985">
        <ele>298.0</ele>
        <time>2021-02-13T11:52:31Z</time>
      </trkpt>
      <trkpt lat="38.920677" lon="-5.8009906">
        <ele>299.0</ele>
        <time>2021-02-13T11:52:31Z</time>
      </trkpt>
      <trkpt lat="38.92071" lon="-5.8009963">
        <ele>299.0</ele>
        <time>2021-02-13T11:52:33Z</time>
      </trkpt>
      <trkpt lat="38.920746" lon="-5.801003">
        <ele>299.0</ele>
        <time>2021-02-13T11:52:34Z</time>
      </trkpt>
      <trkpt lat="38.920784" lon="-5.8010087">
        <ele>300.0</ele>
        <time>2021-02-13T11:52:35Z</time>
      </trkpt>
      <trkpt lat="38.92082" lon="-5.801016">
        <ele>300.0</ele>
        <time>2021-02-13T11:52:36Z</time>
      </trkpt>
      <trkpt lat="38.920853" lon="-5.8010216">
        <ele>300.0</ele>
        <time>2021-02-13T11:52:37Z</time>
      </trkpt>
      <trkpt lat="38.920887" lon="-5.8010273">
        <ele>301.0</ele>
        <time>2021-02-13T11:52:38Z</time>
      </trkpt>
      <trkpt lat="38.920918" lon="-5.8010316">
        <ele>301.0</ele>
        <time>2021-02-13T11:52:39Z</time>
      </trkpt>
      <trkpt lat="38.920948" lon="-5.8010364">
        <ele>301.0</ele>
        <time>2021-02-13T11:52:40Z</time>
      </trkpt>
      <trkpt lat="38.920982" lon="-5.8010406">
        <ele>301.0</ele>
        <time>2021-02-13T11:52:41Z</time>
      </trkpt>
      <trkpt lat="38.921013" lon="-5.8010464">
        <ele>302.0</ele>
        <time>2021-02-13T11:52:42Z</time>
      </trkpt>
      <trkpt lat="38.921047" lon="-5.8010535">
        <ele>302.0</ele>
        <time>2021-02-13T11:52:43Z</time>
      </trkpt>
      <trkpt lat="38.92108" lon="-5.8010607">
        <ele>302.0</ele>
        <time>2021-02-13T11:52:43Z</time>
      </trkpt>
      <trkpt lat="38.921112" lon="-5.801069">
        <ele>302.0</ele>
        <time>2021-02-13T11:52:45Z</time>
      </trkpt>
      <trkpt lat="38.921143" lon="-5.801078">
        <ele>303.0</ele>
        <time>2021-02-13T11:52:46Z</time>
      </trkpt>
      <trkpt lat="38.921173" lon="-5.801082">
        <ele>303.0</ele>
        <time>2021-02-13T11:52:47Z</time>
      </trkpt>
      <trkpt lat="38.9212" lon="-5.801085">
        <ele>303.0</ele>
        <time>2021-02-13T11:52:47Z</time>
      </trkpt>
      <trkpt lat="38.921227" lon="-5.801084">
        <ele>303.0</ele>
        <time>2021-02-13T11:52:49Z</time>
      </trkpt>
      <trkpt lat="38.921253" lon="-5.8010798">
        <ele>303.0</ele>
        <time>2021-02-13T11:52:50Z</time>
      </trkpt>
      <trkpt lat="38.921284" lon="-5.801075">
        <ele>303.0</ele>
        <time>2021-02-13T11:52:51Z</time>
      </trkpt>
      <trkpt lat="38.92132" lon="-5.801072">
        <ele>304.0</ele>
        <time>2021-02-13T11:52:52Z</time>
      </trkpt>
      <trkpt lat="38.921356" lon="-5.801076">
        <ele>304.0</ele>
        <time>2021-02-13T11:52:53Z</time>
      </trkpt>
      <trkpt lat="38.921394" lon="-5.80108">
        <ele>304.0</ele>
        <time>2021-02-13T11:52:54Z</time>
      </trkpt>
      <trkpt lat="38.921425" lon="-5.801083">
        <ele>304.0</ele>
        <time>2021-02-13T11:52:55Z</time>
      </trkpt>
      <trkpt lat="38.921455" lon="-5.801086">
        <ele>304.0</ele>
        <time>2021-02-13T11:52:56Z</time>
      </trkpt>
      <trkpt lat="38.921486" lon="-5.801088">
        <ele>304.0</ele>
        <time>2021-02-13T11:52:57Z</time>
      </trkpt>
      <trkpt lat="38.921516" lon="-5.801089">
        <ele>304.0</ele>
        <time>2021-02-13T11:52:58Z</time>
      </trkpt>
      <trkpt lat="38.921555" lon="-5.8010893">
        <ele>304.0</ele>
        <time>2021-02-13T11:52:59Z</time>
      </trkpt>
      <trkpt lat="38.92159" lon="-5.8010893">
        <ele>304.0</ele>
        <time>2021-02-13T11:53:00Z</time>
      </trkpt>
      <trkpt lat="38.921627" lon="-5.8010893">
        <ele>304.0</ele>
        <time>2021-02-13T11:53:01Z</time>
      </trkpt>
      <trkpt lat="38.92167" lon="-5.8010874">
        <ele>304.0</ele>
        <time>2021-02-13T11:53:02Z</time>
      </trkpt>
      <trkpt lat="38.92171" lon="-5.801085">
        <ele>304.0</ele>
        <time>2021-02-13T11:53:02Z</time>
      </trkpt>
      <trkpt lat="38.921757" lon="-5.80108">
        <ele>304.0</ele>
        <time>2021-02-13T11:53:04Z</time>
      </trkpt>
      <trkpt lat="38.921803" lon="-5.8010745">
        <ele>304.0</ele>
        <time>2021-02-13T11:53:05Z</time>
      </trkpt>
      <trkpt lat="38.92185" lon="-5.8010693">
        <ele>304.0</ele>
        <time>2021-02-13T11:53:06Z</time>
      </trkpt>
      <trkpt lat="38.921894" lon="-5.8010592">
        <ele>304.0</ele>
        <time>2021-02-13T11:53:06Z</time>
      </trkpt>
      <trkpt lat="38.921944" lon="-5.8010497">
        <ele>304.0</ele>
        <time>2021-02-13T11:53:08Z</time>
      </trkpt>
      <trkpt lat="38.921993" lon="-5.801039">
        <ele>304.0</ele>
        <time>2021-02-13T11:53:09Z</time>
      </trkpt>
      <trkpt lat="38.92204" lon="-5.801029">
        <ele>304.0</ele>
        <time>2021-02-13T11:53:10Z</time>
      </trkpt>
      <trkpt lat="38.922092" lon="-5.801018">
        <ele>304.0</ele>
        <time>2021-02-13T11:53:11Z</time>
      </trkpt>
      <trkpt lat="38.922142" lon="-5.801008">
        <ele>304.0</ele>
        <time>2021-02-13T11:53:12Z</time>
      </trkpt>
      <trkpt lat="38.922195" lon="-5.800998">
        <ele>304.0</ele>
        <time>2021-02-13T11:53:13Z</time>
      </trkpt>
      <trkpt lat="38.92225" lon="-5.8009887">
        <ele>304.0</ele>
        <time>2021-02-13T11:53:14Z</time>
      </trkpt>
      <trkpt lat="38.922302" lon="-5.800979">
        <ele>304.0</ele>
        <time>2021-02-13T11:53:15Z</time>
      </trkpt>
      <trkpt lat="38.92235" lon="-5.800967">
        <ele>304.0</ele>
        <time>2021-02-13T11:53:16Z</time>
      </trkpt>
      <trkpt lat="38.922405" lon="-5.8009562">
        <ele>304.0</ele>
        <time>2021-02-13T11:53:17Z</time>
      </trkpt>
      <trkpt lat="38.92245" lon="-5.8009458">
        <ele>304.0</ele>
        <time>2021-02-13T11:53:18Z</time>
      </trkpt>
      <trkpt lat="38.922497" lon="-5.800937">
        <ele>304.0</ele>
        <time>2021-02-13T11:53:19Z</time>
      </trkpt>
      <trkpt lat="38.922546" lon="-5.80093">
        <ele>304.0</ele>
        <time>2021-02-13T11:53:20Z</time>
      </trkpt>
      <trkpt lat="38.922592" lon="-5.8009205">
        <ele>304.0</ele>
        <time>2021-02-13T11:53:21Z</time>
      </trkpt>
      <trkpt lat="38.922638" lon="-5.8009086">
        <ele>304.0</ele>
        <time>2021-02-13T11:53:22Z</time>
      </trkpt>
      <trkpt lat="38.922676" lon="-5.8008943">
        <ele>304.0</ele>
        <time>2021-02-13T11:53:23Z</time>
      </trkpt>
      <trkpt lat="38.92272" lon="-5.8008776">
        <ele>304.0</ele>
        <time>2021-02-13T11:53:24Z</time>
      </trkpt>
      <trkpt lat="38.922764" lon="-5.800858">
        <ele>304.0</ele>
        <time>2021-02-13T11:53:25Z</time>
      </trkpt>
      <trkpt lat="38.92281" lon="-5.8008337">
        <ele>304.0</ele>
        <time>2021-02-13T11:53:26Z</time>
      </trkpt>
      <trkpt lat="38.922848" lon="-5.800807">
        <ele>304.0</ele>
        <time>2021-02-13T11:53:27Z</time>
      </trkpt>
      <trkpt lat="38.922886" lon="-5.800775">
        <ele>304.0</ele>
        <time>2021-02-13T11:53:28Z</time>
      </trkpt>
      <trkpt lat="38.922924" lon="-5.800738">
        <ele>304.0</ele>
        <time>2021-02-13T11:53:29Z</time>
      </trkpt>
      <trkpt lat="38.92296" lon="-5.8006916">
        <ele>304.0</ele>
        <time>2021-02-13T11:53:30Z</time>
      </trkpt>
      <trkpt lat="38.92299" lon="-5.8006425">
        <ele>304.0</ele>
        <time>2021-02-13T11:53:30Z</time>
      </trkpt>
      <trkpt lat="38.92302" lon="-5.8005905">
        <ele>304.0</ele>
        <time>2021-02-13T11:53:32Z</time>
      </trkpt>
      <trkpt lat="38.923046" lon="-5.800535">
        <ele>304.0</ele>
        <time>2021-02-13T11:53:33Z</time>
      </trkpt>
      <trkpt lat="38.92307" lon="-5.8004827">
        <ele>304.0</ele>
        <time>2021-02-13T11:53:34Z</time>
      </trkpt>
      <trkpt lat="38.92309" lon="-5.8004255">
        <ele>304.0</ele>
        <time>2021-02-13T11:53:35Z</time>
      </trkpt>
      <trkpt lat="38.92311" lon="-5.800369">
        <ele>304.0</ele>
        <time>2021-02-13T11:53:36Z</time>
      </trkpt>
      <trkpt lat="38.92313" lon="-5.8003116">
        <ele>304.0</ele>
        <time>2021-02-13T11:53:37Z</time>
      </trkpt>
      <trkpt lat="38.92314" lon="-5.800254">
        <ele>304.0</ele>
        <time>2021-02-13T11:53:38Z</time>
      </trkpt>
      <trkpt lat="38.923153" lon="-5.8001966">
        <ele>305.0</ele>
        <time>2021-02-13T11:53:39Z</time>
      </trkpt>
      <trkpt lat="38.92316" lon="-5.8001394">
        <ele>305.0</ele>
        <time>2021-02-13T11:53:40Z</time>
      </trkpt>
      <trkpt lat="38.92317" lon="-5.8000817">
        <ele>305.0</ele>
        <time>2021-02-13T11:53:41Z</time>
      </trkpt>
      <trkpt lat="38.923176" lon="-5.800025">
        <ele>305.0</ele>
        <time>2021-02-13T11:53:42Z</time>
      </trkpt>
      <trkpt lat="38.923183" lon="-5.799972">
        <ele>305.0</ele>
        <time>2021-02-13T11:53:43Z</time>
      </trkpt>
      <trkpt lat="38.9232" lon="-5.7999215">
        <ele>305.0</ele>
        <time>2021-02-13T11:53:44Z</time>
      </trkpt>
      <trkpt lat="38.92322" lon="-5.799875">
        <ele>305.0</ele>
        <time>2021-02-13T11:53:45Z</time>
      </trkpt>
      <trkpt lat="38.92325" lon="-5.7998347">
        <ele>305.0</ele>
        <time>2021-02-13T11:53:46Z</time>
      </trkpt>
      <trkpt lat="38.923283" lon="-5.7998056">
        <ele>305.0</ele>
        <time>2021-02-13T11:53:47Z</time>
      </trkpt>
      <trkpt lat="38.923325" lon="-5.799784">
        <ele>305.0</ele>
        <time>2021-02-13T11:53:48Z</time>
      </trkpt>
      <trkpt lat="38.923367" lon="-5.7997713">
        <ele>305.0</ele>
        <time>2021-02-13T11:53:49Z</time>
      </trkpt>
      <trkpt lat="38.923412" lon="-5.799763">
        <ele>305.0</ele>
        <time>2021-02-13T11:53:50Z</time>
      </trkpt>
      <trkpt lat="38.923462" lon="-5.799757">
        <ele>305.0</ele>
        <time>2021-02-13T11:53:51Z</time>
      </trkpt>
      <trkpt lat="38.92351" lon="-5.79975">
        <ele>305.0</ele>
        <time>2021-02-13T11:53:52Z</time>
      </trkpt>
      <trkpt lat="38.92356" lon="-5.799739">
        <ele>305.0</ele>
        <time>2021-02-13T11:53:53Z</time>
      </trkpt>
      <trkpt lat="38.923607" lon="-5.7997293">
        <ele>305.0</ele>
        <time>2021-02-13T11:53:54Z</time>
      </trkpt>
      <trkpt lat="38.923656" lon="-5.7997227">
        <ele>305.0</ele>
        <time>2021-02-13T11:53:55Z</time>
      </trkpt>
      <trkpt lat="38.923702" lon="-5.799719">
        <ele>305.0</ele>
        <time>2021-02-13T11:53:56Z</time>
      </trkpt>
      <trkpt lat="38.92375" lon="-5.79972">
        <ele>305.0</ele>
        <time>2021-02-13T11:53:57Z</time>
      </trkpt>
      <trkpt lat="38.9238" lon="-5.799724">
        <ele>305.0</ele>
        <time>2021-02-13T11:53:58Z</time>
      </trkpt>
      <trkpt lat="38.92385" lon="-5.7997375">
        <ele>305.0</ele>
        <time>2021-02-13T11:53:59Z</time>
      </trkpt>
      <trkpt lat="38.923897" lon="-5.799755">
        <ele>305.0</ele>
        <time>2021-02-13T11:54:00Z</time>
      </trkpt>
      <trkpt lat="38.92394" lon="-5.799778">
        <ele>305.0</ele>
        <time>2021-02-13T11:54:01Z</time>
      </trkpt>
      <trkpt lat="38.923985" lon="-5.799808">
        <ele>305.0</ele>
        <time>2021-02-13T11:54:02Z</time>
      </trkpt>
      <trkpt lat="38.924023" lon="-5.7998395">
        <ele>305.0</ele>
        <time>2021-02-13T11:54:03Z</time>
      </trkpt>
      <trkpt lat="38.92406" lon="-5.799873">
        <ele>305.0</ele>
        <time>2021-02-13T11:54:04Z</time>
      </trkpt>
      <trkpt lat="38.9241" lon="-5.7999077">
        <ele>305.0</ele>
        <time>2021-02-13T11:54:05Z</time>
      </trkpt>
      <trkpt lat="38.924137" lon="-5.799945">
        <ele>305.0</ele>
        <time>2021-02-13T11:54:06Z</time>
      </trkpt>
      <trkpt lat="38.92418" lon="-5.799984">
        <ele>305.0</ele>
        <time>2021-02-13T11:54:07Z</time>
      </trkpt>
      <trkpt lat="38.92422" lon="-5.8000264">
        <ele>305.0</ele>
        <time>2021-02-13T11:54:08Z</time>
      </trkpt>
      <trkpt lat="38.924263" lon="-5.8000674">
        <ele>305.0</ele>
        <time>2021-02-13T11:54:09Z</time>
      </trkpt>
      <trkpt lat="38.924305" lon="-5.8001113">
        <ele>305.0</ele>
        <time>2021-02-13T11:54:10Z</time>
      </trkpt>
      <trkpt lat="38.924355" lon="-5.800154">
        <ele>305.0</ele>
        <time>2021-02-13T11:54:11Z</time>
      </trkpt>
      <trkpt lat="38.9244" lon="-5.8001957">
        <ele>305.0</ele>
        <time>2021-02-13T11:54:12Z</time>
      </trkpt>
      <trkpt lat="38.924446" lon="-5.8002367">
        <ele>305.0</ele>
        <time>2021-02-13T11:54:13Z</time>
      </trkpt>
      <trkpt lat="38.9245" lon="-5.800276">
        <ele>305.0</ele>
        <time>2021-02-13T11:54:14Z</time>
      </trkpt>
      <trkpt lat="38.924553" lon="-5.800311">
        <ele>305.0</ele>
        <time>2021-02-13T11:54:15Z</time>
      </trkpt>
      <trkpt lat="38.9246" lon="-5.800343">
        <ele>305.0</ele>
        <time>2021-02-13T11:54:16Z</time>
      </trkpt>
      <trkpt lat="38.924656" lon="-5.8003774">
        <ele>305.0</ele>
        <time>2021-02-13T11:54:17Z</time>
      </trkpt>
      <trkpt lat="38.924713" lon="-5.80041">
        <ele>305.0</ele>
        <time>2021-02-13T11:54:18Z</time>
      </trkpt>
      <trkpt lat="38.92477" lon="-5.80044">
        <ele>304.0</ele>
        <time>2021-02-13T11:54:19Z</time>
      </trkpt>
      <trkpt lat="38.92483" lon="-5.8004684">
        <ele>304.0</ele>
        <time>2021-02-13T11:54:20Z</time>
      </trkpt>
      <trkpt lat="38.924892" lon="-5.8004947">
        <ele>303.0</ele>
        <time>2021-02-13T11:54:21Z</time>
      </trkpt>
      <trkpt lat="38.924957" lon="-5.800519">
        <ele>303.0</ele>
        <time>2021-02-13T11:54:22Z</time>
      </trkpt>
      <trkpt lat="38.92502" lon="-5.800541">
        <ele>302.0</ele>
        <time>2021-02-13T11:54:22Z</time>
      </trkpt>
      <trkpt lat="38.925083" lon="-5.8005567">
        <ele>302.0</ele>
        <time>2021-02-13T11:54:24Z</time>
      </trkpt>
      <trkpt lat="38.92514" lon="-5.800567">
        <ele>302.0</ele>
        <time>2021-02-13T11:54:25Z</time>
      </trkpt>
      <trkpt lat="38.925194" lon="-5.8005767">
        <ele>302.0</ele>
        <time>2021-02-13T11:54:26Z</time>
      </trkpt>
      <trkpt lat="38.925243" lon="-5.8005843">
        <ele>302.0</ele>
        <time>2021-02-13T11:54:27Z</time>
      </trkpt>
      <trkpt lat="38.925297" lon="-5.8005915">
        <ele>301.0</ele>
        <time>2021-02-13T11:54:28Z</time>
      </trkpt>
      <trkpt lat="38.92535" lon="-5.8005977">
        <ele>301.0</ele>
        <time>2021-02-13T11:54:29Z</time>
      </trkpt>
      <trkpt lat="38.925404" lon="-5.8006034">
        <ele>301.0</ele>
        <time>2021-02-13T11:54:30Z</time>
      </trkpt>
      <trkpt lat="38.925457" lon="-5.800608">
        <ele>301.0</ele>
        <time>2021-02-13T11:54:31Z</time>
      </trkpt>
      <trkpt lat="38.92551" lon="-5.8006124">
        <ele>300.0</ele>
        <time>2021-02-13T11:54:32Z</time>
      </trkpt>
      <trkpt lat="38.92557" lon="-5.8006144">
        <ele>300.0</ele>
        <time>2021-02-13T11:54:33Z</time>
      </trkpt>
      <trkpt lat="38.92563" lon="-5.800616">
        <ele>300.0</ele>
        <time>2021-02-13T11:54:34Z</time>
      </trkpt>
      <trkpt lat="38.92569" lon="-5.800615">
        <ele>300.0</ele>
        <time>2021-02-13T11:54:35Z</time>
      </trkpt>
      <trkpt lat="38.925743" lon="-5.800614">
        <ele>299.0</ele>
        <time>2021-02-13T11:54:36Z</time>
      </trkpt>
      <trkpt lat="38.925808" lon="-5.8006124">
        <ele>299.0</ele>
        <time>2021-02-13T11:54:37Z</time>
      </trkpt>
      <trkpt lat="38.925877" lon="-5.800611">
        <ele>299.0</ele>
        <time>2021-02-13T11:54:37Z</time>
      </trkpt>
      <trkpt lat="38.925938" lon="-5.800607">
        <ele>299.0</ele>
        <time>2021-02-13T11:54:39Z</time>
      </trkpt>
      <trkpt lat="38.926006" lon="-5.8006024">
        <ele>299.0</ele>
        <time>2021-02-13T11:54:40Z</time>
      </trkpt>
      <trkpt lat="38.926064" lon="-5.8005996">
        <ele>298.0</ele>
        <time>2021-02-13T11:54:41Z</time>
      </trkpt>
      <trkpt lat="38.92612" lon="-5.8005958">
        <ele>298.0</ele>
        <time>2021-02-13T11:54:42Z</time>
      </trkpt>
      <trkpt lat="38.926178" lon="-5.8005905">
        <ele>298.0</ele>
        <time>2021-02-13T11:54:43Z</time>
      </trkpt>
      <trkpt lat="38.92623" lon="-5.8005824">
        <ele>297.0</ele>
        <time>2021-02-13T11:54:44Z</time>
      </trkpt>
      <trkpt lat="38.92628" lon="-5.800573">
        <ele>297.0</ele>
        <time>2021-02-13T11:54:45Z</time>
      </trkpt>
      <trkpt lat="38.926327" lon="-5.800562">
        <ele>296.0</ele>
        <time>2021-02-13T11:54:45Z</time>
      </trkpt>
      <trkpt lat="38.92649" lon="-5.8004746">
        <ele>295.0</ele>
        <time>2021-02-13T11:54:48Z</time>
      </trkpt>
      <trkpt lat="38.9265" lon="-5.8004613">
        <ele>295.0</ele>
        <time>2021-02-13T11:54:49Z</time>
      </trkpt>
      <trkpt lat="38.926517" lon="-5.800429">
        <ele>295.0</ele>
        <time>2021-02-13T11:54:50Z</time>
      </trkpt>
      <trkpt lat="38.926537" lon="-5.8003845">
        <ele>295.0</ele>
        <time>2021-02-13T11:54:51Z</time>
      </trkpt>
      <trkpt lat="38.92655" lon="-5.800337">
        <ele>295.0</ele>
        <time>2021-02-13T11:54:52Z</time>
      </trkpt>
      <trkpt lat="38.92656" lon="-5.800281">
        <ele>295.0</ele>
        <time>2021-02-13T11:54:53Z</time>
      </trkpt>
      <trkpt lat="38.926563" lon="-5.800222">
        <ele>295.0</ele>
        <time>2021-02-13T11:54:54Z</time>
      </trkpt>
      <trkpt lat="38.926563" lon="-5.8001556">
        <ele>295.0</ele>
        <time>2021-02-13T11:54:54Z</time>
      </trkpt>
      <trkpt lat="38.926563" lon="-5.8000884">
        <ele>295.0</ele>
        <time>2021-02-13T11:54:56Z</time>
      </trkpt>
      <trkpt lat="38.92656" lon="-5.8000245">
        <ele>295.0</ele>
        <time>2021-02-13T11:54:57Z</time>
      </trkpt>
      <trkpt lat="38.926556" lon="-5.799959">
        <ele>295.0</ele>
        <time>2021-02-13T11:54:58Z</time>
      </trkpt>
      <trkpt lat="38.92655" lon="-5.7998886">
        <ele>295.0</ele>
        <time>2021-02-13T11:54:59Z</time>
      </trkpt>
      <trkpt lat="38.926548" lon="-5.799819">
        <ele>295.0</ele>
        <time>2021-02-13T11:54:59Z</time>
      </trkpt>
      <trkpt lat="38.926544" lon="-5.7997503">
        <ele>295.0</ele>
        <time>2021-02-13T11:55:01Z</time>
      </trkpt>
      <trkpt lat="38.92654" lon="-5.7996864">
        <ele>295.0</ele>
        <time>2021-02-13T11:55:01Z</time>
      </trkpt>
      <trkpt lat="38.926537" lon="-5.799621">
        <ele>295.0</ele>
        <time>2021-02-13T11:55:03Z</time>
      </trkpt>
      <trkpt lat="38.926533" lon="-5.7995543">
        <ele>295.0</ele>
        <time>2021-02-13T11:55:04Z</time>
      </trkpt>
      <trkpt lat="38.926525" lon="-5.7994823">
        <ele>295.0</ele>
        <time>2021-02-13T11:55:05Z</time>
      </trkpt>
      <trkpt lat="38.92652" lon="-5.7994103">
        <ele>295.0</ele>
        <time>2021-02-13T11:55:06Z</time>
      </trkpt>
      <trkpt lat="38.926514" lon="-5.7993402">
        <ele>295.0</ele>
        <time>2021-02-13T11:55:07Z</time>
      </trkpt>
      <trkpt lat="38.926506" lon="-5.799269">
        <ele>295.0</ele>
        <time>2021-02-13T11:55:08Z</time>
      </trkpt>
      <trkpt lat="38.926495" lon="-5.799202">
        <ele>295.0</ele>
        <time>2021-02-13T11:55:09Z</time>
      </trkpt>
      <trkpt lat="38.926483" lon="-5.7991347">
        <ele>295.0</ele>
        <time>2021-02-13T11:55:10Z</time>
      </trkpt>
      <trkpt lat="38.926476" lon="-5.7990694">
        <ele>295.0</ele>
        <time>2021-02-13T11:55:11Z</time>
      </trkpt>
      <trkpt lat="38.926468" lon="-5.7990026">
        <ele>295.0</ele>
        <time>2021-02-13T11:55:12Z</time>
      </trkpt>
      <trkpt lat="38.92646" lon="-5.7989345">
        <ele>295.0</ele>
        <time>2021-02-13T11:55:13Z</time>
      </trkpt>
      <trkpt lat="38.926456" lon="-5.798865">
        <ele>295.0</ele>
        <time>2021-02-13T11:55:13Z</time>
      </trkpt>
      <trkpt lat="38.92646" lon="-5.7987924">
        <ele>295.0</ele>
        <time>2021-02-13T11:55:15Z</time>
      </trkpt>
      <trkpt lat="38.92646" lon="-5.7987194">
        <ele>295.0</ele>
        <time>2021-02-13T11:55:16Z</time>
      </trkpt>
      <trkpt lat="38.926456" lon="-5.798646">
        <ele>295.0</ele>
        <time>2021-02-13T11:55:17Z</time>
      </trkpt>
      <trkpt lat="38.926453" lon="-5.798573">
        <ele>295.0</ele>
        <time>2021-02-13T11:55:18Z</time>
      </trkpt>
      <trkpt lat="38.926445" lon="-5.7985">
        <ele>295.0</ele>
        <time>2021-02-13T11:55:19Z</time>
      </trkpt>
      <trkpt lat="38.92643" lon="-5.798426">
        <ele>295.0</ele>
        <time>2021-02-13T11:55:20Z</time>
      </trkpt>
      <trkpt lat="38.926414" lon="-5.798355">
        <ele>295.0</ele>
        <time>2021-02-13T11:55:20Z</time>
      </trkpt>
      <trkpt lat="38.9264" lon="-5.798287">
        <ele>295.0</ele>
        <time>2021-02-13T11:55:22Z</time>
      </trkpt>
      <trkpt lat="38.926384" lon="-5.7982183">
        <ele>295.0</ele>
        <time>2021-02-13T11:55:23Z</time>
      </trkpt>
      <trkpt lat="38.926365" lon="-5.798153">
        <ele>295.0</ele>
        <time>2021-02-13T11:55:24Z</time>
      </trkpt>
      <trkpt lat="38.926346" lon="-5.7980895">
        <ele>295.0</ele>
        <time>2021-02-13T11:55:25Z</time>
      </trkpt>
      <trkpt lat="38.926327" lon="-5.7980275">
        <ele>296.0</ele>
        <time>2021-02-13T11:55:26Z</time>
      </trkpt>
      <trkpt lat="38.92631" lon="-5.7979674">
        <ele>296.0</ele>
        <time>2021-02-13T11:55:27Z</time>
      </trkpt>
      <trkpt lat="38.926304" lon="-5.797911">
        <ele>296.0</ele>
        <time>2021-02-13T11:55:28Z</time>
      </trkpt>
      <trkpt lat="38.926308" lon="-5.7978625">
        <ele>296.0</ele>
        <time>2021-02-13T11:55:29Z</time>
      </trkpt>
      <trkpt lat="38.926323" lon="-5.797822">
        <ele>296.0</ele>
        <time>2021-02-13T11:55:30Z</time>
      </trkpt>
      <trkpt lat="38.926346" lon="-5.7977915">
        <ele>296.0</ele>
        <time>2021-02-13T11:55:31Z</time>
      </trkpt>
      <trkpt lat="38.92638" lon="-5.797769">
        <ele>296.0</ele>
        <time>2021-02-13T11:55:32Z</time>
      </trkpt>
      <trkpt lat="38.92642" lon="-5.7977543">
        <ele>296.0</ele>
        <time>2021-02-13T11:55:33Z</time>
      </trkpt>
      <trkpt lat="38.926464" lon="-5.7977448">
        <ele>296.0</ele>
        <time>2021-02-13T11:55:34Z</time>
      </trkpt>
      <trkpt lat="38.926506" lon="-5.7977395">
        <ele>296.0</ele>
        <time>2021-02-13T11:55:35Z</time>
      </trkpt>
      <trkpt lat="38.92656" lon="-5.7977357">
        <ele>296.0</ele>
        <time>2021-02-13T11:55:36Z</time>
      </trkpt>
      <trkpt lat="38.926617" lon="-5.7977333">
        <ele>296.0</ele>
        <time>2021-02-13T11:55:37Z</time>
      </trkpt>
      <trkpt lat="38.92667" lon="-5.797732">
        <ele>296.0</ele>
        <time>2021-02-13T11:55:38Z</time>
      </trkpt>
      <trkpt lat="38.926727" lon="-5.7977314">
        <ele>297.0</ele>
        <time>2021-02-13T11:55:39Z</time>
      </trkpt>
      <trkpt lat="38.92678" lon="-5.7977314">
        <ele>297.0</ele>
        <time>2021-02-13T11:55:40Z</time>
      </trkpt>
      <trkpt lat="38.92684" lon="-5.7977304">
        <ele>297.0</ele>
        <time>2021-02-13T11:55:41Z</time>
      </trkpt>
      <trkpt lat="38.9269" lon="-5.7977314">
        <ele>297.0</ele>
        <time>2021-02-13T11:55:42Z</time>
      </trkpt>
      <trkpt lat="38.926956" lon="-5.797732">
        <ele>297.0</ele>
        <time>2021-02-13T11:55:43Z</time>
      </trkpt>
      <trkpt lat="38.92701" lon="-5.7977333">
        <ele>297.0</ele>
        <time>2021-02-13T11:55:44Z</time>
      </trkpt>
      <trkpt lat="38.927067" lon="-5.7977333">
        <ele>297.0</ele>
        <time>2021-02-13T11:55:44Z</time>
      </trkpt>
      <trkpt lat="38.927124" lon="-5.7977333">
        <ele>298.0</ele>
        <time>2021-02-13T11:55:46Z</time>
      </trkpt>
      <trkpt lat="38.927185" lon="-5.7977333">
        <ele>298.0</ele>
        <time>2021-02-13T11:55:47Z</time>
      </trkpt>
      <trkpt lat="38.927242" lon="-5.7977343">
        <ele>298.0</ele>
        <time>2021-02-13T11:55:48Z</time>
      </trkpt>
      <trkpt lat="38.9273" lon="-5.7977357">
        <ele>299.0</ele>
        <time>2021-02-13T11:55:49Z</time>
      </trkpt>
      <trkpt lat="38.927357" lon="-5.7977357">
        <ele>299.0</ele>
        <time>2021-02-13T11:55:50Z</time>
      </trkpt>
      <trkpt lat="38.927406" lon="-5.797736">
        <ele>299.0</ele>
        <time>2021-02-13T11:55:51Z</time>
      </trkpt>
      <trkpt lat="38.927464" lon="-5.797736">
        <ele>299.0</ele>
        <time>2021-02-13T11:55:52Z</time>
      </trkpt>
      <trkpt lat="38.927517" lon="-5.797736">
        <ele>300.0</ele>
        <time>2021-02-13T11:55:53Z</time>
      </trkpt>
      <trkpt lat="38.927574" lon="-5.797738">
        <ele>300.0</ele>
        <time>2021-02-13T11:55:54Z</time>
      </trkpt>
      <trkpt lat="38.927628" lon="-5.79774">
        <ele>300.0</ele>
        <time>2021-02-13T11:55:55Z</time>
      </trkpt>
      <trkpt lat="38.927677" lon="-5.797741">
        <ele>300.0</ele>
        <time>2021-02-13T11:55:56Z</time>
      </trkpt>
      <trkpt lat="38.92773" lon="-5.797738">
        <ele>300.0</ele>
        <time>2021-02-13T11:55:57Z</time>
      </trkpt>
      <trkpt lat="38.927784" lon="-5.797737">
        <ele>300.0</ele>
        <time>2021-02-13T11:55:58Z</time>
      </trkpt>
      <trkpt lat="38.927837" lon="-5.797736">
        <ele>300.0</ele>
        <time>2021-02-13T11:55:59Z</time>
      </trkpt>
      <trkpt lat="38.92789" lon="-5.797735">
        <ele>300.0</ele>
        <time>2021-02-13T11:56:00Z</time>
      </trkpt>
      <trkpt lat="38.927944" lon="-5.797735">
        <ele>300.0</ele>
        <time>2021-02-13T11:56:00Z</time>
      </trkpt>
      <trkpt lat="38.928" lon="-5.7977343">
        <ele>300.0</ele>
        <time>2021-02-13T11:56:02Z</time>
      </trkpt>
      <trkpt lat="38.928055" lon="-5.7977343">
        <ele>300.0</ele>
        <time>2021-02-13T11:56:02Z</time>
      </trkpt>
      <trkpt lat="38.928112" lon="-5.7977343">
        <ele>300.0</ele>
        <time>2021-02-13T11:56:04Z</time>
      </trkpt>
      <trkpt lat="38.928173" lon="-5.7977333">
        <ele>300.0</ele>
        <time>2021-02-13T11:56:04Z</time>
      </trkpt>
      <trkpt lat="38.928234" lon="-5.7977324">
        <ele>300.0</ele>
        <time>2021-02-13T11:56:05Z</time>
      </trkpt>
      <trkpt lat="38.92829" lon="-5.7977314">
        <ele>300.0</ele>
        <time>2021-02-13T11:56:06Z</time>
      </trkpt>
      <trkpt lat="38.92836" lon="-5.7977304">
        <ele>299.0</ele>
        <time>2021-02-13T11:56:07Z</time>
      </trkpt>
      <trkpt lat="38.92843" lon="-5.79773">
        <ele>299.0</ele>
        <time>2021-02-13T11:56:08Z</time>
      </trkpt>
      <trkpt lat="38.928497" lon="-5.797728">
        <ele>299.0</ele>
        <time>2021-02-13T11:56:09Z</time>
      </trkpt>
      <trkpt lat="38.928566" lon="-5.7977257">
        <ele>298.0</ele>
        <time>2021-02-13T11:56:10Z</time>
      </trkpt>
      <trkpt lat="38.92863" lon="-5.797723">
        <ele>298.0</ele>
        <time>2021-02-13T11:56:11Z</time>
      </trkpt>
      <trkpt lat="38.928703" lon="-5.797721">
        <ele>298.0</ele>
        <time>2021-02-13T11:56:12Z</time>
      </trkpt>
      <trkpt lat="38.928772" lon="-5.797719">
        <ele>298.0</ele>
        <time>2021-02-13T11:56:13Z</time>
      </trkpt>
      <trkpt lat="38.92884" lon="-5.797717">
        <ele>297.0</ele>
        <time>2021-02-13T11:56:14Z</time>
      </trkpt>
      <trkpt lat="38.928913" lon="-5.7977147">
        <ele>297.0</ele>
        <time>2021-02-13T11:56:15Z</time>
      </trkpt>
      <trkpt lat="38.928986" lon="-5.797713">
        <ele>297.0</ele>
        <time>2021-02-13T11:56:16Z</time>
      </trkpt>
      <trkpt lat="38.929058" lon="-5.7977114">
        <ele>297.0</ele>
        <time>2021-02-13T11:56:17Z</time>
      </trkpt>
      <trkpt lat="38.929134" lon="-5.7977095">
        <ele>296.0</ele>
        <time>2021-02-13T11:56:18Z</time>
      </trkpt>
      <trkpt lat="38.929207" lon="-5.7977076">
        <ele>296.0</ele>
        <time>2021-02-13T11:56:18Z</time>
      </trkpt>
      <trkpt lat="38.929283" lon="-5.7977057">
        <ele>296.0</ele>
        <time>2021-02-13T11:56:20Z</time>
      </trkpt>
      <trkpt lat="38.92936" lon="-5.797705">
        <ele>295.0</ele>
        <time>2021-02-13T11:56:21Z</time>
      </trkpt>
      <trkpt lat="38.929436" lon="-5.797706">
        <ele>295.0</ele>
        <time>2021-02-13T11:56:22Z</time>
      </trkpt>
      <trkpt lat="38.929512" lon="-5.7977076">
        <ele>295.0</ele>
        <time>2021-02-13T11:56:23Z</time>
      </trkpt>
      <trkpt lat="38.92958" lon="-5.797709">
        <ele>295.0</ele>
        <time>2021-02-13T11:56:24Z</time>
      </trkpt>
      <trkpt lat="38.929657" lon="-5.79771">
        <ele>294.0</ele>
        <time>2021-02-13T11:56:25Z</time>
      </trkpt>
      <trkpt lat="38.92973" lon="-5.7977114">
        <ele>294.0</ele>
        <time>2021-02-13T11:56:26Z</time>
      </trkpt>
      <trkpt lat="38.929802" lon="-5.797711">
        <ele>294.0</ele>
        <time>2021-02-13T11:56:27Z</time>
      </trkpt>
      <trkpt lat="38.929874" lon="-5.79771">
        <ele>294.0</ele>
        <time>2021-02-13T11:56:27Z</time>
      </trkpt>
      <trkpt lat="38.929943" lon="-5.797709">
        <ele>294.0</ele>
        <time>2021-02-13T11:56:29Z</time>
      </trkpt>
      <trkpt lat="38.930008" lon="-5.7977076">
        <ele>294.0</ele>
        <time>2021-02-13T11:56:30Z</time>
      </trkpt>
      <trkpt lat="38.930065" lon="-5.797707">
        <ele>294.0</ele>
        <time>2021-02-13T11:56:31Z</time>
      </trkpt>
      <trkpt lat="38.930126" lon="-5.797706">
        <ele>294.0</ele>
        <time>2021-02-13T11:56:32Z</time>
      </trkpt>
      <trkpt lat="38.930187" lon="-5.7977033">
        <ele>294.0</ele>
        <time>2021-02-13T11:56:32Z</time>
      </trkpt>
      <trkpt lat="38.93026" lon="-5.797702">
        <ele>294.0</ele>
        <time>2021-02-13T11:56:34Z</time>
      </trkpt>
      <trkpt lat="38.93033" lon="-5.797702">
        <ele>294.0</ele>
        <time>2021-02-13T11:56:35Z</time>
      </trkpt>
      <trkpt lat="38.930393" lon="-5.797702">
        <ele>294.0</ele>
        <time>2021-02-13T11:56:36Z</time>
      </trkpt>
      <trkpt lat="38.930466" lon="-5.7977023">
        <ele>294.0</ele>
        <time>2021-02-13T11:56:37Z</time>
      </trkpt>
      <trkpt lat="38.93053" lon="-5.7977033">
        <ele>294.0</ele>
        <time>2021-02-13T11:56:38Z</time>
      </trkpt>
      <trkpt lat="38.9306" lon="-5.797702">
        <ele>293.0</ele>
        <time>2021-02-13T11:56:39Z</time>
      </trkpt>
      <trkpt lat="38.930664" lon="-5.7977023">
        <ele>293.0</ele>
        <time>2021-02-13T11:56:40Z</time>
      </trkpt>
      <trkpt lat="38.930733" lon="-5.7977023">
        <ele>293.0</ele>
        <time>2021-02-13T11:56:41Z</time>
      </trkpt>
      <trkpt lat="38.930805" lon="-5.797704">
        <ele>293.0</ele>
        <time>2021-02-13T11:56:42Z</time>
      </trkpt>
      <trkpt lat="38.930878" lon="-5.797708">
        <ele>292.0</ele>
        <time>2021-02-13T11:56:43Z</time>
      </trkpt>
      <trkpt lat="38.930946" lon="-5.7977095">
        <ele>292.0</ele>
        <time>2021-02-13T11:56:44Z</time>
      </trkpt>
      <trkpt lat="38.931026" lon="-5.7977095">
        <ele>292.0</ele>
        <time>2021-02-13T11:56:45Z</time>
      </trkpt>
      <trkpt lat="38.931107" lon="-5.7977095">
        <ele>292.0</ele>
        <time>2021-02-13T11:56:46Z</time>
      </trkpt>
      <trkpt lat="38.931175" lon="-5.7977095">
        <ele>291.0</ele>
        <time>2021-02-13T11:56:47Z</time>
      </trkpt>
      <trkpt lat="38.931255" lon="-5.7977095">
        <ele>291.0</ele>
        <time>2021-02-13T11:56:48Z</time>
      </trkpt>
      <trkpt lat="38.93133" lon="-5.7977076">
        <ele>291.0</ele>
        <time>2021-02-13T11:56:49Z</time>
      </trkpt>
      <trkpt lat="38.93141" lon="-5.7977057">
        <ele>291.0</ele>
        <time>2021-02-13T11:56:50Z</time>
      </trkpt>
      <trkpt lat="38.931484" lon="-5.7977037">
        <ele>291.0</ele>
        <time>2021-02-13T11:56:51Z</time>
      </trkpt>
      <trkpt lat="38.931557" lon="-5.7977023">
        <ele>291.0</ele>
        <time>2021-02-13T11:56:52Z</time>
      </trkpt>
      <trkpt lat="38.931633" lon="-5.797702">
        <ele>291.0</ele>
        <time>2021-02-13T11:56:53Z</time>
      </trkpt>
      <trkpt lat="38.931705" lon="-5.7977004">
        <ele>291.0</ele>
        <time>2021-02-13T11:56:54Z</time>
      </trkpt>
      <trkpt lat="38.93178" lon="-5.797699">
        <ele>290.0</ele>
        <time>2021-02-13T11:56:55Z</time>
      </trkpt>
      <trkpt lat="38.931854" lon="-5.797699">
        <ele>290.0</ele>
        <time>2021-02-13T11:56:56Z</time>
      </trkpt>
      <trkpt lat="38.93193" lon="-5.797699">
        <ele>290.0</ele>
        <time>2021-02-13T11:56:57Z</time>
      </trkpt>
      <trkpt lat="38.932007" lon="-5.7977">
        <ele>290.0</ele>
        <time>2021-02-13T11:56:58Z</time>
      </trkpt>
      <trkpt lat="38.932083" lon="-5.797701">
        <ele>290.0</ele>
        <time>2021-02-13T11:56:59Z</time>
      </trkpt>
      <trkpt lat="38.932163" lon="-5.797701">
        <ele>289.0</ele>
        <time>2021-02-13T11:57:00Z</time>
      </trkpt>
      <trkpt lat="38.932243" lon="-5.797701">
        <ele>289.0</ele>
        <time>2021-02-13T11:57:01Z</time>
      </trkpt>
      <trkpt lat="38.93232" lon="-5.7977004">
        <ele>289.0</ele>
        <time>2021-02-13T11:57:02Z</time>
      </trkpt>
      <trkpt lat="38.932392" lon="-5.7976985">
        <ele>289.0</ele>
        <time>2021-02-13T11:57:03Z</time>
      </trkpt>
      <trkpt lat="38.93247" lon="-5.7976966">
        <ele>289.0</ele>
        <time>2021-02-13T11:57:04Z</time>
      </trkpt>
      <trkpt lat="38.932545" lon="-5.797694">
        <ele>288.0</ele>
        <time>2021-02-13T11:57:05Z</time>
      </trkpt>
      <trkpt lat="38.932632" lon="-5.797693">
        <ele>288.0</ele>
        <time>2021-02-13T11:57:06Z</time>
      </trkpt>
      <trkpt lat="38.93271" lon="-5.7976913">
        <ele>288.0</ele>
        <time>2021-02-13T11:57:07Z</time>
      </trkpt>
      <trkpt lat="38.932785" lon="-5.797691">
        <ele>288.0</ele>
        <time>2021-02-13T11:57:08Z</time>
      </trkpt>
      <trkpt lat="38.93286" lon="-5.7976904">
        <ele>288.0</ele>
        <time>2021-02-13T11:57:09Z</time>
      </trkpt>
      <trkpt lat="38.932938" lon="-5.7976885">
        <ele>288.0</ele>
        <time>2021-02-13T11:57:10Z</time>
      </trkpt>
      <trkpt lat="38.93302" lon="-5.7976856">
        <ele>287.0</ele>
        <time>2021-02-13T11:57:11Z</time>
      </trkpt>
      <trkpt lat="38.933105" lon="-5.7976847">
        <ele>287.0</ele>
        <time>2021-02-13T11:57:12Z</time>
      </trkpt>
      <trkpt lat="38.933178" lon="-5.7976832">
        <ele>287.0</ele>
        <time>2021-02-13T11:57:12Z</time>
      </trkpt>
      <trkpt lat="38.933258" lon="-5.797681">
        <ele>287.0</ele>
        <time>2021-02-13T11:57:14Z</time>
      </trkpt>
      <trkpt lat="38.933334" lon="-5.7976775">
        <ele>286.0</ele>
        <time>2021-02-13T11:57:15Z</time>
      </trkpt>
      <trkpt lat="38.93341" lon="-5.7976747">
        <ele>286.0</ele>
        <time>2021-02-13T11:57:15Z</time>
      </trkpt>
      <trkpt lat="38.93349" lon="-5.7976723">
        <ele>286.0</ele>
        <time>2021-02-13T11:57:17Z</time>
      </trkpt>
      <trkpt lat="38.93357" lon="-5.7976704">
        <ele>286.0</ele>
        <time>2021-02-13T11:57:18Z</time>
      </trkpt>
      <trkpt lat="38.93365" lon="-5.797669">
        <ele>285.0</ele>
        <time>2021-02-13T11:57:19Z</time>
      </trkpt>
      <trkpt lat="38.93373" lon="-5.797669">
        <ele>285.0</ele>
        <time>2021-02-13T11:57:20Z</time>
      </trkpt>
      <trkpt lat="38.933815" lon="-5.797668">
        <ele>285.0</ele>
        <time>2021-02-13T11:57:21Z</time>
      </trkpt>
      <trkpt lat="38.9339" lon="-5.7976665">
        <ele>285.0</ele>
        <time>2021-02-13T11:57:22Z</time>
      </trkpt>
      <trkpt lat="38.93397" lon="-5.797665">
        <ele>285.0</ele>
        <time>2021-02-13T11:57:23Z</time>
      </trkpt>
      <trkpt lat="38.934048" lon="-5.7976646">
        <ele>285.0</ele>
        <time>2021-02-13T11:57:24Z</time>
      </trkpt>
      <trkpt lat="38.934124" lon="-5.797664">
        <ele>285.0</ele>
        <time>2021-02-13T11:57:25Z</time>
      </trkpt>
      <trkpt lat="38.9342" lon="-5.7976623">
        <ele>285.0</ele>
        <time>2021-02-13T11:57:26Z</time>
      </trkpt>
      <trkpt lat="38.93428" lon="-5.7976594">
        <ele>285.0</ele>
        <time>2021-02-13T11:57:27Z</time>
      </trkpt>
      <trkpt lat="38.934357" lon="-5.797657">
        <ele>285.0</ele>
        <time>2021-02-13T11:57:28Z</time>
      </trkpt>
      <trkpt lat="38.934425" lon="-5.797655">
        <ele>285.0</ele>
        <time>2021-02-13T11:57:29Z</time>
      </trkpt>
      <trkpt lat="38.934498" lon="-5.7976522">
        <ele>285.0</ele>
        <time>2021-02-13T11:57:29Z</time>
      </trkpt>
      <trkpt lat="38.934563" lon="-5.7976503">
        <ele>285.0</ele>
        <time>2021-02-13T11:57:31Z</time>
      </trkpt>
      <trkpt lat="38.934635" lon="-5.7976475">
        <ele>285.0</ele>
        <time>2021-02-13T11:57:32Z</time>
      </trkpt>
      <trkpt lat="38.9347" lon="-5.797644">
        <ele>285.0</ele>
        <time>2021-02-13T11:57:33Z</time>
      </trkpt>
      <trkpt lat="38.934757" lon="-5.797642">
        <ele>285.0</ele>
        <time>2021-02-13T11:57:33Z</time>
      </trkpt>
      <trkpt lat="38.93482" lon="-5.7976403">
        <ele>285.0</ele>
        <time>2021-02-13T11:57:35Z</time>
      </trkpt>
      <trkpt lat="38.934875" lon="-5.7976384">
        <ele>286.0</ele>
        <time>2021-02-13T11:57:36Z</time>
      </trkpt>
      <trkpt lat="38.93493" lon="-5.7976346">
        <ele>286.0</ele>
        <time>2021-02-13T11:57:37Z</time>
      </trkpt>
      <trkpt lat="38.934975" lon="-5.797632">
        <ele>286.0</ele>
        <time>2021-02-13T11:57:38Z</time>
      </trkpt>
      <trkpt lat="38.935013" lon="-5.797631">
        <ele>287.0</ele>
        <time>2021-02-13T11:57:39Z</time>
      </trkpt>
      <trkpt lat="38.935055" lon="-5.797629">
        <ele>287.0</ele>
        <time>2021-02-13T11:57:40Z</time>
      </trkpt>
      <trkpt lat="38.935093" lon="-5.797629">
        <ele>287.0</ele>
        <time>2021-02-13T11:57:41Z</time>
      </trkpt>
      <trkpt lat="38.93513" lon="-5.797629">
        <ele>288.0</ele>
        <time>2021-02-13T11:57:42Z</time>
      </trkpt>
      <trkpt lat="38.935165" lon="-5.7976274">
        <ele>288.0</ele>
        <time>2021-02-13T11:57:43Z</time>
      </trkpt>
      <trkpt lat="38.9352" lon="-5.7976274">
        <ele>288.0</ele>
        <time>2021-02-13T11:57:43Z</time>
      </trkpt>
      <trkpt lat="38.93523" lon="-5.797627">
        <ele>289.0</ele>
        <time>2021-02-13T11:57:45Z</time>
      </trkpt>
      <trkpt lat="38.935265" lon="-5.797625">
        <ele>289.0</ele>
        <time>2021-02-13T11:57:46Z</time>
      </trkpt>
      <trkpt lat="38.935295" lon="-5.79762">
        <ele>289.0</ele>
        <time>2021-02-13T11:57:47Z</time>
      </trkpt>
      <trkpt lat="38.935326" lon="-5.7976146">
        <ele>289.0</ele>
        <time>2021-02-13T11:57:48Z</time>
      </trkpt>
      <trkpt lat="38.93536" lon="-5.797609">
        <ele>289.0</ele>
        <time>2021-02-13T11:57:49Z</time>
      </trkpt>
      <trkpt lat="38.935394" lon="-5.797605">
        <ele>289.0</ele>
        <time>2021-02-13T11:57:50Z</time>
      </trkpt>
      <trkpt lat="38.935425" lon="-5.7976027">
        <ele>290.0</ele>
        <time>2021-02-13T11:57:51Z</time>
      </trkpt>
      <trkpt lat="38.93546" lon="-5.797601">
        <ele>290.0</ele>
        <time>2021-02-13T11:57:52Z</time>
      </trkpt>
      <trkpt lat="38.93549" lon="-5.7976017">
        <ele>290.0</ele>
        <time>2021-02-13T11:57:53Z</time>
      </trkpt>
      <trkpt lat="38.935524" lon="-5.7976017">
        <ele>290.0</ele>
        <time>2021-02-13T11:57:54Z</time>
      </trkpt>
      <trkpt lat="38.93556" lon="-5.7976007">
        <ele>290.0</ele>
        <time>2021-02-13T11:57:55Z</time>
      </trkpt>
      <trkpt lat="38.935596" lon="-5.7975993">
        <ele>290.0</ele>
        <time>2021-02-13T11:57:56Z</time>
      </trkpt>
      <trkpt lat="38.935642" lon="-5.7975974">
        <ele>290.0</ele>
        <time>2021-02-13T11:57:57Z</time>
      </trkpt>
      <trkpt lat="38.935688" lon="-5.797595">
        <ele>291.0</ele>
        <time>2021-02-13T11:57:58Z</time>
      </trkpt>
      <trkpt lat="38.935738" lon="-5.797592">
        <ele>291.0</ele>
        <time>2021-02-13T11:57:59Z</time>
      </trkpt>
      <trkpt lat="38.935783" lon="-5.79759">
        <ele>291.0</ele>
        <time>2021-02-13T11:58:00Z</time>
      </trkpt>
      <trkpt lat="38.93583" lon="-5.7975893">
        <ele>291.0</ele>
        <time>2021-02-13T11:58:01Z</time>
      </trkpt>
      <trkpt lat="38.93588" lon="-5.7975883">
        <ele>291.0</ele>
        <time>2021-02-13T11:58:02Z</time>
      </trkpt>
      <trkpt lat="38.935925" lon="-5.7975864">
        <ele>291.0</ele>
        <time>2021-02-13T11:58:03Z</time>
      </trkpt>
      <trkpt lat="38.935974" lon="-5.7975845">
        <ele>291.0</ele>
        <time>2021-02-13T11:58:04Z</time>
      </trkpt>
      <trkpt lat="38.936024" lon="-5.7975826">
        <ele>291.0</ele>
        <time>2021-02-13T11:58:05Z</time>
      </trkpt>
      <trkpt lat="38.936077" lon="-5.7975817">
        <ele>291.0</ele>
        <time>2021-02-13T11:58:06Z</time>
      </trkpt>
      <trkpt lat="38.93613" lon="-5.7975793">
        <ele>291.0</ele>
        <time>2021-02-13T11:58:07Z</time>
      </trkpt>
      <trkpt lat="38.93618" lon="-5.797579">
        <ele>291.0</ele>
        <time>2021-02-13T11:58:08Z</time>
      </trkpt>
      <trkpt lat="38.936234" lon="-5.7975807">
        <ele>291.0</ele>
        <time>2021-02-13T11:58:09Z</time>
      </trkpt>
      <trkpt lat="38.936287" lon="-5.7975817">
        <ele>291.0</ele>
        <time>2021-02-13T11:58:10Z</time>
      </trkpt>
      <trkpt lat="38.93634" lon="-5.7975817">
        <ele>291.0</ele>
        <time>2021-02-13T11:58:11Z</time>
      </trkpt>
      <trkpt lat="38.936394" lon="-5.7975817">
        <ele>291.0</ele>
        <time>2021-02-13T11:58:12Z</time>
      </trkpt>
      <trkpt lat="38.936447" lon="-5.7975802">
        <ele>291.0</ele>
        <time>2021-02-13T11:58:13Z</time>
      </trkpt>
      <trkpt lat="38.9365" lon="-5.797579">
        <ele>291.0</ele>
        <time>2021-02-13T11:58:14Z</time>
      </trkpt>
      <trkpt lat="38.936558" lon="-5.797577">
        <ele>291.0</ele>
        <time>2021-02-13T11:58:15Z</time>
      </trkpt>
      <trkpt lat="38.93661" lon="-5.797575">
        <ele>291.0</ele>
        <time>2021-02-13T11:58:16Z</time>
      </trkpt>
      <trkpt lat="38.936665" lon="-5.7975736">
        <ele>291.0</ele>
        <time>2021-02-13T11:58:17Z</time>
      </trkpt>
      <trkpt lat="38.936718" lon="-5.797573">
        <ele>291.0</ele>
        <time>2021-02-13T11:58:18Z</time>
      </trkpt>
      <trkpt lat="38.936775" lon="-5.797571">
        <ele>291.0</ele>
        <time>2021-02-13T11:58:19Z</time>
      </trkpt>
      <trkpt lat="38.936832" lon="-5.7975693">
        <ele>291.0</ele>
        <time>2021-02-13T11:58:20Z</time>
      </trkpt>
      <trkpt lat="38.93689" lon="-5.797568">
        <ele>291.0</ele>
        <time>2021-02-13T11:58:21Z</time>
      </trkpt>
      <trkpt lat="38.936943" lon="-5.7975655">
        <ele>291.0</ele>
        <time>2021-02-13T11:58:22Z</time>
      </trkpt>
      <trkpt lat="38.937004" lon="-5.797563">
        <ele>291.0</ele>
        <time>2021-02-13T11:58:23Z</time>
      </trkpt>
      <trkpt lat="38.93706" lon="-5.797561">
        <ele>291.0</ele>
        <time>2021-02-13T11:58:24Z</time>
      </trkpt>
      <trkpt lat="38.937122" lon="-5.7975583">
        <ele>291.0</ele>
        <time>2021-02-13T11:58:25Z</time>
      </trkpt>
      <trkpt lat="38.937183" lon="-5.7975574">
        <ele>291.0</ele>
        <time>2021-02-13T11:58:26Z</time>
      </trkpt>
      <trkpt lat="38.937244" lon="-5.7975564">
        <ele>290.0</ele>
        <time>2021-02-13T11:58:26Z</time>
      </trkpt>
      <trkpt lat="38.937492" lon="-5.797554">
        <ele>290.0</ele>
        <time>2021-02-13T11:58:29Z</time>
      </trkpt>
      <trkpt lat="38.93751" lon="-5.797553">
        <ele>290.0</ele>
        <time>2021-02-13T11:58:30Z</time>
      </trkpt>
      <trkpt lat="38.937542" lon="-5.7975526">
        <ele>290.0</ele>
        <time>2021-02-13T11:58:31Z</time>
      </trkpt>
      <trkpt lat="38.93759" lon="-5.7975526">
        <ele>289.0</ele>
        <time>2021-02-13T11:58:32Z</time>
      </trkpt>
      <trkpt lat="38.93764" lon="-5.797552">
        <ele>289.0</ele>
        <time>2021-02-13T11:58:33Z</time>
      </trkpt>
      <trkpt lat="38.937702" lon="-5.79755">
        <ele>289.0</ele>
        <time>2021-02-13T11:58:34Z</time>
      </trkpt>
      <trkpt lat="38.937767" lon="-5.797549">
        <ele>289.0</ele>
        <time>2021-02-13T11:58:35Z</time>
      </trkpt>
      <trkpt lat="38.93783" lon="-5.797549">
        <ele>289.0</ele>
        <time>2021-02-13T11:58:36Z</time>
      </trkpt>
      <trkpt lat="38.937893" lon="-5.797549">
        <ele>289.0</ele>
        <time>2021-02-13T11:58:37Z</time>
      </trkpt>
      <trkpt lat="38.937954" lon="-5.7975483">
        <ele>289.0</ele>
        <time>2021-02-13T11:58:38Z</time>
      </trkpt>
      <trkpt lat="38.938023" lon="-5.797547">
        <ele>289.0</ele>
        <time>2021-02-13T11:58:39Z</time>
      </trkpt>
      <trkpt lat="38.93809" lon="-5.797545">
        <ele>288.0</ele>
        <time>2021-02-13T11:58:40Z</time>
      </trkpt>
      <trkpt lat="38.938164" lon="-5.797545">
        <ele>288.0</ele>
        <time>2021-02-13T11:58:41Z</time>
      </trkpt>
      <trkpt lat="38.938232" lon="-5.7975435">
        <ele>288.0</ele>
        <time>2021-02-13T11:58:42Z</time>
      </trkpt>
      <trkpt lat="38.938305" lon="-5.797543">
        <ele>288.0</ele>
        <time>2021-02-13T11:58:43Z</time>
      </trkpt>
      <trkpt lat="38.938374" lon="-5.7975426">
        <ele>287.0</ele>
        <time>2021-02-13T11:58:44Z</time>
      </trkpt>
      <trkpt lat="38.938446" lon="-5.7975416">
        <ele>287.0</ele>
        <time>2021-02-13T11:58:45Z</time>
      </trkpt>
      <trkpt lat="38.938522" lon="-5.7975407">
        <ele>287.0</ele>
        <time>2021-02-13T11:58:46Z</time>
      </trkpt>
      <trkpt lat="38.938595" lon="-5.797541">
        <ele>286.0</ele>
        <time>2021-02-13T11:58:47Z</time>
      </trkpt>
      <trkpt lat="38.938667" lon="-5.7975407">
        <ele>286.0</ele>
        <time>2021-02-13T11:58:48Z</time>
      </trkpt>
      <trkpt lat="38.938744" lon="-5.797541">
        <ele>286.0</ele>
        <time>2021-02-13T11:58:49Z</time>
      </trkpt>
      <trkpt lat="38.938824" lon="-5.797541">
        <ele>286.0</ele>
        <time>2021-02-13T11:58:50Z</time>
      </trkpt>
      <trkpt lat="38.9389" lon="-5.797541">
        <ele>285.0</ele>
        <time>2021-02-13T11:58:51Z</time>
      </trkpt>
      <trkpt lat="38.93898" lon="-5.7975426">
        <ele>285.0</ele>
        <time>2021-02-13T11:58:52Z</time>
      </trkpt>
      <trkpt lat="38.939053" lon="-5.797543">
        <ele>285.0</ele>
        <time>2021-02-13T11:58:53Z</time>
      </trkpt>
      <trkpt lat="38.939125" lon="-5.797545">
        <ele>285.0</ele>
        <time>2021-02-13T11:58:54Z</time>
      </trkpt>
      <trkpt lat="38.939194" lon="-5.797547">
        <ele>284.0</ele>
        <time>2021-02-13T11:58:55Z</time>
      </trkpt>
      <trkpt lat="38.939266" lon="-5.7975454">
        <ele>284.0</ele>
        <time>2021-02-13T11:58:56Z</time>
      </trkpt>
      <trkpt lat="38.93934" lon="-5.7975426">
        <ele>284.0</ele>
        <time>2021-02-13T11:58:57Z</time>
      </trkpt>
      <trkpt lat="38.939407" lon="-5.797537">
        <ele>284.0</ele>
        <time>2021-02-13T11:58:58Z</time>
      </trkpt>
      <trkpt lat="38.939476" lon="-5.79753">
        <ele>284.0</ele>
        <time>2021-02-13T11:58:59Z</time>
      </trkpt>
      <trkpt lat="38.939545" lon="-5.797524">
        <ele>284.0</ele>
        <time>2021-02-13T11:59:00Z</time>
      </trkpt>
      <trkpt lat="38.939613" lon="-5.79752">
        <ele>284.0</ele>
        <time>2021-02-13T11:59:01Z</time>
      </trkpt>
      <trkpt lat="38.939682" lon="-5.7975163">
        <ele>284.0</ele>
        <time>2021-02-13T11:59:02Z</time>
      </trkpt>
      <trkpt lat="38.939747" lon="-5.7975125">
        <ele>284.0</ele>
        <time>2021-02-13T11:59:03Z</time>
      </trkpt>
      <trkpt lat="38.939808" lon="-5.797511">
        <ele>285.0</ele>
        <time>2021-02-13T11:59:04Z</time>
      </trkpt>
      <trkpt lat="38.93987" lon="-5.7975106">
        <ele>285.0</ele>
        <time>2021-02-13T11:59:05Z</time>
      </trkpt>
      <trkpt lat="38.939926" lon="-5.797509">
        <ele>285.0</ele>
        <time>2021-02-13T11:59:06Z</time>
      </trkpt>
      <trkpt lat="38.93998" lon="-5.7975073">
        <ele>286.0</ele>
        <time>2021-02-13T11:59:07Z</time>
      </trkpt>
      <trkpt lat="38.940033" lon="-5.797506">
        <ele>286.0</ele>
        <time>2021-02-13T11:59:08Z</time>
      </trkpt>
      <trkpt lat="38.940086" lon="-5.7975054">
        <ele>286.0</ele>
        <time>2021-02-13T11:59:09Z</time>
      </trkpt>
      <trkpt lat="38.94014" lon="-5.797504">
        <ele>287.0</ele>
        <time>2021-02-13T11:59:10Z</time>
      </trkpt>
      <trkpt lat="38.94019" lon="-5.7975025">
        <ele>287.0</ele>
        <time>2021-02-13T11:59:11Z</time>
      </trkpt>
      <trkpt lat="38.94024" lon="-5.797502">
        <ele>287.0</ele>
        <time>2021-02-13T11:59:12Z</time>
      </trkpt>
      <trkpt lat="38.94029" lon="-5.7975016">
        <ele>287.0</ele>
        <time>2021-02-13T11:59:13Z</time>
      </trkpt>
      <trkpt lat="38.94034" lon="-5.7975016">
        <ele>288.0</ele>
        <time>2021-02-13T11:59:14Z</time>
      </trkpt>
      <trkpt lat="38.940388" lon="-5.7975">
        <ele>288.0</ele>
        <time>2021-02-13T11:59:15Z</time>
      </trkpt>
      <trkpt lat="38.940437" lon="-5.7975">
        <ele>288.0</ele>
        <time>2021-02-13T11:59:16Z</time>
      </trkpt>
      <trkpt lat="38.940487" lon="-5.7975">
        <ele>288.0</ele>
        <time>2021-02-13T11:59:17Z</time>
      </trkpt>
      <trkpt lat="38.940536" lon="-5.7975">
        <ele>289.0</ele>
        <time>2021-02-13T11:59:18Z</time>
      </trkpt>
      <trkpt lat="38.940586" lon="-5.7975">
        <ele>289.0</ele>
        <time>2021-02-13T11:59:19Z</time>
      </trkpt>
      <trkpt lat="38.94063" lon="-5.7974987">
        <ele>289.0</ele>
        <time>2021-02-13T11:59:20Z</time>
      </trkpt>
      <trkpt lat="38.94068" lon="-5.797498">
        <ele>289.0</ele>
        <time>2021-02-13T11:59:21Z</time>
      </trkpt>
      <trkpt lat="38.940727" lon="-5.7974977">
        <ele>289.0</ele>
        <time>2021-02-13T11:59:22Z</time>
      </trkpt>
      <trkpt lat="38.940777" lon="-5.797497">
        <ele>290.0</ele>
        <time>2021-02-13T11:59:23Z</time>
      </trkpt>
      <trkpt lat="38.940826" lon="-5.797497">
        <ele>290.0</ele>
        <time>2021-02-13T11:59:24Z</time>
      </trkpt>
      <trkpt lat="38.940876" lon="-5.797498">
        <ele>290.0</ele>
        <time>2021-02-13T11:59:25Z</time>
      </trkpt>
      <trkpt lat="38.940926" lon="-5.7975">
        <ele>290.0</ele>
        <time>2021-02-13T11:59:26Z</time>
      </trkpt>
      <trkpt lat="38.94097" lon="-5.797502">
        <ele>291.0</ele>
        <time>2021-02-13T11:59:27Z</time>
      </trkpt>
      <trkpt lat="38.94102" lon="-5.797502">
        <ele>291.0</ele>
        <time>2021-02-13T11:59:28Z</time>
      </trkpt>
      <trkpt lat="38.94107" lon="-5.7975016">
        <ele>291.0</ele>
        <time>2021-02-13T11:59:29Z</time>
      </trkpt>
      <trkpt lat="38.941116" lon="-5.7975006">
        <ele>291.0</ele>
        <time>2021-02-13T11:59:30Z</time>
      </trkpt>
      <trkpt lat="38.941166" lon="-5.7975016">
        <ele>291.0</ele>
        <time>2021-02-13T11:59:31Z</time>
      </trkpt>
      <trkpt lat="38.941216" lon="-5.797502">
        <ele>291.0</ele>
        <time>2021-02-13T11:59:32Z</time>
      </trkpt>
      <trkpt lat="38.941265" lon="-5.7975016">
        <ele>291.0</ele>
        <time>2021-02-13T11:59:33Z</time>
      </trkpt>
      <trkpt lat="38.941315" lon="-5.7975016">
        <ele>291.0</ele>
        <time>2021-02-13T11:59:34Z</time>
      </trkpt>
      <trkpt lat="38.941364" lon="-5.7975">
        <ele>291.0</ele>
        <time>2021-02-13T11:59:35Z</time>
      </trkpt>
      <trkpt lat="38.941418" lon="-5.7974997">
        <ele>291.0</ele>
        <time>2021-02-13T11:59:36Z</time>
      </trkpt>
      <trkpt lat="38.94147" lon="-5.7974977">
        <ele>291.0</ele>
        <time>2021-02-13T11:59:37Z</time>
      </trkpt>
      <trkpt lat="38.941525" lon="-5.7974963">
        <ele>291.0</ele>
        <time>2021-02-13T11:59:38Z</time>
      </trkpt>
      <trkpt lat="38.941578" lon="-5.7974944">
        <ele>291.0</ele>
        <time>2021-02-13T11:59:39Z</time>
      </trkpt>
      <trkpt lat="38.94164" lon="-5.797494">
        <ele>291.0</ele>
        <time>2021-02-13T11:59:40Z</time>
      </trkpt>
      <trkpt lat="38.941696" lon="-5.797494">
        <ele>291.0</ele>
        <time>2021-02-13T11:59:40Z</time>
      </trkpt>
      <trkpt lat="38.941753" lon="-5.797493">
        <ele>291.0</ele>
        <time>2021-02-13T11:59:42Z</time>
      </trkpt>
      <trkpt lat="38.941826" lon="-5.797493">
        <ele>290.0</ele>
        <time>2021-02-13T11:59:43Z</time>
      </trkpt>
      <trkpt lat="38.94189" lon="-5.797492">
        <ele>290.0</ele>
        <time>2021-02-13T11:59:44Z</time>
      </trkpt>
      <trkpt lat="38.941963" lon="-5.797492">
        <ele>290.0</ele>
        <time>2021-02-13T11:59:45Z</time>
      </trkpt>
      <trkpt lat="38.942028" lon="-5.79749">
        <ele>289.0</ele>
        <time>2021-02-13T11:59:46Z</time>
      </trkpt>
      <trkpt lat="38.942097" lon="-5.797489">
        <ele>289.0</ele>
        <time>2021-02-13T11:59:47Z</time>
      </trkpt>
      <trkpt lat="38.942173" lon="-5.79749">
        <ele>289.0</ele>
        <time>2021-02-13T11:59:48Z</time>
      </trkpt>
      <trkpt lat="38.94225" lon="-5.79749">
        <ele>288.0</ele>
        <time>2021-02-13T11:59:49Z</time>
      </trkpt>
      <trkpt lat="38.942326" lon="-5.7974906">
        <ele>288.0</ele>
        <time>2021-02-13T11:59:50Z</time>
      </trkpt>
      <trkpt lat="38.942398" lon="-5.797491">
        <ele>287.0</ele>
        <time>2021-02-13T11:59:51Z</time>
      </trkpt>
      <trkpt lat="38.94247" lon="-5.797491">
        <ele>287.0</ele>
        <time>2021-02-13T11:59:52Z</time>
      </trkpt>
      <trkpt lat="38.942543" lon="-5.797492">
        <ele>287.0</ele>
        <time>2021-02-13T11:59:53Z</time>
      </trkpt>
      <trkpt lat="38.942616" lon="-5.797491">
        <ele>286.0</ele>
        <time>2021-02-13T11:59:54Z</time>
      </trkpt>
      <trkpt lat="38.942688" lon="-5.79749">
        <ele>286.0</ele>
        <time>2021-02-13T11:59:55Z</time>
      </trkpt>
      <trkpt lat="38.94276" lon="-5.797488">
        <ele>286.0</ele>
        <time>2021-02-13T11:59:56Z</time>
      </trkpt>
      <trkpt lat="38.94284" lon="-5.7974863">
        <ele>286.0</ele>
        <time>2021-02-13T11:59:57Z</time>
      </trkpt>
      <trkpt lat="38.942913" lon="-5.7974844">
        <ele>285.0</ele>
        <time>2021-02-13T11:59:58Z</time>
      </trkpt>
      <trkpt lat="38.942986" lon="-5.797482">
        <ele>285.0</ele>
        <time>2021-02-13T11:59:59Z</time>
      </trkpt>
      <trkpt lat="38.943054" lon="-5.79748">
        <ele>285.0</ele>
        <time>2021-02-13T12:00:00Z</time>
      </trkpt>
      <trkpt lat="38.94313" lon="-5.797478">
        <ele>285.0</ele>
        <time>2021-02-13T12:00:01Z</time>
      </trkpt>
      <trkpt lat="38.943203" lon="-5.7974763">
        <ele>285.0</ele>
        <time>2021-02-13T12:00:02Z</time>
      </trkpt>
      <trkpt lat="38.943275" lon="-5.7974744">
        <ele>284.0</ele>
        <time>2021-02-13T12:00:02Z</time>
      </trkpt>
      <trkpt lat="38.943348" lon="-5.797472">
        <ele>284.0</ele>
        <time>2021-02-13T12:00:04Z</time>
      </trkpt>
      <trkpt lat="38.943424" lon="-5.79747">
        <ele>284.0</ele>
        <time>2021-02-13T12:00:05Z</time>
      </trkpt>
      <trkpt lat="38.943497" lon="-5.7974677">
        <ele>284.0</ele>
        <time>2021-02-13T12:00:06Z</time>
      </trkpt>
      <trkpt lat="38.94357" lon="-5.7974644">
        <ele>284.0</ele>
        <time>2021-02-13T12:00:07Z</time>
      </trkpt>
      <trkpt lat="38.94364" lon="-5.797462">
        <ele>284.0</ele>
        <time>2021-02-13T12:00:08Z</time>
      </trkpt>
      <trkpt lat="38.94371" lon="-5.7974596">
        <ele>284.0</ele>
        <time>2021-02-13T12:00:09Z</time>
      </trkpt>
      <trkpt lat="38.94378" lon="-5.797459">
        <ele>284.0</ele>
        <time>2021-02-13T12:00:10Z</time>
      </trkpt>
      <trkpt lat="38.94385" lon="-5.797457">
        <ele>284.0</ele>
        <time>2021-02-13T12:00:11Z</time>
      </trkpt>
      <trkpt lat="38.94392" lon="-5.7974567">
        <ele>284.0</ele>
        <time>2021-02-13T12:00:12Z</time>
      </trkpt>
      <trkpt lat="38.943993" lon="-5.797455">
        <ele>284.0</ele>
        <time>2021-02-13T12:00:13Z</time>
      </trkpt>
      <trkpt lat="38.94406" lon="-5.797455">
        <ele>284.0</ele>
        <time>2021-02-13T12:00:14Z</time>
      </trkpt>
      <trkpt lat="38.944126" lon="-5.7974534">
        <ele>284.0</ele>
        <time>2021-02-13T12:00:15Z</time>
      </trkpt>
      <trkpt lat="38.944195" lon="-5.797453">
        <ele>284.0</ele>
        <time>2021-02-13T12:00:16Z</time>
      </trkpt>
      <trkpt lat="38.94426" lon="-5.797452">
        <ele>284.0</ele>
        <time>2021-02-13T12:00:17Z</time>
      </trkpt>
      <trkpt lat="38.94432" lon="-5.797451">
        <ele>284.0</ele>
        <time>2021-02-13T12:00:18Z</time>
      </trkpt>
      <trkpt lat="38.94438" lon="-5.7974496">
        <ele>284.0</ele>
        <time>2021-02-13T12:00:18Z</time>
      </trkpt>
      <trkpt lat="38.94444" lon="-5.797449">
        <ele>284.0</ele>
        <time>2021-02-13T12:00:19Z</time>
      </trkpt>
      <trkpt lat="38.9445" lon="-5.797448">
        <ele>285.0</ele>
        <time>2021-02-13T12:00:20Z</time>
      </trkpt>
      <trkpt lat="38.944557" lon="-5.797448">
        <ele>285.0</ele>
        <time>2021-02-13T12:00:21Z</time>
      </trkpt>
      <trkpt lat="38.944614" lon="-5.797448">
        <ele>285.0</ele>
        <time>2021-02-13T12:00:22Z</time>
      </trkpt>
      <trkpt lat="38.944668" lon="-5.7974463">
        <ele>285.0</ele>
        <time>2021-02-13T12:00:23Z</time>
      </trkpt>
      <trkpt lat="38.94472" lon="-5.797446">
        <ele>285.0</ele>
        <time>2021-02-13T12:00:24Z</time>
      </trkpt>
      <trkpt lat="38.944775" lon="-5.7974443">
        <ele>285.0</ele>
        <time>2021-02-13T12:00:25Z</time>
      </trkpt>
      <trkpt lat="38.944828" lon="-5.797444">
        <ele>285.0</ele>
        <time>2021-02-13T12:00:25Z</time>
      </trkpt>
      <trkpt lat="38.944874" lon="-5.7974443">
        <ele>285.0</ele>
        <time>2021-02-13T12:00:27Z</time>
      </trkpt>
      <trkpt lat="38.944923" lon="-5.797446">
        <ele>285.0</ele>
        <time>2021-02-13T12:00:28Z</time>
      </trkpt>
      <trkpt lat="38.944973" lon="-5.7974463">
        <ele>285.0</ele>
        <time>2021-02-13T12:00:29Z</time>
      </trkpt>
      <trkpt lat="38.945023" lon="-5.7974477">
        <ele>285.0</ele>
        <time>2021-02-13T12:00:30Z</time>
      </trkpt>
      <trkpt lat="38.945072" lon="-5.797448">
        <ele>285.0</ele>
        <time>2021-02-13T12:00:31Z</time>
      </trkpt>
      <trkpt lat="38.945126" lon="-5.7974496">
        <ele>285.0</ele>
        <time>2021-02-13T12:00:32Z</time>
      </trkpt>
      <trkpt lat="38.945187" lon="-5.797451">
        <ele>285.0</ele>
        <time>2021-02-13T12:00:33Z</time>
      </trkpt>
      <trkpt lat="38.94524" lon="-5.7974515">
        <ele>285.0</ele>
        <time>2021-02-13T12:00:34Z</time>
      </trkpt>
      <trkpt lat="38.945305" lon="-5.797451">
        <ele>285.0</ele>
        <time>2021-02-13T12:00:35Z</time>
      </trkpt>
      <trkpt lat="38.945366" lon="-5.7974496">
        <ele>285.0</ele>
        <time>2021-02-13T12:00:36Z</time>
      </trkpt>
      <trkpt lat="38.945423" lon="-5.797448">
        <ele>285.0</ele>
        <time>2021-02-13T12:00:37Z</time>
      </trkpt>
      <trkpt lat="38.94548" lon="-5.797446">
        <ele>285.0</ele>
        <time>2021-02-13T12:00:38Z</time>
      </trkpt>
      <trkpt lat="38.94554" lon="-5.7974434">
        <ele>285.0</ele>
        <time>2021-02-13T12:00:39Z</time>
      </trkpt>
      <trkpt lat="38.9456" lon="-5.7974415">
        <ele>285.0</ele>
        <time>2021-02-13T12:00:40Z</time>
      </trkpt>
      <trkpt lat="38.94566" lon="-5.7974396">
        <ele>285.0</ele>
        <time>2021-02-13T12:00:41Z</time>
      </trkpt>
      <trkpt lat="38.945717" lon="-5.7974353">
        <ele>285.0</ele>
        <time>2021-02-13T12:00:42Z</time>
      </trkpt>
      <trkpt lat="38.945778" lon="-5.7974315">
        <ele>285.0</ele>
        <time>2021-02-13T12:00:43Z</time>
      </trkpt>
      <trkpt lat="38.94583" lon="-5.7974277">
        <ele>285.0</ele>
        <time>2021-02-13T12:00:44Z</time>
      </trkpt>
      <trkpt lat="38.945892" lon="-5.797425">
        <ele>285.0</ele>
        <time>2021-02-13T12:00:45Z</time>
      </trkpt>
      <trkpt lat="38.94595" lon="-5.7974215">
        <ele>285.0</ele>
        <time>2021-02-13T12:00:46Z</time>
      </trkpt>
      <trkpt lat="38.94601" lon="-5.7974195">
        <ele>285.0</ele>
        <time>2021-02-13T12:00:47Z</time>
      </trkpt>
      <trkpt lat="38.946068" lon="-5.7974195">
        <ele>285.0</ele>
        <time>2021-02-13T12:00:48Z</time>
      </trkpt>
      <trkpt lat="38.94612" lon="-5.7974195">
        <ele>285.0</ele>
        <time>2021-02-13T12:00:49Z</time>
      </trkpt>
      <trkpt lat="38.946175" lon="-5.7974195">
        <ele>285.0</ele>
        <time>2021-02-13T12:00:50Z</time>
      </trkpt>
      <trkpt lat="38.946228" lon="-5.7974195">
        <ele>286.0</ele>
        <time>2021-02-13T12:00:51Z</time>
      </trkpt>
      <trkpt lat="38.94628" lon="-5.797416">
        <ele>286.0</ele>
        <time>2021-02-13T12:00:52Z</time>
      </trkpt>
      <trkpt lat="38.94633" lon="-5.7974143">
        <ele>286.0</ele>
        <time>2021-02-13T12:00:53Z</time>
      </trkpt>
      <trkpt lat="38.946384" lon="-5.797411">
        <ele>286.0</ele>
        <time>2021-02-13T12:00:54Z</time>
      </trkpt>
      <trkpt lat="38.94643" lon="-5.7974086">
        <ele>286.0</ele>
        <time>2021-02-13T12:00:55Z</time>
      </trkpt>
      <trkpt lat="38.946484" lon="-5.797406">
        <ele>287.0</ele>
        <time>2021-02-13T12:00:56Z</time>
      </trkpt>
      <trkpt lat="38.946533" lon="-5.7974043">
        <ele>287.0</ele>
        <time>2021-02-13T12:00:57Z</time>
      </trkpt>
      <trkpt lat="38.94658" lon="-5.797401">
        <ele>287.0</ele>
        <time>2021-02-13T12:00:58Z</time>
      </trkpt>
      <trkpt lat="38.946625" lon="-5.797399">
        <ele>287.0</ele>
        <time>2021-02-13T12:00:59Z</time>
      </trkpt>
      <trkpt lat="38.94667" lon="-5.7973986">
        <ele>287.0</ele>
        <time>2021-02-13T12:01:00Z</time>
      </trkpt>
      <trkpt lat="38.946712" lon="-5.7973986">
        <ele>288.0</ele>
        <time>2021-02-13T12:01:01Z</time>
      </trkpt>
      <trkpt lat="38.94676" lon="-5.7973976">
        <ele>288.0</ele>
        <time>2021-02-13T12:01:02Z</time>
      </trkpt>
      <trkpt lat="38.9468" lon="-5.797397">
        <ele>288.0</ele>
        <time>2021-02-13T12:01:02Z</time>
      </trkpt>
      <trkpt lat="38.946846" lon="-5.7973967">
        <ele>288.0</ele>
        <time>2021-02-13T12:01:04Z</time>
      </trkpt>
      <trkpt lat="38.94689" lon="-5.7973948">
        <ele>288.0</ele>
        <time>2021-02-13T12:01:05Z</time>
      </trkpt>
      <trkpt lat="38.946938" lon="-5.797394">
        <ele>289.0</ele>
        <time>2021-02-13T12:01:06Z</time>
      </trkpt>
      <trkpt lat="38.946983" lon="-5.797393">
        <ele>289.0</ele>
        <time>2021-02-13T12:01:07Z</time>
      </trkpt>
      <trkpt lat="38.94703" lon="-5.797392">
        <ele>289.0</ele>
        <time>2021-02-13T12:01:08Z</time>
      </trkpt>
      <trkpt lat="38.94708" lon="-5.797392">
        <ele>289.0</ele>
        <time>2021-02-13T12:01:09Z</time>
      </trkpt>
      <trkpt lat="38.947124" lon="-5.797391">
        <ele>289.0</ele>
        <time>2021-02-13T12:01:10Z</time>
      </trkpt>
      <trkpt lat="38.94717" lon="-5.7973895">
        <ele>289.0</ele>
        <time>2021-02-13T12:01:11Z</time>
      </trkpt>
      <trkpt lat="38.94722" lon="-5.797389">
        <ele>289.0</ele>
        <time>2021-02-13T12:01:12Z</time>
      </trkpt>
      <trkpt lat="38.947266" lon="-5.797388">
        <ele>289.0</ele>
        <time>2021-02-13T12:01:13Z</time>
      </trkpt>
      <trkpt lat="38.947315" lon="-5.7973876">
        <ele>289.0</ele>
        <time>2021-02-13T12:01:14Z</time>
      </trkpt>
      <trkpt lat="38.947365" lon="-5.7973847">
        <ele>289.0</ele>
        <time>2021-02-13T12:01:15Z</time>
      </trkpt>
      <trkpt lat="38.94741" lon="-5.7973824">
        <ele>289.0</ele>
        <time>2021-02-13T12:01:16Z</time>
      </trkpt>
      <trkpt lat="38.94747" lon="-5.797382">
        <ele>290.0</ele>
        <time>2021-02-13T12:01:18Z</time>
      </trkpt>
      <trkpt lat="38.94753" lon="-5.797381">
        <ele>290.0</ele>
        <time>2021-02-13T12:01:19Z</time>
      </trkpt>
      <trkpt lat="38.947582" lon="-5.79738">
        <ele>290.0</ele>
        <time>2021-02-13T12:01:20Z</time>
      </trkpt>
      <trkpt lat="38.947636" lon="-5.797379">
        <ele>290.0</ele>
        <time>2021-02-13T12:01:21Z</time>
      </trkpt>
      <trkpt lat="38.947685" lon="-5.797377">
        <ele>290.0</ele>
        <time>2021-02-13T12:01:22Z</time>
      </trkpt>
      <trkpt lat="38.94774" lon="-5.797375">
        <ele>290.0</ele>
        <time>2021-02-13T12:01:23Z</time>
      </trkpt>
      <trkpt lat="38.94779" lon="-5.797373">
        <ele>290.0</ele>
        <time>2021-02-13T12:01:24Z</time>
      </trkpt>
      <trkpt lat="38.94784" lon="-5.7973704">
        <ele>290.0</ele>
        <time>2021-02-13T12:01:25Z</time>
      </trkpt>
      <trkpt lat="38.947895" lon="-5.7973685">
        <ele>290.0</ele>
        <time>2021-02-13T12:01:26Z</time>
      </trkpt>
      <trkpt lat="38.947945" lon="-5.7973666">
        <ele>291.0</ele>
        <time>2021-02-13T12:01:26Z</time>
      </trkpt>
      <trkpt lat="38.947998" lon="-5.7973647">
        <ele>291.0</ele>
        <time>2021-02-13T12:01:28Z</time>
      </trkpt>
      <trkpt lat="38.94805" lon="-5.7973633">
        <ele>291.0</ele>
        <time>2021-02-13T12:01:29Z</time>
      </trkpt>
      <trkpt lat="38.948105" lon="-5.7973623">
        <ele>291.0</ele>
        <time>2021-02-13T12:01:30Z</time>
      </trkpt>
      <trkpt lat="38.94816" lon="-5.7973614">
        <ele>291.0</ele>
        <time>2021-02-13T12:01:31Z</time>
      </trkpt>
      <trkpt lat="38.948215" lon="-5.79736">
        <ele>291.0</ele>
        <time>2021-02-13T12:01:32Z</time>
      </trkpt>
      <trkpt lat="38.94827" lon="-5.7973585">
        <ele>291.0</ele>
        <time>2021-02-13T12:01:33Z</time>
      </trkpt>
      <trkpt lat="38.948322" lon="-5.7973576">
        <ele>291.0</ele>
        <time>2021-02-13T12:01:34Z</time>
      </trkpt>
      <trkpt lat="38.948376" lon="-5.7973566">
        <ele>291.0</ele>
        <time>2021-02-13T12:01:35Z</time>
      </trkpt>
      <trkpt lat="38.94843" lon="-5.7973566">
        <ele>291.0</ele>
        <time>2021-02-13T12:01:36Z</time>
      </trkpt>
      <trkpt lat="38.94848" lon="-5.7973576">
        <ele>291.0</ele>
        <time>2021-02-13T12:01:37Z</time>
      </trkpt>
      <trkpt lat="38.94853" lon="-5.7973576">
        <ele>291.0</ele>
        <time>2021-02-13T12:01:38Z</time>
      </trkpt>
      <trkpt lat="38.94858" lon="-5.797358">
        <ele>291.0</ele>
        <time>2021-02-13T12:01:39Z</time>
      </trkpt>
      <trkpt lat="38.94863" lon="-5.797358">
        <ele>291.0</ele>
        <time>2021-02-13T12:01:40Z</time>
      </trkpt>
      <trkpt lat="38.94868" lon="-5.7973595">
        <ele>291.0</ele>
        <time>2021-02-13T12:01:40Z</time>
      </trkpt>
      <trkpt lat="38.948734" lon="-5.797362">
        <ele>291.0</ele>
        <time>2021-02-13T12:01:42Z</time>
      </trkpt>
      <trkpt lat="38.948784" lon="-5.7973638">
        <ele>291.0</ele>
        <time>2021-02-13T12:01:43Z</time>
      </trkpt>
      <trkpt lat="38.948837" lon="-5.797365">
        <ele>291.0</ele>
        <time>2021-02-13T12:01:44Z</time>
      </trkpt>
      <trkpt lat="38.94889" lon="-5.7973647">
        <ele>291.0</ele>
        <time>2021-02-13T12:01:44Z</time>
      </trkpt>
      <trkpt lat="38.948944" lon="-5.7973623">
        <ele>291.0</ele>
        <time>2021-02-13T12:01:46Z</time>
      </trkpt>
      <trkpt lat="38.948994" lon="-5.7973614">
        <ele>291.0</ele>
        <time>2021-02-13T12:01:46Z</time>
      </trkpt>
      <trkpt lat="38.949047" lon="-5.7973604">
        <ele>291.0</ele>
        <time>2021-02-13T12:01:48Z</time>
      </trkpt>
      <trkpt lat="38.949097" lon="-5.79736">
        <ele>292.0</ele>
        <time>2021-02-13T12:01:49Z</time>
      </trkpt>
      <trkpt lat="38.949146" lon="-5.7973595">
        <ele>292.0</ele>
        <time>2021-02-13T12:01:50Z</time>
      </trkpt>
      <trkpt lat="38.949203" lon="-5.7973576">
        <ele>292.0</ele>
        <time>2021-02-13T12:01:51Z</time>
      </trkpt>
      <trkpt lat="38.94925" lon="-5.797356">
        <ele>292.0</ele>
        <time>2021-02-13T12:01:52Z</time>
      </trkpt>
      <trkpt lat="38.9493" lon="-5.7973547">
        <ele>292.0</ele>
        <time>2021-02-13T12:01:53Z</time>
      </trkpt>
      <trkpt lat="38.94935" lon="-5.797353">
        <ele>292.0</ele>
        <time>2021-02-13T12:01:54Z</time>
      </trkpt>
      <trkpt lat="38.949394" lon="-5.797351">
        <ele>293.0</ele>
        <time>2021-02-13T12:01:55Z</time>
      </trkpt>
      <trkpt lat="38.949444" lon="-5.797349">
        <ele>293.0</ele>
        <time>2021-02-13T12:01:56Z</time>
      </trkpt>
      <trkpt lat="38.94949" lon="-5.7973485">
        <ele>293.0</ele>
        <time>2021-02-13T12:01:57Z</time>
      </trkpt>
      <trkpt lat="38.94953" lon="-5.797347">
        <ele>293.0</ele>
        <time>2021-02-13T12:01:58Z</time>
      </trkpt>
      <trkpt lat="38.949577" lon="-5.7973466">
        <ele>293.0</ele>
        <time>2021-02-13T12:01:59Z</time>
      </trkpt>
      <trkpt lat="38.94962" lon="-5.7973466">
        <ele>293.0</ele>
        <time>2021-02-13T12:02:00Z</time>
      </trkpt>
      <trkpt lat="38.94966" lon="-5.797346">
        <ele>294.0</ele>
        <time>2021-02-13T12:02:01Z</time>
      </trkpt>
      <trkpt lat="38.949703" lon="-5.7973466">
        <ele>294.0</ele>
        <time>2021-02-13T12:02:02Z</time>
      </trkpt>
      <trkpt lat="38.94975" lon="-5.7973466">
        <ele>294.0</ele>
        <time>2021-02-13T12:02:03Z</time>
      </trkpt>
      <trkpt lat="38.949787" lon="-5.7973447">
        <ele>294.0</ele>
        <time>2021-02-13T12:02:04Z</time>
      </trkpt>
      <trkpt lat="38.949833" lon="-5.797343">
        <ele>294.0</ele>
        <time>2021-02-13T12:02:05Z</time>
      </trkpt>
      <trkpt lat="38.94987" lon="-5.797341">
        <ele>294.0</ele>
        <time>2021-02-13T12:02:05Z</time>
      </trkpt>
      <trkpt lat="38.94991" lon="-5.7973394">
        <ele>294.0</ele>
        <time>2021-02-13T12:02:07Z</time>
      </trkpt>
      <trkpt lat="38.949955" lon="-5.7973375">
        <ele>294.0</ele>
        <time>2021-02-13T12:02:08Z</time>
      </trkpt>
      <trkpt lat="38.949997" lon="-5.797337">
        <ele>294.0</ele>
        <time>2021-02-13T12:02:09Z</time>
      </trkpt>
      <trkpt lat="38.950043" lon="-5.7973356">
        <ele>294.0</ele>
        <time>2021-02-13T12:02:10Z</time>
      </trkpt>
      <trkpt lat="38.95009" lon="-5.797334">
        <ele>295.0</ele>
        <time>2021-02-13T12:02:11Z</time>
      </trkpt>
      <trkpt lat="38.95013" lon="-5.7973337">
        <ele>295.0</ele>
        <time>2021-02-13T12:02:12Z</time>
      </trkpt>
      <trkpt lat="38.950176" lon="-5.797336">
        <ele>295.0</ele>
        <time>2021-02-13T12:02:13Z</time>
      </trkpt>
      <trkpt lat="38.950222" lon="-5.7973375">
        <ele>295.0</ele>
        <time>2021-02-13T12:02:14Z</time>
      </trkpt>
      <trkpt lat="38.950268" lon="-5.797336">
        <ele>296.0</ele>
        <time>2021-02-13T12:02:15Z</time>
      </trkpt>
      <trkpt lat="38.950314" lon="-5.797334">
        <ele>296.0</ele>
        <time>2021-02-13T12:02:16Z</time>
      </trkpt>
      <trkpt lat="38.950356" lon="-5.797334">
        <ele>296.0</ele>
        <time>2021-02-13T12:02:17Z</time>
      </trkpt>
      <trkpt lat="38.9504" lon="-5.797334">
        <ele>296.0</ele>
        <time>2021-02-13T12:02:17Z</time>
      </trkpt>
      <trkpt lat="38.950443" lon="-5.7973332">
        <ele>297.0</ele>
        <time>2021-02-13T12:02:19Z</time>
      </trkpt>
      <trkpt lat="38.950485" lon="-5.797332">
        <ele>297.0</ele>
        <time>2021-02-13T12:02:20Z</time>
      </trkpt>
      <trkpt lat="38.950527" lon="-5.7973304">
        <ele>297.0</ele>
        <time>2021-02-13T12:02:21Z</time>
      </trkpt>
      <trkpt lat="38.95057" lon="-5.7973285">
        <ele>297.0</ele>
        <time>2021-02-13T12:02:21Z</time>
      </trkpt>
      <trkpt lat="38.95061" lon="-5.7973256">
        <ele>298.0</ele>
        <time>2021-02-13T12:02:23Z</time>
      </trkpt>
      <trkpt lat="38.950653" lon="-5.7973223">
        <ele>298.0</ele>
        <time>2021-02-13T12:02:24Z</time>
      </trkpt>
      <trkpt lat="38.95069" lon="-5.79732">
        <ele>298.0</ele>
        <time>2021-02-13T12:02:25Z</time>
      </trkpt>
      <trkpt lat="38.95073" lon="-5.797318">
        <ele>298.0</ele>
        <time>2021-02-13T12:02:26Z</time>
      </trkpt>
      <trkpt lat="38.95077" lon="-5.797316">
        <ele>299.0</ele>
        <time>2021-02-13T12:02:27Z</time>
      </trkpt>
      <trkpt lat="38.95081" lon="-5.7973137">
        <ele>299.0</ele>
        <time>2021-02-13T12:02:27Z</time>
      </trkpt>
      <trkpt lat="38.95085" lon="-5.7973137">
        <ele>299.0</ele>
        <time>2021-02-13T12:02:29Z</time>
      </trkpt>
      <trkpt lat="38.95089" lon="-5.7973146">
        <ele>300.0</ele>
        <time>2021-02-13T12:02:30Z</time>
      </trkpt>
      <trkpt lat="38.950928" lon="-5.797318">
        <ele>300.0</ele>
        <time>2021-02-13T12:02:31Z</time>
      </trkpt>
      <trkpt lat="38.950962" lon="-5.797321">
        <ele>300.0</ele>
        <time>2021-02-13T12:02:32Z</time>
      </trkpt>
      <trkpt lat="38.950996" lon="-5.797324">
        <ele>300.0</ele>
        <time>2021-02-13T12:02:33Z</time>
      </trkpt>
      <trkpt lat="38.95103" lon="-5.797328">
        <ele>301.0</ele>
        <time>2021-02-13T12:02:34Z</time>
      </trkpt>
      <trkpt lat="38.95106" lon="-5.79733">
        <ele>301.0</ele>
        <time>2021-02-13T12:02:35Z</time>
      </trkpt>
      <trkpt lat="38.951096" lon="-5.7973313">
        <ele>301.0</ele>
        <time>2021-02-13T12:02:36Z</time>
      </trkpt>
      <trkpt lat="38.951126" lon="-5.7973323">
        <ele>301.0</ele>
        <time>2021-02-13T12:02:37Z</time>
      </trkpt>
      <trkpt lat="38.951153" lon="-5.797334">
        <ele>301.0</ele>
        <time>2021-02-13T12:02:38Z</time>
      </trkpt>
      <trkpt lat="38.951183" lon="-5.797334">
        <ele>302.0</ele>
        <time>2021-02-13T12:02:39Z</time>
      </trkpt>
      <trkpt lat="38.951218" lon="-5.7973337">
        <ele>302.0</ele>
        <time>2021-02-13T12:02:40Z</time>
      </trkpt>
      <trkpt lat="38.95125" lon="-5.7973323">
        <ele>302.0</ele>
        <time>2021-02-13T12:02:41Z</time>
      </trkpt>
      <trkpt lat="38.951283" lon="-5.7973304">
        <ele>302.0</ele>
        <time>2021-02-13T12:02:42Z</time>
      </trkpt>
      <trkpt lat="38.951317" lon="-5.7973275">
        <ele>302.0</ele>
        <time>2021-02-13T12:02:43Z</time>
      </trkpt>
      <trkpt lat="38.95135" lon="-5.797321">
        <ele>302.0</ele>
        <time>2021-02-13T12:02:44Z</time>
      </trkpt>
      <trkpt lat="38.95138" lon="-5.7973146">
        <ele>302.0</ele>
        <time>2021-02-13T12:02:45Z</time>
      </trkpt>
      <trkpt lat="38.951416" lon="-5.797308">
        <ele>302.0</ele>
        <time>2021-02-13T12:02:46Z</time>
      </trkpt>
      <trkpt lat="38.951447" lon="-5.797304">
        <ele>302.0</ele>
        <time>2021-02-13T12:02:47Z</time>
      </trkpt>
      <trkpt lat="38.951477" lon="-5.7973013">
        <ele>302.0</ele>
        <time>2021-02-13T12:02:48Z</time>
      </trkpt>
      <trkpt lat="38.951508" lon="-5.7972984">
        <ele>302.0</ele>
        <time>2021-02-13T12:02:49Z</time>
      </trkpt>
      <trkpt lat="38.95154" lon="-5.7972965">
        <ele>302.0</ele>
        <time>2021-02-13T12:02:50Z</time>
      </trkpt>
      <trkpt lat="38.951576" lon="-5.7972946">
        <ele>302.0</ele>
        <time>2021-02-13T12:02:51Z</time>
      </trkpt>
      <trkpt lat="38.951614" lon="-5.797294">
        <ele>302.0</ele>
        <time>2021-02-13T12:02:52Z</time>
      </trkpt>
      <trkpt lat="38.951653" lon="-5.7972937">
        <ele>302.0</ele>
        <time>2021-02-13T12:02:53Z</time>
      </trkpt>
      <trkpt lat="38.95169" lon="-5.7972918">
        <ele>302.0</ele>
        <time>2021-02-13T12:02:54Z</time>
      </trkpt>
      <trkpt lat="38.95173" lon="-5.7972903">
        <ele>302.0</ele>
        <time>2021-02-13T12:02:55Z</time>
      </trkpt>
      <trkpt lat="38.95177" lon="-5.797289">
        <ele>302.0</ele>
        <time>2021-02-13T12:02:56Z</time>
      </trkpt>
      <trkpt lat="38.95181" lon="-5.797289">
        <ele>301.0</ele>
        <time>2021-02-13T12:02:57Z</time>
      </trkpt>
      <trkpt lat="38.951855" lon="-5.7972903">
        <ele>301.0</ele>
        <time>2021-02-13T12:02:58Z</time>
      </trkpt>
      <trkpt lat="38.9519" lon="-5.797292">
        <ele>301.0</ele>
        <time>2021-02-13T12:02:59Z</time>
      </trkpt>
      <trkpt lat="38.951946" lon="-5.7972956">
        <ele>301.0</ele>
        <time>2021-02-13T12:03:00Z</time>
      </trkpt>
      <trkpt lat="38.951992" lon="-5.7972984">
        <ele>301.0</ele>
        <time>2021-02-13T12:03:01Z</time>
      </trkpt>
      <trkpt lat="38.95204" lon="-5.797303">
        <ele>301.0</ele>
        <time>2021-02-13T12:03:02Z</time>
      </trkpt>
      <trkpt lat="38.95209" lon="-5.797306">
        <ele>300.0</ele>
        <time>2021-02-13T12:03:03Z</time>
      </trkpt>
      <trkpt lat="38.952137" lon="-5.797308">
        <ele>300.0</ele>
        <time>2021-02-13T12:03:04Z</time>
      </trkpt>
      <trkpt lat="38.952183" lon="-5.797309">
        <ele>300.0</ele>
        <time>2021-02-13T12:03:05Z</time>
      </trkpt>
      <trkpt lat="38.952232" lon="-5.797307">
        <ele>300.0</ele>
        <time>2021-02-13T12:03:06Z</time>
      </trkpt>
      <trkpt lat="38.952286" lon="-5.797305">
        <ele>300.0</ele>
        <time>2021-02-13T12:03:07Z</time>
      </trkpt>
      <trkpt lat="38.952335" lon="-5.7973022">
        <ele>300.0</ele>
        <time>2021-02-13T12:03:08Z</time>
      </trkpt>
      <trkpt lat="38.952385" lon="-5.7973">
        <ele>299.0</ele>
        <time>2021-02-13T12:03:09Z</time>
      </trkpt>
      <trkpt lat="38.95244" lon="-5.7972975">
        <ele>299.0</ele>
        <time>2021-02-13T12:03:09Z</time>
      </trkpt>
      <trkpt lat="38.952488" lon="-5.797294">
        <ele>299.0</ele>
        <time>2021-02-13T12:03:11Z</time>
      </trkpt>
      <trkpt lat="38.95254" lon="-5.797291">
        <ele>299.0</ele>
        <time>2021-02-13T12:03:12Z</time>
      </trkpt>
      <trkpt lat="38.952595" lon="-5.797289">
        <ele>299.0</ele>
        <time>2021-02-13T12:03:13Z</time>
      </trkpt>
      <trkpt lat="38.952652" lon="-5.797287">
        <ele>299.0</ele>
        <time>2021-02-13T12:03:13Z</time>
      </trkpt>
      <trkpt lat="38.95271" lon="-5.7972856">
        <ele>298.0</ele>
        <time>2021-02-13T12:03:15Z</time>
      </trkpt>
      <trkpt lat="38.952766" lon="-5.7972846">
        <ele>298.0</ele>
        <time>2021-02-13T12:03:16Z</time>
      </trkpt>
      <trkpt lat="38.952827" lon="-5.797283">
        <ele>298.0</ele>
        <time>2021-02-13T12:03:17Z</time>
      </trkpt>
      <trkpt lat="38.95289" lon="-5.7972817">
        <ele>297.0</ele>
        <time>2021-02-13T12:03:18Z</time>
      </trkpt>
      <trkpt lat="38.952953" lon="-5.7972813">
        <ele>297.0</ele>
        <time>2021-02-13T12:03:18Z</time>
      </trkpt>
      <trkpt lat="38.95302" lon="-5.79728">
        <ele>297.0</ele>
        <time>2021-02-13T12:03:20Z</time>
      </trkpt>
      <trkpt lat="38.95308" lon="-5.7972794">
        <ele>297.0</ele>
        <time>2021-02-13T12:03:21Z</time>
      </trkpt>
      <trkpt lat="38.95314" lon="-5.7972775">
        <ele>297.0</ele>
        <time>2021-02-13T12:03:22Z</time>
      </trkpt>
      <trkpt lat="38.9532" lon="-5.797277">
        <ele>297.0</ele>
        <time>2021-02-13T12:03:23Z</time>
      </trkpt>
      <trkpt lat="38.953266" lon="-5.797275">
        <ele>297.0</ele>
        <time>2021-02-13T12:03:24Z</time>
      </trkpt>
      <trkpt lat="38.953327" lon="-5.797273">
        <ele>297.0</ele>
        <time>2021-02-13T12:03:25Z</time>
      </trkpt>
      <trkpt lat="38.95339" lon="-5.7972717">
        <ele>297.0</ele>
        <time>2021-02-13T12:03:26Z</time>
      </trkpt>
      <trkpt lat="38.953453" lon="-5.79727">
        <ele>297.0</ele>
        <time>2021-02-13T12:03:27Z</time>
      </trkpt>
      <trkpt lat="38.953518" lon="-5.797268">
        <ele>297.0</ele>
        <time>2021-02-13T12:03:28Z</time>
      </trkpt>
      <trkpt lat="38.95358" lon="-5.797265">
        <ele>297.0</ele>
        <time>2021-02-13T12:03:29Z</time>
      </trkpt>
      <trkpt lat="38.95364" lon="-5.797264">
        <ele>296.0</ele>
        <time>2021-02-13T12:03:30Z</time>
      </trkpt>
      <trkpt lat="38.953705" lon="-5.797262">
        <ele>296.0</ele>
        <time>2021-02-13T12:03:31Z</time>
      </trkpt>
      <trkpt lat="38.95377" lon="-5.797261">
        <ele>296.0</ele>
        <time>2021-02-13T12:03:32Z</time>
      </trkpt>
      <trkpt lat="38.95384" lon="-5.797261">
        <ele>296.0</ele>
        <time>2021-02-13T12:03:33Z</time>
      </trkpt>
      <trkpt lat="38.9539" lon="-5.797261">
        <ele>296.0</ele>
        <time>2021-02-13T12:03:34Z</time>
      </trkpt>
      <trkpt lat="38.953957" lon="-5.797261">
        <ele>296.0</ele>
        <time>2021-02-13T12:03:35Z</time>
      </trkpt>
      <trkpt lat="38.954018" lon="-5.797261">
        <ele>296.0</ele>
        <time>2021-02-13T12:03:36Z</time>
      </trkpt>
      <trkpt lat="38.95408" lon="-5.797261">
        <ele>296.0</ele>
        <time>2021-02-13T12:03:37Z</time>
      </trkpt>
      <trkpt lat="38.954136" lon="-5.7972608">
        <ele>296.0</ele>
        <time>2021-02-13T12:03:38Z</time>
      </trkpt>
      <trkpt lat="38.9542" lon="-5.7972608">
        <ele>296.0</ele>
        <time>2021-02-13T12:03:39Z</time>
      </trkpt>
      <trkpt lat="38.95426" lon="-5.7972603">
        <ele>295.0</ele>
        <time>2021-02-13T12:03:40Z</time>
      </trkpt>
      <trkpt lat="38.95432" lon="-5.7972593">
        <ele>295.0</ele>
        <time>2021-02-13T12:03:41Z</time>
      </trkpt>
      <trkpt lat="38.95438" lon="-5.7972584">
        <ele>295.0</ele>
        <time>2021-02-13T12:03:42Z</time>
      </trkpt>
      <trkpt lat="38.95444" lon="-5.7972565">
        <ele>295.0</ele>
        <time>2021-02-13T12:03:43Z</time>
      </trkpt>
      <trkpt lat="38.9545" lon="-5.797255">
        <ele>295.0</ele>
        <time>2021-02-13T12:03:44Z</time>
      </trkpt>
      <trkpt lat="38.95456" lon="-5.7972546">
        <ele>295.0</ele>
        <time>2021-02-13T12:03:45Z</time>
      </trkpt>
      <trkpt lat="38.954617" lon="-5.7972536">
        <ele>295.0</ele>
        <time>2021-02-13T12:03:46Z</time>
      </trkpt>
      <trkpt lat="38.954674" lon="-5.7972536">
        <ele>295.0</ele>
        <time>2021-02-13T12:03:46Z</time>
      </trkpt>
      <trkpt lat="38.954735" lon="-5.7972536">
        <ele>295.0</ele>
        <time>2021-02-13T12:03:48Z</time>
      </trkpt>
      <trkpt lat="38.954792" lon="-5.797253">
        <ele>295.0</ele>
        <time>2021-02-13T12:03:49Z</time>
      </trkpt>
      <trkpt lat="38.954853" lon="-5.7972527">
        <ele>295.0</ele>
        <time>2021-02-13T12:03:50Z</time>
      </trkpt>
      <trkpt lat="38.954914" lon="-5.7972527">
        <ele>295.0</ele>
        <time>2021-02-13T12:03:50Z</time>
      </trkpt>
      <trkpt lat="38.95497" lon="-5.7972517">
        <ele>295.0</ele>
        <time>2021-02-13T12:03:52Z</time>
      </trkpt>
      <trkpt lat="38.955032" lon="-5.797251">
        <ele>295.0</ele>
        <time>2021-02-13T12:03:53Z</time>
      </trkpt>
      <trkpt lat="38.95509" lon="-5.7972493">
        <ele>295.0</ele>
        <time>2021-02-13T12:03:54Z</time>
      </trkpt>
      <trkpt lat="38.95515" lon="-5.797247">
        <ele>295.0</ele>
        <time>2021-02-13T12:03:55Z</time>
      </trkpt>
      <trkpt lat="38.955208" lon="-5.7972436">
        <ele>295.0</ele>
        <time>2021-02-13T12:03:55Z</time>
      </trkpt>
      <trkpt lat="38.955265" lon="-5.7972407">
        <ele>295.0</ele>
        <time>2021-02-13T12:03:57Z</time>
      </trkpt>
      <trkpt lat="38.955326" lon="-5.797238">
        <ele>295.0</ele>
        <time>2021-02-13T12:03:58Z</time>
      </trkpt>
      <trkpt lat="38.955383" lon="-5.797235">
        <ele>295.0</ele>
        <time>2021-02-13T12:03:58Z</time>
      </trkpt>
      <trkpt lat="38.955444" lon="-5.797234">
        <ele>295.0</ele>
        <time>2021-02-13T12:04:00Z</time>
      </trkpt>
      <trkpt lat="38.955505" lon="-5.797233">
        <ele>295.0</ele>
        <time>2021-02-13T12:04:01Z</time>
      </trkpt>
      <trkpt lat="38.95557" lon="-5.797234">
        <ele>295.0</ele>
        <time>2021-02-13T12:04:02Z</time>
      </trkpt>
      <trkpt lat="38.955635" lon="-5.7972345">
        <ele>295.0</ele>
        <time>2021-02-13T12:04:03Z</time>
      </trkpt>
      <trkpt lat="38.9557" lon="-5.797236">
        <ele>295.0</ele>
        <time>2021-02-13T12:04:04Z</time>
      </trkpt>
      <trkpt lat="38.955765" lon="-5.7972364">
        <ele>295.0</ele>
        <time>2021-02-13T12:04:05Z</time>
      </trkpt>
      <trkpt lat="38.955826" lon="-5.7972364">
        <ele>295.0</ele>
        <time>2021-02-13T12:04:06Z</time>
      </trkpt>
      <trkpt lat="38.955887" lon="-5.7972364">
        <ele>295.0</ele>
        <time>2021-02-13T12:04:07Z</time>
      </trkpt>
      <trkpt lat="38.95595" lon="-5.7972364">
        <ele>295.0</ele>
        <time>2021-02-13T12:04:08Z</time>
      </trkpt>
      <trkpt lat="38.95602" lon="-5.797237">
        <ele>295.0</ele>
        <time>2021-02-13T12:04:09Z</time>
      </trkpt>
      <trkpt lat="38.95608" lon="-5.797237">
        <ele>295.0</ele>
        <time>2021-02-13T12:04:10Z</time>
      </trkpt>
      <trkpt lat="38.956146" lon="-5.797236">
        <ele>295.0</ele>
        <time>2021-02-13T12:04:11Z</time>
      </trkpt>
      <trkpt lat="38.956207" lon="-5.7972345">
        <ele>295.0</ele>
        <time>2021-02-13T12:04:11Z</time>
      </trkpt>
      <trkpt lat="38.956505" lon="-5.7972293">
        <ele>294.0</ele>
        <time>2021-02-13T12:04:14Z</time>
      </trkpt>
      <trkpt lat="38.956512" lon="-5.797229">
        <ele>294.0</ele>
        <time>2021-02-13T12:04:15Z</time>
      </trkpt>
      <trkpt lat="38.956535" lon="-5.7972274">
        <ele>293.0</ele>
        <time>2021-02-13T12:04:16Z</time>
      </trkpt>
      <trkpt lat="38.956573" lon="-5.7972255">
        <ele>293.0</ele>
        <time>2021-02-13T12:04:17Z</time>
      </trkpt>
      <trkpt lat="38.956623" lon="-5.7972245">
        <ele>293.0</ele>
        <time>2021-02-13T12:04:18Z</time>
      </trkpt>
      <trkpt lat="38.956676" lon="-5.7972236">
        <ele>292.0</ele>
        <time>2021-02-13T12:04:19Z</time>
      </trkpt>
      <trkpt lat="38.956738" lon="-5.7972217">
        <ele>292.0</ele>
        <time>2021-02-13T12:04:20Z</time>
      </trkpt>
      <trkpt lat="38.9568" lon="-5.7972217">
        <ele>292.0</ele>
        <time>2021-02-13T12:04:21Z</time>
      </trkpt>
      <trkpt lat="38.95686" lon="-5.797223">
        <ele>292.0</ele>
        <time>2021-02-13T12:04:22Z</time>
      </trkpt>
      <trkpt lat="38.956924" lon="-5.7972245">
        <ele>291.0</ele>
        <time>2021-02-13T12:04:23Z</time>
      </trkpt>
      <trkpt lat="38.956993" lon="-5.797225">
        <ele>291.0</ele>
        <time>2021-02-13T12:04:24Z</time>
      </trkpt>
      <trkpt lat="38.957058" lon="-5.7972255">
        <ele>291.0</ele>
        <time>2021-02-13T12:04:25Z</time>
      </trkpt>
      <trkpt lat="38.957127" lon="-5.797225">
        <ele>291.0</ele>
        <time>2021-02-13T12:04:26Z</time>
      </trkpt>
      <trkpt lat="38.95719" lon="-5.7972236">
        <ele>290.0</ele>
        <time>2021-02-13T12:04:27Z</time>
      </trkpt>
      <trkpt lat="38.95726" lon="-5.7972217">
        <ele>290.0</ele>
        <time>2021-02-13T12:04:28Z</time>
      </trkpt>
      <trkpt lat="38.95733" lon="-5.7972207">
        <ele>290.0</ele>
        <time>2021-02-13T12:04:28Z</time>
      </trkpt>
      <trkpt lat="38.957397" lon="-5.797218">
        <ele>290.0</ele>
        <time>2021-02-13T12:04:30Z</time>
      </trkpt>
      <trkpt lat="38.95747" lon="-5.7972164">
        <ele>290.0</ele>
        <time>2021-02-13T12:04:31Z</time>
      </trkpt>
      <trkpt lat="38.95754" lon="-5.797214">
        <ele>290.0</ele>
        <time>2021-02-13T12:04:32Z</time>
      </trkpt>
      <trkpt lat="38.957607" lon="-5.797212">
        <ele>290.0</ele>
        <time>2021-02-13T12:04:33Z</time>
      </trkpt>
      <trkpt lat="38.95768" lon="-5.79721">
        <ele>290.0</ele>
        <time>2021-02-13T12:04:34Z</time>
      </trkpt>
      <trkpt lat="38.957745" lon="-5.7972083">
        <ele>290.0</ele>
        <time>2021-02-13T12:04:34Z</time>
      </trkpt>
      <trkpt lat="38.95781" lon="-5.797207">
        <ele>290.0</ele>
        <time>2021-02-13T12:04:35Z</time>
      </trkpt>
      <trkpt lat="38.95788" lon="-5.7972045">
        <ele>290.0</ele>
        <time>2021-02-13T12:04:36Z</time>
      </trkpt>
      <trkpt lat="38.957943" lon="-5.797203">
        <ele>290.0</ele>
        <time>2021-02-13T12:04:36Z</time>
      </trkpt>
      <trkpt lat="38.958004" lon="-5.797201">
        <ele>290.0</ele>
        <time>2021-02-13T12:04:38Z</time>
      </trkpt>
      <trkpt lat="38.958065" lon="-5.7972">
        <ele>290.0</ele>
        <time>2021-02-13T12:04:39Z</time>
      </trkpt>
      <trkpt lat="38.958126" lon="-5.7971983">
        <ele>290.0</ele>
        <time>2021-02-13T12:04:40Z</time>
      </trkpt>
      <trkpt lat="38.958183" lon="-5.797197">
        <ele>290.0</ele>
        <time>2021-02-13T12:04:41Z</time>
      </trkpt>
      <trkpt lat="38.958244" lon="-5.797195">
        <ele>290.0</ele>
        <time>2021-02-13T12:04:42Z</time>
      </trkpt>
      <trkpt lat="38.9583" lon="-5.7971935">
        <ele>290.0</ele>
        <time>2021-02-13T12:04:43Z</time>
      </trkpt>
      <trkpt lat="38.958355" lon="-5.797193">
        <ele>290.0</ele>
        <time>2021-02-13T12:04:44Z</time>
      </trkpt>
      <trkpt lat="38.958412" lon="-5.797192">
        <ele>291.0</ele>
        <time>2021-02-13T12:04:45Z</time>
      </trkpt>
      <trkpt lat="38.95847" lon="-5.797192">
        <ele>291.0</ele>
        <time>2021-02-13T12:04:46Z</time>
      </trkpt>
      <trkpt lat="38.958527" lon="-5.797191">
        <ele>291.0</ele>
        <time>2021-02-13T12:04:47Z</time>
      </trkpt>
      <trkpt lat="38.95858" lon="-5.79719">
        <ele>291.0</ele>
        <time>2021-02-13T12:04:48Z</time>
      </trkpt>
      <trkpt lat="38.958637" lon="-5.79719">
        <ele>292.0</ele>
        <time>2021-02-13T12:04:49Z</time>
      </trkpt>
      <trkpt lat="38.95869" lon="-5.7971897">
        <ele>292.0</ele>
        <time>2021-02-13T12:04:50Z</time>
      </trkpt>
      <trkpt lat="38.958744" lon="-5.7971897">
        <ele>292.0</ele>
        <time>2021-02-13T12:04:51Z</time>
      </trkpt>
      <trkpt lat="38.958797" lon="-5.797191">
        <ele>292.0</ele>
        <time>2021-02-13T12:04:52Z</time>
      </trkpt>
      <trkpt lat="38.958847" lon="-5.7971935">
        <ele>293.0</ele>
        <time>2021-02-13T12:04:53Z</time>
      </trkpt>
      <trkpt lat="38.958893" lon="-5.7971973">
        <ele>293.0</ele>
        <time>2021-02-13T12:04:54Z</time>
      </trkpt>
      <trkpt lat="38.958942" lon="-5.7972">
        <ele>293.0</ele>
        <time>2021-02-13T12:04:55Z</time>
      </trkpt>
      <trkpt lat="38.95899" lon="-5.797202">
        <ele>293.0</ele>
        <time>2021-02-13T12:04:56Z</time>
      </trkpt>
      <trkpt lat="38.959034" lon="-5.797204">
        <ele>294.0</ele>
        <time>2021-02-13T12:04:57Z</time>
      </trkpt>
      <trkpt lat="38.959076" lon="-5.797205">
        <ele>294.0</ele>
        <time>2021-02-13T12:04:58Z</time>
      </trkpt>
      <trkpt lat="38.959118" lon="-5.797204">
        <ele>294.0</ele>
        <time>2021-02-13T12:04:59Z</time>
      </trkpt>
      <trkpt lat="38.959164" lon="-5.7972026">
        <ele>295.0</ele>
        <time>2021-02-13T12:05:00Z</time>
      </trkpt>
      <trkpt lat="38.959206" lon="-5.797202">
        <ele>295.0</ele>
        <time>2021-02-13T12:05:01Z</time>
      </trkpt>
      <trkpt lat="38.95925" lon="-5.797201">
        <ele>295.0</ele>
        <time>2021-02-13T12:05:02Z</time>
      </trkpt>
      <trkpt lat="38.959293" lon="-5.7972">
        <ele>295.0</ele>
        <time>2021-02-13T12:05:03Z</time>
      </trkpt>
      <trkpt lat="38.959335" lon="-5.7971983">
        <ele>296.0</ele>
        <time>2021-02-13T12:05:04Z</time>
      </trkpt>
      <trkpt lat="38.95938" lon="-5.7971954">
        <ele>296.0</ele>
        <time>2021-02-13T12:05:05Z</time>
      </trkpt>
      <trkpt lat="38.959423" lon="-5.797192">
        <ele>296.0</ele>
        <time>2021-02-13T12:05:06Z</time>
      </trkpt>
      <trkpt lat="38.95947" lon="-5.7971883">
        <ele>296.0</ele>
        <time>2021-02-13T12:05:07Z</time>
      </trkpt>
      <trkpt lat="38.95951" lon="-5.7971845">
        <ele>296.0</ele>
        <time>2021-02-13T12:05:07Z</time>
      </trkpt>
      <trkpt lat="38.959553" lon="-5.7971807">
        <ele>296.0</ele>
        <time>2021-02-13T12:05:09Z</time>
      </trkpt>
      <trkpt lat="38.959595" lon="-5.7971783">
        <ele>296.0</ele>
        <time>2021-02-13T12:05:10Z</time>
      </trkpt>
      <trkpt lat="38.959637" lon="-5.7971764">
        <ele>296.0</ele>
        <time>2021-02-13T12:05:11Z</time>
      </trkpt>
      <trkpt lat="38.95968" lon="-5.797175">
        <ele>296.0</ele>
        <time>2021-02-13T12:05:12Z</time>
      </trkpt>
      <trkpt lat="38.959717" lon="-5.797175">
        <ele>296.0</ele>
        <time>2021-02-13T12:05:13Z</time>
      </trkpt>
      <trkpt lat="38.95976" lon="-5.797176">
        <ele>296.0</ele>
        <time>2021-02-13T12:05:14Z</time>
      </trkpt>
      <trkpt lat="38.959805" lon="-5.797177">
        <ele>296.0</ele>
        <time>2021-02-13T12:05:15Z</time>
      </trkpt>
      <trkpt lat="38.959843" lon="-5.7971783">
        <ele>296.0</ele>
        <time>2021-02-13T12:05:16Z</time>
      </trkpt>
      <trkpt lat="38.95989" lon="-5.79718">
        <ele>296.0</ele>
        <time>2021-02-13T12:05:17Z</time>
      </trkpt>
      <trkpt lat="38.95993" lon="-5.7971807">
        <ele>296.0</ele>
        <time>2021-02-13T12:05:18Z</time>
      </trkpt>
      <trkpt lat="38.959976" lon="-5.7971816">
        <ele>296.0</ele>
        <time>2021-02-13T12:05:19Z</time>
      </trkpt>
      <trkpt lat="38.960022" lon="-5.7971807">
        <ele>297.0</ele>
        <time>2021-02-13T12:05:20Z</time>
      </trkpt>
      <trkpt lat="38.960068" lon="-5.7971807">
        <ele>297.0</ele>
        <time>2021-02-13T12:05:21Z</time>
      </trkpt>
      <trkpt lat="38.960114" lon="-5.7971787">
        <ele>297.0</ele>
        <time>2021-02-13T12:05:22Z</time>
      </trkpt>
      <trkpt lat="38.960163" lon="-5.797177">
        <ele>297.0</ele>
        <time>2021-02-13T12:05:23Z</time>
      </trkpt>
      <trkpt lat="38.960213" lon="-5.797175">
        <ele>297.0</ele>
        <time>2021-02-13T12:05:24Z</time>
      </trkpt>
      <trkpt lat="38.960262" lon="-5.797174">
        <ele>297.0</ele>
        <time>2021-02-13T12:05:25Z</time>
      </trkpt>
      <trkpt lat="38.96031" lon="-5.797174">
        <ele>297.0</ele>
        <time>2021-02-13T12:05:26Z</time>
      </trkpt>
      <trkpt lat="38.960365" lon="-5.7971745">
        <ele>297.0</ele>
        <time>2021-02-13T12:05:26Z</time>
      </trkpt>
      <trkpt lat="38.960415" lon="-5.7971745">
        <ele>297.0</ele>
        <time>2021-02-13T12:05:28Z</time>
      </trkpt>
      <trkpt lat="38.96047" lon="-5.7971745">
        <ele>297.0</ele>
        <time>2021-02-13T12:05:29Z</time>
      </trkpt>
      <trkpt lat="38.96052" lon="-5.797174">
        <ele>297.0</ele>
        <time>2021-02-13T12:05:30Z</time>
      </trkpt>
      <trkpt lat="38.960575" lon="-5.797172">
        <ele>297.0</ele>
        <time>2021-02-13T12:05:31Z</time>
      </trkpt>
      <trkpt lat="38.96063" lon="-5.7971706">
        <ele>297.0</ele>
        <time>2021-02-13T12:05:32Z</time>
      </trkpt>
      <trkpt lat="38.960682" lon="-5.797169">
        <ele>297.0</ele>
        <time>2021-02-13T12:05:33Z</time>
      </trkpt>
      <trkpt lat="38.960735" lon="-5.7971673">
        <ele>297.0</ele>
        <time>2021-02-13T12:05:34Z</time>
      </trkpt>
      <trkpt lat="38.960785" lon="-5.7971654">
        <ele>297.0</ele>
        <time>2021-02-13T12:05:35Z</time>
      </trkpt>
      <trkpt lat="38.96084" lon="-5.7971635">
        <ele>297.0</ele>
        <time>2021-02-13T12:05:36Z</time>
      </trkpt>
      <trkpt lat="38.96089" lon="-5.797162">
        <ele>297.0</ele>
        <time>2021-02-13T12:05:37Z</time>
      </trkpt>
      <trkpt lat="38.96095" lon="-5.79716">
        <ele>297.0</ele>
        <time>2021-02-13T12:05:38Z</time>
      </trkpt>
      <trkpt lat="38.961" lon="-5.7971582">
        <ele>297.0</ele>
        <time>2021-02-13T12:05:39Z</time>
      </trkpt>
      <trkpt lat="38.961052" lon="-5.7971554">
        <ele>297.0</ele>
        <time>2021-02-13T12:05:39Z</time>
      </trkpt>
      <trkpt lat="38.961105" lon="-5.7971516">
        <ele>297.0</ele>
        <time>2021-02-13T12:05:41Z</time>
      </trkpt>
      <trkpt lat="38.96116" lon="-5.79715">
        <ele>297.0</ele>
        <time>2021-02-13T12:05:42Z</time>
      </trkpt>
      <trkpt lat="38.961212" lon="-5.7971497">
        <ele>297.0</ele>
        <time>2021-02-13T12:05:43Z</time>
      </trkpt>
      <trkpt lat="38.961266" lon="-5.7971487">
        <ele>297.0</ele>
        <time>2021-02-13T12:05:44Z</time>
      </trkpt>
      <trkpt lat="38.96132" lon="-5.797148">
        <ele>297.0</ele>
        <time>2021-02-13T12:05:45Z</time>
      </trkpt>
      <trkpt lat="38.96137" lon="-5.7971454">
        <ele>297.0</ele>
        <time>2021-02-13T12:05:46Z</time>
      </trkpt>
      <trkpt lat="38.961422" lon="-5.797143">
        <ele>297.0</ele>
        <time>2021-02-13T12:05:47Z</time>
      </trkpt>
      <trkpt lat="38.961475" lon="-5.797141">
        <ele>297.0</ele>
        <time>2021-02-13T12:05:48Z</time>
      </trkpt>
      <trkpt lat="38.961525" lon="-5.7971406">
        <ele>297.0</ele>
        <time>2021-02-13T12:05:49Z</time>
      </trkpt>
      <trkpt lat="38.96158" lon="-5.797141">
        <ele>297.0</ele>
        <time>2021-02-13T12:05:50Z</time>
      </trkpt>
      <trkpt lat="38.96163" lon="-5.797143">
        <ele>297.0</ele>
        <time>2021-02-13T12:05:51Z</time>
      </trkpt>
      <trkpt lat="38.96168" lon="-5.7971454">
        <ele>297.0</ele>
        <time>2021-02-13T12:05:51Z</time>
      </trkpt>
      <trkpt lat="38.961735" lon="-5.7971454">
        <ele>297.0</ele>
        <time>2021-02-13T12:05:53Z</time>
      </trkpt>
      <trkpt lat="38.96179" lon="-5.7971463">
        <ele>297.0</ele>
        <time>2021-02-13T12:05:54Z</time>
      </trkpt>
      <trkpt lat="38.96184" lon="-5.7971478">
        <ele>297.0</ele>
        <time>2021-02-13T12:05:55Z</time>
      </trkpt>
      <trkpt lat="38.96189" lon="-5.7971497">
        <ele>297.0</ele>
        <time>2021-02-13T12:05:56Z</time>
      </trkpt>
      <trkpt lat="38.961945" lon="-5.7971516">
        <ele>297.0</ele>
        <time>2021-02-13T12:05:57Z</time>
      </trkpt>
      <trkpt lat="38.962006" lon="-5.7971535">
        <ele>297.0</ele>
        <time>2021-02-13T12:05:58Z</time>
      </trkpt>
      <trkpt lat="38.96206" lon="-5.797154">
        <ele>297.0</ele>
        <time>2021-02-13T12:05:59Z</time>
      </trkpt>
      <trkpt lat="38.962116" lon="-5.7971535">
        <ele>297.0</ele>
        <time>2021-02-13T12:06:00Z</time>
      </trkpt>
      <trkpt lat="38.962177" lon="-5.7971516">
        <ele>297.0</ele>
        <time>2021-02-13T12:06:01Z</time>
      </trkpt>
      <trkpt lat="38.96224" lon="-5.79715">
        <ele>296.0</ele>
        <time>2021-02-13T12:06:02Z</time>
      </trkpt>
      <trkpt lat="38.9623" lon="-5.7971487">
        <ele>296.0</ele>
        <time>2021-02-13T12:06:02Z</time>
      </trkpt>
      <trkpt lat="38.96236" lon="-5.7971478">
        <ele>295.0</ele>
        <time>2021-02-13T12:06:04Z</time>
      </trkpt>
      <trkpt lat="38.96242" lon="-5.7971444">
        <ele>295.0</ele>
        <time>2021-02-13T12:06:05Z</time>
      </trkpt>
      <trkpt lat="38.962486" lon="-5.7971416">
        <ele>295.0</ele>
        <time>2021-02-13T12:06:06Z</time>
      </trkpt>
      <trkpt lat="38.962547" lon="-5.797139">
        <ele>294.0</ele>
        <time>2021-02-13T12:06:07Z</time>
      </trkpt>
      <trkpt lat="38.962612" lon="-5.797136">
        <ele>294.0</ele>
        <time>2021-02-13T12:06:08Z</time>
      </trkpt>
      <trkpt lat="38.962677" lon="-5.797133">
        <ele>294.0</ele>
        <time>2021-02-13T12:06:09Z</time>
      </trkpt>
      <trkpt lat="38.96274" lon="-5.7971315">
        <ele>293.0</ele>
        <time>2021-02-13T12:06:10Z</time>
      </trkpt>
      <trkpt lat="38.962807" lon="-5.797131">
        <ele>293.0</ele>
        <time>2021-02-13T12:06:10Z</time>
      </trkpt>
      <trkpt lat="38.96287" lon="-5.79713">
        <ele>293.0</ele>
        <time>2021-02-13T12:06:12Z</time>
      </trkpt>
      <trkpt lat="38.962936" lon="-5.7971296">
        <ele>293.0</ele>
        <time>2021-02-13T12:06:13Z</time>
      </trkpt>
      <trkpt lat="38.963" lon="-5.797131">
        <ele>292.0</ele>
        <time>2021-02-13T12:06:14Z</time>
      </trkpt>
      <trkpt lat="38.963066" lon="-5.797132">
        <ele>292.0</ele>
        <time>2021-02-13T12:06:15Z</time>
      </trkpt>
      <trkpt lat="38.96313" lon="-5.7971334">
        <ele>292.0</ele>
        <time>2021-02-13T12:06:16Z</time>
      </trkpt>
      <trkpt lat="38.963196" lon="-5.797134">
        <ele>292.0</ele>
        <time>2021-02-13T12:06:17Z</time>
      </trkpt>
      <trkpt lat="38.96326" lon="-5.797133">
        <ele>292.0</ele>
        <time>2021-02-13T12:06:18Z</time>
      </trkpt>
      <trkpt lat="38.963326" lon="-5.7971315">
        <ele>291.0</ele>
        <time>2021-02-13T12:06:19Z</time>
      </trkpt>
      <trkpt lat="38.96339" lon="-5.797129">
        <ele>291.0</ele>
        <time>2021-02-13T12:06:19Z</time>
      </trkpt>
      <trkpt lat="38.963455" lon="-5.7971263">
        <ele>291.0</ele>
        <time>2021-02-13T12:06:21Z</time>
      </trkpt>
      <trkpt lat="38.963516" lon="-5.797126">
        <ele>291.0</ele>
        <time>2021-02-13T12:06:22Z</time>
      </trkpt>
      <trkpt lat="38.963577" lon="-5.7971296">
        <ele>291.0</ele>
        <time>2021-02-13T12:06:22Z</time>
      </trkpt>
      <trkpt lat="38.963642" lon="-5.7971387">
        <ele>291.0</ele>
        <time>2021-02-13T12:06:23Z</time>
      </trkpt>
      <trkpt lat="38.9637" lon="-5.797154">
        <ele>291.0</ele>
        <time>2021-02-13T12:06:25Z</time>
      </trkpt>
      <trkpt lat="38.963757" lon="-5.7971797">
        <ele>291.0</ele>
        <time>2021-02-13T12:06:26Z</time>
      </trkpt>
      <trkpt lat="38.96381" lon="-5.797214">
        <ele>291.0</ele>
        <time>2021-02-13T12:06:27Z</time>
      </trkpt>
      <trkpt lat="38.963863" lon="-5.7972536">
        <ele>291.0</ele>
        <time>2021-02-13T12:06:28Z</time>
      </trkpt>
      <trkpt lat="38.963917" lon="-5.7972946">
        <ele>291.0</ele>
        <time>2021-02-13T12:06:28Z</time>
      </trkpt>
      <trkpt lat="38.963963" lon="-5.797335">
        <ele>291.0</ele>
        <time>2021-02-13T12:06:30Z</time>
      </trkpt>
      <trkpt lat="38.964012" lon="-5.797376">
        <ele>291.0</ele>
        <time>2021-02-13T12:06:31Z</time>
      </trkpt>
      <trkpt lat="38.96406" lon="-5.797418">
        <ele>291.0</ele>
        <time>2021-02-13T12:06:33Z</time>
      </trkpt>
      <trkpt lat="38.96413" lon="-5.7974834">
        <ele>291.0</ele>
        <time>2021-02-13T12:06:34Z</time>
      </trkpt>
      <trkpt lat="38.964188" lon="-5.7975445">
        <ele>291.0</ele>
        <time>2021-02-13T12:06:35Z</time>
      </trkpt>
      <trkpt lat="38.96425" lon="-5.7976">
        <ele>292.0</ele>
        <time>2021-02-13T12:06:36Z</time>
      </trkpt>
      <trkpt lat="38.964302" lon="-5.7976513">
        <ele>292.0</ele>
        <time>2021-02-13T12:06:37Z</time>
      </trkpt>
      <trkpt lat="38.964355" lon="-5.7977033">
        <ele>291.0</ele>
        <time>2021-02-13T12:06:38Z</time>
      </trkpt>
      <trkpt lat="38.964413" lon="-5.797756">
        <ele>291.0</ele>
        <time>2021-02-13T12:06:39Z</time>
      </trkpt>
      <trkpt lat="38.964466" lon="-5.7978053">
        <ele>290.0</ele>
        <time>2021-02-13T12:06:40Z</time>
      </trkpt>
      <trkpt lat="38.96452" lon="-5.797856">
        <ele>290.0</ele>
        <time>2021-02-13T12:06:40Z</time>
      </trkpt>
      <trkpt lat="38.964573" lon="-5.797908">
        <ele>290.0</ele>
        <time>2021-02-13T12:06:42Z</time>
      </trkpt>
      <trkpt lat="38.96463" lon="-5.797957">
        <ele>290.0</ele>
        <time>2021-02-13T12:06:43Z</time>
      </trkpt>
      <trkpt lat="38.964684" lon="-5.7980084">
        <ele>289.0</ele>
        <time>2021-02-13T12:06:44Z</time>
      </trkpt>
      <trkpt lat="38.964733" lon="-5.798056">
        <ele>289.0</ele>
        <time>2021-02-13T12:06:45Z</time>
      </trkpt>
      <trkpt lat="38.964787" lon="-5.798103">
        <ele>289.0</ele>
        <time>2021-02-13T12:06:46Z</time>
      </trkpt>
      <trkpt lat="38.964832" lon="-5.7981477">
        <ele>289.0</ele>
        <time>2021-02-13T12:06:47Z</time>
      </trkpt>
      <trkpt lat="38.964874" lon="-5.798187">
        <ele>289.0</ele>
        <time>2021-02-13T12:06:47Z</time>
      </trkpt>
      <trkpt lat="38.964912" lon="-5.7982225">
        <ele>289.0</ele>
        <time>2021-02-13T12:06:49Z</time>
      </trkpt>
      <trkpt lat="38.964947" lon="-5.7982574">
        <ele>289.0</ele>
        <time>2021-02-13T12:06:49Z</time>
      </trkpt>
      <trkpt lat="38.96498" lon="-5.798288">
        <ele>289.0</ele>
        <time>2021-02-13T12:06:51Z</time>
      </trkpt>
      <trkpt lat="38.965008" lon="-5.798315">
        <ele>289.0</ele>
        <time>2021-02-13T12:06:51Z</time>
      </trkpt>
      <trkpt lat="38.965027" lon="-5.7983346">
        <ele>289.0</ele>
        <time>2021-02-13T12:06:53Z</time>
      </trkpt>
      <trkpt lat="38.965042" lon="-5.7983494">
        <ele>289.0</ele>
        <time>2021-02-13T12:06:54Z</time>
      </trkpt>
      <trkpt lat="38.965054" lon="-5.798361">
        <ele>289.0</ele>
        <time>2021-02-13T12:06:55Z</time>
      </trkpt>
      <trkpt lat="38.965096" lon="-5.798423">
        <ele>289.0</ele>
        <time>2021-02-13T12:07:11Z</time>
      </trkpt>
      <trkpt lat="38.965103" lon="-5.7984257">
        <ele>289.0</ele>
        <time>2021-02-13T12:07:12Z</time>
      </trkpt>
      <trkpt lat="38.965122" lon="-5.798431">
        <ele>289.0</ele>
        <time>2021-02-13T12:07:13Z</time>
      </trkpt>
      <trkpt lat="38.96515" lon="-5.798439">
        <ele>289.0</ele>
        <time>2021-02-13T12:07:14Z</time>
      </trkpt>
      <trkpt lat="38.965183" lon="-5.798447">
        <ele>289.0</ele>
        <time>2021-02-13T12:07:15Z</time>
      </trkpt>
      <trkpt lat="38.96522" lon="-5.7984576">
        <ele>288.0</ele>
        <time>2021-02-13T12:07:16Z</time>
      </trkpt>
      <trkpt lat="38.965263" lon="-5.798469">
        <ele>288.0</ele>
        <time>2021-02-13T12:07:16Z</time>
      </trkpt>
      <trkpt lat="38.96531" lon="-5.7984805">
        <ele>288.0</ele>
        <time>2021-02-13T12:07:18Z</time>
      </trkpt>
      <trkpt lat="38.96536" lon="-5.798492">
        <ele>288.0</ele>
        <time>2021-02-13T12:07:19Z</time>
      </trkpt>
      <trkpt lat="38.965416" lon="-5.7985067">
        <ele>288.0</ele>
        <time>2021-02-13T12:07:20Z</time>
      </trkpt>
      <trkpt lat="38.965466" lon="-5.7985234">
        <ele>288.0</ele>
        <time>2021-02-13T12:07:21Z</time>
      </trkpt>
      <trkpt lat="38.96552" lon="-5.7985406">
        <ele>288.0</ele>
        <time>2021-02-13T12:07:22Z</time>
      </trkpt>
      <trkpt lat="38.965572" lon="-5.7985554">
        <ele>288.0</ele>
        <time>2021-02-13T12:07:23Z</time>
      </trkpt>
      <trkpt lat="38.965626" lon="-5.7985663">
        <ele>288.0</ele>
        <time>2021-02-13T12:07:24Z</time>
      </trkpt>
      <trkpt lat="38.96568" lon="-5.798578">
        <ele>288.0</ele>
        <time>2021-02-13T12:07:25Z</time>
      </trkpt>
      <trkpt lat="38.965733" lon="-5.798591">
        <ele>288.0</ele>
        <time>2021-02-13T12:07:26Z</time>
      </trkpt>
      <trkpt lat="38.965786" lon="-5.7986054">
        <ele>288.0</ele>
        <time>2021-02-13T12:07:27Z</time>
      </trkpt>
      <trkpt lat="38.965836" lon="-5.7986197">
        <ele>288.0</ele>
        <time>2021-02-13T12:07:27Z</time>
      </trkpt>
      <trkpt lat="38.965893" lon="-5.7986336">
        <ele>288.0</ele>
        <time>2021-02-13T12:07:29Z</time>
      </trkpt>
      <trkpt lat="38.96595" lon="-5.7986465">
        <ele>288.0</ele>
        <time>2021-02-13T12:07:30Z</time>
      </trkpt>
      <trkpt lat="38.966007" lon="-5.798661">
        <ele>288.0</ele>
        <time>2021-02-13T12:07:31Z</time>
      </trkpt>
      <trkpt lat="38.96606" lon="-5.798677">
        <ele>288.0</ele>
        <time>2021-02-13T12:07:32Z</time>
      </trkpt>
      <trkpt lat="38.966118" lon="-5.7986946">
        <ele>288.0</ele>
        <time>2021-02-13T12:07:33Z</time>
      </trkpt>
      <trkpt lat="38.96618" lon="-5.798711">
        <ele>287.0</ele>
        <time>2021-02-13T12:07:34Z</time>
      </trkpt>
      <trkpt lat="38.966232" lon="-5.7987256">
        <ele>287.0</ele>
        <time>2021-02-13T12:07:35Z</time>
      </trkpt>
      <trkpt lat="38.966293" lon="-5.798738">
        <ele>287.0</ele>
        <time>2021-02-13T12:07:35Z</time>
      </trkpt>
      <trkpt lat="38.966354" lon="-5.7987456">
        <ele>287.0</ele>
        <time>2021-02-13T12:07:37Z</time>
      </trkpt>
      <trkpt lat="38.966408" lon="-5.798749">
        <ele>287.0</ele>
        <time>2021-02-13T12:07:37Z</time>
      </trkpt>
      <trkpt lat="38.966465" lon="-5.798748">
        <ele>287.0</ele>
        <time>2021-02-13T12:07:39Z</time>
      </trkpt>
      <trkpt lat="38.96652" lon="-5.7987432">
        <ele>287.0</ele>
        <time>2021-02-13T12:07:40Z</time>
      </trkpt>
      <trkpt lat="38.966576" lon="-5.7987328">
        <ele>287.0</ele>
        <time>2021-02-13T12:07:41Z</time>
      </trkpt>
      <trkpt lat="38.966633" lon="-5.7987247">
        <ele>287.0</ele>
        <time>2021-02-13T12:07:42Z</time>
      </trkpt>
      <trkpt lat="38.966682" lon="-5.7987227">
        <ele>287.0</ele>
        <time>2021-02-13T12:07:43Z</time>
      </trkpt>
      <trkpt lat="38.966736" lon="-5.798729">
        <ele>287.0</ele>
        <time>2021-02-13T12:07:43Z</time>
      </trkpt>
      <trkpt lat="38.96679" lon="-5.7987475">
        <ele>286.0</ele>
        <time>2021-02-13T12:07:45Z</time>
      </trkpt>
      <trkpt lat="38.96684" lon="-5.79878">
        <ele>286.0</ele>
        <time>2021-02-13T12:07:46Z</time>
      </trkpt>
      <trkpt lat="38.966877" lon="-5.7988257">
        <ele>286.0</ele>
        <time>2021-02-13T12:07:47Z</time>
      </trkpt>
      <trkpt lat="38.966908" lon="-5.798884">
        <ele>286.0</ele>
        <time>2021-02-13T12:07:48Z</time>
      </trkpt>
      <trkpt lat="38.966927" lon="-5.7989492">
        <ele>286.0</ele>
        <time>2021-02-13T12:07:49Z</time>
      </trkpt>
      <trkpt lat="38.966934" lon="-5.799022">
        <ele>286.0</ele>
        <time>2021-02-13T12:07:50Z</time>
      </trkpt>
      <trkpt lat="38.96693" lon="-5.799097">
        <ele>286.0</ele>
        <time>2021-02-13T12:07:51Z</time>
      </trkpt>
      <trkpt lat="38.966927" lon="-5.7991734">
        <ele>286.0</ele>
        <time>2021-02-13T12:07:52Z</time>
      </trkpt>
      <trkpt lat="38.966923" lon="-5.79925">
        <ele>286.0</ele>
        <time>2021-02-13T12:07:53Z</time>
      </trkpt>
      <trkpt lat="38.966927" lon="-5.799324">
        <ele>286.0</ele>
        <time>2021-02-13T12:07:54Z</time>
      </trkpt>
      <trkpt lat="38.96693" lon="-5.799393">
        <ele>286.0</ele>
        <time>2021-02-13T12:07:54Z</time>
      </trkpt>
      <trkpt lat="38.966946" lon="-5.79946">
        <ele>286.0</ele>
        <time>2021-02-13T12:07:56Z</time>
      </trkpt>
      <trkpt lat="38.966965" lon="-5.7995234">
        <ele>286.0</ele>
        <time>2021-02-13T12:07:57Z</time>
      </trkpt>
      <trkpt lat="38.96699" lon="-5.79958">
        <ele>286.0</ele>
        <time>2021-02-13T12:07:58Z</time>
      </trkpt>
      <trkpt lat="38.967026" lon="-5.7996325">
        <ele>287.0</ele>
        <time>2021-02-13T12:07:59Z</time>
      </trkpt>
      <trkpt lat="38.967064" lon="-5.799679">
        <ele>287.0</ele>
        <time>2021-02-13T12:08:00Z</time>
      </trkpt>
      <trkpt lat="38.967106" lon="-5.7997236">
        <ele>287.0</ele>
        <time>2021-02-13T12:08:01Z</time>
      </trkpt>
      <trkpt lat="38.967144" lon="-5.7997665">
        <ele>287.0</ele>
        <time>2021-02-13T12:08:02Z</time>
      </trkpt>
      <trkpt lat="38.96718" lon="-5.7998157">
        <ele>287.0</ele>
        <time>2021-02-13T12:08:03Z</time>
      </trkpt>
      <trkpt lat="38.96721" lon="-5.799873">
        <ele>287.0</ele>
        <time>2021-02-13T12:08:04Z</time>
      </trkpt>
      <trkpt lat="38.967228" lon="-5.799933">
        <ele>287.0</ele>
        <time>2021-02-13T12:08:05Z</time>
      </trkpt>
      <trkpt lat="38.967243" lon="-5.7999935">
        <ele>288.0</ele>
        <time>2021-02-13T12:08:06Z</time>
      </trkpt>
      <trkpt lat="38.967255" lon="-5.800055">
        <ele>288.0</ele>
        <time>2021-02-13T12:08:07Z</time>
      </trkpt>
      <trkpt lat="38.967262" lon="-5.800112">
        <ele>288.0</ele>
        <time>2021-02-13T12:08:08Z</time>
      </trkpt>
      <trkpt lat="38.96727" lon="-5.8001723">
        <ele>288.0</ele>
        <time>2021-02-13T12:08:09Z</time>
      </trkpt>
      <trkpt lat="38.96728" lon="-5.8002367">
        <ele>289.0</ele>
        <time>2021-02-13T12:08:10Z</time>
      </trkpt>
      <trkpt lat="38.967293" lon="-5.800297">
        <ele>289.0</ele>
        <time>2021-02-13T12:08:11Z</time>
      </trkpt>
      <trkpt lat="38.9673" lon="-5.8003564">
        <ele>289.0</ele>
        <time>2021-02-13T12:08:12Z</time>
      </trkpt>
      <trkpt lat="38.967316" lon="-5.800414">
        <ele>289.0</ele>
        <time>2021-02-13T12:08:12Z</time>
      </trkpt>
      <trkpt lat="38.967323" lon="-5.800469">
        <ele>289.0</ele>
        <time>2021-02-13T12:08:14Z</time>
      </trkpt>
      <trkpt lat="38.96734" lon="-5.800524">
        <ele>289.0</ele>
        <time>2021-02-13T12:08:14Z</time>
      </trkpt>
      <trkpt lat="38.967354" lon="-5.8005733">
        <ele>289.0</ele>
        <time>2021-02-13T12:08:16Z</time>
      </trkpt>
      <trkpt lat="38.96737" lon="-5.8006253">
        <ele>290.0</ele>
        <time>2021-02-13T12:08:17Z</time>
      </trkpt>
      <trkpt lat="38.967384" lon="-5.8006783">
        <ele>290.0</ele>
        <time>2021-02-13T12:08:18Z</time>
      </trkpt>
      <trkpt lat="38.967403" lon="-5.8007298">
        <ele>290.0</ele>
        <time>2021-02-13T12:08:19Z</time>
      </trkpt>
      <trkpt lat="38.967422" lon="-5.8007803">
        <ele>290.0</ele>
        <time>2021-02-13T12:08:20Z</time>
      </trkpt>
      <trkpt lat="38.96744" lon="-5.800831">
        <ele>290.0</ele>
        <time>2021-02-13T12:08:21Z</time>
      </trkpt>
      <trkpt lat="38.967464" lon="-5.8008804">
        <ele>290.0</ele>
        <time>2021-02-13T12:08:22Z</time>
      </trkpt>
      <trkpt lat="38.967487" lon="-5.800931">
        <ele>290.0</ele>
        <time>2021-02-13T12:08:23Z</time>
      </trkpt>
      <trkpt lat="38.96751" lon="-5.8009815">
        <ele>291.0</ele>
        <time>2021-02-13T12:08:24Z</time>
      </trkpt>
      <trkpt lat="38.96753" lon="-5.801033">
        <ele>291.0</ele>
        <time>2021-02-13T12:08:25Z</time>
      </trkpt>
      <trkpt lat="38.96755" lon="-5.8010817">
        <ele>291.0</ele>
        <time>2021-02-13T12:08:26Z</time>
      </trkpt>
      <trkpt lat="38.967567" lon="-5.801127">
        <ele>291.0</ele>
        <time>2021-02-13T12:08:27Z</time>
      </trkpt>
      <trkpt lat="38.967587" lon="-5.801172">
        <ele>291.0</ele>
        <time>2021-02-13T12:08:28Z</time>
      </trkpt>
      <trkpt lat="38.9676" lon="-5.801217">
        <ele>291.0</ele>
        <time>2021-02-13T12:08:29Z</time>
      </trkpt>
      <trkpt lat="38.967625" lon="-5.801263">
        <ele>291.0</ele>
        <time>2021-02-13T12:08:30Z</time>
      </trkpt>
      <trkpt lat="38.96764" lon="-5.8013096">
        <ele>291.0</ele>
        <time>2021-02-13T12:08:31Z</time>
      </trkpt>
      <trkpt lat="38.967655" lon="-5.8013573">
        <ele>291.0</ele>
        <time>2021-02-13T12:08:32Z</time>
      </trkpt>
      <trkpt lat="38.96767" lon="-5.801406">
        <ele>291.0</ele>
        <time>2021-02-13T12:08:33Z</time>
      </trkpt>
      <trkpt lat="38.96769" lon="-5.8014574">
        <ele>291.0</ele>
        <time>2021-02-13T12:08:34Z</time>
      </trkpt>
      <trkpt lat="38.967712" lon="-5.8015027">
        <ele>291.0</ele>
        <time>2021-02-13T12:08:34Z</time>
      </trkpt>
      <trkpt lat="38.96773" lon="-5.801548">
        <ele>291.0</ele>
        <time>2021-02-13T12:08:36Z</time>
      </trkpt>
      <trkpt lat="38.96775" lon="-5.801594">
        <ele>291.0</ele>
        <time>2021-02-13T12:08:36Z</time>
      </trkpt>
      <trkpt lat="38.967773" lon="-5.801632">
        <ele>291.0</ele>
        <time>2021-02-13T12:08:38Z</time>
      </trkpt>
      <trkpt lat="38.96779" lon="-5.8016725">
        <ele>291.0</ele>
        <time>2021-02-13T12:08:38Z</time>
      </trkpt>
      <trkpt lat="38.967808" lon="-5.8017125">
        <ele>291.0</ele>
        <time>2021-02-13T12:08:40Z</time>
      </trkpt>
      <trkpt lat="38.967827" lon="-5.8017545">
        <ele>291.0</ele>
        <time>2021-02-13T12:08:41Z</time>
      </trkpt>
      <trkpt lat="38.967842" lon="-5.801799">
        <ele>291.0</ele>
        <time>2021-02-13T12:08:42Z</time>
      </trkpt>
      <trkpt lat="38.96786" lon="-5.8018436">
        <ele>292.0</ele>
        <time>2021-02-13T12:08:43Z</time>
      </trkpt>
      <trkpt lat="38.967876" lon="-5.8018885">
        <ele>292.0</ele>
        <time>2021-02-13T12:08:44Z</time>
      </trkpt>
      <trkpt lat="38.967896" lon="-5.801929">
        <ele>292.0</ele>
        <time>2021-02-13T12:08:44Z</time>
      </trkpt>
      <trkpt lat="38.96791" lon="-5.80197">
        <ele>292.0</ele>
        <time>2021-02-13T12:08:46Z</time>
      </trkpt>
      <trkpt lat="38.96793" lon="-5.8020096">
        <ele>292.0</ele>
        <time>2021-02-13T12:08:47Z</time>
      </trkpt>
      <trkpt lat="38.96794" lon="-5.8020506">
        <ele>292.0</ele>
        <time>2021-02-13T12:08:48Z</time>
      </trkpt>
      <trkpt lat="38.967953" lon="-5.802092">
        <ele>292.0</ele>
        <time>2021-02-13T12:08:48Z</time>
      </trkpt>
      <trkpt lat="38.967968" lon="-5.8021364">
        <ele>293.0</ele>
        <time>2021-02-13T12:08:49Z</time>
      </trkpt>
      <trkpt lat="38.967983" lon="-5.8021874">
        <ele>293.0</ele>
        <time>2021-02-13T12:08:50Z</time>
      </trkpt>
      <trkpt lat="38.968" lon="-5.802239">
        <ele>293.0</ele>
        <time>2021-02-13T12:08:51Z</time>
      </trkpt>
      <trkpt lat="38.968014" lon="-5.8022895">
        <ele>294.0</ele>
        <time>2021-02-13T12:08:51Z</time>
      </trkpt>
      <trkpt lat="38.96803" lon="-5.8023353">
        <ele>294.0</ele>
        <time>2021-02-13T12:08:53Z</time>
      </trkpt>
      <trkpt lat="38.968044" lon="-5.802383">
        <ele>294.0</ele>
        <time>2021-02-13T12:08:53Z</time>
      </trkpt>
      <trkpt lat="38.968056" lon="-5.8024297">
        <ele>294.0</ele>
        <time>2021-02-13T12:08:55Z</time>
      </trkpt>
      <trkpt lat="38.96807" lon="-5.802476">
        <ele>295.0</ele>
        <time>2021-02-13T12:08:55Z</time>
      </trkpt>
      <trkpt lat="38.96809" lon="-5.8025246">
        <ele>295.0</ele>
        <time>2021-02-13T12:08:57Z</time>
      </trkpt>
      <trkpt lat="38.968105" lon="-5.8025727">
        <ele>295.0</ele>
        <time>2021-02-13T12:08:58Z</time>
      </trkpt>
      <trkpt lat="38.968124" lon="-5.802621">
        <ele>295.0</ele>
        <time>2021-02-13T12:08:59Z</time>
      </trkpt>
      <trkpt lat="38.96814" lon="-5.802668">
        <ele>296.0</ele>
        <time>2021-02-13T12:09:00Z</time>
      </trkpt>
      <trkpt lat="38.968155" lon="-5.8027163">
        <ele>296.0</ele>
        <time>2021-02-13T12:09:01Z</time>
      </trkpt>
      <trkpt lat="38.96817" lon="-5.802764">
        <ele>296.0</ele>
        <time>2021-02-13T12:09:02Z</time>
      </trkpt>
      <trkpt lat="38.968185" lon="-5.8028097">
        <ele>296.0</ele>
        <time>2021-02-13T12:09:03Z</time>
      </trkpt>
      <trkpt lat="38.9682" lon="-5.802855">
        <ele>296.0</ele>
        <time>2021-02-13T12:09:04Z</time>
      </trkpt>
      <trkpt lat="38.968216" lon="-5.802904">
        <ele>296.0</ele>
        <time>2021-02-13T12:09:05Z</time>
      </trkpt>
      <trkpt lat="38.96823" lon="-5.80295">
        <ele>296.0</ele>
        <time>2021-02-13T12:09:06Z</time>
      </trkpt>
      <trkpt lat="38.96825" lon="-5.8029976">
        <ele>296.0</ele>
        <time>2021-02-13T12:09:07Z</time>
      </trkpt>
      <trkpt lat="38.968266" lon="-5.8030415">
        <ele>296.0</ele>
        <time>2021-02-13T12:09:08Z</time>
      </trkpt>
      <trkpt lat="38.96828" lon="-5.8030853">
        <ele>296.0</ele>
        <time>2021-02-13T12:09:09Z</time>
      </trkpt>
      <trkpt lat="38.968296" lon="-5.803133">
        <ele>296.0</ele>
        <time>2021-02-13T12:09:10Z</time>
      </trkpt>
      <trkpt lat="38.96831" lon="-5.8031764">
        <ele>296.0</ele>
        <time>2021-02-13T12:09:11Z</time>
      </trkpt>
      <trkpt lat="38.968327" lon="-5.8032217">
        <ele>296.0</ele>
        <time>2021-02-13T12:09:12Z</time>
      </trkpt>
      <trkpt lat="38.96834" lon="-5.803267">
        <ele>296.0</ele>
        <time>2021-02-13T12:09:13Z</time>
      </trkpt>
      <trkpt lat="38.968353" lon="-5.803313">
        <ele>296.0</ele>
        <time>2021-02-13T12:09:14Z</time>
      </trkpt>
      <trkpt lat="38.96837" lon="-5.803358">
        <ele>296.0</ele>
        <time>2021-02-13T12:09:15Z</time>
      </trkpt>
      <trkpt lat="38.968384" lon="-5.8034034">
        <ele>296.0</ele>
        <time>2021-02-13T12:09:16Z</time>
      </trkpt>
      <trkpt lat="38.9684" lon="-5.8034477">
        <ele>296.0</ele>
        <time>2021-02-13T12:09:16Z</time>
      </trkpt>
      <trkpt lat="38.96842" lon="-5.803495">
        <ele>296.0</ele>
        <time>2021-02-13T12:09:18Z</time>
      </trkpt>
      <trkpt lat="38.968433" lon="-5.8035426">
        <ele>297.0</ele>
        <time>2021-02-13T12:09:18Z</time>
      </trkpt>
      <trkpt lat="38.968452" lon="-5.8035865">
        <ele>297.0</ele>
        <time>2021-02-13T12:09:20Z</time>
      </trkpt>
      <trkpt lat="38.968468" lon="-5.8036366">
        <ele>297.0</ele>
        <time>2021-02-13T12:09:21Z</time>
      </trkpt>
      <trkpt lat="38.968487" lon="-5.803685">
        <ele>297.0</ele>
        <time>2021-02-13T12:09:22Z</time>
      </trkpt>
      <trkpt lat="38.968506" lon="-5.8037343">
        <ele>297.0</ele>
        <time>2021-02-13T12:09:22Z</time>
      </trkpt>
      <trkpt lat="38.96852" lon="-5.8037796">
        <ele>297.0</ele>
        <time>2021-02-13T12:09:24Z</time>
      </trkpt>
      <trkpt lat="38.96854" lon="-5.803826">
        <ele>298.0</ele>
        <time>2021-02-13T12:09:25Z</time>
      </trkpt>
      <trkpt lat="38.96856" lon="-5.803875">
        <ele>298.0</ele>
        <time>2021-02-13T12:09:26Z</time>
      </trkpt>
      <trkpt lat="38.96858" lon="-5.8039236">
        <ele>298.0</ele>
        <time>2021-02-13T12:09:27Z</time>
      </trkpt>
      <trkpt lat="38.968597" lon="-5.8039737">
        <ele>298.0</ele>
        <time>2021-02-13T12:09:28Z</time>
      </trkpt>
      <trkpt lat="38.968613" lon="-5.8040233">
        <ele>298.0</ele>
        <time>2021-02-13T12:09:29Z</time>
      </trkpt>
      <trkpt lat="38.968628" lon="-5.8040686">
        <ele>298.0</ele>
        <time>2021-02-13T12:09:30Z</time>
      </trkpt>
      <trkpt lat="38.968647" lon="-5.804116">
        <ele>298.0</ele>
        <time>2021-02-13T12:09:31Z</time>
      </trkpt>
      <trkpt lat="38.968662" lon="-5.804162">
        <ele>298.0</ele>
        <time>2021-02-13T12:09:32Z</time>
      </trkpt>
      <trkpt lat="38.968678" lon="-5.804203">
        <ele>298.0</ele>
        <time>2021-02-13T12:09:33Z</time>
      </trkpt>
      <trkpt lat="38.968697" lon="-5.804244">
        <ele>298.0</ele>
        <time>2021-02-13T12:09:34Z</time>
      </trkpt>
      <trkpt lat="38.968716" lon="-5.804287">
        <ele>298.0</ele>
        <time>2021-02-13T12:09:35Z</time>
      </trkpt>
      <trkpt lat="38.96874" lon="-5.8043313">
        <ele>298.0</ele>
        <time>2021-02-13T12:09:36Z</time>
      </trkpt>
      <trkpt lat="38.96876" lon="-5.804376">
        <ele>298.0</ele>
        <time>2021-02-13T12:09:37Z</time>
      </trkpt>
      <trkpt lat="38.968784" lon="-5.804423">
        <ele>298.0</ele>
        <time>2021-02-13T12:09:37Z</time>
      </trkpt>
      <trkpt lat="38.968807" lon="-5.8044715">
        <ele>298.0</ele>
        <time>2021-02-13T12:09:39Z</time>
      </trkpt>
      <trkpt lat="38.96883" lon="-5.804519">
        <ele>298.0</ele>
        <time>2021-02-13T12:09:39Z</time>
      </trkpt>
      <trkpt lat="38.968857" lon="-5.804563">
        <ele>298.0</ele>
        <time>2021-02-13T12:09:41Z</time>
      </trkpt>
      <trkpt lat="38.96888" lon="-5.8046107">
        <ele>298.0</ele>
        <time>2021-02-13T12:09:41Z</time>
      </trkpt>
      <trkpt lat="38.968903" lon="-5.80466">
        <ele>298.0</ele>
        <time>2021-02-13T12:09:43Z</time>
      </trkpt>
      <trkpt lat="38.96892" lon="-5.804709">
        <ele>298.0</ele>
        <time>2021-02-13T12:09:44Z</time>
      </trkpt>
      <trkpt lat="38.96894" lon="-5.8047595">
        <ele>298.0</ele>
        <time>2021-02-13T12:09:45Z</time>
      </trkpt>
      <trkpt lat="38.96896" lon="-5.8048134">
        <ele>299.0</ele>
        <time>2021-02-13T12:09:45Z</time>
      </trkpt>
      <trkpt lat="38.96898" lon="-5.804867">
        <ele>299.0</ele>
        <time>2021-02-13T12:09:47Z</time>
      </trkpt>
      <trkpt lat="38.968994" lon="-5.8049145">
        <ele>299.0</ele>
        <time>2021-02-13T12:09:47Z</time>
      </trkpt>
      <trkpt lat="38.96901" lon="-5.8049645">
        <ele>299.0</ele>
        <time>2021-02-13T12:09:49Z</time>
      </trkpt>
      <trkpt lat="38.969025" lon="-5.80501">
        <ele>299.0</ele>
        <time>2021-02-13T12:09:49Z</time>
      </trkpt>
      <trkpt lat="38.96904" lon="-5.805054">
        <ele>299.0</ele>
        <time>2021-02-13T12:09:51Z</time>
      </trkpt>
      <trkpt lat="38.96906" lon="-5.8051">
        <ele>299.0</ele>
        <time>2021-02-13T12:09:52Z</time>
      </trkpt>
      <trkpt lat="38.969074" lon="-5.805145">
        <ele>299.0</ele>
        <time>2021-02-13T12:09:53Z</time>
      </trkpt>
      <trkpt lat="38.96909" lon="-5.8051887">
        <ele>299.0</ele>
        <time>2021-02-13T12:09:54Z</time>
      </trkpt>
      <trkpt lat="38.969105" lon="-5.8052316">
        <ele>299.0</ele>
        <time>2021-02-13T12:09:55Z</time>
      </trkpt>
      <trkpt lat="38.96912" lon="-5.8052735">
        <ele>299.0</ele>
        <time>2021-02-13T12:09:56Z</time>
      </trkpt>
      <trkpt lat="38.96914" lon="-5.8053107">
        <ele>299.0</ele>
        <time>2021-02-13T12:09:57Z</time>
      </trkpt>
      <trkpt lat="38.96916" lon="-5.805355">
        <ele>299.0</ele>
        <time>2021-02-13T12:09:58Z</time>
      </trkpt>
      <trkpt lat="38.969173" lon="-5.8053985">
        <ele>299.0</ele>
        <time>2021-02-13T12:09:59Z</time>
      </trkpt>
      <trkpt lat="38.969193" lon="-5.8054414">
        <ele>299.0</ele>
        <time>2021-02-13T12:10:00Z</time>
      </trkpt>
      <trkpt lat="38.96921" lon="-5.8054795">
        <ele>300.0</ele>
        <time>2021-02-13T12:10:01Z</time>
      </trkpt>
      <trkpt lat="38.96923" lon="-5.8055115">
        <ele>300.0</ele>
        <time>2021-02-13T12:10:02Z</time>
      </trkpt>
      <trkpt lat="38.96925" lon="-5.805544">
        <ele>300.0</ele>
        <time>2021-02-13T12:10:03Z</time>
      </trkpt>
      <trkpt lat="38.969276" lon="-5.805572">
        <ele>300.0</ele>
        <time>2021-02-13T12:10:04Z</time>
      </trkpt>
      <trkpt lat="38.969303" lon="-5.8055954">
        <ele>300.0</ele>
        <time>2021-02-13T12:10:05Z</time>
      </trkpt>
      <trkpt lat="38.96933" lon="-5.805612">
        <ele>300.0</ele>
        <time>2021-02-13T12:10:06Z</time>
      </trkpt>
      <trkpt lat="38.969364" lon="-5.8056216">
        <ele>300.0</ele>
        <time>2021-02-13T12:10:07Z</time>
      </trkpt>
      <trkpt lat="38.969402" lon="-5.805623">
        <ele>300.0</ele>
        <time>2021-02-13T12:10:08Z</time>
      </trkpt>
      <trkpt lat="38.969444" lon="-5.8056207">
        <ele>300.0</ele>
        <time>2021-02-13T12:10:09Z</time>
      </trkpt>
      <trkpt lat="38.96949" lon="-5.8056192">
        <ele>300.0</ele>
        <time>2021-02-13T12:10:10Z</time>
      </trkpt>
      <trkpt lat="38.969536" lon="-5.805621">
        <ele>300.0</ele>
        <time>2021-02-13T12:10:10Z</time>
      </trkpt>
      <trkpt lat="38.96958" lon="-5.8056283">
        <ele>300.0</ele>
        <time>2021-02-13T12:10:12Z</time>
      </trkpt>
      <trkpt lat="38.969627" lon="-5.805643">
        <ele>300.0</ele>
        <time>2021-02-13T12:10:12Z</time>
      </trkpt>
      <trkpt lat="38.969673" lon="-5.8056655">
        <ele>300.0</ele>
        <time>2021-02-13T12:10:14Z</time>
      </trkpt>
      <trkpt lat="38.96971" lon="-5.8056965">
        <ele>300.0</ele>
        <time>2021-02-13T12:10:14Z</time>
      </trkpt>
      <trkpt lat="38.96974" lon="-5.8057356">
        <ele>300.0</ele>
        <time>2021-02-13T12:10:16Z</time>
      </trkpt>
      <trkpt lat="38.969765" lon="-5.805781">
        <ele>300.0</ele>
        <time>2021-02-13T12:10:16Z</time>
      </trkpt>
      <trkpt lat="38.969784" lon="-5.805834">
        <ele>300.0</ele>
        <time>2021-02-13T12:10:18Z</time>
      </trkpt>
      <trkpt lat="38.969795" lon="-5.805888">
        <ele>301.0</ele>
        <time>2021-02-13T12:10:19Z</time>
      </trkpt>
      <trkpt lat="38.969803" lon="-5.805943">
        <ele>301.0</ele>
        <time>2021-02-13T12:10:20Z</time>
      </trkpt>
      <trkpt lat="38.969807" lon="-5.805999">
        <ele>301.0</ele>
        <time>2021-02-13T12:10:21Z</time>
      </trkpt>
      <trkpt lat="38.969807" lon="-5.8060513">
        <ele>301.0</ele>
        <time>2021-02-13T12:10:22Z</time>
      </trkpt>
      <trkpt lat="38.969807" lon="-5.806107">
        <ele>301.0</ele>
        <time>2021-02-13T12:10:23Z</time>
      </trkpt>
      <trkpt lat="38.969807" lon="-5.8061585">
        <ele>301.0</ele>
        <time>2021-02-13T12:10:24Z</time>
      </trkpt>
      <trkpt lat="38.969807" lon="-5.806217">
        <ele>301.0</ele>
        <time>2021-02-13T12:10:25Z</time>
      </trkpt>
      <trkpt lat="38.969807" lon="-5.8062754">
        <ele>301.0</ele>
        <time>2021-02-13T12:10:26Z</time>
      </trkpt>
      <trkpt lat="38.96981" lon="-5.8063307">
        <ele>301.0</ele>
        <time>2021-02-13T12:10:27Z</time>
      </trkpt>
      <trkpt lat="38.969814" lon="-5.8063846">
        <ele>301.0</ele>
        <time>2021-02-13T12:10:28Z</time>
      </trkpt>
      <trkpt lat="38.96982" lon="-5.806437">
        <ele>301.0</ele>
        <time>2021-02-13T12:10:29Z</time>
      </trkpt>
      <trkpt lat="38.969822" lon="-5.8064895">
        <ele>301.0</ele>
        <time>2021-02-13T12:10:30Z</time>
      </trkpt>
      <trkpt lat="38.969822" lon="-5.806542">
        <ele>301.0</ele>
        <time>2021-02-13T12:10:31Z</time>
      </trkpt>
      <trkpt lat="38.969826" lon="-5.8065944">
        <ele>301.0</ele>
        <time>2021-02-13T12:10:32Z</time>
      </trkpt>
      <trkpt lat="38.969826" lon="-5.806647">
        <ele>301.0</ele>
        <time>2021-02-13T12:10:33Z</time>
      </trkpt>
      <trkpt lat="38.969826" lon="-5.8066964">
        <ele>301.0</ele>
        <time>2021-02-13T12:10:34Z</time>
      </trkpt>
      <trkpt lat="38.96983" lon="-5.8067503">
        <ele>301.0</ele>
        <time>2021-02-13T12:10:35Z</time>
      </trkpt>
      <trkpt lat="38.96983" lon="-5.8068027">
        <ele>301.0</ele>
        <time>2021-02-13T12:10:36Z</time>
      </trkpt>
      <trkpt lat="38.969833" lon="-5.8068542">
        <ele>301.0</ele>
        <time>2021-02-13T12:10:37Z</time>
      </trkpt>
      <trkpt lat="38.969837" lon="-5.8069057">
        <ele>301.0</ele>
        <time>2021-02-13T12:10:38Z</time>
      </trkpt>
      <trkpt lat="38.96984" lon="-5.806957">
        <ele>301.0</ele>
        <time>2021-02-13T12:10:39Z</time>
      </trkpt>
      <trkpt lat="38.969845" lon="-5.8070073">
        <ele>302.0</ele>
        <time>2021-02-13T12:10:40Z</time>
      </trkpt>
      <trkpt lat="38.969845" lon="-5.807056">
        <ele>302.0</ele>
        <time>2021-02-13T12:10:41Z</time>
      </trkpt>
      <trkpt lat="38.969845" lon="-5.8071046">
        <ele>302.0</ele>
        <time>2021-02-13T12:10:42Z</time>
      </trkpt>
      <trkpt lat="38.96985" lon="-5.807153">
        <ele>302.0</ele>
        <time>2021-02-13T12:10:43Z</time>
      </trkpt>
      <trkpt lat="38.969852" lon="-5.8071947">
        <ele>302.0</ele>
        <time>2021-02-13T12:10:44Z</time>
      </trkpt>
      <trkpt lat="38.969856" lon="-5.8072405">
        <ele>302.0</ele>
        <time>2021-02-13T12:10:45Z</time>
      </trkpt>
      <trkpt lat="38.96986" lon="-5.807288">
        <ele>302.0</ele>
        <time>2021-02-13T12:10:46Z</time>
      </trkpt>
      <trkpt lat="38.969868" lon="-5.807337">
        <ele>302.0</ele>
        <time>2021-02-13T12:10:46Z</time>
      </trkpt>
      <trkpt lat="38.96987" lon="-5.8073874">
        <ele>302.0</ele>
        <time>2021-02-13T12:10:48Z</time>
      </trkpt>
      <trkpt lat="38.96988" lon="-5.807438">
        <ele>302.0</ele>
        <time>2021-02-13T12:10:48Z</time>
      </trkpt>
      <trkpt lat="38.969883" lon="-5.8074884">
        <ele>302.0</ele>
        <time>2021-02-13T12:10:50Z</time>
      </trkpt>
      <trkpt lat="38.96989" lon="-5.807539">
        <ele>303.0</ele>
        <time>2021-02-13T12:10:51Z</time>
      </trkpt>
      <trkpt lat="38.96989" lon="-5.807592">
        <ele>303.0</ele>
        <time>2021-02-13T12:10:52Z</time>
      </trkpt>
      <trkpt lat="38.9699" lon="-5.807645">
        <ele>303.0</ele>
        <time>2021-02-13T12:10:53Z</time>
      </trkpt>
      <trkpt lat="38.969906" lon="-5.807699">
        <ele>303.0</ele>
        <time>2021-02-13T12:10:54Z</time>
      </trkpt>
      <trkpt lat="38.969913" lon="-5.8077517">
        <ele>303.0</ele>
        <time>2021-02-13T12:10:55Z</time>
      </trkpt>
      <trkpt lat="38.969925" lon="-5.807809">
        <ele>303.0</ele>
        <time>2021-02-13T12:10:56Z</time>
      </trkpt>
      <trkpt lat="38.96994" lon="-5.807864">
        <ele>303.0</ele>
        <time>2021-02-13T12:10:57Z</time>
      </trkpt>
      <trkpt lat="38.96996" lon="-5.8079205">
        <ele>303.0</ele>
        <time>2021-02-13T12:10:57Z</time>
      </trkpt>
      <trkpt lat="38.969975" lon="-5.8079815">
        <ele>303.0</ele>
        <time>2021-02-13T12:10:59Z</time>
      </trkpt>
      <trkpt lat="38.96999" lon="-5.8080435">
        <ele>303.0</ele>
        <time>2021-02-13T12:11:00Z</time>
      </trkpt>
      <trkpt lat="38.97" lon="-5.8081107">
        <ele>303.0</ele>
        <time>2021-02-13T12:11:01Z</time>
      </trkpt>
      <trkpt lat="38.97" lon="-5.8081784">
        <ele>303.0</ele>
        <time>2021-02-13T12:11:02Z</time>
      </trkpt>
      <trkpt lat="38.969994" lon="-5.8082433">
        <ele>303.0</ele>
        <time>2021-02-13T12:11:03Z</time>
      </trkpt>
      <trkpt lat="38.969982" lon="-5.808301">
        <ele>303.0</ele>
        <time>2021-02-13T12:11:04Z</time>
      </trkpt>
      <trkpt lat="38.969975" lon="-5.808359">
        <ele>303.0</ele>
        <time>2021-02-13T12:11:05Z</time>
      </trkpt>
      <trkpt lat="38.969967" lon="-5.808418">
        <ele>303.0</ele>
        <time>2021-02-13T12:11:06Z</time>
      </trkpt>
      <trkpt lat="38.96996" lon="-5.808483">
        <ele>303.0</ele>
        <time>2021-02-13T12:11:07Z</time>
      </trkpt>
      <trkpt lat="38.96996" lon="-5.808544">
        <ele>303.0</ele>
        <time>2021-02-13T12:11:08Z</time>
      </trkpt>
      <trkpt lat="38.969963" lon="-5.8086095">
        <ele>303.0</ele>
        <time>2021-02-13T12:11:08Z</time>
      </trkpt>
      <trkpt lat="38.969967" lon="-5.8086753">
        <ele>303.0</ele>
        <time>2021-02-13T12:11:10Z</time>
      </trkpt>
      <trkpt lat="38.96997" lon="-5.8087425">
        <ele>303.0</ele>
        <time>2021-02-13T12:11:11Z</time>
      </trkpt>
      <trkpt lat="38.969975" lon="-5.80881">
        <ele>303.0</ele>
        <time>2021-02-13T12:11:12Z</time>
      </trkpt>
      <trkpt lat="38.969975" lon="-5.808881">
        <ele>303.0</ele>
        <time>2021-02-13T12:11:13Z</time>
      </trkpt>
      <trkpt lat="38.96997" lon="-5.8089557">
        <ele>303.0</ele>
        <time>2021-02-13T12:11:14Z</time>
      </trkpt>
      <trkpt lat="38.969967" lon="-5.8090234">
        <ele>303.0</ele>
        <time>2021-02-13T12:11:15Z</time>
      </trkpt>
      <trkpt lat="38.96997" lon="-5.809094">
        <ele>303.0</ele>
        <time>2021-02-13T12:11:16Z</time>
      </trkpt>
      <trkpt lat="38.96997" lon="-5.809158">
        <ele>303.0</ele>
        <time>2021-02-13T12:11:17Z</time>
      </trkpt>
      <trkpt lat="38.969975" lon="-5.809223">
        <ele>303.0</ele>
        <time>2021-02-13T12:11:18Z</time>
      </trkpt>
      <trkpt lat="38.969975" lon="-5.809289">
        <ele>303.0</ele>
        <time>2021-02-13T12:11:19Z</time>
      </trkpt>
      <trkpt lat="38.96998" lon="-5.8093576">
        <ele>303.0</ele>
        <time>2021-02-13T12:11:20Z</time>
      </trkpt>
      <trkpt lat="38.96998" lon="-5.809426">
        <ele>303.0</ele>
        <time>2021-02-13T12:11:21Z</time>
      </trkpt>
      <trkpt lat="38.96998" lon="-5.8094935">
        <ele>303.0</ele>
        <time>2021-02-13T12:11:22Z</time>
      </trkpt>
      <trkpt lat="38.96998" lon="-5.8095636">
        <ele>303.0</ele>
        <time>2021-02-13T12:11:23Z</time>
      </trkpt>
      <trkpt lat="38.96998" lon="-5.8096333">
        <ele>303.0</ele>
        <time>2021-02-13T12:11:24Z</time>
      </trkpt>
      <trkpt lat="38.969982" lon="-5.809703">
        <ele>303.0</ele>
        <time>2021-02-13T12:11:25Z</time>
      </trkpt>
      <trkpt lat="38.969986" lon="-5.8097715">
        <ele>302.0</ele>
        <time>2021-02-13T12:11:25Z</time>
      </trkpt>
      <trkpt lat="38.97" lon="-5.8098383">
        <ele>302.0</ele>
        <time>2021-02-13T12:11:27Z</time>
      </trkpt>
      <trkpt lat="38.97002" lon="-5.8099027">
        <ele>302.0</ele>
        <time>2021-02-13T12:11:28Z</time>
      </trkpt>
      <trkpt lat="38.970047" lon="-5.809968">
        <ele>302.0</ele>
        <time>2021-02-13T12:11:29Z</time>
      </trkpt>
      <trkpt lat="38.970074" lon="-5.8100357">
        <ele>302.0</ele>
        <time>2021-02-13T12:11:30Z</time>
      </trkpt>
      <trkpt lat="38.970097" lon="-5.8101068">
        <ele>301.0</ele>
        <time>2021-02-13T12:11:31Z</time>
      </trkpt>
      <trkpt lat="38.970116" lon="-5.810181">
        <ele>301.0</ele>
        <time>2021-02-13T12:11:31Z</time>
      </trkpt>
      <trkpt lat="38.970123" lon="-5.810256">
        <ele>301.0</ele>
        <time>2021-02-13T12:11:33Z</time>
      </trkpt>
      <trkpt lat="38.97012" lon="-5.8103304">
        <ele>301.0</ele>
        <time>2021-02-13T12:11:34Z</time>
      </trkpt>
      <trkpt lat="38.9701" lon="-5.810404">
        <ele>301.0</ele>
        <time>2021-02-13T12:11:35Z</time>
      </trkpt>
      <trkpt lat="38.970066" lon="-5.8104696">
        <ele>301.0</ele>
        <time>2021-02-13T12:11:36Z</time>
      </trkpt>
      <trkpt lat="38.970024" lon="-5.8105173">
        <ele>301.0</ele>
        <time>2021-02-13T12:11:37Z</time>
      </trkpt>
      <trkpt lat="38.969975" lon="-5.8105464">
        <ele>301.0</ele>
        <time>2021-02-13T12:11:38Z</time>
      </trkpt>
      <trkpt lat="38.969913" lon="-5.810558">
        <ele>301.0</ele>
        <time>2021-02-13T12:11:39Z</time>
      </trkpt>
      <trkpt lat="38.969856" lon="-5.8105593">
        <ele>301.0</ele>
        <time>2021-02-13T12:11:40Z</time>
      </trkpt>
      <trkpt lat="38.969795" lon="-5.810558">
        <ele>301.0</ele>
        <time>2021-02-13T12:11:41Z</time>
      </trkpt>
      <trkpt lat="38.969734" lon="-5.810557">
        <ele>301.0</ele>
        <time>2021-02-13T12:11:42Z</time>
      </trkpt>
      <trkpt lat="38.969677" lon="-5.810559">
        <ele>301.0</ele>
        <time>2021-02-13T12:11:43Z</time>
      </trkpt>
      <trkpt lat="38.969624" lon="-5.8105683">
        <ele>301.0</ele>
        <time>2021-02-13T12:11:44Z</time>
      </trkpt>
      <trkpt lat="38.969574" lon="-5.8105874">
        <ele>301.0</ele>
        <time>2021-02-13T12:11:45Z</time>
      </trkpt>
      <trkpt lat="38.96953" lon="-5.810621">
        <ele>301.0</ele>
        <time>2021-02-13T12:11:45Z</time>
      </trkpt>
      <trkpt lat="38.969486" lon="-5.8106585">
        <ele>301.0</ele>
        <time>2021-02-13T12:11:47Z</time>
      </trkpt>
      <trkpt lat="38.969448" lon="-5.810703">
        <ele>301.0</ele>
        <time>2021-02-13T12:11:48Z</time>
      </trkpt>
      <trkpt lat="38.969406" lon="-5.810755">
        <ele>301.0</ele>
        <time>2021-02-13T12:11:49Z</time>
      </trkpt>
      <trkpt lat="38.969368" lon="-5.8108096">
        <ele>301.0</ele>
        <time>2021-02-13T12:11:50Z</time>
      </trkpt>
      <trkpt lat="38.969337" lon="-5.810868">
        <ele>301.0</ele>
        <time>2021-02-13T12:11:51Z</time>
      </trkpt>
      <trkpt lat="38.969307" lon="-5.810926">
        <ele>301.0</ele>
        <time>2021-02-13T12:11:52Z</time>
      </trkpt>
      <trkpt lat="38.96928" lon="-5.810986">
        <ele>301.0</ele>
        <time>2021-02-13T12:11:52Z</time>
      </trkpt>
      <trkpt lat="38.969254" lon="-5.811049">
        <ele>301.0</ele>
        <time>2021-02-13T12:11:54Z</time>
      </trkpt>
      <trkpt lat="38.969223" lon="-5.811113">
        <ele>301.0</ele>
        <time>2021-02-13T12:11:55Z</time>
      </trkpt>
      <trkpt lat="38.969196" lon="-5.8111796">
        <ele>301.0</ele>
        <time>2021-02-13T12:11:56Z</time>
      </trkpt>
      <trkpt lat="38.969162" lon="-5.811248">
        <ele>301.0</ele>
        <time>2021-02-13T12:11:57Z</time>
      </trkpt>
      <trkpt lat="38.96913" lon="-5.811315">
        <ele>301.0</ele>
        <time>2021-02-13T12:11:58Z</time>
      </trkpt>
      <trkpt lat="38.969097" lon="-5.811382">
        <ele>301.0</ele>
        <time>2021-02-13T12:11:59Z</time>
      </trkpt>
      <trkpt lat="38.969067" lon="-5.811448">
        <ele>301.0</ele>
        <time>2021-02-13T12:12:00Z</time>
      </trkpt>
      <trkpt lat="38.969032" lon="-5.8115144">
        <ele>301.0</ele>
        <time>2021-02-13T12:12:01Z</time>
      </trkpt>
      <trkpt lat="38.968994" lon="-5.8115783">
        <ele>300.0</ele>
        <time>2021-02-13T12:12:02Z</time>
      </trkpt>
      <trkpt lat="38.968956" lon="-5.8116417">
        <ele>300.0</ele>
        <time>2021-02-13T12:12:03Z</time>
      </trkpt>
      <trkpt lat="38.968914" lon="-5.8117023">
        <ele>300.0</ele>
        <time>2021-02-13T12:12:04Z</time>
      </trkpt>
      <trkpt lat="38.968872" lon="-5.8117604">
        <ele>300.0</ele>
        <time>2021-02-13T12:12:05Z</time>
      </trkpt>
      <trkpt lat="38.96883" lon="-5.811818">
        <ele>300.0</ele>
        <time>2021-02-13T12:12:06Z</time>
      </trkpt>
      <trkpt lat="38.968792" lon="-5.8118796">
        <ele>300.0</ele>
        <time>2021-02-13T12:12:07Z</time>
      </trkpt>
      <trkpt lat="38.968754" lon="-5.811935">
        <ele>300.0</ele>
        <time>2021-02-13T12:12:07Z</time>
      </trkpt>
      <trkpt lat="38.96871" lon="-5.8119893">
        <ele>301.0</ele>
        <time>2021-02-13T12:12:09Z</time>
      </trkpt>
      <trkpt lat="38.96867" lon="-5.8120427">
        <ele>301.0</ele>
        <time>2021-02-13T12:12:10Z</time>
      </trkpt>
      <trkpt lat="38.968628" lon="-5.8120947">
        <ele>301.0</ele>
        <time>2021-02-13T12:12:11Z</time>
      </trkpt>
      <trkpt lat="38.968582" lon="-5.8121476">
        <ele>300.0</ele>
        <time>2021-02-13T12:12:12Z</time>
      </trkpt>
      <trkpt lat="38.968544" lon="-5.812201">
        <ele>300.0</ele>
        <time>2021-02-13T12:12:13Z</time>
      </trkpt>
      <trkpt lat="38.9685" lon="-5.8122554">
        <ele>300.0</ele>
        <time>2021-02-13T12:12:14Z</time>
      </trkpt>
      <trkpt lat="38.968456" lon="-5.812313">
        <ele>299.0</ele>
        <time>2021-02-13T12:12:15Z</time>
      </trkpt>
      <trkpt lat="38.968414" lon="-5.8123717">
        <ele>299.0</ele>
        <time>2021-02-13T12:12:16Z</time>
      </trkpt>
      <trkpt lat="38.968372" lon="-5.812433">
        <ele>298.0</ele>
        <time>2021-02-13T12:12:17Z</time>
      </trkpt>
      <trkpt lat="38.968334" lon="-5.8124948">
        <ele>298.0</ele>
        <time>2021-02-13T12:12:18Z</time>
      </trkpt>
      <trkpt lat="38.968296" lon="-5.8125615">
        <ele>297.0</ele>
        <time>2021-02-13T12:12:19Z</time>
      </trkpt>
      <trkpt lat="38.968258" lon="-5.812628">
        <ele>297.0</ele>
        <time>2021-02-13T12:12:20Z</time>
      </trkpt>
      <trkpt lat="38.968216" lon="-5.812702">
        <ele>296.0</ele>
        <time>2021-02-13T12:12:20Z</time>
      </trkpt>
      <trkpt lat="38.96818" lon="-5.812777">
        <ele>296.0</ele>
        <time>2021-02-13T12:12:22Z</time>
      </trkpt>
      <trkpt lat="38.968147" lon="-5.812854">
        <ele>296.0</ele>
        <time>2021-02-13T12:12:23Z</time>
      </trkpt>
      <trkpt lat="38.96811" lon="-5.812934">
        <ele>296.0</ele>
        <time>2021-02-13T12:12:24Z</time>
      </trkpt>
      <trkpt lat="38.968075" lon="-5.813015">
        <ele>296.0</ele>
        <time>2021-02-13T12:12:24Z</time>
      </trkpt>
      <trkpt lat="38.96804" lon="-5.8130965">
        <ele>295.0</ele>
        <time>2021-02-13T12:12:26Z</time>
      </trkpt>
      <trkpt lat="38.96801" lon="-5.813174">
        <ele>295.0</ele>
        <time>2021-02-13T12:12:27Z</time>
      </trkpt>
      <trkpt lat="38.967976" lon="-5.813261">
        <ele>294.0</ele>
        <time>2021-02-13T12:12:28Z</time>
      </trkpt>
      <trkpt lat="38.967945" lon="-5.8133426">
        <ele>294.0</ele>
        <time>2021-02-13T12:12:29Z</time>
      </trkpt>
      <trkpt lat="38.96791" lon="-5.813432">
        <ele>293.0</ele>
        <time>2021-02-13T12:12:30Z</time>
      </trkpt>
      <trkpt lat="38.967876" lon="-5.81352">
        <ele>293.0</ele>
        <time>2021-02-13T12:12:31Z</time>
      </trkpt>
      <trkpt lat="38.967842" lon="-5.8136024">
        <ele>293.0</ele>
        <time>2021-02-13T12:12:32Z</time>
      </trkpt>
      <trkpt lat="38.967808" lon="-5.8136845">
        <ele>292.0</ele>
        <time>2021-02-13T12:12:33Z</time>
      </trkpt>
      <trkpt lat="38.967773" lon="-5.813768">
        <ele>292.0</ele>
        <time>2021-02-13T12:12:34Z</time>
      </trkpt>
      <trkpt lat="38.967735" lon="-5.8138514">
        <ele>292.0</ele>
        <time>2021-02-13T12:12:35Z</time>
      </trkpt>
      <trkpt lat="38.967697" lon="-5.8139353">
        <ele>291.0</ele>
        <time>2021-02-13T12:12:36Z</time>
      </trkpt>
      <trkpt lat="38.967655" lon="-5.814018">
        <ele>291.0</ele>
        <time>2021-02-13T12:12:36Z</time>
      </trkpt>
      <trkpt lat="38.96761" lon="-5.814101">
        <ele>291.0</ele>
        <time>2021-02-13T12:12:38Z</time>
      </trkpt>
      <trkpt lat="38.967564" lon="-5.8141823">
        <ele>290.0</ele>
        <time>2021-02-13T12:12:39Z</time>
      </trkpt>
      <trkpt lat="38.967514" lon="-5.8142624">
        <ele>290.0</ele>
        <time>2021-02-13T12:12:40Z</time>
      </trkpt>
      <trkpt lat="38.96746" lon="-5.814341">
        <ele>290.0</ele>
        <time>2021-02-13T12:12:41Z</time>
      </trkpt>
      <trkpt lat="38.967407" lon="-5.814419">
        <ele>290.0</ele>
        <time>2021-02-13T12:12:42Z</time>
      </trkpt>
      <trkpt lat="38.96735" lon="-5.8144965">
        <ele>289.0</ele>
        <time>2021-02-13T12:12:43Z</time>
      </trkpt>
      <trkpt lat="38.967293" lon="-5.8145747">
        <ele>289.0</ele>
        <time>2021-02-13T12:12:43Z</time>
      </trkpt>
      <trkpt lat="38.96723" lon="-5.814653">
        <ele>288.0</ele>
        <time>2021-02-13T12:12:44Z</time>
      </trkpt>
      <trkpt lat="38.967175" lon="-5.8147306">
        <ele>288.0</ele>
        <time>2021-02-13T12:12:46Z</time>
      </trkpt>
      <trkpt lat="38.96711" lon="-5.8148146">
        <ele>288.0</ele>
        <time>2021-02-13T12:12:46Z</time>
      </trkpt>
      <trkpt lat="38.96705" lon="-5.8148913">
        <ele>287.0</ele>
        <time>2021-02-13T12:12:48Z</time>
      </trkpt>
      <trkpt lat="38.966988" lon="-5.814969">
        <ele>287.0</ele>
        <time>2021-02-13T12:12:49Z</time>
      </trkpt>
      <trkpt lat="38.96692" lon="-5.8150473">
        <ele>287.0</ele>
        <time>2021-02-13T12:12:50Z</time>
      </trkpt>
      <trkpt lat="38.96685" lon="-5.8151307">
        <ele>286.0</ele>
        <time>2021-02-13T12:12:50Z</time>
      </trkpt>
      <trkpt lat="38.96678" lon="-5.815214">
        <ele>286.0</ele>
        <time>2021-02-13T12:12:52Z</time>
      </trkpt>
      <trkpt lat="38.966717" lon="-5.8152986">
        <ele>286.0</ele>
        <time>2021-02-13T12:12:53Z</time>
      </trkpt>
      <trkpt lat="38.966656" lon="-5.8153777">
        <ele>285.0</ele>
        <time>2021-02-13T12:12:54Z</time>
      </trkpt>
      <trkpt lat="38.9666" lon="-5.815463">
        <ele>285.0</ele>
        <time>2021-02-13T12:12:55Z</time>
      </trkpt>
      <trkpt lat="38.966545" lon="-5.815552">
        <ele>285.0</ele>
        <time>2021-02-13T12:12:56Z</time>
      </trkpt>
      <trkpt lat="38.966496" lon="-5.815646">
        <ele>284.0</ele>
        <time>2021-02-13T12:12:57Z</time>
      </trkpt>
      <trkpt lat="38.966442" lon="-5.8157487">
        <ele>284.0</ele>
        <time>2021-02-13T12:12:58Z</time>
      </trkpt>
      <trkpt lat="38.96639" lon="-5.815847">
        <ele>284.0</ele>
        <time>2021-02-13T12:12:59Z</time>
      </trkpt>
      <trkpt lat="38.966335" lon="-5.815946">
        <ele>283.0</ele>
        <time>2021-02-13T12:13:00Z</time>
      </trkpt>
      <trkpt lat="38.966286" lon="-5.8160443">
        <ele>283.0</ele>
        <time>2021-02-13T12:13:01Z</time>
      </trkpt>
      <trkpt lat="38.96623" lon="-5.816153">
        <ele>283.0</ele>
        <time>2021-02-13T12:13:02Z</time>
      </trkpt>
      <trkpt lat="38.96618" lon="-5.8162518">
        <ele>282.0</ele>
        <time>2021-02-13T12:13:03Z</time>
      </trkpt>
      <trkpt lat="38.96613" lon="-5.81635">
        <ele>282.0</ele>
        <time>2021-02-13T12:13:03Z</time>
      </trkpt>
      <trkpt lat="38.966076" lon="-5.816451">
        <ele>282.0</ele>
        <time>2021-02-13T12:13:04Z</time>
      </trkpt>
      <trkpt lat="38.966022" lon="-5.816552">
        <ele>282.0</ele>
        <time>2021-02-13T12:13:05Z</time>
      </trkpt>
      <trkpt lat="38.96597" lon="-5.8166523">
        <ele>282.0</ele>
        <time>2021-02-13T12:13:06Z</time>
      </trkpt>
      <trkpt lat="38.96591" lon="-5.8167605">
        <ele>282.0</ele>
        <time>2021-02-13T12:13:07Z</time>
      </trkpt>
      <trkpt lat="38.965862" lon="-5.81686">
        <ele>282.0</ele>
        <time>2021-02-13T12:13:08Z</time>
      </trkpt>
      <trkpt lat="38.96581" lon="-5.8169613">
        <ele>282.0</ele>
        <time>2021-02-13T12:13:09Z</time>
      </trkpt>
      <trkpt lat="38.96576" lon="-5.8170643">
        <ele>282.0</ele>
        <time>2021-02-13T12:13:10Z</time>
      </trkpt>
      <trkpt lat="38.965702" lon="-5.817173">
        <ele>282.0</ele>
        <time>2021-02-13T12:13:11Z</time>
      </trkpt>
      <trkpt lat="38.965652" lon="-5.8172817">
        <ele>282.0</ele>
        <time>2021-02-13T12:13:12Z</time>
      </trkpt>
      <trkpt lat="38.965603" lon="-5.8173895">
        <ele>282.0</ele>
        <time>2021-02-13T12:13:13Z</time>
      </trkpt>
      <trkpt lat="38.965553" lon="-5.817489">
        <ele>281.0</ele>
        <time>2021-02-13T12:13:14Z</time>
      </trkpt>
      <trkpt lat="38.965504" lon="-5.8175893">
        <ele>281.0</ele>
        <time>2021-02-13T12:13:14Z</time>
      </trkpt>
      <trkpt lat="38.965454" lon="-5.817689">
        <ele>280.0</ele>
        <time>2021-02-13T12:13:16Z</time>
      </trkpt>
      <trkpt lat="38.96541" lon="-5.817786">
        <ele>280.0</ele>
        <time>2021-02-13T12:13:17Z</time>
      </trkpt>
      <trkpt lat="38.96536" lon="-5.817882">
        <ele>279.0</ele>
        <time>2021-02-13T12:13:18Z</time>
      </trkpt>
      <trkpt lat="38.965313" lon="-5.8179755">
        <ele>279.0</ele>
        <time>2021-02-13T12:13:19Z</time>
      </trkpt>
      <trkpt lat="38.96527" lon="-5.81807">
        <ele>279.0</ele>
        <time>2021-02-13T12:13:20Z</time>
      </trkpt>
      <trkpt lat="38.96523" lon="-5.8181634">
        <ele>279.0</ele>
        <time>2021-02-13T12:13:21Z</time>
      </trkpt>
      <trkpt lat="38.965183" lon="-5.818256">
        <ele>278.0</ele>
        <time>2021-02-13T12:13:22Z</time>
      </trkpt>
      <trkpt lat="38.96514" lon="-5.818349">
        <ele>278.0</ele>
        <time>2021-02-13T12:13:23Z</time>
      </trkpt>
      <trkpt lat="38.965096" lon="-5.8184423">
        <ele>278.0</ele>
        <time>2021-02-13T12:13:24Z</time>
      </trkpt>
      <trkpt lat="38.965054" lon="-5.818535">
        <ele>278.0</ele>
        <time>2021-02-13T12:13:25Z</time>
      </trkpt>
      <trkpt lat="38.96501" lon="-5.8186283">
        <ele>278.0</ele>
        <time>2021-02-13T12:13:26Z</time>
      </trkpt>
      <trkpt lat="38.96497" lon="-5.8187275">
        <ele>277.0</ele>
        <time>2021-02-13T12:13:26Z</time>
      </trkpt>
      <trkpt lat="38.964928" lon="-5.8188243">
        <ele>277.0</ele>
        <time>2021-02-13T12:13:28Z</time>
      </trkpt>
      <trkpt lat="38.96489" lon="-5.818914">
        <ele>277.0</ele>
        <time>2021-02-13T12:13:29Z</time>
      </trkpt>
      <trkpt lat="38.964855" lon="-5.8190036">
        <ele>277.0</ele>
        <time>2021-02-13T12:13:30Z</time>
      </trkpt>
      <trkpt lat="38.964817" lon="-5.8190956">
        <ele>277.0</ele>
        <time>2021-02-13T12:13:31Z</time>
      </trkpt>
      <trkpt lat="38.964783" lon="-5.8191886">
        <ele>277.0</ele>
        <time>2021-02-13T12:13:32Z</time>
      </trkpt>
      <trkpt lat="38.964745" lon="-5.819288">
        <ele>276.0</ele>
        <time>2021-02-13T12:13:33Z</time>
      </trkpt>
      <trkpt lat="38.964706" lon="-5.819386">
        <ele>276.0</ele>
        <time>2021-02-13T12:13:34Z</time>
      </trkpt>
      <trkpt lat="38.96467" lon="-5.8194757">
        <ele>276.0</ele>
        <time>2021-02-13T12:13:35Z</time>
      </trkpt>
      <trkpt lat="38.964634" lon="-5.8195686">
        <ele>276.0</ele>
        <time>2021-02-13T12:13:36Z</time>
      </trkpt>
      <trkpt lat="38.9646" lon="-5.8196607">
        <ele>276.0</ele>
        <time>2021-02-13T12:13:37Z</time>
      </trkpt>
      <trkpt lat="38.964554" lon="-5.819761">
        <ele>276.0</ele>
        <time>2021-02-13T12:13:38Z</time>
      </trkpt>
      <trkpt lat="38.964516" lon="-5.8198495">
        <ele>276.0</ele>
        <time>2021-02-13T12:13:39Z</time>
      </trkpt>
      <trkpt lat="38.964474" lon="-5.8199387">
        <ele>276.0</ele>
        <time>2021-02-13T12:13:40Z</time>
      </trkpt>
      <trkpt lat="38.96443" lon="-5.820027">
        <ele>276.0</ele>
        <time>2021-02-13T12:13:41Z</time>
      </trkpt>
      <trkpt lat="38.96439" lon="-5.820113">
        <ele>275.0</ele>
        <time>2021-02-13T12:13:41Z</time>
      </trkpt>
      <trkpt lat="38.964344" lon="-5.820201">
        <ele>275.0</ele>
        <time>2021-02-13T12:13:43Z</time>
      </trkpt>
      <trkpt lat="38.9643" lon="-5.820288">
        <ele>275.0</ele>
        <time>2021-02-13T12:13:44Z</time>
      </trkpt>
      <trkpt lat="38.964256" lon="-5.8203735">
        <ele>274.0</ele>
        <time>2021-02-13T12:13:45Z</time>
      </trkpt>
      <trkpt lat="38.96421" lon="-5.8204575">
        <ele>274.0</ele>
        <time>2021-02-13T12:13:46Z</time>
      </trkpt>
      <trkpt lat="38.96417" lon="-5.820541">
        <ele>274.0</ele>
        <time>2021-02-13T12:13:47Z</time>
      </trkpt>
      <trkpt lat="38.964127" lon="-5.8206234">
        <ele>274.0</ele>
        <time>2021-02-13T12:13:47Z</time>
      </trkpt>
      <trkpt lat="38.964085" lon="-5.8207045">
        <ele>274.0</ele>
        <time>2021-02-13T12:13:48Z</time>
      </trkpt>
      <trkpt lat="38.96404" lon="-5.820785">
        <ele>274.0</ele>
        <time>2021-02-13T12:13:50Z</time>
      </trkpt>
      <trkpt lat="38.963997" lon="-5.820866">
        <ele>274.0</ele>
        <time>2021-02-13T12:13:51Z</time>
      </trkpt>
      <trkpt lat="38.963955" lon="-5.8209457">
        <ele>274.0</ele>
        <time>2021-02-13T12:13:52Z</time>
      </trkpt>
      <trkpt lat="38.963913" lon="-5.8210254">
        <ele>273.0</ele>
        <time>2021-02-13T12:13:53Z</time>
      </trkpt>
      <trkpt lat="38.963867" lon="-5.82111">
        <ele>273.0</ele>
        <time>2021-02-13T12:13:53Z</time>
      </trkpt>
      <trkpt lat="38.96383" lon="-5.821187">
        <ele>273.0</ele>
        <time>2021-02-13T12:13:55Z</time>
      </trkpt>
      <trkpt lat="38.963787" lon="-5.821265">
        <ele>273.0</ele>
        <time>2021-02-13T12:13:56Z</time>
      </trkpt>
      <trkpt lat="38.96375" lon="-5.821345">
        <ele>273.0</ele>
        <time>2021-02-13T12:13:56Z</time>
      </trkpt>
      <trkpt lat="38.96371" lon="-5.8214245">
        <ele>273.0</ele>
        <time>2021-02-13T12:13:58Z</time>
      </trkpt>
      <trkpt lat="38.963673" lon="-5.821504">
        <ele>273.0</ele>
        <time>2021-02-13T12:13:59Z</time>
      </trkpt>
      <trkpt lat="38.96364" lon="-5.8215833">
        <ele>273.0</ele>
        <time>2021-02-13T12:14:00Z</time>
      </trkpt>
      <trkpt lat="38.9636" lon="-5.8216634">
        <ele>273.0</ele>
        <time>2021-02-13T12:14:01Z</time>
      </trkpt>
      <trkpt lat="38.963566" lon="-5.8217435">
        <ele>273.0</ele>
        <time>2021-02-13T12:14:02Z</time>
      </trkpt>
      <trkpt lat="38.96353" lon="-5.8218236">
        <ele>273.0</ele>
        <time>2021-02-13T12:14:03Z</time>
      </trkpt>
      <trkpt lat="38.963493" lon="-5.8219104">
        <ele>273.0</ele>
        <time>2021-02-13T12:14:04Z</time>
      </trkpt>
      <trkpt lat="38.963463" lon="-5.821989">
        <ele>273.0</ele>
        <time>2021-02-13T12:14:05Z</time>
      </trkpt>
      <trkpt lat="38.963425" lon="-5.8220706">
        <ele>273.0</ele>
        <time>2021-02-13T12:14:06Z</time>
      </trkpt>
      <trkpt lat="38.96339" lon="-5.822152">
        <ele>272.0</ele>
        <time>2021-02-13T12:14:07Z</time>
      </trkpt>
      <trkpt lat="38.963356" lon="-5.822235">
        <ele>272.0</ele>
        <time>2021-02-13T12:14:08Z</time>
      </trkpt>
      <trkpt lat="38.96332" lon="-5.8223195">
        <ele>272.0</ele>
        <time>2021-02-13T12:14:09Z</time>
      </trkpt>
      <trkpt lat="38.963287" lon="-5.8224025">
        <ele>272.0</ele>
        <time>2021-02-13T12:14:09Z</time>
      </trkpt>
      <trkpt lat="38.963253" lon="-5.822485">
        <ele>272.0</ele>
        <time>2021-02-13T12:14:11Z</time>
      </trkpt>
      <trkpt lat="38.963215" lon="-5.822565">
        <ele>272.0</ele>
        <time>2021-02-13T12:14:12Z</time>
      </trkpt>
      <trkpt lat="38.963184" lon="-5.822642">
        <ele>272.0</ele>
        <time>2021-02-13T12:14:13Z</time>
      </trkpt>
      <trkpt lat="38.963154" lon="-5.822716">
        <ele>271.0</ele>
        <time>2021-02-13T12:14:13Z</time>
      </trkpt>
      <trkpt lat="38.96312" lon="-5.822789">
        <ele>271.0</ele>
        <time>2021-02-13T12:14:14Z</time>
      </trkpt>
      <trkpt lat="38.963093" lon="-5.8228645">
        <ele>271.0</ele>
        <time>2021-02-13T12:14:16Z</time>
      </trkpt>
      <trkpt lat="38.96306" lon="-5.822941">
        <ele>271.0</ele>
        <time>2021-02-13T12:14:17Z</time>
      </trkpt>
      <trkpt lat="38.963024" lon="-5.823018">
        <ele>270.0</ele>
        <time>2021-02-13T12:14:18Z</time>
      </trkpt>
      <trkpt lat="38.962994" lon="-5.823096">
        <ele>270.0</ele>
        <time>2021-02-13T12:14:19Z</time>
      </trkpt>
      <trkpt lat="38.962955" lon="-5.8231726">
        <ele>270.0</ele>
        <time>2021-02-13T12:14:20Z</time>
      </trkpt>
      <trkpt lat="38.962925" lon="-5.823251">
        <ele>270.0</ele>
        <time>2021-02-13T12:14:21Z</time>
      </trkpt>
      <trkpt lat="38.962887" lon="-5.823328">
        <ele>270.0</ele>
        <time>2021-02-13T12:14:22Z</time>
      </trkpt>
      <trkpt lat="38.962852" lon="-5.8234053">
        <ele>270.0</ele>
        <time>2021-02-13T12:14:23Z</time>
      </trkpt>
      <trkpt lat="38.962814" lon="-5.823486">
        <ele>270.0</ele>
        <time>2021-02-13T12:14:24Z</time>
      </trkpt>
      <trkpt lat="38.96278" lon="-5.823566">
        <ele>269.0</ele>
        <time>2021-02-13T12:14:25Z</time>
      </trkpt>
      <trkpt lat="38.962746" lon="-5.823646">
        <ele>269.0</ele>
        <time>2021-02-13T12:14:26Z</time>
      </trkpt>
      <trkpt lat="38.962708" lon="-5.8237267">
        <ele>269.0</ele>
        <time>2021-02-13T12:14:27Z</time>
      </trkpt>
      <trkpt lat="38.962677" lon="-5.823807">
        <ele>269.0</ele>
        <time>2021-02-13T12:14:27Z</time>
      </trkpt>
      <trkpt lat="38.962643" lon="-5.8238854">
        <ele>269.0</ele>
        <time>2021-02-13T12:14:28Z</time>
      </trkpt>
      <trkpt lat="38.962612" lon="-5.823964">
        <ele>269.0</ele>
        <time>2021-02-13T12:14:30Z</time>
      </trkpt>
      <trkpt lat="38.96258" lon="-5.8240423">
        <ele>269.0</ele>
        <time>2021-02-13T12:14:31Z</time>
      </trkpt>
      <trkpt lat="38.962547" lon="-5.8241196">
        <ele>269.0</ele>
        <time>2021-02-13T12:14:32Z</time>
      </trkpt>
      <trkpt lat="38.962517" lon="-5.8241963">
        <ele>269.0</ele>
        <time>2021-02-13T12:14:33Z</time>
      </trkpt>
      <trkpt lat="38.962482" lon="-5.8242707">
        <ele>269.0</ele>
        <time>2021-02-13T12:14:33Z</time>
      </trkpt>
      <trkpt lat="38.96245" lon="-5.824343">
        <ele>269.0</ele>
        <time>2021-02-13T12:14:35Z</time>
      </trkpt>
      <trkpt lat="38.96241" lon="-5.8244147">
        <ele>269.0</ele>
        <time>2021-02-13T12:14:36Z</time>
      </trkpt>
      <trkpt lat="38.962376" lon="-5.8244863">
        <ele>269.0</ele>
        <time>2021-02-13T12:14:37Z</time>
      </trkpt>
      <trkpt lat="38.96234" lon="-5.8245583">
        <ele>269.0</ele>
        <time>2021-02-13T12:14:38Z</time>
      </trkpt>
      <trkpt lat="38.962307" lon="-5.8246303">
        <ele>269.0</ele>
        <time>2021-02-13T12:14:39Z</time>
      </trkpt>
      <trkpt lat="38.962276" lon="-5.824704">
        <ele>269.0</ele>
        <time>2021-02-13T12:14:40Z</time>
      </trkpt>
      <trkpt lat="38.962242" lon="-5.824778">
        <ele>269.0</ele>
        <time>2021-02-13T12:14:41Z</time>
      </trkpt>
      <trkpt lat="38.962208" lon="-5.8248568">
        <ele>269.0</ele>
        <time>2021-02-13T12:14:42Z</time>
      </trkpt>
      <trkpt lat="38.962173" lon="-5.8249345">
        <ele>269.0</ele>
        <time>2021-02-13T12:14:43Z</time>
      </trkpt>
      <trkpt lat="38.96214" lon="-5.825006">
        <ele>269.0</ele>
        <time>2021-02-13T12:14:44Z</time>
      </trkpt>
      <trkpt lat="38.96211" lon="-5.8250785">
        <ele>269.0</ele>
        <time>2021-02-13T12:14:45Z</time>
      </trkpt>
      <trkpt lat="38.962074" lon="-5.8251514">
        <ele>269.0</ele>
        <time>2021-02-13T12:14:46Z</time>
      </trkpt>
      <trkpt lat="38.962044" lon="-5.825225">
        <ele>269.0</ele>
        <time>2021-02-13T12:14:47Z</time>
      </trkpt>
      <trkpt lat="38.96201" lon="-5.8252993">
        <ele>269.0</ele>
        <time>2021-02-13T12:14:48Z</time>
      </trkpt>
      <trkpt lat="38.961975" lon="-5.8253736">
        <ele>269.0</ele>
        <time>2021-02-13T12:14:49Z</time>
      </trkpt>
      <trkpt lat="38.96194" lon="-5.8254476">
        <ele>268.0</ele>
        <time>2021-02-13T12:14:50Z</time>
      </trkpt>
      <trkpt lat="38.961906" lon="-5.825522">
        <ele>268.0</ele>
        <time>2021-02-13T12:14:51Z</time>
      </trkpt>
      <trkpt lat="38.96187" lon="-5.8255954">
        <ele>268.0</ele>
        <time>2021-02-13T12:14:52Z</time>
      </trkpt>
      <trkpt lat="38.961834" lon="-5.8256683">
        <ele>268.0</ele>
        <time>2021-02-13T12:14:52Z</time>
      </trkpt>
      <trkpt lat="38.961796" lon="-5.825746">
        <ele>268.0</ele>
        <time>2021-02-13T12:14:54Z</time>
      </trkpt>
      <trkpt lat="38.961758" lon="-5.825822">
        <ele>268.0</ele>
        <time>2021-02-13T12:14:55Z</time>
      </trkpt>
      <trkpt lat="38.96172" lon="-5.825895">
        <ele>268.0</ele>
        <time>2021-02-13T12:14:56Z</time>
      </trkpt>
      <trkpt lat="38.961685" lon="-5.8259654">
        <ele>268.0</ele>
        <time>2021-02-13T12:14:56Z</time>
      </trkpt>
      <trkpt lat="38.96154" lon="-5.8262396">
        <ele>267.0</ele>
        <time>2021-02-13T12:14:59Z</time>
      </trkpt>
      <trkpt lat="38.961533" lon="-5.826254">
        <ele>267.0</ele>
        <time>2021-02-13T12:15:00Z</time>
      </trkpt>
      <trkpt lat="38.961517" lon="-5.8262835">
        <ele>267.0</ele>
        <time>2021-02-13T12:15:01Z</time>
      </trkpt>
      <trkpt lat="38.9615" lon="-5.826321">
        <ele>267.0</ele>
        <time>2021-02-13T12:15:01Z</time>
      </trkpt>
      <trkpt lat="38.961475" lon="-5.8263583">
        <ele>267.0</ele>
        <time>2021-02-13T12:15:03Z</time>
      </trkpt>
      <trkpt lat="38.96146" lon="-5.8263903">
        <ele>267.0</ele>
        <time>2021-02-13T12:15:04Z</time>
      </trkpt>
      <trkpt lat="38.961445" lon="-5.826418">
        <ele>267.0</ele>
        <time>2021-02-13T12:15:05Z</time>
      </trkpt>
      <trkpt lat="38.96143" lon="-5.826442">
        <ele>267.0</ele>
        <time>2021-02-13T12:15:05Z</time>
      </trkpt>
      <trkpt lat="38.96142" lon="-5.826464">
        <ele>267.0</ele>
        <time>2021-02-13T12:15:07Z</time>
      </trkpt>
      <trkpt lat="38.961407" lon="-5.8264866">
        <ele>267.0</ele>
        <time>2021-02-13T12:15:07Z</time>
      </trkpt>
      <trkpt lat="38.96139" lon="-5.826511">
        <ele>267.0</ele>
        <time>2021-02-13T12:15:09Z</time>
      </trkpt>
      <trkpt lat="38.961376" lon="-5.8265376">
        <ele>267.0</ele>
        <time>2021-02-13T12:15:09Z</time>
      </trkpt>
      <trkpt lat="38.96136" lon="-5.8265676">
        <ele>267.0</ele>
        <time>2021-02-13T12:15:11Z</time>
      </trkpt>
      <trkpt lat="38.961346" lon="-5.826603">
        <ele>267.0</ele>
        <time>2021-02-13T12:15:12Z</time>
      </trkpt>
      <trkpt lat="38.96133" lon="-5.8266406">
        <ele>267.0</ele>
        <time>2021-02-13T12:15:13Z</time>
      </trkpt>
      <trkpt lat="38.961315" lon="-5.8266783">
        <ele>267.0</ele>
        <time>2021-02-13T12:15:14Z</time>
      </trkpt>
      <trkpt lat="38.9613" lon="-5.8267193">
        <ele>267.0</ele>
        <time>2021-02-13T12:15:14Z</time>
      </trkpt>
      <trkpt lat="38.961285" lon="-5.8267617">
        <ele>267.0</ele>
        <time>2021-02-13T12:15:15Z</time>
      </trkpt>
      <trkpt lat="38.961266" lon="-5.8268104">
        <ele>267.0</ele>
        <time>2021-02-13T12:15:16Z</time>
      </trkpt>
      <trkpt lat="38.961246" lon="-5.8268614">
        <ele>267.0</ele>
        <time>2021-02-13T12:15:18Z</time>
      </trkpt>
      <trkpt lat="38.961224" lon="-5.8269167">
        <ele>267.0</ele>
        <time>2021-02-13T12:15:19Z</time>
      </trkpt>
      <trkpt lat="38.961197" lon="-5.826977">
        <ele>267.0</ele>
        <time>2021-02-13T12:15:20Z</time>
      </trkpt>
      <trkpt lat="38.961166" lon="-5.827039">
        <ele>267.0</ele>
        <time>2021-02-13T12:15:20Z</time>
      </trkpt>
      <trkpt lat="38.96114" lon="-5.827103">
        <ele>266.0</ele>
        <time>2021-02-13T12:15:22Z</time>
      </trkpt>
      <trkpt lat="38.96111" lon="-5.82717">
        <ele>266.0</ele>
        <time>2021-02-13T12:15:23Z</time>
      </trkpt>
      <trkpt lat="38.961075" lon="-5.8272395">
        <ele>266.0</ele>
        <time>2021-02-13T12:15:24Z</time>
      </trkpt>
      <trkpt lat="38.96104" lon="-5.8273106">
        <ele>266.0</ele>
        <time>2021-02-13T12:15:25Z</time>
      </trkpt>
      <trkpt lat="38.961006" lon="-5.827385">
        <ele>266.0</ele>
        <time>2021-02-13T12:15:26Z</time>
      </trkpt>
      <trkpt lat="38.960968" lon="-5.8274612">
        <ele>266.0</ele>
        <time>2021-02-13T12:15:26Z</time>
      </trkpt>
      <trkpt lat="38.960934" lon="-5.827537">
        <ele>266.0</ele>
        <time>2021-02-13T12:15:28Z</time>
      </trkpt>
      <trkpt lat="38.960896" lon="-5.827612">
        <ele>266.0</ele>
        <time>2021-02-13T12:15:29Z</time>
      </trkpt>
      <trkpt lat="38.96086" lon="-5.8276873">
        <ele>266.0</ele>
        <time>2021-02-13T12:15:29Z</time>
      </trkpt>
      <trkpt lat="38.960827" lon="-5.8277574">
        <ele>266.0</ele>
        <time>2021-02-13T12:15:30Z</time>
      </trkpt>
      <trkpt lat="38.960793" lon="-5.827829">
        <ele>266.0</ele>
        <time>2021-02-13T12:15:32Z</time>
      </trkpt>
      <trkpt lat="38.960754" lon="-5.827903">
        <ele>266.0</ele>
        <time>2021-02-13T12:15:33Z</time>
      </trkpt>
      <trkpt lat="38.960716" lon="-5.827979">
        <ele>266.0</ele>
        <time>2021-02-13T12:15:34Z</time>
      </trkpt>
      <trkpt lat="38.96068" lon="-5.8280544">
        <ele>266.0</ele>
        <time>2021-02-13T12:15:34Z</time>
      </trkpt>
      <trkpt lat="38.960636" lon="-5.8281355">
        <ele>266.0</ele>
        <time>2021-02-13T12:15:36Z</time>
      </trkpt>
      <trkpt lat="38.960594" lon="-5.828214">
        <ele>266.0</ele>
        <time>2021-02-13T12:15:36Z</time>
      </trkpt>
      <trkpt lat="38.960552" lon="-5.8282905">
        <ele>265.0</ele>
        <time>2021-02-13T12:15:38Z</time>
      </trkpt>
      <trkpt lat="38.960506" lon="-5.8283644">
        <ele>265.0</ele>
        <time>2021-02-13T12:15:39Z</time>
      </trkpt>
      <trkpt lat="38.96046" lon="-5.8284364">
        <ele>265.0</ele>
        <time>2021-02-13T12:15:40Z</time>
      </trkpt>
      <trkpt lat="38.96042" lon="-5.828507">
        <ele>264.0</ele>
        <time>2021-02-13T12:15:41Z</time>
      </trkpt>
      <trkpt lat="38.960373" lon="-5.8285766">
        <ele>264.0</ele>
        <time>2021-02-13T12:15:41Z</time>
      </trkpt>
      <trkpt lat="38.960327" lon="-5.828645">
        <ele>264.0</ele>
        <time>2021-02-13T12:15:42Z</time>
      </trkpt>
      <trkpt lat="38.960285" lon="-5.8287115">
        <ele>264.0</ele>
        <time>2021-02-13T12:15:44Z</time>
      </trkpt>
      <trkpt lat="38.96024" lon="-5.828777">
        <ele>264.0</ele>
        <time>2021-02-13T12:15:45Z</time>
      </trkpt>
      <trkpt lat="38.960194" lon="-5.8288403">
        <ele>264.0</ele>
        <time>2021-02-13T12:15:46Z</time>
      </trkpt>
      <trkpt lat="38.96015" lon="-5.8289022">
        <ele>264.0</ele>
        <time>2021-02-13T12:15:47Z</time>
      </trkpt>
      <trkpt lat="38.96011" lon="-5.8289614">
        <ele>264.0</ele>
        <time>2021-02-13T12:15:47Z</time>
      </trkpt>
      <trkpt lat="38.960068" lon="-5.829021">
        <ele>264.0</ele>
        <time>2021-02-13T12:15:49Z</time>
      </trkpt>
      <trkpt lat="38.96003" lon="-5.829082">
        <ele>264.0</ele>
        <time>2021-02-13T12:15:49Z</time>
      </trkpt>
      <trkpt lat="38.959984" lon="-5.829147">
        <ele>264.0</ele>
        <time>2021-02-13T12:15:50Z</time>
      </trkpt>
      <trkpt lat="38.95994" lon="-5.8292127">
        <ele>264.0</ele>
        <time>2021-02-13T12:15:51Z</time>
      </trkpt>
      <trkpt lat="38.959904" lon="-5.829279">
        <ele>264.0</ele>
        <time>2021-02-13T12:15:53Z</time>
      </trkpt>
      <trkpt lat="38.959866" lon="-5.8293447">
        <ele>264.0</ele>
        <time>2021-02-13T12:15:54Z</time>
      </trkpt>
      <trkpt lat="38.959827" lon="-5.8294125">
        <ele>264.0</ele>
        <time>2021-02-13T12:15:55Z</time>
      </trkpt>
      <trkpt lat="38.95979" lon="-5.8294797">
        <ele>264.0</ele>
        <time>2021-02-13T12:15:55Z</time>
      </trkpt>
      <trkpt lat="38.95976" lon="-5.8295445">
        <ele>264.0</ele>
        <time>2021-02-13T12:15:57Z</time>
      </trkpt>
      <trkpt lat="38.95973" lon="-5.8296127">
        <ele>264.0</ele>
        <time>2021-02-13T12:15:57Z</time>
      </trkpt>
      <trkpt lat="38.959694" lon="-5.829687">
        <ele>264.0</ele>
        <time>2021-02-13T12:15:59Z</time>
      </trkpt>
      <trkpt lat="38.959663" lon="-5.8297615">
        <ele>264.0</ele>
        <time>2021-02-13T12:15:59Z</time>
      </trkpt>
      <trkpt lat="38.959633" lon="-5.829837">
        <ele>264.0</ele>
        <time>2021-02-13T12:16:01Z</time>
      </trkpt>
      <trkpt lat="38.959606" lon="-5.829915">
        <ele>264.0</ele>
        <time>2021-02-13T12:16:01Z</time>
      </trkpt>
      <trkpt lat="38.959576" lon="-5.829994">
        <ele>264.0</ele>
        <time>2021-02-13T12:16:03Z</time>
      </trkpt>
      <trkpt lat="38.959545" lon="-5.830074">
        <ele>264.0</ele>
        <time>2021-02-13T12:16:03Z</time>
      </trkpt>
      <trkpt lat="38.959515" lon="-5.8301535">
        <ele>264.0</ele>
        <time>2021-02-13T12:16:05Z</time>
      </trkpt>
      <trkpt lat="38.959484" lon="-5.830234">
        <ele>264.0</ele>
        <time>2021-02-13T12:16:05Z</time>
      </trkpt>
      <trkpt lat="38.959457" lon="-5.830316">
        <ele>264.0</ele>
        <time>2021-02-13T12:16:07Z</time>
      </trkpt>
      <trkpt lat="38.959427" lon="-5.8303986">
        <ele>264.0</ele>
        <time>2021-02-13T12:16:07Z</time>
      </trkpt>
      <trkpt lat="38.959396" lon="-5.830481">
        <ele>263.0</ele>
        <time>2021-02-13T12:16:09Z</time>
      </trkpt>
      <trkpt lat="38.959366" lon="-5.830565">
        <ele>263.0</ele>
        <time>2021-02-13T12:16:10Z</time>
      </trkpt>
      <trkpt lat="38.959335" lon="-5.8306484">
        <ele>263.0</ele>
        <time>2021-02-13T12:16:10Z</time>
      </trkpt>
      <trkpt lat="38.959305" lon="-5.830731">
        <ele>263.0</ele>
        <time>2021-02-13T12:16:12Z</time>
      </trkpt>
      <trkpt lat="38.959274" lon="-5.8308134">
        <ele>263.0</ele>
        <time>2021-02-13T12:16:12Z</time>
      </trkpt>
      <trkpt lat="38.959248" lon="-5.830894">
        <ele>262.0</ele>
        <time>2021-02-13T12:16:14Z</time>
      </trkpt>
      <trkpt lat="38.95922" lon="-5.830974">
        <ele>262.0</ele>
        <time>2021-02-13T12:16:15Z</time>
      </trkpt>
      <trkpt lat="38.959194" lon="-5.8310513">
        <ele>262.0</ele>
        <time>2021-02-13T12:16:15Z</time>
      </trkpt>
      <trkpt lat="38.959167" lon="-5.8311296">
        <ele>262.0</ele>
        <time>2021-02-13T12:16:16Z</time>
      </trkpt>
      <trkpt lat="38.95914" lon="-5.8312063">
        <ele>262.0</ele>
        <time>2021-02-13T12:16:17Z</time>
      </trkpt>
      <trkpt lat="38.959118" lon="-5.831283">
        <ele>262.0</ele>
        <time>2021-02-13T12:16:19Z</time>
      </trkpt>
      <trkpt lat="38.959095" lon="-5.831354">
        <ele>261.0</ele>
        <time>2021-02-13T12:16:20Z</time>
      </trkpt>
      <trkpt lat="38.95907" lon="-5.831426">
        <ele>261.0</ele>
        <time>2021-02-13T12:16:21Z</time>
      </trkpt>
      <trkpt lat="38.959045" lon="-5.831499">
        <ele>261.0</ele>
        <time>2021-02-13T12:16:22Z</time>
      </trkpt>
      <trkpt lat="38.95902" lon="-5.831572">
        <ele>261.0</ele>
        <time>2021-02-13T12:16:23Z</time>
      </trkpt>
      <trkpt lat="38.958992" lon="-5.831645">
        <ele>261.0</ele>
        <time>2021-02-13T12:16:23Z</time>
      </trkpt>
      <trkpt lat="38.958965" lon="-5.831718">
        <ele>261.0</ele>
        <time>2021-02-13T12:16:25Z</time>
      </trkpt>
      <trkpt lat="38.95894" lon="-5.8317914">
        <ele>261.0</ele>
        <time>2021-02-13T12:16:26Z</time>
      </trkpt>
      <trkpt lat="38.958916" lon="-5.8318706">
        <ele>261.0</ele>
        <time>2021-02-13T12:16:27Z</time>
      </trkpt>
      <trkpt lat="38.95889" lon="-5.831949">
        <ele>261.0</ele>
        <time>2021-02-13T12:16:28Z</time>
      </trkpt>
      <trkpt lat="38.958862" lon="-5.832023">
        <ele>261.0</ele>
        <time>2021-02-13T12:16:29Z</time>
      </trkpt>
      <trkpt lat="38.95884" lon="-5.832098">
        <ele>261.0</ele>
        <time>2021-02-13T12:16:30Z</time>
      </trkpt>
      <trkpt lat="38.958817" lon="-5.832179">
        <ele>261.0</ele>
        <time>2021-02-13T12:16:31Z</time>
      </trkpt>
      <trkpt lat="38.95879" lon="-5.8322535">
        <ele>261.0</ele>
        <time>2021-02-13T12:16:32Z</time>
      </trkpt>
      <trkpt lat="38.958763" lon="-5.8323283">
        <ele>261.0</ele>
        <time>2021-02-13T12:16:32Z</time>
      </trkpt>
      <trkpt lat="38.958736" lon="-5.8324037">
        <ele>261.0</ele>
        <time>2021-02-13T12:16:33Z</time>
      </trkpt>
      <trkpt lat="38.958714" lon="-5.83248">
        <ele>261.0</ele>
        <time>2021-02-13T12:16:34Z</time>
      </trkpt>
      <trkpt lat="38.95869" lon="-5.8325596">
        <ele>261.0</ele>
        <time>2021-02-13T12:16:36Z</time>
      </trkpt>
      <trkpt lat="38.958668" lon="-5.8326383">
        <ele>261.0</ele>
        <time>2021-02-13T12:16:37Z</time>
      </trkpt>
      <trkpt lat="38.958645" lon="-5.832716">
        <ele>260.0</ele>
        <time>2021-02-13T12:16:37Z</time>
      </trkpt>
      <trkpt lat="38.958626" lon="-5.8327928">
        <ele>260.0</ele>
        <time>2021-02-13T12:16:39Z</time>
      </trkpt>
      <trkpt lat="38.958603" lon="-5.8328648">
        <ele>260.0</ele>
        <time>2021-02-13T12:16:40Z</time>
      </trkpt>
      <trkpt lat="38.958584" lon="-5.8329363">
        <ele>260.0</ele>
        <time>2021-02-13T12:16:41Z</time>
      </trkpt>
      <trkpt lat="38.95856" lon="-5.8330092">
        <ele>260.0</ele>
        <time>2021-02-13T12:16:42Z</time>
      </trkpt>
      <trkpt lat="38.958538" lon="-5.8330827">
        <ele>260.0</ele>
        <time>2021-02-13T12:16:42Z</time>
      </trkpt>
      <trkpt lat="38.958515" lon="-5.8331556">
        <ele>260.0</ele>
        <time>2021-02-13T12:16:44Z</time>
      </trkpt>
      <trkpt lat="38.958492" lon="-5.8332295">
        <ele>260.0</ele>
        <time>2021-02-13T12:16:45Z</time>
      </trkpt>
      <trkpt lat="38.95847" lon="-5.8333035">
        <ele>260.0</ele>
        <time>2021-02-13T12:16:45Z</time>
      </trkpt>
      <trkpt lat="38.958443" lon="-5.833379">
        <ele>260.0</ele>
        <time>2021-02-13T12:16:47Z</time>
      </trkpt>
      <trkpt lat="38.95842" lon="-5.8334527">
        <ele>260.0</ele>
        <time>2021-02-13T12:16:48Z</time>
      </trkpt>
      <trkpt lat="38.958393" lon="-5.833527">
        <ele>260.0</ele>
        <time>2021-02-13T12:16:49Z</time>
      </trkpt>
      <trkpt lat="38.95837" lon="-5.833606">
        <ele>260.0</ele>
        <time>2021-02-13T12:16:49Z</time>
      </trkpt>
      <trkpt lat="38.958347" lon="-5.833682">
        <ele>260.0</ele>
        <time>2021-02-13T12:16:51Z</time>
      </trkpt>
      <trkpt lat="38.95832" lon="-5.8337555">
        <ele>260.0</ele>
        <time>2021-02-13T12:16:52Z</time>
      </trkpt>
      <trkpt lat="38.958298" lon="-5.833828">
        <ele>260.0</ele>
        <time>2021-02-13T12:16:53Z</time>
      </trkpt>
      <trkpt lat="38.95827" lon="-5.833896">
        <ele>260.0</ele>
        <time>2021-02-13T12:16:53Z</time>
      </trkpt>
      <trkpt lat="38.958244" lon="-5.833957">
        <ele>260.0</ele>
        <time>2021-02-13T12:16:55Z</time>
      </trkpt>
      <trkpt lat="38.958214" lon="-5.834014">
        <ele>260.0</ele>
        <time>2021-02-13T12:16:55Z</time>
      </trkpt>
      <trkpt lat="38.958187" lon="-5.8340697">
        <ele>260.0</ele>
        <time>2021-02-13T12:16:56Z</time>
      </trkpt>
      <trkpt lat="38.95816" lon="-5.8341255">
        <ele>260.0</ele>
        <time>2021-02-13T12:16:58Z</time>
      </trkpt>
      <trkpt lat="38.958145" lon="-5.834182">
        <ele>260.0</ele>
        <time>2021-02-13T12:16:58Z</time>
      </trkpt>
      <trkpt lat="38.95813" lon="-5.83424">
        <ele>260.0</ele>
        <time>2021-02-13T12:17:00Z</time>
      </trkpt>
      <trkpt lat="38.95813" lon="-5.834301">
        <ele>260.0</ele>
        <time>2021-02-13T12:17:00Z</time>
      </trkpt>
      <trkpt lat="38.95813" lon="-5.8343687">
        <ele>260.0</ele>
        <time>2021-02-13T12:17:02Z</time>
      </trkpt>
      <trkpt lat="38.958134" lon="-5.834437">
        <ele>260.0</ele>
        <time>2021-02-13T12:17:03Z</time>
      </trkpt>
      <trkpt lat="38.958138" lon="-5.834504">
        <ele>260.0</ele>
        <time>2021-02-13T12:17:03Z</time>
      </trkpt>
      <trkpt lat="38.958134" lon="-5.8345695">
        <ele>259.0</ele>
        <time>2021-02-13T12:17:05Z</time>
      </trkpt>
      <trkpt lat="38.95813" lon="-5.8346324">
        <ele>259.0</ele>
        <time>2021-02-13T12:17:06Z</time>
      </trkpt>
      <trkpt lat="38.958126" lon="-5.834695">
        <ele>259.0</ele>
        <time>2021-02-13T12:17:07Z</time>
      </trkpt>
      <trkpt lat="38.958122" lon="-5.834758">
        <ele>259.0</ele>
        <time>2021-02-13T12:17:07Z</time>
      </trkpt>
      <trkpt lat="38.958115" lon="-5.8348155">
        <ele>259.0</ele>
        <time>2021-02-13T12:17:09Z</time>
      </trkpt>
      <trkpt lat="38.9581" lon="-5.834879">
        <ele>259.0</ele>
        <time>2021-02-13T12:17:10Z</time>
      </trkpt>
      <trkpt lat="38.958088" lon="-5.8349376">
        <ele>259.0</ele>
        <time>2021-02-13T12:17:11Z</time>
      </trkpt>
      <trkpt lat="38.95807" lon="-5.8350005">
        <ele>259.0</ele>
        <time>2021-02-13T12:17:11Z</time>
      </trkpt>
      <trkpt lat="38.958054" lon="-5.835061">
        <ele>259.0</ele>
        <time>2021-02-13T12:17:13Z</time>
      </trkpt>
      <trkpt lat="38.95804" lon="-5.8351173">
        <ele>259.0</ele>
        <time>2021-02-13T12:17:13Z</time>
      </trkpt>
      <trkpt lat="38.95802" lon="-5.8351755">
        <ele>259.0</ele>
        <time>2021-02-13T12:17:15Z</time>
      </trkpt>
      <trkpt lat="38.957996" lon="-5.8352346">
        <ele>259.0</ele>
        <time>2021-02-13T12:17:15Z</time>
      </trkpt>
      <trkpt lat="38.957977" lon="-5.8352966">
        <ele>259.0</ele>
        <time>2021-02-13T12:17:17Z</time>
      </trkpt>
      <trkpt lat="38.95796" lon="-5.835358">
        <ele>259.0</ele>
        <time>2021-02-13T12:17:17Z</time>
      </trkpt>
      <trkpt lat="38.95794" lon="-5.8354187">
        <ele>259.0</ele>
        <time>2021-02-13T12:17:19Z</time>
      </trkpt>
      <trkpt lat="38.95792" lon="-5.8354816">
        <ele>259.0</ele>
        <time>2021-02-13T12:17:19Z</time>
      </trkpt>
      <trkpt lat="38.957897" lon="-5.8355436">
        <ele>259.0</ele>
        <time>2021-02-13T12:17:19Z</time>
      </trkpt>
      <trkpt lat="38.95788" lon="-5.8356066">
        <ele>259.0</ele>
        <time>2021-02-13T12:17:21Z</time>
      </trkpt>
      <trkpt lat="38.95786" lon="-5.835669">
        <ele>259.0</ele>
        <time>2021-02-13T12:17:22Z</time>
      </trkpt>
      <trkpt lat="38.957836" lon="-5.835733">
        <ele>259.0</ele>
        <time>2021-02-13T12:17:22Z</time>
      </trkpt>
      <trkpt lat="38.957817" lon="-5.8357973">
        <ele>259.0</ele>
        <time>2021-02-13T12:17:24Z</time>
      </trkpt>
      <trkpt lat="38.957798" lon="-5.835856">
        <ele>260.0</ele>
        <time>2021-02-13T12:17:24Z</time>
      </trkpt>
      <trkpt lat="38.95778" lon="-5.8359194">
        <ele>260.0</ele>
        <time>2021-02-13T12:17:26Z</time>
      </trkpt>
      <trkpt lat="38.957764" lon="-5.8359814">
        <ele>260.0</ele>
        <time>2021-02-13T12:17:27Z</time>
      </trkpt>
      <trkpt lat="38.95775" lon="-5.836043">
        <ele>260.0</ele>
        <time>2021-02-13T12:17:28Z</time>
      </trkpt>
      <trkpt lat="38.957733" lon="-5.8361044">
        <ele>260.0</ele>
        <time>2021-02-13T12:17:28Z</time>
      </trkpt>
      <trkpt lat="38.95772" lon="-5.836161">
        <ele>260.0</ele>
        <time>2021-02-13T12:17:30Z</time>
      </trkpt>
      <trkpt lat="38.95771" lon="-5.836221">
        <ele>260.0</ele>
        <time>2021-02-13T12:17:31Z</time>
      </trkpt>
      <trkpt lat="38.9577" lon="-5.836281">
        <ele>260.0</ele>
        <time>2021-02-13T12:17:32Z</time>
      </trkpt>
      <trkpt lat="38.957687" lon="-5.836341">
        <ele>260.0</ele>
        <time>2021-02-13T12:17:32Z</time>
      </trkpt>
      <trkpt lat="38.95768" lon="-5.8363986">
        <ele>261.0</ele>
        <time>2021-02-13T12:17:34Z</time>
      </trkpt>
      <trkpt lat="38.957672" lon="-5.836458">
        <ele>261.0</ele>
        <time>2021-02-13T12:17:35Z</time>
      </trkpt>
      <trkpt lat="38.957664" lon="-5.836518">
        <ele>261.0</ele>
        <time>2021-02-13T12:17:36Z</time>
      </trkpt>
      <trkpt lat="38.957657" lon="-5.8365803">
        <ele>261.0</ele>
        <time>2021-02-13T12:17:36Z</time>
      </trkpt>
      <trkpt lat="38.95765" lon="-5.836641">
        <ele>261.0</ele>
        <time>2021-02-13T12:17:38Z</time>
      </trkpt>
      <trkpt lat="38.95765" lon="-5.836698">
        <ele>261.0</ele>
        <time>2021-02-13T12:17:39Z</time>
      </trkpt>
      <trkpt lat="38.95764" lon="-5.8367505">
        <ele>261.0</ele>
        <time>2021-02-13T12:17:40Z</time>
      </trkpt>
      <trkpt lat="38.957638" lon="-5.8368025">
        <ele>261.0</ele>
        <time>2021-02-13T12:17:41Z</time>
      </trkpt>
      <trkpt lat="38.95763" lon="-5.836851">
        <ele>261.0</ele>
        <time>2021-02-13T12:17:42Z</time>
      </trkpt>
      <trkpt lat="38.95763" lon="-5.8369045">
        <ele>261.0</ele>
        <time>2021-02-13T12:17:43Z</time>
      </trkpt>
      <trkpt lat="38.957626" lon="-5.83696">
        <ele>261.0</ele>
        <time>2021-02-13T12:17:44Z</time>
      </trkpt>
      <trkpt lat="38.957626" lon="-5.8370132">
        <ele>262.0</ele>
        <time>2021-02-13T12:17:45Z</time>
      </trkpt>
      <trkpt lat="38.957623" lon="-5.8370647">
        <ele>262.0</ele>
        <time>2021-02-13T12:17:45Z</time>
      </trkpt>
      <trkpt lat="38.957623" lon="-5.8371134">
        <ele>262.0</ele>
        <time>2021-02-13T12:17:47Z</time>
      </trkpt>
      <trkpt lat="38.957623" lon="-5.8371663">
        <ele>262.0</ele>
        <time>2021-02-13T12:17:47Z</time>
      </trkpt>
      <trkpt lat="38.95762" lon="-5.8372173">
        <ele>262.0</ele>
        <time>2021-02-13T12:17:49Z</time>
      </trkpt>
      <trkpt lat="38.95762" lon="-5.837266">
        <ele>262.0</ele>
        <time>2021-02-13T12:17:50Z</time>
      </trkpt>
      <trkpt lat="38.957615" lon="-5.8373094">
        <ele>262.0</ele>
        <time>2021-02-13T12:17:51Z</time>
      </trkpt>
      <trkpt lat="38.957615" lon="-5.837352">
        <ele>263.0</ele>
        <time>2021-02-13T12:17:52Z</time>
      </trkpt>
      <trkpt lat="38.957615" lon="-5.8373985">
        <ele>263.0</ele>
        <time>2021-02-13T12:17:53Z</time>
      </trkpt>
      <trkpt lat="38.95761" lon="-5.837444">
        <ele>263.0</ele>
        <time>2021-02-13T12:17:54Z</time>
      </trkpt>
      <trkpt lat="38.957607" lon="-5.837485">
        <ele>263.0</ele>
        <time>2021-02-13T12:17:55Z</time>
      </trkpt>
      <trkpt lat="38.957603" lon="-5.8375273">
        <ele>263.0</ele>
        <time>2021-02-13T12:17:55Z</time>
      </trkpt>
      <trkpt lat="38.9576" lon="-5.8375697">
        <ele>263.0</ele>
        <time>2021-02-13T12:17:57Z</time>
      </trkpt>
      <trkpt lat="38.9576" lon="-5.8376126">
        <ele>263.0</ele>
        <time>2021-02-13T12:17:58Z</time>
      </trkpt>
      <trkpt lat="38.957596" lon="-5.8376594">
        <ele>263.0</ele>
        <time>2021-02-13T12:17:59Z</time>
      </trkpt>
      <trkpt lat="38.957596" lon="-5.837703">
        <ele>263.0</ele>
        <time>2021-02-13T12:17:59Z</time>
      </trkpt>
      <trkpt lat="38.957592" lon="-5.8377466">
        <ele>264.0</ele>
        <time>2021-02-13T12:18:01Z</time>
      </trkpt>
      <trkpt lat="38.957592" lon="-5.837794">
        <ele>264.0</ele>
        <time>2021-02-13T12:18:01Z</time>
      </trkpt>
      <trkpt lat="38.957592" lon="-5.837837">
        <ele>264.0</ele>
        <time>2021-02-13T12:18:03Z</time>
      </trkpt>
      <trkpt lat="38.957584" lon="-5.837886">
        <ele>264.0</ele>
        <time>2021-02-13T12:18:04Z</time>
      </trkpt>
      <trkpt lat="38.957584" lon="-5.8379354">
        <ele>264.0</ele>
        <time>2021-02-13T12:18:05Z</time>
      </trkpt>
      <trkpt lat="38.957584" lon="-5.8379803">
        <ele>264.0</ele>
        <time>2021-02-13T12:18:05Z</time>
      </trkpt>
      <trkpt lat="38.957577" lon="-5.838026">
        <ele>265.0</ele>
        <time>2021-02-13T12:18:06Z</time>
      </trkpt>
      <trkpt lat="38.957573" lon="-5.8380747">
        <ele>265.0</ele>
        <time>2021-02-13T12:18:07Z</time>
      </trkpt>
      <trkpt lat="38.95757" lon="-5.838125">
        <ele>265.0</ele>
        <time>2021-02-13T12:18:09Z</time>
      </trkpt>
      <trkpt lat="38.95756" lon="-5.8381715">
        <ele>265.0</ele>
        <time>2021-02-13T12:18:10Z</time>
      </trkpt>
      <trkpt lat="38.95756" lon="-5.8382125">
        <ele>265.0</ele>
        <time>2021-02-13T12:18:11Z</time>
      </trkpt>
      <trkpt lat="38.957554" lon="-5.838253">
        <ele>265.0</ele>
        <time>2021-02-13T12:18:12Z</time>
      </trkpt>
      <trkpt lat="38.957554" lon="-5.838295">
        <ele>266.0</ele>
        <time>2021-02-13T12:18:12Z</time>
      </trkpt>
      <trkpt lat="38.957546" lon="-5.838344">
        <ele>266.0</ele>
        <time>2021-02-13T12:18:14Z</time>
      </trkpt>
      <trkpt lat="38.957542" lon="-5.838391">
        <ele>266.0</ele>
        <time>2021-02-13T12:18:14Z</time>
      </trkpt>
      <trkpt lat="38.95754" lon="-5.8384376">
        <ele>266.0</ele>
        <time>2021-02-13T12:18:16Z</time>
      </trkpt>
      <trkpt lat="38.957535" lon="-5.8384824">
        <ele>266.0</ele>
        <time>2021-02-13T12:18:17Z</time>
      </trkpt>
      <trkpt lat="38.95753" lon="-5.8385286">
        <ele>266.0</ele>
        <time>2021-02-13T12:18:18Z</time>
      </trkpt>
      <trkpt lat="38.957527" lon="-5.8385773">
        <ele>266.0</ele>
        <time>2021-02-13T12:18:19Z</time>
      </trkpt>
      <trkpt lat="38.95752" lon="-5.838626">
        <ele>266.0</ele>
        <time>2021-02-13T12:18:20Z</time>
      </trkpt>
      <trkpt lat="38.957516" lon="-5.838674">
        <ele>266.0</ele>
        <time>2021-02-13T12:18:20Z</time>
      </trkpt>
      <trkpt lat="38.957508" lon="-5.838716">
        <ele>266.0</ele>
        <time>2021-02-13T12:18:22Z</time>
      </trkpt>
      <trkpt lat="38.957508" lon="-5.8387566">
        <ele>266.0</ele>
        <time>2021-02-13T12:18:22Z</time>
      </trkpt>
      <trkpt lat="38.9575" lon="-5.838798">
        <ele>267.0</ele>
        <time>2021-02-13T12:18:24Z</time>
      </trkpt>
      <trkpt lat="38.957497" lon="-5.8388395">
        <ele>267.0</ele>
        <time>2021-02-13T12:18:25Z</time>
      </trkpt>
      <trkpt lat="38.95749" lon="-5.83888">
        <ele>267.0</ele>
        <time>2021-02-13T12:18:26Z</time>
      </trkpt>
      <trkpt lat="38.957485" lon="-5.8389173">
        <ele>267.0</ele>
        <time>2021-02-13T12:18:27Z</time>
      </trkpt>
      <trkpt lat="38.957478" lon="-5.8389554">
        <ele>267.0</ele>
        <time>2021-02-13T12:18:27Z</time>
      </trkpt>
      <trkpt lat="38.95747" lon="-5.838995">
        <ele>267.0</ele>
        <time>2021-02-13T12:18:29Z</time>
      </trkpt>
      <trkpt lat="38.957462" lon="-5.839036">
        <ele>267.0</ele>
        <time>2021-02-13T12:18:29Z</time>
      </trkpt>
      <trkpt lat="38.95745" lon="-5.839082">
        <ele>267.0</ele>
        <time>2021-02-13T12:18:31Z</time>
      </trkpt>
      <trkpt lat="38.957443" lon="-5.8391237">
        <ele>267.0</ele>
        <time>2021-02-13T12:18:31Z</time>
      </trkpt>
      <trkpt lat="38.957436" lon="-5.839168">
        <ele>267.0</ele>
        <time>2021-02-13T12:18:33Z</time>
      </trkpt>
      <trkpt lat="38.957424" lon="-5.839213">
        <ele>267.0</ele>
        <time>2021-02-13T12:18:34Z</time>
      </trkpt>
      <trkpt lat="38.957413" lon="-5.839264">
        <ele>266.0</ele>
        <time>2021-02-13T12:18:35Z</time>
      </trkpt>
      <trkpt lat="38.957397" lon="-5.8393154">
        <ele>266.0</ele>
        <time>2021-02-13T12:18:36Z</time>
      </trkpt>
      <trkpt lat="38.957386" lon="-5.839364">
        <ele>266.0</ele>
        <time>2021-02-13T12:18:36Z</time>
      </trkpt>
      <trkpt lat="38.95737" lon="-5.839413">
        <ele>266.0</ele>
        <time>2021-02-13T12:18:37Z</time>
      </trkpt>
      <trkpt lat="38.95736" lon="-5.8394637">
        <ele>266.0</ele>
        <time>2021-02-13T12:18:39Z</time>
      </trkpt>
      <trkpt lat="38.957344" lon="-5.8395143">
        <ele>266.0</ele>
        <time>2021-02-13T12:18:39Z</time>
      </trkpt>
      <trkpt lat="38.95733" lon="-5.83957">
        <ele>265.0</ele>
        <time>2021-02-13T12:18:41Z</time>
      </trkpt>
      <trkpt lat="38.957314" lon="-5.839625">
        <ele>265.0</ele>
        <time>2021-02-13T12:18:41Z</time>
      </trkpt>
      <trkpt lat="38.9573" lon="-5.8396773">
        <ele>265.0</ele>
        <time>2021-02-13T12:18:43Z</time>
      </trkpt>
      <trkpt lat="38.957283" lon="-5.8397317">
        <ele>265.0</ele>
        <time>2021-02-13T12:18:43Z</time>
      </trkpt>
      <trkpt lat="38.957268" lon="-5.839792">
        <ele>265.0</ele>
        <time>2021-02-13T12:18:45Z</time>
      </trkpt>
      <trkpt lat="38.95725" lon="-5.839853">
        <ele>265.0</ele>
        <time>2021-02-13T12:18:45Z</time>
      </trkpt>
      <trkpt lat="38.95723" lon="-5.839915">
        <ele>264.0</ele>
        <time>2021-02-13T12:18:47Z</time>
      </trkpt>
      <trkpt lat="38.95721" lon="-5.839971">
        <ele>264.0</ele>
        <time>2021-02-13T12:18:48Z</time>
      </trkpt>
      <trkpt lat="38.957195" lon="-5.84003">
        <ele>264.0</ele>
        <time>2021-02-13T12:18:49Z</time>
      </trkpt>
      <trkpt lat="38.95718" lon="-5.840094">
        <ele>264.0</ele>
        <time>2021-02-13T12:18:49Z</time>
      </trkpt>
      <trkpt lat="38.957157" lon="-5.8401575">
        <ele>264.0</ele>
        <time>2021-02-13T12:18:51Z</time>
      </trkpt>
      <trkpt lat="38.95714" lon="-5.84022">
        <ele>264.0</ele>
        <time>2021-02-13T12:18:52Z</time>
      </trkpt>
      <trkpt lat="38.957127" lon="-5.840283">
        <ele>264.0</ele>
        <time>2021-02-13T12:18:52Z</time>
      </trkpt>
      <trkpt lat="38.957108" lon="-5.840345">
        <ele>264.0</ele>
        <time>2021-02-13T12:18:54Z</time>
      </trkpt>
      <trkpt lat="38.957092" lon="-5.840408">
        <ele>264.0</ele>
        <time>2021-02-13T12:18:55Z</time>
      </trkpt>
      <trkpt lat="38.95708" lon="-5.84047">
        <ele>264.0</ele>
        <time>2021-02-13T12:18:56Z</time>
      </trkpt>
      <trkpt lat="38.957066" lon="-5.8405323">
        <ele>264.0</ele>
        <time>2021-02-13T12:18:56Z</time>
      </trkpt>
      <trkpt lat="38.957054" lon="-5.8405914">
        <ele>264.0</ele>
        <time>2021-02-13T12:18:57Z</time>
      </trkpt>
      <trkpt lat="38.957043" lon="-5.8406515">
        <ele>264.0</ele>
        <time>2021-02-13T12:18:58Z</time>
      </trkpt>
      <trkpt lat="38.95703" lon="-5.840713">
        <ele>264.0</ele>
        <time>2021-02-13T12:19:00Z</time>
      </trkpt>
      <trkpt lat="38.957024" lon="-5.8407755">
        <ele>264.0</ele>
        <time>2021-02-13T12:19:01Z</time>
      </trkpt>
      <trkpt lat="38.95701" lon="-5.8408427">
        <ele>264.0</ele>
        <time>2021-02-13T12:19:02Z</time>
      </trkpt>
      <trkpt lat="38.956993" lon="-5.8409095">
        <ele>264.0</ele>
        <time>2021-02-13T12:19:03Z</time>
      </trkpt>
      <trkpt lat="38.95698" lon="-5.84097">
        <ele>264.0</ele>
        <time>2021-02-13T12:19:04Z</time>
      </trkpt>
      <trkpt lat="38.95697" lon="-5.841037">
        <ele>264.0</ele>
        <time>2021-02-13T12:19:04Z</time>
      </trkpt>
      <trkpt lat="38.956955" lon="-5.841104">
        <ele>264.0</ele>
        <time>2021-02-13T12:19:06Z</time>
      </trkpt>
      <trkpt lat="38.956944" lon="-5.8411694">
        <ele>264.0</ele>
        <time>2021-02-13T12:19:07Z</time>
      </trkpt>
      <trkpt lat="38.956932" lon="-5.8412333">
        <ele>264.0</ele>
        <time>2021-02-13T12:19:08Z</time>
      </trkpt>
      <trkpt lat="38.95692" lon="-5.841295">
        <ele>264.0</ele>
        <time>2021-02-13T12:19:09Z</time>
      </trkpt>
      <trkpt lat="38.956905" lon="-5.84136">
        <ele>264.0</ele>
        <time>2021-02-13T12:19:09Z</time>
      </trkpt>
      <trkpt lat="38.956894" lon="-5.8414254">
        <ele>264.0</ele>
        <time>2021-02-13T12:19:11Z</time>
      </trkpt>
      <trkpt lat="38.95688" lon="-5.84149">
        <ele>264.0</ele>
        <time>2021-02-13T12:19:11Z</time>
      </trkpt>
      <trkpt lat="38.956867" lon="-5.8415537">
        <ele>264.0</ele>
        <time>2021-02-13T12:19:13Z</time>
      </trkpt>
      <trkpt lat="38.956852" lon="-5.841618">
        <ele>264.0</ele>
        <time>2021-02-13T12:19:14Z</time>
      </trkpt>
      <trkpt lat="38.956844" lon="-5.841678">
        <ele>264.0</ele>
        <time>2021-02-13T12:19:15Z</time>
      </trkpt>
      <trkpt lat="38.95683" lon="-5.8417435">
        <ele>264.0</ele>
        <time>2021-02-13T12:19:16Z</time>
      </trkpt>
      <trkpt lat="38.956818" lon="-5.841809">
        <ele>264.0</ele>
        <time>2021-02-13T12:19:17Z</time>
      </trkpt>
      <trkpt lat="38.956802" lon="-5.841873">
        <ele>264.0</ele>
        <time>2021-02-13T12:19:17Z</time>
      </trkpt>
      <trkpt lat="38.95679" lon="-5.8419333">
        <ele>264.0</ele>
        <time>2021-02-13T12:19:19Z</time>
      </trkpt>
      <trkpt lat="38.956776" lon="-5.8419976">
        <ele>264.0</ele>
        <time>2021-02-13T12:19:20Z</time>
      </trkpt>
      <trkpt lat="38.956757" lon="-5.8420606">
        <ele>264.0</ele>
        <time>2021-02-13T12:19:21Z</time>
      </trkpt>
      <trkpt lat="38.956738" lon="-5.842126">
        <ele>264.0</ele>
        <time>2021-02-13T12:19:22Z</time>
      </trkpt>
      <trkpt lat="38.956722" lon="-5.8421907">
        <ele>264.0</ele>
        <time>2021-02-13T12:19:23Z</time>
      </trkpt>
      <trkpt lat="38.95671" lon="-5.8422565">
        <ele>264.0</ele>
        <time>2021-02-13T12:19:23Z</time>
      </trkpt>
      <trkpt lat="38.956696" lon="-5.842318">
        <ele>264.0</ele>
        <time>2021-02-13T12:19:25Z</time>
      </trkpt>
      <trkpt lat="38.95668" lon="-5.8423834">
        <ele>264.0</ele>
        <time>2021-02-13T12:19:26Z</time>
      </trkpt>
      <trkpt lat="38.956665" lon="-5.842449">
        <ele>264.0</ele>
        <time>2021-02-13T12:19:27Z</time>
      </trkpt>
      <trkpt lat="38.95665" lon="-5.842515">
        <ele>264.0</ele>
        <time>2021-02-13T12:19:28Z</time>
      </trkpt>
      <trkpt lat="38.956635" lon="-5.8425803">
        <ele>264.0</ele>
        <time>2021-02-13T12:19:29Z</time>
      </trkpt>
      <trkpt lat="38.956615" lon="-5.842642">
        <ele>264.0</ele>
        <time>2021-02-13T12:19:30Z</time>
      </trkpt>
      <trkpt lat="38.9566" lon="-5.8427052">
        <ele>264.0</ele>
        <time>2021-02-13T12:19:31Z</time>
      </trkpt>
      <trkpt lat="38.956585" lon="-5.8427744">
        <ele>264.0</ele>
        <time>2021-02-13T12:19:32Z</time>
      </trkpt>
      <trkpt lat="38.95657" lon="-5.84284">
        <ele>264.0</ele>
        <time>2021-02-13T12:19:33Z</time>
      </trkpt>
      <trkpt lat="38.95656" lon="-5.8429065">
        <ele>265.0</ele>
        <time>2021-02-13T12:19:34Z</time>
      </trkpt>
      <trkpt lat="38.956543" lon="-5.8429723">
        <ele>265.0</ele>
        <time>2021-02-13T12:19:35Z</time>
      </trkpt>
      <trkpt lat="38.95653" lon="-5.8430376">
        <ele>265.0</ele>
        <time>2021-02-13T12:19:35Z</time>
      </trkpt>
      <trkpt lat="38.95652" lon="-5.843102">
        <ele>265.0</ele>
        <time>2021-02-13T12:19:37Z</time>
      </trkpt>
      <trkpt lat="38.956505" lon="-5.843165">
        <ele>265.0</ele>
        <time>2021-02-13T12:19:38Z</time>
      </trkpt>
      <trkpt lat="38.956493" lon="-5.8432283">
        <ele>265.0</ele>
        <time>2021-02-13T12:19:38Z</time>
      </trkpt>
      <trkpt lat="38.956482" lon="-5.8432875">
        <ele>265.0</ele>
        <time>2021-02-13T12:19:40Z</time>
      </trkpt>
      <trkpt lat="38.956467" lon="-5.8433485">
        <ele>265.0</ele>
        <time>2021-02-13T12:19:40Z</time>
      </trkpt>
      <trkpt lat="38.956455" lon="-5.843411">
        <ele>265.0</ele>
        <time>2021-02-13T12:19:42Z</time>
      </trkpt>
      <trkpt lat="38.95644" lon="-5.843478">
        <ele>265.0</ele>
        <time>2021-02-13T12:19:42Z</time>
      </trkpt>
      <trkpt lat="38.956425" lon="-5.8435454">
        <ele>265.0</ele>
        <time>2021-02-13T12:19:43Z</time>
      </trkpt>
      <trkpt lat="38.95641" lon="-5.843608">
        <ele>265.0</ele>
        <time>2021-02-13T12:19:45Z</time>
      </trkpt>
      <trkpt lat="38.956394" lon="-5.8436704">
        <ele>265.0</ele>
        <time>2021-02-13T12:19:46Z</time>
      </trkpt>
      <trkpt lat="38.95638" lon="-5.8437343">
        <ele>265.0</ele>
        <time>2021-02-13T12:19:47Z</time>
      </trkpt>
      <trkpt lat="38.95636" lon="-5.8438025">
        <ele>265.0</ele>
        <time>2021-02-13T12:19:48Z</time>
      </trkpt>
      <trkpt lat="38.95635" lon="-5.8438687">
        <ele>265.0</ele>
        <time>2021-02-13T12:19:49Z</time>
      </trkpt>
      <trkpt lat="38.956333" lon="-5.84393">
        <ele>265.0</ele>
        <time>2021-02-13T12:19:50Z</time>
      </trkpt>
      <trkpt lat="38.956318" lon="-5.8439937">
        <ele>265.0</ele>
        <time>2021-02-13T12:19:50Z</time>
      </trkpt>
      <trkpt lat="38.956303" lon="-5.8440523">
        <ele>265.0</ele>
        <time>2021-02-13T12:19:52Z</time>
      </trkpt>
      <trkpt lat="38.956287" lon="-5.8441153">
        <ele>265.0</ele>
        <time>2021-02-13T12:19:53Z</time>
      </trkpt>
      <trkpt lat="38.95627" lon="-5.8441772">
        <ele>265.0</ele>
        <time>2021-02-13T12:19:53Z</time>
      </trkpt>
      <trkpt lat="38.956253" lon="-5.8442388">
        <ele>265.0</ele>
        <time>2021-02-13T12:19:54Z</time>
      </trkpt>
      <trkpt lat="38.956238" lon="-5.844299">
        <ele>265.0</ele>
        <time>2021-02-13T12:19:56Z</time>
      </trkpt>
      <trkpt lat="38.956223" lon="-5.844355">
        <ele>265.0</ele>
        <time>2021-02-13T12:19:57Z</time>
      </trkpt>
      <trkpt lat="38.956207" lon="-5.8444166">
        <ele>265.0</ele>
        <time>2021-02-13T12:19:58Z</time>
      </trkpt>
      <trkpt lat="38.95619" lon="-5.844478">
        <ele>265.0</ele>
        <time>2021-02-13T12:19:59Z</time>
      </trkpt>
      <trkpt lat="38.956173" lon="-5.8445387">
        <ele>265.0</ele>
        <time>2021-02-13T12:19:59Z</time>
      </trkpt>
      <trkpt lat="38.956158" lon="-5.8445983">
        <ele>266.0</ele>
        <time>2021-02-13T12:20:00Z</time>
      </trkpt>
      <trkpt lat="38.956142" lon="-5.844654">
        <ele>266.0</ele>
        <time>2021-02-13T12:20:02Z</time>
      </trkpt>
      <trkpt lat="38.956127" lon="-5.844711">
        <ele>266.0</ele>
        <time>2021-02-13T12:20:02Z</time>
      </trkpt>
      <trkpt lat="38.956112" lon="-5.844768">
        <ele>266.0</ele>
        <time>2021-02-13T12:20:04Z</time>
      </trkpt>
      <trkpt lat="38.956097" lon="-5.8448305">
        <ele>266.0</ele>
        <time>2021-02-13T12:20:05Z</time>
      </trkpt>
      <trkpt lat="38.95608" lon="-5.844889">
        <ele>266.0</ele>
        <time>2021-02-13T12:20:06Z</time>
      </trkpt>
      <trkpt lat="38.956062" lon="-5.844948">
        <ele>266.0</ele>
        <time>2021-02-13T12:20:07Z</time>
      </trkpt>
      <trkpt lat="38.956047" lon="-5.845005">
        <ele>266.0</ele>
        <time>2021-02-13T12:20:08Z</time>
      </trkpt>
      <trkpt lat="38.956028" lon="-5.845067">
        <ele>266.0</ele>
        <time>2021-02-13T12:20:09Z</time>
      </trkpt>
      <trkpt lat="38.956013" lon="-5.845127">
        <ele>266.0</ele>
        <time>2021-02-13T12:20:10Z</time>
      </trkpt>
      <trkpt lat="38.955997" lon="-5.845182">
        <ele>266.0</ele>
        <time>2021-02-13T12:20:11Z</time>
      </trkpt>
      <trkpt lat="38.955982" lon="-5.845239">
        <ele>267.0</ele>
        <time>2021-02-13T12:20:12Z</time>
      </trkpt>
      <trkpt lat="38.955963" lon="-5.8452954">
        <ele>267.0</ele>
        <time>2021-02-13T12:20:12Z</time>
      </trkpt>
      <trkpt lat="38.955948" lon="-5.8453517">
        <ele>267.0</ele>
        <time>2021-02-13T12:20:14Z</time>
      </trkpt>
      <trkpt lat="38.95593" lon="-5.8454065">
        <ele>267.0</ele>
        <time>2021-02-13T12:20:14Z</time>
      </trkpt>
      <trkpt lat="38.95591" lon="-5.8454604">
        <ele>267.0</ele>
        <time>2021-02-13T12:20:16Z</time>
      </trkpt>
      <trkpt lat="38.955894" lon="-5.8455143">
        <ele>268.0</ele>
        <time>2021-02-13T12:20:16Z</time>
      </trkpt>
      <trkpt lat="38.95588" lon="-5.845567">
        <ele>268.0</ele>
        <time>2021-02-13T12:20:18Z</time>
      </trkpt>
      <trkpt lat="38.95586" lon="-5.845619">
        <ele>268.0</ele>
        <time>2021-02-13T12:20:18Z</time>
      </trkpt>
      <trkpt lat="38.95584" lon="-5.845673">
        <ele>268.0</ele>
        <time>2021-02-13T12:20:20Z</time>
      </trkpt>
      <trkpt lat="38.95582" lon="-5.8457246">
        <ele>269.0</ele>
        <time>2021-02-13T12:20:20Z</time>
      </trkpt>
      <trkpt lat="38.955803" lon="-5.8457766">
        <ele>269.0</ele>
        <time>2021-02-13T12:20:22Z</time>
      </trkpt>
      <trkpt lat="38.95578" lon="-5.845829">
        <ele>269.0</ele>
        <time>2021-02-13T12:20:22Z</time>
      </trkpt>
      <trkpt lat="38.95576" lon="-5.8458805">
        <ele>269.0</ele>
        <time>2021-02-13T12:20:24Z</time>
      </trkpt>
      <trkpt lat="38.95574" lon="-5.845935">
        <ele>269.0</ele>
        <time>2021-02-13T12:20:25Z</time>
      </trkpt>
      <trkpt lat="38.95572" lon="-5.845984">
        <ele>269.0</ele>
        <time>2021-02-13T12:20:26Z</time>
      </trkpt>
      <trkpt lat="38.9557" lon="-5.846032">
        <ele>269.0</ele>
        <time>2021-02-13T12:20:27Z</time>
      </trkpt>
      <trkpt lat="38.955677" lon="-5.846079">
        <ele>269.0</ele>
        <time>2021-02-13T12:20:28Z</time>
      </trkpt>
      <trkpt lat="38.955654" lon="-5.846126">
        <ele>269.0</ele>
        <time>2021-02-13T12:20:29Z</time>
      </trkpt>
      <trkpt lat="38.95563" lon="-5.8461714">
        <ele>269.0</ele>
        <time>2021-02-13T12:20:30Z</time>
      </trkpt>
      <trkpt lat="38.955612" lon="-5.8462105">
        <ele>269.0</ele>
        <time>2021-02-13T12:20:30Z</time>
      </trkpt>
      <trkpt lat="38.955593" lon="-5.846248">
        <ele>269.0</ele>
        <time>2021-02-13T12:20:32Z</time>
      </trkpt>
      <trkpt lat="38.95557" lon="-5.846285">
        <ele>269.0</ele>
        <time>2021-02-13T12:20:33Z</time>
      </trkpt>
      <trkpt lat="38.955547" lon="-5.846324">
        <ele>269.0</ele>
        <time>2021-02-13T12:20:34Z</time>
      </trkpt>
      <trkpt lat="38.95553" lon="-5.8463616">
        <ele>269.0</ele>
        <time>2021-02-13T12:20:34Z</time>
      </trkpt>
      <trkpt lat="38.955505" lon="-5.8464">
        <ele>269.0</ele>
        <time>2021-02-13T12:20:36Z</time>
      </trkpt>
      <trkpt lat="38.955482" lon="-5.8464365">
        <ele>269.0</ele>
        <time>2021-02-13T12:20:37Z</time>
      </trkpt>
      <trkpt lat="38.95546" lon="-5.8464746">
        <ele>269.0</ele>
        <time>2021-02-13T12:20:38Z</time>
      </trkpt>
      <trkpt lat="38.955437" lon="-5.8465137">
        <ele>269.0</ele>
        <time>2021-02-13T12:20:39Z</time>
      </trkpt>
      <trkpt lat="38.955414" lon="-5.846556">
        <ele>269.0</ele>
        <time>2021-02-13T12:20:39Z</time>
      </trkpt>
      <trkpt lat="38.95539" lon="-5.8465967">
        <ele>269.0</ele>
        <time>2021-02-13T12:20:41Z</time>
      </trkpt>
      <trkpt lat="38.955368" lon="-5.846635">
        <ele>269.0</ele>
        <time>2021-02-13T12:20:41Z</time>
      </trkpt>
      <trkpt lat="38.955345" lon="-5.846674">
        <ele>269.0</ele>
        <time>2021-02-13T12:20:43Z</time>
      </trkpt>
      <trkpt lat="38.955326" lon="-5.846714">
        <ele>270.0</ele>
        <time>2021-02-13T12:20:44Z</time>
      </trkpt>
      <trkpt lat="38.955303" lon="-5.846757">
        <ele>270.0</ele>
        <time>2021-02-13T12:20:44Z</time>
      </trkpt>
      <trkpt lat="38.955284" lon="-5.8467975">
        <ele>270.0</ele>
        <time>2021-02-13T12:20:46Z</time>
      </trkpt>
      <trkpt lat="38.955265" lon="-5.8468423">
        <ele>270.0</ele>
        <time>2021-02-13T12:20:46Z</time>
      </trkpt>
      <trkpt lat="38.955246" lon="-5.846884">
        <ele>270.0</ele>
        <time>2021-02-13T12:20:48Z</time>
      </trkpt>
      <trkpt lat="38.955227" lon="-5.8469253">
        <ele>270.0</ele>
        <time>2021-02-13T12:20:49Z</time>
      </trkpt>
      <trkpt lat="38.955208" lon="-5.846967">
        <ele>270.0</ele>
        <time>2021-02-13T12:20:50Z</time>
      </trkpt>
      <trkpt lat="38.955185" lon="-5.847013">
        <ele>270.0</ele>
        <time>2021-02-13T12:20:51Z</time>
      </trkpt>
      <trkpt lat="38.955162" lon="-5.8470597">
        <ele>270.0</ele>
        <time>2021-02-13T12:20:52Z</time>
      </trkpt>
      <trkpt lat="38.955143" lon="-5.847104">
        <ele>271.0</ele>
        <time>2021-02-13T12:20:53Z</time>
      </trkpt>
      <trkpt lat="38.955116" lon="-5.847151">
        <ele>271.0</ele>
        <time>2021-02-13T12:20:54Z</time>
      </trkpt>
      <trkpt lat="38.955093" lon="-5.8472013">
        <ele>271.0</ele>
        <time>2021-02-13T12:20:55Z</time>
      </trkpt>
      <trkpt lat="38.955074" lon="-5.8472514">
        <ele>271.0</ele>
        <time>2021-02-13T12:20:56Z</time>
      </trkpt>
      <trkpt lat="38.955055" lon="-5.8472967">
        <ele>271.0</ele>
        <time>2021-02-13T12:20:57Z</time>
      </trkpt>
      <trkpt lat="38.955032" lon="-5.847344">
        <ele>271.0</ele>
        <time>2021-02-13T12:20:58Z</time>
      </trkpt>
      <trkpt lat="38.95501" lon="-5.8473935">
        <ele>271.0</ele>
        <time>2021-02-13T12:20:58Z</time>
      </trkpt>
      <trkpt lat="38.954987" lon="-5.8474426">
        <ele>271.0</ele>
        <time>2021-02-13T12:21:00Z</time>
      </trkpt>
      <trkpt lat="38.954964" lon="-5.8474956">
        <ele>271.0</ele>
        <time>2021-02-13T12:21:01Z</time>
      </trkpt>
      <trkpt lat="38.95495" lon="-5.8475437">
        <ele>271.0</ele>
        <time>2021-02-13T12:21:01Z</time>
      </trkpt>
      <trkpt lat="38.954926" lon="-5.847591">
        <ele>271.0</ele>
        <time>2021-02-13T12:21:03Z</time>
      </trkpt>
      <trkpt lat="38.954906" lon="-5.847637">
        <ele>271.0</ele>
        <time>2021-02-13T12:21:04Z</time>
      </trkpt>
      <trkpt lat="38.95489" lon="-5.847684">
        <ele>272.0</ele>
        <time>2021-02-13T12:21:05Z</time>
      </trkpt>
      <trkpt lat="38.954876" lon="-5.847736">
        <ele>272.0</ele>
        <time>2021-02-13T12:21:06Z</time>
      </trkpt>
      <trkpt lat="38.954857" lon="-5.847785">
        <ele>272.0</ele>
        <time>2021-02-13T12:21:06Z</time>
      </trkpt>
      <trkpt lat="38.95484" lon="-5.847836">
        <ele>272.0</ele>
        <time>2021-02-13T12:21:08Z</time>
      </trkpt>
      <trkpt lat="38.954823" lon="-5.8478875">
        <ele>272.0</ele>
        <time>2021-02-13T12:21:09Z</time>
      </trkpt>
      <trkpt lat="38.954807" lon="-5.847942">
        <ele>272.0</ele>
        <time>2021-02-13T12:21:10Z</time>
      </trkpt>
      <trkpt lat="38.95479" lon="-5.8479977">
        <ele>272.0</ele>
        <time>2021-02-13T12:21:10Z</time>
      </trkpt>
      <trkpt lat="38.95477" lon="-5.848048">
        <ele>273.0</ele>
        <time>2021-02-13T12:21:12Z</time>
      </trkpt>
      <trkpt lat="38.95475" lon="-5.848096">
        <ele>273.0</ele>
        <time>2021-02-13T12:21:13Z</time>
      </trkpt>
      <trkpt lat="38.95473" lon="-5.8481474">
        <ele>273.0</ele>
        <time>2021-02-13T12:21:13Z</time>
      </trkpt>
      <trkpt lat="38.954712" lon="-5.8482027">
        <ele>273.0</ele>
        <time>2021-02-13T12:21:15Z</time>
      </trkpt>
      <trkpt lat="38.954697" lon="-5.848258">
        <ele>273.0</ele>
        <time>2021-02-13T12:21:15Z</time>
      </trkpt>
      <trkpt lat="38.954678" lon="-5.8483086">
        <ele>273.0</ele>
        <time>2021-02-13T12:21:17Z</time>
      </trkpt>
      <trkpt lat="38.954662" lon="-5.848359">
        <ele>273.0</ele>
        <time>2021-02-13T12:21:18Z</time>
      </trkpt>
      <trkpt lat="38.954643" lon="-5.8484154">
        <ele>273.0</ele>
        <time>2021-02-13T12:21:19Z</time>
      </trkpt>
      <trkpt lat="38.954624" lon="-5.8484674">
        <ele>273.0</ele>
        <time>2021-02-13T12:21:20Z</time>
      </trkpt>
      <trkpt lat="38.95461" lon="-5.848517">
        <ele>273.0</ele>
        <time>2021-02-13T12:21:21Z</time>
      </trkpt>
      <trkpt lat="38.954597" lon="-5.8485637">
        <ele>273.0</ele>
        <time>2021-02-13T12:21:22Z</time>
      </trkpt>
      <trkpt lat="38.954582" lon="-5.8486114">
        <ele>273.0</ele>
        <time>2021-02-13T12:21:23Z</time>
      </trkpt>
      <trkpt lat="38.954567" lon="-5.8486605">
        <ele>273.0</ele>
        <time>2021-02-13T12:21:24Z</time>
      </trkpt>
      <trkpt lat="38.954548" lon="-5.848711">
        <ele>273.0</ele>
        <time>2021-02-13T12:21:24Z</time>
      </trkpt>
      <trkpt lat="38.954533" lon="-5.848761">
        <ele>273.0</ele>
        <time>2021-02-13T12:21:26Z</time>
      </trkpt>
      <trkpt lat="38.954517" lon="-5.84881">
        <ele>273.0</ele>
        <time>2021-02-13T12:21:26Z</time>
      </trkpt>
      <trkpt lat="38.954502" lon="-5.8488593">
        <ele>274.0</ele>
        <time>2021-02-13T12:21:28Z</time>
      </trkpt>
      <trkpt lat="38.954487" lon="-5.8489075">
        <ele>274.0</ele>
        <time>2021-02-13T12:21:29Z</time>
      </trkpt>
      <trkpt lat="38.95447" lon="-5.848954">
        <ele>274.0</ele>
        <time>2021-02-13T12:21:30Z</time>
      </trkpt>
      <trkpt lat="38.954456" lon="-5.8490005">
        <ele>274.0</ele>
        <time>2021-02-13T12:21:31Z</time>
      </trkpt>
      <trkpt lat="38.95444" lon="-5.849046">
        <ele>274.0</ele>
        <time>2021-02-13T12:21:31Z</time>
      </trkpt>
      <trkpt lat="38.95443" lon="-5.8490868">
        <ele>274.0</ele>
        <time>2021-02-13T12:21:33Z</time>
      </trkpt>
      <trkpt lat="38.95442" lon="-5.849124">
        <ele>274.0</ele>
        <time>2021-02-13T12:21:34Z</time>
      </trkpt>
      <trkpt lat="38.954403" lon="-5.84916">
        <ele>274.0</ele>
        <time>2021-02-13T12:21:34Z</time>
      </trkpt>
      <trkpt lat="38.954388" lon="-5.849194">
        <ele>274.0</ele>
        <time>2021-02-13T12:21:35Z</time>
      </trkpt>
      <trkpt lat="38.954372" lon="-5.8492274">
        <ele>274.0</ele>
        <time>2021-02-13T12:21:36Z</time>
      </trkpt>
      <trkpt lat="38.954357" lon="-5.849261">
        <ele>274.0</ele>
        <time>2021-02-13T12:21:37Z</time>
      </trkpt>
      <trkpt lat="38.954346" lon="-5.8492966">
        <ele>274.0</ele>
        <time>2021-02-13T12:21:38Z</time>
      </trkpt>
      <trkpt lat="38.95433" lon="-5.849334">
        <ele>274.0</ele>
        <time>2021-02-13T12:21:39Z</time>
      </trkpt>
      <trkpt lat="38.95432" lon="-5.8493724">
        <ele>274.0</ele>
        <time>2021-02-13T12:21:39Z</time>
      </trkpt>
      <trkpt lat="38.954308" lon="-5.849416">
        <ele>274.0</ele>
        <time>2021-02-13T12:21:41Z</time>
      </trkpt>
      <trkpt lat="38.954292" lon="-5.849459">
        <ele>274.0</ele>
        <time>2021-02-13T12:21:42Z</time>
      </trkpt>
      <trkpt lat="38.954285" lon="-5.8495">
        <ele>274.0</ele>
        <time>2021-02-13T12:21:43Z</time>
      </trkpt>
      <trkpt lat="38.954273" lon="-5.849541">
        <ele>274.0</ele>
        <time>2021-02-13T12:21:44Z</time>
      </trkpt>
      <trkpt lat="38.954266" lon="-5.8495812">
        <ele>275.0</ele>
        <time>2021-02-13T12:21:45Z</time>
      </trkpt>
      <trkpt lat="38.954254" lon="-5.8496275">
        <ele>275.0</ele>
        <time>2021-02-13T12:21:46Z</time>
      </trkpt>
      <trkpt lat="38.954247" lon="-5.8496737">
        <ele>275.0</ele>
        <time>2021-02-13T12:21:47Z</time>
      </trkpt>
      <trkpt lat="38.95423" lon="-5.8497157">
        <ele>275.0</ele>
        <time>2021-02-13T12:21:48Z</time>
      </trkpt>
      <trkpt lat="38.954216" lon="-5.8497586">
        <ele>275.0</ele>
        <time>2021-02-13T12:21:49Z</time>
      </trkpt>
      <trkpt lat="38.9542" lon="-5.849803">
        <ele>275.0</ele>
        <time>2021-02-13T12:21:50Z</time>
      </trkpt>
      <trkpt lat="38.954185" lon="-5.8498483">
        <ele>275.0</ele>
        <time>2021-02-13T12:21:50Z</time>
      </trkpt>
      <trkpt lat="38.95417" lon="-5.8498917">
        <ele>275.0</ele>
        <time>2021-02-13T12:21:52Z</time>
      </trkpt>
      <trkpt lat="38.954155" lon="-5.8499365">
        <ele>275.0</ele>
        <time>2021-02-13T12:21:53Z</time>
      </trkpt>
      <trkpt lat="38.95414" lon="-5.849981">
        <ele>275.0</ele>
        <time>2021-02-13T12:21:54Z</time>
      </trkpt>
      <trkpt lat="38.954124" lon="-5.850025">
        <ele>276.0</ele>
        <time>2021-02-13T12:21:55Z</time>
      </trkpt>
      <trkpt lat="38.954105" lon="-5.8500686">
        <ele>276.0</ele>
        <time>2021-02-13T12:21:56Z</time>
      </trkpt>
      <trkpt lat="38.95409" lon="-5.850114">
        <ele>276.0</ele>
        <time>2021-02-13T12:21:57Z</time>
      </trkpt>
      <trkpt lat="38.954075" lon="-5.850159">
        <ele>276.0</ele>
        <time>2021-02-13T12:21:58Z</time>
      </trkpt>
      <trkpt lat="38.954063" lon="-5.8502054">
        <ele>276.0</ele>
        <time>2021-02-13T12:21:59Z</time>
      </trkpt>
      <trkpt lat="38.954052" lon="-5.850252">
        <ele>276.0</ele>
        <time>2021-02-13T12:21:59Z</time>
      </trkpt>
      <trkpt lat="38.954044" lon="-5.8503003">
        <ele>276.0</ele>
        <time>2021-02-13T12:22:00Z</time>
      </trkpt>
      <trkpt lat="38.954037" lon="-5.85035">
        <ele>276.0</ele>
        <time>2021-02-13T12:22:02Z</time>
      </trkpt>
      <trkpt lat="38.954033" lon="-5.8504004">
        <ele>276.0</ele>
        <time>2021-02-13T12:22:03Z</time>
      </trkpt>
      <trkpt lat="38.95403" lon="-5.8504505">
        <ele>276.0</ele>
        <time>2021-02-13T12:22:03Z</time>
      </trkpt>
      <trkpt lat="38.95403" lon="-5.8504996">
        <ele>276.0</ele>
        <time>2021-02-13T12:22:05Z</time>
      </trkpt>
      <trkpt lat="38.95403" lon="-5.8505497">
        <ele>276.0</ele>
        <time>2021-02-13T12:22:06Z</time>
      </trkpt>
      <trkpt lat="38.95403" lon="-5.850601">
        <ele>276.0</ele>
        <time>2021-02-13T12:22:07Z</time>
      </trkpt>
      <trkpt lat="38.95403" lon="-5.8506527">
        <ele>277.0</ele>
        <time>2021-02-13T12:22:07Z</time>
      </trkpt>
      <trkpt lat="38.954033" lon="-5.850704">
        <ele>277.0</ele>
        <time>2021-02-13T12:22:08Z</time>
      </trkpt>
      <trkpt lat="38.954033" lon="-5.850755">
        <ele>277.0</ele>
        <time>2021-02-13T12:22:10Z</time>
      </trkpt>
      <trkpt lat="38.954033" lon="-5.850806">
        <ele>277.0</ele>
        <time>2021-02-13T12:22:11Z</time>
      </trkpt>
      <trkpt lat="38.954037" lon="-5.850862">
        <ele>277.0</ele>
        <time>2021-02-13T12:22:11Z</time>
      </trkpt>
      <trkpt lat="38.954037" lon="-5.8509145">
        <ele>277.0</ele>
        <time>2021-02-13T12:22:13Z</time>
      </trkpt>
      <trkpt lat="38.95404" lon="-5.850968">
        <ele>277.0</ele>
        <time>2021-02-13T12:22:14Z</time>
      </trkpt>
      <trkpt lat="38.954044" lon="-5.8510222">
        <ele>277.0</ele>
        <time>2021-02-13T12:22:14Z</time>
      </trkpt>
      <trkpt lat="38.954044" lon="-5.851079">
        <ele>277.0</ele>
        <time>2021-02-13T12:22:15Z</time>
      </trkpt>
      <trkpt lat="38.954044" lon="-5.8511405">
        <ele>277.0</ele>
        <time>2021-02-13T12:22:16Z</time>
      </trkpt>
      <trkpt lat="38.954044" lon="-5.8511972">
        <ele>278.0</ele>
        <time>2021-02-13T12:22:18Z</time>
      </trkpt>
      <trkpt lat="38.954044" lon="-5.8512597">
        <ele>278.0</ele>
        <time>2021-02-13T12:22:19Z</time>
      </trkpt>
      <trkpt lat="38.95405" lon="-5.851326">
        <ele>278.0</ele>
        <time>2021-02-13T12:22:20Z</time>
      </trkpt>
      <trkpt lat="38.95405" lon="-5.8513985">
        <ele>278.0</ele>
        <time>2021-02-13T12:22:21Z</time>
      </trkpt>
      <trkpt lat="38.954052" lon="-5.8514733">
        <ele>278.0</ele>
        <time>2021-02-13T12:22:22Z</time>
      </trkpt>
      <trkpt lat="38.954056" lon="-5.85155">
        <ele>278.0</ele>
        <time>2021-02-13T12:22:23Z</time>
      </trkpt>
      <trkpt lat="38.95406" lon="-5.85163">
        <ele>279.0</ele>
        <time>2021-02-13T12:22:23Z</time>
      </trkpt>
      <trkpt lat="38.95406" lon="-5.8517127">
        <ele>279.0</ele>
        <time>2021-02-13T12:22:25Z</time>
      </trkpt>
      <trkpt lat="38.954067" lon="-5.8517957">
        <ele>279.0</ele>
        <time>2021-02-13T12:22:25Z</time>
      </trkpt>
      <trkpt lat="38.954075" lon="-5.851879">
        <ele>279.0</ele>
        <time>2021-02-13T12:22:27Z</time>
      </trkpt>
      <trkpt lat="38.95408" lon="-5.851961">
        <ele>279.0</ele>
        <time>2021-02-13T12:22:27Z</time>
      </trkpt>
      <trkpt lat="38.954082" lon="-5.852036">
        <ele>280.0</ele>
        <time>2021-02-13T12:22:29Z</time>
      </trkpt>
      <trkpt lat="38.95409" lon="-5.852105">
        <ele>280.0</ele>
        <time>2021-02-13T12:22:29Z</time>
      </trkpt>
      <trkpt lat="38.9541" lon="-5.852178">
        <ele>281.0</ele>
        <time>2021-02-13T12:22:31Z</time>
      </trkpt>
      <trkpt lat="38.95411" lon="-5.85224">
        <ele>281.0</ele>
        <time>2021-02-13T12:22:31Z</time>
      </trkpt>
      <trkpt lat="38.95412" lon="-5.852293">
        <ele>282.0</ele>
        <time>2021-02-13T12:22:33Z</time>
      </trkpt>
      <trkpt lat="38.95413" lon="-5.852334">
        <ele>282.0</ele>
        <time>2021-02-13T12:22:33Z</time>
      </trkpt>
      <trkpt lat="38.95414" lon="-5.852367">
        <ele>282.0</ele>
        <time>2021-02-13T12:22:35Z</time>
      </trkpt>
      <trkpt lat="38.95415" lon="-5.8523903">
        <ele>283.0</ele>
        <time>2021-02-13T12:22:35Z</time>
      </trkpt>
      <trkpt lat="38.95416" lon="-5.852407">
        <ele>283.0</ele>
        <time>2021-02-13T12:22:37Z</time>
      </trkpt>
      <trkpt lat="38.95416" lon="-5.8524194">
        <ele>283.0</ele>
        <time>2021-02-13T12:22:37Z</time>
      </trkpt>
      <trkpt lat="38.954166" lon="-5.852429">
        <ele>283.0</ele>
        <time>2021-02-13T12:22:39Z</time>
      </trkpt>
      <trkpt lat="38.954235" lon="-5.8523884">
        <ele>283.0</ele>
        <time>2021-02-13T12:23:02Z</time>
      </trkpt>
      <trkpt lat="38.95424" lon="-5.852383">
        <ele>283.0</ele>
        <time>2021-02-13T12:23:02Z</time>
      </trkpt>
      <trkpt lat="38.954254" lon="-5.852373">
        <ele>283.0</ele>
        <time>2021-02-13T12:23:04Z</time>
      </trkpt>
      <trkpt lat="38.954277" lon="-5.8523602">
        <ele>283.0</ele>
        <time>2021-02-13T12:23:05Z</time>
      </trkpt>
      <trkpt lat="38.9543" lon="-5.8523483">
        <ele>283.0</ele>
        <time>2021-02-13T12:23:06Z</time>
      </trkpt>
      <trkpt lat="38.954338" lon="-5.8523393">
        <ele>283.0</ele>
        <time>2021-02-13T12:23:07Z</time>
      </trkpt>
      <trkpt lat="38.954372" lon="-5.852334">
        <ele>283.0</ele>
        <time>2021-02-13T12:23:08Z</time>
      </trkpt>
      <trkpt lat="38.954403" lon="-5.8523345">
        <ele>283.0</ele>
        <time>2021-02-13T12:23:08Z</time>
      </trkpt>
      <trkpt lat="38.954437" lon="-5.852343">
        <ele>283.0</ele>
        <time>2021-02-13T12:23:10Z</time>
      </trkpt>
      <trkpt lat="38.954468" lon="-5.85236">
        <ele>283.0</ele>
        <time>2021-02-13T12:23:11Z</time>
      </trkpt>
      <trkpt lat="38.9545" lon="-5.852384">
        <ele>283.0</ele>
        <time>2021-02-13T12:23:12Z</time>
      </trkpt>
      <trkpt lat="38.95452" lon="-5.8524156">
        <ele>283.0</ele>
        <time>2021-02-13T12:23:12Z</time>
      </trkpt>
      <trkpt lat="38.954544" lon="-5.852452">
        <ele>283.0</ele>
        <time>2021-02-13T12:23:14Z</time>
      </trkpt>
      <trkpt lat="38.95456" lon="-5.8524933">
        <ele>283.0</ele>
        <time>2021-02-13T12:23:15Z</time>
      </trkpt>
    </trkseg>
  </trk>
</gpx>
